<?xml version="1.0" encoding="UTF-8" standalone="no" ?>
<gpx xmlns="http://www.topografix.com/GPX/1/1" xmlns:xsi="http://www.w3.org/2001/XMLSchema-instance" xsi:schemaLocation="http://www.topografix.com/GPX/1/1 http://www.topografix.com/GPX/1/1/gpx.xsd" version="1.1" creator="VisuGPX - https://www.visugpx.com">
  <metadata>
    <name>Plateau d'Esmoulieres</name>
  </metadata>
  <wpt lat="47.74685" lon="6.41626">
    <ele>279</ele>
  </wpt>
  <wpt lat="47.7473" lon="6.41636">
    <ele>278</ele>
  </wpt>
  <trk>
    <name><![CDATA[Plateau d'Esmoulieres_1]]></name>
    <extensions>
      <line xmlns="http://www.topografix.com/GPX/gpx_style/0/2">
        <color>0000FF</color>
        <width>4</width>
      </line>
    </extensions>
    <trkseg>
      <trkpt lat="47.74685" lon="6.41626">
        <ele>337.00537395878</ele>
        <time>2021-08-21T09:32:29Z</time>
      </trkpt>
      <trkpt lat="47.74692" lon="6.41628">
        <ele>337.04005518173</ele>
        <time>2021-08-21T09:32:31Z</time>
      </trkpt>
      <trkpt lat="47.74699" lon="6.41631">
        <ele>337.01178877807</ele>
        <time>2021-08-21T09:32:33Z</time>
      </trkpt>
      <trkpt lat="47.74707" lon="6.41635">
        <ele>337.05338825491</ele>
        <time>2021-08-21T09:32:35Z</time>
      </trkpt>
      <trkpt lat="47.74715" lon="6.41637">
        <ele>337.16265565936</ele>
        <time>2021-08-21T09:32:37Z</time>
      </trkpt>
      <trkpt lat="47.74724" lon="6.41642">
        <ele>337.04810683951</ele>
        <time>2021-08-21T09:32:39Z</time>
      </trkpt>
      <trkpt lat="47.74733" lon="6.41647">
        <ele>336.54895288832</ele>
        <time>2021-08-21T09:32:41Z</time>
      </trkpt>
      <trkpt lat="47.74743" lon="6.41651">
        <ele>336.23454168743</ele>
        <time>2021-08-21T09:32:43Z</time>
      </trkpt>
      <trkpt lat="47.74752" lon="6.41655">
        <ele>336.12930765065</ele>
        <time>2021-08-21T09:32:45Z</time>
      </trkpt>
      <trkpt lat="47.74762" lon="6.4166">
        <ele>335.73242571734</ele>
        <time>2021-08-21T09:32:47Z</time>
      </trkpt>
      <trkpt lat="47.74772" lon="6.41664">
        <ele>335.28602504</ele>
        <time>2021-08-21T09:32:49Z</time>
      </trkpt>
      <trkpt lat="47.74783" lon="6.41669">
        <ele>335.01534405572</ele>
        <time>2021-08-21T09:32:51Z</time>
      </trkpt>
      <trkpt lat="47.74793" lon="6.41673">
        <ele>334.75485152154</ele>
        <time>2021-08-21T09:32:53Z</time>
      </trkpt>
      <trkpt lat="47.74805" lon="6.41677">
        <ele>334.49450414904</ele>
        <time>2021-08-21T09:32:55Z</time>
      </trkpt>
      <trkpt lat="47.74816" lon="6.41681">
        <ele>334.30804654206</ele>
        <time>2021-08-21T09:32:57Z</time>
      </trkpt>
      <trkpt lat="47.74829" lon="6.41683">
        <ele>334.15066144926</ele>
        <time>2021-08-21T09:32:59Z</time>
      </trkpt>
      <trkpt lat="47.74841" lon="6.41686">
        <ele>334.07399373252</ele>
        <time>2021-08-21T09:33:01Z</time>
      </trkpt>
      <trkpt lat="47.74854" lon="6.41689">
        <ele>333.98813808459</ele>
        <time>2021-08-21T09:33:03Z</time>
      </trkpt>
      <trkpt lat="47.74867" lon="6.41692">
        <ele>333.936403275</ele>
        <time>2021-08-21T09:33:05Z</time>
      </trkpt>
      <trkpt lat="47.74879" lon="6.41695">
        <ele>333.88597678308</ele>
        <time>2021-08-21T09:33:07Z</time>
      </trkpt>
      <trkpt lat="47.7489" lon="6.41702">
        <ele>333.72996016926</ele>
        <time>2021-08-21T09:33:09Z</time>
      </trkpt>
      <trkpt lat="47.74901" lon="6.41713">
        <ele>333.58392379935</ele>
        <time>2021-08-21T09:33:11Z</time>
      </trkpt>
      <trkpt lat="47.74912" lon="6.41723">
        <ele>333.39980823068</ele>
        <time>2021-08-21T09:33:13Z</time>
      </trkpt>
      <trkpt lat="47.74922" lon="6.41734">
        <ele>333.21221025801</ele>
        <time>2021-08-21T09:33:15Z</time>
      </trkpt>
      <trkpt lat="47.74933" lon="6.41745">
        <ele>333.2682400911</ele>
        <time>2021-08-21T09:33:17Z</time>
      </trkpt>
      <trkpt lat="47.74944" lon="6.41756">
        <ele>333.26847260149</ele>
        <time>2021-08-21T09:33:19Z</time>
      </trkpt>
      <trkpt lat="47.74952" lon="6.41771">
        <ele>333.18170466328</ele>
        <time>2021-08-21T09:33:21Z</time>
      </trkpt>
      <trkpt lat="47.7496" lon="6.41787">
        <ele>333.01503699062</ele>
        <time>2021-08-21T09:33:23Z</time>
      </trkpt>
      <trkpt lat="47.74966" lon="6.41805">
        <ele>332.95140897618</ele>
        <time>2021-08-21T09:33:25Z</time>
      </trkpt>
      <trkpt lat="47.74972" lon="6.41821">
        <ele>332.89893062141</ele>
        <time>2021-08-21T09:33:27Z</time>
      </trkpt>
      <trkpt lat="47.74978" lon="6.41835">
        <ele>332.70461348503</ele>
        <time>2021-08-21T09:33:29Z</time>
      </trkpt>
      <trkpt lat="47.74983" lon="6.4185">
        <ele>332.52924672869</ele>
        <time>2021-08-21T09:33:31Z</time>
      </trkpt>
      <trkpt lat="47.74988" lon="6.41866">
        <ele>332.28234886374</ele>
        <time>2021-08-21T09:33:33Z</time>
      </trkpt>
      <trkpt lat="47.74996" lon="6.41883">
        <ele>332.0008820566</ele>
        <time>2021-08-21T09:33:35Z</time>
      </trkpt>
      <trkpt lat="47.75005" lon="6.419">
        <ele>331.72901440527</ele>
        <time>2021-08-21T09:33:37Z</time>
      </trkpt>
      <trkpt lat="47.75014" lon="6.41916">
        <ele>331.65207899385</ele>
        <time>2021-08-21T09:33:39Z</time>
      </trkpt>
      <trkpt lat="47.75024" lon="6.4193">
        <ele>331.60537199108</ele>
        <time>2021-08-21T09:33:41Z</time>
      </trkpt>
      <trkpt lat="47.75034" lon="6.41943">
        <ele>331.48773352742</ele>
        <time>2021-08-21T09:33:43Z</time>
      </trkpt>
      <trkpt lat="47.75043" lon="6.41955">
        <ele>331.43923517106</ele>
        <time>2021-08-21T09:33:45Z</time>
      </trkpt>
      <trkpt lat="47.75051" lon="6.41967">
        <ele>331.30861280824</ele>
        <time>2021-08-21T09:33:47Z</time>
      </trkpt>
      <trkpt lat="47.75058" lon="6.41978">
        <ele>331.21062120328</ele>
        <time>2021-08-21T09:33:49Z</time>
      </trkpt>
      <trkpt lat="47.75066" lon="6.41989">
        <ele>331.08014327326</ele>
        <time>2021-08-21T09:33:51Z</time>
      </trkpt>
      <trkpt lat="47.75073" lon="6.41999">
        <ele>331.04320146918</ele>
        <time>2021-08-21T09:33:53Z</time>
      </trkpt>
      <trkpt lat="47.75078" lon="6.42007">
        <ele>331.03554832034</ele>
        <time>2021-08-21T09:33:55Z</time>
      </trkpt>
      <trkpt lat="47.7508" lon="6.42012">
        <ele>331.0174852272</ele>
        <time>2021-08-21T09:33:57Z</time>
      </trkpt>
      <trkpt lat="47.75081" lon="6.42015">
        <ele>331.00252273297</ele>
        <time>2021-08-21T09:33:59Z</time>
      </trkpt>
      <trkpt lat="47.75081" lon="6.42015">
        <ele>330.99426053603</ele>
        <time>2021-08-21T09:34:01Z</time>
      </trkpt>
      <trkpt lat="47.75081" lon="6.42015">
        <ele>330.99211106758</ele>
        <time>2021-08-21T09:34:03Z</time>
      </trkpt>
      <trkpt lat="47.75081" lon="6.42015">
        <ele>330.99062056942</ele>
        <time>2021-08-21T09:34:05Z</time>
      </trkpt>
      <trkpt lat="47.75081" lon="6.42015">
        <ele>330.99025872694</ele>
        <time>2021-08-21T09:34:07Z</time>
      </trkpt>
      <trkpt lat="47.75083" lon="6.42019">
        <ele>330.98602407389</ele>
        <time>2021-08-21T09:34:09Z</time>
      </trkpt>
      <trkpt lat="47.75085" lon="6.42023">
        <ele>330.98595938125</ele>
        <time>2021-08-21T09:34:11Z</time>
      </trkpt>
      <trkpt lat="47.75088" lon="6.4203">
        <ele>330.97547693757</ele>
        <time>2021-08-21T09:34:13Z</time>
      </trkpt>
      <trkpt lat="47.7509" lon="6.4204">
        <ele>330.88145829352</ele>
        <time>2021-08-21T09:34:15Z</time>
      </trkpt>
      <trkpt lat="47.75091" lon="6.42052">
        <ele>330.84045167967</ele>
        <time>2021-08-21T09:34:17Z</time>
      </trkpt>
      <trkpt lat="47.75091" lon="6.42064">
        <ele>330.7957431676</ele>
        <time>2021-08-21T09:34:19Z</time>
      </trkpt>
      <trkpt lat="47.75091" lon="6.42078">
        <ele>330.75986370714</ele>
        <time>2021-08-21T09:34:21Z</time>
      </trkpt>
      <trkpt lat="47.7509" lon="6.42092">
        <ele>330.72668361148</ele>
        <time>2021-08-21T09:34:23Z</time>
      </trkpt>
      <trkpt lat="47.7509" lon="6.42108">
        <ele>330.72557298721</ele>
        <time>2021-08-21T09:34:25Z</time>
      </trkpt>
      <trkpt lat="47.7509" lon="6.42123">
        <ele>330.76591861917</ele>
        <time>2021-08-21T09:34:27Z</time>
      </trkpt>
      <trkpt lat="47.7509" lon="6.4214">
        <ele>330.91683117817</ele>
        <time>2021-08-21T09:34:29Z</time>
      </trkpt>
      <trkpt lat="47.7509" lon="6.42155">
        <ele>331.05955396847</ele>
        <time>2021-08-21T09:34:31Z</time>
      </trkpt>
      <trkpt lat="47.7509" lon="6.42171">
        <ele>331.16673992927</ele>
        <time>2021-08-21T09:34:33Z</time>
      </trkpt>
      <trkpt lat="47.75092" lon="6.42187">
        <ele>331.24365100006</ele>
        <time>2021-08-21T09:34:35Z</time>
      </trkpt>
      <trkpt lat="47.75097" lon="6.42201">
        <ele>331.33763876019</ele>
        <time>2021-08-21T09:34:37Z</time>
      </trkpt>
      <trkpt lat="47.75105" lon="6.42207">
        <ele>331.55069135577</ele>
        <time>2021-08-21T09:34:39Z</time>
      </trkpt>
      <trkpt lat="47.75117" lon="6.42208">
        <ele>331.81526353965</ele>
        <time>2021-08-21T09:34:41Z</time>
      </trkpt>
      <trkpt lat="47.75128" lon="6.4221">
        <ele>332.1113869958</ele>
        <time>2021-08-21T09:34:43Z</time>
      </trkpt>
      <trkpt lat="47.7514" lon="6.42214">
        <ele>332.41350285617</ele>
        <time>2021-08-21T09:34:45Z</time>
      </trkpt>
      <trkpt lat="47.75148" lon="6.42224">
        <ele>332.63227134528</ele>
        <time>2021-08-21T09:34:47Z</time>
      </trkpt>
      <trkpt lat="47.75152" lon="6.42237">
        <ele>332.76864111707</ele>
        <time>2021-08-21T09:34:49Z</time>
      </trkpt>
      <trkpt lat="47.75155" lon="6.4225">
        <ele>332.83858826324</ele>
        <time>2021-08-21T09:34:51Z</time>
      </trkpt>
      <trkpt lat="47.75154" lon="6.42267">
        <ele>332.8692551291</ele>
        <time>2021-08-21T09:34:53Z</time>
      </trkpt>
      <trkpt lat="47.75147" lon="6.42281">
        <ele>332.94460732265</ele>
        <time>2021-08-21T09:34:55Z</time>
      </trkpt>
      <trkpt lat="47.75137" lon="6.42291">
        <ele>333.04785531415</ele>
        <time>2021-08-21T09:34:57Z</time>
      </trkpt>
      <trkpt lat="47.75124" lon="6.42299">
        <ele>333.11249807302</ele>
        <time>2021-08-21T09:34:59Z</time>
      </trkpt>
      <trkpt lat="47.75112" lon="6.42306">
        <ele>333.15524223009</ele>
        <time>2021-08-21T09:35:01Z</time>
      </trkpt>
      <trkpt lat="47.751" lon="6.42313">
        <ele>333.19874026646</ele>
        <time>2021-08-21T09:35:03Z</time>
      </trkpt>
      <trkpt lat="47.75091" lon="6.42324">
        <ele>333.2779251029</ele>
        <time>2021-08-21T09:35:05Z</time>
      </trkpt>
      <trkpt lat="47.75084" lon="6.42339">
        <ele>333.39157065437</ele>
        <time>2021-08-21T09:35:07Z</time>
      </trkpt>
      <trkpt lat="47.75083" lon="6.42356">
        <ele>333.31479762183</ele>
        <time>2021-08-21T09:35:09Z</time>
      </trkpt>
      <trkpt lat="47.75084" lon="6.42375">
        <ele>333.19512624612</ele>
        <time>2021-08-21T09:35:11Z</time>
      </trkpt>
      <trkpt lat="47.75086" lon="6.42392">
        <ele>333.09580291294</ele>
        <time>2021-08-21T09:35:13Z</time>
      </trkpt>
      <trkpt lat="47.75089" lon="6.4241">
        <ele>333.02313516212</ele>
        <time>2021-08-21T09:35:15Z</time>
      </trkpt>
      <trkpt lat="47.75092" lon="6.42428">
        <ele>332.9389326545</ele>
        <time>2021-08-21T09:35:17Z</time>
      </trkpt>
      <trkpt lat="47.75094" lon="6.42446">
        <ele>332.88182176823</ele>
        <time>2021-08-21T09:35:19Z</time>
      </trkpt>
      <trkpt lat="47.75096" lon="6.42464">
        <ele>332.76177861287</ele>
        <time>2021-08-21T09:35:21Z</time>
      </trkpt>
      <trkpt lat="47.75098" lon="6.42482">
        <ele>332.70638996117</ele>
        <time>2021-08-21T09:35:23Z</time>
      </trkpt>
      <trkpt lat="47.75099" lon="6.425">
        <ele>332.67027620336</ele>
        <time>2021-08-21T09:35:25Z</time>
      </trkpt>
      <trkpt lat="47.75101" lon="6.42517">
        <ele>332.72005358296</ele>
        <time>2021-08-21T09:35:27Z</time>
      </trkpt>
      <trkpt lat="47.75103" lon="6.42534">
        <ele>332.74622811133</ele>
        <time>2021-08-21T09:35:29Z</time>
      </trkpt>
      <trkpt lat="47.75104" lon="6.42552">
        <ele>332.78137048378</ele>
        <time>2021-08-21T09:35:31Z</time>
      </trkpt>
      <trkpt lat="47.75106" lon="6.4257">
        <ele>332.83808661254</ele>
        <time>2021-08-21T09:35:33Z</time>
      </trkpt>
      <trkpt lat="47.75108" lon="6.42587">
        <ele>332.86356955709</ele>
        <time>2021-08-21T09:35:35Z</time>
      </trkpt>
      <trkpt lat="47.7511" lon="6.42605">
        <ele>332.8630619779</ele>
        <time>2021-08-21T09:35:37Z</time>
      </trkpt>
      <trkpt lat="47.75112" lon="6.42623">
        <ele>332.84464683349</ele>
        <time>2021-08-21T09:35:39Z</time>
      </trkpt>
      <trkpt lat="47.75114" lon="6.42641">
        <ele>332.9814415091</ele>
        <time>2021-08-21T09:35:41Z</time>
      </trkpt>
      <trkpt lat="47.75116" lon="6.4266">
        <ele>333.17159221076</ele>
        <time>2021-08-21T09:35:43Z</time>
      </trkpt>
      <trkpt lat="47.75117" lon="6.42678">
        <ele>333.32943222657</ele>
        <time>2021-08-21T09:35:45Z</time>
      </trkpt>
      <trkpt lat="47.75119" lon="6.42696">
        <ele>333.5037060413</ele>
        <time>2021-08-21T09:35:47Z</time>
      </trkpt>
      <trkpt lat="47.75119" lon="6.42714">
        <ele>333.61169785755</ele>
        <time>2021-08-21T09:35:49Z</time>
      </trkpt>
      <trkpt lat="47.75119" lon="6.42732">
        <ele>333.62961258254</ele>
        <time>2021-08-21T09:35:51Z</time>
      </trkpt>
      <trkpt lat="47.75118" lon="6.42751">
        <ele>333.67598217758</ele>
        <time>2021-08-21T09:35:53Z</time>
      </trkpt>
      <trkpt lat="47.75115" lon="6.4277">
        <ele>333.78498133837</ele>
        <time>2021-08-21T09:35:55Z</time>
      </trkpt>
      <trkpt lat="47.75114" lon="6.42789">
        <ele>333.90945876778</ele>
        <time>2021-08-21T09:35:57Z</time>
      </trkpt>
      <trkpt lat="47.75112" lon="6.42807">
        <ele>334.07601206165</ele>
        <time>2021-08-21T09:35:59Z</time>
      </trkpt>
      <trkpt lat="47.75111" lon="6.42826">
        <ele>334.20895055451</ele>
        <time>2021-08-21T09:36:01Z</time>
      </trkpt>
      <trkpt lat="47.75111" lon="6.42845">
        <ele>334.28468364109</ele>
        <time>2021-08-21T09:36:03Z</time>
      </trkpt>
      <trkpt lat="47.7511" lon="6.42863">
        <ele>334.33085856999</ele>
        <time>2021-08-21T09:36:05Z</time>
      </trkpt>
      <trkpt lat="47.7511" lon="6.42882">
        <ele>334.47530405271</ele>
        <time>2021-08-21T09:36:07Z</time>
      </trkpt>
      <trkpt lat="47.75109" lon="6.429">
        <ele>334.58207718521</ele>
        <time>2021-08-21T09:36:09Z</time>
      </trkpt>
      <trkpt lat="47.75109" lon="6.42918">
        <ele>334.59343266331</ele>
        <time>2021-08-21T09:36:11Z</time>
      </trkpt>
      <trkpt lat="47.75108" lon="6.42937">
        <ele>334.67376730271</ele>
        <time>2021-08-21T09:36:13Z</time>
      </trkpt>
      <trkpt lat="47.75106" lon="6.42955">
        <ele>334.76198092454</ele>
        <time>2021-08-21T09:36:15Z</time>
      </trkpt>
      <trkpt lat="47.75104" lon="6.42973">
        <ele>334.83562238116</ele>
        <time>2021-08-21T09:36:17Z</time>
      </trkpt>
      <trkpt lat="47.75101" lon="6.42991">
        <ele>334.87126103711</ele>
        <time>2021-08-21T09:36:19Z</time>
      </trkpt>
      <trkpt lat="47.75099" lon="6.43008">
        <ele>334.79155523749</ele>
        <time>2021-08-21T09:36:21Z</time>
      </trkpt>
      <trkpt lat="47.75096" lon="6.43026">
        <ele>334.81678497876</ele>
        <time>2021-08-21T09:36:23Z</time>
      </trkpt>
      <trkpt lat="47.75093" lon="6.43044">
        <ele>334.84257063664</ele>
        <time>2021-08-21T09:36:25Z</time>
      </trkpt>
      <trkpt lat="47.75091" lon="6.43063">
        <ele>334.8024720008</ele>
        <time>2021-08-21T09:36:27Z</time>
      </trkpt>
      <trkpt lat="47.75089" lon="6.43081">
        <ele>334.76467420503</ele>
        <time>2021-08-21T09:36:29Z</time>
      </trkpt>
      <trkpt lat="47.75086" lon="6.43099">
        <ele>334.72515896269</ele>
        <time>2021-08-21T09:36:31Z</time>
      </trkpt>
      <trkpt lat="47.75083" lon="6.43117">
        <ele>334.69720776439</ele>
        <time>2021-08-21T09:36:33Z</time>
      </trkpt>
      <trkpt lat="47.7508" lon="6.43135">
        <ele>334.73383341411</ele>
        <time>2021-08-21T09:36:35Z</time>
      </trkpt>
      <trkpt lat="47.75078" lon="6.43152">
        <ele>334.71434552119</ele>
        <time>2021-08-21T09:36:37Z</time>
      </trkpt>
      <trkpt lat="47.75076" lon="6.4317">
        <ele>334.62276978689</ele>
        <time>2021-08-21T09:36:39Z</time>
      </trkpt>
      <trkpt lat="47.75073" lon="6.43187">
        <ele>334.58102695154</ele>
        <time>2021-08-21T09:36:41Z</time>
      </trkpt>
      <trkpt lat="47.7507" lon="6.43204">
        <ele>334.56402717947</ele>
        <time>2021-08-21T09:36:43Z</time>
      </trkpt>
      <trkpt lat="47.75067" lon="6.43222">
        <ele>334.49144363873</ele>
        <time>2021-08-21T09:36:45Z</time>
      </trkpt>
      <trkpt lat="47.75065" lon="6.4324">
        <ele>334.43381099907</ele>
        <time>2021-08-21T09:36:47Z</time>
      </trkpt>
      <trkpt lat="47.75062" lon="6.43258">
        <ele>334.3792938865</ele>
        <time>2021-08-21T09:36:49Z</time>
      </trkpt>
      <trkpt lat="47.75061" lon="6.43274">
        <ele>334.35103352241</ele>
        <time>2021-08-21T09:36:51Z</time>
      </trkpt>
      <trkpt lat="47.75059" lon="6.4329">
        <ele>334.31088692832</ele>
        <time>2021-08-21T09:36:53Z</time>
      </trkpt>
      <trkpt lat="47.75058" lon="6.43307">
        <ele>334.3748690478</ele>
        <time>2021-08-21T09:36:55Z</time>
      </trkpt>
      <trkpt lat="47.75056" lon="6.43323">
        <ele>334.45671223528</ele>
        <time>2021-08-21T09:36:57Z</time>
      </trkpt>
      <trkpt lat="47.75053" lon="6.43342">
        <ele>334.38990136093</ele>
        <time>2021-08-21T09:36:59Z</time>
      </trkpt>
      <trkpt lat="47.75051" lon="6.43359">
        <ele>334.44921299863</ele>
        <time>2021-08-21T09:37:01Z</time>
      </trkpt>
      <trkpt lat="47.75048" lon="6.43376">
        <ele>334.44836441822</ele>
        <time>2021-08-21T09:37:03Z</time>
      </trkpt>
      <trkpt lat="47.75045" lon="6.43393">
        <ele>334.45107154865</ele>
        <time>2021-08-21T09:37:05Z</time>
      </trkpt>
      <trkpt lat="47.75041" lon="6.4341">
        <ele>334.43049772241</ele>
        <time>2021-08-21T09:37:07Z</time>
      </trkpt>
      <trkpt lat="47.75035" lon="6.43426">
        <ele>334.37672402592</ele>
        <time>2021-08-21T09:37:09Z</time>
      </trkpt>
      <trkpt lat="47.75027" lon="6.43441">
        <ele>334.46796586384</ele>
        <time>2021-08-21T09:37:11Z</time>
      </trkpt>
      <trkpt lat="47.75019" lon="6.43454">
        <ele>334.55152757571</ele>
        <time>2021-08-21T09:37:13Z</time>
      </trkpt>
      <trkpt lat="47.75011" lon="6.43467">
        <ele>334.60964510328</ele>
        <time>2021-08-21T09:37:15Z</time>
      </trkpt>
      <trkpt lat="47.75005" lon="6.43481">
        <ele>334.63221973736</ele>
        <time>2021-08-21T09:37:17Z</time>
      </trkpt>
      <trkpt lat="47.74999" lon="6.43497">
        <ele>334.68859444913</ele>
        <time>2021-08-21T09:37:19Z</time>
      </trkpt>
      <trkpt lat="47.74995" lon="6.43512">
        <ele>334.73603078434</ele>
        <time>2021-08-21T09:37:21Z</time>
      </trkpt>
      <trkpt lat="47.7499" lon="6.43527">
        <ele>334.70258075805</ele>
        <time>2021-08-21T09:37:23Z</time>
      </trkpt>
      <trkpt lat="47.74986" lon="6.43543">
        <ele>334.61569074718</ele>
        <time>2021-08-21T09:37:25Z</time>
      </trkpt>
      <trkpt lat="47.74982" lon="6.43559">
        <ele>334.50050061649</ele>
        <time>2021-08-21T09:37:27Z</time>
      </trkpt>
      <trkpt lat="47.74977" lon="6.43576">
        <ele>334.42010545837</ele>
        <time>2021-08-21T09:37:29Z</time>
      </trkpt>
      <trkpt lat="47.74973" lon="6.43593">
        <ele>334.26624959412</ele>
        <time>2021-08-21T09:37:31Z</time>
      </trkpt>
      <trkpt lat="47.74969" lon="6.4361">
        <ele>334.12975886</ele>
        <time>2021-08-21T09:37:33Z</time>
      </trkpt>
      <trkpt lat="47.74965" lon="6.43628">
        <ele>334.15788248768</ele>
        <time>2021-08-21T09:37:35Z</time>
      </trkpt>
      <trkpt lat="47.74961" lon="6.43648">
        <ele>334.28870106085</ele>
        <time>2021-08-21T09:37:37Z</time>
      </trkpt>
      <trkpt lat="47.74958" lon="6.43668">
        <ele>334.37018720995</ele>
        <time>2021-08-21T09:37:39Z</time>
      </trkpt>
      <trkpt lat="47.74957" lon="6.43689">
        <ele>334.58704395545</ele>
        <time>2021-08-21T09:37:41Z</time>
      </trkpt>
      <trkpt lat="47.74956" lon="6.43709">
        <ele>334.64083562702</ele>
        <time>2021-08-21T09:37:43Z</time>
      </trkpt>
      <trkpt lat="47.74956" lon="6.43728">
        <ele>334.78796500373</ele>
        <time>2021-08-21T09:37:45Z</time>
      </trkpt>
      <trkpt lat="47.74954" lon="6.43748">
        <ele>335.05921106947</ele>
        <time>2021-08-21T09:37:47Z</time>
      </trkpt>
      <trkpt lat="47.74952" lon="6.43767">
        <ele>335.12668722718</ele>
        <time>2021-08-21T09:37:49Z</time>
      </trkpt>
      <trkpt lat="47.74949" lon="6.43786">
        <ele>335.15015824389</ele>
        <time>2021-08-21T09:37:51Z</time>
      </trkpt>
      <trkpt lat="47.74946" lon="6.43805">
        <ele>335.40087452353</ele>
        <time>2021-08-21T09:37:53Z</time>
      </trkpt>
      <trkpt lat="47.74945" lon="6.43824">
        <ele>335.53160830471</ele>
        <time>2021-08-21T09:37:55Z</time>
      </trkpt>
      <trkpt lat="47.74946" lon="6.43843">
        <ele>335.566285299</ele>
        <time>2021-08-21T09:37:57Z</time>
      </trkpt>
      <trkpt lat="47.74948" lon="6.43861">
        <ele>335.59991006392</ele>
        <time>2021-08-21T09:37:59Z</time>
      </trkpt>
      <trkpt lat="47.74951" lon="6.43878">
        <ele>335.60562861096</ele>
        <time>2021-08-21T09:38:01Z</time>
      </trkpt>
      <trkpt lat="47.74955" lon="6.43894">
        <ele>335.61833597219</ele>
        <time>2021-08-21T09:38:03Z</time>
      </trkpt>
      <trkpt lat="47.74958" lon="6.43911">
        <ele>335.63299604548</ele>
        <time>2021-08-21T09:38:05Z</time>
      </trkpt>
      <trkpt lat="47.74962" lon="6.43928">
        <ele>335.61781554701</ele>
        <time>2021-08-21T09:38:07Z</time>
      </trkpt>
      <trkpt lat="47.74965" lon="6.43945">
        <ele>335.58537005669</ele>
        <time>2021-08-21T09:38:09Z</time>
      </trkpt>
      <trkpt lat="47.74969" lon="6.43961">
        <ele>335.54213426036</ele>
        <time>2021-08-21T09:38:11Z</time>
      </trkpt>
      <trkpt lat="47.74973" lon="6.43978">
        <ele>335.46889811675</ele>
        <time>2021-08-21T09:38:13Z</time>
      </trkpt>
      <trkpt lat="47.74977" lon="6.43996">
        <ele>335.42918054234</ele>
        <time>2021-08-21T09:38:15Z</time>
      </trkpt>
      <trkpt lat="47.74984" lon="6.44012">
        <ele>335.44079856822</ele>
        <time>2021-08-21T09:38:17Z</time>
      </trkpt>
      <trkpt lat="47.74991" lon="6.44027">
        <ele>335.59220858037</ele>
        <time>2021-08-21T09:38:19Z</time>
      </trkpt>
      <trkpt lat="47.74999" lon="6.44039">
        <ele>335.70294172347</ele>
        <time>2021-08-21T09:38:21Z</time>
      </trkpt>
      <trkpt lat="47.75009" lon="6.44052">
        <ele>335.74915238251</ele>
        <time>2021-08-21T09:38:23Z</time>
      </trkpt>
      <trkpt lat="47.75014" lon="6.44069">
        <ele>335.67807447217</ele>
        <time>2021-08-21T09:38:25Z</time>
      </trkpt>
      <trkpt lat="47.75014" lon="6.44087">
        <ele>335.53892414202</ele>
        <time>2021-08-21T09:38:27Z</time>
      </trkpt>
      <trkpt lat="47.7501" lon="6.44104">
        <ele>335.38711292219</ele>
        <time>2021-08-21T09:38:29Z</time>
      </trkpt>
      <trkpt lat="47.75005" lon="6.44121">
        <ele>335.33804204628</ele>
        <time>2021-08-21T09:38:31Z</time>
      </trkpt>
      <trkpt lat="47.75" lon="6.44138">
        <ele>335.42012030999</ele>
        <time>2021-08-21T09:38:33Z</time>
      </trkpt>
      <trkpt lat="47.74996" lon="6.44155">
        <ele>335.42025253988</ele>
        <time>2021-08-21T09:38:35Z</time>
      </trkpt>
      <trkpt lat="47.74991" lon="6.44173">
        <ele>335.42465104807</ele>
        <time>2021-08-21T09:38:37Z</time>
      </trkpt>
      <trkpt lat="47.74986" lon="6.44189">
        <ele>335.46488523547</ele>
        <time>2021-08-21T09:38:39Z</time>
      </trkpt>
      <trkpt lat="47.74982" lon="6.44205">
        <ele>335.48885755633</ele>
        <time>2021-08-21T09:38:41Z</time>
      </trkpt>
      <trkpt lat="47.74979" lon="6.44222">
        <ele>335.6164566355</ele>
        <time>2021-08-21T09:38:43Z</time>
      </trkpt>
      <trkpt lat="47.74977" lon="6.44238">
        <ele>335.7715983496</ele>
        <time>2021-08-21T09:38:45Z</time>
      </trkpt>
      <trkpt lat="47.74977" lon="6.44254">
        <ele>335.88873015366</ele>
        <time>2021-08-21T09:38:47Z</time>
      </trkpt>
      <trkpt lat="47.74979" lon="6.4427">
        <ele>336.04320752515</ele>
        <time>2021-08-21T09:38:49Z</time>
      </trkpt>
      <trkpt lat="47.74983" lon="6.44286">
        <ele>336.27368048628</ele>
        <time>2021-08-21T09:38:51Z</time>
      </trkpt>
      <trkpt lat="47.74987" lon="6.44301">
        <ele>336.44584870555</ele>
        <time>2021-08-21T09:38:53Z</time>
      </trkpt>
      <trkpt lat="47.74991" lon="6.44317">
        <ele>336.61625794607</ele>
        <time>2021-08-21T09:38:55Z</time>
      </trkpt>
      <trkpt lat="47.74995" lon="6.44333">
        <ele>336.7305399085</ele>
        <time>2021-08-21T09:38:57Z</time>
      </trkpt>
      <trkpt lat="47.74996" lon="6.4435">
        <ele>336.7910746834</ele>
        <time>2021-08-21T09:38:59Z</time>
      </trkpt>
      <trkpt lat="47.74996" lon="6.44367">
        <ele>336.84127810343</ele>
        <time>2021-08-21T09:39:01Z</time>
      </trkpt>
      <trkpt lat="47.74995" lon="6.44384">
        <ele>336.85943912328</ele>
        <time>2021-08-21T09:39:03Z</time>
      </trkpt>
      <trkpt lat="47.74992" lon="6.444">
        <ele>336.92333275495</ele>
        <time>2021-08-21T09:39:05Z</time>
      </trkpt>
      <trkpt lat="47.74988" lon="6.44416">
        <ele>336.98593521888</ele>
        <time>2021-08-21T09:39:07Z</time>
      </trkpt>
      <trkpt lat="47.74982" lon="6.4443">
        <ele>337.00404460596</ele>
        <time>2021-08-21T09:39:09Z</time>
      </trkpt>
      <trkpt lat="47.74976" lon="6.44445">
        <ele>337.04939301839</ele>
        <time>2021-08-21T09:39:11Z</time>
      </trkpt>
      <trkpt lat="47.74969" lon="6.44458">
        <ele>337.13025484043</ele>
        <time>2021-08-21T09:39:13Z</time>
      </trkpt>
      <trkpt lat="47.74963" lon="6.44471">
        <ele>337.18858717496</ele>
        <time>2021-08-21T09:39:15Z</time>
      </trkpt>
      <trkpt lat="47.74956" lon="6.44483">
        <ele>337.25697481384</ele>
        <time>2021-08-21T09:39:17Z</time>
      </trkpt>
      <trkpt lat="47.74951" lon="6.44497">
        <ele>337.31892054461</ele>
        <time>2021-08-21T09:39:19Z</time>
      </trkpt>
      <trkpt lat="47.7495" lon="6.44514">
        <ele>337.39562180371</ele>
        <time>2021-08-21T09:39:21Z</time>
      </trkpt>
      <trkpt lat="47.74951" lon="6.4453">
        <ele>337.46066978641</ele>
        <time>2021-08-21T09:39:23Z</time>
      </trkpt>
      <trkpt lat="47.74956" lon="6.44545">
        <ele>337.52280958842</ele>
        <time>2021-08-21T09:39:25Z</time>
      </trkpt>
      <trkpt lat="47.74961" lon="6.44559">
        <ele>337.60697556056</ele>
        <time>2021-08-21T09:39:27Z</time>
      </trkpt>
      <trkpt lat="47.74968" lon="6.44572">
        <ele>337.70622755568</ele>
        <time>2021-08-21T09:39:29Z</time>
      </trkpt>
      <trkpt lat="47.74974" lon="6.44585">
        <ele>337.80995837408</ele>
        <time>2021-08-21T09:39:31Z</time>
      </trkpt>
      <trkpt lat="47.7498" lon="6.44597">
        <ele>337.91012198136</ele>
        <time>2021-08-21T09:39:33Z</time>
      </trkpt>
      <trkpt lat="47.74987" lon="6.4461">
        <ele>337.99706230579</ele>
        <time>2021-08-21T09:39:35Z</time>
      </trkpt>
      <trkpt lat="47.74992" lon="6.44623">
        <ele>338.05570734275</ele>
        <time>2021-08-21T09:39:37Z</time>
      </trkpt>
      <trkpt lat="47.74998" lon="6.44636">
        <ele>338.09018443955</ele>
        <time>2021-08-21T09:39:39Z</time>
      </trkpt>
      <trkpt lat="47.75003" lon="6.4465">
        <ele>338.12640930959</ele>
        <time>2021-08-21T09:39:41Z</time>
      </trkpt>
      <trkpt lat="47.75008" lon="6.44664">
        <ele>338.1645555581</ele>
        <time>2021-08-21T09:39:43Z</time>
      </trkpt>
      <trkpt lat="47.75013" lon="6.44678">
        <ele>338.22242922982</ele>
        <time>2021-08-21T09:39:45Z</time>
      </trkpt>
      <trkpt lat="47.75019" lon="6.44691">
        <ele>338.26488612624</ele>
        <time>2021-08-21T09:39:47Z</time>
      </trkpt>
      <trkpt lat="47.75026" lon="6.44703">
        <ele>338.29927233266</ele>
        <time>2021-08-21T09:39:49Z</time>
      </trkpt>
      <trkpt lat="47.75034" lon="6.44715">
        <ele>338.33005063674</ele>
        <time>2021-08-21T09:39:51Z</time>
      </trkpt>
      <trkpt lat="47.75041" lon="6.44727">
        <ele>338.33964945748</ele>
        <time>2021-08-21T09:39:53Z</time>
      </trkpt>
      <trkpt lat="47.75048" lon="6.4474">
        <ele>338.36087861287</ele>
        <time>2021-08-21T09:39:55Z</time>
      </trkpt>
      <trkpt lat="47.7505" lon="6.44756">
        <ele>338.4147067023</ele>
        <time>2021-08-21T09:39:57Z</time>
      </trkpt>
      <trkpt lat="47.75046" lon="6.44771">
        <ele>338.51931667797</ele>
        <time>2021-08-21T09:39:59Z</time>
      </trkpt>
      <trkpt lat="47.7504" lon="6.4478">
        <ele>338.59337958985</ele>
        <time>2021-08-21T09:40:01Z</time>
      </trkpt>
      <trkpt lat="47.75031" lon="6.44788">
        <ele>338.65624076614</ele>
        <time>2021-08-21T09:40:03Z</time>
      </trkpt>
      <trkpt lat="47.75022" lon="6.44795">
        <ele>338.75366121262</ele>
        <time>2021-08-21T09:40:05Z</time>
      </trkpt>
      <trkpt lat="47.75014" lon="6.44802">
        <ele>338.88770736371</ele>
        <time>2021-08-21T09:40:07Z</time>
      </trkpt>
      <trkpt lat="47.75006" lon="6.44811">
        <ele>339.05526012133</ele>
        <time>2021-08-21T09:40:09Z</time>
      </trkpt>
      <trkpt lat="47.74999" lon="6.44822">
        <ele>339.20508796283</ele>
        <time>2021-08-21T09:40:11Z</time>
      </trkpt>
      <trkpt lat="47.74995" lon="6.44835">
        <ele>339.34141035463</ele>
        <time>2021-08-21T09:40:13Z</time>
      </trkpt>
      <trkpt lat="47.74993" lon="6.44851">
        <ele>339.46006412496</ele>
        <time>2021-08-21T09:40:15Z</time>
      </trkpt>
      <trkpt lat="47.74993" lon="6.44865">
        <ele>339.58745732251</ele>
        <time>2021-08-21T09:40:17Z</time>
      </trkpt>
      <trkpt lat="47.74994" lon="6.44878">
        <ele>339.71407314701</ele>
        <time>2021-08-21T09:40:19Z</time>
      </trkpt>
      <trkpt lat="47.74995" lon="6.44891">
        <ele>339.82939597561</ele>
        <time>2021-08-21T09:40:21Z</time>
      </trkpt>
      <trkpt lat="47.74998" lon="6.44902">
        <ele>339.9516648831</ele>
        <time>2021-08-21T09:40:23Z</time>
      </trkpt>
      <trkpt lat="47.75" lon="6.44913">
        <ele>340.08918098925</ele>
        <time>2021-08-21T09:40:25Z</time>
      </trkpt>
      <trkpt lat="47.75003" lon="6.44925">
        <ele>340.21301657337</ele>
        <time>2021-08-21T09:40:27Z</time>
      </trkpt>
      <trkpt lat="47.75006" lon="6.44937">
        <ele>340.33877542581</ele>
        <time>2021-08-21T09:40:29Z</time>
      </trkpt>
      <trkpt lat="47.7501" lon="6.44948">
        <ele>340.46915769897</ele>
        <time>2021-08-21T09:40:31Z</time>
      </trkpt>
      <trkpt lat="47.75013" lon="6.44961">
        <ele>340.57706231673</ele>
        <time>2021-08-21T09:40:33Z</time>
      </trkpt>
      <trkpt lat="47.75016" lon="6.44976">
        <ele>340.65948501287</ele>
        <time>2021-08-21T09:40:35Z</time>
      </trkpt>
      <trkpt lat="47.75019" lon="6.44993">
        <ele>340.74730663088</ele>
        <time>2021-08-21T09:40:37Z</time>
      </trkpt>
      <trkpt lat="47.75023" lon="6.45013">
        <ele>340.83639478921</ele>
        <time>2021-08-21T09:40:39Z</time>
      </trkpt>
      <trkpt lat="47.75028" lon="6.45034">
        <ele>340.93660456817</ele>
        <time>2021-08-21T09:40:41Z</time>
      </trkpt>
      <trkpt lat="47.75035" lon="6.45055">
        <ele>340.98654668544</ele>
        <time>2021-08-21T09:40:43Z</time>
      </trkpt>
      <trkpt lat="47.75045" lon="6.45074">
        <ele>341.04173123821</ele>
        <time>2021-08-21T09:40:45Z</time>
      </trkpt>
      <trkpt lat="47.75056" lon="6.45091">
        <ele>341.1887036123</ele>
        <time>2021-08-21T09:40:47Z</time>
      </trkpt>
      <trkpt lat="47.75068" lon="6.45107">
        <ele>341.45488535418</ele>
        <time>2021-08-21T09:40:49Z</time>
      </trkpt>
      <trkpt lat="47.7508" lon="6.45123">
        <ele>341.71351849341</ele>
        <time>2021-08-21T09:40:51Z</time>
      </trkpt>
      <trkpt lat="47.7509" lon="6.45137">
        <ele>341.91844980797</ele>
        <time>2021-08-21T09:40:53Z</time>
      </trkpt>
      <trkpt lat="47.75101" lon="6.45152">
        <ele>342.10671802427</ele>
        <time>2021-08-21T09:40:55Z</time>
      </trkpt>
      <trkpt lat="47.7511" lon="6.45167">
        <ele>342.30283461884</ele>
        <time>2021-08-21T09:40:57Z</time>
      </trkpt>
      <trkpt lat="47.75119" lon="6.45182">
        <ele>342.48931602353</ele>
        <time>2021-08-21T09:40:59Z</time>
      </trkpt>
      <trkpt lat="47.75128" lon="6.45196">
        <ele>342.64563882119</ele>
        <time>2021-08-21T09:41:01Z</time>
      </trkpt>
      <trkpt lat="47.75136" lon="6.45211">
        <ele>342.83241049256</ele>
        <time>2021-08-21T09:41:03Z</time>
      </trkpt>
      <trkpt lat="47.75143" lon="6.45225">
        <ele>342.98129237604</ele>
        <time>2021-08-21T09:41:05Z</time>
      </trkpt>
      <trkpt lat="47.75151" lon="6.45238">
        <ele>343.0835799492</ele>
        <time>2021-08-21T09:41:07Z</time>
      </trkpt>
      <trkpt lat="47.75159" lon="6.45251">
        <ele>343.15316873988</ele>
        <time>2021-08-21T09:41:09Z</time>
      </trkpt>
      <trkpt lat="47.75167" lon="6.45263">
        <ele>343.25521077521</ele>
        <time>2021-08-21T09:41:11Z</time>
      </trkpt>
      <trkpt lat="47.75175" lon="6.45274">
        <ele>343.38977939429</ele>
        <time>2021-08-21T09:41:13Z</time>
      </trkpt>
      <trkpt lat="47.75184" lon="6.45283">
        <ele>343.49956410471</ele>
        <time>2021-08-21T09:41:15Z</time>
      </trkpt>
      <trkpt lat="47.75194" lon="6.45291">
        <ele>343.67049759068</ele>
        <time>2021-08-21T09:41:17Z</time>
      </trkpt>
      <trkpt lat="47.75204" lon="6.45297">
        <ele>343.82901367931</ele>
        <time>2021-08-21T09:41:19Z</time>
      </trkpt>
      <trkpt lat="47.75214" lon="6.45301">
        <ele>343.97410710727</ele>
        <time>2021-08-21T09:41:21Z</time>
      </trkpt>
      <trkpt lat="47.75225" lon="6.45302">
        <ele>344.09239799062</ele>
        <time>2021-08-21T09:41:23Z</time>
      </trkpt>
      <trkpt lat="47.75235" lon="6.45303">
        <ele>344.18970407877</ele>
        <time>2021-08-21T09:41:25Z</time>
      </trkpt>
      <trkpt lat="47.75246" lon="6.45302">
        <ele>344.41206182677</ele>
        <time>2021-08-21T09:41:27Z</time>
      </trkpt>
      <trkpt lat="47.75257" lon="6.45301">
        <ele>344.58900383037</ele>
        <time>2021-08-21T09:41:29Z</time>
      </trkpt>
      <trkpt lat="47.75269" lon="6.45299">
        <ele>344.76025297272</ele>
        <time>2021-08-21T09:41:31Z</time>
      </trkpt>
      <trkpt lat="47.7528" lon="6.45297">
        <ele>344.94777191315</ele>
        <time>2021-08-21T09:41:33Z</time>
      </trkpt>
      <trkpt lat="47.75292" lon="6.45293">
        <ele>345.1451782212</ele>
        <time>2021-08-21T09:41:35Z</time>
      </trkpt>
      <trkpt lat="47.75305" lon="6.45287">
        <ele>345.41860722258</ele>
        <time>2021-08-21T09:41:37Z</time>
      </trkpt>
      <trkpt lat="47.75316" lon="6.45278">
        <ele>345.69389580629</ele>
        <time>2021-08-21T09:41:39Z</time>
      </trkpt>
      <trkpt lat="47.75326" lon="6.45266">
        <ele>345.92667868401</ele>
        <time>2021-08-21T09:41:41Z</time>
      </trkpt>
      <trkpt lat="47.75336" lon="6.45255">
        <ele>346.17485656943</ele>
        <time>2021-08-21T09:41:43Z</time>
      </trkpt>
      <trkpt lat="47.75348" lon="6.45248">
        <ele>346.46755166531</ele>
        <time>2021-08-21T09:41:45Z</time>
      </trkpt>
      <trkpt lat="47.7536" lon="6.45248">
        <ele>346.84351029126</ele>
        <time>2021-08-21T09:41:47Z</time>
      </trkpt>
      <trkpt lat="47.75371" lon="6.45251">
        <ele>347.09799821676</ele>
        <time>2021-08-21T09:41:49Z</time>
      </trkpt>
      <trkpt lat="47.75382" lon="6.45255">
        <ele>347.34046979907</ele>
        <time>2021-08-21T09:41:51Z</time>
      </trkpt>
      <trkpt lat="47.75392" lon="6.45257">
        <ele>347.64777907172</ele>
        <time>2021-08-21T09:41:53Z</time>
      </trkpt>
      <trkpt lat="47.75403" lon="6.4526">
        <ele>347.97755622364</ele>
        <time>2021-08-21T09:41:55Z</time>
      </trkpt>
      <trkpt lat="47.75412" lon="6.45269">
        <ele>348.40895810415</ele>
        <time>2021-08-21T09:41:57Z</time>
      </trkpt>
      <trkpt lat="47.75421" lon="6.45277">
        <ele>348.82158589474</ele>
        <time>2021-08-21T09:41:59Z</time>
      </trkpt>
      <trkpt lat="47.75428" lon="6.45287">
        <ele>349.08755092377</ele>
        <time>2021-08-21T09:42:01Z</time>
      </trkpt>
      <trkpt lat="47.75436" lon="6.45296">
        <ele>349.10149854174</ele>
        <time>2021-08-21T09:42:03Z</time>
      </trkpt>
      <trkpt lat="47.75443" lon="6.45307">
        <ele>349.04367013494</ele>
        <time>2021-08-21T09:42:05Z</time>
      </trkpt>
      <trkpt lat="47.75449" lon="6.45316">
        <ele>349.00874370282</ele>
        <time>2021-08-21T09:42:07Z</time>
      </trkpt>
      <trkpt lat="47.75456" lon="6.45326">
        <ele>348.85642584788</ele>
        <time>2021-08-21T09:42:09Z</time>
      </trkpt>
      <trkpt lat="47.75463" lon="6.45337">
        <ele>348.68839430813</ele>
        <time>2021-08-21T09:42:11Z</time>
      </trkpt>
      <trkpt lat="47.75469" lon="6.45348">
        <ele>348.38232974586</ele>
        <time>2021-08-21T09:42:13Z</time>
      </trkpt>
      <trkpt lat="47.75476" lon="6.45359">
        <ele>348.05736889538</ele>
        <time>2021-08-21T09:42:15Z</time>
      </trkpt>
      <trkpt lat="47.75483" lon="6.45372">
        <ele>347.83072621748</ele>
        <time>2021-08-21T09:42:17Z</time>
      </trkpt>
      <trkpt lat="47.7549" lon="6.45384">
        <ele>347.71574890857</ele>
        <time>2021-08-21T09:42:19Z</time>
      </trkpt>
      <trkpt lat="47.75496" lon="6.45398">
        <ele>347.68760858319</ele>
        <time>2021-08-21T09:42:21Z</time>
      </trkpt>
      <trkpt lat="47.75502" lon="6.45412">
        <ele>347.74037423764</ele>
        <time>2021-08-21T09:42:23Z</time>
      </trkpt>
      <trkpt lat="47.75508" lon="6.45426">
        <ele>347.81404045994</ele>
        <time>2021-08-21T09:42:25Z</time>
      </trkpt>
      <trkpt lat="47.75514" lon="6.4544">
        <ele>347.88266756379</ele>
        <time>2021-08-21T09:42:27Z</time>
      </trkpt>
      <trkpt lat="47.7552" lon="6.45453">
        <ele>348.00056402771</ele>
        <time>2021-08-21T09:42:29Z</time>
      </trkpt>
      <trkpt lat="47.75526" lon="6.45465">
        <ele>348.09893228386</ele>
        <time>2021-08-21T09:42:31Z</time>
      </trkpt>
      <trkpt lat="47.75532" lon="6.45477">
        <ele>348.26999091751</ele>
        <time>2021-08-21T09:42:33Z</time>
      </trkpt>
      <trkpt lat="47.75539" lon="6.45486">
        <ele>348.43691831078</ele>
        <time>2021-08-21T09:42:35Z</time>
      </trkpt>
      <trkpt lat="47.75547" lon="6.45494">
        <ele>348.65403883601</ele>
        <time>2021-08-21T09:42:37Z</time>
      </trkpt>
      <trkpt lat="47.75555" lon="6.45501">
        <ele>348.92460347384</ele>
        <time>2021-08-21T09:42:39Z</time>
      </trkpt>
      <trkpt lat="47.75563" lon="6.45508">
        <ele>349.23037755977</ele>
        <time>2021-08-21T09:42:41Z</time>
      </trkpt>
      <trkpt lat="47.75571" lon="6.45513">
        <ele>349.54042778687</ele>
        <time>2021-08-21T09:42:43Z</time>
      </trkpt>
      <trkpt lat="47.7558" lon="6.45519">
        <ele>349.87105714662</ele>
        <time>2021-08-21T09:42:45Z</time>
      </trkpt>
      <trkpt lat="47.75589" lon="6.45526">
        <ele>350.20914926839</ele>
        <time>2021-08-21T09:42:47Z</time>
      </trkpt>
      <trkpt lat="47.75598" lon="6.45533">
        <ele>350.55459156814</ele>
        <time>2021-08-21T09:42:49Z</time>
      </trkpt>
      <trkpt lat="47.75606" lon="6.4554">
        <ele>350.87474237818</ele>
        <time>2021-08-21T09:42:51Z</time>
      </trkpt>
      <trkpt lat="47.75614" lon="6.45548">
        <ele>351.180876418</ele>
        <time>2021-08-21T09:42:53Z</time>
      </trkpt>
      <trkpt lat="47.7562" lon="6.45556">
        <ele>351.45225935441</ele>
        <time>2021-08-21T09:42:55Z</time>
      </trkpt>
      <trkpt lat="47.75626" lon="6.45563">
        <ele>351.58881883963</ele>
        <time>2021-08-21T09:42:57Z</time>
      </trkpt>
      <trkpt lat="47.7563" lon="6.45571">
        <ele>351.61434328603</ele>
        <time>2021-08-21T09:42:59Z</time>
      </trkpt>
      <trkpt lat="47.75634" lon="6.45576">
        <ele>351.64293169118</ele>
        <time>2021-08-21T09:43:01Z</time>
      </trkpt>
      <trkpt lat="47.75637" lon="6.45581">
        <ele>351.67766558746</ele>
        <time>2021-08-21T09:43:03Z</time>
      </trkpt>
      <trkpt lat="47.75639" lon="6.45584">
        <ele>351.71253484563</ele>
        <time>2021-08-21T09:43:05Z</time>
      </trkpt>
      <trkpt lat="47.75641" lon="6.45587">
        <ele>351.74701828466</ele>
        <time>2021-08-21T09:43:07Z</time>
      </trkpt>
      <trkpt lat="47.75644" lon="6.4559">
        <ele>351.7862878056</ele>
        <time>2021-08-21T09:43:09Z</time>
      </trkpt>
      <trkpt lat="47.75648" lon="6.45589">
        <ele>351.83067265165</ele>
        <time>2021-08-21T09:43:11Z</time>
      </trkpt>
      <trkpt lat="47.75653" lon="6.45581">
        <ele>352.25745585503</ele>
        <time>2021-08-21T09:43:13Z</time>
      </trkpt>
      <trkpt lat="47.7566" lon="6.4557">
        <ele>352.58010064579</ele>
        <time>2021-08-21T09:43:15Z</time>
      </trkpt>
      <trkpt lat="47.75667" lon="6.45558">
        <ele>352.8402753586</ele>
        <time>2021-08-21T09:43:17Z</time>
      </trkpt>
      <trkpt lat="47.75674" lon="6.45544">
        <ele>353.06056843451</ele>
        <time>2021-08-21T09:43:19Z</time>
      </trkpt>
      <trkpt lat="47.75682" lon="6.45529">
        <ele>353.22460601728</ele>
        <time>2021-08-21T09:43:21Z</time>
      </trkpt>
      <trkpt lat="47.75692" lon="6.45512">
        <ele>353.35219140154</ele>
        <time>2021-08-21T09:43:23Z</time>
      </trkpt>
      <trkpt lat="47.75704" lon="6.45495">
        <ele>353.43953721322</ele>
        <time>2021-08-21T09:43:25Z</time>
      </trkpt>
      <trkpt lat="47.75718" lon="6.45478">
        <ele>353.50412574515</ele>
        <time>2021-08-21T09:43:27Z</time>
      </trkpt>
      <trkpt lat="47.75728" lon="6.45454">
        <ele>353.60166588153</ele>
        <time>2021-08-21T09:43:29Z</time>
      </trkpt>
      <trkpt lat="47.75736" lon="6.45431">
        <ele>353.72467737813</ele>
        <time>2021-08-21T09:43:31Z</time>
      </trkpt>
      <trkpt lat="47.75742" lon="6.45407">
        <ele>353.79874422912</ele>
        <time>2021-08-21T09:43:33Z</time>
      </trkpt>
      <trkpt lat="47.75749" lon="6.45384">
        <ele>353.9148876806</ele>
        <time>2021-08-21T09:43:35Z</time>
      </trkpt>
      <trkpt lat="47.75759" lon="6.45364">
        <ele>354.46298064486</ele>
        <time>2021-08-21T09:43:37Z</time>
      </trkpt>
      <trkpt lat="47.75771" lon="6.4535">
        <ele>354.91603632453</ele>
        <time>2021-08-21T09:43:39Z</time>
      </trkpt>
      <trkpt lat="47.75783" lon="6.4534">
        <ele>355.36492985076</ele>
        <time>2021-08-21T09:43:41Z</time>
      </trkpt>
      <trkpt lat="47.75795" lon="6.45337">
        <ele>356.75388221292</ele>
        <time>2021-08-21T09:43:43Z</time>
      </trkpt>
      <trkpt lat="47.75806" lon="6.45345">
        <ele>357.38742452652</ele>
        <time>2021-08-21T09:43:45Z</time>
      </trkpt>
      <trkpt lat="47.75814" lon="6.45359">
        <ele>357.17857552847</ele>
        <time>2021-08-21T09:43:47Z</time>
      </trkpt>
      <trkpt lat="47.75822" lon="6.45374">
        <ele>356.88726720759</ele>
        <time>2021-08-21T09:43:49Z</time>
      </trkpt>
      <trkpt lat="47.75828" lon="6.4539">
        <ele>356.58573274518</ele>
        <time>2021-08-21T09:43:51Z</time>
      </trkpt>
      <trkpt lat="47.75832" lon="6.45407">
        <ele>356.22135833363</ele>
        <time>2021-08-21T09:43:53Z</time>
      </trkpt>
      <trkpt lat="47.75836" lon="6.45423">
        <ele>355.94074548089</ele>
        <time>2021-08-21T09:43:55Z</time>
      </trkpt>
      <trkpt lat="47.75841" lon="6.45439">
        <ele>355.62842800504</ele>
        <time>2021-08-21T09:43:57Z</time>
      </trkpt>
      <trkpt lat="47.75846" lon="6.45454">
        <ele>355.61396184369</ele>
        <time>2021-08-21T09:43:59Z</time>
      </trkpt>
      <trkpt lat="47.75852" lon="6.45468">
        <ele>355.78580398265</ele>
        <time>2021-08-21T09:44:01Z</time>
      </trkpt>
      <trkpt lat="47.75857" lon="6.45483">
        <ele>356.03520185078</ele>
        <time>2021-08-21T09:44:03Z</time>
      </trkpt>
      <trkpt lat="47.75862" lon="6.45496">
        <ele>356.32067018955</ele>
        <time>2021-08-21T09:44:05Z</time>
      </trkpt>
      <trkpt lat="47.75867" lon="6.45509">
        <ele>356.58680111121</ele>
        <time>2021-08-21T09:44:07Z</time>
      </trkpt>
      <trkpt lat="47.75872" lon="6.45522">
        <ele>356.89342560335</ele>
        <time>2021-08-21T09:44:09Z</time>
      </trkpt>
      <trkpt lat="47.75878" lon="6.45534">
        <ele>357.28463185437</ele>
        <time>2021-08-21T09:44:11Z</time>
      </trkpt>
      <trkpt lat="47.75884" lon="6.45545">
        <ele>357.71393232014</ele>
        <time>2021-08-21T09:44:13Z</time>
      </trkpt>
      <trkpt lat="47.7589" lon="6.45555">
        <ele>358.20865941611</ele>
        <time>2021-08-21T09:44:15Z</time>
      </trkpt>
      <trkpt lat="47.75897" lon="6.45564">
        <ele>358.56732260972</ele>
        <time>2021-08-21T09:44:17Z</time>
      </trkpt>
      <trkpt lat="47.75904" lon="6.45572">
        <ele>358.76650949189</ele>
        <time>2021-08-21T09:44:19Z</time>
      </trkpt>
      <trkpt lat="47.75912" lon="6.45582">
        <ele>358.85514614687</ele>
        <time>2021-08-21T09:44:21Z</time>
      </trkpt>
      <trkpt lat="47.7592" lon="6.45591">
        <ele>358.9531565001</ele>
        <time>2021-08-21T09:44:23Z</time>
      </trkpt>
      <trkpt lat="47.75928" lon="6.45601">
        <ele>359.0638260609</ele>
        <time>2021-08-21T09:44:25Z</time>
      </trkpt>
      <trkpt lat="47.75935" lon="6.45611">
        <ele>359.15699680132</ele>
        <time>2021-08-21T09:44:27Z</time>
      </trkpt>
      <trkpt lat="47.75941" lon="6.4562">
        <ele>359.23008193214</ele>
        <time>2021-08-21T09:44:29Z</time>
      </trkpt>
      <trkpt lat="47.75948" lon="6.4563">
        <ele>359.25922981875</ele>
        <time>2021-08-21T09:44:31Z</time>
      </trkpt>
      <trkpt lat="47.75955" lon="6.45641">
        <ele>359.24198966478</ele>
        <time>2021-08-21T09:44:33Z</time>
      </trkpt>
      <trkpt lat="47.75962" lon="6.45651">
        <ele>359.25894732754</ele>
        <time>2021-08-21T09:44:35Z</time>
      </trkpt>
      <trkpt lat="47.7597" lon="6.45661">
        <ele>359.25672209553</ele>
        <time>2021-08-21T09:44:37Z</time>
      </trkpt>
      <trkpt lat="47.75979" lon="6.45671">
        <ele>359.23575052338</ele>
        <time>2021-08-21T09:44:39Z</time>
      </trkpt>
      <trkpt lat="47.75988" lon="6.45682">
        <ele>359.2215741872</ele>
        <time>2021-08-21T09:44:41Z</time>
      </trkpt>
      <trkpt lat="47.75997" lon="6.45693">
        <ele>359.22602436205</ele>
        <time>2021-08-21T09:44:43Z</time>
      </trkpt>
      <trkpt lat="47.76007" lon="6.45703">
        <ele>359.32444865582</ele>
        <time>2021-08-21T09:44:45Z</time>
      </trkpt>
      <trkpt lat="47.76018" lon="6.45708">
        <ele>359.47040963042</ele>
        <time>2021-08-21T09:44:47Z</time>
      </trkpt>
      <trkpt lat="47.76029" lon="6.45712">
        <ele>359.65927852867</ele>
        <time>2021-08-21T09:44:49Z</time>
      </trkpt>
      <trkpt lat="47.7604" lon="6.45714">
        <ele>359.84614438045</ele>
        <time>2021-08-21T09:44:51Z</time>
      </trkpt>
      <trkpt lat="47.76052" lon="6.45715">
        <ele>360.00357646594</ele>
        <time>2021-08-21T09:44:53Z</time>
      </trkpt>
      <trkpt lat="47.76064" lon="6.45717">
        <ele>360.17847708491</ele>
        <time>2021-08-21T09:44:55Z</time>
      </trkpt>
      <trkpt lat="47.76078" lon="6.4572">
        <ele>360.30320661434</ele>
        <time>2021-08-21T09:44:57Z</time>
      </trkpt>
      <trkpt lat="47.76092" lon="6.45724">
        <ele>360.38355536556</ele>
        <time>2021-08-21T09:44:59Z</time>
      </trkpt>
      <trkpt lat="47.76105" lon="6.45729">
        <ele>360.49355966535</ele>
        <time>2021-08-21T09:45:01Z</time>
      </trkpt>
      <trkpt lat="47.76118" lon="6.45736">
        <ele>360.66401373599</ele>
        <time>2021-08-21T09:45:03Z</time>
      </trkpt>
      <trkpt lat="47.76131" lon="6.45742">
        <ele>360.91868075864</ele>
        <time>2021-08-21T09:45:05Z</time>
      </trkpt>
      <trkpt lat="47.76144" lon="6.45747">
        <ele>361.10934186914</ele>
        <time>2021-08-21T09:45:07Z</time>
      </trkpt>
      <trkpt lat="47.76156" lon="6.45752">
        <ele>361.30060890184</ele>
        <time>2021-08-21T09:45:09Z</time>
      </trkpt>
      <trkpt lat="47.76169" lon="6.45758">
        <ele>361.36485743311</ele>
        <time>2021-08-21T09:45:11Z</time>
      </trkpt>
      <trkpt lat="47.76182" lon="6.45766">
        <ele>361.41516887224</ele>
        <time>2021-08-21T09:45:13Z</time>
      </trkpt>
      <trkpt lat="47.76195" lon="6.45775">
        <ele>361.46345496597</ele>
        <time>2021-08-21T09:45:15Z</time>
      </trkpt>
      <trkpt lat="47.76207" lon="6.45787">
        <ele>361.5714704605</ele>
        <time>2021-08-21T09:45:17Z</time>
      </trkpt>
      <trkpt lat="47.76219" lon="6.45799">
        <ele>361.73393651857</ele>
        <time>2021-08-21T09:45:19Z</time>
      </trkpt>
      <trkpt lat="47.76231" lon="6.45811">
        <ele>361.83898860182</ele>
        <time>2021-08-21T09:45:21Z</time>
      </trkpt>
      <trkpt lat="47.76243" lon="6.45824">
        <ele>362.00284964201</ele>
        <time>2021-08-21T09:45:23Z</time>
      </trkpt>
      <trkpt lat="47.76254" lon="6.45837">
        <ele>362.21562813886</ele>
        <time>2021-08-21T09:45:25Z</time>
      </trkpt>
      <trkpt lat="47.76265" lon="6.45849">
        <ele>362.54664735803</ele>
        <time>2021-08-21T09:45:27Z</time>
      </trkpt>
      <trkpt lat="47.76275" lon="6.45861">
        <ele>362.78710198756</ele>
        <time>2021-08-21T09:45:29Z</time>
      </trkpt>
      <trkpt lat="47.76286" lon="6.45874">
        <ele>363.0246294782</ele>
        <time>2021-08-21T09:45:31Z</time>
      </trkpt>
      <trkpt lat="47.76296" lon="6.45885">
        <ele>363.22110536377</ele>
        <time>2021-08-21T09:45:33Z</time>
      </trkpt>
      <trkpt lat="47.76306" lon="6.45896">
        <ele>363.40114739604</ele>
        <time>2021-08-21T09:45:35Z</time>
      </trkpt>
      <trkpt lat="47.76316" lon="6.45906">
        <ele>363.53279839239</ele>
        <time>2021-08-21T09:45:37Z</time>
      </trkpt>
      <trkpt lat="47.76325" lon="6.45916">
        <ele>363.64833216605</ele>
        <time>2021-08-21T09:45:39Z</time>
      </trkpt>
      <trkpt lat="47.76335" lon="6.45927">
        <ele>363.71767477995</ele>
        <time>2021-08-21T09:45:41Z</time>
      </trkpt>
      <trkpt lat="47.76345" lon="6.45937">
        <ele>363.72449962898</ele>
        <time>2021-08-21T09:45:43Z</time>
      </trkpt>
      <trkpt lat="47.76354" lon="6.4595">
        <ele>363.67583597427</ele>
        <time>2021-08-21T09:45:45Z</time>
      </trkpt>
      <trkpt lat="47.76364" lon="6.45962">
        <ele>363.58888235511</ele>
        <time>2021-08-21T09:45:47Z</time>
      </trkpt>
      <trkpt lat="47.76374" lon="6.45975">
        <ele>363.49793093519</ele>
        <time>2021-08-21T09:45:49Z</time>
      </trkpt>
      <trkpt lat="47.76384" lon="6.45988">
        <ele>363.41097482762</ele>
        <time>2021-08-21T09:45:51Z</time>
      </trkpt>
      <trkpt lat="47.76394" lon="6.46001">
        <ele>363.35726330121</ele>
        <time>2021-08-21T09:45:53Z</time>
      </trkpt>
      <trkpt lat="47.76405" lon="6.46013">
        <ele>363.32698520149</ele>
        <time>2021-08-21T09:45:55Z</time>
      </trkpt>
      <trkpt lat="47.76416" lon="6.46023">
        <ele>363.36706057644</ele>
        <time>2021-08-21T09:45:57Z</time>
      </trkpt>
      <trkpt lat="47.76428" lon="6.46033">
        <ele>363.36134323522</ele>
        <time>2021-08-21T09:45:59Z</time>
      </trkpt>
      <trkpt lat="47.7644" lon="6.4604">
        <ele>363.36196483111</ele>
        <time>2021-08-21T09:46:01Z</time>
      </trkpt>
      <trkpt lat="47.76453" lon="6.46046">
        <ele>363.39498442333</ele>
        <time>2021-08-21T09:46:03Z</time>
      </trkpt>
      <trkpt lat="47.76466" lon="6.4605">
        <ele>363.43976221103</ele>
        <time>2021-08-21T09:46:05Z</time>
      </trkpt>
      <trkpt lat="47.76479" lon="6.46048">
        <ele>363.5366872186</ele>
        <time>2021-08-21T09:46:07Z</time>
      </trkpt>
      <trkpt lat="47.76491" lon="6.46046">
        <ele>363.63329571711</ele>
        <time>2021-08-21T09:46:09Z</time>
      </trkpt>
      <trkpt lat="47.76503" lon="6.46042">
        <ele>363.657620661</ele>
        <time>2021-08-21T09:46:11Z</time>
      </trkpt>
      <trkpt lat="47.76514" lon="6.46037">
        <ele>363.65080405256</ele>
        <time>2021-08-21T09:46:13Z</time>
      </trkpt>
      <trkpt lat="47.76525" lon="6.46033">
        <ele>363.74907631465</ele>
        <time>2021-08-21T09:46:15Z</time>
      </trkpt>
      <trkpt lat="47.76536" lon="6.46029">
        <ele>363.85226545262</ele>
        <time>2021-08-21T09:46:17Z</time>
      </trkpt>
      <trkpt lat="47.76546" lon="6.46024">
        <ele>363.98645886079</ele>
        <time>2021-08-21T09:46:19Z</time>
      </trkpt>
      <trkpt lat="47.76556" lon="6.4602">
        <ele>364.12868706553</ele>
        <time>2021-08-21T09:46:21Z</time>
      </trkpt>
      <trkpt lat="47.76566" lon="6.46015">
        <ele>364.27303797241</ele>
        <time>2021-08-21T09:46:23Z</time>
      </trkpt>
      <trkpt lat="47.76575" lon="6.46009">
        <ele>364.2476801847</ele>
        <time>2021-08-21T09:46:25Z</time>
      </trkpt>
      <trkpt lat="47.76584" lon="6.46003">
        <ele>364.17548439673</ele>
        <time>2021-08-21T09:46:27Z</time>
      </trkpt>
      <trkpt lat="47.76593" lon="6.45998">
        <ele>364.08999947831</ele>
        <time>2021-08-21T09:46:29Z</time>
      </trkpt>
      <trkpt lat="47.76599" lon="6.45995">
        <ele>364.07145415149</ele>
        <time>2021-08-21T09:46:31Z</time>
      </trkpt>
      <trkpt lat="47.76607" lon="6.4599">
        <ele>363.87014121493</ele>
        <time>2021-08-21T09:46:33Z</time>
      </trkpt>
      <trkpt lat="47.76616" lon="6.45985">
        <ele>363.64926246329</ele>
        <time>2021-08-21T09:46:35Z</time>
      </trkpt>
      <trkpt lat="47.76625" lon="6.45979">
        <ele>363.57455115219</ele>
        <time>2021-08-21T09:46:37Z</time>
      </trkpt>
      <trkpt lat="47.76635" lon="6.45975">
        <ele>363.53610612527</ele>
        <time>2021-08-21T09:46:39Z</time>
      </trkpt>
      <trkpt lat="47.76646" lon="6.45971">
        <ele>363.62051286014</ele>
        <time>2021-08-21T09:46:41Z</time>
      </trkpt>
      <trkpt lat="47.76657" lon="6.45967">
        <ele>363.7384861957</ele>
        <time>2021-08-21T09:46:43Z</time>
      </trkpt>
      <trkpt lat="47.76669" lon="6.45965">
        <ele>363.91991009012</ele>
        <time>2021-08-21T09:46:45Z</time>
      </trkpt>
      <trkpt lat="47.7668" lon="6.45964">
        <ele>364.14403863034</ele>
        <time>2021-08-21T09:46:47Z</time>
      </trkpt>
      <trkpt lat="47.76693" lon="6.45964">
        <ele>364.37308954451</ele>
        <time>2021-08-21T09:46:49Z</time>
      </trkpt>
      <trkpt lat="47.76704" lon="6.45963">
        <ele>364.57594556064</ele>
        <time>2021-08-21T09:46:51Z</time>
      </trkpt>
      <trkpt lat="47.76715" lon="6.45963">
        <ele>364.77564743578</ele>
        <time>2021-08-21T09:46:53Z</time>
      </trkpt>
      <trkpt lat="47.76727" lon="6.45962">
        <ele>365.00849662508</ele>
        <time>2021-08-21T09:46:55Z</time>
      </trkpt>
      <trkpt lat="47.76738" lon="6.45961">
        <ele>365.23929740205</ele>
        <time>2021-08-21T09:46:57Z</time>
      </trkpt>
      <trkpt lat="47.76748" lon="6.45961">
        <ele>365.48317174077</ele>
        <time>2021-08-21T09:46:59Z</time>
      </trkpt>
      <trkpt lat="47.76758" lon="6.45959">
        <ele>365.73312305041</ele>
        <time>2021-08-21T09:47:01Z</time>
      </trkpt>
      <trkpt lat="47.76769" lon="6.45957">
        <ele>365.97772610387</ele>
        <time>2021-08-21T09:47:03Z</time>
      </trkpt>
      <trkpt lat="47.76779" lon="6.45954">
        <ele>366.16621717648</ele>
        <time>2021-08-21T09:47:05Z</time>
      </trkpt>
      <trkpt lat="47.76789" lon="6.45951">
        <ele>366.3595255744</ele>
        <time>2021-08-21T09:47:07Z</time>
      </trkpt>
      <trkpt lat="47.76799" lon="6.45947">
        <ele>366.50698692995</ele>
        <time>2021-08-21T09:47:09Z</time>
      </trkpt>
      <trkpt lat="47.7681" lon="6.45943">
        <ele>366.61616238156</ele>
        <time>2021-08-21T09:47:11Z</time>
      </trkpt>
      <trkpt lat="47.76822" lon="6.45939">
        <ele>366.73453956323</ele>
        <time>2021-08-21T09:47:13Z</time>
      </trkpt>
      <trkpt lat="47.76834" lon="6.45938">
        <ele>366.82724108005</ele>
        <time>2021-08-21T09:47:15Z</time>
      </trkpt>
      <trkpt lat="47.76847" lon="6.45939">
        <ele>366.91008592773</ele>
        <time>2021-08-21T09:47:17Z</time>
      </trkpt>
      <trkpt lat="47.7686" lon="6.45944">
        <ele>367.00932624998</ele>
        <time>2021-08-21T09:47:19Z</time>
      </trkpt>
      <trkpt lat="47.76873" lon="6.4595">
        <ele>367.10861264398</ele>
        <time>2021-08-21T09:47:21Z</time>
      </trkpt>
      <trkpt lat="47.76886" lon="6.45955">
        <ele>367.12722386116</ele>
        <time>2021-08-21T09:47:23Z</time>
      </trkpt>
      <trkpt lat="47.76899" lon="6.4596">
        <ele>367.2015638045</ele>
        <time>2021-08-21T09:47:25Z</time>
      </trkpt>
      <trkpt lat="47.76911" lon="6.45968">
        <ele>367.29498405864</ele>
        <time>2021-08-21T09:47:27Z</time>
      </trkpt>
      <trkpt lat="47.76922" lon="6.45978">
        <ele>367.34925311154</ele>
        <time>2021-08-21T09:47:29Z</time>
      </trkpt>
      <trkpt lat="47.76931" lon="6.45991">
        <ele>367.39648970751</ele>
        <time>2021-08-21T09:47:31Z</time>
      </trkpt>
      <trkpt lat="47.76939" lon="6.46003">
        <ele>367.4985235244</ele>
        <time>2021-08-21T09:47:33Z</time>
      </trkpt>
      <trkpt lat="47.76946" lon="6.46015">
        <ele>367.59798883662</ele>
        <time>2021-08-21T09:47:35Z</time>
      </trkpt>
      <trkpt lat="47.76951" lon="6.46025">
        <ele>367.62366704527</ele>
        <time>2021-08-21T09:47:37Z</time>
      </trkpt>
      <trkpt lat="47.76955" lon="6.46032">
        <ele>367.63563943818</ele>
        <time>2021-08-21T09:47:39Z</time>
      </trkpt>
      <trkpt lat="47.76958" lon="6.46036">
        <ele>367.65753368649</ele>
        <time>2021-08-21T09:47:41Z</time>
      </trkpt>
      <trkpt lat="47.76959" lon="6.46039">
        <ele>367.68635862847</ele>
        <time>2021-08-21T09:47:43Z</time>
      </trkpt>
      <trkpt lat="47.76962" lon="6.46042">
        <ele>367.72736533906</ele>
        <time>2021-08-21T09:47:45Z</time>
      </trkpt>
      <trkpt lat="47.76965" lon="6.46042">
        <ele>367.76995460993</ele>
        <time>2021-08-21T09:47:47Z</time>
      </trkpt>
      <trkpt lat="47.76971" lon="6.46037">
        <ele>368.02638834355</ele>
        <time>2021-08-21T09:47:49Z</time>
      </trkpt>
      <trkpt lat="47.76978" lon="6.46027">
        <ele>368.48410827792</ele>
        <time>2021-08-21T09:47:51Z</time>
      </trkpt>
      <trkpt lat="47.76985" lon="6.46018">
        <ele>369.17417904513</ele>
        <time>2021-08-21T09:47:53Z</time>
      </trkpt>
      <trkpt lat="47.76992" lon="6.46009">
        <ele>369.73259142052</ele>
        <time>2021-08-21T09:47:55Z</time>
      </trkpt>
      <trkpt lat="47.76999" lon="6.46001">
        <ele>370.16244385707</ele>
        <time>2021-08-21T09:47:57Z</time>
      </trkpt>
      <trkpt lat="47.77005" lon="6.45992">
        <ele>370.44818525236</ele>
        <time>2021-08-21T09:47:59Z</time>
      </trkpt>
      <trkpt lat="47.77012" lon="6.45984">
        <ele>370.6612094863</ele>
        <time>2021-08-21T09:48:01Z</time>
      </trkpt>
      <trkpt lat="47.77019" lon="6.45975">
        <ele>370.84651126761</ele>
        <time>2021-08-21T09:48:03Z</time>
      </trkpt>
      <trkpt lat="47.77026" lon="6.45967">
        <ele>371.06332070135</ele>
        <time>2021-08-21T09:48:05Z</time>
      </trkpt>
      <trkpt lat="47.77033" lon="6.45959">
        <ele>371.23583075775</ele>
        <time>2021-08-21T09:48:07Z</time>
      </trkpt>
      <trkpt lat="47.77041" lon="6.4595">
        <ele>371.39580426921</ele>
        <time>2021-08-21T09:48:09Z</time>
      </trkpt>
      <trkpt lat="47.77048" lon="6.45942">
        <ele>371.51616493687</ele>
        <time>2021-08-21T09:48:11Z</time>
      </trkpt>
      <trkpt lat="47.77055" lon="6.45933">
        <ele>371.630926318</ele>
        <time>2021-08-21T09:48:13Z</time>
      </trkpt>
      <trkpt lat="47.77062" lon="6.45924">
        <ele>371.74925915597</ele>
        <time>2021-08-21T09:48:15Z</time>
      </trkpt>
      <trkpt lat="47.77069" lon="6.45916">
        <ele>371.8568138271</ele>
        <time>2021-08-21T09:48:17Z</time>
      </trkpt>
      <trkpt lat="47.77076" lon="6.45907">
        <ele>371.95131678356</ele>
        <time>2021-08-21T09:48:19Z</time>
      </trkpt>
      <trkpt lat="47.77084" lon="6.45898">
        <ele>372.04231553803</ele>
        <time>2021-08-21T09:48:21Z</time>
      </trkpt>
      <trkpt lat="47.77092" lon="6.45888">
        <ele>372.11242268846</ele>
        <time>2021-08-21T09:48:23Z</time>
      </trkpt>
      <trkpt lat="47.771" lon="6.45877">
        <ele>372.17572393089</ele>
        <time>2021-08-21T09:48:25Z</time>
      </trkpt>
      <trkpt lat="47.77109" lon="6.45867">
        <ele>372.21654599223</ele>
        <time>2021-08-21T09:48:27Z</time>
      </trkpt>
      <trkpt lat="47.77117" lon="6.45856">
        <ele>372.23837875751</ele>
        <time>2021-08-21T09:48:29Z</time>
      </trkpt>
      <trkpt lat="47.77125" lon="6.45845">
        <ele>372.24978403005</ele>
        <time>2021-08-21T09:48:31Z</time>
      </trkpt>
      <trkpt lat="47.77134" lon="6.45835">
        <ele>372.26207088193</ele>
        <time>2021-08-21T09:48:33Z</time>
      </trkpt>
      <trkpt lat="47.77142" lon="6.45825">
        <ele>372.27095625944</ele>
        <time>2021-08-21T09:48:35Z</time>
      </trkpt>
      <trkpt lat="47.7715" lon="6.45813">
        <ele>372.27949066907</ele>
        <time>2021-08-21T09:48:37Z</time>
      </trkpt>
      <trkpt lat="47.77159" lon="6.45802">
        <ele>372.27633726062</ele>
        <time>2021-08-21T09:48:39Z</time>
      </trkpt>
      <trkpt lat="47.77171" lon="6.45797">
        <ele>372.25562319238</ele>
        <time>2021-08-21T09:48:41Z</time>
      </trkpt>
      <trkpt lat="47.77185" lon="6.45804">
        <ele>372.20409422522</ele>
        <time>2021-08-21T09:48:43Z</time>
      </trkpt>
      <trkpt lat="47.77197" lon="6.45817">
        <ele>372.13365544739</ele>
        <time>2021-08-21T09:48:45Z</time>
      </trkpt>
      <trkpt lat="47.77205" lon="6.45833">
        <ele>372.07706163516</ele>
        <time>2021-08-21T09:48:47Z</time>
      </trkpt>
      <trkpt lat="47.77213" lon="6.4585">
        <ele>372.03331126968</ele>
        <time>2021-08-21T09:48:49Z</time>
      </trkpt>
      <trkpt lat="47.77221" lon="6.45867">
        <ele>371.97862595758</ele>
        <time>2021-08-21T09:48:51Z</time>
      </trkpt>
      <trkpt lat="47.77228" lon="6.45884">
        <ele>371.90038933541</ele>
        <time>2021-08-21T09:48:53Z</time>
      </trkpt>
      <trkpt lat="47.77236" lon="6.459">
        <ele>371.90113878434</ele>
        <time>2021-08-21T09:48:55Z</time>
      </trkpt>
      <trkpt lat="47.77243" lon="6.45916">
        <ele>371.86130245479</ele>
        <time>2021-08-21T09:48:57Z</time>
      </trkpt>
      <trkpt lat="47.77251" lon="6.45931">
        <ele>371.72670615046</ele>
        <time>2021-08-21T09:48:59Z</time>
      </trkpt>
      <trkpt lat="47.77258" lon="6.45948">
        <ele>371.63236787373</ele>
        <time>2021-08-21T09:49:01Z</time>
      </trkpt>
      <trkpt lat="47.77266" lon="6.45964">
        <ele>371.59051863147</ele>
        <time>2021-08-21T09:49:03Z</time>
      </trkpt>
      <trkpt lat="47.77273" lon="6.4598">
        <ele>371.53749686445</ele>
        <time>2021-08-21T09:49:05Z</time>
      </trkpt>
      <trkpt lat="47.77282" lon="6.45995">
        <ele>371.45618002406</ele>
        <time>2021-08-21T09:49:07Z</time>
      </trkpt>
      <trkpt lat="47.77292" lon="6.46009">
        <ele>371.49956508926</ele>
        <time>2021-08-21T09:49:09Z</time>
      </trkpt>
      <trkpt lat="47.77305" lon="6.46018">
        <ele>371.59129679331</ele>
        <time>2021-08-21T09:49:11Z</time>
      </trkpt>
      <trkpt lat="47.77317" lon="6.46027">
        <ele>371.55447240457</ele>
        <time>2021-08-21T09:49:13Z</time>
      </trkpt>
      <trkpt lat="47.77328" lon="6.46039">
        <ele>371.51011910481</ele>
        <time>2021-08-21T09:49:15Z</time>
      </trkpt>
      <trkpt lat="47.77336" lon="6.46055">
        <ele>371.48074089304</ele>
        <time>2021-08-21T09:49:17Z</time>
      </trkpt>
      <trkpt lat="47.77343" lon="6.46072">
        <ele>371.45131670836</ele>
        <time>2021-08-21T09:49:19Z</time>
      </trkpt>
      <trkpt lat="47.77349" lon="6.46089">
        <ele>371.46065108163</ele>
        <time>2021-08-21T09:49:21Z</time>
      </trkpt>
      <trkpt lat="47.77354" lon="6.46107">
        <ele>371.65419942128</ele>
        <time>2021-08-21T09:49:23Z</time>
      </trkpt>
      <trkpt lat="47.77358" lon="6.46125">
        <ele>371.65911809522</ele>
        <time>2021-08-21T09:49:25Z</time>
      </trkpt>
      <trkpt lat="47.77362" lon="6.46142">
        <ele>371.67498163783</ele>
        <time>2021-08-21T09:49:27Z</time>
      </trkpt>
      <trkpt lat="47.77366" lon="6.46159">
        <ele>371.67574654529</ele>
        <time>2021-08-21T09:49:29Z</time>
      </trkpt>
      <trkpt lat="47.7737" lon="6.46175">
        <ele>371.62646207618</ele>
        <time>2021-08-21T09:49:31Z</time>
      </trkpt>
      <trkpt lat="47.77376" lon="6.4619">
        <ele>371.68681375452</ele>
        <time>2021-08-21T09:49:33Z</time>
      </trkpt>
      <trkpt lat="47.77383" lon="6.46201">
        <ele>371.75354044602</ele>
        <time>2021-08-21T09:49:35Z</time>
      </trkpt>
      <trkpt lat="47.77391" lon="6.46213">
        <ele>371.83746086834</ele>
        <time>2021-08-21T09:49:37Z</time>
      </trkpt>
      <trkpt lat="47.77399" lon="6.46223">
        <ele>372.18673111586</ele>
        <time>2021-08-21T09:49:39Z</time>
      </trkpt>
      <trkpt lat="47.77406" lon="6.46233">
        <ele>372.49523709675</ele>
        <time>2021-08-21T09:49:41Z</time>
      </trkpt>
      <trkpt lat="47.77412" lon="6.46243">
        <ele>372.72024747918</ele>
        <time>2021-08-21T09:49:43Z</time>
      </trkpt>
      <trkpt lat="47.77417" lon="6.46254">
        <ele>372.95135157562</ele>
        <time>2021-08-21T09:49:45Z</time>
      </trkpt>
      <trkpt lat="47.77422" lon="6.46264">
        <ele>373.1917039199</ele>
        <time>2021-08-21T09:49:47Z</time>
      </trkpt>
      <trkpt lat="47.77427" lon="6.46273">
        <ele>373.41510821712</ele>
        <time>2021-08-21T09:49:49Z</time>
      </trkpt>
      <trkpt lat="47.77432" lon="6.46284">
        <ele>373.73556287276</ele>
        <time>2021-08-21T09:49:51Z</time>
      </trkpt>
      <trkpt lat="47.77437" lon="6.46294">
        <ele>374.07226132654</ele>
        <time>2021-08-21T09:49:53Z</time>
      </trkpt>
      <trkpt lat="47.77441" lon="6.46303">
        <ele>374.10145637626</ele>
        <time>2021-08-21T09:49:55Z</time>
      </trkpt>
      <trkpt lat="47.77446" lon="6.46311">
        <ele>374.44115271625</ele>
        <time>2021-08-21T09:49:57Z</time>
      </trkpt>
      <trkpt lat="47.77451" lon="6.4632">
        <ele>374.75751530356</ele>
        <time>2021-08-21T09:49:59Z</time>
      </trkpt>
      <trkpt lat="47.77456" lon="6.46327">
        <ele>375.08036266121</ele>
        <time>2021-08-21T09:50:01Z</time>
      </trkpt>
      <trkpt lat="47.77461" lon="6.46333">
        <ele>375.12991998832</ele>
        <time>2021-08-21T09:50:03Z</time>
      </trkpt>
      <trkpt lat="47.77466" lon="6.46339">
        <ele>375.18509092921</ele>
        <time>2021-08-21T09:50:05Z</time>
      </trkpt>
      <trkpt lat="47.77471" lon="6.46346">
        <ele>375.24698150892</ele>
        <time>2021-08-21T09:50:07Z</time>
      </trkpt>
      <trkpt lat="47.77476" lon="6.46353">
        <ele>375.31387485681</ele>
        <time>2021-08-21T09:50:09Z</time>
      </trkpt>
      <trkpt lat="47.77481" lon="6.46359">
        <ele>375.38234134892</ele>
        <time>2021-08-21T09:50:11Z</time>
      </trkpt>
      <trkpt lat="47.77486" lon="6.46366">
        <ele>375.45344656819</ele>
        <time>2021-08-21T09:50:13Z</time>
      </trkpt>
      <trkpt lat="47.77491" lon="6.46373">
        <ele>375.53188629191</ele>
        <time>2021-08-21T09:50:15Z</time>
      </trkpt>
      <trkpt lat="47.77496" lon="6.4638">
        <ele>375.61622386978</ele>
        <time>2021-08-21T09:50:17Z</time>
      </trkpt>
      <trkpt lat="47.77501" lon="6.46387">
        <ele>375.7119460482</ele>
        <time>2021-08-21T09:50:19Z</time>
      </trkpt>
      <trkpt lat="47.77506" lon="6.46394">
        <ele>375.81487283714</ele>
        <time>2021-08-21T09:50:21Z</time>
      </trkpt>
      <trkpt lat="47.77511" lon="6.464">
        <ele>375.92045179403</ele>
        <time>2021-08-21T09:50:23Z</time>
      </trkpt>
      <trkpt lat="47.77516" lon="6.46407">
        <ele>376.03227901066</ele>
        <time>2021-08-21T09:50:25Z</time>
      </trkpt>
      <trkpt lat="47.77522" lon="6.46413">
        <ele>376.15231089965</ele>
        <time>2021-08-21T09:50:27Z</time>
      </trkpt>
      <trkpt lat="47.77528" lon="6.46418">
        <ele>376.85911932494</ele>
        <time>2021-08-21T09:50:29Z</time>
      </trkpt>
      <trkpt lat="47.77534" lon="6.46423">
        <ele>376.97109398518</ele>
        <time>2021-08-21T09:50:31Z</time>
      </trkpt>
      <trkpt lat="47.77541" lon="6.46428">
        <ele>377.08954267077</ele>
        <time>2021-08-21T09:50:33Z</time>
      </trkpt>
      <trkpt lat="47.77547" lon="6.46434">
        <ele>378.20066973492</ele>
        <time>2021-08-21T09:50:35Z</time>
      </trkpt>
      <trkpt lat="47.77553" lon="6.4644">
        <ele>378.28360182613</ele>
        <time>2021-08-21T09:50:37Z</time>
      </trkpt>
      <trkpt lat="47.77559" lon="6.46446">
        <ele>378.74739597876</ele>
        <time>2021-08-21T09:50:39Z</time>
      </trkpt>
      <trkpt lat="47.77565" lon="6.46453">
        <ele>379.37717785437</ele>
        <time>2021-08-21T09:50:41Z</time>
      </trkpt>
      <trkpt lat="47.7757" lon="6.4646">
        <ele>379.42426366236</ele>
        <time>2021-08-21T09:50:43Z</time>
      </trkpt>
      <trkpt lat="47.77576" lon="6.46468">
        <ele>379.85620020067</ele>
        <time>2021-08-21T09:50:45Z</time>
      </trkpt>
      <trkpt lat="47.77582" lon="6.46476">
        <ele>380.15241695094</ele>
        <time>2021-08-21T09:50:47Z</time>
      </trkpt>
      <trkpt lat="47.77588" lon="6.46485">
        <ele>380.36978019441</ele>
        <time>2021-08-21T09:50:49Z</time>
      </trkpt>
      <trkpt lat="47.77594" lon="6.46494">
        <ele>380.52905441825</ele>
        <time>2021-08-21T09:50:51Z</time>
      </trkpt>
      <trkpt lat="47.77601" lon="6.46503">
        <ele>380.6527256278</ele>
        <time>2021-08-21T09:50:53Z</time>
      </trkpt>
      <trkpt lat="47.77607" lon="6.46512">
        <ele>380.75334667365</ele>
        <time>2021-08-21T09:50:55Z</time>
      </trkpt>
      <trkpt lat="47.77613" lon="6.46521">
        <ele>380.83736796409</ele>
        <time>2021-08-21T09:50:57Z</time>
      </trkpt>
      <trkpt lat="47.77619" lon="6.4653">
        <ele>380.94174509527</ele>
        <time>2021-08-21T09:50:59Z</time>
      </trkpt>
      <trkpt lat="47.77625" lon="6.46539">
        <ele>381.04411959276</ele>
        <time>2021-08-21T09:51:01Z</time>
      </trkpt>
      <trkpt lat="47.77631" lon="6.46547">
        <ele>381.12999006558</ele>
        <time>2021-08-21T09:51:03Z</time>
      </trkpt>
      <trkpt lat="47.77637" lon="6.46556">
        <ele>381.2025668021</ele>
        <time>2021-08-21T09:51:05Z</time>
      </trkpt>
      <trkpt lat="47.77644" lon="6.46565">
        <ele>381.2816042348</ele>
        <time>2021-08-21T09:51:07Z</time>
      </trkpt>
      <trkpt lat="47.77651" lon="6.46574">
        <ele>381.36708273772</ele>
        <time>2021-08-21T09:51:09Z</time>
      </trkpt>
      <trkpt lat="47.77657" lon="6.46583">
        <ele>381.44542184646</ele>
        <time>2021-08-21T09:51:11Z</time>
      </trkpt>
      <trkpt lat="47.77664" lon="6.46593">
        <ele>381.51097424547</ele>
        <time>2021-08-21T09:51:13Z</time>
      </trkpt>
      <trkpt lat="47.7767" lon="6.46603">
        <ele>381.58520603621</ele>
        <time>2021-08-21T09:51:15Z</time>
      </trkpt>
      <trkpt lat="47.77676" lon="6.46614">
        <ele>381.65982412452</ele>
        <time>2021-08-21T09:51:17Z</time>
      </trkpt>
      <trkpt lat="47.77681" lon="6.46624">
        <ele>381.71263863727</ele>
        <time>2021-08-21T09:51:19Z</time>
      </trkpt>
      <trkpt lat="47.77686" lon="6.46636">
        <ele>381.74576628505</ele>
        <time>2021-08-21T09:51:21Z</time>
      </trkpt>
      <trkpt lat="47.7769" lon="6.46649">
        <ele>381.81517177248</ele>
        <time>2021-08-21T09:51:23Z</time>
      </trkpt>
      <trkpt lat="47.77695" lon="6.4666">
        <ele>381.9124452195</ele>
        <time>2021-08-21T09:51:25Z</time>
      </trkpt>
      <trkpt lat="47.777" lon="6.46672">
        <ele>381.99499118421</ele>
        <time>2021-08-21T09:51:27Z</time>
      </trkpt>
      <trkpt lat="47.77706" lon="6.46683">
        <ele>382.05321119384</ele>
        <time>2021-08-21T09:51:29Z</time>
      </trkpt>
      <trkpt lat="47.77712" lon="6.46696">
        <ele>382.09165936415</ele>
        <time>2021-08-21T09:51:31Z</time>
      </trkpt>
      <trkpt lat="47.77718" lon="6.46709">
        <ele>382.14169693665</ele>
        <time>2021-08-21T09:51:33Z</time>
      </trkpt>
      <trkpt lat="47.77724" lon="6.46721">
        <ele>382.21024072552</ele>
        <time>2021-08-21T09:51:35Z</time>
      </trkpt>
      <trkpt lat="47.7773" lon="6.46734">
        <ele>382.27971305459</ele>
        <time>2021-08-21T09:51:37Z</time>
      </trkpt>
      <trkpt lat="47.77738" lon="6.46747">
        <ele>382.39822693562</ele>
        <time>2021-08-21T09:51:39Z</time>
      </trkpt>
      <trkpt lat="47.77745" lon="6.46761">
        <ele>382.58302357622</ele>
        <time>2021-08-21T09:51:41Z</time>
      </trkpt>
      <trkpt lat="47.77753" lon="6.46773">
        <ele>382.77522987537</ele>
        <time>2021-08-21T09:51:43Z</time>
      </trkpt>
      <trkpt lat="47.77761" lon="6.46784">
        <ele>382.96556680328</ele>
        <time>2021-08-21T09:51:45Z</time>
      </trkpt>
      <trkpt lat="47.7777" lon="6.46793">
        <ele>383.16336248127</ele>
        <time>2021-08-21T09:51:47Z</time>
      </trkpt>
      <trkpt lat="47.77779" lon="6.46801">
        <ele>383.36717981696</ele>
        <time>2021-08-21T09:51:49Z</time>
      </trkpt>
      <trkpt lat="47.77789" lon="6.4681">
        <ele>383.57357376243</ele>
        <time>2021-08-21T09:51:51Z</time>
      </trkpt>
      <trkpt lat="47.77799" lon="6.46819">
        <ele>383.77758948367</ele>
        <time>2021-08-21T09:51:53Z</time>
      </trkpt>
      <trkpt lat="47.77809" lon="6.46827">
        <ele>383.96983381988</ele>
        <time>2021-08-21T09:51:55Z</time>
      </trkpt>
      <trkpt lat="47.77819" lon="6.46836">
        <ele>384.16397611029</ele>
        <time>2021-08-21T09:51:57Z</time>
      </trkpt>
      <trkpt lat="47.77828" lon="6.46845">
        <ele>384.35730661042</ele>
        <time>2021-08-21T09:51:59Z</time>
      </trkpt>
      <trkpt lat="47.77838" lon="6.46854">
        <ele>384.52874770567</ele>
        <time>2021-08-21T09:52:01Z</time>
      </trkpt>
      <trkpt lat="47.77848" lon="6.46864">
        <ele>384.7103310131</ele>
        <time>2021-08-21T09:52:03Z</time>
      </trkpt>
      <trkpt lat="47.77858" lon="6.46873">
        <ele>384.90355082742</ele>
        <time>2021-08-21T09:52:05Z</time>
      </trkpt>
      <trkpt lat="47.77867" lon="6.46882">
        <ele>385.08299421824</ele>
        <time>2021-08-21T09:52:07Z</time>
      </trkpt>
      <trkpt lat="47.77877" lon="6.4689">
        <ele>385.23784248953</ele>
        <time>2021-08-21T09:52:09Z</time>
      </trkpt>
      <trkpt lat="47.77887" lon="6.46896">
        <ele>385.37477649025</ele>
        <time>2021-08-21T09:52:11Z</time>
      </trkpt>
      <trkpt lat="47.77897" lon="6.469">
        <ele>385.50008635589</ele>
        <time>2021-08-21T09:52:13Z</time>
      </trkpt>
      <trkpt lat="47.77909" lon="6.46904">
        <ele>385.62651581566</ele>
        <time>2021-08-21T09:52:15Z</time>
      </trkpt>
      <trkpt lat="47.77919" lon="6.46907">
        <ele>385.76302252429</ele>
        <time>2021-08-21T09:52:17Z</time>
      </trkpt>
      <trkpt lat="47.77929" lon="6.4691">
        <ele>385.90383487465</ele>
        <time>2021-08-21T09:52:19Z</time>
      </trkpt>
      <trkpt lat="47.77938" lon="6.46913">
        <ele>386.0394268879</ele>
        <time>2021-08-21T09:52:21Z</time>
      </trkpt>
      <trkpt lat="47.77947" lon="6.46918">
        <ele>386.17005645218</ele>
        <time>2021-08-21T09:52:23Z</time>
      </trkpt>
      <trkpt lat="47.77956" lon="6.46924">
        <ele>386.28809181334</ele>
        <time>2021-08-21T09:52:25Z</time>
      </trkpt>
      <trkpt lat="47.77964" lon="6.46932">
        <ele>386.40347854047</ele>
        <time>2021-08-21T09:52:27Z</time>
      </trkpt>
      <trkpt lat="47.77972" lon="6.46938">
        <ele>386.52549820351</ele>
        <time>2021-08-21T09:52:29Z</time>
      </trkpt>
      <trkpt lat="47.77979" lon="6.46944">
        <ele>386.64966000644</ele>
        <time>2021-08-21T09:52:31Z</time>
      </trkpt>
      <trkpt lat="47.77987" lon="6.46949">
        <ele>386.77165533919</ele>
        <time>2021-08-21T09:52:33Z</time>
      </trkpt>
      <trkpt lat="47.77995" lon="6.46952">
        <ele>386.89371326766</ele>
        <time>2021-08-21T09:52:35Z</time>
      </trkpt>
      <trkpt lat="47.78003" lon="6.46956">
        <ele>387.01954291456</ele>
        <time>2021-08-21T09:52:37Z</time>
      </trkpt>
      <trkpt lat="47.78011" lon="6.4696">
        <ele>387.13866376134</ele>
        <time>2021-08-21T09:52:39Z</time>
      </trkpt>
      <trkpt lat="47.78018" lon="6.46963">
        <ele>387.20049791837</ele>
        <time>2021-08-21T09:52:41Z</time>
      </trkpt>
      <trkpt lat="47.78025" lon="6.46965">
        <ele>387.21271742685</ele>
        <time>2021-08-21T09:52:43Z</time>
      </trkpt>
      <trkpt lat="47.78032" lon="6.46968">
        <ele>387.28877396372</ele>
        <time>2021-08-21T09:52:45Z</time>
      </trkpt>
      <trkpt lat="47.78039" lon="6.46972">
        <ele>387.30283184055</ele>
        <time>2021-08-21T09:52:47Z</time>
      </trkpt>
      <trkpt lat="47.78044" lon="6.46977">
        <ele>387.31919848555</ele>
        <time>2021-08-21T09:52:49Z</time>
      </trkpt>
      <trkpt lat="47.78048" lon="6.46983">
        <ele>387.33907609596</ele>
        <time>2021-08-21T09:52:51Z</time>
      </trkpt>
      <trkpt lat="47.78049" lon="6.46985">
        <ele>387.35166230998</ele>
        <time>2021-08-21T09:52:53Z</time>
      </trkpt>
      <trkpt lat="47.78049" lon="6.46985">
        <ele>387.36696948801</ele>
        <time>2021-08-21T09:52:55Z</time>
      </trkpt>
      <trkpt lat="47.78049" lon="6.46986">
        <ele>387.37025601393</ele>
        <time>2021-08-21T09:52:57Z</time>
      </trkpt>
      <trkpt lat="47.78049" lon="6.46986">
        <ele>387.37404322257</ele>
        <time>2021-08-21T09:52:59Z</time>
      </trkpt>
      <trkpt lat="47.78049" lon="6.46986">
        <ele>387.37804028584</ele>
        <time>2021-08-21T09:53:01Z</time>
      </trkpt>
      <trkpt lat="47.78049" lon="6.46986">
        <ele>387.38215917992</ele>
        <time>2021-08-21T09:53:03Z</time>
      </trkpt>
      <trkpt lat="47.78049" lon="6.46986">
        <ele>387.38661937768</ele>
        <time>2021-08-21T09:53:05Z</time>
      </trkpt>
      <trkpt lat="47.78049" lon="6.46986">
        <ele>387.3914763237</ele>
        <time>2021-08-21T09:53:07Z</time>
      </trkpt>
      <trkpt lat="47.78048" lon="6.46986">
        <ele>387.39690598044</ele>
        <time>2021-08-21T09:53:09Z</time>
      </trkpt>
      <trkpt lat="47.78048" lon="6.46986">
        <ele>387.40276466147</ele>
        <time>2021-08-21T09:53:11Z</time>
      </trkpt>
      <trkpt lat="47.78048" lon="6.46986">
        <ele>387.40909240051</ele>
        <time>2021-08-21T09:53:13Z</time>
      </trkpt>
      <trkpt lat="47.78048" lon="6.46986">
        <ele>387.4457507495</ele>
        <time>2021-08-21T09:53:15Z</time>
      </trkpt>
      <trkpt lat="47.78048" lon="6.46986">
        <ele>387.48260354006</ele>
        <time>2021-08-21T09:53:17Z</time>
      </trkpt>
      <trkpt lat="47.78048" lon="6.46986">
        <ele>387.48958657802</ele>
        <time>2021-08-21T09:53:19Z</time>
      </trkpt>
      <trkpt lat="47.78048" lon="6.46986">
        <ele>387.49695608941</ele>
        <time>2021-08-21T09:53:21Z</time>
      </trkpt>
      <trkpt lat="47.78048" lon="6.46987">
        <ele>387.50477843189</ele>
        <time>2021-08-21T09:53:23Z</time>
      </trkpt>
      <trkpt lat="47.78048" lon="6.46987">
        <ele>387.51308177135</ele>
        <time>2021-08-21T09:53:25Z</time>
      </trkpt>
      <trkpt lat="47.78048" lon="6.46987">
        <ele>387.5218271622</ele>
        <time>2021-08-21T09:53:27Z</time>
      </trkpt>
      <trkpt lat="47.78048" lon="6.46986">
        <ele>387.53093479811</ele>
        <time>2021-08-21T09:53:29Z</time>
      </trkpt>
      <trkpt lat="47.78048" lon="6.46986">
        <ele>387.54034717319</ele>
        <time>2021-08-21T09:53:31Z</time>
      </trkpt>
      <trkpt lat="47.78047" lon="6.46986">
        <ele>387.54992577234</ele>
        <time>2021-08-21T09:53:33Z</time>
      </trkpt>
      <trkpt lat="47.78047" lon="6.46986">
        <ele>387.5597547715</ele>
        <time>2021-08-21T09:53:35Z</time>
      </trkpt>
      <trkpt lat="47.78047" lon="6.46986">
        <ele>387.56979613151</ele>
        <time>2021-08-21T09:53:37Z</time>
      </trkpt>
      <trkpt lat="47.78047" lon="6.46986">
        <ele>387.58002259695</ele>
        <time>2021-08-21T09:53:39Z</time>
      </trkpt>
      <trkpt lat="47.78047" lon="6.46986">
        <ele>387.59050842391</ele>
        <time>2021-08-21T09:53:41Z</time>
      </trkpt>
      <trkpt lat="47.78047" lon="6.46985">
        <ele>387.69746558192</ele>
        <time>2021-08-21T09:53:43Z</time>
      </trkpt>
      <trkpt lat="47.78047" lon="6.46987">
        <ele>387.80361298718</ele>
        <time>2021-08-21T09:53:45Z</time>
      </trkpt>
      <trkpt lat="47.78047" lon="6.46987">
        <ele>387.86143248053</ele>
        <time>2021-08-21T09:53:47Z</time>
      </trkpt>
      <trkpt lat="47.78048" lon="6.46987">
        <ele>387.92026744926</ele>
        <time>2021-08-21T09:53:49Z</time>
      </trkpt>
      <trkpt lat="47.78048" lon="6.46987">
        <ele>387.93098595012</ele>
        <time>2021-08-21T09:53:51Z</time>
      </trkpt>
      <trkpt lat="47.78048" lon="6.46988">
        <ele>387.94196427858</ele>
        <time>2021-08-21T09:53:53Z</time>
      </trkpt>
      <trkpt lat="47.78048" lon="6.46988">
        <ele>387.95316405471</ele>
        <time>2021-08-21T09:53:55Z</time>
      </trkpt>
      <trkpt lat="47.78048" lon="6.46988">
        <ele>387.96453599602</ele>
        <time>2021-08-21T09:53:57Z</time>
      </trkpt>
      <trkpt lat="47.78049" lon="6.4699">
        <ele>388.07927953258</ele>
        <time>2021-08-21T09:53:59Z</time>
      </trkpt>
      <trkpt lat="47.78051" lon="6.46991">
        <ele>388.19062407352</ele>
        <time>2021-08-21T09:54:01Z</time>
      </trkpt>
      <trkpt lat="47.78056" lon="6.46991">
        <ele>388.29896230631</ele>
        <time>2021-08-21T09:54:03Z</time>
      </trkpt>
      <trkpt lat="47.78063" lon="6.46987">
        <ele>389.2645718024</ele>
        <time>2021-08-21T09:54:05Z</time>
      </trkpt>
      <trkpt lat="47.78072" lon="6.46982">
        <ele>389.90231284607</ele>
        <time>2021-08-21T09:54:07Z</time>
      </trkpt>
      <trkpt lat="47.78081" lon="6.4698">
        <ele>390.33860499412</ele>
        <time>2021-08-21T09:54:09Z</time>
      </trkpt>
      <trkpt lat="47.78089" lon="6.46979">
        <ele>390.51879305297</ele>
        <time>2021-08-21T09:54:11Z</time>
      </trkpt>
      <trkpt lat="47.78096" lon="6.46988">
        <ele>390.78194959308</ele>
        <time>2021-08-21T09:54:13Z</time>
      </trkpt>
      <trkpt lat="47.78098" lon="6.47006">
        <ele>390.98165670423</ele>
        <time>2021-08-21T09:54:15Z</time>
      </trkpt>
      <trkpt lat="47.78099" lon="6.47023">
        <ele>391.13278788874</ele>
        <time>2021-08-21T09:54:17Z</time>
      </trkpt>
      <trkpt lat="47.781" lon="6.47039">
        <ele>391.25087412312</ele>
        <time>2021-08-21T09:54:19Z</time>
      </trkpt>
      <trkpt lat="47.78101" lon="6.47055">
        <ele>391.34273068145</ele>
        <time>2021-08-21T09:54:21Z</time>
      </trkpt>
      <trkpt lat="47.78104" lon="6.47069">
        <ele>391.41377348738</ele>
        <time>2021-08-21T09:54:23Z</time>
      </trkpt>
      <trkpt lat="47.78108" lon="6.47083">
        <ele>391.47300450361</ele>
        <time>2021-08-21T09:54:25Z</time>
      </trkpt>
      <trkpt lat="47.78114" lon="6.47096">
        <ele>391.52430030365</ele>
        <time>2021-08-21T09:54:27Z</time>
      </trkpt>
      <trkpt lat="47.78121" lon="6.47108">
        <ele>391.57637544861</ele>
        <time>2021-08-21T09:54:29Z</time>
      </trkpt>
      <trkpt lat="47.78128" lon="6.47118">
        <ele>391.63333488283</ele>
        <time>2021-08-21T09:54:31Z</time>
      </trkpt>
      <trkpt lat="47.78137" lon="6.47125">
        <ele>391.70203949072</ele>
        <time>2021-08-21T09:54:33Z</time>
      </trkpt>
      <trkpt lat="47.78148" lon="6.47129">
        <ele>391.78836624786</ele>
        <time>2021-08-21T09:54:35Z</time>
      </trkpt>
      <trkpt lat="47.78159" lon="6.47136">
        <ele>391.87716150571</ele>
        <time>2021-08-21T09:54:37Z</time>
      </trkpt>
      <trkpt lat="47.78168" lon="6.47144">
        <ele>391.96486184284</ele>
        <time>2021-08-21T09:54:39Z</time>
      </trkpt>
      <trkpt lat="47.78177" lon="6.47153">
        <ele>392.04834104691</ele>
        <time>2021-08-21T09:54:41Z</time>
      </trkpt>
      <trkpt lat="47.78185" lon="6.47163">
        <ele>392.12866934008</ele>
        <time>2021-08-21T09:54:43Z</time>
      </trkpt>
      <trkpt lat="47.78193" lon="6.47172">
        <ele>392.21596186367</ele>
        <time>2021-08-21T09:54:45Z</time>
      </trkpt>
      <trkpt lat="47.78199" lon="6.47182">
        <ele>392.30538412622</ele>
        <time>2021-08-21T09:54:47Z</time>
      </trkpt>
      <trkpt lat="47.78206" lon="6.47192">
        <ele>392.39941014622</ele>
        <time>2021-08-21T09:54:49Z</time>
      </trkpt>
      <trkpt lat="47.78212" lon="6.47202">
        <ele>392.49674901119</ele>
        <time>2021-08-21T09:54:51Z</time>
      </trkpt>
      <trkpt lat="47.78217" lon="6.47212">
        <ele>392.59143503371</ele>
        <time>2021-08-21T09:54:53Z</time>
      </trkpt>
      <trkpt lat="47.78223" lon="6.47222">
        <ele>392.69233273461</ele>
        <time>2021-08-21T09:54:55Z</time>
      </trkpt>
      <trkpt lat="47.78229" lon="6.47232">
        <ele>392.79922808756</ele>
        <time>2021-08-21T09:54:57Z</time>
      </trkpt>
      <trkpt lat="47.78235" lon="6.47242">
        <ele>392.90899843506</ele>
        <time>2021-08-21T09:54:59Z</time>
      </trkpt>
      <trkpt lat="47.78242" lon="6.47251">
        <ele>393.01757707551</ele>
        <time>2021-08-21T09:55:01Z</time>
      </trkpt>
      <trkpt lat="47.78249" lon="6.4726">
        <ele>393.12205432806</ele>
        <time>2021-08-21T09:55:03Z</time>
      </trkpt>
      <trkpt lat="47.78257" lon="6.47269">
        <ele>393.22543638107</ele>
        <time>2021-08-21T09:55:05Z</time>
      </trkpt>
      <trkpt lat="47.78267" lon="6.47277">
        <ele>393.32628598549</ele>
        <time>2021-08-21T09:55:07Z</time>
      </trkpt>
      <trkpt lat="47.78276" lon="6.47286">
        <ele>393.42294280006</ele>
        <time>2021-08-21T09:55:09Z</time>
      </trkpt>
      <trkpt lat="47.78286" lon="6.47295">
        <ele>393.51554085683</ele>
        <time>2021-08-21T09:55:11Z</time>
      </trkpt>
      <trkpt lat="47.78296" lon="6.47305">
        <ele>393.60502192691</ele>
        <time>2021-08-21T09:55:13Z</time>
      </trkpt>
      <trkpt lat="47.78306" lon="6.47314">
        <ele>393.69259207646</ele>
        <time>2021-08-21T09:55:15Z</time>
      </trkpt>
      <trkpt lat="47.78317" lon="6.47324">
        <ele>393.78175793348</ele>
        <time>2021-08-21T09:55:17Z</time>
      </trkpt>
      <trkpt lat="47.78328" lon="6.47334">
        <ele>393.8748670357</ele>
        <time>2021-08-21T09:55:19Z</time>
      </trkpt>
      <trkpt lat="47.78339" lon="6.47345">
        <ele>393.97227239079</ele>
        <time>2021-08-21T09:55:21Z</time>
      </trkpt>
      <trkpt lat="47.7835" lon="6.47355">
        <ele>394.07817215146</ele>
        <time>2021-08-21T09:55:23Z</time>
      </trkpt>
      <trkpt lat="47.78362" lon="6.47363">
        <ele>394.19160568932</ele>
        <time>2021-08-21T09:55:25Z</time>
      </trkpt>
      <trkpt lat="47.78374" lon="6.47371">
        <ele>394.3333918997</ele>
        <time>2021-08-21T09:55:27Z</time>
      </trkpt>
      <trkpt lat="47.78386" lon="6.47377">
        <ele>394.60424218603</ele>
        <time>2021-08-21T09:55:29Z</time>
      </trkpt>
      <trkpt lat="47.78398" lon="6.47382">
        <ele>394.9126437803</ele>
        <time>2021-08-21T09:55:31Z</time>
      </trkpt>
      <trkpt lat="47.78409" lon="6.47385">
        <ele>395.1311585296</ele>
        <time>2021-08-21T09:55:33Z</time>
      </trkpt>
      <trkpt lat="47.7842" lon="6.47388">
        <ele>395.30197213721</ele>
        <time>2021-08-21T09:55:35Z</time>
      </trkpt>
      <trkpt lat="47.78431" lon="6.47391">
        <ele>395.27528462003</ele>
        <time>2021-08-21T09:55:37Z</time>
      </trkpt>
      <trkpt lat="47.78442" lon="6.47394">
        <ele>395.30675220997</ele>
        <time>2021-08-21T09:55:39Z</time>
      </trkpt>
      <trkpt lat="47.78454" lon="6.47397">
        <ele>395.39366135135</ele>
        <time>2021-08-21T09:55:41Z</time>
      </trkpt>
      <trkpt lat="47.78466" lon="6.474">
        <ele>395.49852033309</ele>
        <time>2021-08-21T09:55:43Z</time>
      </trkpt>
      <trkpt lat="47.78478" lon="6.47403">
        <ele>395.64967680798</ele>
        <time>2021-08-21T09:55:45Z</time>
      </trkpt>
      <trkpt lat="47.78491" lon="6.47407">
        <ele>395.80256360844</ele>
        <time>2021-08-21T09:55:47Z</time>
      </trkpt>
      <trkpt lat="47.78503" lon="6.47411">
        <ele>395.90192976849</ele>
        <time>2021-08-21T09:55:49Z</time>
      </trkpt>
      <trkpt lat="47.78515" lon="6.47415">
        <ele>395.99403116273</ele>
        <time>2021-08-21T09:55:51Z</time>
      </trkpt>
      <trkpt lat="47.78527" lon="6.4742">
        <ele>396.07155673253</ele>
        <time>2021-08-21T09:55:53Z</time>
      </trkpt>
      <trkpt lat="47.7854" lon="6.47424">
        <ele>396.20490526015</ele>
        <time>2021-08-21T09:55:55Z</time>
      </trkpt>
      <trkpt lat="47.78552" lon="6.47427">
        <ele>396.38560962445</ele>
        <time>2021-08-21T09:55:57Z</time>
      </trkpt>
      <trkpt lat="47.78565" lon="6.47432">
        <ele>396.55722200462</ele>
        <time>2021-08-21T09:55:59Z</time>
      </trkpt>
      <trkpt lat="47.78577" lon="6.47435">
        <ele>396.73387581453</ele>
        <time>2021-08-21T09:56:01Z</time>
      </trkpt>
      <trkpt lat="47.7859" lon="6.47439">
        <ele>396.87498338057</ele>
        <time>2021-08-21T09:56:03Z</time>
      </trkpt>
      <trkpt lat="47.78602" lon="6.47444">
        <ele>397.01745346079</ele>
        <time>2021-08-21T09:56:05Z</time>
      </trkpt>
      <trkpt lat="47.78615" lon="6.47447">
        <ele>397.18153244601</ele>
        <time>2021-08-21T09:56:07Z</time>
      </trkpt>
      <trkpt lat="47.78628" lon="6.47451">
        <ele>397.4205009653</ele>
        <time>2021-08-21T09:56:09Z</time>
      </trkpt>
      <trkpt lat="47.7864" lon="6.47454">
        <ele>397.57900024566</ele>
        <time>2021-08-21T09:56:11Z</time>
      </trkpt>
      <trkpt lat="47.78653" lon="6.47458">
        <ele>397.76021032445</ele>
        <time>2021-08-21T09:56:13Z</time>
      </trkpt>
      <trkpt lat="47.78665" lon="6.47462">
        <ele>397.96877530764</ele>
        <time>2021-08-21T09:56:15Z</time>
      </trkpt>
      <trkpt lat="47.78677" lon="6.47466">
        <ele>398.14410211373</ele>
        <time>2021-08-21T09:56:17Z</time>
      </trkpt>
      <trkpt lat="47.78689" lon="6.47471">
        <ele>398.35519292499</ele>
        <time>2021-08-21T09:56:19Z</time>
      </trkpt>
      <trkpt lat="47.787" lon="6.47476">
        <ele>398.59717070985</ele>
        <time>2021-08-21T09:56:21Z</time>
      </trkpt>
      <trkpt lat="47.78711" lon="6.4748">
        <ele>398.78753257018</ele>
        <time>2021-08-21T09:56:23Z</time>
      </trkpt>
      <trkpt lat="47.78722" lon="6.47485">
        <ele>398.96243814887</ele>
        <time>2021-08-21T09:56:25Z</time>
      </trkpt>
      <trkpt lat="47.78732" lon="6.4749">
        <ele>399.20011925658</ele>
        <time>2021-08-21T09:56:27Z</time>
      </trkpt>
      <trkpt lat="47.78741" lon="6.47495">
        <ele>399.44825081219</ele>
        <time>2021-08-21T09:56:29Z</time>
      </trkpt>
      <trkpt lat="47.7875" lon="6.47499">
        <ele>399.67922075357</ele>
        <time>2021-08-21T09:56:31Z</time>
      </trkpt>
      <trkpt lat="47.78759" lon="6.47504">
        <ele>399.86365004871</ele>
        <time>2021-08-21T09:56:33Z</time>
      </trkpt>
      <trkpt lat="47.78769" lon="6.47509">
        <ele>400.00238489821</ele>
        <time>2021-08-21T09:56:35Z</time>
      </trkpt>
      <trkpt lat="47.78779" lon="6.47514">
        <ele>400.09628981651</ele>
        <time>2021-08-21T09:56:37Z</time>
      </trkpt>
      <trkpt lat="47.78789" lon="6.47519">
        <ele>400.0858312787</ele>
        <time>2021-08-21T09:56:39Z</time>
      </trkpt>
      <trkpt lat="47.78799" lon="6.47524">
        <ele>400.24989731377</ele>
        <time>2021-08-21T09:56:41Z</time>
      </trkpt>
      <trkpt lat="47.78809" lon="6.4753">
        <ele>400.46395821031</ele>
        <time>2021-08-21T09:56:43Z</time>
      </trkpt>
      <trkpt lat="47.78819" lon="6.47535">
        <ele>400.67686278322</ele>
        <time>2021-08-21T09:56:45Z</time>
      </trkpt>
      <trkpt lat="47.78829" lon="6.4754">
        <ele>400.95027499779</ele>
        <time>2021-08-21T09:56:47Z</time>
      </trkpt>
      <trkpt lat="47.78838" lon="6.47545">
        <ele>401.27042238647</ele>
        <time>2021-08-21T09:56:49Z</time>
      </trkpt>
      <trkpt lat="47.78848" lon="6.47551">
        <ele>401.54650469056</ele>
        <time>2021-08-21T09:56:51Z</time>
      </trkpt>
      <trkpt lat="47.78857" lon="6.47558">
        <ele>401.79763005869</ele>
        <time>2021-08-21T09:56:53Z</time>
      </trkpt>
      <trkpt lat="47.78866" lon="6.47565">
        <ele>402.00362074891</ele>
        <time>2021-08-21T09:56:55Z</time>
      </trkpt>
      <trkpt lat="47.78876" lon="6.47573">
        <ele>402.19258546968</ele>
        <time>2021-08-21T09:56:57Z</time>
      </trkpt>
      <trkpt lat="47.78884" lon="6.4758">
        <ele>402.38548289062</ele>
        <time>2021-08-21T09:56:59Z</time>
      </trkpt>
      <trkpt lat="47.78891" lon="6.47586">
        <ele>402.57620866186</ele>
        <time>2021-08-21T09:57:01Z</time>
      </trkpt>
      <trkpt lat="47.78898" lon="6.47592">
        <ele>402.76563286991</ele>
        <time>2021-08-21T09:57:03Z</time>
      </trkpt>
      <trkpt lat="47.78906" lon="6.47597">
        <ele>402.86629565432</ele>
        <time>2021-08-21T09:57:05Z</time>
      </trkpt>
      <trkpt lat="47.78911" lon="6.47601">
        <ele>402.89046543352</ele>
        <time>2021-08-21T09:57:07Z</time>
      </trkpt>
      <trkpt lat="47.78918" lon="6.47605">
        <ele>402.92217295252</ele>
        <time>2021-08-21T09:57:09Z</time>
      </trkpt>
      <trkpt lat="47.78925" lon="6.4761">
        <ele>402.96192530522</ele>
        <time>2021-08-21T09:57:11Z</time>
      </trkpt>
      <trkpt lat="47.78933" lon="6.47615">
        <ele>403.01147565883</ele>
        <time>2021-08-21T09:57:13Z</time>
      </trkpt>
      <trkpt lat="47.78941" lon="6.4762">
        <ele>403.07145049517</ele>
        <time>2021-08-21T09:57:15Z</time>
      </trkpt>
      <trkpt lat="47.78949" lon="6.47625">
        <ele>403.14000682553</ele>
        <time>2021-08-21T09:57:17Z</time>
      </trkpt>
      <trkpt lat="47.78953" lon="6.47628">
        <ele>403.21647065909</ele>
        <time>2021-08-21T09:57:19Z</time>
      </trkpt>
      <trkpt lat="47.78961" lon="6.47631">
        <ele>403.30026378178</ele>
        <time>2021-08-21T09:57:21Z</time>
      </trkpt>
      <trkpt lat="47.78968" lon="6.47635">
        <ele>403.39259980666</ele>
        <time>2021-08-21T09:57:23Z</time>
      </trkpt>
      <trkpt lat="47.78975" lon="6.47637">
        <ele>403.49190747719</ele>
        <time>2021-08-21T09:57:25Z</time>
      </trkpt>
      <trkpt lat="47.7898" lon="6.47639">
        <ele>403.59646634388</ele>
        <time>2021-08-21T09:57:27Z</time>
      </trkpt>
      <trkpt lat="47.78984" lon="6.4764">
        <ele>403.70406128091</ele>
        <time>2021-08-21T09:57:29Z</time>
      </trkpt>
      <trkpt lat="47.78992" lon="6.47641">
        <ele>403.81621668205</ele>
        <time>2021-08-21T09:57:31Z</time>
      </trkpt>
      <trkpt lat="47.78999" lon="6.47644">
        <ele>403.93446389691</ele>
        <time>2021-08-21T09:57:33Z</time>
      </trkpt>
      <trkpt lat="47.79007" lon="6.47645">
        <ele>404.05942452326</ele>
        <time>2021-08-21T09:57:35Z</time>
      </trkpt>
      <trkpt lat="47.79016" lon="6.47649">
        <ele>404.18979713736</ele>
        <time>2021-08-21T09:57:37Z</time>
      </trkpt>
      <trkpt lat="47.79022" lon="6.4765">
        <ele>404.32470149744</ele>
        <time>2021-08-21T09:57:39Z</time>
      </trkpt>
      <trkpt lat="47.79028" lon="6.47652">
        <ele>404.4642482686</ele>
        <time>2021-08-21T09:57:41Z</time>
      </trkpt>
      <trkpt lat="47.79035" lon="6.47654">
        <ele>404.60800492861</ele>
        <time>2021-08-21T09:57:43Z</time>
      </trkpt>
      <trkpt lat="47.79042" lon="6.47657">
        <ele>404.7553168174</ele>
        <time>2021-08-21T09:57:45Z</time>
      </trkpt>
      <trkpt lat="47.79049" lon="6.47659">
        <ele>404.90509329633</ele>
        <time>2021-08-21T09:57:47Z</time>
      </trkpt>
      <trkpt lat="47.79055" lon="6.47661">
        <ele>405.0594165769</ele>
        <time>2021-08-21T09:57:49Z</time>
      </trkpt>
      <trkpt lat="47.79062" lon="6.47664">
        <ele>405.21722791086</ele>
        <time>2021-08-21T09:57:51Z</time>
      </trkpt>
      <trkpt lat="47.79066" lon="6.47665">
        <ele>405.37864155796</ele>
        <time>2021-08-21T09:57:53Z</time>
      </trkpt>
      <trkpt lat="47.79071" lon="6.47667">
        <ele>405.53898125651</ele>
        <time>2021-08-21T09:57:55Z</time>
      </trkpt>
      <trkpt lat="47.79075" lon="6.47667">
        <ele>405.69932344349</ele>
        <time>2021-08-21T09:57:57Z</time>
      </trkpt>
      <trkpt lat="47.79081" lon="6.47667">
        <ele>405.86157082674</ele>
        <time>2021-08-21T09:57:59Z</time>
      </trkpt>
      <trkpt lat="47.79087" lon="6.47667">
        <ele>406.02464283164</ele>
        <time>2021-08-21T09:58:01Z</time>
      </trkpt>
      <trkpt lat="47.79096" lon="6.47668">
        <ele>406.18941454406</ele>
        <time>2021-08-21T09:58:03Z</time>
      </trkpt>
      <trkpt lat="47.79104" lon="6.4767">
        <ele>406.35686742208</ele>
        <time>2021-08-21T09:58:05Z</time>
      </trkpt>
      <trkpt lat="47.79108" lon="6.47671">
        <ele>406.52321848553</ele>
        <time>2021-08-21T09:58:07Z</time>
      </trkpt>
      <trkpt lat="47.79113" lon="6.47674">
        <ele>406.68905212107</ele>
        <time>2021-08-21T09:58:09Z</time>
      </trkpt>
      <trkpt lat="47.79117" lon="6.47677">
        <ele>406.85575247612</ele>
        <time>2021-08-21T09:58:11Z</time>
      </trkpt>
      <trkpt lat="47.79123" lon="6.47682">
        <ele>407.02447146282</ele>
        <time>2021-08-21T09:58:13Z</time>
      </trkpt>
      <trkpt lat="47.79129" lon="6.47691">
        <ele>407.19412630056</ele>
        <time>2021-08-21T09:58:15Z</time>
      </trkpt>
      <trkpt lat="47.79137" lon="6.47698">
        <ele>408.14714997738</ele>
        <time>2021-08-21T09:58:17Z</time>
      </trkpt>
      <trkpt lat="47.79143" lon="6.47708">
        <ele>409.44383644736</ele>
        <time>2021-08-21T09:58:19Z</time>
      </trkpt>
      <trkpt lat="47.7915" lon="6.47717">
        <ele>410.34695745258</ele>
        <time>2021-08-21T09:58:21Z</time>
      </trkpt>
      <trkpt lat="47.79157" lon="6.47726">
        <ele>410.99558506775</ele>
        <time>2021-08-21T09:58:23Z</time>
      </trkpt>
      <trkpt lat="47.79163" lon="6.47735">
        <ele>411.47220222885</ele>
        <time>2021-08-21T09:58:25Z</time>
      </trkpt>
      <trkpt lat="47.79169" lon="6.47743">
        <ele>411.85020482195</ele>
        <time>2021-08-21T09:58:27Z</time>
      </trkpt>
      <trkpt lat="47.79175" lon="6.47752">
        <ele>412.15809552551</ele>
        <time>2021-08-21T09:58:29Z</time>
      </trkpt>
      <trkpt lat="47.79181" lon="6.47761">
        <ele>412.40649186961</ele>
        <time>2021-08-21T09:58:31Z</time>
      </trkpt>
      <trkpt lat="47.79187" lon="6.4777">
        <ele>412.62580191778</ele>
        <time>2021-08-21T09:58:33Z</time>
      </trkpt>
      <trkpt lat="47.79193" lon="6.47779">
        <ele>412.85593220135</ele>
        <time>2021-08-21T09:58:35Z</time>
      </trkpt>
      <trkpt lat="47.79199" lon="6.47789">
        <ele>413.10267697924</ele>
        <time>2021-08-21T09:58:37Z</time>
      </trkpt>
      <trkpt lat="47.79204" lon="6.47802">
        <ele>413.34667527346</ele>
        <time>2021-08-21T09:58:39Z</time>
      </trkpt>
      <trkpt lat="47.7921" lon="6.47816">
        <ele>413.58003791589</ele>
        <time>2021-08-21T09:58:41Z</time>
      </trkpt>
      <trkpt lat="47.79217" lon="6.4783">
        <ele>413.81224677641</ele>
        <time>2021-08-21T09:58:43Z</time>
      </trkpt>
      <trkpt lat="47.79224" lon="6.47844">
        <ele>414.0460900748</ele>
        <time>2021-08-21T09:58:45Z</time>
      </trkpt>
      <trkpt lat="47.79232" lon="6.47856">
        <ele>414.29427589078</ele>
        <time>2021-08-21T09:58:47Z</time>
      </trkpt>
      <trkpt lat="47.79241" lon="6.47868">
        <ele>414.54583580247</ele>
        <time>2021-08-21T09:58:49Z</time>
      </trkpt>
      <trkpt lat="47.79252" lon="6.47878">
        <ele>414.79529580233</ele>
        <time>2021-08-21T09:58:51Z</time>
      </trkpt>
      <trkpt lat="47.79261" lon="6.47888">
        <ele>415.03080613993</ele>
        <time>2021-08-21T09:58:53Z</time>
      </trkpt>
      <trkpt lat="47.79269" lon="6.47898">
        <ele>415.24283749094</ele>
        <time>2021-08-21T09:58:55Z</time>
      </trkpt>
      <trkpt lat="47.79277" lon="6.47907">
        <ele>415.43464670552</ele>
        <time>2021-08-21T09:58:57Z</time>
      </trkpt>
      <trkpt lat="47.79285" lon="6.47916">
        <ele>415.61506439804</ele>
        <time>2021-08-21T09:58:59Z</time>
      </trkpt>
      <trkpt lat="47.79292" lon="6.47925">
        <ele>415.80569829648</ele>
        <time>2021-08-21T09:59:01Z</time>
      </trkpt>
      <trkpt lat="47.79299" lon="6.47933">
        <ele>415.99565946583</ele>
        <time>2021-08-21T09:59:03Z</time>
      </trkpt>
      <trkpt lat="47.79305" lon="6.47941">
        <ele>416.19078833816</ele>
        <time>2021-08-21T09:59:05Z</time>
      </trkpt>
      <trkpt lat="47.79313" lon="6.4795">
        <ele>416.37632357557</ele>
        <time>2021-08-21T09:59:07Z</time>
      </trkpt>
      <trkpt lat="47.7932" lon="6.47959">
        <ele>416.55341693523</ele>
        <time>2021-08-21T09:59:09Z</time>
      </trkpt>
      <trkpt lat="47.79327" lon="6.47967">
        <ele>416.71861921881</ele>
        <time>2021-08-21T09:59:11Z</time>
      </trkpt>
      <trkpt lat="47.79334" lon="6.47977">
        <ele>416.87250675701</ele>
        <time>2021-08-21T09:59:13Z</time>
      </trkpt>
      <trkpt lat="47.79341" lon="6.47987">
        <ele>417.01827974332</ele>
        <time>2021-08-21T09:59:15Z</time>
      </trkpt>
      <trkpt lat="47.79349" lon="6.48">
        <ele>417.16396098851</ele>
        <time>2021-08-21T09:59:17Z</time>
      </trkpt>
      <trkpt lat="47.79358" lon="6.48012">
        <ele>417.29656153257</ele>
        <time>2021-08-21T09:59:19Z</time>
      </trkpt>
      <trkpt lat="47.79366" lon="6.48022">
        <ele>417.45934242503</ele>
        <time>2021-08-21T09:59:21Z</time>
      </trkpt>
      <trkpt lat="47.79375" lon="6.48033">
        <ele>417.61947025567</ele>
        <time>2021-08-21T09:59:23Z</time>
      </trkpt>
      <trkpt lat="47.79385" lon="6.48044">
        <ele>417.79863969432</ele>
        <time>2021-08-21T09:59:25Z</time>
      </trkpt>
      <trkpt lat="47.79397" lon="6.48055">
        <ele>418.01087510421</ele>
        <time>2021-08-21T09:59:27Z</time>
      </trkpt>
      <trkpt lat="47.79408" lon="6.48067">
        <ele>418.27604525039</ele>
        <time>2021-08-21T09:59:29Z</time>
      </trkpt>
      <trkpt lat="47.7942" lon="6.48079">
        <ele>418.58348584978</ele>
        <time>2021-08-21T09:59:31Z</time>
      </trkpt>
      <trkpt lat="47.79431" lon="6.48089">
        <ele>418.87578414659</ele>
        <time>2021-08-21T09:59:33Z</time>
      </trkpt>
      <trkpt lat="47.79441" lon="6.481">
        <ele>419.1057690093</ele>
        <time>2021-08-21T09:59:35Z</time>
      </trkpt>
      <trkpt lat="47.79452" lon="6.4811">
        <ele>419.43654533151</ele>
        <time>2021-08-21T09:59:37Z</time>
      </trkpt>
      <trkpt lat="47.79464" lon="6.48121">
        <ele>419.95273348045</ele>
        <time>2021-08-21T09:59:39Z</time>
      </trkpt>
      <trkpt lat="47.79475" lon="6.48133">
        <ele>420.47534770261</ele>
        <time>2021-08-21T09:59:41Z</time>
      </trkpt>
      <trkpt lat="47.79486" lon="6.48145">
        <ele>420.99325875687</ele>
        <time>2021-08-21T09:59:43Z</time>
      </trkpt>
      <trkpt lat="47.79496" lon="6.48156">
        <ele>421.43485704111</ele>
        <time>2021-08-21T09:59:45Z</time>
      </trkpt>
      <trkpt lat="47.79506" lon="6.48167">
        <ele>421.8917397953</ele>
        <time>2021-08-21T09:59:47Z</time>
      </trkpt>
      <trkpt lat="47.79516" lon="6.48176">
        <ele>422.28698674927</ele>
        <time>2021-08-21T09:59:49Z</time>
      </trkpt>
      <trkpt lat="47.79526" lon="6.48186">
        <ele>422.60442218983</ele>
        <time>2021-08-21T09:59:51Z</time>
      </trkpt>
      <trkpt lat="47.79535" lon="6.48195">
        <ele>422.9060206148</ele>
        <time>2021-08-21T09:59:53Z</time>
      </trkpt>
      <trkpt lat="47.79543" lon="6.48203">
        <ele>423.15050097294</ele>
        <time>2021-08-21T09:59:55Z</time>
      </trkpt>
      <trkpt lat="47.7955" lon="6.48211">
        <ele>423.29581799276</ele>
        <time>2021-08-21T09:59:57Z</time>
      </trkpt>
      <trkpt lat="47.79558" lon="6.48219">
        <ele>423.41685092835</ele>
        <time>2021-08-21T09:59:59Z</time>
      </trkpt>
      <trkpt lat="47.79565" lon="6.48226">
        <ele>423.51380348964</ele>
        <time>2021-08-21T10:00:01Z</time>
      </trkpt>
      <trkpt lat="47.79572" lon="6.48233">
        <ele>423.48183394391</ele>
        <time>2021-08-21T10:00:03Z</time>
      </trkpt>
      <trkpt lat="47.79579" lon="6.4824">
        <ele>423.58755066565</ele>
        <time>2021-08-21T10:00:05Z</time>
      </trkpt>
      <trkpt lat="47.79586" lon="6.48246">
        <ele>423.74167168494</ele>
        <time>2021-08-21T10:00:07Z</time>
      </trkpt>
      <trkpt lat="47.79593" lon="6.48253">
        <ele>423.92396905795</ele>
        <time>2021-08-21T10:00:09Z</time>
      </trkpt>
      <trkpt lat="47.796" lon="6.4826">
        <ele>424.15103396248</ele>
        <time>2021-08-21T10:00:11Z</time>
      </trkpt>
      <trkpt lat="47.79609" lon="6.48267">
        <ele>424.36477068546</ele>
        <time>2021-08-21T10:00:13Z</time>
      </trkpt>
      <trkpt lat="47.79618" lon="6.48275">
        <ele>424.60679164002</ele>
        <time>2021-08-21T10:00:15Z</time>
      </trkpt>
      <trkpt lat="47.79627" lon="6.48283">
        <ele>424.89941557529</ele>
        <time>2021-08-21T10:00:17Z</time>
      </trkpt>
      <trkpt lat="47.79635" lon="6.4829">
        <ele>425.08672656695</ele>
        <time>2021-08-21T10:00:19Z</time>
      </trkpt>
      <trkpt lat="47.79644" lon="6.48299">
        <ele>425.14587187794</ele>
        <time>2021-08-21T10:00:21Z</time>
      </trkpt>
      <trkpt lat="47.79652" lon="6.48309">
        <ele>425.24568630155</ele>
        <time>2021-08-21T10:00:23Z</time>
      </trkpt>
      <trkpt lat="47.79661" lon="6.48319">
        <ele>425.37445972206</ele>
        <time>2021-08-21T10:00:25Z</time>
      </trkpt>
      <trkpt lat="47.7967" lon="6.48332">
        <ele>425.46206555569</ele>
        <time>2021-08-21T10:00:27Z</time>
      </trkpt>
      <trkpt lat="47.79677" lon="6.48347">
        <ele>425.56077344355</ele>
        <time>2021-08-21T10:00:29Z</time>
      </trkpt>
      <trkpt lat="47.79686" lon="6.48363">
        <ele>425.70159825832</ele>
        <time>2021-08-21T10:00:31Z</time>
      </trkpt>
      <trkpt lat="47.79695" lon="6.48381">
        <ele>425.79858101698</ele>
        <time>2021-08-21T10:00:33Z</time>
      </trkpt>
      <trkpt lat="47.79703" lon="6.48398">
        <ele>425.83973820764</ele>
        <time>2021-08-21T10:00:35Z</time>
      </trkpt>
      <trkpt lat="47.79711" lon="6.48414">
        <ele>425.8545368297</ele>
        <time>2021-08-21T10:00:37Z</time>
      </trkpt>
      <trkpt lat="47.79717" lon="6.48429">
        <ele>425.93896655681</ele>
        <time>2021-08-21T10:00:39Z</time>
      </trkpt>
      <trkpt lat="47.79722" lon="6.48443">
        <ele>426.12645608593</ele>
        <time>2021-08-21T10:00:41Z</time>
      </trkpt>
      <trkpt lat="47.79726" lon="6.48453">
        <ele>426.37751058822</ele>
        <time>2021-08-21T10:00:43Z</time>
      </trkpt>
      <trkpt lat="47.79728" lon="6.48461">
        <ele>426.42770749661</ele>
        <time>2021-08-21T10:00:45Z</time>
      </trkpt>
      <trkpt lat="47.79729" lon="6.48464">
        <ele>426.48780259379</ele>
        <time>2021-08-21T10:00:47Z</time>
      </trkpt>
      <trkpt lat="47.79729" lon="6.48466">
        <ele>426.5476069759</ele>
        <time>2021-08-21T10:00:49Z</time>
      </trkpt>
      <trkpt lat="47.79729" lon="6.48466">
        <ele>426.55416747531</ele>
        <time>2021-08-21T10:00:51Z</time>
      </trkpt>
      <trkpt lat="47.79729" lon="6.48466">
        <ele>426.56414931221</ele>
        <time>2021-08-21T10:00:53Z</time>
      </trkpt>
      <trkpt lat="47.79729" lon="6.48466">
        <ele>426.57582463709</ele>
        <time>2021-08-21T10:00:55Z</time>
      </trkpt>
      <trkpt lat="47.79729" lon="6.48466">
        <ele>426.58841694971</ele>
        <time>2021-08-21T10:00:57Z</time>
      </trkpt>
      <trkpt lat="47.79729" lon="6.48466">
        <ele>426.6018253779</ele>
        <time>2021-08-21T10:00:59Z</time>
      </trkpt>
      <trkpt lat="47.79729" lon="6.48466">
        <ele>426.61584920266</ele>
        <time>2021-08-21T10:01:01Z</time>
      </trkpt>
      <trkpt lat="47.79729" lon="6.48466">
        <ele>426.63036036328</ele>
        <time>2021-08-21T10:01:03Z</time>
      </trkpt>
      <trkpt lat="47.79729" lon="6.48466">
        <ele>426.64530009378</ele>
        <time>2021-08-21T10:01:05Z</time>
      </trkpt>
      <trkpt lat="47.79729" lon="6.48466">
        <ele>426.72827692896</ele>
        <time>2021-08-21T10:01:07Z</time>
      </trkpt>
      <trkpt lat="47.79729" lon="6.48466">
        <ele>426.87578456153</ele>
        <time>2021-08-21T10:01:09Z</time>
      </trkpt>
      <trkpt lat="47.79731" lon="6.48467">
        <ele>427.01504130992</ele>
        <time>2021-08-21T10:01:11Z</time>
      </trkpt>
      <trkpt lat="47.79734" lon="6.48462">
        <ele>427.14950764207</ele>
        <time>2021-08-21T10:01:13Z</time>
      </trkpt>
      <trkpt lat="47.79737" lon="6.48453">
        <ele>427.27785563561</ele>
        <time>2021-08-21T10:01:15Z</time>
      </trkpt>
      <trkpt lat="47.79742" lon="6.48444">
        <ele>428.43726645848</ele>
        <time>2021-08-21T10:01:17Z</time>
      </trkpt>
      <trkpt lat="47.79747" lon="6.48433">
        <ele>429.1838403056</ele>
        <time>2021-08-21T10:01:19Z</time>
      </trkpt>
      <trkpt lat="47.79755" lon="6.4842">
        <ele>429.66339924508</ele>
        <time>2021-08-21T10:01:21Z</time>
      </trkpt>
      <trkpt lat="47.79764" lon="6.48408">
        <ele>429.98006281481</ele>
        <time>2021-08-21T10:01:23Z</time>
      </trkpt>
      <trkpt lat="47.79772" lon="6.48393">
        <ele>430.17928349695</ele>
        <time>2021-08-21T10:01:25Z</time>
      </trkpt>
      <trkpt lat="47.79779" lon="6.48377">
        <ele>430.32069283345</ele>
        <time>2021-08-21T10:01:27Z</time>
      </trkpt>
      <trkpt lat="47.79785" lon="6.4836">
        <ele>430.42242253406</ele>
        <time>2021-08-21T10:01:29Z</time>
      </trkpt>
      <trkpt lat="47.7979" lon="6.48346">
        <ele>430.46830531921</ele>
        <time>2021-08-21T10:01:31Z</time>
      </trkpt>
      <trkpt lat="47.79795" lon="6.48338">
        <ele>430.47996316176</ele>
        <time>2021-08-21T10:01:33Z</time>
      </trkpt>
      <trkpt lat="47.79802" lon="6.4834">
        <ele>430.49398592146</ele>
        <time>2021-08-21T10:01:35Z</time>
      </trkpt>
      <trkpt lat="47.79809" lon="6.48346">
        <ele>430.5198114473</ele>
        <time>2021-08-21T10:01:37Z</time>
      </trkpt>
      <trkpt lat="47.79816" lon="6.48351">
        <ele>430.76340661121</ele>
        <time>2021-08-21T10:01:39Z</time>
      </trkpt>
      <trkpt lat="47.79824" lon="6.48357">
        <ele>430.89986691738</ele>
        <time>2021-08-21T10:01:41Z</time>
      </trkpt>
      <trkpt lat="47.79832" lon="6.48364">
        <ele>430.86518001209</ele>
        <time>2021-08-21T10:01:43Z</time>
      </trkpt>
      <trkpt lat="47.79841" lon="6.48372">
        <ele>430.75027829495</ele>
        <time>2021-08-21T10:01:45Z</time>
      </trkpt>
      <trkpt lat="47.7985" lon="6.48381">
        <ele>430.70227623287</ele>
        <time>2021-08-21T10:01:47Z</time>
      </trkpt>
      <trkpt lat="47.7986" lon="6.4839">
        <ele>430.70075943423</ele>
        <time>2021-08-21T10:01:49Z</time>
      </trkpt>
      <trkpt lat="47.79869" lon="6.48399">
        <ele>430.75730489226</ele>
        <time>2021-08-21T10:01:51Z</time>
      </trkpt>
      <trkpt lat="47.79877" lon="6.48407">
        <ele>430.86859703343</ele>
        <time>2021-08-21T10:01:53Z</time>
      </trkpt>
      <trkpt lat="47.79885" lon="6.48415">
        <ele>431.03082421136</ele>
        <time>2021-08-21T10:01:55Z</time>
      </trkpt>
      <trkpt lat="47.79893" lon="6.48422">
        <ele>431.22020507652</ele>
        <time>2021-08-21T10:01:57Z</time>
      </trkpt>
      <trkpt lat="47.79902" lon="6.4843">
        <ele>431.30886705043</ele>
        <time>2021-08-21T10:01:59Z</time>
      </trkpt>
      <trkpt lat="47.79911" lon="6.48438">
        <ele>431.44895393145</ele>
        <time>2021-08-21T10:02:01Z</time>
      </trkpt>
      <trkpt lat="47.79919" lon="6.48445">
        <ele>431.5765868508</ele>
        <time>2021-08-21T10:02:03Z</time>
      </trkpt>
      <trkpt lat="47.79928" lon="6.48453">
        <ele>431.684168047</ele>
        <time>2021-08-21T10:02:05Z</time>
      </trkpt>
      <trkpt lat="47.79937" lon="6.48461">
        <ele>431.77336692528</ele>
        <time>2021-08-21T10:02:07Z</time>
      </trkpt>
      <trkpt lat="47.79946" lon="6.48468">
        <ele>431.83542015583</ele>
        <time>2021-08-21T10:02:09Z</time>
      </trkpt>
      <trkpt lat="47.79955" lon="6.48476">
        <ele>431.8879647278</ele>
        <time>2021-08-21T10:02:11Z</time>
      </trkpt>
      <trkpt lat="47.79963" lon="6.48484">
        <ele>432.0171450447</ele>
        <time>2021-08-21T10:02:13Z</time>
      </trkpt>
      <trkpt lat="47.79971" lon="6.4849">
        <ele>432.19483238803</ele>
        <time>2021-08-21T10:02:15Z</time>
      </trkpt>
      <trkpt lat="47.79978" lon="6.48496">
        <ele>432.38473926036</ele>
        <time>2021-08-21T10:02:17Z</time>
      </trkpt>
      <trkpt lat="47.79986" lon="6.48501">
        <ele>432.52394408458</ele>
        <time>2021-08-21T10:02:19Z</time>
      </trkpt>
      <trkpt lat="47.79993" lon="6.48506">
        <ele>432.66998830956</ele>
        <time>2021-08-21T10:02:21Z</time>
      </trkpt>
      <trkpt lat="47.8" lon="6.48511">
        <ele>432.77322792686</ele>
        <time>2021-08-21T10:02:23Z</time>
      </trkpt>
      <trkpt lat="47.80008" lon="6.48515">
        <ele>432.9691163664</ele>
        <time>2021-08-21T10:02:25Z</time>
      </trkpt>
      <trkpt lat="47.80015" lon="6.4852">
        <ele>433.17346465907</ele>
        <time>2021-08-21T10:02:27Z</time>
      </trkpt>
      <trkpt lat="47.80023" lon="6.48525">
        <ele>433.36983570966</ele>
        <time>2021-08-21T10:02:29Z</time>
      </trkpt>
      <trkpt lat="47.80031" lon="6.48529">
        <ele>433.39093779554</ele>
        <time>2021-08-21T10:02:31Z</time>
      </trkpt>
      <trkpt lat="47.80038" lon="6.48534">
        <ele>433.41817404552</ele>
        <time>2021-08-21T10:02:33Z</time>
      </trkpt>
      <trkpt lat="47.80046" lon="6.48537">
        <ele>433.58352782465</ele>
        <time>2021-08-21T10:02:35Z</time>
      </trkpt>
      <trkpt lat="47.80054" lon="6.48541">
        <ele>433.7396102684</ele>
        <time>2021-08-21T10:02:37Z</time>
      </trkpt>
      <trkpt lat="47.8006" lon="6.48544">
        <ele>433.76876833973</ele>
        <time>2021-08-21T10:02:39Z</time>
      </trkpt>
      <trkpt lat="47.80068" lon="6.48547">
        <ele>433.96766003825</ele>
        <time>2021-08-21T10:02:41Z</time>
      </trkpt>
      <trkpt lat="47.80077" lon="6.4855">
        <ele>434.00284034227</ele>
        <time>2021-08-21T10:02:43Z</time>
      </trkpt>
      <trkpt lat="47.80086" lon="6.48557">
        <ele>434.04629874852</ele>
        <time>2021-08-21T10:02:45Z</time>
      </trkpt>
      <trkpt lat="47.80092" lon="6.48561">
        <ele>434.09584674958</ele>
        <time>2021-08-21T10:02:47Z</time>
      </trkpt>
      <trkpt lat="47.80099" lon="6.48563">
        <ele>434.15170844186</ele>
        <time>2021-08-21T10:02:49Z</time>
      </trkpt>
      <trkpt lat="47.80105" lon="6.48566">
        <ele>434.21419610436</ele>
        <time>2021-08-21T10:02:51Z</time>
      </trkpt>
      <trkpt lat="47.80111" lon="6.48568">
        <ele>434.2816424913</ele>
        <time>2021-08-21T10:02:53Z</time>
      </trkpt>
      <trkpt lat="47.80119" lon="6.48567">
        <ele>434.35519189654</ele>
        <time>2021-08-21T10:02:55Z</time>
      </trkpt>
      <trkpt lat="47.80127" lon="6.48567">
        <ele>434.4350648507</ele>
        <time>2021-08-21T10:02:57Z</time>
      </trkpt>
      <trkpt lat="47.80133" lon="6.48563">
        <ele>434.52309603817</ele>
        <time>2021-08-21T10:02:59Z</time>
      </trkpt>
      <trkpt lat="47.8014" lon="6.48562">
        <ele>434.61721919526</ele>
        <time>2021-08-21T10:03:01Z</time>
      </trkpt>
      <trkpt lat="47.80145" lon="6.48561">
        <ele>434.71641836963</ele>
        <time>2021-08-21T10:03:03Z</time>
      </trkpt>
      <trkpt lat="47.80144" lon="6.48551">
        <ele>434.82047513948</ele>
        <time>2021-08-21T10:03:05Z</time>
      </trkpt>
      <trkpt lat="47.80152" lon="6.48549">
        <ele>435.42183890817</ele>
        <time>2021-08-21T10:03:07Z</time>
      </trkpt>
      <trkpt lat="47.80157" lon="6.48544">
        <ele>435.5146042444</ele>
        <time>2021-08-21T10:03:09Z</time>
      </trkpt>
      <trkpt lat="47.80168" lon="6.48543">
        <ele>435.613324023</ele>
        <time>2021-08-21T10:03:11Z</time>
      </trkpt>
      <trkpt lat="47.8018" lon="6.4854">
        <ele>435.71836451183</ele>
        <time>2021-08-21T10:03:13Z</time>
      </trkpt>
      <trkpt lat="47.80186" lon="6.48539">
        <ele>435.82914124408</ele>
        <time>2021-08-21T10:03:15Z</time>
      </trkpt>
      <trkpt lat="47.80195" lon="6.4854">
        <ele>435.94497359551</ele>
        <time>2021-08-21T10:03:17Z</time>
      </trkpt>
      <trkpt lat="47.80204" lon="6.48543">
        <ele>436.06569296732</ele>
        <time>2021-08-21T10:03:19Z</time>
      </trkpt>
      <trkpt lat="47.80214" lon="6.48544">
        <ele>436.74528927929</ele>
        <time>2021-08-21T10:03:21Z</time>
      </trkpt>
      <trkpt lat="47.80223" lon="6.48543">
        <ele>437.68930133397</ele>
        <time>2021-08-21T10:03:23Z</time>
      </trkpt>
      <trkpt lat="47.80231" lon="6.48541">
        <ele>437.76225821355</ele>
        <time>2021-08-21T10:03:25Z</time>
      </trkpt>
      <trkpt lat="47.80239" lon="6.48537">
        <ele>437.83973277803</ele>
        <time>2021-08-21T10:03:27Z</time>
      </trkpt>
      <trkpt lat="47.80251" lon="6.48539">
        <ele>438.55924148379</ele>
        <time>2021-08-21T10:03:29Z</time>
      </trkpt>
      <trkpt lat="47.80259" lon="6.48538">
        <ele>439.05468354213</ele>
        <time>2021-08-21T10:03:31Z</time>
      </trkpt>
      <trkpt lat="47.80269" lon="6.48538">
        <ele>439.42374980041</ele>
        <time>2021-08-21T10:03:33Z</time>
      </trkpt>
      <trkpt lat="47.80278" lon="6.48537">
        <ele>439.69257502949</ele>
        <time>2021-08-21T10:03:35Z</time>
      </trkpt>
      <trkpt lat="47.80288" lon="6.48537">
        <ele>439.90930608866</ele>
        <time>2021-08-21T10:03:37Z</time>
      </trkpt>
      <trkpt lat="47.80299" lon="6.48538">
        <ele>440.11449783404</ele>
        <time>2021-08-21T10:03:39Z</time>
      </trkpt>
      <trkpt lat="47.80309" lon="6.4854">
        <ele>440.28609293704</ele>
        <time>2021-08-21T10:03:41Z</time>
      </trkpt>
      <trkpt lat="47.8032" lon="6.48542">
        <ele>440.44405623276</ele>
        <time>2021-08-21T10:03:43Z</time>
      </trkpt>
      <trkpt lat="47.8033" lon="6.48544">
        <ele>440.5957257077</ele>
        <time>2021-08-21T10:03:45Z</time>
      </trkpt>
      <trkpt lat="47.80339" lon="6.48543">
        <ele>440.72091303603</ele>
        <time>2021-08-21T10:03:47Z</time>
      </trkpt>
      <trkpt lat="47.80348" lon="6.48536">
        <ele>440.88887224329</ele>
        <time>2021-08-21T10:03:49Z</time>
      </trkpt>
      <trkpt lat="47.80357" lon="6.4853">
        <ele>441.00035431797</ele>
        <time>2021-08-21T10:03:51Z</time>
      </trkpt>
      <trkpt lat="47.80364" lon="6.48524">
        <ele>441.02997572249</ele>
        <time>2021-08-21T10:03:53Z</time>
      </trkpt>
      <trkpt lat="47.80371" lon="6.48524">
        <ele>441.25122574327</ele>
        <time>2021-08-21T10:03:55Z</time>
      </trkpt>
      <trkpt lat="47.80383" lon="6.48527">
        <ele>441.60439882626</ele>
        <time>2021-08-21T10:03:57Z</time>
      </trkpt>
      <trkpt lat="47.80395" lon="6.48531">
        <ele>441.90970456628</ele>
        <time>2021-08-21T10:03:59Z</time>
      </trkpt>
      <trkpt lat="47.80406" lon="6.48536">
        <ele>442.16786197616</ele>
        <time>2021-08-21T10:04:01Z</time>
      </trkpt>
      <trkpt lat="47.80417" lon="6.4854">
        <ele>442.40698933704</ele>
        <time>2021-08-21T10:04:03Z</time>
      </trkpt>
      <trkpt lat="47.80426" lon="6.48545">
        <ele>442.63085878776</ele>
        <time>2021-08-21T10:04:05Z</time>
      </trkpt>
      <trkpt lat="47.80435" lon="6.48548">
        <ele>442.79966865118</ele>
        <time>2021-08-21T10:04:07Z</time>
      </trkpt>
      <trkpt lat="47.80442" lon="6.48552">
        <ele>442.87768534342</ele>
        <time>2021-08-21T10:04:09Z</time>
      </trkpt>
      <trkpt lat="47.80449" lon="6.48555">
        <ele>442.98700341699</ele>
        <time>2021-08-21T10:04:11Z</time>
      </trkpt>
      <trkpt lat="47.80457" lon="6.48559">
        <ele>442.9970138015</ele>
        <time>2021-08-21T10:04:13Z</time>
      </trkpt>
      <trkpt lat="47.80465" lon="6.48563">
        <ele>443.06257243367</ele>
        <time>2021-08-21T10:04:15Z</time>
      </trkpt>
      <trkpt lat="47.80471" lon="6.48568">
        <ele>443.07610528116</ele>
        <time>2021-08-21T10:04:17Z</time>
      </trkpt>
      <trkpt lat="47.80476" lon="6.48571">
        <ele>443.0937062139</ele>
        <time>2021-08-21T10:04:19Z</time>
      </trkpt>
      <trkpt lat="47.80484" lon="6.48579">
        <ele>443.1146825551</ele>
        <time>2021-08-21T10:04:21Z</time>
      </trkpt>
      <trkpt lat="47.80492" lon="6.48584">
        <ele>443.13954599948</ele>
        <time>2021-08-21T10:04:23Z</time>
      </trkpt>
      <trkpt lat="47.80499" lon="6.48589">
        <ele>443.16891132785</ele>
        <time>2021-08-21T10:04:25Z</time>
      </trkpt>
      <trkpt lat="47.80507" lon="6.48596">
        <ele>443.20294353385</ele>
        <time>2021-08-21T10:04:27Z</time>
      </trkpt>
      <trkpt lat="47.80515" lon="6.48603">
        <ele>443.2418740864</ele>
        <time>2021-08-21T10:04:29Z</time>
      </trkpt>
      <trkpt lat="47.80521" lon="6.48607">
        <ele>443.28438526747</ele>
        <time>2021-08-21T10:04:31Z</time>
      </trkpt>
      <trkpt lat="47.80528" lon="6.4861">
        <ele>443.32724443592</ele>
        <time>2021-08-21T10:04:33Z</time>
      </trkpt>
      <trkpt lat="47.80534" lon="6.48614">
        <ele>443.36865598358</ele>
        <time>2021-08-21T10:04:35Z</time>
      </trkpt>
      <trkpt lat="47.8054" lon="6.48617">
        <ele>443.41061610328</ele>
        <time>2021-08-21T10:04:37Z</time>
      </trkpt>
      <trkpt lat="47.80546" lon="6.48616">
        <ele>443.45508320009</ele>
        <time>2021-08-21T10:04:39Z</time>
      </trkpt>
      <trkpt lat="47.80556" lon="6.48618">
        <ele>443.87186262455</ele>
        <time>2021-08-21T10:04:41Z</time>
      </trkpt>
      <trkpt lat="47.80568" lon="6.48622">
        <ele>443.90366847877</ele>
        <time>2021-08-21T10:04:43Z</time>
      </trkpt>
      <trkpt lat="47.8058" lon="6.48628">
        <ele>444.07309754963</ele>
        <time>2021-08-21T10:04:45Z</time>
      </trkpt>
      <trkpt lat="47.80587" lon="6.48631">
        <ele>444.10193451139</ele>
        <time>2021-08-21T10:04:47Z</time>
      </trkpt>
      <trkpt lat="47.80594" lon="6.48633">
        <ele>444.13451540391</ele>
        <time>2021-08-21T10:04:49Z</time>
      </trkpt>
      <trkpt lat="47.80602" lon="6.48636">
        <ele>444.17233923092</ele>
        <time>2021-08-21T10:04:51Z</time>
      </trkpt>
      <trkpt lat="47.80611" lon="6.48641">
        <ele>444.21517783573</ele>
        <time>2021-08-21T10:04:53Z</time>
      </trkpt>
      <trkpt lat="47.80621" lon="6.48645">
        <ele>444.47106043902</ele>
        <time>2021-08-21T10:04:55Z</time>
      </trkpt>
      <trkpt lat="47.80629" lon="6.4865">
        <ele>444.51551387656</ele>
        <time>2021-08-21T10:04:57Z</time>
      </trkpt>
      <trkpt lat="47.80636" lon="6.48652">
        <ele>444.56124501905</ele>
        <time>2021-08-21T10:04:59Z</time>
      </trkpt>
      <trkpt lat="47.80644" lon="6.48653">
        <ele>444.60909041495</ele>
        <time>2021-08-21T10:05:01Z</time>
      </trkpt>
      <trkpt lat="47.80652" lon="6.48656">
        <ele>444.65938276546</ele>
        <time>2021-08-21T10:05:03Z</time>
      </trkpt>
      <trkpt lat="47.80658" lon="6.48659">
        <ele>444.71377087372</ele>
        <time>2021-08-21T10:05:05Z</time>
      </trkpt>
      <trkpt lat="47.80662" lon="6.48661">
        <ele>444.77245215156</ele>
        <time>2021-08-21T10:05:07Z</time>
      </trkpt>
      <trkpt lat="47.80668" lon="6.48662">
        <ele>444.83631516346</ele>
        <time>2021-08-21T10:05:09Z</time>
      </trkpt>
      <trkpt lat="47.80677" lon="6.48665">
        <ele>444.90666640239</ele>
        <time>2021-08-21T10:05:11Z</time>
      </trkpt>
      <trkpt lat="47.80683" lon="6.48667">
        <ele>444.97879182344</ele>
        <time>2021-08-21T10:05:13Z</time>
      </trkpt>
      <trkpt lat="47.80694" lon="6.48668">
        <ele>445.05255276848</ele>
        <time>2021-08-21T10:05:15Z</time>
      </trkpt>
      <trkpt lat="47.80704" lon="6.48671">
        <ele>445.12963768779</ele>
        <time>2021-08-21T10:05:17Z</time>
      </trkpt>
      <trkpt lat="47.80713" lon="6.48677">
        <ele>445.85689066927</ele>
        <time>2021-08-21T10:05:19Z</time>
      </trkpt>
      <trkpt lat="47.80726" lon="6.48684">
        <ele>446.37921229111</ele>
        <time>2021-08-21T10:05:21Z</time>
      </trkpt>
      <trkpt lat="47.80739" lon="6.48693">
        <ele>446.77541750009</ele>
        <time>2021-08-21T10:05:23Z</time>
      </trkpt>
      <trkpt lat="47.80747" lon="6.48702">
        <ele>447.08048924119</ele>
        <time>2021-08-21T10:05:25Z</time>
      </trkpt>
      <trkpt lat="47.80755" lon="6.4871">
        <ele>447.29458512573</ele>
        <time>2021-08-21T10:05:27Z</time>
      </trkpt>
      <trkpt lat="47.80764" lon="6.48717">
        <ele>447.46082360004</ele>
        <time>2021-08-21T10:05:29Z</time>
      </trkpt>
      <trkpt lat="47.80774" lon="6.48724">
        <ele>447.59735072508</ele>
        <time>2021-08-21T10:05:31Z</time>
      </trkpt>
      <trkpt lat="47.80784" lon="6.48733">
        <ele>447.71356483431</ele>
        <time>2021-08-21T10:05:33Z</time>
      </trkpt>
      <trkpt lat="47.80794" lon="6.48742">
        <ele>447.8036360106</ele>
        <time>2021-08-21T10:05:35Z</time>
      </trkpt>
      <trkpt lat="47.80804" lon="6.48749">
        <ele>447.88718205507</ele>
        <time>2021-08-21T10:05:37Z</time>
      </trkpt>
      <trkpt lat="47.80814" lon="6.48756">
        <ele>447.9746200883</ele>
        <time>2021-08-21T10:05:39Z</time>
      </trkpt>
      <trkpt lat="47.80827" lon="6.48765">
        <ele>448.05366961425</ele>
        <time>2021-08-21T10:05:41Z</time>
      </trkpt>
      <trkpt lat="47.80841" lon="6.48772">
        <ele>448.14871517674</ele>
        <time>2021-08-21T10:05:43Z</time>
      </trkpt>
      <trkpt lat="47.80857" lon="6.48779">
        <ele>448.22127519829</ele>
        <time>2021-08-21T10:05:45Z</time>
      </trkpt>
      <trkpt lat="47.80873" lon="6.48787">
        <ele>448.24330394741</ele>
        <time>2021-08-21T10:05:47Z</time>
      </trkpt>
      <trkpt lat="47.80889" lon="6.48798">
        <ele>448.26869472372</ele>
        <time>2021-08-21T10:05:49Z</time>
      </trkpt>
      <trkpt lat="47.80902" lon="6.48814">
        <ele>448.53270418361</ele>
        <time>2021-08-21T10:05:51Z</time>
      </trkpt>
      <trkpt lat="47.80911" lon="6.4883">
        <ele>448.58569636863</ele>
        <time>2021-08-21T10:05:53Z</time>
      </trkpt>
      <trkpt lat="47.80919" lon="6.48845">
        <ele>448.74987530002</ele>
        <time>2021-08-21T10:05:55Z</time>
      </trkpt>
      <trkpt lat="47.80929" lon="6.48857">
        <ele>448.99692210043</ele>
        <time>2021-08-21T10:05:57Z</time>
      </trkpt>
      <trkpt lat="47.80942" lon="6.48856">
        <ele>449.58596066577</ele>
        <time>2021-08-21T10:05:59Z</time>
      </trkpt>
      <trkpt lat="47.80952" lon="6.48844">
        <ele>450.15406204604</ele>
        <time>2021-08-21T10:06:01Z</time>
      </trkpt>
      <trkpt lat="47.8096" lon="6.48829">
        <ele>450.62148555981</ele>
        <time>2021-08-21T10:06:03Z</time>
      </trkpt>
      <trkpt lat="47.80969" lon="6.48813">
        <ele>450.81392559027</ele>
        <time>2021-08-21T10:06:05Z</time>
      </trkpt>
      <trkpt lat="47.80977" lon="6.48801">
        <ele>450.89858570958</ele>
        <time>2021-08-21T10:06:07Z</time>
      </trkpt>
      <trkpt lat="47.80986" lon="6.4879">
        <ele>451.08275621086</ele>
        <time>2021-08-21T10:06:09Z</time>
      </trkpt>
      <trkpt lat="47.80995" lon="6.48781">
        <ele>451.02380815308</ele>
        <time>2021-08-21T10:06:11Z</time>
      </trkpt>
      <trkpt lat="47.81005" lon="6.48773">
        <ele>451.13950075202</ele>
        <time>2021-08-21T10:06:13Z</time>
      </trkpt>
      <trkpt lat="47.81016" lon="6.48768">
        <ele>451.3846498065</ele>
        <time>2021-08-21T10:06:15Z</time>
      </trkpt>
      <trkpt lat="47.81029" lon="6.48765">
        <ele>451.12194781772</ele>
        <time>2021-08-21T10:06:17Z</time>
      </trkpt>
      <trkpt lat="47.81041" lon="6.48764">
        <ele>450.18255931501</ele>
        <time>2021-08-21T10:06:19Z</time>
      </trkpt>
      <trkpt lat="47.81054" lon="6.48762">
        <ele>449.87721352995</ele>
        <time>2021-08-21T10:06:21Z</time>
      </trkpt>
      <trkpt lat="47.81068" lon="6.48759">
        <ele>449.95784557353</ele>
        <time>2021-08-21T10:06:23Z</time>
      </trkpt>
      <trkpt lat="47.8108" lon="6.48752">
        <ele>450.30631967118</ele>
        <time>2021-08-21T10:06:25Z</time>
      </trkpt>
      <trkpt lat="47.81091" lon="6.48746">
        <ele>450.81672581168</ele>
        <time>2021-08-21T10:06:27Z</time>
      </trkpt>
      <trkpt lat="47.811" lon="6.48743">
        <ele>451.26577623179</ele>
        <time>2021-08-21T10:06:29Z</time>
      </trkpt>
      <trkpt lat="47.81108" lon="6.48739">
        <ele>451.75590173319</ele>
        <time>2021-08-21T10:06:31Z</time>
      </trkpt>
      <trkpt lat="47.81118" lon="6.48738">
        <ele>452.28783377035</ele>
        <time>2021-08-21T10:06:33Z</time>
      </trkpt>
      <trkpt lat="47.81128" lon="6.48737">
        <ele>452.81151574191</ele>
        <time>2021-08-21T10:06:35Z</time>
      </trkpt>
      <trkpt lat="47.81138" lon="6.48737">
        <ele>453.33268124314</ele>
        <time>2021-08-21T10:06:37Z</time>
      </trkpt>
      <trkpt lat="47.81146" lon="6.48738">
        <ele>453.64780167516</ele>
        <time>2021-08-21T10:06:39Z</time>
      </trkpt>
      <trkpt lat="47.81154" lon="6.48739">
        <ele>454.00214938063</ele>
        <time>2021-08-21T10:06:41Z</time>
      </trkpt>
      <trkpt lat="47.81162" lon="6.48741">
        <ele>454.220652229</ele>
        <time>2021-08-21T10:06:43Z</time>
      </trkpt>
      <trkpt lat="47.81169" lon="6.48743">
        <ele>454.42206150475</ele>
        <time>2021-08-21T10:06:45Z</time>
      </trkpt>
      <trkpt lat="47.81177" lon="6.48748">
        <ele>454.54844956985</ele>
        <time>2021-08-21T10:06:47Z</time>
      </trkpt>
      <trkpt lat="47.81186" lon="6.48754">
        <ele>454.57633242505</ele>
        <time>2021-08-21T10:06:49Z</time>
      </trkpt>
      <trkpt lat="47.81197" lon="6.48762">
        <ele>454.62090867192</ele>
        <time>2021-08-21T10:06:51Z</time>
      </trkpt>
      <trkpt lat="47.81209" lon="6.4877">
        <ele>454.6892965839</ele>
        <time>2021-08-21T10:06:53Z</time>
      </trkpt>
      <trkpt lat="47.81221" lon="6.48776">
        <ele>454.76711654972</ele>
        <time>2021-08-21T10:06:55Z</time>
      </trkpt>
      <trkpt lat="47.81234" lon="6.48784">
        <ele>454.73462892363</ele>
        <time>2021-08-21T10:06:57Z</time>
      </trkpt>
      <trkpt lat="47.81247" lon="6.48788">
        <ele>454.72289594349</ele>
        <time>2021-08-21T10:06:59Z</time>
      </trkpt>
      <trkpt lat="47.81259" lon="6.4879">
        <ele>454.73972709472</ele>
        <time>2021-08-21T10:07:01Z</time>
      </trkpt>
      <trkpt lat="47.81271" lon="6.48794">
        <ele>454.75305968244</ele>
        <time>2021-08-21T10:07:03Z</time>
      </trkpt>
      <trkpt lat="47.81283" lon="6.48795">
        <ele>454.74827439765</ele>
        <time>2021-08-21T10:07:05Z</time>
      </trkpt>
      <trkpt lat="47.81296" lon="6.48794">
        <ele>454.84458581073</ele>
        <time>2021-08-21T10:07:07Z</time>
      </trkpt>
      <trkpt lat="47.81309" lon="6.48791">
        <ele>454.98228126026</ele>
        <time>2021-08-21T10:07:09Z</time>
      </trkpt>
      <trkpt lat="47.81321" lon="6.48791">
        <ele>455.16460571668</ele>
        <time>2021-08-21T10:07:11Z</time>
      </trkpt>
      <trkpt lat="47.81334" lon="6.48791">
        <ele>455.30381657365</ele>
        <time>2021-08-21T10:07:13Z</time>
      </trkpt>
      <trkpt lat="47.81346" lon="6.48793">
        <ele>455.3980868334</ele>
        <time>2021-08-21T10:07:15Z</time>
      </trkpt>
      <trkpt lat="47.81357" lon="6.48796">
        <ele>455.72843806955</ele>
        <time>2021-08-21T10:07:17Z</time>
      </trkpt>
      <trkpt lat="47.81368" lon="6.488">
        <ele>456.26831227841</ele>
        <time>2021-08-21T10:07:19Z</time>
      </trkpt>
      <trkpt lat="47.81377" lon="6.48804">
        <ele>456.9218125553</ele>
        <time>2021-08-21T10:07:21Z</time>
      </trkpt>
      <trkpt lat="47.81387" lon="6.48808">
        <ele>457.4165560009</ele>
        <time>2021-08-21T10:07:23Z</time>
      </trkpt>
      <trkpt lat="47.81396" lon="6.48812">
        <ele>457.79115108637</ele>
        <time>2021-08-21T10:07:25Z</time>
      </trkpt>
      <trkpt lat="47.81405" lon="6.48816">
        <ele>457.8593398497</ele>
        <time>2021-08-21T10:07:27Z</time>
      </trkpt>
      <trkpt lat="47.81415" lon="6.4882">
        <ele>457.93877524165</ele>
        <time>2021-08-21T10:07:29Z</time>
      </trkpt>
      <trkpt lat="47.81424" lon="6.48823">
        <ele>457.8190492998</ele>
        <time>2021-08-21T10:07:31Z</time>
      </trkpt>
      <trkpt lat="47.81434" lon="6.48825">
        <ele>457.77284930679</ele>
        <time>2021-08-21T10:07:33Z</time>
      </trkpt>
      <trkpt lat="47.81445" lon="6.48825">
        <ele>457.80991327367</ele>
        <time>2021-08-21T10:07:35Z</time>
      </trkpt>
      <trkpt lat="47.81455" lon="6.48826">
        <ele>457.86580046282</ele>
        <time>2021-08-21T10:07:37Z</time>
      </trkpt>
      <trkpt lat="47.81465" lon="6.48826">
        <ele>457.95935325962</ele>
        <time>2021-08-21T10:07:39Z</time>
      </trkpt>
      <trkpt lat="47.81474" lon="6.48827">
        <ele>458.02843416144</ele>
        <time>2021-08-21T10:07:41Z</time>
      </trkpt>
      <trkpt lat="47.81484" lon="6.48831">
        <ele>458.14902273818</ele>
        <time>2021-08-21T10:07:43Z</time>
      </trkpt>
      <trkpt lat="47.81494" lon="6.48837">
        <ele>458.2781744413</ele>
        <time>2021-08-21T10:07:45Z</time>
      </trkpt>
      <trkpt lat="47.81503" lon="6.48845">
        <ele>458.43012053209</ele>
        <time>2021-08-21T10:07:47Z</time>
      </trkpt>
      <trkpt lat="47.81513" lon="6.48854">
        <ele>458.68344032152</ele>
        <time>2021-08-21T10:07:49Z</time>
      </trkpt>
      <trkpt lat="47.81522" lon="6.48864">
        <ele>458.98573980943</ele>
        <time>2021-08-21T10:07:51Z</time>
      </trkpt>
      <trkpt lat="47.81531" lon="6.48874">
        <ele>459.26820508856</ele>
        <time>2021-08-21T10:07:53Z</time>
      </trkpt>
      <trkpt lat="47.81539" lon="6.48882">
        <ele>459.56908651343</ele>
        <time>2021-08-21T10:07:55Z</time>
      </trkpt>
      <trkpt lat="47.81548" lon="6.48889">
        <ele>459.85585961904</ele>
        <time>2021-08-21T10:07:57Z</time>
      </trkpt>
      <trkpt lat="47.81557" lon="6.48895">
        <ele>460.21687274812</ele>
        <time>2021-08-21T10:07:59Z</time>
      </trkpt>
      <trkpt lat="47.81565" lon="6.489">
        <ele>460.49577702024</ele>
        <time>2021-08-21T10:08:01Z</time>
      </trkpt>
      <trkpt lat="47.81574" lon="6.48904">
        <ele>460.73443484758</ele>
        <time>2021-08-21T10:08:03Z</time>
      </trkpt>
      <trkpt lat="47.81583" lon="6.48906">
        <ele>460.93798888436</ele>
        <time>2021-08-21T10:08:05Z</time>
      </trkpt>
      <trkpt lat="47.81594" lon="6.48908">
        <ele>461.10958551857</ele>
        <time>2021-08-21T10:08:07Z</time>
      </trkpt>
      <trkpt lat="47.81606" lon="6.48913">
        <ele>461.24282799269</ele>
        <time>2021-08-21T10:08:09Z</time>
      </trkpt>
      <trkpt lat="47.8162" lon="6.48916">
        <ele>461.37649640903</ele>
        <time>2021-08-21T10:08:11Z</time>
      </trkpt>
      <trkpt lat="47.81635" lon="6.48918">
        <ele>461.53202851996</ele>
        <time>2021-08-21T10:08:13Z</time>
      </trkpt>
      <trkpt lat="47.81649" lon="6.48922">
        <ele>461.681744667</ele>
        <time>2021-08-21T10:08:15Z</time>
      </trkpt>
      <trkpt lat="47.81662" lon="6.48926">
        <ele>461.81132079935</ele>
        <time>2021-08-21T10:08:17Z</time>
      </trkpt>
      <trkpt lat="47.81675" lon="6.4893">
        <ele>461.90688786096</ele>
        <time>2021-08-21T10:08:19Z</time>
      </trkpt>
      <trkpt lat="47.81689" lon="6.48933">
        <ele>461.93323481776</ele>
        <time>2021-08-21T10:08:21Z</time>
      </trkpt>
      <trkpt lat="47.81704" lon="6.48937">
        <ele>462.00387524644</ele>
        <time>2021-08-21T10:08:23Z</time>
      </trkpt>
      <trkpt lat="47.81719" lon="6.4894">
        <ele>462.25285106515</ele>
        <time>2021-08-21T10:08:25Z</time>
      </trkpt>
      <trkpt lat="47.81734" lon="6.48944">
        <ele>462.56769912512</ele>
        <time>2021-08-21T10:08:27Z</time>
      </trkpt>
      <trkpt lat="47.81749" lon="6.48947">
        <ele>463.1377098979</ele>
        <time>2021-08-21T10:08:29Z</time>
      </trkpt>
      <trkpt lat="47.81762" lon="6.48952">
        <ele>463.53607963941</ele>
        <time>2021-08-21T10:08:31Z</time>
      </trkpt>
      <trkpt lat="47.81775" lon="6.48956">
        <ele>463.82602064285</ele>
        <time>2021-08-21T10:08:33Z</time>
      </trkpt>
      <trkpt lat="47.81789" lon="6.48961">
        <ele>463.97007147401</ele>
        <time>2021-08-21T10:08:35Z</time>
      </trkpt>
      <trkpt lat="47.81802" lon="6.48966">
        <ele>464.09552934098</ele>
        <time>2021-08-21T10:08:37Z</time>
      </trkpt>
      <trkpt lat="47.81815" lon="6.4897">
        <ele>464.23243459622</ele>
        <time>2021-08-21T10:08:39Z</time>
      </trkpt>
      <trkpt lat="47.81827" lon="6.48975">
        <ele>464.3771774087</ele>
        <time>2021-08-21T10:08:41Z</time>
      </trkpt>
      <trkpt lat="47.8184" lon="6.48978">
        <ele>464.50471600009</ele>
        <time>2021-08-21T10:08:43Z</time>
      </trkpt>
      <trkpt lat="47.81852" lon="6.48983">
        <ele>464.5607552489</ele>
        <time>2021-08-21T10:08:45Z</time>
      </trkpt>
      <trkpt lat="47.81865" lon="6.48987">
        <ele>464.61781069307</ele>
        <time>2021-08-21T10:08:47Z</time>
      </trkpt>
      <trkpt lat="47.81878" lon="6.48991">
        <ele>464.65171713787</ele>
        <time>2021-08-21T10:08:49Z</time>
      </trkpt>
      <trkpt lat="47.8189" lon="6.48996">
        <ele>464.62380357302</ele>
        <time>2021-08-21T10:08:51Z</time>
      </trkpt>
      <trkpt lat="47.81903" lon="6.49001">
        <ele>464.5264436037</ele>
        <time>2021-08-21T10:08:53Z</time>
      </trkpt>
      <trkpt lat="47.81915" lon="6.49006">
        <ele>464.53104124938</ele>
        <time>2021-08-21T10:08:55Z</time>
      </trkpt>
      <trkpt lat="47.81926" lon="6.4901">
        <ele>464.63352421228</ele>
        <time>2021-08-21T10:08:57Z</time>
      </trkpt>
      <trkpt lat="47.81937" lon="6.49015">
        <ele>464.72621487406</ele>
        <time>2021-08-21T10:08:59Z</time>
      </trkpt>
      <trkpt lat="47.81947" lon="6.4902">
        <ele>464.632072076</ele>
        <time>2021-08-21T10:09:01Z</time>
      </trkpt>
      <trkpt lat="47.81958" lon="6.49024">
        <ele>464.3288005709</ele>
        <time>2021-08-21T10:09:03Z</time>
      </trkpt>
      <trkpt lat="47.8197" lon="6.49031">
        <ele>463.9233524655</ele>
        <time>2021-08-21T10:09:05Z</time>
      </trkpt>
      <trkpt lat="47.81984" lon="6.49037">
        <ele>463.50800639043</ele>
        <time>2021-08-21T10:09:07Z</time>
      </trkpt>
      <trkpt lat="47.81999" lon="6.49043">
        <ele>463.1130672726</ele>
        <time>2021-08-21T10:09:09Z</time>
      </trkpt>
      <trkpt lat="47.82017" lon="6.49053">
        <ele>462.39259027745</ele>
        <time>2021-08-21T10:09:11Z</time>
      </trkpt>
      <trkpt lat="47.82035" lon="6.49066">
        <ele>461.73081717854</ele>
        <time>2021-08-21T10:09:13Z</time>
      </trkpt>
      <trkpt lat="47.82053" lon="6.49082">
        <ele>461.15314296108</ele>
        <time>2021-08-21T10:09:15Z</time>
      </trkpt>
      <trkpt lat="47.82069" lon="6.491">
        <ele>460.72144896083</ele>
        <time>2021-08-21T10:09:17Z</time>
      </trkpt>
      <trkpt lat="47.82085" lon="6.49114">
        <ele>460.3809760508</ele>
        <time>2021-08-21T10:09:19Z</time>
      </trkpt>
      <trkpt lat="47.82101" lon="6.49128">
        <ele>459.9551124939</ele>
        <time>2021-08-21T10:09:21Z</time>
      </trkpt>
      <trkpt lat="47.82118" lon="6.49141">
        <ele>459.58209258878</ele>
        <time>2021-08-21T10:09:23Z</time>
      </trkpt>
      <trkpt lat="47.82135" lon="6.49153">
        <ele>459.180898878</ele>
        <time>2021-08-21T10:09:25Z</time>
      </trkpt>
      <trkpt lat="47.82154" lon="6.49162">
        <ele>458.72300993015</ele>
        <time>2021-08-21T10:09:27Z</time>
      </trkpt>
      <trkpt lat="47.82173" lon="6.49168">
        <ele>458.29431994298</ele>
        <time>2021-08-21T10:09:29Z</time>
      </trkpt>
      <trkpt lat="47.82192" lon="6.49175">
        <ele>457.67326106649</ele>
        <time>2021-08-21T10:09:31Z</time>
      </trkpt>
      <trkpt lat="47.82212" lon="6.49185">
        <ele>457.04197928142</ele>
        <time>2021-08-21T10:09:33Z</time>
      </trkpt>
      <trkpt lat="47.82229" lon="6.49202">
        <ele>456.55728296858</ele>
        <time>2021-08-21T10:09:35Z</time>
      </trkpt>
      <trkpt lat="47.82244" lon="6.49225">
        <ele>456.148063955</ele>
        <time>2021-08-21T10:09:37Z</time>
      </trkpt>
      <trkpt lat="47.82257" lon="6.4925">
        <ele>455.90094773244</ele>
        <time>2021-08-21T10:09:39Z</time>
      </trkpt>
      <trkpt lat="47.82271" lon="6.49274">
        <ele>455.63373248537</ele>
        <time>2021-08-21T10:09:41Z</time>
      </trkpt>
      <trkpt lat="47.82285" lon="6.49298">
        <ele>455.07331039793</ele>
        <time>2021-08-21T10:09:43Z</time>
      </trkpt>
      <trkpt lat="47.823" lon="6.49316">
        <ele>454.2793346159</ele>
        <time>2021-08-21T10:09:45Z</time>
      </trkpt>
      <trkpt lat="47.82316" lon="6.49332">
        <ele>453.09446854296</ele>
        <time>2021-08-21T10:09:47Z</time>
      </trkpt>
      <trkpt lat="47.82333" lon="6.49346">
        <ele>452.23087874317</ele>
        <time>2021-08-21T10:09:49Z</time>
      </trkpt>
      <trkpt lat="47.82351" lon="6.4936">
        <ele>451.31839455742</ele>
        <time>2021-08-21T10:09:51Z</time>
      </trkpt>
      <trkpt lat="47.82367" lon="6.49373">
        <ele>450.48048823564</ele>
        <time>2021-08-21T10:09:53Z</time>
      </trkpt>
      <trkpt lat="47.82382" lon="6.49386">
        <ele>449.90731601048</ele>
        <time>2021-08-21T10:09:55Z</time>
      </trkpt>
      <trkpt lat="47.82397" lon="6.49394">
        <ele>449.32828841995</ele>
        <time>2021-08-21T10:09:57Z</time>
      </trkpt>
      <trkpt lat="47.82411" lon="6.49403">
        <ele>448.80324501938</ele>
        <time>2021-08-21T10:09:59Z</time>
      </trkpt>
      <trkpt lat="47.82425" lon="6.49414">
        <ele>448.04246686749</ele>
        <time>2021-08-21T10:10:01Z</time>
      </trkpt>
      <trkpt lat="47.82438" lon="6.49432">
        <ele>447.27408012912</ele>
        <time>2021-08-21T10:10:03Z</time>
      </trkpt>
      <trkpt lat="47.82448" lon="6.49456">
        <ele>446.58367728578</ele>
        <time>2021-08-21T10:10:05Z</time>
      </trkpt>
      <trkpt lat="47.82455" lon="6.49485">
        <ele>445.76810411988</ele>
        <time>2021-08-21T10:10:07Z</time>
      </trkpt>
      <trkpt lat="47.82462" lon="6.49515">
        <ele>445.19678337227</ele>
        <time>2021-08-21T10:10:09Z</time>
      </trkpt>
      <trkpt lat="47.82467" lon="6.49547">
        <ele>444.80636792425</ele>
        <time>2021-08-21T10:10:11Z</time>
      </trkpt>
      <trkpt lat="47.82473" lon="6.4958">
        <ele>444.41731836947</ele>
        <time>2021-08-21T10:10:13Z</time>
      </trkpt>
      <trkpt lat="47.82477" lon="6.49612">
        <ele>443.60126460704</ele>
        <time>2021-08-21T10:10:15Z</time>
      </trkpt>
      <trkpt lat="47.82479" lon="6.49641">
        <ele>441.77168320646</ele>
        <time>2021-08-21T10:10:17Z</time>
      </trkpt>
      <trkpt lat="47.82479" lon="6.49669">
        <ele>440.18246274723</ele>
        <time>2021-08-21T10:10:19Z</time>
      </trkpt>
      <trkpt lat="47.82481" lon="6.49694">
        <ele>439.01944466562</ele>
        <time>2021-08-21T10:10:21Z</time>
      </trkpt>
      <trkpt lat="47.82484" lon="6.49717">
        <ele>438.36338435884</ele>
        <time>2021-08-21T10:10:23Z</time>
      </trkpt>
      <trkpt lat="47.82487" lon="6.49738">
        <ele>437.84159629082</ele>
        <time>2021-08-21T10:10:25Z</time>
      </trkpt>
      <trkpt lat="47.8249" lon="6.49757">
        <ele>437.38982387395</ele>
        <time>2021-08-21T10:10:27Z</time>
      </trkpt>
      <trkpt lat="47.82494" lon="6.49775">
        <ele>436.64709185366</ele>
        <time>2021-08-21T10:10:29Z</time>
      </trkpt>
      <trkpt lat="47.82499" lon="6.49792">
        <ele>435.83518617213</ele>
        <time>2021-08-21T10:10:31Z</time>
      </trkpt>
      <trkpt lat="47.82503" lon="6.49809">
        <ele>435.13014935248</ele>
        <time>2021-08-21T10:10:33Z</time>
      </trkpt>
      <trkpt lat="47.82507" lon="6.49826">
        <ele>434.59988336947</ele>
        <time>2021-08-21T10:10:35Z</time>
      </trkpt>
      <trkpt lat="47.82513" lon="6.49839">
        <ele>433.63967859674</ele>
        <time>2021-08-21T10:10:37Z</time>
      </trkpt>
      <trkpt lat="47.82522" lon="6.49849">
        <ele>432.41249228415</ele>
        <time>2021-08-21T10:10:39Z</time>
      </trkpt>
      <trkpt lat="47.82532" lon="6.49854">
        <ele>431.0735153184</ele>
        <time>2021-08-21T10:10:41Z</time>
      </trkpt>
      <trkpt lat="47.82543" lon="6.49856">
        <ele>429.68833148226</ele>
        <time>2021-08-21T10:10:43Z</time>
      </trkpt>
      <trkpt lat="47.82555" lon="6.4986">
        <ele>428.4043314929</ele>
        <time>2021-08-21T10:10:45Z</time>
      </trkpt>
      <trkpt lat="47.82567" lon="6.49864">
        <ele>427.33833153433</ele>
        <time>2021-08-21T10:10:47Z</time>
      </trkpt>
      <trkpt lat="47.82579" lon="6.49867">
        <ele>426.41630480127</ele>
        <time>2021-08-21T10:10:49Z</time>
      </trkpt>
      <trkpt lat="47.8259" lon="6.49866">
        <ele>425.36810572592</ele>
        <time>2021-08-21T10:10:51Z</time>
      </trkpt>
      <trkpt lat="47.826" lon="6.49865">
        <ele>424.3526968343</ele>
        <time>2021-08-21T10:10:53Z</time>
      </trkpt>
      <trkpt lat="47.82611" lon="6.49863">
        <ele>423.60757564413</ele>
        <time>2021-08-21T10:10:55Z</time>
      </trkpt>
      <trkpt lat="47.82623" lon="6.49861">
        <ele>422.93037796431</ele>
        <time>2021-08-21T10:10:57Z</time>
      </trkpt>
      <trkpt lat="47.82635" lon="6.49863">
        <ele>422.22286535708</ele>
        <time>2021-08-21T10:10:59Z</time>
      </trkpt>
      <trkpt lat="47.82646" lon="6.49867">
        <ele>421.55094119365</ele>
        <time>2021-08-21T10:11:01Z</time>
      </trkpt>
      <trkpt lat="47.82656" lon="6.4988">
        <ele>420.86236707897</ele>
        <time>2021-08-21T10:11:03Z</time>
      </trkpt>
      <trkpt lat="47.82663" lon="6.49897">
        <ele>420.15301286756</ele>
        <time>2021-08-21T10:11:05Z</time>
      </trkpt>
      <trkpt lat="47.82668" lon="6.49917">
        <ele>419.48506259626</ele>
        <time>2021-08-21T10:11:07Z</time>
      </trkpt>
      <trkpt lat="47.82671" lon="6.49938">
        <ele>418.90870987656</ele>
        <time>2021-08-21T10:11:09Z</time>
      </trkpt>
      <trkpt lat="47.82672" lon="6.4996">
        <ele>418.20939991899</ele>
        <time>2021-08-21T10:11:11Z</time>
      </trkpt>
      <trkpt lat="47.82674" lon="6.4998">
        <ele>417.65565022274</ele>
        <time>2021-08-21T10:11:13Z</time>
      </trkpt>
      <trkpt lat="47.82676" lon="6.5">
        <ele>417.2043124013</ele>
        <time>2021-08-21T10:11:15Z</time>
      </trkpt>
      <trkpt lat="47.82679" lon="6.5002">
        <ele>416.97155951511</ele>
        <time>2021-08-21T10:11:17Z</time>
      </trkpt>
      <trkpt lat="47.82682" lon="6.5004">
        <ele>416.9592356117</ele>
        <time>2021-08-21T10:11:19Z</time>
      </trkpt>
      <trkpt lat="47.82686" lon="6.50059">
        <ele>416.53681947914</ele>
        <time>2021-08-21T10:11:21Z</time>
      </trkpt>
      <trkpt lat="47.82689" lon="6.50079">
        <ele>415.90893556759</ele>
        <time>2021-08-21T10:11:23Z</time>
      </trkpt>
      <trkpt lat="47.82692" lon="6.501">
        <ele>415.15063777609</ele>
        <time>2021-08-21T10:11:25Z</time>
      </trkpt>
      <trkpt lat="47.82697" lon="6.50121">
        <ele>414.64445155064</ele>
        <time>2021-08-21T10:11:27Z</time>
      </trkpt>
      <trkpt lat="47.82701" lon="6.50141">
        <ele>414.22038232383</ele>
        <time>2021-08-21T10:11:29Z</time>
      </trkpt>
      <trkpt lat="47.82705" lon="6.5016">
        <ele>413.81086133559</ele>
        <time>2021-08-21T10:11:31Z</time>
      </trkpt>
      <trkpt lat="47.82708" lon="6.50179">
        <ele>413.54701471522</ele>
        <time>2021-08-21T10:11:33Z</time>
      </trkpt>
      <trkpt lat="47.82711" lon="6.50197">
        <ele>413.32700336189</ele>
        <time>2021-08-21T10:11:35Z</time>
      </trkpt>
      <trkpt lat="47.82713" lon="6.50214">
        <ele>413.15587239261</ele>
        <time>2021-08-21T10:11:37Z</time>
      </trkpt>
      <trkpt lat="47.82712" lon="6.50232">
        <ele>413.15986576531</ele>
        <time>2021-08-21T10:11:39Z</time>
      </trkpt>
      <trkpt lat="47.82709" lon="6.50248">
        <ele>413.19881304528</ele>
        <time>2021-08-21T10:11:41Z</time>
      </trkpt>
      <trkpt lat="47.82706" lon="6.50264">
        <ele>413.20656552781</ele>
        <time>2021-08-21T10:11:43Z</time>
      </trkpt>
      <trkpt lat="47.82703" lon="6.50279">
        <ele>413.18650453539</ele>
        <time>2021-08-21T10:11:45Z</time>
      </trkpt>
      <trkpt lat="47.82701" lon="6.50295">
        <ele>413.16719258677</ele>
        <time>2021-08-21T10:11:47Z</time>
      </trkpt>
      <trkpt lat="47.82698" lon="6.5031">
        <ele>413.23860760001</ele>
        <time>2021-08-21T10:11:49Z</time>
      </trkpt>
      <trkpt lat="47.82696" lon="6.50325">
        <ele>413.21321222865</ele>
        <time>2021-08-21T10:11:51Z</time>
      </trkpt>
      <trkpt lat="47.82692" lon="6.5034">
        <ele>413.14026811536</ele>
        <time>2021-08-21T10:11:53Z</time>
      </trkpt>
      <trkpt lat="47.82687" lon="6.50353">
        <ele>412.80245159236</ele>
        <time>2021-08-21T10:11:55Z</time>
      </trkpt>
      <trkpt lat="47.8268" lon="6.50365">
        <ele>412.59738671793</ele>
        <time>2021-08-21T10:11:57Z</time>
      </trkpt>
      <trkpt lat="47.82672" lon="6.50375">
        <ele>412.4395407089</ele>
        <time>2021-08-21T10:11:59Z</time>
      </trkpt>
      <trkpt lat="47.82666" lon="6.50386">
        <ele>412.24961264846</ele>
        <time>2021-08-21T10:12:01Z</time>
      </trkpt>
      <trkpt lat="47.82663" lon="6.50399">
        <ele>412.20279030135</ele>
        <time>2021-08-21T10:12:03Z</time>
      </trkpt>
      <trkpt lat="47.82662" lon="6.50414">
        <ele>412.21104325517</ele>
        <time>2021-08-21T10:12:05Z</time>
      </trkpt>
      <trkpt lat="47.82662" lon="6.50428">
        <ele>412.14738387236</ele>
        <time>2021-08-21T10:12:07Z</time>
      </trkpt>
      <trkpt lat="47.82662" lon="6.50443">
        <ele>412.0910220468</ele>
        <time>2021-08-21T10:12:09Z</time>
      </trkpt>
      <trkpt lat="47.82662" lon="6.50457">
        <ele>412.08860882744</ele>
        <time>2021-08-21T10:12:11Z</time>
      </trkpt>
      <trkpt lat="47.82663" lon="6.50472">
        <ele>412.07524571377</ele>
        <time>2021-08-21T10:12:13Z</time>
      </trkpt>
      <trkpt lat="47.82663" lon="6.50488">
        <ele>412.03405285307</ele>
        <time>2021-08-21T10:12:15Z</time>
      </trkpt>
      <trkpt lat="47.82663" lon="6.50504">
        <ele>411.94602395223</ele>
        <time>2021-08-21T10:12:17Z</time>
      </trkpt>
      <trkpt lat="47.82663" lon="6.5052">
        <ele>411.89071720009</ele>
        <time>2021-08-21T10:12:19Z</time>
      </trkpt>
      <trkpt lat="47.82663" lon="6.50536">
        <ele>411.84645985438</ele>
        <time>2021-08-21T10:12:21Z</time>
      </trkpt>
      <trkpt lat="47.82663" lon="6.50551">
        <ele>411.82139763864</ele>
        <time>2021-08-21T10:12:23Z</time>
      </trkpt>
      <trkpt lat="47.82662" lon="6.50567">
        <ele>411.80598930088</ele>
        <time>2021-08-21T10:12:25Z</time>
      </trkpt>
      <trkpt lat="47.82661" lon="6.50583">
        <ele>411.7863447252</ele>
        <time>2021-08-21T10:12:27Z</time>
      </trkpt>
      <trkpt lat="47.82659" lon="6.50601">
        <ele>411.80434836496</ele>
        <time>2021-08-21T10:12:29Z</time>
      </trkpt>
      <trkpt lat="47.82656" lon="6.50617">
        <ele>411.81433121773</ele>
        <time>2021-08-21T10:12:31Z</time>
      </trkpt>
      <trkpt lat="47.82653" lon="6.50633">
        <ele>411.80801149916</ele>
        <time>2021-08-21T10:12:33Z</time>
      </trkpt>
      <trkpt lat="47.8265" lon="6.50648">
        <ele>411.81465231893</ele>
        <time>2021-08-21T10:12:35Z</time>
      </trkpt>
      <trkpt lat="47.82646" lon="6.50663">
        <ele>411.78536966264</ele>
        <time>2021-08-21T10:12:37Z</time>
      </trkpt>
      <trkpt lat="47.82643" lon="6.5068">
        <ele>411.76398760251</ele>
        <time>2021-08-21T10:12:39Z</time>
      </trkpt>
      <trkpt lat="47.8264" lon="6.50695">
        <ele>411.71113086734</ele>
        <time>2021-08-21T10:12:41Z</time>
      </trkpt>
      <trkpt lat="47.82637" lon="6.50711">
        <ele>411.6550016585</ele>
        <time>2021-08-21T10:12:43Z</time>
      </trkpt>
      <trkpt lat="47.82634" lon="6.50729">
        <ele>411.6659590002</ele>
        <time>2021-08-21T10:12:45Z</time>
      </trkpt>
      <trkpt lat="47.82632" lon="6.50748">
        <ele>411.71818043641</ele>
        <time>2021-08-21T10:12:47Z</time>
      </trkpt>
      <trkpt lat="47.8263" lon="6.50767">
        <ele>411.82521451026</ele>
        <time>2021-08-21T10:12:49Z</time>
      </trkpt>
      <trkpt lat="47.82628" lon="6.50785">
        <ele>411.97102836428</ele>
        <time>2021-08-21T10:12:51Z</time>
      </trkpt>
      <trkpt lat="47.82627" lon="6.50803">
        <ele>412.13366102953</ele>
        <time>2021-08-21T10:12:53Z</time>
      </trkpt>
      <trkpt lat="47.82625" lon="6.50821">
        <ele>412.26363170876</ele>
        <time>2021-08-21T10:12:55Z</time>
      </trkpt>
      <trkpt lat="47.82624" lon="6.5084">
        <ele>412.30071367694</ele>
        <time>2021-08-21T10:12:57Z</time>
      </trkpt>
      <trkpt lat="47.82622" lon="6.50858">
        <ele>412.25739484699</ele>
        <time>2021-08-21T10:12:59Z</time>
      </trkpt>
      <trkpt lat="47.82621" lon="6.50876">
        <ele>412.32663224965</ele>
        <time>2021-08-21T10:13:01Z</time>
      </trkpt>
      <trkpt lat="47.8262" lon="6.50895">
        <ele>412.4244300316</ele>
        <time>2021-08-21T10:13:03Z</time>
      </trkpt>
      <trkpt lat="47.82619" lon="6.50913">
        <ele>412.49969540855</ele>
        <time>2021-08-21T10:13:05Z</time>
      </trkpt>
      <trkpt lat="47.82616" lon="6.50931">
        <ele>412.52826673909</ele>
        <time>2021-08-21T10:13:07Z</time>
      </trkpt>
      <trkpt lat="47.82611" lon="6.50949">
        <ele>412.47634043984</ele>
        <time>2021-08-21T10:13:09Z</time>
      </trkpt>
      <trkpt lat="47.82606" lon="6.50965">
        <ele>412.27827790835</ele>
        <time>2021-08-21T10:13:11Z</time>
      </trkpt>
      <trkpt lat="47.82599" lon="6.50982">
        <ele>412.19850353189</ele>
        <time>2021-08-21T10:13:13Z</time>
      </trkpt>
      <trkpt lat="47.82591" lon="6.50996">
        <ele>412.09380852356</ele>
        <time>2021-08-21T10:13:15Z</time>
      </trkpt>
      <trkpt lat="47.82581" lon="6.51008">
        <ele>412.01476628334</ele>
        <time>2021-08-21T10:13:17Z</time>
      </trkpt>
      <trkpt lat="47.82571" lon="6.51018">
        <ele>411.99548555804</ele>
        <time>2021-08-21T10:13:19Z</time>
      </trkpt>
      <trkpt lat="47.82561" lon="6.51029">
        <ele>411.83255415663</ele>
        <time>2021-08-21T10:13:21Z</time>
      </trkpt>
      <trkpt lat="47.82551" lon="6.51041">
        <ele>411.75122610037</ele>
        <time>2021-08-21T10:13:23Z</time>
      </trkpt>
      <trkpt lat="47.82542" lon="6.51052">
        <ele>411.77300695738</ele>
        <time>2021-08-21T10:13:25Z</time>
      </trkpt>
      <trkpt lat="47.82537" lon="6.51066">
        <ele>411.89819570467</ele>
        <time>2021-08-21T10:13:27Z</time>
      </trkpt>
      <trkpt lat="47.82533" lon="6.51083">
        <ele>412.30723722624</ele>
        <time>2021-08-21T10:13:29Z</time>
      </trkpt>
      <trkpt lat="47.8253" lon="6.51099">
        <ele>412.65345471884</ele>
        <time>2021-08-21T10:13:31Z</time>
      </trkpt>
      <trkpt lat="47.82526" lon="6.51115">
        <ele>412.82887247685</ele>
        <time>2021-08-21T10:13:33Z</time>
      </trkpt>
      <trkpt lat="47.82523" lon="6.51131">
        <ele>413.05051055322</ele>
        <time>2021-08-21T10:13:35Z</time>
      </trkpt>
      <trkpt lat="47.8252" lon="6.51147">
        <ele>413.27337832894</ele>
        <time>2021-08-21T10:13:37Z</time>
      </trkpt>
      <trkpt lat="47.82519" lon="6.51163">
        <ele>413.47130296919</ele>
        <time>2021-08-21T10:13:39Z</time>
      </trkpt>
      <trkpt lat="47.82519" lon="6.5118">
        <ele>413.64056342454</ele>
        <time>2021-08-21T10:13:41Z</time>
      </trkpt>
      <trkpt lat="47.8252" lon="6.51196">
        <ele>413.70490565575</ele>
        <time>2021-08-21T10:13:43Z</time>
      </trkpt>
      <trkpt lat="47.82521" lon="6.51213">
        <ele>413.76045817392</ele>
        <time>2021-08-21T10:13:45Z</time>
      </trkpt>
      <trkpt lat="47.82524" lon="6.51231">
        <ele>413.80068672205</ele>
        <time>2021-08-21T10:13:47Z</time>
      </trkpt>
      <trkpt lat="47.82525" lon="6.5125">
        <ele>413.79276402564</ele>
        <time>2021-08-21T10:13:49Z</time>
      </trkpt>
      <trkpt lat="47.82524" lon="6.5127">
        <ele>413.7074446751</ele>
        <time>2021-08-21T10:13:51Z</time>
      </trkpt>
      <trkpt lat="47.82522" lon="6.5129">
        <ele>413.58291228965</ele>
        <time>2021-08-21T10:13:53Z</time>
      </trkpt>
      <trkpt lat="47.82518" lon="6.51311">
        <ele>413.59422822309</ele>
        <time>2021-08-21T10:13:55Z</time>
      </trkpt>
      <trkpt lat="47.82513" lon="6.51331">
        <ele>413.69761862599</ele>
        <time>2021-08-21T10:13:57Z</time>
      </trkpt>
      <trkpt lat="47.82509" lon="6.51351">
        <ele>413.79299098379</ele>
        <time>2021-08-21T10:13:59Z</time>
      </trkpt>
      <trkpt lat="47.82505" lon="6.51371">
        <ele>413.86877499718</ele>
        <time>2021-08-21T10:14:01Z</time>
      </trkpt>
      <trkpt lat="47.825" lon="6.5139">
        <ele>413.91198176464</ele>
        <time>2021-08-21T10:14:03Z</time>
      </trkpt>
      <trkpt lat="47.82495" lon="6.5141">
        <ele>413.93929400074</ele>
        <time>2021-08-21T10:14:05Z</time>
      </trkpt>
      <trkpt lat="47.8249" lon="6.51431">
        <ele>413.92987482356</ele>
        <time>2021-08-21T10:14:07Z</time>
      </trkpt>
      <trkpt lat="47.82484" lon="6.51451">
        <ele>413.88385873914</ele>
        <time>2021-08-21T10:14:09Z</time>
      </trkpt>
      <trkpt lat="47.82477" lon="6.51472">
        <ele>413.87879119154</ele>
        <time>2021-08-21T10:14:11Z</time>
      </trkpt>
      <trkpt lat="47.82471" lon="6.51493">
        <ele>413.96136627606</ele>
        <time>2021-08-21T10:14:13Z</time>
      </trkpt>
      <trkpt lat="47.82465" lon="6.51514">
        <ele>414.0229851497</ele>
        <time>2021-08-21T10:14:15Z</time>
      </trkpt>
      <trkpt lat="47.82458" lon="6.51535">
        <ele>414.06338914056</ele>
        <time>2021-08-21T10:14:17Z</time>
      </trkpt>
      <trkpt lat="47.82452" lon="6.51556">
        <ele>414.06579600229</ele>
        <time>2021-08-21T10:14:19Z</time>
      </trkpt>
      <trkpt lat="47.82446" lon="6.51576">
        <ele>414.10092649072</ele>
        <time>2021-08-21T10:14:21Z</time>
      </trkpt>
      <trkpt lat="47.82439" lon="6.51596">
        <ele>414.14082033724</ele>
        <time>2021-08-21T10:14:23Z</time>
      </trkpt>
      <trkpt lat="47.82432" lon="6.51617">
        <ele>414.15173984472</ele>
        <time>2021-08-21T10:14:25Z</time>
      </trkpt>
      <trkpt lat="47.82424" lon="6.51637">
        <ele>414.08537566345</ele>
        <time>2021-08-21T10:14:27Z</time>
      </trkpt>
      <trkpt lat="47.82416" lon="6.51656">
        <ele>414.09813811372</ele>
        <time>2021-08-21T10:14:29Z</time>
      </trkpt>
      <trkpt lat="47.82408" lon="6.51675">
        <ele>414.14741447783</ele>
        <time>2021-08-21T10:14:31Z</time>
      </trkpt>
      <trkpt lat="47.824" lon="6.51693">
        <ele>414.21215685783</ele>
        <time>2021-08-21T10:14:33Z</time>
      </trkpt>
      <trkpt lat="47.82392" lon="6.51712">
        <ele>414.21266306354</ele>
        <time>2021-08-21T10:14:35Z</time>
      </trkpt>
      <trkpt lat="47.82385" lon="6.51731">
        <ele>414.19398113447</ele>
        <time>2021-08-21T10:14:37Z</time>
      </trkpt>
      <trkpt lat="47.82379" lon="6.51749">
        <ele>414.05731021907</ele>
        <time>2021-08-21T10:14:39Z</time>
      </trkpt>
      <trkpt lat="47.82374" lon="6.51766">
        <ele>413.91465374635</ele>
        <time>2021-08-21T10:14:41Z</time>
      </trkpt>
      <trkpt lat="47.8237" lon="6.51784">
        <ele>413.87463022347</ele>
        <time>2021-08-21T10:14:43Z</time>
      </trkpt>
      <trkpt lat="47.82366" lon="6.51801">
        <ele>413.80042120986</ele>
        <time>2021-08-21T10:14:45Z</time>
      </trkpt>
      <trkpt lat="47.82363" lon="6.51819">
        <ele>413.70807892752</ele>
        <time>2021-08-21T10:14:47Z</time>
      </trkpt>
      <trkpt lat="47.82359" lon="6.51837">
        <ele>413.5737726454</ele>
        <time>2021-08-21T10:14:49Z</time>
      </trkpt>
      <trkpt lat="47.82355" lon="6.51856">
        <ele>413.4734559328</ele>
        <time>2021-08-21T10:14:51Z</time>
      </trkpt>
      <trkpt lat="47.82351" lon="6.51876">
        <ele>413.362636089</ele>
        <time>2021-08-21T10:14:53Z</time>
      </trkpt>
      <trkpt lat="47.82349" lon="6.51898">
        <ele>413.28990933318</ele>
        <time>2021-08-21T10:14:55Z</time>
      </trkpt>
      <trkpt lat="47.82346" lon="6.51919">
        <ele>413.21949338745</ele>
        <time>2021-08-21T10:14:57Z</time>
      </trkpt>
      <trkpt lat="47.82344" lon="6.5194">
        <ele>413.3040818913</ele>
        <time>2021-08-21T10:14:59Z</time>
      </trkpt>
      <trkpt lat="47.82342" lon="6.5196">
        <ele>413.36198640232</ele>
        <time>2021-08-21T10:15:01Z</time>
      </trkpt>
      <trkpt lat="47.8234" lon="6.51979">
        <ele>413.45566160353</ele>
        <time>2021-08-21T10:15:03Z</time>
      </trkpt>
      <trkpt lat="47.82339" lon="6.51996">
        <ele>413.51068502349</ele>
        <time>2021-08-21T10:15:05Z</time>
      </trkpt>
      <trkpt lat="47.82338" lon="6.52014">
        <ele>413.53120755883</ele>
        <time>2021-08-21T10:15:07Z</time>
      </trkpt>
      <trkpt lat="47.82338" lon="6.52031">
        <ele>413.52752522414</ele>
        <time>2021-08-21T10:15:09Z</time>
      </trkpt>
      <trkpt lat="47.82339" lon="6.52047">
        <ele>413.58636290128</ele>
        <time>2021-08-21T10:15:11Z</time>
      </trkpt>
      <trkpt lat="47.82339" lon="6.52064">
        <ele>413.65052853774</ele>
        <time>2021-08-21T10:15:13Z</time>
      </trkpt>
      <trkpt lat="47.82339" lon="6.5208">
        <ele>413.65949778377</ele>
        <time>2021-08-21T10:15:15Z</time>
      </trkpt>
      <trkpt lat="47.82338" lon="6.52096">
        <ele>413.63786973734</ele>
        <time>2021-08-21T10:15:17Z</time>
      </trkpt>
      <trkpt lat="47.82337" lon="6.52111">
        <ele>413.63436429303</ele>
        <time>2021-08-21T10:15:19Z</time>
      </trkpt>
      <trkpt lat="47.82336" lon="6.52125">
        <ele>413.60173691836</ele>
        <time>2021-08-21T10:15:21Z</time>
      </trkpt>
      <trkpt lat="47.82335" lon="6.52139">
        <ele>413.5999718685</ele>
        <time>2021-08-21T10:15:23Z</time>
      </trkpt>
      <trkpt lat="47.82334" lon="6.52152">
        <ele>413.53006312218</ele>
        <time>2021-08-21T10:15:25Z</time>
      </trkpt>
      <trkpt lat="47.82333" lon="6.52166">
        <ele>413.49770187989</ele>
        <time>2021-08-21T10:15:27Z</time>
      </trkpt>
      <trkpt lat="47.82331" lon="6.52179">
        <ele>413.46196551725</ele>
        <time>2021-08-21T10:15:29Z</time>
      </trkpt>
      <trkpt lat="47.8233" lon="6.52194">
        <ele>413.22279005705</ele>
        <time>2021-08-21T10:15:31Z</time>
      </trkpt>
      <trkpt lat="47.82328" lon="6.52209">
        <ele>413.07891175353</ele>
        <time>2021-08-21T10:15:33Z</time>
      </trkpt>
      <trkpt lat="47.82325" lon="6.52225">
        <ele>412.99244372903</ele>
        <time>2021-08-21T10:15:35Z</time>
      </trkpt>
      <trkpt lat="47.82323" lon="6.52241">
        <ele>412.98100988598</ele>
        <time>2021-08-21T10:15:37Z</time>
      </trkpt>
      <trkpt lat="47.8232" lon="6.52256">
        <ele>412.99686061948</ele>
        <time>2021-08-21T10:15:39Z</time>
      </trkpt>
      <trkpt lat="47.82317" lon="6.52273">
        <ele>413.02037938887</ele>
        <time>2021-08-21T10:15:41Z</time>
      </trkpt>
      <trkpt lat="47.82312" lon="6.5229">
        <ele>413.05909350679</ele>
        <time>2021-08-21T10:15:43Z</time>
      </trkpt>
      <trkpt lat="47.82307" lon="6.52306">
        <ele>413.11828310534</ele>
        <time>2021-08-21T10:15:45Z</time>
      </trkpt>
      <trkpt lat="47.82301" lon="6.52323">
        <ele>413.20797956342</ele>
        <time>2021-08-21T10:15:47Z</time>
      </trkpt>
      <trkpt lat="47.82296" lon="6.5234">
        <ele>413.30416174508</ele>
        <time>2021-08-21T10:15:49Z</time>
      </trkpt>
      <trkpt lat="47.82295" lon="6.52359">
        <ele>413.24942510575</ele>
        <time>2021-08-21T10:15:51Z</time>
      </trkpt>
      <trkpt lat="47.82299" lon="6.52378">
        <ele>413.25213365557</ele>
        <time>2021-08-21T10:15:53Z</time>
      </trkpt>
      <trkpt lat="47.82306" lon="6.52395">
        <ele>413.3125542419</ele>
        <time>2021-08-21T10:15:55Z</time>
      </trkpt>
      <trkpt lat="47.82314" lon="6.52412">
        <ele>413.36391516958</ele>
        <time>2021-08-21T10:15:57Z</time>
      </trkpt>
      <trkpt lat="47.82319" lon="6.52431">
        <ele>413.35742277135</ele>
        <time>2021-08-21T10:15:59Z</time>
      </trkpt>
      <trkpt lat="47.8232" lon="6.52452">
        <ele>413.32846221074</ele>
        <time>2021-08-21T10:16:01Z</time>
      </trkpt>
      <trkpt lat="47.82318" lon="6.52471">
        <ele>413.18331250802</ele>
        <time>2021-08-21T10:16:03Z</time>
      </trkpt>
      <trkpt lat="47.82312" lon="6.52487">
        <ele>413.3234809818</ele>
        <time>2021-08-21T10:16:05Z</time>
      </trkpt>
      <trkpt lat="47.82306" lon="6.52504">
        <ele>413.58125440829</ele>
        <time>2021-08-21T10:16:07Z</time>
      </trkpt>
      <trkpt lat="47.82302" lon="6.5252">
        <ele>413.75664834989</ele>
        <time>2021-08-21T10:16:09Z</time>
      </trkpt>
      <trkpt lat="47.82298" lon="6.52537">
        <ele>414.01054189588</ele>
        <time>2021-08-21T10:16:11Z</time>
      </trkpt>
      <trkpt lat="47.82295" lon="6.52553">
        <ele>414.21645422723</ele>
        <time>2021-08-21T10:16:13Z</time>
      </trkpt>
      <trkpt lat="47.82293" lon="6.5257">
        <ele>414.07251301394</ele>
        <time>2021-08-21T10:16:15Z</time>
      </trkpt>
      <trkpt lat="47.8229" lon="6.52587">
        <ele>413.6569364618</ele>
        <time>2021-08-21T10:16:17Z</time>
      </trkpt>
      <trkpt lat="47.82287" lon="6.52604">
        <ele>413.41242129876</ele>
        <time>2021-08-21T10:16:19Z</time>
      </trkpt>
      <trkpt lat="47.82285" lon="6.52619">
        <ele>413.28718652481</ele>
        <time>2021-08-21T10:16:21Z</time>
      </trkpt>
      <trkpt lat="47.82282" lon="6.52635">
        <ele>413.27791024525</ele>
        <time>2021-08-21T10:16:23Z</time>
      </trkpt>
      <trkpt lat="47.8228" lon="6.5265">
        <ele>413.44634284541</ele>
        <time>2021-08-21T10:16:25Z</time>
      </trkpt>
      <trkpt lat="47.8228" lon="6.52666">
        <ele>413.46514527648</ele>
        <time>2021-08-21T10:16:27Z</time>
      </trkpt>
      <trkpt lat="47.82284" lon="6.52683">
        <ele>413.15946836755</ele>
        <time>2021-08-21T10:16:29Z</time>
      </trkpt>
      <trkpt lat="47.8229" lon="6.527">
        <ele>412.64636384172</ele>
        <time>2021-08-21T10:16:31Z</time>
      </trkpt>
      <trkpt lat="47.82297" lon="6.52718">
        <ele>412.1597967015</ele>
        <time>2021-08-21T10:16:33Z</time>
      </trkpt>
      <trkpt lat="47.82301" lon="6.52739">
        <ele>411.65357778585</ele>
        <time>2021-08-21T10:16:35Z</time>
      </trkpt>
      <trkpt lat="47.82303" lon="6.52761">
        <ele>411.41771539912</ele>
        <time>2021-08-21T10:16:37Z</time>
      </trkpt>
      <trkpt lat="47.82303" lon="6.52784">
        <ele>411.36738746177</ele>
        <time>2021-08-21T10:16:39Z</time>
      </trkpt>
      <trkpt lat="47.82303" lon="6.52807">
        <ele>411.39159296687</ele>
        <time>2021-08-21T10:16:41Z</time>
      </trkpt>
      <trkpt lat="47.82304" lon="6.52829">
        <ele>411.35437001261</ele>
        <time>2021-08-21T10:16:43Z</time>
      </trkpt>
      <trkpt lat="47.82306" lon="6.52852">
        <ele>411.41682824551</ele>
        <time>2021-08-21T10:16:45Z</time>
      </trkpt>
      <trkpt lat="47.82309" lon="6.52874">
        <ele>411.56608502549</ele>
        <time>2021-08-21T10:16:47Z</time>
      </trkpt>
      <trkpt lat="47.82314" lon="6.52895">
        <ele>411.7986505281</ele>
        <time>2021-08-21T10:16:49Z</time>
      </trkpt>
      <trkpt lat="47.82318" lon="6.52916">
        <ele>412.05687097256</ele>
        <time>2021-08-21T10:16:51Z</time>
      </trkpt>
      <trkpt lat="47.82323" lon="6.52936">
        <ele>412.23372249215</ele>
        <time>2021-08-21T10:16:53Z</time>
      </trkpt>
      <trkpt lat="47.82331" lon="6.52954">
        <ele>412.34756718905</ele>
        <time>2021-08-21T10:16:55Z</time>
      </trkpt>
      <trkpt lat="47.82339" lon="6.52972">
        <ele>412.34952163288</ele>
        <time>2021-08-21T10:16:57Z</time>
      </trkpt>
      <trkpt lat="47.82349" lon="6.52989">
        <ele>412.20018048757</ele>
        <time>2021-08-21T10:16:59Z</time>
      </trkpt>
      <trkpt lat="47.82358" lon="6.53008">
        <ele>412.08653627541</ele>
        <time>2021-08-21T10:17:01Z</time>
      </trkpt>
      <trkpt lat="47.82364" lon="6.5303">
        <ele>411.97225765474</ele>
        <time>2021-08-21T10:17:03Z</time>
      </trkpt>
      <trkpt lat="47.82369" lon="6.53055">
        <ele>411.8939979858</ele>
        <time>2021-08-21T10:17:05Z</time>
      </trkpt>
      <trkpt lat="47.82373" lon="6.53081">
        <ele>411.87854625428</ele>
        <time>2021-08-21T10:17:07Z</time>
      </trkpt>
      <trkpt lat="47.82379" lon="6.53105">
        <ele>411.92744156651</ele>
        <time>2021-08-21T10:17:09Z</time>
      </trkpt>
      <trkpt lat="47.82382" lon="6.53129">
        <ele>411.94179645952</ele>
        <time>2021-08-21T10:17:11Z</time>
      </trkpt>
      <trkpt lat="47.82388" lon="6.53152">
        <ele>412.0162241748</ele>
        <time>2021-08-21T10:17:13Z</time>
      </trkpt>
      <trkpt lat="47.82393" lon="6.53175">
        <ele>412.30790826892</ele>
        <time>2021-08-21T10:17:15Z</time>
      </trkpt>
      <trkpt lat="47.82397" lon="6.53197">
        <ele>412.30261756175</ele>
        <time>2021-08-21T10:17:17Z</time>
      </trkpt>
      <trkpt lat="47.82399" lon="6.53221">
        <ele>412.1818760425</ele>
        <time>2021-08-21T10:17:19Z</time>
      </trkpt>
      <trkpt lat="47.824" lon="6.53245">
        <ele>412.28509381124</ele>
        <time>2021-08-21T10:17:21Z</time>
      </trkpt>
      <trkpt lat="47.82402" lon="6.53268">
        <ele>412.50112281453</ele>
        <time>2021-08-21T10:17:23Z</time>
      </trkpt>
      <trkpt lat="47.82403" lon="6.53291">
        <ele>412.69162686793</ele>
        <time>2021-08-21T10:17:25Z</time>
      </trkpt>
      <trkpt lat="47.82401" lon="6.53313">
        <ele>412.96999419337</ele>
        <time>2021-08-21T10:17:27Z</time>
      </trkpt>
      <trkpt lat="47.82398" lon="6.53333">
        <ele>412.96090642396</ele>
        <time>2021-08-21T10:17:29Z</time>
      </trkpt>
      <trkpt lat="47.82395" lon="6.53354">
        <ele>413.24459652504</ele>
        <time>2021-08-21T10:17:31Z</time>
      </trkpt>
      <trkpt lat="47.82392" lon="6.53374">
        <ele>413.45519689889</ele>
        <time>2021-08-21T10:17:33Z</time>
      </trkpt>
      <trkpt lat="47.82388" lon="6.53394">
        <ele>413.6337851336</ele>
        <time>2021-08-21T10:17:35Z</time>
      </trkpt>
      <trkpt lat="47.82385" lon="6.53413">
        <ele>414.01972689421</ele>
        <time>2021-08-21T10:17:37Z</time>
      </trkpt>
      <trkpt lat="47.82381" lon="6.53431">
        <ele>414.11612958497</ele>
        <time>2021-08-21T10:17:39Z</time>
      </trkpt>
      <trkpt lat="47.82377" lon="6.53448">
        <ele>414.14398325342</ele>
        <time>2021-08-21T10:17:41Z</time>
      </trkpt>
      <trkpt lat="47.8237" lon="6.53465">
        <ele>414.17254198101</ele>
        <time>2021-08-21T10:17:43Z</time>
      </trkpt>
      <trkpt lat="47.82364" lon="6.53486">
        <ele>414.23025163642</ele>
        <time>2021-08-21T10:17:45Z</time>
      </trkpt>
      <trkpt lat="47.82361" lon="6.5351">
        <ele>413.80328235087</ele>
        <time>2021-08-21T10:17:47Z</time>
      </trkpt>
      <trkpt lat="47.82362" lon="6.53535">
        <ele>413.39576903185</ele>
        <time>2021-08-21T10:17:49Z</time>
      </trkpt>
      <trkpt lat="47.82367" lon="6.53559">
        <ele>413.40887333044</ele>
        <time>2021-08-21T10:17:51Z</time>
      </trkpt>
      <trkpt lat="47.82372" lon="6.53582">
        <ele>413.48414743492</ele>
        <time>2021-08-21T10:17:53Z</time>
      </trkpt>
      <trkpt lat="47.82376" lon="6.53604">
        <ele>413.5084679117</ele>
        <time>2021-08-21T10:17:55Z</time>
      </trkpt>
      <trkpt lat="47.82379" lon="6.53625">
        <ele>413.31352676408</ele>
        <time>2021-08-21T10:17:57Z</time>
      </trkpt>
      <trkpt lat="47.82382" lon="6.53647">
        <ele>413.17012966679</ele>
        <time>2021-08-21T10:17:59Z</time>
      </trkpt>
      <trkpt lat="47.82382" lon="6.53668">
        <ele>413.01509714782</ele>
        <time>2021-08-21T10:18:01Z</time>
      </trkpt>
      <trkpt lat="47.82381" lon="6.53688">
        <ele>412.8474942709</ele>
        <time>2021-08-21T10:18:03Z</time>
      </trkpt>
      <trkpt lat="47.82381" lon="6.53709">
        <ele>412.72754704318</ele>
        <time>2021-08-21T10:18:05Z</time>
      </trkpt>
      <trkpt lat="47.82381" lon="6.53729">
        <ele>412.66269729489</ele>
        <time>2021-08-21T10:18:07Z</time>
      </trkpt>
      <trkpt lat="47.82382" lon="6.53748">
        <ele>412.58175247236</ele>
        <time>2021-08-21T10:18:09Z</time>
      </trkpt>
      <trkpt lat="47.82384" lon="6.53766">
        <ele>412.46163770629</ele>
        <time>2021-08-21T10:18:11Z</time>
      </trkpt>
      <trkpt lat="47.82385" lon="6.53784">
        <ele>412.44048629898</ele>
        <time>2021-08-21T10:18:13Z</time>
      </trkpt>
      <trkpt lat="47.82386" lon="6.538">
        <ele>412.3870880101</ele>
        <time>2021-08-21T10:18:15Z</time>
      </trkpt>
      <trkpt lat="47.82387" lon="6.53815">
        <ele>412.31152971152</ele>
        <time>2021-08-21T10:18:17Z</time>
      </trkpt>
      <trkpt lat="47.82388" lon="6.53828">
        <ele>412.13628354609</ele>
        <time>2021-08-21T10:18:19Z</time>
      </trkpt>
      <trkpt lat="47.82391" lon="6.53843">
        <ele>411.85848002777</ele>
        <time>2021-08-21T10:18:21Z</time>
      </trkpt>
      <trkpt lat="47.82396" lon="6.53859">
        <ele>411.75303397859</ele>
        <time>2021-08-21T10:18:23Z</time>
      </trkpt>
      <trkpt lat="47.824" lon="6.53876">
        <ele>411.78844690755</ele>
        <time>2021-08-21T10:18:25Z</time>
      </trkpt>
      <trkpt lat="47.82405" lon="6.53892">
        <ele>411.7377832359</ele>
        <time>2021-08-21T10:18:27Z</time>
      </trkpt>
      <trkpt lat="47.82407" lon="6.53909">
        <ele>411.60266910589</ele>
        <time>2021-08-21T10:18:29Z</time>
      </trkpt>
      <trkpt lat="47.82409" lon="6.53926">
        <ele>411.47487243127</ele>
        <time>2021-08-21T10:18:31Z</time>
      </trkpt>
      <trkpt lat="47.82411" lon="6.53945">
        <ele>411.55392949115</ele>
        <time>2021-08-21T10:18:33Z</time>
      </trkpt>
      <trkpt lat="47.82413" lon="6.53964">
        <ele>411.56430521797</ele>
        <time>2021-08-21T10:18:35Z</time>
      </trkpt>
      <trkpt lat="47.82415" lon="6.53983">
        <ele>411.58186251003</ele>
        <time>2021-08-21T10:18:37Z</time>
      </trkpt>
      <trkpt lat="47.82418" lon="6.54002">
        <ele>411.54580731323</ele>
        <time>2021-08-21T10:18:39Z</time>
      </trkpt>
      <trkpt lat="47.82419" lon="6.54021">
        <ele>411.53229691498</ele>
        <time>2021-08-21T10:18:41Z</time>
      </trkpt>
      <trkpt lat="47.82421" lon="6.5404">
        <ele>411.55797662593</ele>
        <time>2021-08-21T10:18:43Z</time>
      </trkpt>
      <trkpt lat="47.82422" lon="6.54058">
        <ele>411.53231446977</ele>
        <time>2021-08-21T10:18:45Z</time>
      </trkpt>
      <trkpt lat="47.82421" lon="6.54076">
        <ele>411.50789037825</ele>
        <time>2021-08-21T10:18:47Z</time>
      </trkpt>
      <trkpt lat="47.82419" lon="6.54094">
        <ele>411.4987869191</ele>
        <time>2021-08-21T10:18:49Z</time>
      </trkpt>
      <trkpt lat="47.82416" lon="6.54112">
        <ele>411.56826184114</ele>
        <time>2021-08-21T10:18:51Z</time>
      </trkpt>
      <trkpt lat="47.82415" lon="6.5413">
        <ele>411.61138754544</ele>
        <time>2021-08-21T10:18:53Z</time>
      </trkpt>
      <trkpt lat="47.82414" lon="6.54148">
        <ele>411.6765030516</ele>
        <time>2021-08-21T10:18:55Z</time>
      </trkpt>
      <trkpt lat="47.82414" lon="6.54166">
        <ele>411.73511937286</ele>
        <time>2021-08-21T10:18:57Z</time>
      </trkpt>
      <trkpt lat="47.82413" lon="6.54183">
        <ele>411.85045939493</ele>
        <time>2021-08-21T10:18:59Z</time>
      </trkpt>
      <trkpt lat="47.82411" lon="6.542">
        <ele>412.0771024782</ele>
        <time>2021-08-21T10:19:01Z</time>
      </trkpt>
      <trkpt lat="47.82409" lon="6.54216">
        <ele>412.20699428491</ele>
        <time>2021-08-21T10:19:03Z</time>
      </trkpt>
      <trkpt lat="47.82407" lon="6.54232">
        <ele>412.48468579252</ele>
        <time>2021-08-21T10:19:05Z</time>
      </trkpt>
      <trkpt lat="47.82405" lon="6.5425">
        <ele>412.78592430549</ele>
        <time>2021-08-21T10:19:07Z</time>
      </trkpt>
      <trkpt lat="47.82403" lon="6.54267">
        <ele>413.04285356819</ele>
        <time>2021-08-21T10:19:09Z</time>
      </trkpt>
      <trkpt lat="47.82401" lon="6.54284">
        <ele>413.26329610592</ele>
        <time>2021-08-21T10:19:11Z</time>
      </trkpt>
      <trkpt lat="47.824" lon="6.54301">
        <ele>413.45862397731</ele>
        <time>2021-08-21T10:19:13Z</time>
      </trkpt>
      <trkpt lat="47.82398" lon="6.54318">
        <ele>413.64538418693</ele>
        <time>2021-08-21T10:19:15Z</time>
      </trkpt>
      <trkpt lat="47.82394" lon="6.54335">
        <ele>413.68640346924</ele>
        <time>2021-08-21T10:19:17Z</time>
      </trkpt>
      <trkpt lat="47.82389" lon="6.54354">
        <ele>413.64219507019</ele>
        <time>2021-08-21T10:19:19Z</time>
      </trkpt>
      <trkpt lat="47.82384" lon="6.54373">
        <ele>413.62555998667</ele>
        <time>2021-08-21T10:19:21Z</time>
      </trkpt>
      <trkpt lat="47.82379" lon="6.54391">
        <ele>413.59173749595</ele>
        <time>2021-08-21T10:19:23Z</time>
      </trkpt>
      <trkpt lat="47.82374" lon="6.54409">
        <ele>413.53424834749</ele>
        <time>2021-08-21T10:19:25Z</time>
      </trkpt>
      <trkpt lat="47.82368" lon="6.54427">
        <ele>413.40778895639</ele>
        <time>2021-08-21T10:19:27Z</time>
      </trkpt>
      <trkpt lat="47.82363" lon="6.54445">
        <ele>413.24516039798</ele>
        <time>2021-08-21T10:19:29Z</time>
      </trkpt>
      <trkpt lat="47.82361" lon="6.54465">
        <ele>413.15535958441</ele>
        <time>2021-08-21T10:19:31Z</time>
      </trkpt>
      <trkpt lat="47.82362" lon="6.54485">
        <ele>413.12573784883</ele>
        <time>2021-08-21T10:19:33Z</time>
      </trkpt>
      <trkpt lat="47.82366" lon="6.54504">
        <ele>413.04806663431</ele>
        <time>2021-08-21T10:19:35Z</time>
      </trkpt>
      <trkpt lat="47.82368" lon="6.54524">
        <ele>412.92918826653</ele>
        <time>2021-08-21T10:19:37Z</time>
      </trkpt>
      <trkpt lat="47.82367" lon="6.54544">
        <ele>412.87050263677</ele>
        <time>2021-08-21T10:19:39Z</time>
      </trkpt>
      <trkpt lat="47.82365" lon="6.54563">
        <ele>412.68498296373</ele>
        <time>2021-08-21T10:19:41Z</time>
      </trkpt>
      <trkpt lat="47.82361" lon="6.54583">
        <ele>412.44228272929</ele>
        <time>2021-08-21T10:19:43Z</time>
      </trkpt>
      <trkpt lat="47.82357" lon="6.54602">
        <ele>412.21645693145</ele>
        <time>2021-08-21T10:19:45Z</time>
      </trkpt>
      <trkpt lat="47.82351" lon="6.54619">
        <ele>412.01067984272</ele>
        <time>2021-08-21T10:19:47Z</time>
      </trkpt>
      <trkpt lat="47.82344" lon="6.54637">
        <ele>411.83551742745</ele>
        <time>2021-08-21T10:19:49Z</time>
      </trkpt>
      <trkpt lat="47.82337" lon="6.54653">
        <ele>411.72820607116</ele>
        <time>2021-08-21T10:19:51Z</time>
      </trkpt>
      <trkpt lat="47.82331" lon="6.5467">
        <ele>411.59858740479</ele>
        <time>2021-08-21T10:19:53Z</time>
      </trkpt>
      <trkpt lat="47.82329" lon="6.54688">
        <ele>411.43353212074</ele>
        <time>2021-08-21T10:19:55Z</time>
      </trkpt>
      <trkpt lat="47.82329" lon="6.54708">
        <ele>411.34429526557</ele>
        <time>2021-08-21T10:19:57Z</time>
      </trkpt>
      <trkpt lat="47.82331" lon="6.54727">
        <ele>411.29092086644</ele>
        <time>2021-08-21T10:19:59Z</time>
      </trkpt>
      <trkpt lat="47.82333" lon="6.54746">
        <ele>411.26355916476</ele>
        <time>2021-08-21T10:20:01Z</time>
      </trkpt>
      <trkpt lat="47.82335" lon="6.54765">
        <ele>411.2949475659</ele>
        <time>2021-08-21T10:20:03Z</time>
      </trkpt>
      <trkpt lat="47.82336" lon="6.54783">
        <ele>411.29830358195</ele>
        <time>2021-08-21T10:20:05Z</time>
      </trkpt>
      <trkpt lat="47.82338" lon="6.54802">
        <ele>411.30477877512</ele>
        <time>2021-08-21T10:20:07Z</time>
      </trkpt>
      <trkpt lat="47.82338" lon="6.5482">
        <ele>411.22186417612</ele>
        <time>2021-08-21T10:20:09Z</time>
      </trkpt>
      <trkpt lat="47.8234" lon="6.54837">
        <ele>411.29662038738</ele>
        <time>2021-08-21T10:20:11Z</time>
      </trkpt>
      <trkpt lat="47.82342" lon="6.54854">
        <ele>411.39735061054</ele>
        <time>2021-08-21T10:20:13Z</time>
      </trkpt>
      <trkpt lat="47.82344" lon="6.54872">
        <ele>411.48031044381</ele>
        <time>2021-08-21T10:20:15Z</time>
      </trkpt>
      <trkpt lat="47.82346" lon="6.54889">
        <ele>411.57110295513</ele>
        <time>2021-08-21T10:20:17Z</time>
      </trkpt>
      <trkpt lat="47.82349" lon="6.54906">
        <ele>411.6483574896</ele>
        <time>2021-08-21T10:20:19Z</time>
      </trkpt>
      <trkpt lat="47.82352" lon="6.54922">
        <ele>411.70454712381</ele>
        <time>2021-08-21T10:20:21Z</time>
      </trkpt>
      <trkpt lat="47.82356" lon="6.54938">
        <ele>411.80054524049</ele>
        <time>2021-08-21T10:20:23Z</time>
      </trkpt>
      <trkpt lat="47.8236" lon="6.54953">
        <ele>411.92937045258</ele>
        <time>2021-08-21T10:20:25Z</time>
      </trkpt>
      <trkpt lat="47.82363" lon="6.54969">
        <ele>412.00891549334</ele>
        <time>2021-08-21T10:20:27Z</time>
      </trkpt>
      <trkpt lat="47.82367" lon="6.54986">
        <ele>412.0712115538</ele>
        <time>2021-08-21T10:20:29Z</time>
      </trkpt>
      <trkpt lat="47.82371" lon="6.55001">
        <ele>412.18675780626</ele>
        <time>2021-08-21T10:20:31Z</time>
      </trkpt>
      <trkpt lat="47.82375" lon="6.55016">
        <ele>412.25711914924</ele>
        <time>2021-08-21T10:20:33Z</time>
      </trkpt>
      <trkpt lat="47.82379" lon="6.55031">
        <ele>412.32261321462</ele>
        <time>2021-08-21T10:20:35Z</time>
      </trkpt>
      <trkpt lat="47.82382" lon="6.55047">
        <ele>412.42391706528</ele>
        <time>2021-08-21T10:20:37Z</time>
      </trkpt>
      <trkpt lat="47.82384" lon="6.55063">
        <ele>412.60802632576</ele>
        <time>2021-08-21T10:20:39Z</time>
      </trkpt>
      <trkpt lat="47.82386" lon="6.5508">
        <ele>412.79663255291</ele>
        <time>2021-08-21T10:20:41Z</time>
      </trkpt>
      <trkpt lat="47.82387" lon="6.55097">
        <ele>412.95383509394</ele>
        <time>2021-08-21T10:20:43Z</time>
      </trkpt>
      <trkpt lat="47.82386" lon="6.55114">
        <ele>413.12759781693</ele>
        <time>2021-08-21T10:20:45Z</time>
      </trkpt>
      <trkpt lat="47.82384" lon="6.55131">
        <ele>413.27251677132</ele>
        <time>2021-08-21T10:20:47Z</time>
      </trkpt>
      <trkpt lat="47.82382" lon="6.55147">
        <ele>413.37339396876</ele>
        <time>2021-08-21T10:20:49Z</time>
      </trkpt>
      <trkpt lat="47.82379" lon="6.55163">
        <ele>413.43520864604</ele>
        <time>2021-08-21T10:20:51Z</time>
      </trkpt>
      <trkpt lat="47.82376" lon="6.55179">
        <ele>413.52530953889</ele>
        <time>2021-08-21T10:20:53Z</time>
      </trkpt>
      <trkpt lat="47.82372" lon="6.55195">
        <ele>413.60926647846</ele>
        <time>2021-08-21T10:20:55Z</time>
      </trkpt>
      <trkpt lat="47.82369" lon="6.55211">
        <ele>413.68825060299</ele>
        <time>2021-08-21T10:20:57Z</time>
      </trkpt>
      <trkpt lat="47.82365" lon="6.55227">
        <ele>413.74285646545</ele>
        <time>2021-08-21T10:20:59Z</time>
      </trkpt>
      <trkpt lat="47.82361" lon="6.55242">
        <ele>413.78781672883</ele>
        <time>2021-08-21T10:21:01Z</time>
      </trkpt>
      <trkpt lat="47.82359" lon="6.55258">
        <ele>413.82728385787</ele>
        <time>2021-08-21T10:21:03Z</time>
      </trkpt>
      <trkpt lat="47.82357" lon="6.55275">
        <ele>413.85631787763</ele>
        <time>2021-08-21T10:21:05Z</time>
      </trkpt>
      <trkpt lat="47.82357" lon="6.55292">
        <ele>413.87840418954</ele>
        <time>2021-08-21T10:21:07Z</time>
      </trkpt>
      <trkpt lat="47.82357" lon="6.55309">
        <ele>413.9026624142</ele>
        <time>2021-08-21T10:21:09Z</time>
      </trkpt>
      <trkpt lat="47.82357" lon="6.55327">
        <ele>413.9258574261</ele>
        <time>2021-08-21T10:21:11Z</time>
      </trkpt>
      <trkpt lat="47.82358" lon="6.55345">
        <ele>413.93780979928</ele>
        <time>2021-08-21T10:21:13Z</time>
      </trkpt>
      <trkpt lat="47.8236" lon="6.55362">
        <ele>413.94199792727</ele>
        <time>2021-08-21T10:21:15Z</time>
      </trkpt>
      <trkpt lat="47.82362" lon="6.55379">
        <ele>413.94573704889</ele>
        <time>2021-08-21T10:21:17Z</time>
      </trkpt>
      <trkpt lat="47.82363" lon="6.55397">
        <ele>413.95016245763</ele>
        <time>2021-08-21T10:21:19Z</time>
      </trkpt>
      <trkpt lat="47.82365" lon="6.55414">
        <ele>413.95478280637</ele>
        <time>2021-08-21T10:21:21Z</time>
      </trkpt>
      <trkpt lat="47.82367" lon="6.55431">
        <ele>413.96122654129</ele>
        <time>2021-08-21T10:21:23Z</time>
      </trkpt>
      <trkpt lat="47.82369" lon="6.55448">
        <ele>413.95923655827</ele>
        <time>2021-08-21T10:21:25Z</time>
      </trkpt>
      <trkpt lat="47.82371" lon="6.55465">
        <ele>413.95798375935</ele>
        <time>2021-08-21T10:21:27Z</time>
      </trkpt>
      <trkpt lat="47.82373" lon="6.55481">
        <ele>413.96146873671</ele>
        <time>2021-08-21T10:21:29Z</time>
      </trkpt>
      <trkpt lat="47.82375" lon="6.55497">
        <ele>413.96180532452</ele>
        <time>2021-08-21T10:21:31Z</time>
      </trkpt>
      <trkpt lat="47.82377" lon="6.55513">
        <ele>413.9558573788</ele>
        <time>2021-08-21T10:21:33Z</time>
      </trkpt>
      <trkpt lat="47.82378" lon="6.55529">
        <ele>413.95087823433</ele>
        <time>2021-08-21T10:21:35Z</time>
      </trkpt>
      <trkpt lat="47.82379" lon="6.55544">
        <ele>413.95167994038</ele>
        <time>2021-08-21T10:21:37Z</time>
      </trkpt>
      <trkpt lat="47.8238" lon="6.55558">
        <ele>413.96007845478</ele>
        <time>2021-08-21T10:21:39Z</time>
      </trkpt>
      <trkpt lat="47.82379" lon="6.55572">
        <ele>413.97695498634</ele>
        <time>2021-08-21T10:21:41Z</time>
      </trkpt>
      <trkpt lat="47.82378" lon="6.55585">
        <ele>413.9961784813</ele>
        <time>2021-08-21T10:21:43Z</time>
      </trkpt>
      <trkpt lat="47.82377" lon="6.55597">
        <ele>414.01506564703</ele>
        <time>2021-08-21T10:21:45Z</time>
      </trkpt>
      <trkpt lat="47.82375" lon="6.55607">
        <ele>414.0180047595</ele>
        <time>2021-08-21T10:21:47Z</time>
      </trkpt>
      <trkpt lat="47.82373" lon="6.55616">
        <ele>414.02244319773</ele>
        <time>2021-08-21T10:21:49Z</time>
      </trkpt>
      <trkpt lat="47.82373" lon="6.55623">
        <ele>414.02723445538</ele>
        <time>2021-08-21T10:21:51Z</time>
      </trkpt>
      <trkpt lat="47.82379" lon="6.55629">
        <ele>414.04972089063</ele>
        <time>2021-08-21T10:21:53Z</time>
      </trkpt>
      <trkpt lat="47.82389" lon="6.55633">
        <ele>414.07899571619</ele>
        <time>2021-08-21T10:21:55Z</time>
      </trkpt>
      <trkpt lat="47.824" lon="6.55633">
        <ele>414.11111005394</ele>
        <time>2021-08-21T10:21:57Z</time>
      </trkpt>
      <trkpt lat="47.82411" lon="6.55632">
        <ele>414.13931357159</ele>
        <time>2021-08-21T10:21:59Z</time>
      </trkpt>
      <trkpt lat="47.82424" lon="6.55631">
        <ele>414.16982316324</ele>
        <time>2021-08-21T10:22:01Z</time>
      </trkpt>
      <trkpt lat="47.82436" lon="6.55629">
        <ele>414.18356069149</ele>
        <time>2021-08-21T10:22:03Z</time>
      </trkpt>
      <trkpt lat="47.82448" lon="6.55626">
        <ele>414.19879660065</ele>
        <time>2021-08-21T10:22:05Z</time>
      </trkpt>
      <trkpt lat="47.8246" lon="6.55623">
        <ele>414.20163528031</ele>
        <time>2021-08-21T10:22:07Z</time>
      </trkpt>
      <trkpt lat="47.82472" lon="6.5562">
        <ele>414.1696930119</ele>
        <time>2021-08-21T10:22:09Z</time>
      </trkpt>
      <trkpt lat="47.82484" lon="6.55617">
        <ele>414.13356668216</ele>
        <time>2021-08-21T10:22:11Z</time>
      </trkpt>
      <trkpt lat="47.82497" lon="6.55614">
        <ele>414.0934539237</ele>
        <time>2021-08-21T10:22:13Z</time>
      </trkpt>
      <trkpt lat="47.8251" lon="6.55611">
        <ele>414.02450126424</ele>
        <time>2021-08-21T10:22:15Z</time>
      </trkpt>
      <trkpt lat="47.82523" lon="6.55609">
        <ele>413.98354243304</ele>
        <time>2021-08-21T10:22:17Z</time>
      </trkpt>
      <trkpt lat="47.82535" lon="6.55606">
        <ele>413.97676309197</ele>
        <time>2021-08-21T10:22:19Z</time>
      </trkpt>
      <trkpt lat="47.82548" lon="6.55603">
        <ele>414.01652082194</ele>
        <time>2021-08-21T10:22:21Z</time>
      </trkpt>
      <trkpt lat="47.82561" lon="6.556">
        <ele>414.03927000113</ele>
        <time>2021-08-21T10:22:23Z</time>
      </trkpt>
      <trkpt lat="47.82574" lon="6.55598">
        <ele>414.02754939662</ele>
        <time>2021-08-21T10:22:25Z</time>
      </trkpt>
      <trkpt lat="47.82587" lon="6.55596">
        <ele>414.0240515811</ele>
        <time>2021-08-21T10:22:27Z</time>
      </trkpt>
      <trkpt lat="47.82599" lon="6.55594">
        <ele>413.95651829155</ele>
        <time>2021-08-21T10:22:29Z</time>
      </trkpt>
      <trkpt lat="47.82612" lon="6.55591">
        <ele>413.87035166264</ele>
        <time>2021-08-21T10:22:31Z</time>
      </trkpt>
      <trkpt lat="47.82625" lon="6.55591">
        <ele>413.8388541057</ele>
        <time>2021-08-21T10:22:33Z</time>
      </trkpt>
      <trkpt lat="47.82637" lon="6.55589">
        <ele>413.83956970965</ele>
        <time>2021-08-21T10:22:35Z</time>
      </trkpt>
      <trkpt lat="47.8265" lon="6.55586">
        <ele>413.93165891518</ele>
        <time>2021-08-21T10:22:37Z</time>
      </trkpt>
      <trkpt lat="47.82663" lon="6.55584">
        <ele>414.03251855658</ele>
        <time>2021-08-21T10:22:39Z</time>
      </trkpt>
      <trkpt lat="47.82675" lon="6.55581">
        <ele>414.11953345646</ele>
        <time>2021-08-21T10:22:41Z</time>
      </trkpt>
      <trkpt lat="47.82688" lon="6.55578">
        <ele>414.20074701727</ele>
        <time>2021-08-21T10:22:43Z</time>
      </trkpt>
      <trkpt lat="47.827" lon="6.55576">
        <ele>414.23868337598</ele>
        <time>2021-08-21T10:22:45Z</time>
      </trkpt>
      <trkpt lat="47.82712" lon="6.55574">
        <ele>414.14387763035</ele>
        <time>2021-08-21T10:22:47Z</time>
      </trkpt>
      <trkpt lat="47.82724" lon="6.55571">
        <ele>414.08796482462</ele>
        <time>2021-08-21T10:22:49Z</time>
      </trkpt>
      <trkpt lat="47.82736" lon="6.55565">
        <ele>414.00794898517</ele>
        <time>2021-08-21T10:22:51Z</time>
      </trkpt>
      <trkpt lat="47.82748" lon="6.55555">
        <ele>413.81229605452</ele>
        <time>2021-08-21T10:22:53Z</time>
      </trkpt>
      <trkpt lat="47.8276" lon="6.55546">
        <ele>413.57506096511</ele>
        <time>2021-08-21T10:22:55Z</time>
      </trkpt>
      <trkpt lat="47.82774" lon="6.55543">
        <ele>413.41829973488</ele>
        <time>2021-08-21T10:22:57Z</time>
      </trkpt>
      <trkpt lat="47.82787" lon="6.55548">
        <ele>413.37053512414</ele>
        <time>2021-08-21T10:22:59Z</time>
      </trkpt>
      <trkpt lat="47.828" lon="6.55552">
        <ele>413.34888441892</ele>
        <time>2021-08-21T10:23:01Z</time>
      </trkpt>
      <trkpt lat="47.82814" lon="6.55554">
        <ele>413.54696564259</ele>
        <time>2021-08-21T10:23:03Z</time>
      </trkpt>
      <trkpt lat="47.82829" lon="6.55551">
        <ele>413.6715187324</ele>
        <time>2021-08-21T10:23:05Z</time>
      </trkpt>
      <trkpt lat="47.82844" lon="6.55545">
        <ele>413.65869695475</ele>
        <time>2021-08-21T10:23:07Z</time>
      </trkpt>
      <trkpt lat="47.82859" lon="6.5554">
        <ele>413.74305528464</ele>
        <time>2021-08-21T10:23:09Z</time>
      </trkpt>
      <trkpt lat="47.82874" lon="6.55534">
        <ele>413.8688978698</ele>
        <time>2021-08-21T10:23:11Z</time>
      </trkpt>
      <trkpt lat="47.82888" lon="6.55529">
        <ele>413.97215424993</ele>
        <time>2021-08-21T10:23:13Z</time>
      </trkpt>
      <trkpt lat="47.82903" lon="6.55523">
        <ele>414.11213776248</ele>
        <time>2021-08-21T10:23:14Z</time>
      </trkpt>
      <trkpt lat="47.82917" lon="6.55518">
        <ele>414.23047535961</ele>
        <time>2021-08-21T10:23:16Z</time>
      </trkpt>
      <trkpt lat="47.82931" lon="6.55511">
        <ele>414.25603543552</ele>
        <time>2021-08-21T10:23:18Z</time>
      </trkpt>
      <trkpt lat="47.82944" lon="6.55505">
        <ele>414.29539550602</ele>
        <time>2021-08-21T10:23:20Z</time>
      </trkpt>
      <trkpt lat="47.82958" lon="6.55506">
        <ele>414.31548213898</ele>
        <time>2021-08-21T10:23:22Z</time>
      </trkpt>
      <trkpt lat="47.82971" lon="6.55512">
        <ele>414.45539593237</ele>
        <time>2021-08-21T10:23:24Z</time>
      </trkpt>
      <trkpt lat="47.82982" lon="6.55523">
        <ele>414.6042478846</ele>
        <time>2021-08-21T10:23:26Z</time>
      </trkpt>
      <trkpt lat="47.82994" lon="6.55535">
        <ele>414.69609327044</ele>
        <time>2021-08-21T10:23:28Z</time>
      </trkpt>
      <trkpt lat="47.83006" lon="6.55546">
        <ele>414.77043784875</ele>
        <time>2021-08-21T10:23:30Z</time>
      </trkpt>
      <trkpt lat="47.83018" lon="6.55558">
        <ele>414.86134729363</ele>
        <time>2021-08-21T10:23:32Z</time>
      </trkpt>
      <trkpt lat="47.8303" lon="6.55568">
        <ele>414.83999027351</ele>
        <time>2021-08-21T10:23:34Z</time>
      </trkpt>
      <trkpt lat="47.83042" lon="6.5558">
        <ele>414.69791090274</ele>
        <time>2021-08-21T10:23:36Z</time>
      </trkpt>
      <trkpt lat="47.83054" lon="6.55591">
        <ele>414.60563065557</ele>
        <time>2021-08-21T10:23:38Z</time>
      </trkpt>
      <trkpt lat="47.83066" lon="6.55602">
        <ele>414.50928231976</ele>
        <time>2021-08-21T10:23:40Z</time>
      </trkpt>
      <trkpt lat="47.83078" lon="6.55613">
        <ele>414.38252463112</ele>
        <time>2021-08-21T10:23:42Z</time>
      </trkpt>
      <trkpt lat="47.83089" lon="6.55624">
        <ele>414.31980915585</ele>
        <time>2021-08-21T10:23:44Z</time>
      </trkpt>
      <trkpt lat="47.83101" lon="6.55635">
        <ele>414.26185199045</ele>
        <time>2021-08-21T10:23:46Z</time>
      </trkpt>
      <trkpt lat="47.83112" lon="6.55646">
        <ele>414.19064474855</ele>
        <time>2021-08-21T10:23:48Z</time>
      </trkpt>
      <trkpt lat="47.83123" lon="6.55656">
        <ele>414.13320311608</ele>
        <time>2021-08-21T10:23:50Z</time>
      </trkpt>
      <trkpt lat="47.83134" lon="6.55666">
        <ele>414.08710927951</ele>
        <time>2021-08-21T10:23:52Z</time>
      </trkpt>
      <trkpt lat="47.83144" lon="6.55677">
        <ele>413.97002571545</ele>
        <time>2021-08-21T10:23:54Z</time>
      </trkpt>
      <trkpt lat="47.83155" lon="6.55688">
        <ele>413.88337110765</ele>
        <time>2021-08-21T10:23:56Z</time>
      </trkpt>
      <trkpt lat="47.83166" lon="6.55698">
        <ele>413.78697743083</ele>
        <time>2021-08-21T10:23:58Z</time>
      </trkpt>
      <trkpt lat="47.83176" lon="6.55707">
        <ele>413.68330198088</ele>
        <time>2021-08-21T10:24:00Z</time>
      </trkpt>
      <trkpt lat="47.83187" lon="6.55717">
        <ele>413.592194928</ele>
        <time>2021-08-21T10:24:02Z</time>
      </trkpt>
      <trkpt lat="47.83198" lon="6.55728">
        <ele>413.53763489718</ele>
        <time>2021-08-21T10:24:04Z</time>
      </trkpt>
      <trkpt lat="47.83209" lon="6.55739">
        <ele>413.40195936759</ele>
        <time>2021-08-21T10:24:06Z</time>
      </trkpt>
      <trkpt lat="47.83221" lon="6.55749">
        <ele>413.3188433342</ele>
        <time>2021-08-21T10:24:08Z</time>
      </trkpt>
      <trkpt lat="47.83232" lon="6.5576">
        <ele>413.17001913203</ele>
        <time>2021-08-21T10:24:10Z</time>
      </trkpt>
      <trkpt lat="47.83243" lon="6.55771">
        <ele>413.07202398847</ele>
        <time>2021-08-21T10:24:12Z</time>
      </trkpt>
      <trkpt lat="47.83254" lon="6.55781">
        <ele>413.03057165928</ele>
        <time>2021-08-21T10:24:14Z</time>
      </trkpt>
      <trkpt lat="47.83265" lon="6.55792">
        <ele>413.03456377948</ele>
        <time>2021-08-21T10:24:16Z</time>
      </trkpt>
      <trkpt lat="47.83276" lon="6.55803">
        <ele>413.03368622778</ele>
        <time>2021-08-21T10:24:18Z</time>
      </trkpt>
      <trkpt lat="47.83287" lon="6.55813">
        <ele>413.0622656771</ele>
        <time>2021-08-21T10:24:20Z</time>
      </trkpt>
      <trkpt lat="47.83298" lon="6.55824">
        <ele>413.04599669885</ele>
        <time>2021-08-21T10:24:22Z</time>
      </trkpt>
      <trkpt lat="47.83309" lon="6.55834">
        <ele>413.06690553972</ele>
        <time>2021-08-21T10:24:24Z</time>
      </trkpt>
      <trkpt lat="47.83321" lon="6.55844">
        <ele>413.05433624419</ele>
        <time>2021-08-21T10:24:26Z</time>
      </trkpt>
      <trkpt lat="47.83332" lon="6.55855">
        <ele>413.09039895544</ele>
        <time>2021-08-21T10:24:28Z</time>
      </trkpt>
      <trkpt lat="47.83343" lon="6.55866">
        <ele>413.12857044416</ele>
        <time>2021-08-21T10:24:30Z</time>
      </trkpt>
      <trkpt lat="47.83354" lon="6.55877">
        <ele>413.14940801632</ele>
        <time>2021-08-21T10:24:32Z</time>
      </trkpt>
      <trkpt lat="47.83365" lon="6.55888">
        <ele>413.24155771004</ele>
        <time>2021-08-21T10:24:34Z</time>
      </trkpt>
      <trkpt lat="47.83377" lon="6.55899">
        <ele>413.27083416122</ele>
        <time>2021-08-21T10:24:36Z</time>
      </trkpt>
      <trkpt lat="47.83388" lon="6.5591">
        <ele>413.25908665524</ele>
        <time>2021-08-21T10:24:38Z</time>
      </trkpt>
      <trkpt lat="47.83399" lon="6.55921">
        <ele>413.27086730972</ele>
        <time>2021-08-21T10:24:40Z</time>
      </trkpt>
      <trkpt lat="47.83411" lon="6.55932">
        <ele>413.2566251947</ele>
        <time>2021-08-21T10:24:42Z</time>
      </trkpt>
      <trkpt lat="47.83422" lon="6.55943">
        <ele>413.20264538993</ele>
        <time>2021-08-21T10:24:44Z</time>
      </trkpt>
      <trkpt lat="47.83433" lon="6.55953">
        <ele>413.11504352609</ele>
        <time>2021-08-21T10:24:46Z</time>
      </trkpt>
      <trkpt lat="47.83444" lon="6.55964">
        <ele>412.99473218466</ele>
        <time>2021-08-21T10:24:48Z</time>
      </trkpt>
      <trkpt lat="47.83456" lon="6.55975">
        <ele>412.89552466923</ele>
        <time>2021-08-21T10:24:50Z</time>
      </trkpt>
      <trkpt lat="47.83467" lon="6.55985">
        <ele>412.88299898218</ele>
        <time>2021-08-21T10:24:52Z</time>
      </trkpt>
      <trkpt lat="47.83479" lon="6.55995">
        <ele>412.85789080343</ele>
        <time>2021-08-21T10:24:54Z</time>
      </trkpt>
      <trkpt lat="47.8349" lon="6.56003">
        <ele>412.8652607485</ele>
        <time>2021-08-21T10:24:56Z</time>
      </trkpt>
      <trkpt lat="47.83501" lon="6.56013">
        <ele>412.86134250476</ele>
        <time>2021-08-21T10:24:58Z</time>
      </trkpt>
      <trkpt lat="47.83513" lon="6.5602">
        <ele>412.86623233943</ele>
        <time>2021-08-21T10:25:00Z</time>
      </trkpt>
      <trkpt lat="47.83524" lon="6.56028">
        <ele>412.87769807586</ele>
        <time>2021-08-21T10:25:02Z</time>
      </trkpt>
      <trkpt lat="47.83536" lon="6.56036">
        <ele>412.90977987788</ele>
        <time>2021-08-21T10:25:04Z</time>
      </trkpt>
      <trkpt lat="47.83547" lon="6.56044">
        <ele>412.96418527465</ele>
        <time>2021-08-21T10:25:06Z</time>
      </trkpt>
      <trkpt lat="47.83558" lon="6.56051">
        <ele>412.99712114584</ele>
        <time>2021-08-21T10:25:08Z</time>
      </trkpt>
      <trkpt lat="47.8357" lon="6.56059">
        <ele>413.02294052338</ele>
        <time>2021-08-21T10:25:10Z</time>
      </trkpt>
      <trkpt lat="47.83581" lon="6.56067">
        <ele>413.09585934068</ele>
        <time>2021-08-21T10:25:12Z</time>
      </trkpt>
      <trkpt lat="47.83593" lon="6.56074">
        <ele>413.25448638119</ele>
        <time>2021-08-21T10:25:14Z</time>
      </trkpt>
      <trkpt lat="47.83604" lon="6.56082">
        <ele>413.38368760267</ele>
        <time>2021-08-21T10:25:16Z</time>
      </trkpt>
      <trkpt lat="47.83615" lon="6.5609">
        <ele>413.51051554439</ele>
        <time>2021-08-21T10:25:18Z</time>
      </trkpt>
      <trkpt lat="47.83626" lon="6.56098">
        <ele>413.60304159895</ele>
        <time>2021-08-21T10:25:20Z</time>
      </trkpt>
      <trkpt lat="47.83637" lon="6.56107">
        <ele>413.66814771866</ele>
        <time>2021-08-21T10:25:22Z</time>
      </trkpt>
      <trkpt lat="47.83648" lon="6.56116">
        <ele>413.72178149993</ele>
        <time>2021-08-21T10:25:24Z</time>
      </trkpt>
      <trkpt lat="47.8366" lon="6.56124">
        <ele>413.69231775175</ele>
        <time>2021-08-21T10:25:26Z</time>
      </trkpt>
      <trkpt lat="47.83672" lon="6.56131">
        <ele>413.72439101146</ele>
        <time>2021-08-21T10:25:28Z</time>
      </trkpt>
      <trkpt lat="47.83683" lon="6.56138">
        <ele>413.83561523996</ele>
        <time>2021-08-21T10:25:30Z</time>
      </trkpt>
      <trkpt lat="47.83695" lon="6.56145">
        <ele>413.94256213214</ele>
        <time>2021-08-21T10:25:32Z</time>
      </trkpt>
      <trkpt lat="47.83707" lon="6.56154">
        <ele>414.09281659657</ele>
        <time>2021-08-21T10:25:34Z</time>
      </trkpt>
      <trkpt lat="47.83719" lon="6.56162">
        <ele>414.29435292343</ele>
        <time>2021-08-21T10:25:36Z</time>
      </trkpt>
      <trkpt lat="47.8373" lon="6.56171">
        <ele>414.48831851968</ele>
        <time>2021-08-21T10:25:38Z</time>
      </trkpt>
      <trkpt lat="47.83742" lon="6.56179">
        <ele>414.65125913141</ele>
        <time>2021-08-21T10:25:40Z</time>
      </trkpt>
      <trkpt lat="47.83754" lon="6.56187">
        <ele>414.75117724569</ele>
        <time>2021-08-21T10:25:42Z</time>
      </trkpt>
      <trkpt lat="47.83765" lon="6.56196">
        <ele>414.85326101692</ele>
        <time>2021-08-21T10:25:44Z</time>
      </trkpt>
      <trkpt lat="47.83777" lon="6.56206">
        <ele>414.92923164939</ele>
        <time>2021-08-21T10:25:46Z</time>
      </trkpt>
      <trkpt lat="47.83789" lon="6.56214">
        <ele>414.98833700941</ele>
        <time>2021-08-21T10:25:48Z</time>
      </trkpt>
      <trkpt lat="47.838" lon="6.56223">
        <ele>414.98579231557</ele>
        <time>2021-08-21T10:25:50Z</time>
      </trkpt>
      <trkpt lat="47.83811" lon="6.56233">
        <ele>414.89339051095</ele>
        <time>2021-08-21T10:25:52Z</time>
      </trkpt>
      <trkpt lat="47.83821" lon="6.56242">
        <ele>414.8982119392</ele>
        <time>2021-08-21T10:25:54Z</time>
      </trkpt>
      <trkpt lat="47.83832" lon="6.56252">
        <ele>414.88923726547</ele>
        <time>2021-08-21T10:25:56Z</time>
      </trkpt>
      <trkpt lat="47.83842" lon="6.56261">
        <ele>414.89387067084</ele>
        <time>2021-08-21T10:25:58Z</time>
      </trkpt>
      <trkpt lat="47.83852" lon="6.56272">
        <ele>414.84929478876</ele>
        <time>2021-08-21T10:26:00Z</time>
      </trkpt>
      <trkpt lat="47.83862" lon="6.56282">
        <ele>414.87031764171</ele>
        <time>2021-08-21T10:26:02Z</time>
      </trkpt>
      <trkpt lat="47.83872" lon="6.56294">
        <ele>414.92188394229</ele>
        <time>2021-08-21T10:26:04Z</time>
      </trkpt>
      <trkpt lat="47.83882" lon="6.56305">
        <ele>414.98589163752</ele>
        <time>2021-08-21T10:26:06Z</time>
      </trkpt>
      <trkpt lat="47.83892" lon="6.56316">
        <ele>415.01765668867</ele>
        <time>2021-08-21T10:26:08Z</time>
      </trkpt>
      <trkpt lat="47.83901" lon="6.56327">
        <ele>415.13577050847</ele>
        <time>2021-08-21T10:26:10Z</time>
      </trkpt>
      <trkpt lat="47.83911" lon="6.56337">
        <ele>415.21430945237</ele>
        <time>2021-08-21T10:26:12Z</time>
      </trkpt>
      <trkpt lat="47.8392" lon="6.56347">
        <ele>415.28090970138</ele>
        <time>2021-08-21T10:26:14Z</time>
      </trkpt>
      <trkpt lat="47.8393" lon="6.56356">
        <ele>415.43387750798</ele>
        <time>2021-08-21T10:26:16Z</time>
      </trkpt>
      <trkpt lat="47.8394" lon="6.56365">
        <ele>415.54802425409</ele>
        <time>2021-08-21T10:26:18Z</time>
      </trkpt>
      <trkpt lat="47.83948" lon="6.56374">
        <ele>415.64423208265</ele>
        <time>2021-08-21T10:26:20Z</time>
      </trkpt>
      <trkpt lat="47.83957" lon="6.56383">
        <ele>415.79656337182</ele>
        <time>2021-08-21T10:26:22Z</time>
      </trkpt>
      <trkpt lat="47.83965" lon="6.56392">
        <ele>415.9077672733</ele>
        <time>2021-08-21T10:26:24Z</time>
      </trkpt>
      <trkpt lat="47.83975" lon="6.56397">
        <ele>416.00101562086</ele>
        <time>2021-08-21T10:26:26Z</time>
      </trkpt>
      <trkpt lat="47.83987" lon="6.56398">
        <ele>416.05890120698</ele>
        <time>2021-08-21T10:26:28Z</time>
      </trkpt>
      <trkpt lat="47.83998" lon="6.56398">
        <ele>416.02536183721</ele>
        <time>2021-08-21T10:26:30Z</time>
      </trkpt>
      <trkpt lat="47.8401" lon="6.56398">
        <ele>416.03114970417</ele>
        <time>2021-08-21T10:26:32Z</time>
      </trkpt>
      <trkpt lat="47.84021" lon="6.56398">
        <ele>416.05506664131</ele>
        <time>2021-08-21T10:26:34Z</time>
      </trkpt>
      <trkpt lat="47.84031" lon="6.564">
        <ele>416.13944992256</ele>
        <time>2021-08-21T10:26:36Z</time>
      </trkpt>
      <trkpt lat="47.84039" lon="6.56404">
        <ele>416.25507278734</ele>
        <time>2021-08-21T10:26:38Z</time>
      </trkpt>
      <trkpt lat="47.8405" lon="6.56411">
        <ele>416.34661411422</ele>
        <time>2021-08-21T10:26:40Z</time>
      </trkpt>
      <trkpt lat="47.84061" lon="6.56417">
        <ele>416.47329932209</ele>
        <time>2021-08-21T10:26:42Z</time>
      </trkpt>
      <trkpt lat="47.84071" lon="6.56424">
        <ele>416.57568980393</ele>
        <time>2021-08-21T10:26:44Z</time>
      </trkpt>
      <trkpt lat="47.84081" lon="6.5643">
        <ele>416.65438890257</ele>
        <time>2021-08-21T10:26:46Z</time>
      </trkpt>
      <trkpt lat="47.84091" lon="6.56437">
        <ele>416.72357244755</ele>
        <time>2021-08-21T10:26:48Z</time>
      </trkpt>
      <trkpt lat="47.84101" lon="6.56442">
        <ele>416.87077628754</ele>
        <time>2021-08-21T10:26:50Z</time>
      </trkpt>
      <trkpt lat="47.84111" lon="6.56448">
        <ele>417.00770908525</ele>
        <time>2021-08-21T10:26:52Z</time>
      </trkpt>
      <trkpt lat="47.8412" lon="6.56455">
        <ele>417.13758677445</ele>
        <time>2021-08-21T10:26:54Z</time>
      </trkpt>
      <trkpt lat="47.84128" lon="6.56461">
        <ele>417.26220640253</ele>
        <time>2021-08-21T10:26:56Z</time>
      </trkpt>
      <trkpt lat="47.84137" lon="6.56461">
        <ele>417.39084585094</ele>
        <time>2021-08-21T10:26:58Z</time>
      </trkpt>
      <trkpt lat="47.84147" lon="6.56463">
        <ele>417.53702937423</ele>
        <time>2021-08-21T10:27:00Z</time>
      </trkpt>
      <trkpt lat="47.84158" lon="6.56465">
        <ele>417.72939743869</ele>
        <time>2021-08-21T10:27:02Z</time>
      </trkpt>
      <trkpt lat="47.8417" lon="6.56459">
        <ele>417.89412611946</ele>
        <time>2021-08-21T10:27:04Z</time>
      </trkpt>
      <trkpt lat="47.84179" lon="6.56447">
        <ele>418.02494951882</ele>
        <time>2021-08-21T10:27:06Z</time>
      </trkpt>
      <trkpt lat="47.84188" lon="6.56436">
        <ele>418.13963127021</ele>
        <time>2021-08-21T10:27:08Z</time>
      </trkpt>
      <trkpt lat="47.84196" lon="6.56426">
        <ele>418.23798435767</ele>
        <time>2021-08-21T10:27:10Z</time>
      </trkpt>
      <trkpt lat="47.84205" lon="6.56417">
        <ele>418.34093839041</ele>
        <time>2021-08-21T10:27:12Z</time>
      </trkpt>
      <trkpt lat="47.84213" lon="6.56407">
        <ele>418.43911105177</ele>
        <time>2021-08-21T10:27:14Z</time>
      </trkpt>
      <trkpt lat="47.84222" lon="6.56396">
        <ele>418.51962865869</ele>
        <time>2021-08-21T10:27:16Z</time>
      </trkpt>
      <trkpt lat="47.84232" lon="6.56388">
        <ele>418.60518686099</ele>
        <time>2021-08-21T10:27:18Z</time>
      </trkpt>
      <trkpt lat="47.84242" lon="6.56387">
        <ele>418.69045936817</ele>
        <time>2021-08-21T10:27:20Z</time>
      </trkpt>
      <trkpt lat="47.84252" lon="6.56388">
        <ele>418.79320655987</ele>
        <time>2021-08-21T10:27:22Z</time>
      </trkpt>
      <trkpt lat="47.8426" lon="6.56386">
        <ele>418.90681036387</ele>
        <time>2021-08-21T10:27:24Z</time>
      </trkpt>
      <trkpt lat="47.84271" lon="6.56385">
        <ele>419.02011103235</ele>
        <time>2021-08-21T10:27:26Z</time>
      </trkpt>
      <trkpt lat="47.84283" lon="6.56383">
        <ele>419.12836260147</ele>
        <time>2021-08-21T10:27:28Z</time>
      </trkpt>
      <trkpt lat="47.84293" lon="6.56381">
        <ele>419.2212507087</ele>
        <time>2021-08-21T10:27:30Z</time>
      </trkpt>
      <trkpt lat="47.84304" lon="6.56382">
        <ele>419.27988104731</ele>
        <time>2021-08-21T10:27:32Z</time>
      </trkpt>
      <trkpt lat="47.84314" lon="6.56384">
        <ele>419.30526808882</ele>
        <time>2021-08-21T10:27:34Z</time>
      </trkpt>
      <trkpt lat="47.84324" lon="6.56387">
        <ele>419.31948358228</ele>
        <time>2021-08-21T10:27:36Z</time>
      </trkpt>
      <trkpt lat="47.84333" lon="6.56393">
        <ele>419.31373174335</ele>
        <time>2021-08-21T10:27:38Z</time>
      </trkpt>
      <trkpt lat="47.84343" lon="6.56398">
        <ele>419.31628239461</ele>
        <time>2021-08-21T10:27:40Z</time>
      </trkpt>
      <trkpt lat="47.84353" lon="6.56403">
        <ele>419.34011972879</ele>
        <time>2021-08-21T10:27:42Z</time>
      </trkpt>
      <trkpt lat="47.84364" lon="6.56409">
        <ele>419.36986601093</ele>
        <time>2021-08-21T10:27:44Z</time>
      </trkpt>
      <trkpt lat="47.84372" lon="6.56412">
        <ele>419.38200707392</ele>
        <time>2021-08-21T10:27:46Z</time>
      </trkpt>
      <trkpt lat="47.8438" lon="6.56416">
        <ele>419.37270451045</ele>
        <time>2021-08-21T10:27:48Z</time>
      </trkpt>
      <trkpt lat="47.84389" lon="6.56422">
        <ele>419.35791003275</ele>
        <time>2021-08-21T10:27:50Z</time>
      </trkpt>
      <trkpt lat="47.84401" lon="6.56428">
        <ele>419.33442092077</ele>
        <time>2021-08-21T10:27:52Z</time>
      </trkpt>
      <trkpt lat="47.8441" lon="6.56427">
        <ele>419.33684622072</ele>
        <time>2021-08-21T10:27:54Z</time>
      </trkpt>
      <trkpt lat="47.84417" lon="6.56421">
        <ele>419.34577224859</ele>
        <time>2021-08-21T10:27:56Z</time>
      </trkpt>
      <trkpt lat="47.84424" lon="6.56418">
        <ele>419.36633037388</ele>
        <time>2021-08-21T10:27:58Z</time>
      </trkpt>
      <trkpt lat="47.84432" lon="6.5642">
        <ele>419.3751270467</ele>
        <time>2021-08-21T10:28:00Z</time>
      </trkpt>
      <trkpt lat="47.84439" lon="6.56431">
        <ele>419.38487293362</ele>
        <time>2021-08-21T10:28:02Z</time>
      </trkpt>
      <trkpt lat="47.84447" lon="6.56443">
        <ele>419.39643189103</ele>
        <time>2021-08-21T10:28:04Z</time>
      </trkpt>
      <trkpt lat="47.84455" lon="6.56454">
        <ele>419.42608902239</ele>
        <time>2021-08-21T10:28:06Z</time>
      </trkpt>
      <trkpt lat="47.84463" lon="6.56466">
        <ele>419.47872304296</ele>
        <time>2021-08-21T10:28:08Z</time>
      </trkpt>
      <trkpt lat="47.84471" lon="6.56476">
        <ele>419.52125192624</ele>
        <time>2021-08-21T10:28:10Z</time>
      </trkpt>
      <trkpt lat="47.84479" lon="6.56488">
        <ele>419.54987580199</ele>
        <time>2021-08-21T10:28:12Z</time>
      </trkpt>
      <trkpt lat="47.84486" lon="6.56499">
        <ele>419.55584037838</ele>
        <time>2021-08-21T10:28:14Z</time>
      </trkpt>
      <trkpt lat="47.84493" lon="6.56513">
        <ele>419.56158431742</ele>
        <time>2021-08-21T10:28:16Z</time>
      </trkpt>
      <trkpt lat="47.84497" lon="6.56527">
        <ele>419.54016047796</ele>
        <time>2021-08-21T10:28:18Z</time>
      </trkpt>
      <trkpt lat="47.845" lon="6.56543">
        <ele>419.50652900733</ele>
        <time>2021-08-21T10:28:20Z</time>
      </trkpt>
      <trkpt lat="47.84503" lon="6.56559">
        <ele>419.46725677739</ele>
        <time>2021-08-21T10:28:22Z</time>
      </trkpt>
      <trkpt lat="47.84506" lon="6.56575">
        <ele>419.42055534857</ele>
        <time>2021-08-21T10:28:24Z</time>
      </trkpt>
      <trkpt lat="47.84509" lon="6.5659">
        <ele>419.39131555201</ele>
        <time>2021-08-21T10:28:26Z</time>
      </trkpt>
      <trkpt lat="47.84513" lon="6.56605">
        <ele>419.34925868612</ele>
        <time>2021-08-21T10:28:28Z</time>
      </trkpt>
      <trkpt lat="47.84516" lon="6.5662">
        <ele>419.3015974824</ele>
        <time>2021-08-21T10:28:30Z</time>
      </trkpt>
      <trkpt lat="47.84519" lon="6.56635">
        <ele>419.26470429109</ele>
        <time>2021-08-21T10:28:32Z</time>
      </trkpt>
      <trkpt lat="47.84522" lon="6.56649">
        <ele>419.22728532742</ele>
        <time>2021-08-21T10:28:34Z</time>
      </trkpt>
      <trkpt lat="47.84526" lon="6.56662">
        <ele>419.19535562868</ele>
        <time>2021-08-21T10:28:36Z</time>
      </trkpt>
      <trkpt lat="47.84529" lon="6.56676">
        <ele>419.17491128578</ele>
        <time>2021-08-21T10:28:38Z</time>
      </trkpt>
      <trkpt lat="47.84532" lon="6.5669">
        <ele>419.17697008973</ele>
        <time>2021-08-21T10:28:40Z</time>
      </trkpt>
      <trkpt lat="47.84535" lon="6.56703">
        <ele>419.18312850099</ele>
        <time>2021-08-21T10:28:42Z</time>
      </trkpt>
      <trkpt lat="47.84537" lon="6.56715">
        <ele>419.19563847831</ele>
        <time>2021-08-21T10:28:44Z</time>
      </trkpt>
      <trkpt lat="47.8454" lon="6.56727">
        <ele>419.21255946122</ele>
        <time>2021-08-21T10:28:46Z</time>
      </trkpt>
      <trkpt lat="47.84543" lon="6.56738">
        <ele>419.24942227369</ele>
        <time>2021-08-21T10:28:48Z</time>
      </trkpt>
      <trkpt lat="47.84546" lon="6.56751">
        <ele>419.28899555334</ele>
        <time>2021-08-21T10:28:50Z</time>
      </trkpt>
      <trkpt lat="47.84549" lon="6.56764">
        <ele>419.32062764946</ele>
        <time>2021-08-21T10:28:52Z</time>
      </trkpt>
      <trkpt lat="47.84553" lon="6.56777">
        <ele>419.34272514018</ele>
        <time>2021-08-21T10:28:54Z</time>
      </trkpt>
      <trkpt lat="47.84558" lon="6.56789">
        <ele>419.38850721252</ele>
        <time>2021-08-21T10:28:56Z</time>
      </trkpt>
      <trkpt lat="47.84564" lon="6.568">
        <ele>419.43961159658</ele>
        <time>2021-08-21T10:28:58Z</time>
      </trkpt>
      <trkpt lat="47.84571" lon="6.56808">
        <ele>419.50145312783</ele>
        <time>2021-08-21T10:29:00Z</time>
      </trkpt>
      <trkpt lat="47.84579" lon="6.56815">
        <ele>419.56139408097</ele>
        <time>2021-08-21T10:29:02Z</time>
      </trkpt>
      <trkpt lat="47.84587" lon="6.56821">
        <ele>419.63732273667</ele>
        <time>2021-08-21T10:29:04Z</time>
      </trkpt>
      <trkpt lat="47.84598" lon="6.56826">
        <ele>419.71113863283</ele>
        <time>2021-08-21T10:29:06Z</time>
      </trkpt>
      <trkpt lat="47.8461" lon="6.56828">
        <ele>419.7816673224</ele>
        <time>2021-08-21T10:29:08Z</time>
      </trkpt>
      <trkpt lat="47.84622" lon="6.56826">
        <ele>419.82967081234</ele>
        <time>2021-08-21T10:29:10Z</time>
      </trkpt>
      <trkpt lat="47.84634" lon="6.56822">
        <ele>419.86813440401</ele>
        <time>2021-08-21T10:29:12Z</time>
      </trkpt>
      <trkpt lat="47.84648" lon="6.56819">
        <ele>419.92018895933</ele>
        <time>2021-08-21T10:29:14Z</time>
      </trkpt>
      <trkpt lat="47.84662" lon="6.56821">
        <ele>419.96587301527</ele>
        <time>2021-08-21T10:29:16Z</time>
      </trkpt>
      <trkpt lat="47.84676" lon="6.56827">
        <ele>420.01237343825</ele>
        <time>2021-08-21T10:29:18Z</time>
      </trkpt>
      <trkpt lat="47.84687" lon="6.5684">
        <ele>420.08226831004</ele>
        <time>2021-08-21T10:29:20Z</time>
      </trkpt>
      <trkpt lat="47.84696" lon="6.56853">
        <ele>420.18626724538</ele>
        <time>2021-08-21T10:29:22Z</time>
      </trkpt>
      <trkpt lat="47.84704" lon="6.56868">
        <ele>420.25512456749</ele>
        <time>2021-08-21T10:29:24Z</time>
      </trkpt>
      <trkpt lat="47.84713" lon="6.56881">
        <ele>420.24917775003</ele>
        <time>2021-08-21T10:29:26Z</time>
      </trkpt>
      <trkpt lat="47.84722" lon="6.56892">
        <ele>420.36545662334</ele>
        <time>2021-08-21T10:29:28Z</time>
      </trkpt>
      <trkpt lat="47.84734" lon="6.56901">
        <ele>420.37250625015</ele>
        <time>2021-08-21T10:29:30Z</time>
      </trkpt>
      <trkpt lat="47.84746" lon="6.56909">
        <ele>420.38920115759</ele>
        <time>2021-08-21T10:29:32Z</time>
      </trkpt>
      <trkpt lat="47.84758" lon="6.56917">
        <ele>420.31532057163</ele>
        <time>2021-08-21T10:29:34Z</time>
      </trkpt>
      <trkpt lat="47.8477" lon="6.56927">
        <ele>420.22983102346</ele>
        <time>2021-08-21T10:29:36Z</time>
      </trkpt>
      <trkpt lat="47.84782" lon="6.5694">
        <ele>420.1344842415</ele>
        <time>2021-08-21T10:29:38Z</time>
      </trkpt>
      <trkpt lat="47.84793" lon="6.56952">
        <ele>420.16281160872</ele>
        <time>2021-08-21T10:29:40Z</time>
      </trkpt>
      <trkpt lat="47.84802" lon="6.56967">
        <ele>420.25687620481</ele>
        <time>2021-08-21T10:29:42Z</time>
      </trkpt>
      <trkpt lat="47.84808" lon="6.56985">
        <ele>420.46656618134</ele>
        <time>2021-08-21T10:29:44Z</time>
      </trkpt>
      <trkpt lat="47.84814" lon="6.57001">
        <ele>420.80653968406</ele>
        <time>2021-08-21T10:29:46Z</time>
      </trkpt>
      <trkpt lat="47.84821" lon="6.57017">
        <ele>421.29012347534</ele>
        <time>2021-08-21T10:29:48Z</time>
      </trkpt>
      <trkpt lat="47.84829" lon="6.57031">
        <ele>421.58786750629</ele>
        <time>2021-08-21T10:29:50Z</time>
      </trkpt>
      <trkpt lat="47.84837" lon="6.57044">
        <ele>421.82780736509</ele>
        <time>2021-08-21T10:29:52Z</time>
      </trkpt>
      <trkpt lat="47.84845" lon="6.57059">
        <ele>421.90026414353</ele>
        <time>2021-08-21T10:29:54Z</time>
      </trkpt>
      <trkpt lat="47.84852" lon="6.57074">
        <ele>422.14467372124</ele>
        <time>2021-08-21T10:29:56Z</time>
      </trkpt>
      <trkpt lat="47.8486" lon="6.57089">
        <ele>422.27284974922</ele>
        <time>2021-08-21T10:29:58Z</time>
      </trkpt>
      <trkpt lat="47.84867" lon="6.57104">
        <ele>422.35488967883</ele>
        <time>2021-08-21T10:30:00Z</time>
      </trkpt>
      <trkpt lat="47.84874" lon="6.57119">
        <ele>422.36989895092</ele>
        <time>2021-08-21T10:30:02Z</time>
      </trkpt>
      <trkpt lat="47.8488" lon="6.57134">
        <ele>422.32837144206</ele>
        <time>2021-08-21T10:30:04Z</time>
      </trkpt>
      <trkpt lat="47.84885" lon="6.57151">
        <ele>422.37514709177</ele>
        <time>2021-08-21T10:30:06Z</time>
      </trkpt>
      <trkpt lat="47.8489" lon="6.57167">
        <ele>422.48888718268</ele>
        <time>2021-08-21T10:30:08Z</time>
      </trkpt>
      <trkpt lat="47.84892" lon="6.57184">
        <ele>422.63540952239</ele>
        <time>2021-08-21T10:30:10Z</time>
      </trkpt>
      <trkpt lat="47.84895" lon="6.572">
        <ele>422.91773456019</ele>
        <time>2021-08-21T10:30:12Z</time>
      </trkpt>
      <trkpt lat="47.84899" lon="6.57217">
        <ele>422.99319616172</ele>
        <time>2021-08-21T10:30:14Z</time>
      </trkpt>
      <trkpt lat="47.84904" lon="6.57233">
        <ele>423.03679036139</ele>
        <time>2021-08-21T10:30:16Z</time>
      </trkpt>
      <trkpt lat="47.84908" lon="6.57248">
        <ele>423.03044538397</ele>
        <time>2021-08-21T10:30:18Z</time>
      </trkpt>
      <trkpt lat="47.84912" lon="6.57264">
        <ele>422.91722989334</ele>
        <time>2021-08-21T10:30:20Z</time>
      </trkpt>
      <trkpt lat="47.84914" lon="6.57279">
        <ele>422.63174641402</ele>
        <time>2021-08-21T10:30:22Z</time>
      </trkpt>
      <trkpt lat="47.84916" lon="6.57296">
        <ele>422.60556742893</ele>
        <time>2021-08-21T10:30:24Z</time>
      </trkpt>
      <trkpt lat="47.84917" lon="6.57312">
        <ele>422.52932509962</ele>
        <time>2021-08-21T10:30:26Z</time>
      </trkpt>
      <trkpt lat="47.84917" lon="6.57328">
        <ele>422.54833933195</ele>
        <time>2021-08-21T10:30:28Z</time>
      </trkpt>
      <trkpt lat="47.84917" lon="6.57344">
        <ele>422.44770084019</ele>
        <time>2021-08-21T10:30:30Z</time>
      </trkpt>
      <trkpt lat="47.84918" lon="6.57361">
        <ele>422.40879782127</ele>
        <time>2021-08-21T10:30:32Z</time>
      </trkpt>
      <trkpt lat="47.84918" lon="6.57377">
        <ele>422.63952284247</ele>
        <time>2021-08-21T10:30:34Z</time>
      </trkpt>
      <trkpt lat="47.84918" lon="6.57394">
        <ele>422.73019611422</ele>
        <time>2021-08-21T10:30:36Z</time>
      </trkpt>
      <trkpt lat="47.84917" lon="6.57409">
        <ele>422.74227869507</ele>
        <time>2021-08-21T10:30:38Z</time>
      </trkpt>
      <trkpt lat="47.84917" lon="6.57425">
        <ele>422.72944895537</ele>
        <time>2021-08-21T10:30:40Z</time>
      </trkpt>
      <trkpt lat="47.84916" lon="6.57441">
        <ele>422.69558676659</ele>
        <time>2021-08-21T10:30:42Z</time>
      </trkpt>
      <trkpt lat="47.84915" lon="6.57457">
        <ele>422.66606095306</ele>
        <time>2021-08-21T10:30:44Z</time>
      </trkpt>
      <trkpt lat="47.84914" lon="6.57472">
        <ele>422.63026294101</ele>
        <time>2021-08-21T10:30:46Z</time>
      </trkpt>
      <trkpt lat="47.84913" lon="6.57487">
        <ele>422.64076504356</ele>
        <time>2021-08-21T10:30:48Z</time>
      </trkpt>
      <trkpt lat="47.84911" lon="6.57503">
        <ele>422.66089015566</ele>
        <time>2021-08-21T10:30:50Z</time>
      </trkpt>
      <trkpt lat="47.8491" lon="6.5752">
        <ele>422.60972679542</ele>
        <time>2021-08-21T10:30:52Z</time>
      </trkpt>
      <trkpt lat="47.84911" lon="6.57536">
        <ele>422.58038985954</ele>
        <time>2021-08-21T10:30:54Z</time>
      </trkpt>
      <trkpt lat="47.84914" lon="6.57552">
        <ele>422.56413205385</ele>
        <time>2021-08-21T10:30:56Z</time>
      </trkpt>
      <trkpt lat="47.84919" lon="6.57568">
        <ele>422.49073725701</ele>
        <time>2021-08-21T10:30:58Z</time>
      </trkpt>
      <trkpt lat="47.84924" lon="6.57584">
        <ele>422.38046364062</ele>
        <time>2021-08-21T10:31:00Z</time>
      </trkpt>
      <trkpt lat="47.84929" lon="6.57602">
        <ele>422.24196165755</ele>
        <time>2021-08-21T10:31:02Z</time>
      </trkpt>
      <trkpt lat="47.84932" lon="6.57621">
        <ele>422.1372199874</ele>
        <time>2021-08-21T10:31:04Z</time>
      </trkpt>
      <trkpt lat="47.84934" lon="6.57639">
        <ele>422.11908031984</ele>
        <time>2021-08-21T10:31:06Z</time>
      </trkpt>
      <trkpt lat="47.84935" lon="6.57657">
        <ele>422.20783366639</ele>
        <time>2021-08-21T10:31:08Z</time>
      </trkpt>
      <trkpt lat="47.84935" lon="6.57675">
        <ele>422.33502378707</ele>
        <time>2021-08-21T10:31:10Z</time>
      </trkpt>
      <trkpt lat="47.84936" lon="6.57693">
        <ele>422.48834940074</ele>
        <time>2021-08-21T10:31:12Z</time>
      </trkpt>
      <trkpt lat="47.84939" lon="6.57711">
        <ele>422.64108716592</ele>
        <time>2021-08-21T10:31:14Z</time>
      </trkpt>
      <trkpt lat="47.84943" lon="6.57727">
        <ele>422.7590684673</ele>
        <time>2021-08-21T10:31:16Z</time>
      </trkpt>
      <trkpt lat="47.84948" lon="6.57743">
        <ele>422.76940392401</ele>
        <time>2021-08-21T10:31:18Z</time>
      </trkpt>
      <trkpt lat="47.84954" lon="6.57759">
        <ele>422.7659843135</ele>
        <time>2021-08-21T10:31:20Z</time>
      </trkpt>
      <trkpt lat="47.8496" lon="6.57772">
        <ele>422.78326219592</ele>
        <time>2021-08-21T10:31:22Z</time>
      </trkpt>
      <trkpt lat="47.84967" lon="6.57784">
        <ele>422.82079421403</ele>
        <time>2021-08-21T10:31:24Z</time>
      </trkpt>
      <trkpt lat="47.84973" lon="6.57796">
        <ele>422.80295670204</ele>
        <time>2021-08-21T10:31:26Z</time>
      </trkpt>
      <trkpt lat="47.84978" lon="6.57807">
        <ele>422.81696943056</ele>
        <time>2021-08-21T10:31:28Z</time>
      </trkpt>
      <trkpt lat="47.84984" lon="6.57818">
        <ele>422.81871164538</ele>
        <time>2021-08-21T10:31:30Z</time>
      </trkpt>
      <trkpt lat="47.84989" lon="6.5783">
        <ele>422.78369840678</ele>
        <time>2021-08-21T10:31:32Z</time>
      </trkpt>
      <trkpt lat="47.84994" lon="6.57845">
        <ele>422.77234142669</ele>
        <time>2021-08-21T10:31:34Z</time>
      </trkpt>
      <trkpt lat="47.84998" lon="6.5786">
        <ele>422.8814148563</ele>
        <time>2021-08-21T10:31:36Z</time>
      </trkpt>
      <trkpt lat="47.85001" lon="6.57876">
        <ele>422.96463555904</ele>
        <time>2021-08-21T10:31:38Z</time>
      </trkpt>
      <trkpt lat="47.85001" lon="6.57892">
        <ele>423.06892878023</ele>
        <time>2021-08-21T10:31:40Z</time>
      </trkpt>
      <trkpt lat="47.85" lon="6.57909">
        <ele>423.1770182919</ele>
        <time>2021-08-21T10:31:42Z</time>
      </trkpt>
      <trkpt lat="47.84998" lon="6.57926">
        <ele>423.27323832365</ele>
        <time>2021-08-21T10:31:44Z</time>
      </trkpt>
      <trkpt lat="47.84995" lon="6.57943">
        <ele>423.33168154586</ele>
        <time>2021-08-21T10:31:46Z</time>
      </trkpt>
      <trkpt lat="47.84992" lon="6.5796">
        <ele>423.33255299114</ele>
        <time>2021-08-21T10:31:48Z</time>
      </trkpt>
      <trkpt lat="47.8499" lon="6.57976">
        <ele>423.332615373</ele>
        <time>2021-08-21T10:31:50Z</time>
      </trkpt>
      <trkpt lat="47.84987" lon="6.57993">
        <ele>423.32762807726</ele>
        <time>2021-08-21T10:31:52Z</time>
      </trkpt>
      <trkpt lat="47.84986" lon="6.58009">
        <ele>423.31292582753</ele>
        <time>2021-08-21T10:31:54Z</time>
      </trkpt>
      <trkpt lat="47.84985" lon="6.58027">
        <ele>423.31923894574</ele>
        <time>2021-08-21T10:31:56Z</time>
      </trkpt>
      <trkpt lat="47.84985" lon="6.58044">
        <ele>423.33276748446</ele>
        <time>2021-08-21T10:31:58Z</time>
      </trkpt>
      <trkpt lat="47.84985" lon="6.58062">
        <ele>423.35896139939</ele>
        <time>2021-08-21T10:32:00Z</time>
      </trkpt>
      <trkpt lat="47.84986" lon="6.58078">
        <ele>423.37518592649</ele>
        <time>2021-08-21T10:32:02Z</time>
      </trkpt>
      <trkpt lat="47.84989" lon="6.58095">
        <ele>423.4001352585</ele>
        <time>2021-08-21T10:32:04Z</time>
      </trkpt>
      <trkpt lat="47.84992" lon="6.58109">
        <ele>423.42806363904</ele>
        <time>2021-08-21T10:32:06Z</time>
      </trkpt>
      <trkpt lat="47.84995" lon="6.58124">
        <ele>423.44856974029</ele>
        <time>2021-08-21T10:32:08Z</time>
      </trkpt>
      <trkpt lat="47.84998" lon="6.5814">
        <ele>423.46931053473</ele>
        <time>2021-08-21T10:32:10Z</time>
      </trkpt>
      <trkpt lat="47.85001" lon="6.58157">
        <ele>423.49493409663</ele>
        <time>2021-08-21T10:32:12Z</time>
      </trkpt>
      <trkpt lat="47.85003" lon="6.58174">
        <ele>423.50916976583</ele>
        <time>2021-08-21T10:32:14Z</time>
      </trkpt>
      <trkpt lat="47.85006" lon="6.58191">
        <ele>423.5202155565</ele>
        <time>2021-08-21T10:32:16Z</time>
      </trkpt>
      <trkpt lat="47.85007" lon="6.58209">
        <ele>423.53557276946</ele>
        <time>2021-08-21T10:32:18Z</time>
      </trkpt>
      <trkpt lat="47.85008" lon="6.58227">
        <ele>423.57261336424</ele>
        <time>2021-08-21T10:32:20Z</time>
      </trkpt>
      <trkpt lat="47.85009" lon="6.58245">
        <ele>423.61850589504</ele>
        <time>2021-08-21T10:32:22Z</time>
      </trkpt>
      <trkpt lat="47.85008" lon="6.58264">
        <ele>423.64728395341</ele>
        <time>2021-08-21T10:32:24Z</time>
      </trkpt>
      <trkpt lat="47.85006" lon="6.58281">
        <ele>423.65275319147</ele>
        <time>2021-08-21T10:32:26Z</time>
      </trkpt>
      <trkpt lat="47.85002" lon="6.58297">
        <ele>423.69476887586</ele>
        <time>2021-08-21T10:32:28Z</time>
      </trkpt>
      <trkpt lat="47.84997" lon="6.58313">
        <ele>423.78785939331</ele>
        <time>2021-08-21T10:32:30Z</time>
      </trkpt>
      <trkpt lat="47.84992" lon="6.58329">
        <ele>423.80740633634</ele>
        <time>2021-08-21T10:32:32Z</time>
      </trkpt>
      <trkpt lat="47.84987" lon="6.58345">
        <ele>423.89464696706</ele>
        <time>2021-08-21T10:32:34Z</time>
      </trkpt>
      <trkpt lat="47.84982" lon="6.58361">
        <ele>424.02965706597</ele>
        <time>2021-08-21T10:32:36Z</time>
      </trkpt>
      <trkpt lat="47.84977" lon="6.58377">
        <ele>424.21808844128</ele>
        <time>2021-08-21T10:32:38Z</time>
      </trkpt>
      <trkpt lat="47.84972" lon="6.58392">
        <ele>424.38756483232</ele>
        <time>2021-08-21T10:32:40Z</time>
      </trkpt>
      <trkpt lat="47.84967" lon="6.58407">
        <ele>424.39058749216</ele>
        <time>2021-08-21T10:32:42Z</time>
      </trkpt>
      <trkpt lat="47.84962" lon="6.58421">
        <ele>424.49414683083</ele>
        <time>2021-08-21T10:32:44Z</time>
      </trkpt>
      <trkpt lat="47.84957" lon="6.58436">
        <ele>424.47188042709</ele>
        <time>2021-08-21T10:32:46Z</time>
      </trkpt>
      <trkpt lat="47.84952" lon="6.5845">
        <ele>424.40026762812</ele>
        <time>2021-08-21T10:32:48Z</time>
      </trkpt>
      <trkpt lat="47.84947" lon="6.58465">
        <ele>424.41004494527</ele>
        <time>2021-08-21T10:32:50Z</time>
      </trkpt>
      <trkpt lat="47.84941" lon="6.5848">
        <ele>424.4911799138</ele>
        <time>2021-08-21T10:32:52Z</time>
      </trkpt>
      <trkpt lat="47.84935" lon="6.58494">
        <ele>424.660289401</ele>
        <time>2021-08-21T10:32:54Z</time>
      </trkpt>
      <trkpt lat="47.84929" lon="6.58507">
        <ele>424.85708205442</ele>
        <time>2021-08-21T10:32:56Z</time>
      </trkpt>
      <trkpt lat="47.84923" lon="6.58521">
        <ele>424.94696284452</ele>
        <time>2021-08-21T10:32:58Z</time>
      </trkpt>
      <trkpt lat="47.84918" lon="6.58534">
        <ele>424.89102397593</ele>
        <time>2021-08-21T10:33:00Z</time>
      </trkpt>
      <trkpt lat="47.84913" lon="6.58548">
        <ele>424.83659814061</ele>
        <time>2021-08-21T10:33:02Z</time>
      </trkpt>
      <trkpt lat="47.84907" lon="6.58562">
        <ele>424.81915493153</ele>
        <time>2021-08-21T10:33:04Z</time>
      </trkpt>
      <trkpt lat="47.84902" lon="6.58577">
        <ele>424.86303666</ele>
        <time>2021-08-21T10:33:06Z</time>
      </trkpt>
      <trkpt lat="47.84897" lon="6.58591">
        <ele>424.92722224434</ele>
        <time>2021-08-21T10:33:08Z</time>
      </trkpt>
      <trkpt lat="47.84891" lon="6.58605">
        <ele>424.99541968605</ele>
        <time>2021-08-21T10:33:10Z</time>
      </trkpt>
      <trkpt lat="47.84885" lon="6.58618">
        <ele>425.02726711698</ele>
        <time>2021-08-21T10:33:12Z</time>
      </trkpt>
      <trkpt lat="47.84879" lon="6.58631">
        <ele>425.02873265056</ele>
        <time>2021-08-21T10:33:14Z</time>
      </trkpt>
      <trkpt lat="47.84872" lon="6.58644">
        <ele>425.00360929619</ele>
        <time>2021-08-21T10:33:16Z</time>
      </trkpt>
      <trkpt lat="47.84866" lon="6.58657">
        <ele>424.96557125107</ele>
        <time>2021-08-21T10:33:18Z</time>
      </trkpt>
      <trkpt lat="47.84859" lon="6.5867">
        <ele>424.90414118741</ele>
        <time>2021-08-21T10:33:20Z</time>
      </trkpt>
      <trkpt lat="47.84852" lon="6.58684">
        <ele>424.85051248949</ele>
        <time>2021-08-21T10:33:22Z</time>
      </trkpt>
      <trkpt lat="47.84846" lon="6.58698">
        <ele>424.80606864544</ele>
        <time>2021-08-21T10:33:24Z</time>
      </trkpt>
      <trkpt lat="47.8484" lon="6.58713">
        <ele>424.74759179186</ele>
        <time>2021-08-21T10:33:26Z</time>
      </trkpt>
      <trkpt lat="47.84836" lon="6.58727">
        <ele>424.69177538866</ele>
        <time>2021-08-21T10:33:28Z</time>
      </trkpt>
      <trkpt lat="47.84834" lon="6.58744">
        <ele>424.66300288786</ele>
        <time>2021-08-21T10:33:30Z</time>
      </trkpt>
      <trkpt lat="47.84835" lon="6.58762">
        <ele>424.68870665429</ele>
        <time>2021-08-21T10:33:32Z</time>
      </trkpt>
      <trkpt lat="47.84839" lon="6.58781">
        <ele>424.77607552016</ele>
        <time>2021-08-21T10:33:34Z</time>
      </trkpt>
      <trkpt lat="47.8484" lon="6.588">
        <ele>424.8989884172</ele>
        <time>2021-08-21T10:33:36Z</time>
      </trkpt>
      <trkpt lat="47.84837" lon="6.58819">
        <ele>425.05670214257</ele>
        <time>2021-08-21T10:33:38Z</time>
      </trkpt>
      <trkpt lat="47.84835" lon="6.58837">
        <ele>425.26678293231</ele>
        <time>2021-08-21T10:33:40Z</time>
      </trkpt>
      <trkpt lat="47.84833" lon="6.58854">
        <ele>425.47721033267</ele>
        <time>2021-08-21T10:33:42Z</time>
      </trkpt>
      <trkpt lat="47.84832" lon="6.58867">
        <ele>425.58190387941</ele>
        <time>2021-08-21T10:33:44Z</time>
      </trkpt>
      <trkpt lat="47.84827" lon="6.58877">
        <ele>425.75095078282</ele>
        <time>2021-08-21T10:33:46Z</time>
      </trkpt>
      <trkpt lat="47.84816" lon="6.58879">
        <ele>426.00842583264</ele>
        <time>2021-08-21T10:33:48Z</time>
      </trkpt>
      <trkpt lat="47.84806" lon="6.58872">
        <ele>426.24159152262</ele>
        <time>2021-08-21T10:33:50Z</time>
      </trkpt>
      <trkpt lat="47.84795" lon="6.58863">
        <ele>426.47541948295</ele>
        <time>2021-08-21T10:33:52Z</time>
      </trkpt>
      <trkpt lat="47.84786" lon="6.58853">
        <ele>426.81570802788</ele>
        <time>2021-08-21T10:33:54Z</time>
      </trkpt>
      <trkpt lat="47.84778" lon="6.58843">
        <ele>427.18888713963</ele>
        <time>2021-08-21T10:33:56Z</time>
      </trkpt>
      <trkpt lat="47.8477" lon="6.58835">
        <ele>427.57455279981</ele>
        <time>2021-08-21T10:33:58Z</time>
      </trkpt>
      <trkpt lat="47.84764" lon="6.58827">
        <ele>427.95658866818</ele>
        <time>2021-08-21T10:34:00Z</time>
      </trkpt>
      <trkpt lat="47.84759" lon="6.5882">
        <ele>428.14896273541</ele>
        <time>2021-08-21T10:34:02Z</time>
      </trkpt>
      <trkpt lat="47.84753" lon="6.58813">
        <ele>428.18935697119</ele>
        <time>2021-08-21T10:34:04Z</time>
      </trkpt>
      <trkpt lat="47.84748" lon="6.58808">
        <ele>428.24690150774</ele>
        <time>2021-08-21T10:34:06Z</time>
      </trkpt>
      <trkpt lat="47.84742" lon="6.58803">
        <ele>428.33002258792</ele>
        <time>2021-08-21T10:34:08Z</time>
      </trkpt>
      <trkpt lat="47.84736" lon="6.588">
        <ele>428.44188288237</ele>
        <time>2021-08-21T10:34:10Z</time>
      </trkpt>
      <trkpt lat="47.8473" lon="6.58798">
        <ele>428.55832838287</ele>
        <time>2021-08-21T10:34:12Z</time>
      </trkpt>
      <trkpt lat="47.84724" lon="6.58798">
        <ele>428.6776857095</ele>
        <time>2021-08-21T10:34:14Z</time>
      </trkpt>
      <trkpt lat="47.84718" lon="6.58799">
        <ele>428.80167894562</ele>
        <time>2021-08-21T10:34:16Z</time>
      </trkpt>
      <trkpt lat="47.84712" lon="6.58801">
        <ele>428.92998722761</ele>
        <time>2021-08-21T10:34:18Z</time>
      </trkpt>
      <trkpt lat="47.84707" lon="6.58803">
        <ele>429.05925761929</ele>
        <time>2021-08-21T10:34:20Z</time>
      </trkpt>
      <trkpt lat="47.84702" lon="6.58805">
        <ele>429.1878385777</ele>
        <time>2021-08-21T10:34:22Z</time>
      </trkpt>
      <trkpt lat="47.84698" lon="6.58809">
        <ele>429.31458077235</ele>
        <time>2021-08-21T10:34:24Z</time>
      </trkpt>
      <trkpt lat="47.84693" lon="6.58813">
        <ele>429.44048209796</ele>
        <time>2021-08-21T10:34:26Z</time>
      </trkpt>
      <trkpt lat="47.84689" lon="6.58817">
        <ele>429.56252086745</ele>
        <time>2021-08-21T10:34:28Z</time>
      </trkpt>
      <trkpt lat="47.84686" lon="6.58823">
        <ele>429.68053638766</ele>
        <time>2021-08-21T10:34:30Z</time>
      </trkpt>
      <trkpt lat="47.84684" lon="6.58829">
        <ele>429.79552061513</ele>
        <time>2021-08-21T10:34:32Z</time>
      </trkpt>
      <trkpt lat="47.84681" lon="6.58836">
        <ele>429.90780208895</ele>
        <time>2021-08-21T10:34:34Z</time>
      </trkpt>
      <trkpt lat="47.8468" lon="6.58842">
        <ele>430.01903954298</ele>
        <time>2021-08-21T10:34:36Z</time>
      </trkpt>
      <trkpt lat="47.84679" lon="6.58849">
        <ele>430.1278197419</ele>
        <time>2021-08-21T10:34:38Z</time>
      </trkpt>
      <trkpt lat="47.84678" lon="6.58857">
        <ele>430.23434069574</ele>
        <time>2021-08-21T10:34:40Z</time>
      </trkpt>
      <trkpt lat="47.84679" lon="6.58865">
        <ele>430.34903471118</ele>
        <time>2021-08-21T10:34:42Z</time>
      </trkpt>
      <trkpt lat="47.84679" lon="6.58873">
        <ele>430.47202106358</ele>
        <time>2021-08-21T10:34:44Z</time>
      </trkpt>
      <trkpt lat="47.8468" lon="6.5888">
        <ele>430.59447570512</ele>
        <time>2021-08-21T10:34:46Z</time>
      </trkpt>
      <trkpt lat="47.84681" lon="6.58888">
        <ele>430.71598699923</ele>
        <time>2021-08-21T10:34:48Z</time>
      </trkpt>
      <trkpt lat="47.84684" lon="6.58895">
        <ele>430.83685263167</ele>
        <time>2021-08-21T10:34:50Z</time>
      </trkpt>
      <trkpt lat="47.84686" lon="6.58901">
        <ele>430.95839997393</ele>
        <time>2021-08-21T10:34:52Z</time>
      </trkpt>
      <trkpt lat="47.8469" lon="6.58908">
        <ele>431.08329643539</ele>
        <time>2021-08-21T10:34:54Z</time>
      </trkpt>
      <trkpt lat="47.84694" lon="6.58913">
        <ele>431.21328766381</ele>
        <time>2021-08-21T10:34:56Z</time>
      </trkpt>
      <trkpt lat="47.84698" lon="6.5892">
        <ele>431.35183519838</ele>
        <time>2021-08-21T10:34:58Z</time>
      </trkpt>
      <trkpt lat="47.84702" lon="6.58925">
        <ele>431.50095248449</ele>
        <time>2021-08-21T10:35:00Z</time>
      </trkpt>
      <trkpt lat="47.84708" lon="6.58929">
        <ele>431.66069140615</ele>
        <time>2021-08-21T10:35:02Z</time>
      </trkpt>
      <trkpt lat="47.84713" lon="6.58934">
        <ele>431.83095947436</ele>
        <time>2021-08-21T10:35:04Z</time>
      </trkpt>
      <trkpt lat="47.84718" lon="6.58939">
        <ele>432.0077121525</ele>
        <time>2021-08-21T10:35:06Z</time>
      </trkpt>
      <trkpt lat="47.84723" lon="6.58943">
        <ele>432.19245863574</ele>
        <time>2021-08-21T10:35:08Z</time>
      </trkpt>
      <trkpt lat="47.84727" lon="6.58945">
        <ele>432.3849817186</ele>
        <time>2021-08-21T10:35:10Z</time>
      </trkpt>
      <trkpt lat="47.84731" lon="6.58946">
        <ele>432.57972697049</ele>
        <time>2021-08-21T10:35:12Z</time>
      </trkpt>
      <trkpt lat="47.84734" lon="6.58948">
        <ele>432.77538194369</ele>
        <time>2021-08-21T10:35:14Z</time>
      </trkpt>
      <trkpt lat="47.84739" lon="6.5895">
        <ele>432.97178089302</ele>
        <time>2021-08-21T10:35:16Z</time>
      </trkpt>
      <trkpt lat="47.84744" lon="6.58952">
        <ele>433.16944204284</ele>
        <time>2021-08-21T10:35:18Z</time>
      </trkpt>
      <trkpt lat="47.84748" lon="6.58954">
        <ele>433.37009012517</ele>
        <time>2021-08-21T10:35:20Z</time>
      </trkpt>
      <trkpt lat="47.84753" lon="6.58955">
        <ele>433.57182277699</ele>
        <time>2021-08-21T10:35:22Z</time>
      </trkpt>
      <trkpt lat="47.84757" lon="6.58957">
        <ele>433.77136916613</ele>
        <time>2021-08-21T10:35:24Z</time>
      </trkpt>
      <trkpt lat="47.84761" lon="6.58959">
        <ele>433.96606564483</ele>
        <time>2021-08-21T10:35:26Z</time>
      </trkpt>
      <trkpt lat="47.84766" lon="6.58961">
        <ele>434.15976644787</ele>
        <time>2021-08-21T10:35:28Z</time>
      </trkpt>
      <trkpt lat="47.84772" lon="6.58963">
        <ele>434.35449365411</ele>
        <time>2021-08-21T10:35:30Z</time>
      </trkpt>
      <trkpt lat="47.84778" lon="6.58965">
        <ele>434.55253538482</ele>
        <time>2021-08-21T10:35:32Z</time>
      </trkpt>
      <trkpt lat="47.84785" lon="6.5897">
        <ele>434.75365367614</ele>
        <time>2021-08-21T10:35:34Z</time>
      </trkpt>
      <trkpt lat="47.8479" lon="6.58973">
        <ele>434.95626079898</ele>
        <time>2021-08-21T10:35:36Z</time>
      </trkpt>
      <trkpt lat="47.84794" lon="6.58974">
        <ele>435.16040280685</ele>
        <time>2021-08-21T10:35:38Z</time>
      </trkpt>
      <trkpt lat="47.84799" lon="6.58979">
        <ele>435.36929034944</ele>
        <time>2021-08-21T10:35:40Z</time>
      </trkpt>
      <trkpt lat="47.84799" lon="6.58984">
        <ele>435.58208822396</ele>
        <time>2021-08-21T10:35:42Z</time>
      </trkpt>
      <trkpt lat="47.84796" lon="6.58989">
        <ele>435.80049387109</ele>
        <time>2021-08-21T10:35:44Z</time>
      </trkpt>
      <trkpt lat="47.84792" lon="6.5899">
        <ele>436.02979872946</ele>
        <time>2021-08-21T10:35:46Z</time>
      </trkpt>
      <trkpt lat="47.84789" lon="6.58989">
        <ele>436.26418109436</ele>
        <time>2021-08-21T10:35:48Z</time>
      </trkpt>
      <trkpt lat="47.84784" lon="6.58989">
        <ele>436.50551849199</ele>
        <time>2021-08-21T10:35:50Z</time>
      </trkpt>
      <trkpt lat="47.84779" lon="6.58989">
        <ele>436.75437280006</ele>
        <time>2021-08-21T10:35:52Z</time>
      </trkpt>
      <trkpt lat="47.84773" lon="6.58988">
        <ele>437.00580244243</ele>
        <time>2021-08-21T10:35:54Z</time>
      </trkpt>
      <trkpt lat="47.84768" lon="6.58987">
        <ele>437.26229813982</ele>
        <time>2021-08-21T10:35:56Z</time>
      </trkpt>
      <trkpt lat="47.84763" lon="6.58987">
        <ele>437.52133490935</ele>
        <time>2021-08-21T10:35:58Z</time>
      </trkpt>
      <trkpt lat="47.84758" lon="6.58986">
        <ele>437.78227356903</ele>
        <time>2021-08-21T10:36:00Z</time>
      </trkpt>
      <trkpt lat="47.84752" lon="6.58985">
        <ele>438.04737541494</ele>
        <time>2021-08-21T10:36:02Z</time>
      </trkpt>
      <trkpt lat="47.84746" lon="6.58985">
        <ele>438.31486243615</ele>
        <time>2021-08-21T10:36:04Z</time>
      </trkpt>
      <trkpt lat="47.84741" lon="6.58987">
        <ele>438.58647197442</ele>
        <time>2021-08-21T10:36:06Z</time>
      </trkpt>
      <trkpt lat="47.84736" lon="6.58989">
        <ele>438.86216990314</ele>
        <time>2021-08-21T10:36:08Z</time>
      </trkpt>
      <trkpt lat="47.84733" lon="6.58994">
        <ele>439.13946296371</ele>
        <time>2021-08-21T10:36:10Z</time>
      </trkpt>
      <trkpt lat="47.8473" lon="6.59">
        <ele>439.41617899181</ele>
        <time>2021-08-21T10:36:12Z</time>
      </trkpt>
      <trkpt lat="47.84727" lon="6.59007">
        <ele>439.68958139408</ele>
        <time>2021-08-21T10:36:14Z</time>
      </trkpt>
      <trkpt lat="47.84727" lon="6.59015">
        <ele>439.966339504</ele>
        <time>2021-08-21T10:36:16Z</time>
      </trkpt>
      <trkpt lat="47.84727" lon="6.59021">
        <ele>440.24161506228</ele>
        <time>2021-08-21T10:36:18Z</time>
      </trkpt>
      <trkpt lat="47.84729" lon="6.59025">
        <ele>440.51336677987</ele>
        <time>2021-08-21T10:36:20Z</time>
      </trkpt>
      <trkpt lat="47.84734" lon="6.59028">
        <ele>440.79066343776</ele>
        <time>2021-08-21T10:36:22Z</time>
      </trkpt>
      <trkpt lat="47.84739" lon="6.59027">
        <ele>441.07505523279</ele>
        <time>2021-08-21T10:36:24Z</time>
      </trkpt>
      <trkpt lat="47.84746" lon="6.59024">
        <ele>441.37789767116</ele>
        <time>2021-08-21T10:36:26Z</time>
      </trkpt>
      <trkpt lat="47.84751" lon="6.5902">
        <ele>441.69102514357</ele>
        <time>2021-08-21T10:36:28Z</time>
      </trkpt>
      <trkpt lat="47.84755" lon="6.59018">
        <ele>442.00940082907</ele>
        <time>2021-08-21T10:36:30Z</time>
      </trkpt>
      <trkpt lat="47.8476" lon="6.59018">
        <ele>442.32096506818</ele>
        <time>2021-08-21T10:36:32Z</time>
      </trkpt>
      <trkpt lat="47.84763" lon="6.59021">
        <ele>442.62650176703</ele>
        <time>2021-08-21T10:36:34Z</time>
      </trkpt>
      <trkpt lat="47.84766" lon="6.59026">
        <ele>442.92633532246</ele>
        <time>2021-08-21T10:36:36Z</time>
      </trkpt>
      <trkpt lat="47.8477" lon="6.59031">
        <ele>443.22008821405</ele>
        <time>2021-08-21T10:36:38Z</time>
      </trkpt>
      <trkpt lat="47.84773" lon="6.59036">
        <ele>443.51200133567</ele>
        <time>2021-08-21T10:36:40Z</time>
      </trkpt>
      <trkpt lat="47.84776" lon="6.59039">
        <ele>443.80534435693</ele>
        <time>2021-08-21T10:36:42Z</time>
      </trkpt>
      <trkpt lat="47.84778" lon="6.59042">
        <ele>444.09468398733</ele>
        <time>2021-08-21T10:36:44Z</time>
      </trkpt>
      <trkpt lat="47.84781" lon="6.59045">
        <ele>444.37844487803</ele>
        <time>2021-08-21T10:36:46Z</time>
      </trkpt>
      <trkpt lat="47.84784" lon="6.59048">
        <ele>444.65853824504</ele>
        <time>2021-08-21T10:36:48Z</time>
      </trkpt>
      <trkpt lat="47.84787" lon="6.59051">
        <ele>444.93250576944</ele>
        <time>2021-08-21T10:36:50Z</time>
      </trkpt>
      <trkpt lat="47.8479" lon="6.59054">
        <ele>445.20055210019</ele>
        <time>2021-08-21T10:36:52Z</time>
      </trkpt>
      <trkpt lat="47.84794" lon="6.59057">
        <ele>445.46218960278</ele>
        <time>2021-08-21T10:36:54Z</time>
      </trkpt>
      <trkpt lat="47.848" lon="6.59063">
        <ele>445.71961603706</ele>
        <time>2021-08-21T10:36:56Z</time>
      </trkpt>
      <trkpt lat="47.84804" lon="6.59068">
        <ele>445.97134655383</ele>
        <time>2021-08-21T10:36:58Z</time>
      </trkpt>
      <trkpt lat="47.84809" lon="6.59074">
        <ele>446.21859084951</ele>
        <time>2021-08-21T10:37:00Z</time>
      </trkpt>
      <trkpt lat="47.84813" lon="6.59081">
        <ele>446.47019312277</ele>
        <time>2021-08-21T10:37:02Z</time>
      </trkpt>
      <trkpt lat="47.84816" lon="6.59089">
        <ele>446.72636464756</ele>
        <time>2021-08-21T10:37:04Z</time>
      </trkpt>
      <trkpt lat="47.84819" lon="6.59094">
        <ele>446.98505133949</ele>
        <time>2021-08-21T10:37:06Z</time>
      </trkpt>
      <trkpt lat="47.84822" lon="6.59098">
        <ele>447.24025364359</ele>
        <time>2021-08-21T10:37:08Z</time>
      </trkpt>
      <trkpt lat="47.84826" lon="6.59103">
        <ele>447.49282215109</ele>
        <time>2021-08-21T10:37:10Z</time>
      </trkpt>
      <trkpt lat="47.8483" lon="6.59109">
        <ele>447.74910333527</ele>
        <time>2021-08-21T10:37:12Z</time>
      </trkpt>
      <trkpt lat="47.84834" lon="6.59113">
        <ele>448.0085690524</ele>
        <time>2021-08-21T10:37:14Z</time>
      </trkpt>
      <trkpt lat="47.84838" lon="6.59121">
        <ele>448.2755223725</ele>
        <time>2021-08-21T10:37:16Z</time>
      </trkpt>
      <trkpt lat="47.84842" lon="6.59127">
        <ele>448.55064281035</ele>
        <time>2021-08-21T10:37:18Z</time>
      </trkpt>
      <trkpt lat="47.84847" lon="6.59133">
        <ele>448.83109255918</ele>
        <time>2021-08-21T10:37:20Z</time>
      </trkpt>
      <trkpt lat="47.8485" lon="6.59137">
        <ele>449.11569188959</ele>
        <time>2021-08-21T10:37:22Z</time>
      </trkpt>
      <trkpt lat="47.84856" lon="6.59141">
        <ele>449.40203107899</ele>
        <time>2021-08-21T10:37:24Z</time>
      </trkpt>
      <trkpt lat="47.84862" lon="6.59145">
        <ele>449.68662994979</ele>
        <time>2021-08-21T10:37:26Z</time>
      </trkpt>
      <trkpt lat="47.84868" lon="6.5915">
        <ele>449.97162443413</ele>
        <time>2021-08-21T10:37:28Z</time>
      </trkpt>
      <trkpt lat="47.84872" lon="6.59153">
        <ele>450.25912890137</ele>
        <time>2021-08-21T10:37:30Z</time>
      </trkpt>
      <trkpt lat="47.84877" lon="6.59157">
        <ele>450.54712777088</ele>
        <time>2021-08-21T10:37:32Z</time>
      </trkpt>
      <trkpt lat="47.84882" lon="6.59161">
        <ele>450.83744561638</ele>
        <time>2021-08-21T10:37:34Z</time>
      </trkpt>
      <trkpt lat="47.84888" lon="6.59165">
        <ele>451.12378778501</ele>
        <time>2021-08-21T10:37:36Z</time>
      </trkpt>
      <trkpt lat="47.84895" lon="6.5917">
        <ele>451.40612744937</ele>
        <time>2021-08-21T10:37:38Z</time>
      </trkpt>
      <trkpt lat="47.84901" lon="6.59176">
        <ele>451.68184317595</ele>
        <time>2021-08-21T10:37:40Z</time>
      </trkpt>
      <trkpt lat="47.84906" lon="6.59181">
        <ele>451.95102775322</ele>
        <time>2021-08-21T10:37:42Z</time>
      </trkpt>
      <trkpt lat="47.84911" lon="6.59184">
        <ele>452.21294168071</ele>
        <time>2021-08-21T10:37:44Z</time>
      </trkpt>
      <trkpt lat="47.84916" lon="6.59188">
        <ele>452.46867796179</ele>
        <time>2021-08-21T10:37:46Z</time>
      </trkpt>
      <trkpt lat="47.84921" lon="6.59192">
        <ele>452.71682010613</ele>
        <time>2021-08-21T10:37:48Z</time>
      </trkpt>
      <trkpt lat="47.84925" lon="6.59196">
        <ele>452.95806691831</ele>
        <time>2021-08-21T10:37:50Z</time>
      </trkpt>
      <trkpt lat="47.84929" lon="6.59201">
        <ele>453.19265861045</ele>
        <time>2021-08-21T10:37:52Z</time>
      </trkpt>
      <trkpt lat="47.84934" lon="6.59206">
        <ele>453.4210051497</ele>
        <time>2021-08-21T10:37:54Z</time>
      </trkpt>
      <trkpt lat="47.84938" lon="6.59211">
        <ele>453.64062976052</ele>
        <time>2021-08-21T10:37:56Z</time>
      </trkpt>
      <trkpt lat="47.84944" lon="6.59208">
        <ele>453.84109791212</ele>
        <time>2021-08-21T10:37:58Z</time>
      </trkpt>
      <trkpt lat="47.84947" lon="6.59212">
        <ele>454.02917126463</ele>
        <time>2021-08-21T10:38:00Z</time>
      </trkpt>
      <trkpt lat="47.84953" lon="6.59215">
        <ele>454.21227165688</ele>
        <time>2021-08-21T10:38:02Z</time>
      </trkpt>
      <trkpt lat="47.84958" lon="6.59217">
        <ele>454.38893372848</ele>
        <time>2021-08-21T10:38:04Z</time>
      </trkpt>
      <trkpt lat="47.84954" lon="6.59211">
        <ele>454.59366224257</ele>
        <time>2021-08-21T10:38:06Z</time>
      </trkpt>
      <trkpt lat="47.84955" lon="6.59213">
        <ele>454.81434325159</ele>
        <time>2021-08-21T10:38:08Z</time>
      </trkpt>
      <trkpt lat="47.84955" lon="6.59218">
        <ele>455.07278616679</ele>
        <time>2021-08-21T10:38:10Z</time>
      </trkpt>
      <trkpt lat="47.84956" lon="6.59224">
        <ele>455.36813718906</ele>
        <time>2021-08-21T10:38:12Z</time>
      </trkpt>
      <trkpt lat="47.84956" lon="6.59227">
        <ele>455.69705921491</ele>
        <time>2021-08-21T10:38:14Z</time>
      </trkpt>
      <trkpt lat="47.84955" lon="6.59232">
        <ele>456.04789864884</ele>
        <time>2021-08-21T10:38:16Z</time>
      </trkpt>
      <trkpt lat="47.84953" lon="6.59237">
        <ele>456.42626182687</ele>
        <time>2021-08-21T10:38:18Z</time>
      </trkpt>
      <trkpt lat="47.84951" lon="6.59242">
        <ele>456.85567820098</ele>
        <time>2021-08-21T10:38:20Z</time>
      </trkpt>
      <trkpt lat="47.84949" lon="6.59252">
        <ele>457.28038978706</ele>
        <time>2021-08-21T10:38:22Z</time>
      </trkpt>
      <trkpt lat="47.84946" lon="6.59261">
        <ele>457.68746303448</ele>
        <time>2021-08-21T10:38:24Z</time>
      </trkpt>
      <trkpt lat="47.84945" lon="6.59264">
        <ele>458.08510314415</ele>
        <time>2021-08-21T10:38:26Z</time>
      </trkpt>
      <trkpt lat="47.84944" lon="6.59268">
        <ele>458.48794027497</ele>
        <time>2021-08-21T10:38:28Z</time>
      </trkpt>
      <trkpt lat="47.84944" lon="6.59271">
        <ele>458.89767586297</ele>
        <time>2021-08-21T10:38:30Z</time>
      </trkpt>
      <trkpt lat="47.84944" lon="6.59279">
        <ele>459.29941138611</ele>
        <time>2021-08-21T10:38:32Z</time>
      </trkpt>
      <trkpt lat="47.84943" lon="6.59287">
        <ele>459.69778389658</ele>
        <time>2021-08-21T10:38:34Z</time>
      </trkpt>
      <trkpt lat="47.84947" lon="6.59291">
        <ele>460.08981951049</ele>
        <time>2021-08-21T10:38:36Z</time>
      </trkpt>
      <trkpt lat="47.84948" lon="6.59295">
        <ele>460.48084454109</ele>
        <time>2021-08-21T10:38:38Z</time>
      </trkpt>
      <trkpt lat="47.84948" lon="6.59301">
        <ele>460.86527842364</ele>
        <time>2021-08-21T10:38:40Z</time>
      </trkpt>
      <trkpt lat="47.84947" lon="6.59309">
        <ele>461.24084640542</ele>
        <time>2021-08-21T10:38:42Z</time>
      </trkpt>
      <trkpt lat="47.84947" lon="6.59312">
        <ele>461.60771794189</ele>
        <time>2021-08-21T10:38:44Z</time>
      </trkpt>
      <trkpt lat="47.84949" lon="6.59317">
        <ele>461.96477304559</ele>
        <time>2021-08-21T10:38:46Z</time>
      </trkpt>
      <trkpt lat="47.84949" lon="6.59322">
        <ele>462.31667301582</ele>
        <time>2021-08-21T10:38:48Z</time>
      </trkpt>
      <trkpt lat="47.84949" lon="6.59322">
        <ele>462.50834202834</ele>
        <time>2021-08-21T10:38:50Z</time>
      </trkpt>
      <trkpt lat="47.8495" lon="6.59323">
        <ele>462.54288426316</ele>
        <time>2021-08-21T10:38:52Z</time>
      </trkpt>
      <trkpt lat="47.8495" lon="6.59323">
        <ele>462.57758849439</ele>
        <time>2021-08-21T10:38:54Z</time>
      </trkpt>
      <trkpt lat="47.8495" lon="6.59323">
        <ele>462.76900339987</ele>
        <time>2021-08-21T10:38:56Z</time>
      </trkpt>
      <trkpt lat="47.8495" lon="6.59323">
        <ele>462.95843865998</ele>
        <time>2021-08-21T10:38:58Z</time>
      </trkpt>
      <trkpt lat="47.84952" lon="6.59324">
        <ele>463.2975270125</ele>
        <time>2021-08-21T10:39:00Z</time>
      </trkpt>
      <trkpt lat="47.84954" lon="6.59338">
        <ele>463.65566883113</ele>
        <time>2021-08-21T10:39:02Z</time>
      </trkpt>
      <trkpt lat="47.84957" lon="6.59346">
        <ele>464.02774006923</ele>
        <time>2021-08-21T10:39:04Z</time>
      </trkpt>
      <trkpt lat="47.8496" lon="6.59351">
        <ele>464.40920768195</ele>
        <time>2021-08-21T10:39:06Z</time>
      </trkpt>
      <trkpt lat="47.84962" lon="6.59355">
        <ele>464.80650637938</ele>
        <time>2021-08-21T10:39:08Z</time>
      </trkpt>
      <trkpt lat="47.84963" lon="6.59356">
        <ele>465.21575168149</ele>
        <time>2021-08-21T10:39:10Z</time>
      </trkpt>
      <trkpt lat="47.84964" lon="6.59356">
        <ele>465.62589163475</ele>
        <time>2021-08-21T10:39:12Z</time>
      </trkpt>
      <trkpt lat="47.84965" lon="6.59358">
        <ele>466.03217434229</ele>
        <time>2021-08-21T10:39:14Z</time>
      </trkpt>
      <trkpt lat="47.84967" lon="6.5936">
        <ele>466.43836358404</ele>
        <time>2021-08-21T10:39:16Z</time>
      </trkpt>
      <trkpt lat="47.84968" lon="6.59363">
        <ele>466.84814703749</ele>
        <time>2021-08-21T10:39:18Z</time>
      </trkpt>
      <trkpt lat="47.84969" lon="6.59365">
        <ele>467.27190155407</ele>
        <time>2021-08-21T10:39:20Z</time>
      </trkpt>
      <trkpt lat="47.84969" lon="6.59366">
        <ele>467.70713933112</ele>
        <time>2021-08-21T10:39:22Z</time>
      </trkpt>
      <trkpt lat="47.84969" lon="6.59369">
        <ele>468.15074754233</ele>
        <time>2021-08-21T10:39:24Z</time>
      </trkpt>
      <trkpt lat="47.84969" lon="6.59368">
        <ele>468.5954205183</ele>
        <time>2021-08-21T10:39:26Z</time>
      </trkpt>
      <trkpt lat="47.8497" lon="6.59368">
        <ele>469.04211136103</ele>
        <time>2021-08-21T10:39:28Z</time>
      </trkpt>
      <trkpt lat="47.84971" lon="6.59371">
        <ele>469.49283364439</ele>
        <time>2021-08-21T10:39:30Z</time>
      </trkpt>
      <trkpt lat="47.84972" lon="6.59375">
        <ele>469.9578685309</ele>
        <time>2021-08-21T10:39:32Z</time>
      </trkpt>
      <trkpt lat="47.84972" lon="6.59376">
        <ele>470.43104880021</ele>
        <time>2021-08-21T10:39:34Z</time>
      </trkpt>
      <trkpt lat="47.84972" lon="6.59377">
        <ele>470.90819135399</ele>
        <time>2021-08-21T10:39:36Z</time>
      </trkpt>
      <trkpt lat="47.84972" lon="6.59379">
        <ele>471.39149070901</ele>
        <time>2021-08-21T10:39:38Z</time>
      </trkpt>
      <trkpt lat="47.84973" lon="6.59382">
        <ele>471.87661195503</ele>
        <time>2021-08-21T10:39:40Z</time>
      </trkpt>
      <trkpt lat="47.84975" lon="6.59388">
        <ele>472.37679587864</ele>
        <time>2021-08-21T10:39:42Z</time>
      </trkpt>
      <trkpt lat="47.84976" lon="6.59395">
        <ele>472.90359446565</ele>
        <time>2021-08-21T10:39:44Z</time>
      </trkpt>
      <trkpt lat="47.84977" lon="6.59402">
        <ele>473.44607697155</ele>
        <time>2021-08-21T10:39:46Z</time>
      </trkpt>
      <trkpt lat="47.84977" lon="6.59409">
        <ele>473.99311191802</ele>
        <time>2021-08-21T10:39:48Z</time>
      </trkpt>
      <trkpt lat="47.84976" lon="6.59412">
        <ele>474.54097186468</ele>
        <time>2021-08-21T10:39:50Z</time>
      </trkpt>
      <trkpt lat="47.84976" lon="6.59413">
        <ele>475.09576477151</ele>
        <time>2021-08-21T10:39:52Z</time>
      </trkpt>
      <trkpt lat="47.84976" lon="6.59417">
        <ele>475.65556686248</ele>
        <time>2021-08-21T10:39:54Z</time>
      </trkpt>
      <trkpt lat="47.84976" lon="6.5942">
        <ele>476.22109152976</ele>
        <time>2021-08-21T10:39:56Z</time>
      </trkpt>
      <trkpt lat="47.84976" lon="6.59424">
        <ele>476.79375508953</ele>
        <time>2021-08-21T10:39:58Z</time>
      </trkpt>
      <trkpt lat="47.84977" lon="6.59425">
        <ele>477.37543597713</ele>
        <time>2021-08-21T10:40:00Z</time>
      </trkpt>
      <trkpt lat="47.84978" lon="6.59427">
        <ele>477.95867145614</ele>
        <time>2021-08-21T10:40:02Z</time>
      </trkpt>
      <trkpt lat="47.84979" lon="6.5943">
        <ele>478.54056876746</ele>
        <time>2021-08-21T10:40:04Z</time>
      </trkpt>
      <trkpt lat="47.8498" lon="6.59434">
        <ele>479.1232267317</ele>
        <time>2021-08-21T10:40:06Z</time>
      </trkpt>
      <trkpt lat="47.8498" lon="6.59437">
        <ele>479.70253028038</ele>
        <time>2021-08-21T10:40:08Z</time>
      </trkpt>
      <trkpt lat="47.84981" lon="6.5944">
        <ele>480.280808375</ele>
        <time>2021-08-21T10:40:10Z</time>
      </trkpt>
      <trkpt lat="47.84981" lon="6.59444">
        <ele>480.85779864547</ele>
        <time>2021-08-21T10:40:12Z</time>
      </trkpt>
      <trkpt lat="47.84982" lon="6.59448">
        <ele>481.43223893356</ele>
        <time>2021-08-21T10:40:14Z</time>
      </trkpt>
      <trkpt lat="47.84983" lon="6.59451">
        <ele>482.00396083239</ele>
        <time>2021-08-21T10:40:16Z</time>
      </trkpt>
      <trkpt lat="47.84984" lon="6.59455">
        <ele>482.57357222724</ele>
        <time>2021-08-21T10:40:18Z</time>
      </trkpt>
      <trkpt lat="47.84985" lon="6.59458">
        <ele>483.1402704898</ele>
        <time>2021-08-21T10:40:20Z</time>
      </trkpt>
      <trkpt lat="47.84986" lon="6.59461">
        <ele>483.70581971592</ele>
        <time>2021-08-21T10:40:22Z</time>
      </trkpt>
      <trkpt lat="47.84986" lon="6.59463">
        <ele>484.26771816224</ele>
        <time>2021-08-21T10:40:24Z</time>
      </trkpt>
      <trkpt lat="47.84987" lon="6.59466">
        <ele>484.83074454419</ele>
        <time>2021-08-21T10:40:26Z</time>
      </trkpt>
      <trkpt lat="47.84988" lon="6.59469">
        <ele>485.39074231886</ele>
        <time>2021-08-21T10:40:28Z</time>
      </trkpt>
      <trkpt lat="47.84988" lon="6.59471">
        <ele>485.9502178402</ele>
        <time>2021-08-21T10:40:30Z</time>
      </trkpt>
      <trkpt lat="47.84989" lon="6.59474">
        <ele>486.50713335388</ele>
        <time>2021-08-21T10:40:32Z</time>
      </trkpt>
      <trkpt lat="47.84989" lon="6.59477">
        <ele>487.07414154337</ele>
        <time>2021-08-21T10:40:34Z</time>
      </trkpt>
      <trkpt lat="47.84989" lon="6.5948">
        <ele>487.67322488963</ele>
        <time>2021-08-21T10:40:36Z</time>
      </trkpt>
      <trkpt lat="47.8499" lon="6.59483">
        <ele>488.29943128126</ele>
        <time>2021-08-21T10:40:38Z</time>
      </trkpt>
      <trkpt lat="47.8499" lon="6.59485">
        <ele>488.94626420177</ele>
        <time>2021-08-21T10:40:40Z</time>
      </trkpt>
      <trkpt lat="47.84989" lon="6.59486">
        <ele>489.61530095583</ele>
        <time>2021-08-21T10:40:42Z</time>
      </trkpt>
      <trkpt lat="47.84989" lon="6.59489">
        <ele>490.30599870775</ele>
        <time>2021-08-21T10:40:44Z</time>
      </trkpt>
      <trkpt lat="47.84988" lon="6.59491">
        <ele>491.00782666932</ele>
        <time>2021-08-21T10:40:46Z</time>
      </trkpt>
      <trkpt lat="47.84989" lon="6.59495">
        <ele>491.71689588807</ele>
        <time>2021-08-21T10:40:48Z</time>
      </trkpt>
      <trkpt lat="47.84989" lon="6.59498">
        <ele>492.43415306501</ele>
        <time>2021-08-21T10:40:50Z</time>
      </trkpt>
      <trkpt lat="47.84989" lon="6.59501">
        <ele>493.14792591747</ele>
        <time>2021-08-21T10:40:52Z</time>
      </trkpt>
      <trkpt lat="47.84989" lon="6.59505">
        <ele>493.86451133364</ele>
        <time>2021-08-21T10:40:54Z</time>
      </trkpt>
      <trkpt lat="47.84988" lon="6.59508">
        <ele>494.57602954031</ele>
        <time>2021-08-21T10:40:56Z</time>
      </trkpt>
      <trkpt lat="47.84989" lon="6.59511">
        <ele>495.28123050955</ele>
        <time>2021-08-21T10:40:58Z</time>
      </trkpt>
      <trkpt lat="47.84989" lon="6.59514">
        <ele>495.97754240788</ele>
        <time>2021-08-21T10:41:00Z</time>
      </trkpt>
      <trkpt lat="47.84989" lon="6.59517">
        <ele>496.66232253603</ele>
        <time>2021-08-21T10:41:02Z</time>
      </trkpt>
      <trkpt lat="47.84989" lon="6.59521">
        <ele>497.33148597422</ele>
        <time>2021-08-21T10:41:04Z</time>
      </trkpt>
      <trkpt lat="47.84988" lon="6.59524">
        <ele>497.98395859973</ele>
        <time>2021-08-21T10:41:06Z</time>
      </trkpt>
      <trkpt lat="47.84988" lon="6.59527">
        <ele>498.62148670766</ele>
        <time>2021-08-21T10:41:08Z</time>
      </trkpt>
      <trkpt lat="47.84988" lon="6.59529">
        <ele>499.24619415503</ele>
        <time>2021-08-21T10:41:10Z</time>
      </trkpt>
      <trkpt lat="47.84988" lon="6.59531">
        <ele>499.86099461428</ele>
        <time>2021-08-21T10:41:12Z</time>
      </trkpt>
      <trkpt lat="47.84987" lon="6.59533">
        <ele>500.46003307812</ele>
        <time>2021-08-21T10:41:14Z</time>
      </trkpt>
      <trkpt lat="47.84986" lon="6.59535">
        <ele>501.04197532301</ele>
        <time>2021-08-21T10:41:16Z</time>
      </trkpt>
      <trkpt lat="47.84986" lon="6.59536">
        <ele>501.60716187243</ele>
        <time>2021-08-21T10:41:18Z</time>
      </trkpt>
      <trkpt lat="47.84985" lon="6.59537">
        <ele>502.15602604543</ele>
        <time>2021-08-21T10:41:20Z</time>
      </trkpt>
      <trkpt lat="47.84985" lon="6.59538">
        <ele>502.6905619409</ele>
        <time>2021-08-21T10:41:22Z</time>
      </trkpt>
      <trkpt lat="47.84985" lon="6.59538">
        <ele>502.74332306808</ele>
        <time>2021-08-21T10:41:24Z</time>
      </trkpt>
      <trkpt lat="47.84984" lon="6.59538">
        <ele>502.79641861799</ele>
        <time>2021-08-21T10:41:26Z</time>
      </trkpt>
      <trkpt lat="47.84984" lon="6.59538">
        <ele>502.84966801661</ele>
        <time>2021-08-21T10:41:28Z</time>
      </trkpt>
      <trkpt lat="47.84984" lon="6.59538">
        <ele>502.90307187856</ele>
        <time>2021-08-21T10:41:30Z</time>
      </trkpt>
      <trkpt lat="47.84984" lon="6.59538">
        <ele>503.1959823878</ele>
        <time>2021-08-21T10:41:32Z</time>
      </trkpt>
      <trkpt lat="47.84984" lon="6.59538">
        <ele>503.24843859687</ele>
        <time>2021-08-21T10:41:34Z</time>
      </trkpt>
      <trkpt lat="47.84984" lon="6.59538">
        <ele>503.30095147613</ele>
        <time>2021-08-21T10:41:36Z</time>
      </trkpt>
      <trkpt lat="47.84984" lon="6.59538">
        <ele>503.3534006463</ele>
        <time>2021-08-21T10:41:38Z</time>
      </trkpt>
      <trkpt lat="47.84984" lon="6.59538">
        <ele>503.40568935645</ele>
        <time>2021-08-21T10:41:40Z</time>
      </trkpt>
      <trkpt lat="47.84984" lon="6.59538">
        <ele>503.45792665447</ele>
        <time>2021-08-21T10:41:42Z</time>
      </trkpt>
      <trkpt lat="47.84984" lon="6.59538">
        <ele>503.51005767494</ele>
        <time>2021-08-21T10:41:44Z</time>
      </trkpt>
      <trkpt lat="47.84984" lon="6.59538">
        <ele>503.56199175028</ele>
        <time>2021-08-21T10:41:46Z</time>
      </trkpt>
      <trkpt lat="47.84984" lon="6.59538">
        <ele>503.84574514267</ele>
        <time>2021-08-21T10:41:48Z</time>
      </trkpt>
      <trkpt lat="47.85051" lon="6.59793">
        <ele>523.15104429756</ele>
        <time>2021-08-21T10:45:32Z</time>
      </trkpt>
      <trkpt lat="47.85049" lon="6.59798">
        <ele>523.38802926607</ele>
        <time>2021-08-21T10:45:34Z</time>
      </trkpt>
      <trkpt lat="47.85046" lon="6.59802">
        <ele>523.62524638941</ele>
        <time>2021-08-21T10:45:36Z</time>
      </trkpt>
      <trkpt lat="47.85043" lon="6.59808">
        <ele>523.86329420283</ele>
        <time>2021-08-21T10:45:38Z</time>
      </trkpt>
      <trkpt lat="47.85041" lon="6.59814">
        <ele>524.09920510832</ele>
        <time>2021-08-21T10:45:40Z</time>
      </trkpt>
      <trkpt lat="47.85039" lon="6.5982">
        <ele>524.33277642775</ele>
        <time>2021-08-21T10:45:42Z</time>
      </trkpt>
      <trkpt lat="47.85038" lon="6.59826">
        <ele>524.56695052242</ele>
        <time>2021-08-21T10:45:44Z</time>
      </trkpt>
      <trkpt lat="47.85039" lon="6.59833">
        <ele>524.80363327824</ele>
        <time>2021-08-21T10:45:46Z</time>
      </trkpt>
      <trkpt lat="47.85039" lon="6.5984">
        <ele>525.04609987381</ele>
        <time>2021-08-21T10:45:48Z</time>
      </trkpt>
      <trkpt lat="47.8504" lon="6.59845">
        <ele>525.29133356706</ele>
        <time>2021-08-21T10:45:50Z</time>
      </trkpt>
      <trkpt lat="47.85041" lon="6.59853">
        <ele>525.54473952804</ele>
        <time>2021-08-21T10:45:52Z</time>
      </trkpt>
      <trkpt lat="47.85042" lon="6.5986">
        <ele>525.81279515535</ele>
        <time>2021-08-21T10:45:54Z</time>
      </trkpt>
      <trkpt lat="47.85044" lon="6.59866">
        <ele>526.09004994846</ele>
        <time>2021-08-21T10:45:56Z</time>
      </trkpt>
      <trkpt lat="47.85047" lon="6.59871">
        <ele>526.37634697222</ele>
        <time>2021-08-21T10:45:58Z</time>
      </trkpt>
      <trkpt lat="47.85049" lon="6.59877">
        <ele>526.66716578902</ele>
        <time>2021-08-21T10:46:00Z</time>
      </trkpt>
      <trkpt lat="47.8505" lon="6.59881">
        <ele>526.95131413552</ele>
        <time>2021-08-21T10:46:02Z</time>
      </trkpt>
      <trkpt lat="47.85052" lon="6.59886">
        <ele>527.23904828187</ele>
        <time>2021-08-21T10:46:04Z</time>
      </trkpt>
      <trkpt lat="47.85054" lon="6.59891">
        <ele>527.52993199142</ele>
        <time>2021-08-21T10:46:06Z</time>
      </trkpt>
      <trkpt lat="47.85056" lon="6.59896">
        <ele>527.82049373403</ele>
        <time>2021-08-21T10:46:08Z</time>
      </trkpt>
      <trkpt lat="47.85059" lon="6.599">
        <ele>528.11190784449</ele>
        <time>2021-08-21T10:46:10Z</time>
      </trkpt>
      <trkpt lat="47.85062" lon="6.59906">
        <ele>528.40798843513</ele>
        <time>2021-08-21T10:46:12Z</time>
      </trkpt>
      <trkpt lat="47.85066" lon="6.59911">
        <ele>528.71659119154</ele>
        <time>2021-08-21T10:46:14Z</time>
      </trkpt>
      <trkpt lat="47.85066" lon="6.59914">
        <ele>529.03473461687</ele>
        <time>2021-08-21T10:46:16Z</time>
      </trkpt>
      <trkpt lat="47.85069" lon="6.59919">
        <ele>529.37079341744</ele>
        <time>2021-08-21T10:46:18Z</time>
      </trkpt>
      <trkpt lat="47.85071" lon="6.59925">
        <ele>529.71993499252</ele>
        <time>2021-08-21T10:46:20Z</time>
      </trkpt>
      <trkpt lat="47.85073" lon="6.59929">
        <ele>530.07518020325</ele>
        <time>2021-08-21T10:46:22Z</time>
      </trkpt>
      <trkpt lat="47.85076" lon="6.59933">
        <ele>530.44069347253</ele>
        <time>2021-08-21T10:46:24Z</time>
      </trkpt>
      <trkpt lat="47.85077" lon="6.59935">
        <ele>530.80754215787</ele>
        <time>2021-08-21T10:46:26Z</time>
      </trkpt>
      <trkpt lat="47.8508" lon="6.59937">
        <ele>531.16769576109</ele>
        <time>2021-08-21T10:46:28Z</time>
      </trkpt>
      <trkpt lat="47.85083" lon="6.59941">
        <ele>531.51833172826</ele>
        <time>2021-08-21T10:46:30Z</time>
      </trkpt>
      <trkpt lat="47.85085" lon="6.59946">
        <ele>531.86537341879</ele>
        <time>2021-08-21T10:46:32Z</time>
      </trkpt>
      <trkpt lat="47.85086" lon="6.59951">
        <ele>532.21397451166</ele>
        <time>2021-08-21T10:46:34Z</time>
      </trkpt>
      <trkpt lat="47.85086" lon="6.59957">
        <ele>532.56287062642</ele>
        <time>2021-08-21T10:46:36Z</time>
      </trkpt>
      <trkpt lat="47.85087" lon="6.59962">
        <ele>532.91295194282</ele>
        <time>2021-08-21T10:46:38Z</time>
      </trkpt>
      <trkpt lat="47.85088" lon="6.59968">
        <ele>533.26769785324</ele>
        <time>2021-08-21T10:46:40Z</time>
      </trkpt>
      <trkpt lat="47.85092" lon="6.59978">
        <ele>533.61890281627</ele>
        <time>2021-08-21T10:46:42Z</time>
      </trkpt>
      <trkpt lat="47.85098" lon="6.59983">
        <ele>533.96654624912</ele>
        <time>2021-08-21T10:46:44Z</time>
      </trkpt>
      <trkpt lat="47.851" lon="6.59988">
        <ele>534.32631806587</ele>
        <time>2021-08-21T10:46:46Z</time>
      </trkpt>
      <trkpt lat="47.851" lon="6.59992">
        <ele>534.68467267011</ele>
        <time>2021-08-21T10:46:48Z</time>
      </trkpt>
      <trkpt lat="47.85101" lon="6.59996">
        <ele>535.0418720608</ele>
        <time>2021-08-21T10:46:50Z</time>
      </trkpt>
      <trkpt lat="47.85103" lon="6.60001">
        <ele>535.39432347374</ele>
        <time>2021-08-21T10:46:52Z</time>
      </trkpt>
      <trkpt lat="47.85105" lon="6.60007">
        <ele>535.74843296285</ele>
        <time>2021-08-21T10:46:54Z</time>
      </trkpt>
      <trkpt lat="47.85106" lon="6.60012">
        <ele>536.09874566126</ele>
        <time>2021-08-21T10:46:56Z</time>
      </trkpt>
      <trkpt lat="47.85108" lon="6.60017">
        <ele>536.45142984605</ele>
        <time>2021-08-21T10:46:58Z</time>
      </trkpt>
      <trkpt lat="47.85108" lon="6.60021">
        <ele>536.80542771329</ele>
        <time>2021-08-21T10:47:00Z</time>
      </trkpt>
      <trkpt lat="47.85109" lon="6.60027">
        <ele>537.15979184306</ele>
        <time>2021-08-21T10:47:02Z</time>
      </trkpt>
      <trkpt lat="47.85111" lon="6.60033">
        <ele>537.51772837688</ele>
        <time>2021-08-21T10:47:04Z</time>
      </trkpt>
      <trkpt lat="47.85112" lon="6.60039">
        <ele>537.87381629875</ele>
        <time>2021-08-21T10:47:06Z</time>
      </trkpt>
      <trkpt lat="47.85115" lon="6.60044">
        <ele>538.23577565687</ele>
        <time>2021-08-21T10:47:08Z</time>
      </trkpt>
      <trkpt lat="47.85116" lon="6.60048">
        <ele>538.59366253582</ele>
        <time>2021-08-21T10:47:10Z</time>
      </trkpt>
      <trkpt lat="47.85117" lon="6.60054">
        <ele>538.95308762461</ele>
        <time>2021-08-21T10:47:12Z</time>
      </trkpt>
      <trkpt lat="47.85118" lon="6.60062">
        <ele>539.31776728154</ele>
        <time>2021-08-21T10:47:14Z</time>
      </trkpt>
      <trkpt lat="47.85118" lon="6.60068">
        <ele>539.68679054574</ele>
        <time>2021-08-21T10:47:16Z</time>
      </trkpt>
      <trkpt lat="47.85119" lon="6.60075">
        <ele>540.06532625856</ele>
        <time>2021-08-21T10:47:18Z</time>
      </trkpt>
      <trkpt lat="47.85119" lon="6.60079">
        <ele>540.50092912502</ele>
        <time>2021-08-21T10:47:20Z</time>
      </trkpt>
      <trkpt lat="47.85118" lon="6.60084">
        <ele>540.95484426464</ele>
        <time>2021-08-21T10:47:22Z</time>
      </trkpt>
      <trkpt lat="47.85114" lon="6.60091">
        <ele>541.40130337344</ele>
        <time>2021-08-21T10:47:24Z</time>
      </trkpt>
      <trkpt lat="47.85112" lon="6.60094">
        <ele>541.8239932925</ele>
        <time>2021-08-21T10:47:26Z</time>
      </trkpt>
      <trkpt lat="47.85112" lon="6.60101">
        <ele>542.24477671584</ele>
        <time>2021-08-21T10:47:28Z</time>
      </trkpt>
      <trkpt lat="47.85111" lon="6.60105">
        <ele>542.69051670046</ele>
        <time>2021-08-21T10:47:30Z</time>
      </trkpt>
      <trkpt lat="47.8511" lon="6.60108">
        <ele>543.14821405847</ele>
        <time>2021-08-21T10:47:32Z</time>
      </trkpt>
      <trkpt lat="47.85107" lon="6.60109">
        <ele>543.62493659521</ele>
        <time>2021-08-21T10:47:34Z</time>
      </trkpt>
      <trkpt lat="47.85104" lon="6.60112">
        <ele>544.12016459815</ele>
        <time>2021-08-21T10:47:36Z</time>
      </trkpt>
      <trkpt lat="47.85101" lon="6.60115">
        <ele>544.64357652256</ele>
        <time>2021-08-21T10:47:38Z</time>
      </trkpt>
      <trkpt lat="47.85097" lon="6.60123">
        <ele>545.21423573884</ele>
        <time>2021-08-21T10:47:40Z</time>
      </trkpt>
      <trkpt lat="47.85093" lon="6.60127">
        <ele>545.82609163386</ele>
        <time>2021-08-21T10:47:42Z</time>
      </trkpt>
      <trkpt lat="47.85089" lon="6.60132">
        <ele>546.47008363411</ele>
        <time>2021-08-21T10:47:44Z</time>
      </trkpt>
      <trkpt lat="47.85085" lon="6.60136">
        <ele>547.14719485712</ele>
        <time>2021-08-21T10:47:46Z</time>
      </trkpt>
      <trkpt lat="47.8508" lon="6.60141">
        <ele>547.83428787099</ele>
        <time>2021-08-21T10:47:48Z</time>
      </trkpt>
      <trkpt lat="47.85077" lon="6.60145">
        <ele>548.5310422563</ele>
        <time>2021-08-21T10:47:50Z</time>
      </trkpt>
      <trkpt lat="47.85075" lon="6.60148">
        <ele>549.23051565048</ele>
        <time>2021-08-21T10:47:52Z</time>
      </trkpt>
      <trkpt lat="47.85073" lon="6.60152">
        <ele>549.9337513983</ele>
        <time>2021-08-21T10:47:54Z</time>
      </trkpt>
      <trkpt lat="47.8507" lon="6.60157">
        <ele>550.63824372773</ele>
        <time>2021-08-21T10:47:56Z</time>
      </trkpt>
      <trkpt lat="47.85068" lon="6.60162">
        <ele>551.34351596178</ele>
        <time>2021-08-21T10:47:58Z</time>
      </trkpt>
      <trkpt lat="47.85068" lon="6.60167">
        <ele>552.05349814955</ele>
        <time>2021-08-21T10:48:00Z</time>
      </trkpt>
      <trkpt lat="47.85067" lon="6.60175">
        <ele>552.76308152565</ele>
        <time>2021-08-21T10:48:02Z</time>
      </trkpt>
      <trkpt lat="47.85066" lon="6.60183">
        <ele>553.47381020184</ele>
        <time>2021-08-21T10:48:04Z</time>
      </trkpt>
      <trkpt lat="47.85066" lon="6.6019">
        <ele>554.18067168773</ele>
        <time>2021-08-21T10:48:06Z</time>
      </trkpt>
      <trkpt lat="47.85067" lon="6.60199">
        <ele>554.88580879448</ele>
        <time>2021-08-21T10:48:08Z</time>
      </trkpt>
      <trkpt lat="47.85068" lon="6.60206">
        <ele>555.58558094515</ele>
        <time>2021-08-21T10:48:10Z</time>
      </trkpt>
      <trkpt lat="47.85069" lon="6.60212">
        <ele>556.26944061404</ele>
        <time>2021-08-21T10:48:12Z</time>
      </trkpt>
      <trkpt lat="47.8507" lon="6.60219">
        <ele>556.93294364113</ele>
        <time>2021-08-21T10:48:14Z</time>
      </trkpt>
      <trkpt lat="47.85071" lon="6.60225">
        <ele>557.57404564861</ele>
        <time>2021-08-21T10:48:16Z</time>
      </trkpt>
      <trkpt lat="47.85072" lon="6.6023">
        <ele>558.19485808039</ele>
        <time>2021-08-21T10:48:18Z</time>
      </trkpt>
      <trkpt lat="47.85073" lon="6.60235">
        <ele>558.80232516686</ele>
        <time>2021-08-21T10:48:20Z</time>
      </trkpt>
      <trkpt lat="47.85075" lon="6.60243">
        <ele>559.40271817205</ele>
        <time>2021-08-21T10:48:22Z</time>
      </trkpt>
      <trkpt lat="47.85076" lon="6.60249">
        <ele>559.99386629955</ele>
        <time>2021-08-21T10:48:24Z</time>
      </trkpt>
      <trkpt lat="47.85078" lon="6.60255">
        <ele>560.57469741307</ele>
        <time>2021-08-21T10:48:26Z</time>
      </trkpt>
      <trkpt lat="47.85082" lon="6.60262">
        <ele>561.16001250986</ele>
        <time>2021-08-21T10:48:28Z</time>
      </trkpt>
      <trkpt lat="47.85084" lon="6.60267">
        <ele>561.72917665473</ele>
        <time>2021-08-21T10:48:30Z</time>
      </trkpt>
      <trkpt lat="47.85086" lon="6.60272">
        <ele>562.28483392454</ele>
        <time>2021-08-21T10:48:32Z</time>
      </trkpt>
      <trkpt lat="47.85088" lon="6.60277">
        <ele>562.82478057153</ele>
        <time>2021-08-21T10:48:34Z</time>
      </trkpt>
      <trkpt lat="47.8509" lon="6.60281">
        <ele>563.35086690946</ele>
        <time>2021-08-21T10:48:36Z</time>
      </trkpt>
      <trkpt lat="47.85092" lon="6.60285">
        <ele>563.86975110706</ele>
        <time>2021-08-21T10:48:38Z</time>
      </trkpt>
      <trkpt lat="47.85093" lon="6.6029">
        <ele>564.37580463979</ele>
        <time>2021-08-21T10:48:40Z</time>
      </trkpt>
      <trkpt lat="47.85096" lon="6.60297">
        <ele>564.89318989251</ele>
        <time>2021-08-21T10:48:42Z</time>
      </trkpt>
      <trkpt lat="47.85098" lon="6.60305">
        <ele>565.4157698599</ele>
        <time>2021-08-21T10:48:44Z</time>
      </trkpt>
      <trkpt lat="47.85101" lon="6.60312">
        <ele>565.94805571898</ele>
        <time>2021-08-21T10:48:46Z</time>
      </trkpt>
      <trkpt lat="47.85103" lon="6.60318">
        <ele>566.49089584477</ele>
        <time>2021-08-21T10:48:48Z</time>
      </trkpt>
      <trkpt lat="47.85104" lon="6.60324">
        <ele>567.03780033344</ele>
        <time>2021-08-21T10:48:50Z</time>
      </trkpt>
      <trkpt lat="47.85104" lon="6.6033">
        <ele>567.57825481673</ele>
        <time>2021-08-21T10:48:52Z</time>
      </trkpt>
      <trkpt lat="47.85106" lon="6.60336">
        <ele>568.11344766814</ele>
        <time>2021-08-21T10:48:54Z</time>
      </trkpt>
      <trkpt lat="47.85108" lon="6.60341">
        <ele>568.64518040991</ele>
        <time>2021-08-21T10:48:56Z</time>
      </trkpt>
      <trkpt lat="47.85109" lon="6.60347">
        <ele>569.17480294026</ele>
        <time>2021-08-21T10:48:58Z</time>
      </trkpt>
      <trkpt lat="47.8511" lon="6.60353">
        <ele>569.69995578039</ele>
        <time>2021-08-21T10:49:00Z</time>
      </trkpt>
      <trkpt lat="47.85111" lon="6.60359">
        <ele>570.21831518822</ele>
        <time>2021-08-21T10:49:02Z</time>
      </trkpt>
      <trkpt lat="47.85112" lon="6.60365">
        <ele>570.72842961836</ele>
        <time>2021-08-21T10:49:04Z</time>
      </trkpt>
      <trkpt lat="47.85113" lon="6.60372">
        <ele>571.23728687655</ele>
        <time>2021-08-21T10:49:06Z</time>
      </trkpt>
      <trkpt lat="47.85113" lon="6.60378">
        <ele>571.74110288316</ele>
        <time>2021-08-21T10:49:08Z</time>
      </trkpt>
      <trkpt lat="47.85114" lon="6.60384">
        <ele>572.23591352806</ele>
        <time>2021-08-21T10:49:10Z</time>
      </trkpt>
      <trkpt lat="47.85115" lon="6.60388">
        <ele>572.72335072214</ele>
        <time>2021-08-21T10:49:12Z</time>
      </trkpt>
      <trkpt lat="47.85116" lon="6.60392">
        <ele>573.20152976296</ele>
        <time>2021-08-21T10:49:14Z</time>
      </trkpt>
      <trkpt lat="47.85117" lon="6.60398">
        <ele>573.67522515776</ele>
        <time>2021-08-21T10:49:16Z</time>
      </trkpt>
      <trkpt lat="47.85118" lon="6.60405">
        <ele>574.14296110339</ele>
        <time>2021-08-21T10:49:18Z</time>
      </trkpt>
      <trkpt lat="47.85118" lon="6.60412">
        <ele>574.60387503976</ele>
        <time>2021-08-21T10:49:20Z</time>
      </trkpt>
      <trkpt lat="47.85119" lon="6.60418">
        <ele>575.05369070316</ele>
        <time>2021-08-21T10:49:22Z</time>
      </trkpt>
      <trkpt lat="47.8512" lon="6.60424">
        <ele>575.48748239753</ele>
        <time>2021-08-21T10:49:24Z</time>
      </trkpt>
      <trkpt lat="47.85121" lon="6.6043">
        <ele>575.90573469267</ele>
        <time>2021-08-21T10:49:26Z</time>
      </trkpt>
      <trkpt lat="47.85123" lon="6.60436">
        <ele>576.30969018996</ele>
        <time>2021-08-21T10:49:28Z</time>
      </trkpt>
      <trkpt lat="47.85123" lon="6.60442">
        <ele>576.70140509317</ele>
        <time>2021-08-21T10:49:30Z</time>
      </trkpt>
      <trkpt lat="47.85124" lon="6.60447">
        <ele>577.0863795819</ele>
        <time>2021-08-21T10:49:32Z</time>
      </trkpt>
      <trkpt lat="47.85125" lon="6.60454">
        <ele>577.47254600306</ele>
        <time>2021-08-21T10:49:34Z</time>
      </trkpt>
      <trkpt lat="47.85126" lon="6.6046">
        <ele>577.86145855833</ele>
        <time>2021-08-21T10:49:36Z</time>
      </trkpt>
      <trkpt lat="47.85126" lon="6.60466">
        <ele>578.24743270234</ele>
        <time>2021-08-21T10:49:38Z</time>
      </trkpt>
      <trkpt lat="47.85126" lon="6.60471">
        <ele>578.6265351496</ele>
        <time>2021-08-21T10:49:40Z</time>
      </trkpt>
      <trkpt lat="47.85126" lon="6.60477">
        <ele>578.99838284325</ele>
        <time>2021-08-21T10:49:42Z</time>
      </trkpt>
      <trkpt lat="47.85127" lon="6.60482">
        <ele>579.36384738368</ele>
        <time>2021-08-21T10:49:44Z</time>
      </trkpt>
      <trkpt lat="47.85127" lon="6.60488">
        <ele>579.72418150422</ele>
        <time>2021-08-21T10:49:46Z</time>
      </trkpt>
      <trkpt lat="47.85129" lon="6.60494">
        <ele>580.08179283683</ele>
        <time>2021-08-21T10:49:48Z</time>
      </trkpt>
      <trkpt lat="47.85131" lon="6.60501">
        <ele>580.44347774858</ele>
        <time>2021-08-21T10:49:50Z</time>
      </trkpt>
      <trkpt lat="47.85133" lon="6.60509">
        <ele>580.80894805324</ele>
        <time>2021-08-21T10:49:52Z</time>
      </trkpt>
      <trkpt lat="47.85134" lon="6.60516">
        <ele>581.18246749291</ele>
        <time>2021-08-21T10:49:54Z</time>
      </trkpt>
      <trkpt lat="47.85134" lon="6.60522">
        <ele>581.55284536086</ele>
        <time>2021-08-21T10:49:56Z</time>
      </trkpt>
      <trkpt lat="47.85135" lon="6.60528">
        <ele>581.92070708115</ele>
        <time>2021-08-21T10:49:58Z</time>
      </trkpt>
      <trkpt lat="47.85137" lon="6.60534">
        <ele>582.28957869137</ele>
        <time>2021-08-21T10:50:00Z</time>
      </trkpt>
      <trkpt lat="47.85139" lon="6.60539">
        <ele>582.65948123549</ele>
        <time>2021-08-21T10:50:02Z</time>
      </trkpt>
      <trkpt lat="47.8514" lon="6.60545">
        <ele>583.02579202169</ele>
        <time>2021-08-21T10:50:04Z</time>
      </trkpt>
      <trkpt lat="47.85142" lon="6.6055">
        <ele>583.38387122847</ele>
        <time>2021-08-21T10:50:06Z</time>
      </trkpt>
      <trkpt lat="47.85144" lon="6.60556">
        <ele>583.73108900377</ele>
        <time>2021-08-21T10:50:08Z</time>
      </trkpt>
      <trkpt lat="47.85146" lon="6.60561">
        <ele>584.06630459703</ele>
        <time>2021-08-21T10:50:10Z</time>
      </trkpt>
      <trkpt lat="47.85149" lon="6.60565">
        <ele>584.39272606879</ele>
        <time>2021-08-21T10:50:12Z</time>
      </trkpt>
      <trkpt lat="47.85152" lon="6.6057">
        <ele>584.71201795537</ele>
        <time>2021-08-21T10:50:14Z</time>
      </trkpt>
      <trkpt lat="47.85155" lon="6.60575">
        <ele>585.02408067382</ele>
        <time>2021-08-21T10:50:16Z</time>
      </trkpt>
      <trkpt lat="47.85159" lon="6.6058">
        <ele>585.33606367177</ele>
        <time>2021-08-21T10:50:18Z</time>
      </trkpt>
      <trkpt lat="47.85162" lon="6.60584">
        <ele>585.64480585665</ele>
        <time>2021-08-21T10:50:20Z</time>
      </trkpt>
      <trkpt lat="47.85166" lon="6.6059">
        <ele>585.94900733613</ele>
        <time>2021-08-21T10:50:22Z</time>
      </trkpt>
      <trkpt lat="47.85169" lon="6.60594">
        <ele>586.24373083679</ele>
        <time>2021-08-21T10:50:24Z</time>
      </trkpt>
      <trkpt lat="47.85172" lon="6.60597">
        <ele>586.52721036741</ele>
        <time>2021-08-21T10:50:26Z</time>
      </trkpt>
      <trkpt lat="47.85175" lon="6.606">
        <ele>586.7993761117</ele>
        <time>2021-08-21T10:50:28Z</time>
      </trkpt>
      <trkpt lat="47.85179" lon="6.60605">
        <ele>587.06337159086</ele>
        <time>2021-08-21T10:50:30Z</time>
      </trkpt>
      <trkpt lat="47.85182" lon="6.6061">
        <ele>587.32491783263</ele>
        <time>2021-08-21T10:50:32Z</time>
      </trkpt>
      <trkpt lat="47.85183" lon="6.60616">
        <ele>587.58139323498</ele>
        <time>2021-08-21T10:50:34Z</time>
      </trkpt>
      <trkpt lat="47.85185" lon="6.60623">
        <ele>587.83294543118</ele>
        <time>2021-08-21T10:50:36Z</time>
      </trkpt>
      <trkpt lat="47.85187" lon="6.60629">
        <ele>588.07929845026</ele>
        <time>2021-08-21T10:50:38Z</time>
      </trkpt>
      <trkpt lat="47.85189" lon="6.60636">
        <ele>588.32223873427</ele>
        <time>2021-08-21T10:50:40Z</time>
      </trkpt>
      <trkpt lat="47.85192" lon="6.60643">
        <ele>588.57113069403</ele>
        <time>2021-08-21T10:50:42Z</time>
      </trkpt>
      <trkpt lat="47.85194" lon="6.6065">
        <ele>588.82624991045</ele>
        <time>2021-08-21T10:50:44Z</time>
      </trkpt>
      <trkpt lat="47.85194" lon="6.60656">
        <ele>589.08558687215</ele>
        <time>2021-08-21T10:50:46Z</time>
      </trkpt>
      <trkpt lat="47.85195" lon="6.60663">
        <ele>589.34286723044</ele>
        <time>2021-08-21T10:50:48Z</time>
      </trkpt>
      <trkpt lat="47.85196" lon="6.60669">
        <ele>589.59560880088</ele>
        <time>2021-08-21T10:50:50Z</time>
      </trkpt>
      <trkpt lat="47.85197" lon="6.60676">
        <ele>589.84620485828</ele>
        <time>2021-08-21T10:50:52Z</time>
      </trkpt>
      <trkpt lat="47.85198" lon="6.60681">
        <ele>590.09748126567</ele>
        <time>2021-08-21T10:50:54Z</time>
      </trkpt>
      <trkpt lat="47.85199" lon="6.60686">
        <ele>590.34660144971</ele>
        <time>2021-08-21T10:50:56Z</time>
      </trkpt>
      <trkpt lat="47.852" lon="6.60691">
        <ele>590.5917705377</ele>
        <time>2021-08-21T10:50:58Z</time>
      </trkpt>
      <trkpt lat="47.85202" lon="6.60697">
        <ele>590.83522064587</ele>
        <time>2021-08-21T10:51:00Z</time>
      </trkpt>
      <trkpt lat="47.85204" lon="6.60703">
        <ele>591.07520959803</ele>
        <time>2021-08-21T10:51:02Z</time>
      </trkpt>
      <trkpt lat="47.85205" lon="6.60709">
        <ele>591.31240016041</ele>
        <time>2021-08-21T10:51:04Z</time>
      </trkpt>
      <trkpt lat="47.85207" lon="6.60715">
        <ele>591.54788486463</ele>
        <time>2021-08-21T10:51:06Z</time>
      </trkpt>
      <trkpt lat="47.85208" lon="6.60721">
        <ele>591.77845567329</ele>
        <time>2021-08-21T10:51:08Z</time>
      </trkpt>
      <trkpt lat="47.8521" lon="6.60728">
        <ele>592.00344978764</ele>
        <time>2021-08-21T10:51:10Z</time>
      </trkpt>
      <trkpt lat="47.85212" lon="6.60734">
        <ele>592.22333775653</ele>
        <time>2021-08-21T10:51:12Z</time>
      </trkpt>
      <trkpt lat="47.85213" lon="6.60741">
        <ele>592.43944785354</ele>
        <time>2021-08-21T10:51:14Z</time>
      </trkpt>
      <trkpt lat="47.85215" lon="6.60747">
        <ele>592.64978615356</ele>
        <time>2021-08-21T10:51:16Z</time>
      </trkpt>
      <trkpt lat="47.85216" lon="6.60754">
        <ele>592.85331524938</ele>
        <time>2021-08-21T10:51:18Z</time>
      </trkpt>
      <trkpt lat="47.85218" lon="6.6076">
        <ele>593.05301893637</ele>
        <time>2021-08-21T10:51:20Z</time>
      </trkpt>
      <trkpt lat="47.85219" lon="6.60766">
        <ele>593.24941034304</ele>
        <time>2021-08-21T10:51:22Z</time>
      </trkpt>
      <trkpt lat="47.85221" lon="6.60772">
        <ele>593.44261419995</ele>
        <time>2021-08-21T10:51:24Z</time>
      </trkpt>
      <trkpt lat="47.85222" lon="6.60779">
        <ele>593.63259586102</ele>
        <time>2021-08-21T10:51:26Z</time>
      </trkpt>
      <trkpt lat="47.85227" lon="6.60787">
        <ele>593.84651920891</ele>
        <time>2021-08-21T10:51:28Z</time>
      </trkpt>
      <trkpt lat="47.85228" lon="6.60793">
        <ele>594.06396111909</ele>
        <time>2021-08-21T10:51:30Z</time>
      </trkpt>
      <trkpt lat="47.85229" lon="6.60799">
        <ele>594.27916157807</ele>
        <time>2021-08-21T10:51:32Z</time>
      </trkpt>
      <trkpt lat="47.85229" lon="6.60806">
        <ele>594.49199485303</ele>
        <time>2021-08-21T10:51:34Z</time>
      </trkpt>
      <trkpt lat="47.8523" lon="6.60812">
        <ele>594.7027607484</ele>
        <time>2021-08-21T10:51:36Z</time>
      </trkpt>
      <trkpt lat="47.85231" lon="6.60818">
        <ele>594.90949074366</ele>
        <time>2021-08-21T10:51:38Z</time>
      </trkpt>
      <trkpt lat="47.85232" lon="6.60825">
        <ele>595.11177195765</ele>
        <time>2021-08-21T10:51:40Z</time>
      </trkpt>
      <trkpt lat="47.85233" lon="6.60832">
        <ele>595.30908339408</ele>
        <time>2021-08-21T10:51:42Z</time>
      </trkpt>
      <trkpt lat="47.85234" lon="6.60837">
        <ele>595.5042014074</ele>
        <time>2021-08-21T10:51:44Z</time>
      </trkpt>
      <trkpt lat="47.85235" lon="6.60844">
        <ele>595.69573467186</ele>
        <time>2021-08-21T10:51:46Z</time>
      </trkpt>
      <trkpt lat="47.85236" lon="6.6085">
        <ele>595.88375951385</ele>
        <time>2021-08-21T10:51:48Z</time>
      </trkpt>
      <trkpt lat="47.85237" lon="6.60856">
        <ele>596.06751272111</ele>
        <time>2021-08-21T10:51:50Z</time>
      </trkpt>
      <trkpt lat="47.85238" lon="6.60863">
        <ele>596.24844790553</ele>
        <time>2021-08-21T10:51:52Z</time>
      </trkpt>
      <trkpt lat="47.85239" lon="6.60869">
        <ele>596.42531890965</ele>
        <time>2021-08-21T10:51:54Z</time>
      </trkpt>
      <trkpt lat="47.8524" lon="6.60876">
        <ele>596.59935255318</ele>
        <time>2021-08-21T10:51:56Z</time>
      </trkpt>
      <trkpt lat="47.8524" lon="6.60882">
        <ele>596.77120348033</ele>
        <time>2021-08-21T10:51:58Z</time>
      </trkpt>
      <trkpt lat="47.8524" lon="6.6089">
        <ele>596.94023767592</ele>
        <time>2021-08-21T10:52:00Z</time>
      </trkpt>
      <trkpt lat="47.8524" lon="6.60896">
        <ele>597.10646698737</ele>
        <time>2021-08-21T10:52:02Z</time>
      </trkpt>
      <trkpt lat="47.8524" lon="6.60902">
        <ele>597.27024338344</ele>
        <time>2021-08-21T10:52:04Z</time>
      </trkpt>
      <trkpt lat="47.8524" lon="6.60909">
        <ele>597.43150647045</ele>
        <time>2021-08-21T10:52:06Z</time>
      </trkpt>
      <trkpt lat="47.8524" lon="6.60915">
        <ele>597.59081975808</ele>
        <time>2021-08-21T10:52:08Z</time>
      </trkpt>
      <trkpt lat="47.8524" lon="6.6092">
        <ele>597.74753001227</ele>
        <time>2021-08-21T10:52:10Z</time>
      </trkpt>
      <trkpt lat="47.85239" lon="6.60927">
        <ele>597.90208502957</ele>
        <time>2021-08-21T10:52:12Z</time>
      </trkpt>
      <trkpt lat="47.85239" lon="6.60933">
        <ele>598.05445039296</ele>
        <time>2021-08-21T10:52:14Z</time>
      </trkpt>
      <trkpt lat="47.85238" lon="6.6094">
        <ele>598.20378222809</ele>
        <time>2021-08-21T10:52:16Z</time>
      </trkpt>
      <trkpt lat="47.85238" lon="6.60946">
        <ele>598.352259287</ele>
        <time>2021-08-21T10:52:18Z</time>
      </trkpt>
      <trkpt lat="47.85238" lon="6.60953">
        <ele>598.49780049293</ele>
        <time>2021-08-21T10:52:20Z</time>
      </trkpt>
      <trkpt lat="47.85238" lon="6.60959">
        <ele>598.64040312741</ele>
        <time>2021-08-21T10:52:22Z</time>
      </trkpt>
      <trkpt lat="47.85237" lon="6.60965">
        <ele>598.78002073586</ele>
        <time>2021-08-21T10:52:24Z</time>
      </trkpt>
      <trkpt lat="47.85236" lon="6.60971">
        <ele>598.916346734</ele>
        <time>2021-08-21T10:52:26Z</time>
      </trkpt>
      <trkpt lat="47.85236" lon="6.60978">
        <ele>599.04926669893</ele>
        <time>2021-08-21T10:52:28Z</time>
      </trkpt>
      <trkpt lat="47.85236" lon="6.60986">
        <ele>599.1809615435</ele>
        <time>2021-08-21T10:52:30Z</time>
      </trkpt>
      <trkpt lat="47.85235" lon="6.60993">
        <ele>599.31056391415</ele>
        <time>2021-08-21T10:52:32Z</time>
      </trkpt>
      <trkpt lat="47.85235" lon="6.61001">
        <ele>599.43741492989</ele>
        <time>2021-08-21T10:52:34Z</time>
      </trkpt>
      <trkpt lat="47.85235" lon="6.61009">
        <ele>599.56168290125</ele>
        <time>2021-08-21T10:52:36Z</time>
      </trkpt>
      <trkpt lat="47.85236" lon="6.61018">
        <ele>599.6840615225</ele>
        <time>2021-08-21T10:52:38Z</time>
      </trkpt>
      <trkpt lat="47.85236" lon="6.61029">
        <ele>599.80858909464</ele>
        <time>2021-08-21T10:52:40Z</time>
      </trkpt>
      <trkpt lat="47.85236" lon="6.61039">
        <ele>599.93650776724</ele>
        <time>2021-08-21T10:52:42Z</time>
      </trkpt>
      <trkpt lat="47.85237" lon="6.61048">
        <ele>600.06677321458</ele>
        <time>2021-08-21T10:52:44Z</time>
      </trkpt>
      <trkpt lat="47.85239" lon="6.61058">
        <ele>600.19690987062</ele>
        <time>2021-08-21T10:52:46Z</time>
      </trkpt>
      <trkpt lat="47.85243" lon="6.61065">
        <ele>600.32820900054</ele>
        <time>2021-08-21T10:52:48Z</time>
      </trkpt>
      <trkpt lat="47.85247" lon="6.61072">
        <ele>600.46159476792</ele>
        <time>2021-08-21T10:52:50Z</time>
      </trkpt>
      <trkpt lat="47.85253" lon="6.6108">
        <ele>600.60027598429</ele>
        <time>2021-08-21T10:52:52Z</time>
      </trkpt>
      <trkpt lat="47.85258" lon="6.61087">
        <ele>600.7469156483</ele>
        <time>2021-08-21T10:52:54Z</time>
      </trkpt>
      <trkpt lat="47.85263" lon="6.61093">
        <ele>600.89964806627</ele>
        <time>2021-08-21T10:52:56Z</time>
      </trkpt>
      <trkpt lat="47.85268" lon="6.61099">
        <ele>601.05936056648</ele>
        <time>2021-08-21T10:52:58Z</time>
      </trkpt>
      <trkpt lat="47.85272" lon="6.61105">
        <ele>601.22153662685</ele>
        <time>2021-08-21T10:53:00Z</time>
      </trkpt>
      <trkpt lat="47.85274" lon="6.61109">
        <ele>601.38469964057</ele>
        <time>2021-08-21T10:53:02Z</time>
      </trkpt>
      <trkpt lat="47.85275" lon="6.61112">
        <ele>601.54879355524</ele>
        <time>2021-08-21T10:53:04Z</time>
      </trkpt>
      <trkpt lat="47.85278" lon="6.61117">
        <ele>601.7148447985</ele>
        <time>2021-08-21T10:53:06Z</time>
      </trkpt>
      <trkpt lat="47.85279" lon="6.61123">
        <ele>601.88190962178</ele>
        <time>2021-08-21T10:53:08Z</time>
      </trkpt>
      <trkpt lat="47.8528" lon="6.61129">
        <ele>602.04827897703</ele>
        <time>2021-08-21T10:53:10Z</time>
      </trkpt>
      <trkpt lat="47.85282" lon="6.61135">
        <ele>602.21347637122</ele>
        <time>2021-08-21T10:53:12Z</time>
      </trkpt>
      <trkpt lat="47.85283" lon="6.61142">
        <ele>602.37711414388</ele>
        <time>2021-08-21T10:53:14Z</time>
      </trkpt>
      <trkpt lat="47.85285" lon="6.6115">
        <ele>602.53963816215</ele>
        <time>2021-08-21T10:53:16Z</time>
      </trkpt>
      <trkpt lat="47.85286" lon="6.61158">
        <ele>602.69982645167</ele>
        <time>2021-08-21T10:53:18Z</time>
      </trkpt>
      <trkpt lat="47.85287" lon="6.61166">
        <ele>602.85792280417</ele>
        <time>2021-08-21T10:53:20Z</time>
      </trkpt>
      <trkpt lat="47.85288" lon="6.61175">
        <ele>603.01294463242</ele>
        <time>2021-08-21T10:53:22Z</time>
      </trkpt>
      <trkpt lat="47.85287" lon="6.61184">
        <ele>603.1658780741</ele>
        <time>2021-08-21T10:53:24Z</time>
      </trkpt>
      <trkpt lat="47.85286" lon="6.61194">
        <ele>603.31583818237</ele>
        <time>2021-08-21T10:53:26Z</time>
      </trkpt>
      <trkpt lat="47.85284" lon="6.61203">
        <ele>603.46309137227</ele>
        <time>2021-08-21T10:53:28Z</time>
      </trkpt>
      <trkpt lat="47.85283" lon="6.61212">
        <ele>603.60816171009</ele>
        <time>2021-08-21T10:53:30Z</time>
      </trkpt>
      <trkpt lat="47.85281" lon="6.6122">
        <ele>603.75113435022</ele>
        <time>2021-08-21T10:53:32Z</time>
      </trkpt>
      <trkpt lat="47.8528" lon="6.61228">
        <ele>603.8924625706</ele>
        <time>2021-08-21T10:53:34Z</time>
      </trkpt>
      <trkpt lat="47.85278" lon="6.61237">
        <ele>604.03209202429</ele>
        <time>2021-08-21T10:53:36Z</time>
      </trkpt>
      <trkpt lat="47.85276" lon="6.61246">
        <ele>604.17051158399</ele>
        <time>2021-08-21T10:53:38Z</time>
      </trkpt>
      <trkpt lat="47.85274" lon="6.61253">
        <ele>604.30758680872</ele>
        <time>2021-08-21T10:53:40Z</time>
      </trkpt>
      <trkpt lat="47.85271" lon="6.61262">
        <ele>604.44877796402</ele>
        <time>2021-08-21T10:53:42Z</time>
      </trkpt>
      <trkpt lat="47.85266" lon="6.6127">
        <ele>604.59192138564</ele>
        <time>2021-08-21T10:53:44Z</time>
      </trkpt>
      <trkpt lat="47.8526" lon="6.61279">
        <ele>604.73515872385</ele>
        <time>2021-08-21T10:53:46Z</time>
      </trkpt>
      <trkpt lat="47.85253" lon="6.61286">
        <ele>604.87903008527</ele>
        <time>2021-08-21T10:53:48Z</time>
      </trkpt>
      <trkpt lat="47.85247" lon="6.61293">
        <ele>605.02272507928</ele>
        <time>2021-08-21T10:53:50Z</time>
      </trkpt>
      <trkpt lat="47.8524" lon="6.61305">
        <ele>605.91475256277</ele>
        <time>2021-08-21T10:53:52Z</time>
      </trkpt>
      <trkpt lat="47.85235" lon="6.61312">
        <ele>606.04856729361</ele>
        <time>2021-08-21T10:53:54Z</time>
      </trkpt>
      <trkpt lat="47.8523" lon="6.6132">
        <ele>606.18276986667</ele>
        <time>2021-08-21T10:53:56Z</time>
      </trkpt>
      <trkpt lat="47.85225" lon="6.61328">
        <ele>606.3172473826</ele>
        <time>2021-08-21T10:53:58Z</time>
      </trkpt>
      <trkpt lat="47.85222" lon="6.61337">
        <ele>606.45139640097</ele>
        <time>2021-08-21T10:54:00Z</time>
      </trkpt>
      <trkpt lat="47.8522" lon="6.61345">
        <ele>606.58448829503</ele>
        <time>2021-08-21T10:54:02Z</time>
      </trkpt>
      <trkpt lat="47.85219" lon="6.61352">
        <ele>606.71635544519</ele>
        <time>2021-08-21T10:54:04Z</time>
      </trkpt>
      <trkpt lat="47.85217" lon="6.61358">
        <ele>606.84703640354</ele>
        <time>2021-08-21T10:54:06Z</time>
      </trkpt>
      <trkpt lat="47.85217" lon="6.61361">
        <ele>606.97581569882</ele>
        <time>2021-08-21T10:54:08Z</time>
      </trkpt>
      <trkpt lat="47.85217" lon="6.61362">
        <ele>607.04578582994</ele>
        <time>2021-08-21T10:54:10Z</time>
      </trkpt>
      <trkpt lat="47.85217" lon="6.61362">
        <ele>607.05861249409</ele>
        <time>2021-08-21T10:54:12Z</time>
      </trkpt>
      <trkpt lat="47.85217" lon="6.61362">
        <ele>607.07162853093</ele>
        <time>2021-08-21T10:54:14Z</time>
      </trkpt>
      <trkpt lat="47.85217" lon="6.61362">
        <ele>607.0849045718</ele>
        <time>2021-08-21T10:54:16Z</time>
      </trkpt>
      <trkpt lat="47.85221" lon="6.61372">
        <ele>609.28910485081</ele>
        <time>2021-08-21T10:55:40Z</time>
      </trkpt>
      <trkpt lat="47.8523" lon="6.61387">
        <ele>609.68972265308</ele>
        <time>2021-08-21T10:55:46Z</time>
      </trkpt>
      <trkpt lat="47.85232" lon="6.61393">
        <ele>609.82620034875</ele>
        <time>2021-08-21T10:55:48Z</time>
      </trkpt>
      <trkpt lat="47.85231" lon="6.61402">
        <ele>609.96318222237</ele>
        <time>2021-08-21T10:55:50Z</time>
      </trkpt>
      <trkpt lat="47.85232" lon="6.6141">
        <ele>610.10180746772</ele>
        <time>2021-08-21T10:55:52Z</time>
      </trkpt>
      <trkpt lat="47.85233" lon="6.61421">
        <ele>610.24147910277</ele>
        <time>2021-08-21T10:55:54Z</time>
      </trkpt>
      <trkpt lat="47.85237" lon="6.61431">
        <ele>610.38656174105</ele>
        <time>2021-08-21T10:55:56Z</time>
      </trkpt>
      <trkpt lat="47.85237" lon="6.61439">
        <ele>610.53988871371</ele>
        <time>2021-08-21T10:55:58Z</time>
      </trkpt>
      <trkpt lat="47.85241" lon="6.61451">
        <ele>610.70351790978</ele>
        <time>2021-08-21T10:56:00Z</time>
      </trkpt>
      <trkpt lat="47.85243" lon="6.61462">
        <ele>610.88109757542</ele>
        <time>2021-08-21T10:56:02Z</time>
      </trkpt>
      <trkpt lat="47.85243" lon="6.61476">
        <ele>611.07022925107</ele>
        <time>2021-08-21T10:56:04Z</time>
      </trkpt>
      <trkpt lat="47.85245" lon="6.61488">
        <ele>611.2735803085</ele>
        <time>2021-08-21T10:56:06Z</time>
      </trkpt>
      <trkpt lat="47.85248" lon="6.61499">
        <ele>611.48805396418</ele>
        <time>2021-08-21T10:56:08Z</time>
      </trkpt>
      <trkpt lat="47.85252" lon="6.61507">
        <ele>612.65956611339</ele>
        <time>2021-08-21T10:56:10Z</time>
      </trkpt>
      <trkpt lat="47.85256" lon="6.61514">
        <ele>614.26527612731</ele>
        <time>2021-08-21T10:56:12Z</time>
      </trkpt>
      <trkpt lat="47.85262" lon="6.61522">
        <ele>615.32761294182</ele>
        <time>2021-08-21T10:56:14Z</time>
      </trkpt>
      <trkpt lat="47.85268" lon="6.61532">
        <ele>616.08043328143</ele>
        <time>2021-08-21T10:56:16Z</time>
      </trkpt>
      <trkpt lat="47.85276" lon="6.61541">
        <ele>616.63674763556</ele>
        <time>2021-08-21T10:56:18Z</time>
      </trkpt>
      <trkpt lat="47.85281" lon="6.61552">
        <ele>616.91533193354</ele>
        <time>2021-08-21T10:56:20Z</time>
      </trkpt>
      <trkpt lat="47.85285" lon="6.61561">
        <ele>616.96896793922</ele>
        <time>2021-08-21T10:56:22Z</time>
      </trkpt>
      <trkpt lat="47.85289" lon="6.61568">
        <ele>617.03021556231</ele>
        <time>2021-08-21T10:56:24Z</time>
      </trkpt>
      <trkpt lat="47.85292" lon="6.61576">
        <ele>617.40760524246</ele>
        <time>2021-08-21T10:56:26Z</time>
      </trkpt>
      <trkpt lat="47.85294" lon="6.61586">
        <ele>617.77932680027</ele>
        <time>2021-08-21T10:56:28Z</time>
      </trkpt>
      <trkpt lat="47.85295" lon="6.61597">
        <ele>618.33853901747</ele>
        <time>2021-08-21T10:56:30Z</time>
      </trkpt>
      <trkpt lat="47.85297" lon="6.6161">
        <ele>618.80885536679</ele>
        <time>2021-08-21T10:56:32Z</time>
      </trkpt>
      <trkpt lat="47.85299" lon="6.61623">
        <ele>619.2254242717</ele>
        <time>2021-08-21T10:56:34Z</time>
      </trkpt>
      <trkpt lat="47.853" lon="6.61637">
        <ele>619.44398105709</ele>
        <time>2021-08-21T10:56:36Z</time>
      </trkpt>
      <trkpt lat="47.85301" lon="6.61647">
        <ele>619.48755917485</ele>
        <time>2021-08-21T10:56:38Z</time>
      </trkpt>
      <trkpt lat="47.85302" lon="6.61658">
        <ele>619.53904163937</ele>
        <time>2021-08-21T10:56:40Z</time>
      </trkpt>
      <trkpt lat="47.85303" lon="6.61668">
        <ele>619.59897050618</ele>
        <time>2021-08-21T10:56:42Z</time>
      </trkpt>
      <trkpt lat="47.85305" lon="6.61678">
        <ele>619.66769583099</ele>
        <time>2021-08-21T10:56:44Z</time>
      </trkpt>
      <trkpt lat="47.85307" lon="6.61688">
        <ele>619.74538410904</ele>
        <time>2021-08-21T10:56:46Z</time>
      </trkpt>
      <trkpt lat="47.85309" lon="6.61697">
        <ele>619.83420236584</ele>
        <time>2021-08-21T10:56:48Z</time>
      </trkpt>
      <trkpt lat="47.85312" lon="6.61704">
        <ele>619.93344657192</ele>
        <time>2021-08-21T10:56:50Z</time>
      </trkpt>
      <trkpt lat="47.85316" lon="6.6171">
        <ele>620.04010334969</ele>
        <time>2021-08-21T10:56:52Z</time>
      </trkpt>
      <trkpt lat="47.85321" lon="6.61714">
        <ele>620.15355974521</ele>
        <time>2021-08-21T10:56:54Z</time>
      </trkpt>
      <trkpt lat="47.85325" lon="6.61716">
        <ele>620.27294857041</ele>
        <time>2021-08-21T10:56:56Z</time>
      </trkpt>
      <trkpt lat="47.85331" lon="6.61715">
        <ele>620.39608251012</ele>
        <time>2021-08-21T10:56:58Z</time>
      </trkpt>
      <trkpt lat="47.85335" lon="6.61715">
        <ele>620.52303721772</ele>
        <time>2021-08-21T10:57:00Z</time>
      </trkpt>
      <trkpt lat="47.8534" lon="6.61714">
        <ele>620.65471284947</ele>
        <time>2021-08-21T10:57:02Z</time>
      </trkpt>
      <trkpt lat="47.85346" lon="6.61715">
        <ele>620.79044236577</ele>
        <time>2021-08-21T10:57:04Z</time>
      </trkpt>
      <trkpt lat="47.85351" lon="6.61718">
        <ele>620.93189313385</ele>
        <time>2021-08-21T10:57:06Z</time>
      </trkpt>
      <trkpt lat="47.85357" lon="6.61721">
        <ele>621.07872886803</ele>
        <time>2021-08-21T10:57:08Z</time>
      </trkpt>
      <trkpt lat="47.85362" lon="6.61725">
        <ele>621.23060275876</ele>
        <time>2021-08-21T10:57:10Z</time>
      </trkpt>
      <trkpt lat="47.85368" lon="6.61729">
        <ele>621.38799892365</ele>
        <time>2021-08-21T10:57:12Z</time>
      </trkpt>
      <trkpt lat="47.85373" lon="6.61734">
        <ele>621.54710946796</ele>
        <time>2021-08-21T10:57:14Z</time>
      </trkpt>
      <trkpt lat="47.85378" lon="6.61738">
        <ele>621.70466294133</ele>
        <time>2021-08-21T10:57:16Z</time>
      </trkpt>
      <trkpt lat="47.85383" lon="6.61742">
        <ele>621.85997326446</ele>
        <time>2021-08-21T10:57:18Z</time>
      </trkpt>
      <trkpt lat="47.85388" lon="6.61746">
        <ele>622.01566698841</ele>
        <time>2021-08-21T10:57:20Z</time>
      </trkpt>
      <trkpt lat="47.85394" lon="6.6175">
        <ele>622.17407551527</ele>
        <time>2021-08-21T10:57:22Z</time>
      </trkpt>
      <trkpt lat="47.85399" lon="6.61755">
        <ele>622.33397375721</ele>
        <time>2021-08-21T10:57:24Z</time>
      </trkpt>
      <trkpt lat="47.85404" lon="6.6176">
        <ele>622.49644345753</ele>
        <time>2021-08-21T10:57:26Z</time>
      </trkpt>
      <trkpt lat="47.8541" lon="6.61764">
        <ele>622.6615361664</ele>
        <time>2021-08-21T10:57:28Z</time>
      </trkpt>
      <trkpt lat="47.85415" lon="6.61768">
        <ele>622.82911669509</ele>
        <time>2021-08-21T10:57:30Z</time>
      </trkpt>
      <trkpt lat="47.8542" lon="6.6177">
        <ele>622.99781741204</ele>
        <time>2021-08-21T10:57:32Z</time>
      </trkpt>
      <trkpt lat="47.85426" lon="6.61773">
        <ele>623.16645982354</ele>
        <time>2021-08-21T10:57:34Z</time>
      </trkpt>
      <trkpt lat="47.85432" lon="6.61776">
        <ele>623.33806040793</ele>
        <time>2021-08-21T10:57:36Z</time>
      </trkpt>
      <trkpt lat="47.85437" lon="6.61778">
        <ele>623.51277700375</ele>
        <time>2021-08-21T10:57:38Z</time>
      </trkpt>
      <trkpt lat="47.85442" lon="6.6178">
        <ele>623.69014061072</ele>
        <time>2021-08-21T10:57:40Z</time>
      </trkpt>
      <trkpt lat="47.85449" lon="6.61782">
        <ele>623.87182974147</ele>
        <time>2021-08-21T10:57:42Z</time>
      </trkpt>
      <trkpt lat="47.85455" lon="6.61786">
        <ele>625.54802044046</ele>
        <time>2021-08-21T10:57:44Z</time>
      </trkpt>
      <trkpt lat="47.85464" lon="6.61792">
        <ele>626.71577392429</ele>
        <time>2021-08-21T10:57:46Z</time>
      </trkpt>
      <trkpt lat="47.85473" lon="6.61799">
        <ele>627.56374390024</ele>
        <time>2021-08-21T10:57:48Z</time>
      </trkpt>
      <trkpt lat="47.85481" lon="6.61806">
        <ele>628.18496030037</ele>
        <time>2021-08-21T10:57:50Z</time>
      </trkpt>
      <trkpt lat="47.8549" lon="6.61814">
        <ele>628.6440915154</ele>
        <time>2021-08-21T10:57:52Z</time>
      </trkpt>
      <trkpt lat="47.85499" lon="6.61821">
        <ele>629.00476564285</ele>
        <time>2021-08-21T10:57:54Z</time>
      </trkpt>
      <trkpt lat="47.85509" lon="6.61829">
        <ele>629.30166505806</ele>
        <time>2021-08-21T10:57:56Z</time>
      </trkpt>
      <trkpt lat="47.85519" lon="6.61835">
        <ele>629.55269877088</ele>
        <time>2021-08-21T10:57:58Z</time>
      </trkpt>
      <trkpt lat="47.85528" lon="6.6184">
        <ele>629.77024696181</ele>
        <time>2021-08-21T10:58:00Z</time>
      </trkpt>
      <trkpt lat="47.85538" lon="6.61844">
        <ele>629.96573883034</ele>
        <time>2021-08-21T10:58:02Z</time>
      </trkpt>
      <trkpt lat="47.85548" lon="6.6185">
        <ele>630.1324014657</ele>
        <time>2021-08-21T10:58:04Z</time>
      </trkpt>
      <trkpt lat="47.85557" lon="6.61857">
        <ele>630.30653884049</ele>
        <time>2021-08-21T10:58:06Z</time>
      </trkpt>
      <trkpt lat="47.85566" lon="6.61867">
        <ele>630.46169875463</ele>
        <time>2021-08-21T10:58:08Z</time>
      </trkpt>
      <trkpt lat="47.85574" lon="6.61878">
        <ele>630.60838950009</ele>
        <time>2021-08-21T10:58:10Z</time>
      </trkpt>
      <trkpt lat="47.85581" lon="6.6189">
        <ele>630.73568284434</ele>
        <time>2021-08-21T10:58:12Z</time>
      </trkpt>
      <trkpt lat="47.85586" lon="6.61902">
        <ele>630.83625849697</ele>
        <time>2021-08-21T10:58:14Z</time>
      </trkpt>
      <trkpt lat="47.85591" lon="6.61914">
        <ele>630.91403999757</ele>
        <time>2021-08-21T10:58:16Z</time>
      </trkpt>
      <trkpt lat="47.85595" lon="6.61927">
        <ele>630.98570464215</ele>
        <time>2021-08-21T10:58:18Z</time>
      </trkpt>
      <trkpt lat="47.85599" lon="6.61939">
        <ele>631.05820251898</ele>
        <time>2021-08-21T10:58:20Z</time>
      </trkpt>
      <trkpt lat="47.85602" lon="6.61951">
        <ele>631.12777233261</ele>
        <time>2021-08-21T10:58:22Z</time>
      </trkpt>
      <trkpt lat="47.85604" lon="6.61964">
        <ele>631.20418333761</ele>
        <time>2021-08-21T10:58:24Z</time>
      </trkpt>
      <trkpt lat="47.85606" lon="6.61977">
        <ele>631.28459782365</ele>
        <time>2021-08-21T10:58:26Z</time>
      </trkpt>
      <trkpt lat="47.85609" lon="6.61991">
        <ele>631.36214683288</ele>
        <time>2021-08-21T10:58:28Z</time>
      </trkpt>
      <trkpt lat="47.85613" lon="6.62003">
        <ele>631.43463992553</ele>
        <time>2021-08-21T10:58:30Z</time>
      </trkpt>
      <trkpt lat="47.8562" lon="6.62013">
        <ele>631.50090622661</ele>
        <time>2021-08-21T10:58:32Z</time>
      </trkpt>
      <trkpt lat="47.85627" lon="6.62021">
        <ele>631.56228072389</ele>
        <time>2021-08-21T10:58:34Z</time>
      </trkpt>
      <trkpt lat="47.85635" lon="6.62027">
        <ele>631.62198068658</ele>
        <time>2021-08-21T10:58:36Z</time>
      </trkpt>
      <trkpt lat="47.85644" lon="6.62032">
        <ele>631.6947133717</ele>
        <time>2021-08-21T10:58:38Z</time>
      </trkpt>
      <trkpt lat="47.85654" lon="6.62038">
        <ele>631.78026389593</ele>
        <time>2021-08-21T10:58:40Z</time>
      </trkpt>
      <trkpt lat="47.85663" lon="6.62045">
        <ele>631.86971100945</ele>
        <time>2021-08-21T10:58:42Z</time>
      </trkpt>
      <trkpt lat="47.85671" lon="6.6205">
        <ele>631.96876244814</ele>
        <time>2021-08-21T10:58:44Z</time>
      </trkpt>
      <trkpt lat="47.85679" lon="6.62055">
        <ele>632.06715437149</ele>
        <time>2021-08-21T10:58:46Z</time>
      </trkpt>
      <trkpt lat="47.85688" lon="6.6206">
        <ele>632.16890872495</ele>
        <time>2021-08-21T10:58:48Z</time>
      </trkpt>
      <trkpt lat="47.85696" lon="6.62066">
        <ele>632.27970275326</ele>
        <time>2021-08-21T10:58:50Z</time>
      </trkpt>
      <trkpt lat="47.85703" lon="6.62074">
        <ele>632.40101768974</ele>
        <time>2021-08-21T10:58:52Z</time>
      </trkpt>
      <trkpt lat="47.85709" lon="6.62082">
        <ele>632.51865377217</ele>
        <time>2021-08-21T10:58:54Z</time>
      </trkpt>
      <trkpt lat="47.85714" lon="6.6209">
        <ele>632.58603336191</ele>
        <time>2021-08-21T10:58:56Z</time>
      </trkpt>
      <trkpt lat="47.85719" lon="6.62098">
        <ele>632.71122787853</ele>
        <time>2021-08-21T10:58:58Z</time>
      </trkpt>
      <trkpt lat="47.85725" lon="6.62106">
        <ele>632.72475033687</ele>
        <time>2021-08-21T10:59:00Z</time>
      </trkpt>
      <trkpt lat="47.85731" lon="6.62113">
        <ele>632.8914769185</ele>
        <time>2021-08-21T10:59:02Z</time>
      </trkpt>
      <trkpt lat="47.85737" lon="6.6212">
        <ele>633.04294443051</ele>
        <time>2021-08-21T10:59:04Z</time>
      </trkpt>
      <trkpt lat="47.85744" lon="6.62124">
        <ele>633.13970720007</ele>
        <time>2021-08-21T10:59:06Z</time>
      </trkpt>
      <trkpt lat="47.85751" lon="6.62128">
        <ele>633.29747575127</ele>
        <time>2021-08-21T10:59:08Z</time>
      </trkpt>
      <trkpt lat="47.85758" lon="6.6213">
        <ele>633.31292704751</ele>
        <time>2021-08-21T10:59:10Z</time>
      </trkpt>
      <trkpt lat="47.85764" lon="6.62131">
        <ele>633.33199524109</ele>
        <time>2021-08-21T10:59:12Z</time>
      </trkpt>
      <trkpt lat="47.85772" lon="6.62133">
        <ele>633.44423012376</ele>
        <time>2021-08-21T10:59:14Z</time>
      </trkpt>
      <trkpt lat="47.85781" lon="6.62136">
        <ele>633.6080335938</ele>
        <time>2021-08-21T10:59:16Z</time>
      </trkpt>
      <trkpt lat="47.85791" lon="6.62134">
        <ele>633.74092369815</ele>
        <time>2021-08-21T10:59:18Z</time>
      </trkpt>
      <trkpt lat="47.85801" lon="6.62132">
        <ele>633.8609863113</ele>
        <time>2021-08-21T10:59:20Z</time>
      </trkpt>
      <trkpt lat="47.85813" lon="6.62127">
        <ele>633.97778581299</ele>
        <time>2021-08-21T10:59:22Z</time>
      </trkpt>
      <trkpt lat="47.85828" lon="6.62126">
        <ele>634.11696945735</ele>
        <time>2021-08-21T10:59:24Z</time>
      </trkpt>
      <trkpt lat="47.85842" lon="6.62127">
        <ele>634.27862981272</ele>
        <time>2021-08-21T10:59:26Z</time>
      </trkpt>
      <trkpt lat="47.85855" lon="6.62132">
        <ele>634.46678051616</ele>
        <time>2021-08-21T10:59:28Z</time>
      </trkpt>
      <trkpt lat="47.85867" lon="6.62137">
        <ele>634.67403531752</ele>
        <time>2021-08-21T10:59:30Z</time>
      </trkpt>
      <trkpt lat="47.85877" lon="6.62143">
        <ele>634.87951387981</ele>
        <time>2021-08-21T10:59:32Z</time>
      </trkpt>
      <trkpt lat="47.85887" lon="6.62147">
        <ele>635.05589056761</ele>
        <time>2021-08-21T10:59:34Z</time>
      </trkpt>
      <trkpt lat="47.85898" lon="6.6215">
        <ele>635.24065649747</ele>
        <time>2021-08-21T10:59:36Z</time>
      </trkpt>
      <trkpt lat="47.85909" lon="6.62152">
        <ele>635.11824388958</ele>
        <time>2021-08-21T10:59:38Z</time>
      </trkpt>
      <trkpt lat="47.85922" lon="6.62154">
        <ele>634.75542823461</ele>
        <time>2021-08-21T10:59:40Z</time>
      </trkpt>
      <trkpt lat="47.85936" lon="6.62155">
        <ele>634.58351213145</ele>
        <time>2021-08-21T10:59:42Z</time>
      </trkpt>
      <trkpt lat="47.85951" lon="6.62154">
        <ele>634.57551765311</ele>
        <time>2021-08-21T10:59:44Z</time>
      </trkpt>
      <trkpt lat="47.85965" lon="6.62152">
        <ele>634.6855972062</ele>
        <time>2021-08-21T10:59:46Z</time>
      </trkpt>
      <trkpt lat="47.85979" lon="6.62149">
        <ele>634.93953570902</ele>
        <time>2021-08-21T10:59:48Z</time>
      </trkpt>
      <trkpt lat="47.85993" lon="6.62147">
        <ele>635.26547026226</ele>
        <time>2021-08-21T10:59:50Z</time>
      </trkpt>
      <trkpt lat="47.86008" lon="6.62143">
        <ele>635.68485390639</ele>
        <time>2021-08-21T10:59:52Z</time>
      </trkpt>
      <trkpt lat="47.86023" lon="6.6214">
        <ele>636.07155635565</ele>
        <time>2021-08-21T10:59:54Z</time>
      </trkpt>
      <trkpt lat="47.86037" lon="6.62139">
        <ele>636.58298513747</ele>
        <time>2021-08-21T10:59:56Z</time>
      </trkpt>
      <trkpt lat="47.86049" lon="6.62141">
        <ele>637.09338923083</ele>
        <time>2021-08-21T10:59:58Z</time>
      </trkpt>
      <trkpt lat="47.8606" lon="6.62144">
        <ele>637.5276068879</ele>
        <time>2021-08-21T11:00:00Z</time>
      </trkpt>
      <trkpt lat="47.86072" lon="6.62146">
        <ele>637.8781823469</ele>
        <time>2021-08-21T11:00:02Z</time>
      </trkpt>
      <trkpt lat="47.86082" lon="6.62149">
        <ele>638.27379832719</ele>
        <time>2021-08-21T11:00:04Z</time>
      </trkpt>
      <trkpt lat="47.86092" lon="6.62155">
        <ele>638.72928138027</ele>
        <time>2021-08-21T11:00:06Z</time>
      </trkpt>
      <trkpt lat="47.86099" lon="6.62161">
        <ele>639.25051474569</ele>
        <time>2021-08-21T11:00:08Z</time>
      </trkpt>
      <trkpt lat="47.86106" lon="6.62166">
        <ele>639.31455172855</ele>
        <time>2021-08-21T11:00:10Z</time>
      </trkpt>
      <trkpt lat="47.86112" lon="6.62171">
        <ele>639.40629738373</ele>
        <time>2021-08-21T11:00:12Z</time>
      </trkpt>
      <trkpt lat="47.86117" lon="6.62177">
        <ele>639.52239950366</ele>
        <time>2021-08-21T11:00:14Z</time>
      </trkpt>
      <trkpt lat="47.86122" lon="6.62183">
        <ele>639.65582433599</ele>
        <time>2021-08-21T11:00:16Z</time>
      </trkpt>
      <trkpt lat="47.86127" lon="6.62189">
        <ele>639.7986007867</ele>
        <time>2021-08-21T11:00:18Z</time>
      </trkpt>
      <trkpt lat="47.86131" lon="6.62196">
        <ele>639.94442194956</ele>
        <time>2021-08-21T11:00:20Z</time>
      </trkpt>
      <trkpt lat="47.86135" lon="6.62203">
        <ele>640.10938616487</ele>
        <time>2021-08-21T11:00:22Z</time>
      </trkpt>
      <trkpt lat="47.86139" lon="6.6221">
        <ele>640.28052401131</ele>
        <time>2021-08-21T11:00:24Z</time>
      </trkpt>
      <trkpt lat="47.86143" lon="6.62216">
        <ele>640.43732115062</ele>
        <time>2021-08-21T11:00:26Z</time>
      </trkpt>
      <trkpt lat="47.86147" lon="6.62223">
        <ele>640.61699055655</ele>
        <time>2021-08-21T11:00:28Z</time>
      </trkpt>
      <trkpt lat="47.86151" lon="6.6223">
        <ele>640.80754125303</ele>
        <time>2021-08-21T11:00:30Z</time>
      </trkpt>
      <trkpt lat="47.86156" lon="6.62236">
        <ele>640.98125266058</ele>
        <time>2021-08-21T11:00:32Z</time>
      </trkpt>
      <trkpt lat="47.8616" lon="6.62242">
        <ele>641.14601382286</ele>
        <time>2021-08-21T11:00:34Z</time>
      </trkpt>
      <trkpt lat="47.86165" lon="6.62248">
        <ele>641.31881085959</ele>
        <time>2021-08-21T11:00:36Z</time>
      </trkpt>
      <trkpt lat="47.8617" lon="6.62253">
        <ele>641.50697559731</ele>
        <time>2021-08-21T11:00:38Z</time>
      </trkpt>
      <trkpt lat="47.86175" lon="6.62258">
        <ele>641.70697767951</ele>
        <time>2021-08-21T11:00:40Z</time>
      </trkpt>
      <trkpt lat="47.8618" lon="6.62263">
        <ele>641.9157706547</ele>
        <time>2021-08-21T11:00:42Z</time>
      </trkpt>
      <trkpt lat="47.86186" lon="6.62267">
        <ele>642.13306737039</ele>
        <time>2021-08-21T11:00:44Z</time>
      </trkpt>
      <trkpt lat="47.86191" lon="6.6227">
        <ele>642.36325487555</ele>
        <time>2021-08-21T11:00:46Z</time>
      </trkpt>
      <trkpt lat="47.86197" lon="6.62273">
        <ele>642.59877871587</ele>
        <time>2021-08-21T11:00:48Z</time>
      </trkpt>
      <trkpt lat="47.86203" lon="6.62276">
        <ele>642.83217831074</ele>
        <time>2021-08-21T11:00:50Z</time>
      </trkpt>
      <trkpt lat="47.8621" lon="6.62279">
        <ele>643.06942896979</ele>
        <time>2021-08-21T11:00:52Z</time>
      </trkpt>
      <trkpt lat="47.86217" lon="6.62282">
        <ele>643.30735182995</ele>
        <time>2021-08-21T11:00:54Z</time>
      </trkpt>
      <trkpt lat="47.86224" lon="6.62285">
        <ele>643.54537336486</ele>
        <time>2021-08-21T11:00:56Z</time>
      </trkpt>
      <trkpt lat="47.8623" lon="6.62288">
        <ele>643.78473823839</ele>
        <time>2021-08-21T11:00:58Z</time>
      </trkpt>
      <trkpt lat="47.86237" lon="6.62291">
        <ele>644.02256105935</ele>
        <time>2021-08-21T11:01:00Z</time>
      </trkpt>
      <trkpt lat="47.86245" lon="6.62294">
        <ele>644.25797246177</ele>
        <time>2021-08-21T11:01:02Z</time>
      </trkpt>
      <trkpt lat="47.8625" lon="6.62297">
        <ele>644.49318709172</ele>
        <time>2021-08-21T11:01:04Z</time>
      </trkpt>
      <trkpt lat="47.86256" lon="6.62299">
        <ele>644.72658406781</ele>
        <time>2021-08-21T11:01:06Z</time>
      </trkpt>
      <trkpt lat="47.86261" lon="6.62302">
        <ele>644.9616108489</ele>
        <time>2021-08-21T11:01:08Z</time>
      </trkpt>
      <trkpt lat="47.86267" lon="6.62305">
        <ele>645.19434082421</ele>
        <time>2021-08-21T11:01:10Z</time>
      </trkpt>
      <trkpt lat="47.86273" lon="6.62309">
        <ele>645.42251712454</ele>
        <time>2021-08-21T11:01:12Z</time>
      </trkpt>
      <trkpt lat="47.86279" lon="6.62312">
        <ele>645.64752579036</ele>
        <time>2021-08-21T11:01:14Z</time>
      </trkpt>
      <trkpt lat="47.86284" lon="6.62317">
        <ele>645.87103773016</ele>
        <time>2021-08-21T11:01:16Z</time>
      </trkpt>
      <trkpt lat="47.8629" lon="6.62321">
        <ele>646.0940894155</ele>
        <time>2021-08-21T11:01:18Z</time>
      </trkpt>
      <trkpt lat="47.86295" lon="6.62327">
        <ele>646.31530893673</ele>
        <time>2021-08-21T11:01:20Z</time>
      </trkpt>
      <trkpt lat="47.863" lon="6.62334">
        <ele>646.54151192131</ele>
        <time>2021-08-21T11:01:22Z</time>
      </trkpt>
      <trkpt lat="47.86306" lon="6.62343">
        <ele>647.80972726952</ele>
        <time>2021-08-21T11:01:24Z</time>
      </trkpt>
      <trkpt lat="47.86311" lon="6.62352">
        <ele>649.52544749262</ele>
        <time>2021-08-21T11:01:26Z</time>
      </trkpt>
      <trkpt lat="47.86315" lon="6.6236">
        <ele>650.68634830893</ele>
        <time>2021-08-21T11:01:28Z</time>
      </trkpt>
      <trkpt lat="47.8632" lon="6.62369">
        <ele>651.46660188712</ele>
        <time>2021-08-21T11:01:30Z</time>
      </trkpt>
      <trkpt lat="47.86324" lon="6.62377">
        <ele>652.00605688392</ele>
        <time>2021-08-21T11:01:32Z</time>
      </trkpt>
      <trkpt lat="47.86329" lon="6.62386">
        <ele>652.3877755436</ele>
        <time>2021-08-21T11:01:34Z</time>
      </trkpt>
      <trkpt lat="47.86333" lon="6.62395">
        <ele>652.69015451923</ele>
        <time>2021-08-21T11:01:36Z</time>
      </trkpt>
      <trkpt lat="47.86338" lon="6.62403">
        <ele>652.93249733001</ele>
        <time>2021-08-21T11:01:38Z</time>
      </trkpt>
      <trkpt lat="47.86342" lon="6.62412">
        <ele>653.14189048478</ele>
        <time>2021-08-21T11:01:40Z</time>
      </trkpt>
      <trkpt lat="47.86346" lon="6.62422">
        <ele>653.3216247282</ele>
        <time>2021-08-21T11:01:42Z</time>
      </trkpt>
      <trkpt lat="47.86351" lon="6.62431">
        <ele>653.4869756115</ele>
        <time>2021-08-21T11:01:44Z</time>
      </trkpt>
      <trkpt lat="47.86355" lon="6.62441">
        <ele>653.63108502272</ele>
        <time>2021-08-21T11:01:46Z</time>
      </trkpt>
      <trkpt lat="47.86361" lon="6.62451">
        <ele>653.76033382448</ele>
        <time>2021-08-21T11:01:48Z</time>
      </trkpt>
      <trkpt lat="47.86366" lon="6.6246">
        <ele>653.86860098031</ele>
        <time>2021-08-21T11:01:50Z</time>
      </trkpt>
      <trkpt lat="47.86371" lon="6.62469">
        <ele>653.96320672655</ele>
        <time>2021-08-21T11:01:52Z</time>
      </trkpt>
      <trkpt lat="47.86376" lon="6.62476">
        <ele>654.03687038716</ele>
        <time>2021-08-21T11:01:54Z</time>
      </trkpt>
      <trkpt lat="47.86382" lon="6.62483">
        <ele>654.10012412201</ele>
        <time>2021-08-21T11:01:56Z</time>
      </trkpt>
      <trkpt lat="47.86388" lon="6.62489">
        <ele>654.13556388165</ele>
        <time>2021-08-21T11:01:58Z</time>
      </trkpt>
      <trkpt lat="47.86393" lon="6.62495">
        <ele>654.14474004153</ele>
        <time>2021-08-21T11:02:00Z</time>
      </trkpt>
      <trkpt lat="47.86399" lon="6.62503">
        <ele>654.16389147782</ele>
        <time>2021-08-21T11:02:02Z</time>
      </trkpt>
      <trkpt lat="47.86405" lon="6.62508">
        <ele>654.18789797033</ele>
        <time>2021-08-21T11:02:04Z</time>
      </trkpt>
      <trkpt lat="47.86411" lon="6.62514">
        <ele>654.21346414962</ele>
        <time>2021-08-21T11:02:06Z</time>
      </trkpt>
      <trkpt lat="47.86417" lon="6.62522">
        <ele>654.36071088456</ele>
        <time>2021-08-21T11:02:08Z</time>
      </trkpt>
      <trkpt lat="47.86422" lon="6.62529">
        <ele>654.49729674771</ele>
        <time>2021-08-21T11:02:10Z</time>
      </trkpt>
      <trkpt lat="47.86426" lon="6.62538">
        <ele>654.51959038366</ele>
        <time>2021-08-21T11:02:12Z</time>
      </trkpt>
      <trkpt lat="47.86429" lon="6.62548">
        <ele>654.54476482041</ele>
        <time>2021-08-21T11:02:14Z</time>
      </trkpt>
      <trkpt lat="47.86432" lon="6.62557">
        <ele>654.57313132312</ele>
        <time>2021-08-21T11:02:16Z</time>
      </trkpt>
      <trkpt lat="47.86434" lon="6.62567">
        <ele>654.60410154852</ele>
        <time>2021-08-21T11:02:18Z</time>
      </trkpt>
      <trkpt lat="47.86436" lon="6.62576">
        <ele>654.63796413031</ele>
        <time>2021-08-21T11:02:20Z</time>
      </trkpt>
      <trkpt lat="47.86437" lon="6.62586">
        <ele>654.84184015498</ele>
        <time>2021-08-21T11:02:22Z</time>
      </trkpt>
      <trkpt lat="47.86438" lon="6.62597">
        <ele>655.0163924911</ele>
        <time>2021-08-21T11:02:24Z</time>
      </trkpt>
      <trkpt lat="47.8644" lon="6.62608">
        <ele>655.04668706248</ele>
        <time>2021-08-21T11:02:26Z</time>
      </trkpt>
      <trkpt lat="47.86442" lon="6.62619">
        <ele>655.33971835025</ele>
        <time>2021-08-21T11:02:28Z</time>
      </trkpt>
      <trkpt lat="47.86443" lon="6.6263">
        <ele>655.56399415973</ele>
        <time>2021-08-21T11:02:30Z</time>
      </trkpt>
      <trkpt lat="47.86444" lon="6.62644">
        <ele>655.73085728663</ele>
        <time>2021-08-21T11:02:32Z</time>
      </trkpt>
      <trkpt lat="47.86446" lon="6.62659">
        <ele>655.85490340651</ele>
        <time>2021-08-21T11:02:34Z</time>
      </trkpt>
      <trkpt lat="47.86447" lon="6.62677">
        <ele>655.96177272176</ele>
        <time>2021-08-21T11:02:36Z</time>
      </trkpt>
      <trkpt lat="47.86448" lon="6.62694">
        <ele>656.07525097923</ele>
        <time>2021-08-21T11:02:38Z</time>
      </trkpt>
      <trkpt lat="47.8645" lon="6.62714">
        <ele>656.16632988764</ele>
        <time>2021-08-21T11:02:40Z</time>
      </trkpt>
      <trkpt lat="47.86453" lon="6.62734">
        <ele>656.24121984848</ele>
        <time>2021-08-21T11:02:42Z</time>
      </trkpt>
      <trkpt lat="47.86455" lon="6.62754">
        <ele>656.29348353229</ele>
        <time>2021-08-21T11:02:44Z</time>
      </trkpt>
      <trkpt lat="47.86457" lon="6.62775">
        <ele>656.30835934217</ele>
        <time>2021-08-21T11:02:46Z</time>
      </trkpt>
      <trkpt lat="47.86458" lon="6.62797">
        <ele>656.24667916592</ele>
        <time>2021-08-21T11:02:48Z</time>
      </trkpt>
      <trkpt lat="47.86461" lon="6.62819">
        <ele>656.26984601692</ele>
        <time>2021-08-21T11:02:50Z</time>
      </trkpt>
      <trkpt lat="47.86466" lon="6.62841">
        <ele>656.2447671306</ele>
        <time>2021-08-21T11:02:52Z</time>
      </trkpt>
      <trkpt lat="47.86473" lon="6.62864">
        <ele>656.200295706</ele>
        <time>2021-08-21T11:02:54Z</time>
      </trkpt>
      <trkpt lat="47.86484" lon="6.62882">
        <ele>655.98446372587</ele>
        <time>2021-08-21T11:02:56Z</time>
      </trkpt>
      <trkpt lat="47.86498" lon="6.629">
        <ele>655.87916526555</ele>
        <time>2021-08-21T11:02:58Z</time>
      </trkpt>
      <trkpt lat="47.86512" lon="6.6292">
        <ele>655.80438901584</ele>
        <time>2021-08-21T11:03:00Z</time>
      </trkpt>
      <trkpt lat="47.86526" lon="6.6294">
        <ele>655.86024201124</ele>
        <time>2021-08-21T11:03:02Z</time>
      </trkpt>
      <trkpt lat="47.8654" lon="6.62959">
        <ele>656.0176191894</ele>
        <time>2021-08-21T11:03:04Z</time>
      </trkpt>
      <trkpt lat="47.86553" lon="6.62979">
        <ele>656.15165153846</ele>
        <time>2021-08-21T11:03:06Z</time>
      </trkpt>
      <trkpt lat="47.86566" lon="6.63">
        <ele>656.07697740765</ele>
        <time>2021-08-21T11:03:08Z</time>
      </trkpt>
      <trkpt lat="47.8658" lon="6.63023">
        <ele>656.1325038739</ele>
        <time>2021-08-21T11:03:10Z</time>
      </trkpt>
      <trkpt lat="47.86594" lon="6.63045">
        <ele>656.15364908412</ele>
        <time>2021-08-21T11:03:12Z</time>
      </trkpt>
      <trkpt lat="47.8661" lon="6.63064">
        <ele>656.10904304962</ele>
        <time>2021-08-21T11:03:14Z</time>
      </trkpt>
      <trkpt lat="47.86628" lon="6.63078">
        <ele>656.09145369821</ele>
        <time>2021-08-21T11:03:16Z</time>
      </trkpt>
      <trkpt lat="47.86646" lon="6.63088">
        <ele>656.27108942795</ele>
        <time>2021-08-21T11:03:18Z</time>
      </trkpt>
      <trkpt lat="47.86661" lon="6.63102">
        <ele>656.80251184573</ele>
        <time>2021-08-21T11:03:20Z</time>
      </trkpt>
      <trkpt lat="47.86669" lon="6.63119">
        <ele>657.59267818936</ele>
        <time>2021-08-21T11:03:22Z</time>
      </trkpt>
      <trkpt lat="47.86673" lon="6.63136">
        <ele>658.05836799715</ele>
        <time>2021-08-21T11:03:24Z</time>
      </trkpt>
      <trkpt lat="47.86678" lon="6.63153">
        <ele>658.18795970767</ele>
        <time>2021-08-21T11:03:26Z</time>
      </trkpt>
      <trkpt lat="47.86684" lon="6.63169">
        <ele>658.04159830255</ele>
        <time>2021-08-21T11:03:28Z</time>
      </trkpt>
      <trkpt lat="47.86691" lon="6.63184">
        <ele>657.50838828061</ele>
        <time>2021-08-21T11:03:30Z</time>
      </trkpt>
      <trkpt lat="47.86702" lon="6.63197">
        <ele>657.06394164487</ele>
        <time>2021-08-21T11:03:32Z</time>
      </trkpt>
      <trkpt lat="47.86713" lon="6.63207">
        <ele>656.74421034276</ele>
        <time>2021-08-21T11:03:34Z</time>
      </trkpt>
      <trkpt lat="47.86724" lon="6.63215">
        <ele>656.6222922962</ele>
        <time>2021-08-21T11:03:36Z</time>
      </trkpt>
      <trkpt lat="47.86733" lon="6.63226">
        <ele>656.65925196886</ele>
        <time>2021-08-21T11:03:38Z</time>
      </trkpt>
      <trkpt lat="47.8674" lon="6.63237">
        <ele>656.78692375212</ele>
        <time>2021-08-21T11:03:40Z</time>
      </trkpt>
      <trkpt lat="47.86746" lon="6.63245">
        <ele>656.97619488107</ele>
        <time>2021-08-21T11:03:42Z</time>
      </trkpt>
      <trkpt lat="47.86752" lon="6.63255">
        <ele>657.16848104092</ele>
        <time>2021-08-21T11:03:44Z</time>
      </trkpt>
      <trkpt lat="47.86758" lon="6.63263">
        <ele>657.10334826179</ele>
        <time>2021-08-21T11:03:46Z</time>
      </trkpt>
      <trkpt lat="47.86766" lon="6.63271">
        <ele>657.00110492837</ele>
        <time>2021-08-21T11:03:48Z</time>
      </trkpt>
      <trkpt lat="47.86774" lon="6.63279">
        <ele>656.80425785452</ele>
        <time>2021-08-21T11:03:50Z</time>
      </trkpt>
      <trkpt lat="47.86784" lon="6.63284">
        <ele>656.77469866882</ele>
        <time>2021-08-21T11:03:52Z</time>
      </trkpt>
      <trkpt lat="47.86794" lon="6.6329">
        <ele>656.73300193365</ele>
        <time>2021-08-21T11:03:54Z</time>
      </trkpt>
      <trkpt lat="47.86804" lon="6.63295">
        <ele>656.77496282769</ele>
        <time>2021-08-21T11:03:56Z</time>
      </trkpt>
      <trkpt lat="47.86813" lon="6.63301">
        <ele>656.96649150077</ele>
        <time>2021-08-21T11:03:58Z</time>
      </trkpt>
      <trkpt lat="47.86822" lon="6.6331">
        <ele>657.30352708796</ele>
        <time>2021-08-21T11:04:00Z</time>
      </trkpt>
      <trkpt lat="47.86829" lon="6.63319">
        <ele>657.65146025378</ele>
        <time>2021-08-21T11:04:02Z</time>
      </trkpt>
      <trkpt lat="47.86835" lon="6.6333">
        <ele>658.03496159189</ele>
        <time>2021-08-21T11:04:04Z</time>
      </trkpt>
      <trkpt lat="47.8684" lon="6.63345">
        <ele>658.57863722189</ele>
        <time>2021-08-21T11:04:06Z</time>
      </trkpt>
      <trkpt lat="47.86844" lon="6.63357">
        <ele>659.24645991513</ele>
        <time>2021-08-21T11:04:08Z</time>
      </trkpt>
      <trkpt lat="47.86847" lon="6.63368">
        <ele>659.52693002807</ele>
        <time>2021-08-21T11:04:10Z</time>
      </trkpt>
      <trkpt lat="47.86849" lon="6.63378">
        <ele>659.78770458912</ele>
        <time>2021-08-21T11:04:12Z</time>
      </trkpt>
      <trkpt lat="47.86851" lon="6.63388">
        <ele>659.82696492129</ele>
        <time>2021-08-21T11:04:14Z</time>
      </trkpt>
      <trkpt lat="47.86854" lon="6.63398">
        <ele>660.25924814633</ele>
        <time>2021-08-21T11:04:16Z</time>
      </trkpt>
      <trkpt lat="47.86857" lon="6.63408">
        <ele>660.29554708364</ele>
        <time>2021-08-21T11:04:18Z</time>
      </trkpt>
      <trkpt lat="47.8686" lon="6.63417">
        <ele>660.49041694196</ele>
        <time>2021-08-21T11:04:20Z</time>
      </trkpt>
      <trkpt lat="47.86865" lon="6.63427">
        <ele>660.748321326</ele>
        <time>2021-08-21T11:04:22Z</time>
      </trkpt>
      <trkpt lat="47.86869" lon="6.63435">
        <ele>660.77204211789</ele>
        <time>2021-08-21T11:04:24Z</time>
      </trkpt>
      <trkpt lat="47.86875" lon="6.63445">
        <ele>660.80864406299</ele>
        <time>2021-08-21T11:04:26Z</time>
      </trkpt>
      <trkpt lat="47.86879" lon="6.63451">
        <ele>660.8550203597</ele>
        <time>2021-08-21T11:04:28Z</time>
      </trkpt>
      <trkpt lat="47.86884" lon="6.63457">
        <ele>660.90269941983</ele>
        <time>2021-08-21T11:04:30Z</time>
      </trkpt>
      <trkpt lat="47.86888" lon="6.63464">
        <ele>660.95006624439</ele>
        <time>2021-08-21T11:04:32Z</time>
      </trkpt>
      <trkpt lat="47.86893" lon="6.63471">
        <ele>660.99658761833</ele>
        <time>2021-08-21T11:04:34Z</time>
      </trkpt>
      <trkpt lat="47.86898" lon="6.63476">
        <ele>661.04429551303</ele>
        <time>2021-08-21T11:04:36Z</time>
      </trkpt>
      <trkpt lat="47.86903" lon="6.63482">
        <ele>661.09413954057</ele>
        <time>2021-08-21T11:04:38Z</time>
      </trkpt>
      <trkpt lat="47.86909" lon="6.63488">
        <ele>661.14291560649</ele>
        <time>2021-08-21T11:04:40Z</time>
      </trkpt>
      <trkpt lat="47.86915" lon="6.63493">
        <ele>661.19209011978</ele>
        <time>2021-08-21T11:04:42Z</time>
      </trkpt>
      <trkpt lat="47.8692" lon="6.63499">
        <ele>661.24119148954</ele>
        <time>2021-08-21T11:04:44Z</time>
      </trkpt>
      <trkpt lat="47.86926" lon="6.63506">
        <ele>661.66338225383</ele>
        <time>2021-08-21T11:04:46Z</time>
      </trkpt>
      <trkpt lat="47.86932" lon="6.63512">
        <ele>661.94041642706</ele>
        <time>2021-08-21T11:04:48Z</time>
      </trkpt>
      <trkpt lat="47.86938" lon="6.6352">
        <ele>662.11298508108</ele>
        <time>2021-08-21T11:04:50Z</time>
      </trkpt>
      <trkpt lat="47.86944" lon="6.63529">
        <ele>662.24072497223</ele>
        <time>2021-08-21T11:04:52Z</time>
      </trkpt>
      <trkpt lat="47.8695" lon="6.63537">
        <ele>662.34277181789</ele>
        <time>2021-08-21T11:04:54Z</time>
      </trkpt>
      <trkpt lat="47.86956" lon="6.63545">
        <ele>662.37639865062</ele>
        <time>2021-08-21T11:04:56Z</time>
      </trkpt>
      <trkpt lat="47.86962" lon="6.63557">
        <ele>662.40892618449</ele>
        <time>2021-08-21T11:04:58Z</time>
      </trkpt>
      <trkpt lat="47.86965" lon="6.63566">
        <ele>662.45333890805</ele>
        <time>2021-08-21T11:05:00Z</time>
      </trkpt>
      <trkpt lat="47.86967" lon="6.63574">
        <ele>662.50339927326</ele>
        <time>2021-08-21T11:05:02Z</time>
      </trkpt>
      <trkpt lat="47.86969" lon="6.63583">
        <ele>662.56108031656</ele>
        <time>2021-08-21T11:05:04Z</time>
      </trkpt>
      <trkpt lat="47.86971" lon="6.63594">
        <ele>662.62111336776</ele>
        <time>2021-08-21T11:05:06Z</time>
      </trkpt>
      <trkpt lat="47.86972" lon="6.63605">
        <ele>662.68402796524</ele>
        <time>2021-08-21T11:05:08Z</time>
      </trkpt>
      <trkpt lat="47.86974" lon="6.63615">
        <ele>662.74861620064</ele>
        <time>2021-08-21T11:05:10Z</time>
      </trkpt>
      <trkpt lat="47.86976" lon="6.63625">
        <ele>662.81209716118</ele>
        <time>2021-08-21T11:05:12Z</time>
      </trkpt>
      <trkpt lat="47.86978" lon="6.63634">
        <ele>662.87892126087</ele>
        <time>2021-08-21T11:05:14Z</time>
      </trkpt>
      <trkpt lat="47.86981" lon="6.63644">
        <ele>662.94762864163</ele>
        <time>2021-08-21T11:05:16Z</time>
      </trkpt>
      <trkpt lat="47.86983" lon="6.63653">
        <ele>663.01728349109</ele>
        <time>2021-08-21T11:05:18Z</time>
      </trkpt>
      <trkpt lat="47.86986" lon="6.63662">
        <ele>663.0882590647</ele>
        <time>2021-08-21T11:05:20Z</time>
      </trkpt>
      <trkpt lat="47.8699" lon="6.63671">
        <ele>663.15941814391</ele>
        <time>2021-08-21T11:05:22Z</time>
      </trkpt>
      <trkpt lat="47.86995" lon="6.63679">
        <ele>663.23025231007</ele>
        <time>2021-08-21T11:05:24Z</time>
      </trkpt>
      <trkpt lat="47.86999" lon="6.63687">
        <ele>663.30096156032</ele>
        <time>2021-08-21T11:05:26Z</time>
      </trkpt>
      <trkpt lat="47.87004" lon="6.63693">
        <ele>663.3745619206</ele>
        <time>2021-08-21T11:05:28Z</time>
      </trkpt>
      <trkpt lat="47.87008" lon="6.637">
        <ele>663.4496884886</ele>
        <time>2021-08-21T11:05:30Z</time>
      </trkpt>
      <trkpt lat="47.87012" lon="6.63706">
        <ele>663.52652060907</ele>
        <time>2021-08-21T11:05:32Z</time>
      </trkpt>
      <trkpt lat="47.87017" lon="6.63713">
        <ele>663.60445377967</ele>
        <time>2021-08-21T11:05:34Z</time>
      </trkpt>
      <trkpt lat="47.87021" lon="6.63719">
        <ele>663.68492159575</ele>
        <time>2021-08-21T11:05:36Z</time>
      </trkpt>
      <trkpt lat="47.87026" lon="6.63725">
        <ele>663.76431540077</ele>
        <time>2021-08-21T11:05:38Z</time>
      </trkpt>
      <trkpt lat="47.87031" lon="6.6373">
        <ele>663.8438378235</ele>
        <time>2021-08-21T11:05:40Z</time>
      </trkpt>
      <trkpt lat="47.87037" lon="6.63735">
        <ele>663.92835261264</ele>
        <time>2021-08-21T11:05:42Z</time>
      </trkpt>
      <trkpt lat="47.87044" lon="6.6374">
        <ele>664.03070979992</ele>
        <time>2021-08-21T11:05:44Z</time>
      </trkpt>
      <trkpt lat="47.87049" lon="6.63744">
        <ele>664.14356445993</ele>
        <time>2021-08-21T11:05:46Z</time>
      </trkpt>
      <trkpt lat="47.87055" lon="6.63747">
        <ele>664.26744667992</ele>
        <time>2021-08-21T11:05:48Z</time>
      </trkpt>
      <trkpt lat="47.8706" lon="6.6375">
        <ele>664.40164505548</ele>
        <time>2021-08-21T11:05:50Z</time>
      </trkpt>
      <trkpt lat="47.87066" lon="6.63752">
        <ele>664.54492349335</ele>
        <time>2021-08-21T11:05:52Z</time>
      </trkpt>
      <trkpt lat="47.87071" lon="6.63755">
        <ele>664.69446198588</ele>
        <time>2021-08-21T11:05:54Z</time>
      </trkpt>
      <trkpt lat="47.87076" lon="6.63758">
        <ele>664.85067433649</ele>
        <time>2021-08-21T11:05:56Z</time>
      </trkpt>
      <trkpt lat="47.87081" lon="6.63762">
        <ele>665.01097646059</ele>
        <time>2021-08-21T11:05:58Z</time>
      </trkpt>
      <trkpt lat="47.87087" lon="6.63764">
        <ele>665.17523824805</ele>
        <time>2021-08-21T11:06:00Z</time>
      </trkpt>
      <trkpt lat="47.87092" lon="6.63766">
        <ele>665.3438731266</ele>
        <time>2021-08-21T11:06:02Z</time>
      </trkpt>
      <trkpt lat="47.87097" lon="6.6377">
        <ele>665.51782727532</ele>
        <time>2021-08-21T11:06:04Z</time>
      </trkpt>
      <trkpt lat="47.87101" lon="6.63774">
        <ele>665.6929174158</ele>
        <time>2021-08-21T11:06:06Z</time>
      </trkpt>
      <trkpt lat="47.87106" lon="6.63779">
        <ele>665.87271162545</ele>
        <time>2021-08-21T11:06:08Z</time>
      </trkpt>
      <trkpt lat="47.8711" lon="6.63783">
        <ele>666.05414229008</ele>
        <time>2021-08-21T11:06:10Z</time>
      </trkpt>
      <trkpt lat="47.87114" lon="6.63787">
        <ele>666.23740703655</ele>
        <time>2021-08-21T11:06:12Z</time>
      </trkpt>
      <trkpt lat="47.87119" lon="6.63793">
        <ele>666.42591045985</ele>
        <time>2021-08-21T11:06:14Z</time>
      </trkpt>
      <trkpt lat="47.87123" lon="6.63798">
        <ele>666.6219975043</ele>
        <time>2021-08-21T11:06:16Z</time>
      </trkpt>
      <trkpt lat="47.87127" lon="6.63802">
        <ele>666.82221965835</ele>
        <time>2021-08-21T11:06:18Z</time>
      </trkpt>
      <trkpt lat="47.8713" lon="6.63807">
        <ele>667.02429548265</ele>
        <time>2021-08-21T11:06:20Z</time>
      </trkpt>
      <trkpt lat="47.87134" lon="6.63811">
        <ele>667.22803184012</ele>
        <time>2021-08-21T11:06:22Z</time>
      </trkpt>
      <trkpt lat="47.87139" lon="6.63816">
        <ele>667.43425674639</ele>
        <time>2021-08-21T11:06:24Z</time>
      </trkpt>
      <trkpt lat="47.87143" lon="6.6382">
        <ele>667.64212563826</ele>
        <time>2021-08-21T11:06:26Z</time>
      </trkpt>
      <trkpt lat="47.87147" lon="6.63825">
        <ele>667.85274926016</ele>
        <time>2021-08-21T11:06:28Z</time>
      </trkpt>
      <trkpt lat="47.87152" lon="6.63829">
        <ele>668.06779717692</ele>
        <time>2021-08-21T11:06:30Z</time>
      </trkpt>
      <trkpt lat="47.87156" lon="6.63834">
        <ele>668.28474420834</ele>
        <time>2021-08-21T11:06:32Z</time>
      </trkpt>
      <trkpt lat="47.87161" lon="6.63838">
        <ele>668.5055025171</ele>
        <time>2021-08-21T11:06:34Z</time>
      </trkpt>
      <trkpt lat="47.87165" lon="6.63844">
        <ele>668.72930392281</ele>
        <time>2021-08-21T11:06:36Z</time>
      </trkpt>
      <trkpt lat="47.87169" lon="6.63851">
        <ele>668.95448875057</ele>
        <time>2021-08-21T11:06:38Z</time>
      </trkpt>
      <trkpt lat="47.87173" lon="6.63858">
        <ele>669.18179219968</ele>
        <time>2021-08-21T11:06:40Z</time>
      </trkpt>
      <trkpt lat="47.87175" lon="6.63865">
        <ele>669.4064427536</ele>
        <time>2021-08-21T11:06:42Z</time>
      </trkpt>
      <trkpt lat="47.87177" lon="6.63873">
        <ele>669.62908022384</ele>
        <time>2021-08-21T11:06:44Z</time>
      </trkpt>
      <trkpt lat="47.87177" lon="6.63882">
        <ele>669.84871833379</ele>
        <time>2021-08-21T11:06:46Z</time>
      </trkpt>
      <trkpt lat="47.87176" lon="6.63891">
        <ele>670.06519079438</ele>
        <time>2021-08-21T11:06:48Z</time>
      </trkpt>
      <trkpt lat="47.87173" lon="6.639">
        <ele>670.27777994167</ele>
        <time>2021-08-21T11:06:50Z</time>
      </trkpt>
      <trkpt lat="47.87168" lon="6.63906">
        <ele>670.48754298369</ele>
        <time>2021-08-21T11:06:52Z</time>
      </trkpt>
      <trkpt lat="47.87161" lon="6.63911">
        <ele>670.69622723006</ele>
        <time>2021-08-21T11:06:54Z</time>
      </trkpt>
      <trkpt lat="47.87154" lon="6.63915">
        <ele>670.90609623034</ele>
        <time>2021-08-21T11:06:56Z</time>
      </trkpt>
      <trkpt lat="47.87147" lon="6.63918">
        <ele>671.11913342397</ele>
        <time>2021-08-21T11:06:58Z</time>
      </trkpt>
      <trkpt lat="47.87139" lon="6.63922">
        <ele>671.3343104041</ele>
        <time>2021-08-21T11:07:00Z</time>
      </trkpt>
      <trkpt lat="47.87132" lon="6.63929">
        <ele>671.5502809033</ele>
        <time>2021-08-21T11:07:02Z</time>
      </trkpt>
      <trkpt lat="47.87126" lon="6.63935">
        <ele>671.76339460494</ele>
        <time>2021-08-21T11:07:04Z</time>
      </trkpt>
      <trkpt lat="47.87123" lon="6.63944">
        <ele>672.89717905719</ele>
        <time>2021-08-21T11:07:06Z</time>
      </trkpt>
      <trkpt lat="47.87122" lon="6.63952">
        <ele>673.06671380059</ele>
        <time>2021-08-21T11:07:08Z</time>
      </trkpt>
      <trkpt lat="47.87121" lon="6.6396">
        <ele>673.23370627807</ele>
        <time>2021-08-21T11:07:10Z</time>
      </trkpt>
      <trkpt lat="47.87121" lon="6.63968">
        <ele>673.39684482329</ele>
        <time>2021-08-21T11:07:12Z</time>
      </trkpt>
      <trkpt lat="47.87122" lon="6.63977">
        <ele>673.55589874482</ele>
        <time>2021-08-21T11:07:14Z</time>
      </trkpt>
      <trkpt lat="47.87123" lon="6.63986">
        <ele>673.71069319514</ele>
        <time>2021-08-21T11:07:16Z</time>
      </trkpt>
      <trkpt lat="47.87125" lon="6.63995">
        <ele>673.86065173174</ele>
        <time>2021-08-21T11:07:18Z</time>
      </trkpt>
      <trkpt lat="47.87128" lon="6.64004">
        <ele>674.00646704312</ele>
        <time>2021-08-21T11:07:20Z</time>
      </trkpt>
      <trkpt lat="47.87132" lon="6.64011">
        <ele>674.14987352666</ele>
        <time>2021-08-21T11:07:22Z</time>
      </trkpt>
      <trkpt lat="47.87136" lon="6.64018">
        <ele>674.2944145018</ele>
        <time>2021-08-21T11:07:24Z</time>
      </trkpt>
      <trkpt lat="47.8714" lon="6.64025">
        <ele>674.44108389965</ele>
        <time>2021-08-21T11:07:26Z</time>
      </trkpt>
      <trkpt lat="47.87145" lon="6.64033">
        <ele>674.58684517192</ele>
        <time>2021-08-21T11:07:28Z</time>
      </trkpt>
      <trkpt lat="47.87147" lon="6.6404">
        <ele>674.73148362171</ele>
        <time>2021-08-21T11:07:30Z</time>
      </trkpt>
      <trkpt lat="47.87148" lon="6.64046">
        <ele>674.87342778085</ele>
        <time>2021-08-21T11:07:32Z</time>
      </trkpt>
      <trkpt lat="47.8715" lon="6.64052">
        <ele>675.01365215125</ele>
        <time>2021-08-21T11:07:34Z</time>
      </trkpt>
      <trkpt lat="47.87151" lon="6.64057">
        <ele>675.15085411642</ele>
        <time>2021-08-21T11:07:36Z</time>
      </trkpt>
      <trkpt lat="47.87152" lon="6.64064">
        <ele>675.28677337696</ele>
        <time>2021-08-21T11:07:38Z</time>
      </trkpt>
      <trkpt lat="47.87153" lon="6.64071">
        <ele>675.42153032388</ele>
        <time>2021-08-21T11:07:40Z</time>
      </trkpt>
      <trkpt lat="47.87153" lon="6.64077">
        <ele>675.55485977212</ele>
        <time>2021-08-21T11:07:42Z</time>
      </trkpt>
      <trkpt lat="47.87151" lon="6.64083">
        <ele>675.68685263787</ele>
        <time>2021-08-21T11:07:44Z</time>
      </trkpt>
      <trkpt lat="47.8715" lon="6.64089">
        <ele>675.81800394434</ele>
        <time>2021-08-21T11:07:46Z</time>
      </trkpt>
      <trkpt lat="47.87147" lon="6.64095">
        <ele>675.94696546544</ele>
        <time>2021-08-21T11:07:48Z</time>
      </trkpt>
      <trkpt lat="47.87145" lon="6.64101">
        <ele>676.07399915969</ele>
        <time>2021-08-21T11:07:50Z</time>
      </trkpt>
      <trkpt lat="47.87142" lon="6.64106">
        <ele>676.19936860762</ele>
        <time>2021-08-21T11:07:52Z</time>
      </trkpt>
      <trkpt lat="47.8714" lon="6.64111">
        <ele>676.3229986265</ele>
        <time>2021-08-21T11:07:54Z</time>
      </trkpt>
      <trkpt lat="47.87138" lon="6.64117">
        <ele>676.44544114894</ele>
        <time>2021-08-21T11:07:56Z</time>
      </trkpt>
      <trkpt lat="47.87136" lon="6.64123">
        <ele>676.56690302371</ele>
        <time>2021-08-21T11:07:58Z</time>
      </trkpt>
      <trkpt lat="47.87133" lon="6.64129">
        <ele>676.68757863446</ele>
        <time>2021-08-21T11:08:00Z</time>
      </trkpt>
      <trkpt lat="47.87131" lon="6.64135">
        <ele>676.80772396334</ele>
        <time>2021-08-21T11:08:02Z</time>
      </trkpt>
      <trkpt lat="47.87129" lon="6.6414">
        <ele>676.92809413451</ele>
        <time>2021-08-21T11:08:04Z</time>
      </trkpt>
      <trkpt lat="47.87126" lon="6.64146">
        <ele>677.04770373263</ele>
        <time>2021-08-21T11:08:06Z</time>
      </trkpt>
      <trkpt lat="47.87124" lon="6.64151">
        <ele>677.16676694712</ele>
        <time>2021-08-21T11:08:08Z</time>
      </trkpt>
      <trkpt lat="47.87122" lon="6.64157">
        <ele>677.28498205128</ele>
        <time>2021-08-21T11:08:10Z</time>
      </trkpt>
      <trkpt lat="47.8712" lon="6.64164">
        <ele>677.40228767623</ele>
        <time>2021-08-21T11:08:12Z</time>
      </trkpt>
      <trkpt lat="47.87118" lon="6.64171">
        <ele>677.51876985983</ele>
        <time>2021-08-21T11:08:14Z</time>
      </trkpt>
      <trkpt lat="47.87117" lon="6.64179">
        <ele>677.63420788022</ele>
        <time>2021-08-21T11:08:16Z</time>
      </trkpt>
      <trkpt lat="47.87116" lon="6.64187">
        <ele>677.74887339025</ele>
        <time>2021-08-21T11:08:18Z</time>
      </trkpt>
      <trkpt lat="47.87115" lon="6.64197">
        <ele>677.86181591194</ele>
        <time>2021-08-21T11:08:20Z</time>
      </trkpt>
      <trkpt lat="47.87115" lon="6.64207">
        <ele>677.97337303764</ele>
        <time>2021-08-21T11:08:22Z</time>
      </trkpt>
      <trkpt lat="47.87116" lon="6.64217">
        <ele>678.08278965925</ele>
        <time>2021-08-21T11:08:24Z</time>
      </trkpt>
      <trkpt lat="47.87117" lon="6.64226">
        <ele>678.19063289734</ele>
        <time>2021-08-21T11:08:26Z</time>
      </trkpt>
      <trkpt lat="47.87119" lon="6.64234">
        <ele>678.29777259313</ele>
        <time>2021-08-21T11:08:28Z</time>
      </trkpt>
      <trkpt lat="47.87122" lon="6.64242">
        <ele>678.40284224063</ele>
        <time>2021-08-21T11:08:30Z</time>
      </trkpt>
      <trkpt lat="47.87124" lon="6.6425">
        <ele>678.50674002418</ele>
        <time>2021-08-21T11:08:32Z</time>
      </trkpt>
      <trkpt lat="47.87126" lon="6.64258">
        <ele>678.60922952826</ele>
        <time>2021-08-21T11:08:34Z</time>
      </trkpt>
      <trkpt lat="47.87128" lon="6.64266">
        <ele>678.71124616668</ele>
        <time>2021-08-21T11:08:36Z</time>
      </trkpt>
      <trkpt lat="47.87131" lon="6.64275">
        <ele>678.81314625439</ele>
        <time>2021-08-21T11:08:38Z</time>
      </trkpt>
      <trkpt lat="47.87134" lon="6.64283">
        <ele>678.91457525406</ele>
        <time>2021-08-21T11:08:40Z</time>
      </trkpt>
      <trkpt lat="47.87136" lon="6.64291">
        <ele>679.01566033259</ele>
        <time>2021-08-21T11:08:42Z</time>
      </trkpt>
      <trkpt lat="47.87139" lon="6.64299">
        <ele>679.11601755066</ele>
        <time>2021-08-21T11:08:44Z</time>
      </trkpt>
      <trkpt lat="47.87142" lon="6.64307">
        <ele>679.21745452362</ele>
        <time>2021-08-21T11:08:46Z</time>
      </trkpt>
      <trkpt lat="47.87145" lon="6.64315">
        <ele>679.31954901311</ele>
        <time>2021-08-21T11:08:48Z</time>
      </trkpt>
      <trkpt lat="47.87148" lon="6.64323">
        <ele>679.42132780448</ele>
        <time>2021-08-21T11:08:50Z</time>
      </trkpt>
      <trkpt lat="47.87151" lon="6.64332">
        <ele>679.52376039916</ele>
        <time>2021-08-21T11:08:52Z</time>
      </trkpt>
      <trkpt lat="47.87154" lon="6.6434">
        <ele>679.62639027631</ele>
        <time>2021-08-21T11:08:54Z</time>
      </trkpt>
      <trkpt lat="47.87157" lon="6.6435">
        <ele>679.73014550569</ele>
        <time>2021-08-21T11:08:56Z</time>
      </trkpt>
      <trkpt lat="47.8716" lon="6.64359">
        <ele>679.83422689502</ele>
        <time>2021-08-21T11:08:58Z</time>
      </trkpt>
      <trkpt lat="47.87162" lon="6.64369">
        <ele>679.93880014761</ele>
        <time>2021-08-21T11:09:00Z</time>
      </trkpt>
      <trkpt lat="47.87165" lon="6.6438">
        <ele>680.04364192471</ele>
        <time>2021-08-21T11:09:02Z</time>
      </trkpt>
      <trkpt lat="47.87166" lon="6.6439">
        <ele>680.14950512315</ele>
        <time>2021-08-21T11:09:04Z</time>
      </trkpt>
      <trkpt lat="47.87168" lon="6.644">
        <ele>680.25593050651</ele>
        <time>2021-08-21T11:09:06Z</time>
      </trkpt>
      <trkpt lat="47.87169" lon="6.64411">
        <ele>680.36054489288</ele>
        <time>2021-08-21T11:09:08Z</time>
      </trkpt>
      <trkpt lat="47.8717" lon="6.64422">
        <ele>680.46475969702</ele>
        <time>2021-08-21T11:09:10Z</time>
      </trkpt>
      <trkpt lat="47.87171" lon="6.64434">
        <ele>680.56788283467</ele>
        <time>2021-08-21T11:09:12Z</time>
      </trkpt>
      <trkpt lat="47.87173" lon="6.64446">
        <ele>680.66960065577</ele>
        <time>2021-08-21T11:09:14Z</time>
      </trkpt>
      <trkpt lat="47.87175" lon="6.64456">
        <ele>680.77038210664</ele>
        <time>2021-08-21T11:09:16Z</time>
      </trkpt>
      <trkpt lat="47.87177" lon="6.64467">
        <ele>680.86999704835</ele>
        <time>2021-08-21T11:09:18Z</time>
      </trkpt>
      <trkpt lat="47.87179" lon="6.64478">
        <ele>680.96780727221</ele>
        <time>2021-08-21T11:09:20Z</time>
      </trkpt>
      <trkpt lat="47.87181" lon="6.64487">
        <ele>681.06500631728</ele>
        <time>2021-08-21T11:09:22Z</time>
      </trkpt>
      <trkpt lat="47.87184" lon="6.64497">
        <ele>681.16294866666</ele>
        <time>2021-08-21T11:09:24Z</time>
      </trkpt>
      <trkpt lat="47.87186" lon="6.64507">
        <ele>681.25910411273</ele>
        <time>2021-08-21T11:09:26Z</time>
      </trkpt>
      <trkpt lat="47.8719" lon="6.64515">
        <ele>681.35582533675</ele>
        <time>2021-08-21T11:09:28Z</time>
      </trkpt>
      <trkpt lat="47.87193" lon="6.64523">
        <ele>681.45325214815</ele>
        <time>2021-08-21T11:09:30Z</time>
      </trkpt>
      <trkpt lat="47.87197" lon="6.64531">
        <ele>681.55017260658</ele>
        <time>2021-08-21T11:09:32Z</time>
      </trkpt>
      <trkpt lat="47.87201" lon="6.6454">
        <ele>681.64664887962</ele>
        <time>2021-08-21T11:09:34Z</time>
      </trkpt>
      <trkpt lat="47.87205" lon="6.6455">
        <ele>681.74691475198</ele>
        <time>2021-08-21T11:09:36Z</time>
      </trkpt>
      <trkpt lat="47.87209" lon="6.64558">
        <ele>681.85185500757</ele>
        <time>2021-08-21T11:09:38Z</time>
      </trkpt>
      <trkpt lat="47.87214" lon="6.64566">
        <ele>681.95984753298</ele>
        <time>2021-08-21T11:09:40Z</time>
      </trkpt>
      <trkpt lat="47.87219" lon="6.64575">
        <ele>682.07147595714</ele>
        <time>2021-08-21T11:09:42Z</time>
      </trkpt>
      <trkpt lat="47.87224" lon="6.64582">
        <ele>682.18424397418</ele>
        <time>2021-08-21T11:09:44Z</time>
      </trkpt>
      <trkpt lat="47.87229" lon="6.64587">
        <ele>682.29948921706</ele>
        <time>2021-08-21T11:09:46Z</time>
      </trkpt>
      <trkpt lat="47.87234" lon="6.64591">
        <ele>682.4196534735</ele>
        <time>2021-08-21T11:09:48Z</time>
      </trkpt>
      <trkpt lat="47.87239" lon="6.64596">
        <ele>682.54439913416</ele>
        <time>2021-08-21T11:09:50Z</time>
      </trkpt>
      <trkpt lat="47.87245" lon="6.646">
        <ele>682.67476677821</ele>
        <time>2021-08-21T11:09:52Z</time>
      </trkpt>
      <trkpt lat="47.8725" lon="6.64604">
        <ele>682.8111033187</ele>
        <time>2021-08-21T11:09:54Z</time>
      </trkpt>
      <trkpt lat="47.87255" lon="6.6461">
        <ele>682.94816305808</ele>
        <time>2021-08-21T11:09:56Z</time>
      </trkpt>
      <trkpt lat="47.8726" lon="6.64616">
        <ele>683.08516775079</ele>
        <time>2021-08-21T11:09:58Z</time>
      </trkpt>
      <trkpt lat="47.87267" lon="6.64622">
        <ele>684.3512471436</ele>
        <time>2021-08-21T11:10:00Z</time>
      </trkpt>
      <trkpt lat="47.87272" lon="6.64632">
        <ele>685.19269583433</ele>
        <time>2021-08-21T11:10:02Z</time>
      </trkpt>
      <trkpt lat="47.87276" lon="6.64641">
        <ele>685.76181666284</ele>
        <time>2021-08-21T11:10:04Z</time>
      </trkpt>
      <trkpt lat="47.87279" lon="6.64652">
        <ele>686.17158754595</ele>
        <time>2021-08-21T11:10:06Z</time>
      </trkpt>
      <trkpt lat="47.87281" lon="6.64666">
        <ele>686.46709146217</ele>
        <time>2021-08-21T11:10:08Z</time>
      </trkpt>
      <trkpt lat="47.87281" lon="6.6468">
        <ele>686.68996416315</ele>
        <time>2021-08-21T11:10:10Z</time>
      </trkpt>
      <trkpt lat="47.87281" lon="6.64694">
        <ele>686.87323621951</ele>
        <time>2021-08-21T11:10:12Z</time>
      </trkpt>
      <trkpt lat="47.87279" lon="6.64706">
        <ele>687.03506428347</ele>
        <time>2021-08-21T11:10:14Z</time>
      </trkpt>
      <trkpt lat="47.87276" lon="6.64717">
        <ele>687.17647307259</ele>
        <time>2021-08-21T11:10:16Z</time>
      </trkpt>
      <trkpt lat="47.87272" lon="6.64727">
        <ele>687.2911070662</ele>
        <time>2021-08-21T11:10:18Z</time>
      </trkpt>
      <trkpt lat="47.87266" lon="6.64735">
        <ele>687.30178053005</ele>
        <time>2021-08-21T11:10:20Z</time>
      </trkpt>
      <trkpt lat="47.87261" lon="6.64744">
        <ele>687.31625340976</ele>
        <time>2021-08-21T11:10:22Z</time>
      </trkpt>
      <trkpt lat="47.87256" lon="6.64752">
        <ele>687.33843592689</ele>
        <time>2021-08-21T11:10:24Z</time>
      </trkpt>
      <trkpt lat="47.87249" lon="6.6476">
        <ele>687.36720323507</ele>
        <time>2021-08-21T11:10:26Z</time>
      </trkpt>
      <trkpt lat="47.87243" lon="6.64763">
        <ele>687.39791963333</ele>
        <time>2021-08-21T11:10:28Z</time>
      </trkpt>
      <trkpt lat="47.87238" lon="6.64765">
        <ele>687.43440537481</ele>
        <time>2021-08-21T11:10:30Z</time>
      </trkpt>
      <trkpt lat="47.87232" lon="6.64768">
        <ele>687.47265757256</ele>
        <time>2021-08-21T11:10:32Z</time>
      </trkpt>
      <trkpt lat="47.87226" lon="6.64771">
        <ele>687.51861659249</ele>
        <time>2021-08-21T11:10:34Z</time>
      </trkpt>
      <trkpt lat="47.8722" lon="6.64776">
        <ele>687.57387139092</ele>
        <time>2021-08-21T11:10:36Z</time>
      </trkpt>
      <trkpt lat="47.87213" lon="6.64784">
        <ele>688.17606051393</ele>
        <time>2021-08-21T11:10:38Z</time>
      </trkpt>
      <trkpt lat="47.87209" lon="6.64792">
        <ele>688.70994715082</ele>
        <time>2021-08-21T11:10:40Z</time>
      </trkpt>
      <trkpt lat="47.87206" lon="6.64803">
        <ele>689.18883163662</ele>
        <time>2021-08-21T11:10:42Z</time>
      </trkpt>
      <trkpt lat="47.87204" lon="6.64818">
        <ele>689.60568979636</ele>
        <time>2021-08-21T11:10:44Z</time>
      </trkpt>
      <trkpt lat="47.87205" lon="6.64835">
        <ele>689.98777530484</ele>
        <time>2021-08-21T11:10:46Z</time>
      </trkpt>
      <trkpt lat="47.87205" lon="6.64852">
        <ele>690.40670925176</ele>
        <time>2021-08-21T11:10:48Z</time>
      </trkpt>
      <trkpt lat="47.87206" lon="6.64868">
        <ele>690.83782050888</ele>
        <time>2021-08-21T11:10:50Z</time>
      </trkpt>
      <trkpt lat="47.87207" lon="6.64887">
        <ele>691.29674867996</ele>
        <time>2021-08-21T11:10:52Z</time>
      </trkpt>
      <trkpt lat="47.87208" lon="6.64905">
        <ele>691.73528486543</ele>
        <time>2021-08-21T11:10:54Z</time>
      </trkpt>
      <trkpt lat="47.8721" lon="6.64924">
        <ele>692.12195833587</ele>
        <time>2021-08-21T11:10:56Z</time>
      </trkpt>
      <trkpt lat="47.87211" lon="6.64944">
        <ele>692.33082587764</ele>
        <time>2021-08-21T11:10:58Z</time>
      </trkpt>
      <trkpt lat="47.87212" lon="6.64965">
        <ele>692.68776624483</ele>
        <time>2021-08-21T11:11:00Z</time>
      </trkpt>
      <trkpt lat="47.87215" lon="6.64986">
        <ele>693.67641295523</ele>
        <time>2021-08-21T11:11:02Z</time>
      </trkpt>
      <trkpt lat="47.87207" lon="6.65004">
        <ele>694.66245974436</ele>
        <time>2021-08-21T11:11:04Z</time>
      </trkpt>
      <trkpt lat="47.87198" lon="6.65021">
        <ele>695.57731434822</ele>
        <time>2021-08-21T11:11:06Z</time>
      </trkpt>
      <trkpt lat="47.87188" lon="6.65038">
        <ele>696.41416050015</ele>
        <time>2021-08-21T11:11:08Z</time>
      </trkpt>
      <trkpt lat="47.87178" lon="6.65054">
        <ele>696.97782692253</ele>
        <time>2021-08-21T11:11:10Z</time>
      </trkpt>
      <trkpt lat="47.87169" lon="6.65072">
        <ele>697.44035753895</ele>
        <time>2021-08-21T11:11:12Z</time>
      </trkpt>
      <trkpt lat="47.87159" lon="6.65092">
        <ele>697.87954636521</ele>
        <time>2021-08-21T11:11:14Z</time>
      </trkpt>
      <trkpt lat="47.8715" lon="6.6511">
        <ele>698.16546508491</ele>
        <time>2021-08-21T11:11:16Z</time>
      </trkpt>
      <trkpt lat="47.87141" lon="6.65128">
        <ele>698.59875836118</ele>
        <time>2021-08-21T11:11:18Z</time>
      </trkpt>
      <trkpt lat="47.87132" lon="6.65146">
        <ele>699.17776999022</ele>
        <time>2021-08-21T11:11:20Z</time>
      </trkpt>
      <trkpt lat="47.87124" lon="6.65163">
        <ele>699.89312825421</ele>
        <time>2021-08-21T11:11:22Z</time>
      </trkpt>
      <trkpt lat="47.87116" lon="6.6518">
        <ele>700.38185073611</ele>
        <time>2021-08-21T11:11:24Z</time>
      </trkpt>
      <trkpt lat="47.87107" lon="6.65196">
        <ele>700.85823557417</ele>
        <time>2021-08-21T11:11:26Z</time>
      </trkpt>
      <trkpt lat="47.871" lon="6.65211">
        <ele>701.30181667491</ele>
        <time>2021-08-21T11:11:28Z</time>
      </trkpt>
      <trkpt lat="47.87093" lon="6.65225">
        <ele>701.76402102564</ele>
        <time>2021-08-21T11:11:30Z</time>
      </trkpt>
      <trkpt lat="47.8709" lon="6.65237">
        <ele>703.03400145193</ele>
        <time>2021-08-21T11:11:32Z</time>
      </trkpt>
      <trkpt lat="47.87083" lon="6.65251">
        <ele>704.17239914771</ele>
        <time>2021-08-21T11:11:34Z</time>
      </trkpt>
      <trkpt lat="47.87077" lon="6.65264">
        <ele>705.11762872473</ele>
        <time>2021-08-21T11:11:36Z</time>
      </trkpt>
      <trkpt lat="47.87072" lon="6.65277">
        <ele>705.77975863159</ele>
        <time>2021-08-21T11:11:38Z</time>
      </trkpt>
      <trkpt lat="47.87068" lon="6.6529">
        <ele>706.30809840986</ele>
        <time>2021-08-21T11:11:40Z</time>
      </trkpt>
      <trkpt lat="47.87065" lon="6.65303">
        <ele>706.73667062625</ele>
        <time>2021-08-21T11:11:42Z</time>
      </trkpt>
      <trkpt lat="47.87063" lon="6.65315">
        <ele>706.91495923036</ele>
        <time>2021-08-21T11:11:44Z</time>
      </trkpt>
      <trkpt lat="47.87061" lon="6.65328">
        <ele>707.21725361227</ele>
        <time>2021-08-21T11:11:46Z</time>
      </trkpt>
      <trkpt lat="47.87059" lon="6.65339">
        <ele>707.49403114169</ele>
        <time>2021-08-21T11:11:48Z</time>
      </trkpt>
      <trkpt lat="47.87058" lon="6.65353">
        <ele>707.78895127672</ele>
        <time>2021-08-21T11:11:50Z</time>
      </trkpt>
      <trkpt lat="47.87057" lon="6.65366">
        <ele>708.21311931627</ele>
        <time>2021-08-21T11:11:52Z</time>
      </trkpt>
      <trkpt lat="47.87055" lon="6.65379">
        <ele>708.90921028174</ele>
        <time>2021-08-21T11:11:54Z</time>
      </trkpt>
      <trkpt lat="47.87054" lon="6.65391">
        <ele>709.29841036747</ele>
        <time>2021-08-21T11:11:56Z</time>
      </trkpt>
      <trkpt lat="47.87052" lon="6.65405">
        <ele>709.48870597792</ele>
        <time>2021-08-21T11:11:58Z</time>
      </trkpt>
      <trkpt lat="47.8705" lon="6.65419">
        <ele>709.74404702487</ele>
        <time>2021-08-21T11:12:00Z</time>
      </trkpt>
      <trkpt lat="47.87048" lon="6.65434">
        <ele>710.04365809793</ele>
        <time>2021-08-21T11:12:02Z</time>
      </trkpt>
      <trkpt lat="47.87047" lon="6.65448">
        <ele>710.35138051354</ele>
        <time>2021-08-21T11:12:04Z</time>
      </trkpt>
      <trkpt lat="47.87046" lon="6.65461">
        <ele>710.63606004647</ele>
        <time>2021-08-21T11:12:06Z</time>
      </trkpt>
      <trkpt lat="47.87045" lon="6.65473">
        <ele>710.91933230324</ele>
        <time>2021-08-21T11:12:08Z</time>
      </trkpt>
      <trkpt lat="47.87044" lon="6.65487">
        <ele>711.18067409805</ele>
        <time>2021-08-21T11:12:10Z</time>
      </trkpt>
      <trkpt lat="47.87042" lon="6.65499">
        <ele>711.39003485577</ele>
        <time>2021-08-21T11:12:12Z</time>
      </trkpt>
      <trkpt lat="47.8704" lon="6.65512">
        <ele>711.59650388662</ele>
        <time>2021-08-21T11:12:14Z</time>
      </trkpt>
      <trkpt lat="47.87038" lon="6.65523">
        <ele>711.77947267786</ele>
        <time>2021-08-21T11:12:16Z</time>
      </trkpt>
      <trkpt lat="47.87037" lon="6.65535">
        <ele>711.9900297901</ele>
        <time>2021-08-21T11:12:18Z</time>
      </trkpt>
      <trkpt lat="47.87035" lon="6.65548">
        <ele>712.24578187585</ele>
        <time>2021-08-21T11:12:20Z</time>
      </trkpt>
      <trkpt lat="47.87032" lon="6.65561">
        <ele>712.49080418308</ele>
        <time>2021-08-21T11:12:22Z</time>
      </trkpt>
      <trkpt lat="47.8703" lon="6.65573">
        <ele>712.77240367001</ele>
        <time>2021-08-21T11:12:24Z</time>
      </trkpt>
      <trkpt lat="47.87028" lon="6.65585">
        <ele>713.03085179137</ele>
        <time>2021-08-21T11:12:26Z</time>
      </trkpt>
      <trkpt lat="47.87026" lon="6.65596">
        <ele>713.1656583849</ele>
        <time>2021-08-21T11:12:28Z</time>
      </trkpt>
      <trkpt lat="47.87024" lon="6.65607">
        <ele>713.39036137463</ele>
        <time>2021-08-21T11:12:30Z</time>
      </trkpt>
      <trkpt lat="47.87022" lon="6.65618">
        <ele>713.55110158775</ele>
        <time>2021-08-21T11:12:32Z</time>
      </trkpt>
      <trkpt lat="47.8702" lon="6.65629">
        <ele>713.7229567926</ele>
        <time>2021-08-21T11:12:34Z</time>
      </trkpt>
      <trkpt lat="47.87018" lon="6.65641">
        <ele>713.91716100022</ele>
        <time>2021-08-21T11:12:36Z</time>
      </trkpt>
      <trkpt lat="47.87016" lon="6.65653">
        <ele>714.08180430707</ele>
        <time>2021-08-21T11:12:38Z</time>
      </trkpt>
      <trkpt lat="47.87013" lon="6.65666">
        <ele>714.22575491212</ele>
        <time>2021-08-21T11:12:40Z</time>
      </trkpt>
      <trkpt lat="47.8701" lon="6.6568">
        <ele>714.38368521104</ele>
        <time>2021-08-21T11:12:42Z</time>
      </trkpt>
      <trkpt lat="47.87008" lon="6.65692">
        <ele>714.54164585609</ele>
        <time>2021-08-21T11:12:44Z</time>
      </trkpt>
      <trkpt lat="47.87005" lon="6.65704">
        <ele>714.66432750234</ele>
        <time>2021-08-21T11:12:46Z</time>
      </trkpt>
      <trkpt lat="47.87003" lon="6.65718">
        <ele>714.74491306489</ele>
        <time>2021-08-21T11:12:48Z</time>
      </trkpt>
      <trkpt lat="47.87" lon="6.65733">
        <ele>714.83421220349</ele>
        <time>2021-08-21T11:12:50Z</time>
      </trkpt>
      <trkpt lat="47.86998" lon="6.65748">
        <ele>714.90695795383</ele>
        <time>2021-08-21T11:12:52Z</time>
      </trkpt>
      <trkpt lat="47.86995" lon="6.65763">
        <ele>714.96271959144</ele>
        <time>2021-08-21T11:12:54Z</time>
      </trkpt>
      <trkpt lat="47.86994" lon="6.6578">
        <ele>715.03561241565</ele>
        <time>2021-08-21T11:12:56Z</time>
      </trkpt>
      <trkpt lat="47.86993" lon="6.65797">
        <ele>715.08043835195</ele>
        <time>2021-08-21T11:12:58Z</time>
      </trkpt>
      <trkpt lat="47.86993" lon="6.65814">
        <ele>715.11258181075</ele>
        <time>2021-08-21T11:13:00Z</time>
      </trkpt>
      <trkpt lat="47.86992" lon="6.65833">
        <ele>715.17954737186</ele>
        <time>2021-08-21T11:13:02Z</time>
      </trkpt>
      <trkpt lat="47.86992" lon="6.65851">
        <ele>715.27476724993</ele>
        <time>2021-08-21T11:13:04Z</time>
      </trkpt>
      <trkpt lat="47.86992" lon="6.65869">
        <ele>715.33105823233</ele>
        <time>2021-08-21T11:13:06Z</time>
      </trkpt>
      <trkpt lat="47.86994" lon="6.65886">
        <ele>715.43006449022</ele>
        <time>2021-08-21T11:13:08Z</time>
      </trkpt>
      <trkpt lat="47.86997" lon="6.65904">
        <ele>715.47728071646</ele>
        <time>2021-08-21T11:13:10Z</time>
      </trkpt>
      <trkpt lat="47.87003" lon="6.65921">
        <ele>715.5246472461</ele>
        <time>2021-08-21T11:13:12Z</time>
      </trkpt>
      <trkpt lat="47.87009" lon="6.65939">
        <ele>715.55252935241</ele>
        <time>2021-08-21T11:13:14Z</time>
      </trkpt>
      <trkpt lat="47.87014" lon="6.65958">
        <ele>715.62838409874</ele>
        <time>2021-08-21T11:13:16Z</time>
      </trkpt>
      <trkpt lat="47.87016" lon="6.65978">
        <ele>715.75754916343</ele>
        <time>2021-08-21T11:13:18Z</time>
      </trkpt>
      <trkpt lat="47.87017" lon="6.65998">
        <ele>715.89183153488</ele>
        <time>2021-08-21T11:13:20Z</time>
      </trkpt>
      <trkpt lat="47.87018" lon="6.66017">
        <ele>716.11370910676</ele>
        <time>2021-08-21T11:13:22Z</time>
      </trkpt>
      <trkpt lat="47.87018" lon="6.66036">
        <ele>716.31539955126</ele>
        <time>2021-08-21T11:13:24Z</time>
      </trkpt>
      <trkpt lat="47.87018" lon="6.66056">
        <ele>716.54716646945</ele>
        <time>2021-08-21T11:13:26Z</time>
      </trkpt>
      <trkpt lat="47.87018" lon="6.66075">
        <ele>716.88879307533</ele>
        <time>2021-08-21T11:13:28Z</time>
      </trkpt>
      <trkpt lat="47.87018" lon="6.66095">
        <ele>717.08643962104</ele>
        <time>2021-08-21T11:13:30Z</time>
      </trkpt>
      <trkpt lat="47.87017" lon="6.66114">
        <ele>717.4208113416</ele>
        <time>2021-08-21T11:13:32Z</time>
      </trkpt>
      <trkpt lat="47.87015" lon="6.66133">
        <ele>717.67387732348</ele>
        <time>2021-08-21T11:13:34Z</time>
      </trkpt>
      <trkpt lat="47.87014" lon="6.66152">
        <ele>717.95244965461</ele>
        <time>2021-08-21T11:13:36Z</time>
      </trkpt>
      <trkpt lat="47.87012" lon="6.6617">
        <ele>718.21934846438</ele>
        <time>2021-08-21T11:13:38Z</time>
      </trkpt>
      <trkpt lat="47.87011" lon="6.66188">
        <ele>718.41640528848</ele>
        <time>2021-08-21T11:13:40Z</time>
      </trkpt>
      <trkpt lat="47.87012" lon="6.66206">
        <ele>718.62654262375</ele>
        <time>2021-08-21T11:13:42Z</time>
      </trkpt>
      <trkpt lat="47.87014" lon="6.66223">
        <ele>718.71143639381</ele>
        <time>2021-08-21T11:13:44Z</time>
      </trkpt>
      <trkpt lat="47.87016" lon="6.6624">
        <ele>718.83999649207</ele>
        <time>2021-08-21T11:13:46Z</time>
      </trkpt>
      <trkpt lat="47.87018" lon="6.66257">
        <ele>718.97519933574</ele>
        <time>2021-08-21T11:13:48Z</time>
      </trkpt>
      <trkpt lat="47.87021" lon="6.66273">
        <ele>719.06513540838</ele>
        <time>2021-08-21T11:13:50Z</time>
      </trkpt>
      <trkpt lat="47.87023" lon="6.6629">
        <ele>719.20718305361</ele>
        <time>2021-08-21T11:13:52Z</time>
      </trkpt>
      <trkpt lat="47.87025" lon="6.66306">
        <ele>719.36332829366</ele>
        <time>2021-08-21T11:13:54Z</time>
      </trkpt>
      <trkpt lat="47.87027" lon="6.6632">
        <ele>719.62730589542</ele>
        <time>2021-08-21T11:13:56Z</time>
      </trkpt>
      <trkpt lat="47.8703" lon="6.66334">
        <ele>719.94351783061</ele>
        <time>2021-08-21T11:13:58Z</time>
      </trkpt>
      <trkpt lat="47.87032" lon="6.66344">
        <ele>720.10735215932</ele>
        <time>2021-08-21T11:14:00Z</time>
      </trkpt>
      <trkpt lat="47.87034" lon="6.66355">
        <ele>720.39647266741</ele>
        <time>2021-08-21T11:14:02Z</time>
      </trkpt>
      <trkpt lat="47.87035" lon="6.66364">
        <ele>720.56146878654</ele>
        <time>2021-08-21T11:14:04Z</time>
      </trkpt>
      <trkpt lat="47.87037" lon="6.66374">
        <ele>720.60139576718</ele>
        <time>2021-08-21T11:14:06Z</time>
      </trkpt>
      <trkpt lat="47.87039" lon="6.66384">
        <ele>720.64861385768</ele>
        <time>2021-08-21T11:14:08Z</time>
      </trkpt>
      <trkpt lat="47.87041" lon="6.66394">
        <ele>720.69610303288</ele>
        <time>2021-08-21T11:14:10Z</time>
      </trkpt>
      <trkpt lat="47.87043" lon="6.66404">
        <ele>720.74843142627</ele>
        <time>2021-08-21T11:14:12Z</time>
      </trkpt>
      <trkpt lat="47.87044" lon="6.66413">
        <ele>720.80312397992</ele>
        <time>2021-08-21T11:14:14Z</time>
      </trkpt>
      <trkpt lat="47.87043" lon="6.66423">
        <ele>720.85660529882</ele>
        <time>2021-08-21T11:14:16Z</time>
      </trkpt>
      <trkpt lat="47.87041" lon="6.66434">
        <ele>720.9096388928</ele>
        <time>2021-08-21T11:14:18Z</time>
      </trkpt>
      <trkpt lat="47.87039" lon="6.66445">
        <ele>721.3946375432</ele>
        <time>2021-08-21T11:14:20Z</time>
      </trkpt>
      <trkpt lat="47.87038" lon="6.66458">
        <ele>721.5890427229</ele>
        <time>2021-08-21T11:14:22Z</time>
      </trkpt>
      <trkpt lat="47.87037" lon="6.66468">
        <ele>721.61866728154</ele>
        <time>2021-08-21T11:14:24Z</time>
      </trkpt>
      <trkpt lat="47.87037" lon="6.66478">
        <ele>721.65172282875</ele>
        <time>2021-08-21T11:14:26Z</time>
      </trkpt>
      <trkpt lat="47.87036" lon="6.66488">
        <ele>721.68929952111</ele>
        <time>2021-08-21T11:14:28Z</time>
      </trkpt>
      <trkpt lat="47.87036" lon="6.66498">
        <ele>721.7290521489</ele>
        <time>2021-08-21T11:14:30Z</time>
      </trkpt>
      <trkpt lat="47.87036" lon="6.66508">
        <ele>721.77015150285</ele>
        <time>2021-08-21T11:14:32Z</time>
      </trkpt>
      <trkpt lat="47.87036" lon="6.66517">
        <ele>721.81191885968</ele>
        <time>2021-08-21T11:14:34Z</time>
      </trkpt>
      <trkpt lat="47.87036" lon="6.66528">
        <ele>721.85539162849</ele>
        <time>2021-08-21T11:14:36Z</time>
      </trkpt>
      <trkpt lat="47.87037" lon="6.66538">
        <ele>721.89932180281</ele>
        <time>2021-08-21T11:14:38Z</time>
      </trkpt>
      <trkpt lat="47.87038" lon="6.66548">
        <ele>721.94235018874</ele>
        <time>2021-08-21T11:14:40Z</time>
      </trkpt>
      <trkpt lat="47.87039" lon="6.66559">
        <ele>721.98448120369</ele>
        <time>2021-08-21T11:14:42Z</time>
      </trkpt>
      <trkpt lat="47.8704" lon="6.6657">
        <ele>722.21428282531</ele>
        <time>2021-08-21T11:14:44Z</time>
      </trkpt>
      <trkpt lat="47.87041" lon="6.66581">
        <ele>722.40025931694</ele>
        <time>2021-08-21T11:14:46Z</time>
      </trkpt>
      <trkpt lat="47.87042" lon="6.66591">
        <ele>722.42901065573</ele>
        <time>2021-08-21T11:14:48Z</time>
      </trkpt>
      <trkpt lat="47.87044" lon="6.66602">
        <ele>722.45816660638</ele>
        <time>2021-08-21T11:14:50Z</time>
      </trkpt>
      <trkpt lat="47.87045" lon="6.66611">
        <ele>722.48727081821</ele>
        <time>2021-08-21T11:14:52Z</time>
      </trkpt>
      <trkpt lat="47.87046" lon="6.6662">
        <ele>722.51812629996</ele>
        <time>2021-08-21T11:14:54Z</time>
      </trkpt>
      <trkpt lat="47.87042" lon="6.66629">
        <ele>722.71291544202</ele>
        <time>2021-08-21T11:14:56Z</time>
      </trkpt>
      <trkpt lat="47.87036" lon="6.66636">
        <ele>722.98866534783</ele>
        <time>2021-08-21T11:14:58Z</time>
      </trkpt>
      <trkpt lat="47.87029" lon="6.66643">
        <ele>723.19964072006</ele>
        <time>2021-08-21T11:15:00Z</time>
      </trkpt>
      <trkpt lat="47.87022" lon="6.66651">
        <ele>723.31383572824</ele>
        <time>2021-08-21T11:15:02Z</time>
      </trkpt>
      <trkpt lat="47.87015" lon="6.66658">
        <ele>723.54181760449</ele>
        <time>2021-08-21T11:15:04Z</time>
      </trkpt>
      <trkpt lat="47.87007" lon="6.66665">
        <ele>723.86138701285</ele>
        <time>2021-08-21T11:15:06Z</time>
      </trkpt>
      <trkpt lat="47.86998" lon="6.66671">
        <ele>724.21889539005</ele>
        <time>2021-08-21T11:15:08Z</time>
      </trkpt>
      <trkpt lat="47.8699" lon="6.66676">
        <ele>724.58277196821</ele>
        <time>2021-08-21T11:15:10Z</time>
      </trkpt>
      <trkpt lat="47.86983" lon="6.66681">
        <ele>724.91441448394</ele>
        <time>2021-08-21T11:15:12Z</time>
      </trkpt>
      <trkpt lat="47.86975" lon="6.66686">
        <ele>725.07990305614</ele>
        <time>2021-08-21T11:15:14Z</time>
      </trkpt>
      <trkpt lat="47.86969" lon="6.6669">
        <ele>725.11628356304</ele>
        <time>2021-08-21T11:15:16Z</time>
      </trkpt>
      <trkpt lat="47.86961" lon="6.66694">
        <ele>725.5378599328</ele>
        <time>2021-08-21T11:15:18Z</time>
      </trkpt>
      <trkpt lat="47.86954" lon="6.66698">
        <ele>725.90025801255</ele>
        <time>2021-08-21T11:15:20Z</time>
      </trkpt>
      <trkpt lat="47.86947" lon="6.66701">
        <ele>726.21238171044</ele>
        <time>2021-08-21T11:15:22Z</time>
      </trkpt>
      <trkpt lat="47.86939" lon="6.66704">
        <ele>726.49176341239</ele>
        <time>2021-08-21T11:15:24Z</time>
      </trkpt>
      <trkpt lat="47.86931" lon="6.66706">
        <ele>726.75857354943</ele>
        <time>2021-08-21T11:15:26Z</time>
      </trkpt>
      <trkpt lat="47.86922" lon="6.66708">
        <ele>726.98535971783</ele>
        <time>2021-08-21T11:15:28Z</time>
      </trkpt>
      <trkpt lat="47.86914" lon="6.66709">
        <ele>727.18591088317</ele>
        <time>2021-08-21T11:15:30Z</time>
      </trkpt>
      <trkpt lat="47.86905" lon="6.6671">
        <ele>727.3750672355</ele>
        <time>2021-08-21T11:15:32Z</time>
      </trkpt>
      <trkpt lat="47.86897" lon="6.66711">
        <ele>727.54649238576</ele>
        <time>2021-08-21T11:15:34Z</time>
      </trkpt>
      <trkpt lat="47.86888" lon="6.66712">
        <ele>727.70536734609</ele>
        <time>2021-08-21T11:15:36Z</time>
      </trkpt>
      <trkpt lat="47.86878" lon="6.66713">
        <ele>727.85958575614</ele>
        <time>2021-08-21T11:15:38Z</time>
      </trkpt>
      <trkpt lat="47.86869" lon="6.66713">
        <ele>727.99681700838</ele>
        <time>2021-08-21T11:15:40Z</time>
      </trkpt>
      <trkpt lat="47.8686" lon="6.66712">
        <ele>728.11485706717</ele>
        <time>2021-08-21T11:15:42Z</time>
      </trkpt>
      <trkpt lat="47.86847" lon="6.66706">
        <ele>728.16956723125</ele>
        <time>2021-08-21T11:15:44Z</time>
      </trkpt>
      <trkpt lat="47.86836" lon="6.66691">
        <ele>728.23888472845</ele>
        <time>2021-08-21T11:15:46Z</time>
      </trkpt>
      <trkpt lat="47.86828" lon="6.66674">
        <ele>728.31063733521</ele>
        <time>2021-08-21T11:15:48Z</time>
      </trkpt>
      <trkpt lat="47.86822" lon="6.66656">
        <ele>728.35449175316</ele>
        <time>2021-08-21T11:15:50Z</time>
      </trkpt>
      <trkpt lat="47.86808" lon="6.66648">
        <ele>728.34311855422</ele>
        <time>2021-08-21T11:15:52Z</time>
      </trkpt>
      <trkpt lat="47.86793" lon="6.66649">
        <ele>728.41196486501</ele>
        <time>2021-08-21T11:15:54Z</time>
      </trkpt>
      <trkpt lat="47.86779" lon="6.66651">
        <ele>728.40958698304</ele>
        <time>2021-08-21T11:15:56Z</time>
      </trkpt>
      <trkpt lat="47.86765" lon="6.66654">
        <ele>728.38306684882</ele>
        <time>2021-08-21T11:15:58Z</time>
      </trkpt>
      <trkpt lat="47.86752" lon="6.66657">
        <ele>728.45068395687</ele>
        <time>2021-08-21T11:16:00Z</time>
      </trkpt>
      <trkpt lat="47.8674" lon="6.66663">
        <ele>728.52019541058</ele>
        <time>2021-08-21T11:16:02Z</time>
      </trkpt>
      <trkpt lat="47.86731" lon="6.66675">
        <ele>728.46062011447</ele>
        <time>2021-08-21T11:16:04Z</time>
      </trkpt>
      <trkpt lat="47.86723" lon="6.66691">
        <ele>728.34256914532</ele>
        <time>2021-08-21T11:16:06Z</time>
      </trkpt>
      <trkpt lat="47.86715" lon="6.66709">
        <ele>728.32500724696</ele>
        <time>2021-08-21T11:16:08Z</time>
      </trkpt>
      <trkpt lat="47.86708" lon="6.66727">
        <ele>728.37965554589</ele>
        <time>2021-08-21T11:16:10Z</time>
      </trkpt>
      <trkpt lat="47.86702" lon="6.66744">
        <ele>728.52555914639</ele>
        <time>2021-08-21T11:16:12Z</time>
      </trkpt>
      <trkpt lat="47.86698" lon="6.66761">
        <ele>728.72820513136</ele>
        <time>2021-08-21T11:16:14Z</time>
      </trkpt>
      <trkpt lat="47.86695" lon="6.66778">
        <ele>728.97761252009</ele>
        <time>2021-08-21T11:16:16Z</time>
      </trkpt>
      <trkpt lat="47.86692" lon="6.66795">
        <ele>729.20077765885</ele>
        <time>2021-08-21T11:16:18Z</time>
      </trkpt>
      <trkpt lat="47.86688" lon="6.66812">
        <ele>729.39757720502</ele>
        <time>2021-08-21T11:16:20Z</time>
      </trkpt>
      <trkpt lat="47.86685" lon="6.66828">
        <ele>729.59887113836</ele>
        <time>2021-08-21T11:16:22Z</time>
      </trkpt>
      <trkpt lat="47.86681" lon="6.66843">
        <ele>729.73528338462</ele>
        <time>2021-08-21T11:16:24Z</time>
      </trkpt>
      <trkpt lat="47.86678" lon="6.66859">
        <ele>729.89754585241</ele>
        <time>2021-08-21T11:16:26Z</time>
      </trkpt>
      <trkpt lat="47.86675" lon="6.66873">
        <ele>730.07154278409</ele>
        <time>2021-08-21T11:16:28Z</time>
      </trkpt>
      <trkpt lat="47.86672" lon="6.66887">
        <ele>730.09570638663</ele>
        <time>2021-08-21T11:16:30Z</time>
      </trkpt>
      <trkpt lat="47.86669" lon="6.66901">
        <ele>730.11688157556</ele>
        <time>2021-08-21T11:16:32Z</time>
      </trkpt>
      <trkpt lat="47.86666" lon="6.66916">
        <ele>730.19365488879</ele>
        <time>2021-08-21T11:16:34Z</time>
      </trkpt>
      <trkpt lat="47.86663" lon="6.66932">
        <ele>730.23174506406</ele>
        <time>2021-08-21T11:16:36Z</time>
      </trkpt>
      <trkpt lat="47.86659" lon="6.66948">
        <ele>730.10925412492</ele>
        <time>2021-08-21T11:16:38Z</time>
      </trkpt>
      <trkpt lat="47.86655" lon="6.66966">
        <ele>729.96992316949</ele>
        <time>2021-08-21T11:16:40Z</time>
      </trkpt>
      <trkpt lat="47.86651" lon="6.66985">
        <ele>729.82385991733</ele>
        <time>2021-08-21T11:16:42Z</time>
      </trkpt>
      <trkpt lat="47.86646" lon="6.67006">
        <ele>729.69100603303</ele>
        <time>2021-08-21T11:16:44Z</time>
      </trkpt>
      <trkpt lat="47.8664" lon="6.67028">
        <ele>729.50954807356</ele>
        <time>2021-08-21T11:16:46Z</time>
      </trkpt>
      <trkpt lat="47.86635" lon="6.67051">
        <ele>729.19481057566</ele>
        <time>2021-08-21T11:16:48Z</time>
      </trkpt>
      <trkpt lat="47.86629" lon="6.67074">
        <ele>728.75554522827</ele>
        <time>2021-08-21T11:16:50Z</time>
      </trkpt>
      <trkpt lat="47.86626" lon="6.67099">
        <ele>728.27939520116</ele>
        <time>2021-08-21T11:16:52Z</time>
      </trkpt>
      <trkpt lat="47.86624" lon="6.67126">
        <ele>727.75754091818</ele>
        <time>2021-08-21T11:16:54Z</time>
      </trkpt>
      <trkpt lat="47.86622" lon="6.67154">
        <ele>727.31824032477</ele>
        <time>2021-08-21T11:16:56Z</time>
      </trkpt>
      <trkpt lat="47.86619" lon="6.6718">
        <ele>727.06315815924</ele>
        <time>2021-08-21T11:16:58Z</time>
      </trkpt>
      <trkpt lat="47.86617" lon="6.67202">
        <ele>726.76292010631</ele>
        <time>2021-08-21T11:17:00Z</time>
      </trkpt>
      <trkpt lat="47.86615" lon="6.67222">
        <ele>726.55904393411</ele>
        <time>2021-08-21T11:17:02Z</time>
      </trkpt>
      <trkpt lat="47.86614" lon="6.67243">
        <ele>726.36378174343</ele>
        <time>2021-08-21T11:17:04Z</time>
      </trkpt>
      <trkpt lat="47.86615" lon="6.67265">
        <ele>726.10043918205</ele>
        <time>2021-08-21T11:17:06Z</time>
      </trkpt>
      <trkpt lat="47.86618" lon="6.67287">
        <ele>725.90131463941</ele>
        <time>2021-08-21T11:17:08Z</time>
      </trkpt>
      <trkpt lat="47.86621" lon="6.6731">
        <ele>725.58823394859</ele>
        <time>2021-08-21T11:17:10Z</time>
      </trkpt>
      <trkpt lat="47.86619" lon="6.67332">
        <ele>725.12362406027</ele>
        <time>2021-08-21T11:17:12Z</time>
      </trkpt>
      <trkpt lat="47.86617" lon="6.67353">
        <ele>724.51130168004</ele>
        <time>2021-08-21T11:17:14Z</time>
      </trkpt>
      <trkpt lat="47.86615" lon="6.67376">
        <ele>723.76238794294</ele>
        <time>2021-08-21T11:17:16Z</time>
      </trkpt>
      <trkpt lat="47.8662" lon="6.67399">
        <ele>722.9570069979</ele>
        <time>2021-08-21T11:17:18Z</time>
      </trkpt>
      <trkpt lat="47.86631" lon="6.67416">
        <ele>722.26161567117</ele>
        <time>2021-08-21T11:17:20Z</time>
      </trkpt>
      <trkpt lat="47.86643" lon="6.67427">
        <ele>721.68170099556</ele>
        <time>2021-08-21T11:17:22Z</time>
      </trkpt>
      <trkpt lat="47.86658" lon="6.6743">
        <ele>721.15392616604</ele>
        <time>2021-08-21T11:17:24Z</time>
      </trkpt>
      <trkpt lat="47.86673" lon="6.67436">
        <ele>720.58215962381</ele>
        <time>2021-08-21T11:17:26Z</time>
      </trkpt>
      <trkpt lat="47.86688" lon="6.67439">
        <ele>720.19412583204</ele>
        <time>2021-08-21T11:17:28Z</time>
      </trkpt>
      <trkpt lat="47.86702" lon="6.6744">
        <ele>720.14606756562</ele>
        <time>2021-08-21T11:17:30Z</time>
      </trkpt>
      <trkpt lat="47.86714" lon="6.67449">
        <ele>720.36897709579</ele>
        <time>2021-08-21T11:17:32Z</time>
      </trkpt>
      <trkpt lat="47.8672" lon="6.67466">
        <ele>720.30914400643</ele>
        <time>2021-08-21T11:17:34Z</time>
      </trkpt>
      <trkpt lat="47.86725" lon="6.67486">
        <ele>719.92813340809</ele>
        <time>2021-08-21T11:17:36Z</time>
      </trkpt>
      <trkpt lat="47.86728" lon="6.67506">
        <ele>719.37149457498</ele>
        <time>2021-08-21T11:17:38Z</time>
      </trkpt>
      <trkpt lat="47.86732" lon="6.67526">
        <ele>718.81731382143</ele>
        <time>2021-08-21T11:17:40Z</time>
      </trkpt>
      <trkpt lat="47.86735" lon="6.67549">
        <ele>717.83889232168</ele>
        <time>2021-08-21T11:17:42Z</time>
      </trkpt>
      <trkpt lat="47.86736" lon="6.67574">
        <ele>716.96702170374</ele>
        <time>2021-08-21T11:17:44Z</time>
      </trkpt>
      <trkpt lat="47.86736" lon="6.67599">
        <ele>716.2489798332</ele>
        <time>2021-08-21T11:17:46Z</time>
      </trkpt>
      <trkpt lat="47.86735" lon="6.67623">
        <ele>715.45480812835</ele>
        <time>2021-08-21T11:17:48Z</time>
      </trkpt>
      <trkpt lat="47.8673" lon="6.67647">
        <ele>714.38645473965</ele>
        <time>2021-08-21T11:17:50Z</time>
      </trkpt>
      <trkpt lat="47.8672" lon="6.67667">
        <ele>713.52793374586</ele>
        <time>2021-08-21T11:17:52Z</time>
      </trkpt>
      <trkpt lat="47.86703" lon="6.67673">
        <ele>712.9374502237</ele>
        <time>2021-08-21T11:17:54Z</time>
      </trkpt>
      <trkpt lat="47.86684" lon="6.67676">
        <ele>712.62995430475</ele>
        <time>2021-08-21T11:17:56Z</time>
      </trkpt>
      <trkpt lat="47.86667" lon="6.67682">
        <ele>712.41056633565</ele>
        <time>2021-08-21T11:17:58Z</time>
      </trkpt>
      <trkpt lat="47.8665" lon="6.67686">
        <ele>711.80471934915</ele>
        <time>2021-08-21T11:18:00Z</time>
      </trkpt>
      <trkpt lat="47.86632" lon="6.67691">
        <ele>711.3021418134</ele>
        <time>2021-08-21T11:18:02Z</time>
      </trkpt>
      <trkpt lat="47.86614" lon="6.67696">
        <ele>710.79112218038</ele>
        <time>2021-08-21T11:18:04Z</time>
      </trkpt>
      <trkpt lat="47.86597" lon="6.67701">
        <ele>710.12756688101</ele>
        <time>2021-08-21T11:18:06Z</time>
      </trkpt>
      <trkpt lat="47.86581" lon="6.67703">
        <ele>709.11941215403</ele>
        <time>2021-08-21T11:18:08Z</time>
      </trkpt>
      <trkpt lat="47.86566" lon="6.6771">
        <ele>708.1656314565</ele>
        <time>2021-08-21T11:18:10Z</time>
      </trkpt>
      <trkpt lat="47.86554" lon="6.67722">
        <ele>707.26324699706</ele>
        <time>2021-08-21T11:18:12Z</time>
      </trkpt>
      <trkpt lat="47.86544" lon="6.67739">
        <ele>706.58533784859</ele>
        <time>2021-08-21T11:18:14Z</time>
      </trkpt>
      <trkpt lat="47.86532" lon="6.67757">
        <ele>705.89753867125</ele>
        <time>2021-08-21T11:18:16Z</time>
      </trkpt>
      <trkpt lat="47.86521" lon="6.67775">
        <ele>705.20820111191</ele>
        <time>2021-08-21T11:18:18Z</time>
      </trkpt>
      <trkpt lat="47.86509" lon="6.67789">
        <ele>704.6572112842</ele>
        <time>2021-08-21T11:18:20Z</time>
      </trkpt>
      <trkpt lat="47.86498" lon="6.67805">
        <ele>703.85862767955</ele>
        <time>2021-08-21T11:18:22Z</time>
      </trkpt>
      <trkpt lat="47.86488" lon="6.67819">
        <ele>702.61044864211</ele>
        <time>2021-08-21T11:18:24Z</time>
      </trkpt>
      <trkpt lat="47.86479" lon="6.6783">
        <ele>701.19214062069</ele>
        <time>2021-08-21T11:18:26Z</time>
      </trkpt>
      <trkpt lat="47.86471" lon="6.6784">
        <ele>699.48856839768</ele>
        <time>2021-08-21T11:18:28Z</time>
      </trkpt>
      <trkpt lat="47.86458" lon="6.67842">
        <ele>698.01210665633</ele>
        <time>2021-08-21T11:18:30Z</time>
      </trkpt>
      <trkpt lat="47.86442" lon="6.67836">
        <ele>696.45952277946</ele>
        <time>2021-08-21T11:18:32Z</time>
      </trkpt>
      <trkpt lat="47.86428" lon="6.67834">
        <ele>694.31042824769</ele>
        <time>2021-08-21T11:18:34Z</time>
      </trkpt>
      <trkpt lat="47.86415" lon="6.6784">
        <ele>692.11826101395</ele>
        <time>2021-08-21T11:18:36Z</time>
      </trkpt>
      <trkpt lat="47.86404" lon="6.67856">
        <ele>690.48618667343</ele>
        <time>2021-08-21T11:18:38Z</time>
      </trkpt>
      <trkpt lat="47.86394" lon="6.67875">
        <ele>689.12930828059</ele>
        <time>2021-08-21T11:18:40Z</time>
      </trkpt>
      <trkpt lat="47.86384" lon="6.67894">
        <ele>687.76629477437</ele>
        <time>2021-08-21T11:18:42Z</time>
      </trkpt>
      <trkpt lat="47.86373" lon="6.67912">
        <ele>686.79711610213</ele>
        <time>2021-08-21T11:18:44Z</time>
      </trkpt>
      <trkpt lat="47.86363" lon="6.67928">
        <ele>686.03829800718</ele>
        <time>2021-08-21T11:18:46Z</time>
      </trkpt>
      <trkpt lat="47.86351" lon="6.67933">
        <ele>685.88236348709</ele>
        <time>2021-08-21T11:18:48Z</time>
      </trkpt>
      <trkpt lat="47.8634" lon="6.67929">
        <ele>685.22372478565</ele>
        <time>2021-08-21T11:18:50Z</time>
      </trkpt>
      <trkpt lat="47.86333" lon="6.6791">
        <ele>684.44534216979</ele>
        <time>2021-08-21T11:18:52Z</time>
      </trkpt>
      <trkpt lat="47.86328" lon="6.67889">
        <ele>683.68768409227</ele>
        <time>2021-08-21T11:18:54Z</time>
      </trkpt>
      <trkpt lat="47.8632" lon="6.67871">
        <ele>683.18853115177</ele>
        <time>2021-08-21T11:18:56Z</time>
      </trkpt>
      <trkpt lat="47.8631" lon="6.67858">
        <ele>682.6832466398</ele>
        <time>2021-08-21T11:18:58Z</time>
      </trkpt>
      <trkpt lat="47.86299" lon="6.67847">
        <ele>682.38313729175</ele>
        <time>2021-08-21T11:19:00Z</time>
      </trkpt>
      <trkpt lat="47.86287" lon="6.67837">
        <ele>682.08493629463</ele>
        <time>2021-08-21T11:19:02Z</time>
      </trkpt>
      <trkpt lat="47.86274" lon="6.67827">
        <ele>681.85937554759</ele>
        <time>2021-08-21T11:19:04Z</time>
      </trkpt>
      <trkpt lat="47.86262" lon="6.67815">
        <ele>681.31130050416</ele>
        <time>2021-08-21T11:19:06Z</time>
      </trkpt>
      <trkpt lat="47.8625" lon="6.67804">
        <ele>680.28933295129</ele>
        <time>2021-08-21T11:19:08Z</time>
      </trkpt>
      <trkpt lat="47.86236" lon="6.67795">
        <ele>679.01633857766</ele>
        <time>2021-08-21T11:19:10Z</time>
      </trkpt>
      <trkpt lat="47.86223" lon="6.67784">
        <ele>677.91521680522</ele>
        <time>2021-08-21T11:19:12Z</time>
      </trkpt>
      <trkpt lat="47.86211" lon="6.6777">
        <ele>677.11795779314</ele>
        <time>2021-08-21T11:19:14Z</time>
      </trkpt>
      <trkpt lat="47.86199" lon="6.67756">
        <ele>675.95576114306</ele>
        <time>2021-08-21T11:19:16Z</time>
      </trkpt>
      <trkpt lat="47.8619" lon="6.6774">
        <ele>674.70398593889</ele>
        <time>2021-08-21T11:19:18Z</time>
      </trkpt>
      <trkpt lat="47.86181" lon="6.67723">
        <ele>673.39216179057</ele>
        <time>2021-08-21T11:19:20Z</time>
      </trkpt>
      <trkpt lat="47.8617" lon="6.67709">
        <ele>672.31353840508</ele>
        <time>2021-08-21T11:19:22Z</time>
      </trkpt>
      <trkpt lat="47.8616" lon="6.67693">
        <ele>671.46996610471</ele>
        <time>2021-08-21T11:19:24Z</time>
      </trkpt>
      <trkpt lat="47.8615" lon="6.6768">
        <ele>670.6699561611</ele>
        <time>2021-08-21T11:19:26Z</time>
      </trkpt>
      <trkpt lat="47.86138" lon="6.67672">
        <ele>669.86234652376</ele>
        <time>2021-08-21T11:19:28Z</time>
      </trkpt>
      <trkpt lat="47.86126" lon="6.67668">
        <ele>669.17432383668</ele>
        <time>2021-08-21T11:19:30Z</time>
      </trkpt>
      <trkpt lat="47.86114" lon="6.67661">
        <ele>668.64308652879</ele>
        <time>2021-08-21T11:19:32Z</time>
      </trkpt>
      <trkpt lat="47.86104" lon="6.67647">
        <ele>668.16626876166</ele>
        <time>2021-08-21T11:19:34Z</time>
      </trkpt>
      <trkpt lat="47.86094" lon="6.67631">
        <ele>667.58751156343</ele>
        <time>2021-08-21T11:19:36Z</time>
      </trkpt>
      <trkpt lat="47.86085" lon="6.67615">
        <ele>667.0844999716</ele>
        <time>2021-08-21T11:19:38Z</time>
      </trkpt>
      <trkpt lat="47.86075" lon="6.67601">
        <ele>666.5663968914</ele>
        <time>2021-08-21T11:19:40Z</time>
      </trkpt>
      <trkpt lat="47.86064" lon="6.67589">
        <ele>666.03902501318</ele>
        <time>2021-08-21T11:19:42Z</time>
      </trkpt>
      <trkpt lat="47.86054" lon="6.67575">
        <ele>665.56071847768</ele>
        <time>2021-08-21T11:19:44Z</time>
      </trkpt>
      <trkpt lat="47.86045" lon="6.67562">
        <ele>665.11305284784</ele>
        <time>2021-08-21T11:19:46Z</time>
      </trkpt>
      <trkpt lat="47.86037" lon="6.67548">
        <ele>664.81953192812</ele>
        <time>2021-08-21T11:19:48Z</time>
      </trkpt>
      <trkpt lat="47.86031" lon="6.67532">
        <ele>664.5198621472</ele>
        <time>2021-08-21T11:19:50Z</time>
      </trkpt>
      <trkpt lat="47.86025" lon="6.67515">
        <ele>664.13433697907</ele>
        <time>2021-08-21T11:19:52Z</time>
      </trkpt>
      <trkpt lat="47.86021" lon="6.67498">
        <ele>663.67903074411</ele>
        <time>2021-08-21T11:19:54Z</time>
      </trkpt>
      <trkpt lat="47.86017" lon="6.67482">
        <ele>663.21368565888</ele>
        <time>2021-08-21T11:19:56Z</time>
      </trkpt>
      <trkpt lat="47.86013" lon="6.67467">
        <ele>662.72876021025</ele>
        <time>2021-08-21T11:19:58Z</time>
      </trkpt>
      <trkpt lat="47.86008" lon="6.67452">
        <ele>662.25309145046</ele>
        <time>2021-08-21T11:20:00Z</time>
      </trkpt>
      <trkpt lat="47.86004" lon="6.67436">
        <ele>661.63387316165</ele>
        <time>2021-08-21T11:20:02Z</time>
      </trkpt>
      <trkpt lat="47.85999" lon="6.67419">
        <ele>661.08654247868</ele>
        <time>2021-08-21T11:20:04Z</time>
      </trkpt>
      <trkpt lat="47.85994" lon="6.67401">
        <ele>660.71220106442</ele>
        <time>2021-08-21T11:20:06Z</time>
      </trkpt>
      <trkpt lat="47.85989" lon="6.67382">
        <ele>660.54455155934</ele>
        <time>2021-08-21T11:20:08Z</time>
      </trkpt>
      <trkpt lat="47.85985" lon="6.67364">
        <ele>660.37820105241</ele>
        <time>2021-08-21T11:20:10Z</time>
      </trkpt>
      <trkpt lat="47.85977" lon="6.67349">
        <ele>660.29326531639</ele>
        <time>2021-08-21T11:20:12Z</time>
      </trkpt>
      <trkpt lat="47.85968" lon="6.67335">
        <ele>660.1566520365</ele>
        <time>2021-08-21T11:20:14Z</time>
      </trkpt>
      <trkpt lat="47.85958" lon="6.67324">
        <ele>659.67518480007</ele>
        <time>2021-08-21T11:20:16Z</time>
      </trkpt>
      <trkpt lat="47.85947" lon="6.67311">
        <ele>659.36322214472</ele>
        <time>2021-08-21T11:20:18Z</time>
      </trkpt>
      <trkpt lat="47.85937" lon="6.67298">
        <ele>659.15261423695</ele>
        <time>2021-08-21T11:20:20Z</time>
      </trkpt>
      <trkpt lat="47.85927" lon="6.67286">
        <ele>659.05856320045</ele>
        <time>2021-08-21T11:20:22Z</time>
      </trkpt>
      <trkpt lat="47.85915" lon="6.67278">
        <ele>658.9109906157</ele>
        <time>2021-08-21T11:20:24Z</time>
      </trkpt>
      <trkpt lat="47.85902" lon="6.67272">
        <ele>658.7275545431</ele>
        <time>2021-08-21T11:20:26Z</time>
      </trkpt>
      <trkpt lat="47.85889" lon="6.67272">
        <ele>658.2856245608</ele>
        <time>2021-08-21T11:20:28Z</time>
      </trkpt>
      <trkpt lat="47.85875" lon="6.67275">
        <ele>657.60998835275</ele>
        <time>2021-08-21T11:20:30Z</time>
      </trkpt>
      <trkpt lat="47.85859" lon="6.67278">
        <ele>656.64565422362</ele>
        <time>2021-08-21T11:20:32Z</time>
      </trkpt>
      <trkpt lat="47.85843" lon="6.67277">
        <ele>655.65330578675</ele>
        <time>2021-08-21T11:20:34Z</time>
      </trkpt>
      <trkpt lat="47.85826" lon="6.67266">
        <ele>654.75668865324</ele>
        <time>2021-08-21T11:20:36Z</time>
      </trkpt>
      <trkpt lat="47.85808" lon="6.67255">
        <ele>653.62298017175</ele>
        <time>2021-08-21T11:20:38Z</time>
      </trkpt>
      <trkpt lat="47.85791" lon="6.67244">
        <ele>652.89755428138</ele>
        <time>2021-08-21T11:20:40Z</time>
      </trkpt>
      <trkpt lat="47.85775" lon="6.67233">
        <ele>652.56138713773</ele>
        <time>2021-08-21T11:20:42Z</time>
      </trkpt>
      <trkpt lat="47.85762" lon="6.67219">
        <ele>652.52636069987</ele>
        <time>2021-08-21T11:20:44Z</time>
      </trkpt>
      <trkpt lat="47.8575" lon="6.67205">
        <ele>652.87700147384</ele>
        <time>2021-08-21T11:20:46Z</time>
      </trkpt>
      <trkpt lat="47.85738" lon="6.67193">
        <ele>652.89789949113</ele>
        <time>2021-08-21T11:20:48Z</time>
      </trkpt>
      <trkpt lat="47.85725" lon="6.67184">
        <ele>652.60079449722</ele>
        <time>2021-08-21T11:20:50Z</time>
      </trkpt>
      <trkpt lat="47.85713" lon="6.67172">
        <ele>652.06867892718</ele>
        <time>2021-08-21T11:20:52Z</time>
      </trkpt>
      <trkpt lat="47.85701" lon="6.67159">
        <ele>651.40906087622</ele>
        <time>2021-08-21T11:20:54Z</time>
      </trkpt>
      <trkpt lat="47.85687" lon="6.67147">
        <ele>650.72882896062</ele>
        <time>2021-08-21T11:20:56Z</time>
      </trkpt>
      <trkpt lat="47.85671" lon="6.67139">
        <ele>650.21624885046</ele>
        <time>2021-08-21T11:20:58Z</time>
      </trkpt>
      <trkpt lat="47.85655" lon="6.67133">
        <ele>649.96732015589</ele>
        <time>2021-08-21T11:21:00Z</time>
      </trkpt>
      <trkpt lat="47.85638" lon="6.67127">
        <ele>649.38585168847</ele>
        <time>2021-08-21T11:21:02Z</time>
      </trkpt>
      <trkpt lat="47.85621" lon="6.6712">
        <ele>648.82753156829</ele>
        <time>2021-08-21T11:21:04Z</time>
      </trkpt>
      <trkpt lat="47.85605" lon="6.67113">
        <ele>648.32797414036</ele>
        <time>2021-08-21T11:21:06Z</time>
      </trkpt>
      <trkpt lat="47.8559" lon="6.67105">
        <ele>647.97282903757</ele>
        <time>2021-08-21T11:21:08Z</time>
      </trkpt>
      <trkpt lat="47.85577" lon="6.67091">
        <ele>647.45566509278</ele>
        <time>2021-08-21T11:21:10Z</time>
      </trkpt>
      <trkpt lat="47.85563" lon="6.67076">
        <ele>646.94295491513</ele>
        <time>2021-08-21T11:21:12Z</time>
      </trkpt>
      <trkpt lat="47.85549" lon="6.67065">
        <ele>646.30996262642</ele>
        <time>2021-08-21T11:21:14Z</time>
      </trkpt>
      <trkpt lat="47.85537" lon="6.67053">
        <ele>645.61031393538</ele>
        <time>2021-08-21T11:21:16Z</time>
      </trkpt>
      <trkpt lat="47.85523" lon="6.67043">
        <ele>645.2533184797</ele>
        <time>2021-08-21T11:21:18Z</time>
      </trkpt>
      <trkpt lat="47.8551" lon="6.67034">
        <ele>644.88886703744</ele>
        <time>2021-08-21T11:21:20Z</time>
      </trkpt>
      <trkpt lat="47.85497" lon="6.67026">
        <ele>644.27995200854</ele>
        <time>2021-08-21T11:21:22Z</time>
      </trkpt>
      <trkpt lat="47.85484" lon="6.67017">
        <ele>643.71639634678</ele>
        <time>2021-08-21T11:21:24Z</time>
      </trkpt>
      <trkpt lat="47.85472" lon="6.67004">
        <ele>643.36196932274</ele>
        <time>2021-08-21T11:21:26Z</time>
      </trkpt>
      <trkpt lat="47.85462" lon="6.66989">
        <ele>643.16348993142</ele>
        <time>2021-08-21T11:21:28Z</time>
      </trkpt>
      <trkpt lat="47.85452" lon="6.66974">
        <ele>643.16818687719</ele>
        <time>2021-08-21T11:21:30Z</time>
      </trkpt>
      <trkpt lat="47.85443" lon="6.66959">
        <ele>643.15289210837</ele>
        <time>2021-08-21T11:21:32Z</time>
      </trkpt>
      <trkpt lat="47.85435" lon="6.66945">
        <ele>643.01655156023</ele>
        <time>2021-08-21T11:21:34Z</time>
      </trkpt>
      <trkpt lat="47.85426" lon="6.66932">
        <ele>642.82301140828</ele>
        <time>2021-08-21T11:21:36Z</time>
      </trkpt>
      <trkpt lat="47.85416" lon="6.66923">
        <ele>642.60297897244</ele>
        <time>2021-08-21T11:21:38Z</time>
      </trkpt>
      <trkpt lat="47.85404" lon="6.66926">
        <ele>642.28056738128</ele>
        <time>2021-08-21T11:21:40Z</time>
      </trkpt>
      <trkpt lat="47.85395" lon="6.66944">
        <ele>641.98638163144</ele>
        <time>2021-08-21T11:21:42Z</time>
      </trkpt>
      <trkpt lat="47.85386" lon="6.66963">
        <ele>641.77083901769</ele>
        <time>2021-08-21T11:21:44Z</time>
      </trkpt>
      <trkpt lat="47.85379" lon="6.66981">
        <ele>641.34450591922</ele>
        <time>2021-08-21T11:21:46Z</time>
      </trkpt>
      <trkpt lat="47.85367" lon="6.6699">
        <ele>640.85304607641</ele>
        <time>2021-08-21T11:21:48Z</time>
      </trkpt>
      <trkpt lat="47.85354" lon="6.66988">
        <ele>640.40672780617</ele>
        <time>2021-08-21T11:21:50Z</time>
      </trkpt>
      <trkpt lat="47.8534" lon="6.6698">
        <ele>640.009436625</ele>
        <time>2021-08-21T11:21:52Z</time>
      </trkpt>
      <trkpt lat="47.85327" lon="6.6697">
        <ele>639.63289516946</ele>
        <time>2021-08-21T11:21:54Z</time>
      </trkpt>
      <trkpt lat="47.85313" lon="6.66962">
        <ele>639.40698071737</ele>
        <time>2021-08-21T11:21:56Z</time>
      </trkpt>
      <trkpt lat="47.85299" lon="6.66962">
        <ele>639.35485589813</ele>
        <time>2021-08-21T11:21:58Z</time>
      </trkpt>
      <trkpt lat="47.85285" lon="6.66964">
        <ele>639.26181556093</ele>
        <time>2021-08-21T11:22:00Z</time>
      </trkpt>
      <trkpt lat="47.85272" lon="6.66966">
        <ele>639.08187075206</ele>
        <time>2021-08-21T11:22:02Z</time>
      </trkpt>
      <trkpt lat="47.85259" lon="6.66968">
        <ele>638.47790692474</ele>
        <time>2021-08-21T11:22:04Z</time>
      </trkpt>
      <trkpt lat="47.85246" lon="6.66973">
        <ele>637.73866403821</ele>
        <time>2021-08-21T11:22:06Z</time>
      </trkpt>
      <trkpt lat="47.85233" lon="6.66977">
        <ele>637.11761391214</ele>
        <time>2021-08-21T11:22:08Z</time>
      </trkpt>
      <trkpt lat="47.85222" lon="6.66976">
        <ele>636.15387162956</ele>
        <time>2021-08-21T11:22:10Z</time>
      </trkpt>
      <trkpt lat="47.85213" lon="6.66967">
        <ele>635.39589633227</ele>
        <time>2021-08-21T11:22:12Z</time>
      </trkpt>
      <trkpt lat="47.85207" lon="6.66955">
        <ele>634.83419005103</ele>
        <time>2021-08-21T11:22:14Z</time>
      </trkpt>
      <trkpt lat="47.85202" lon="6.66944">
        <ele>634.45954825509</ele>
        <time>2021-08-21T11:22:16Z</time>
      </trkpt>
      <trkpt lat="47.85198" lon="6.66933">
        <ele>634.25098047153</ele>
        <time>2021-08-21T11:22:18Z</time>
      </trkpt>
      <trkpt lat="47.85194" lon="6.66925">
        <ele>634.16608372076</ele>
        <time>2021-08-21T11:22:20Z</time>
      </trkpt>
      <trkpt lat="47.8519" lon="6.66918">
        <ele>633.2702666067</ele>
        <time>2021-08-21T11:22:22Z</time>
      </trkpt>
      <trkpt lat="47.85187" lon="6.66908">
        <ele>632.45151741996</ele>
        <time>2021-08-21T11:22:24Z</time>
      </trkpt>
      <trkpt lat="47.8518" lon="6.6689">
        <ele>631.42271128503</ele>
        <time>2021-08-21T11:22:26Z</time>
      </trkpt>
      <trkpt lat="47.85173" lon="6.66874">
        <ele>630.52302786066</ele>
        <time>2021-08-21T11:22:28Z</time>
      </trkpt>
      <trkpt lat="47.85166" lon="6.6686">
        <ele>630.42479221652</ele>
        <time>2021-08-21T11:22:30Z</time>
      </trkpt>
      <trkpt lat="47.85161" lon="6.66847">
        <ele>630.60604176195</ele>
        <time>2021-08-21T11:22:32Z</time>
      </trkpt>
      <trkpt lat="47.85156" lon="6.66834">
        <ele>630.99661235679</ele>
        <time>2021-08-21T11:22:34Z</time>
      </trkpt>
      <trkpt lat="47.85151" lon="6.66822">
        <ele>631.191769961</ele>
        <time>2021-08-21T11:22:36Z</time>
      </trkpt>
      <trkpt lat="47.85147" lon="6.66812">
        <ele>631.42990147488</ele>
        <time>2021-08-21T11:22:38Z</time>
      </trkpt>
      <trkpt lat="47.85143" lon="6.66804">
        <ele>631.48848589688</ele>
        <time>2021-08-21T11:22:40Z</time>
      </trkpt>
      <trkpt lat="47.85138" lon="6.66798">
        <ele>631.89626391571</ele>
        <time>2021-08-21T11:22:42Z</time>
      </trkpt>
      <trkpt lat="47.8513" lon="6.66793">
        <ele>632.15018220674</ele>
        <time>2021-08-21T11:22:44Z</time>
      </trkpt>
      <trkpt lat="47.85122" lon="6.6679">
        <ele>632.07200781669</ele>
        <time>2021-08-21T11:22:46Z</time>
      </trkpt>
      <trkpt lat="47.85111" lon="6.66787">
        <ele>632.07096533346</ele>
        <time>2021-08-21T11:22:48Z</time>
      </trkpt>
      <trkpt lat="47.851" lon="6.66783">
        <ele>632.13049073678</ele>
        <time>2021-08-21T11:22:50Z</time>
      </trkpt>
      <trkpt lat="47.85093" lon="6.6678">
        <ele>632.20223158272</ele>
        <time>2021-08-21T11:22:52Z</time>
      </trkpt>
      <trkpt lat="47.85085" lon="6.66777">
        <ele>632.28246017991</ele>
        <time>2021-08-21T11:22:54Z</time>
      </trkpt>
      <trkpt lat="47.85075" lon="6.66773">
        <ele>632.80311854944</ele>
        <time>2021-08-21T11:22:56Z</time>
      </trkpt>
      <trkpt lat="47.85068" lon="6.66769">
        <ele>632.8923979618</ele>
        <time>2021-08-21T11:22:58Z</time>
      </trkpt>
      <trkpt lat="47.85061" lon="6.66766">
        <ele>632.98739038239</ele>
        <time>2021-08-21T11:23:00Z</time>
      </trkpt>
      <trkpt lat="47.85052" lon="6.66766">
        <ele>633.49517568868</ele>
        <time>2021-08-21T11:23:02Z</time>
      </trkpt>
      <trkpt lat="47.85045" lon="6.66768">
        <ele>633.56402394184</ele>
        <time>2021-08-21T11:23:04Z</time>
      </trkpt>
      <trkpt lat="47.85038" lon="6.6677">
        <ele>633.63092484632</ele>
        <time>2021-08-21T11:23:06Z</time>
      </trkpt>
      <trkpt lat="47.85032" lon="6.66773">
        <ele>633.69906439748</ele>
        <time>2021-08-21T11:23:08Z</time>
      </trkpt>
      <trkpt lat="47.85026" lon="6.66771">
        <ele>633.76937902416</ele>
        <time>2021-08-21T11:23:10Z</time>
      </trkpt>
      <trkpt lat="47.85023" lon="6.66768">
        <ele>633.83697483482</ele>
        <time>2021-08-21T11:23:12Z</time>
      </trkpt>
      <trkpt lat="47.8502" lon="6.66762">
        <ele>633.89071841145</ele>
        <time>2021-08-21T11:23:14Z</time>
      </trkpt>
      <trkpt lat="47.85017" lon="6.66756">
        <ele>633.93041545868</ele>
        <time>2021-08-21T11:23:16Z</time>
      </trkpt>
      <trkpt lat="47.85014" lon="6.6675">
        <ele>633.96442245259</ele>
        <time>2021-08-21T11:23:18Z</time>
      </trkpt>
      <trkpt lat="47.85012" lon="6.66746">
        <ele>633.99368564697</ele>
        <time>2021-08-21T11:23:20Z</time>
      </trkpt>
      <trkpt lat="47.85008" lon="6.66741">
        <ele>634.01390491834</ele>
        <time>2021-08-21T11:23:22Z</time>
      </trkpt>
      <trkpt lat="47.85003" lon="6.66733">
        <ele>634.02668772458</ele>
        <time>2021-08-21T11:23:24Z</time>
      </trkpt>
      <trkpt lat="47.84999" lon="6.66727">
        <ele>634.03198946002</ele>
        <time>2021-08-21T11:23:26Z</time>
      </trkpt>
      <trkpt lat="47.84995" lon="6.6672">
        <ele>634.02783108455</ele>
        <time>2021-08-21T11:23:28Z</time>
      </trkpt>
      <trkpt lat="47.84992" lon="6.66715">
        <ele>634.02246435368</ele>
        <time>2021-08-21T11:23:30Z</time>
      </trkpt>
      <trkpt lat="47.84989" lon="6.6671">
        <ele>634.02309192956</ele>
        <time>2021-08-21T11:23:32Z</time>
      </trkpt>
      <trkpt lat="47.84985" lon="6.66706">
        <ele>634.02285103142</ele>
        <time>2021-08-21T11:23:34Z</time>
      </trkpt>
      <trkpt lat="47.84981" lon="6.66702">
        <ele>634.02004548053</ele>
        <time>2021-08-21T11:23:36Z</time>
      </trkpt>
      <trkpt lat="47.84978" lon="6.66701">
        <ele>634.01878496813</ele>
        <time>2021-08-21T11:23:38Z</time>
      </trkpt>
      <trkpt lat="47.84975" lon="6.66699">
        <ele>634.02601671527</ele>
        <time>2021-08-21T11:23:40Z</time>
      </trkpt>
      <trkpt lat="47.84971" lon="6.66699">
        <ele>634.04106310796</ele>
        <time>2021-08-21T11:23:42Z</time>
      </trkpt>
      <trkpt lat="47.84966" lon="6.667">
        <ele>634.06141174477</ele>
        <time>2021-08-21T11:23:44Z</time>
      </trkpt>
      <trkpt lat="47.8496" lon="6.667">
        <ele>634.08696470528</ele>
        <time>2021-08-21T11:23:46Z</time>
      </trkpt>
      <trkpt lat="47.84954" lon="6.66699">
        <ele>634.11689927962</ele>
        <time>2021-08-21T11:23:48Z</time>
      </trkpt>
      <trkpt lat="47.84949" lon="6.66699">
        <ele>634.14811642526</ele>
        <time>2021-08-21T11:23:50Z</time>
      </trkpt>
      <trkpt lat="47.84945" lon="6.66698">
        <ele>634.18054036097</ele>
        <time>2021-08-21T11:23:52Z</time>
      </trkpt>
      <trkpt lat="47.84942" lon="6.66696">
        <ele>634.21051869638</ele>
        <time>2021-08-21T11:23:54Z</time>
      </trkpt>
      <trkpt lat="47.84939" lon="6.66693">
        <ele>634.24012161976</ele>
        <time>2021-08-21T11:23:56Z</time>
      </trkpt>
      <trkpt lat="47.84936" lon="6.66689">
        <ele>634.27025539101</ele>
        <time>2021-08-21T11:23:58Z</time>
      </trkpt>
      <trkpt lat="47.84932" lon="6.66686">
        <ele>634.3104901254</ele>
        <time>2021-08-21T11:24:00Z</time>
      </trkpt>
      <trkpt lat="47.84929" lon="6.66683">
        <ele>634.36588498091</ele>
        <time>2021-08-21T11:24:02Z</time>
      </trkpt>
      <trkpt lat="47.84926" lon="6.6668">
        <ele>634.43854641315</ele>
        <time>2021-08-21T11:24:04Z</time>
      </trkpt>
      <trkpt lat="47.84921" lon="6.66678">
        <ele>634.52923376606</ele>
        <time>2021-08-21T11:24:06Z</time>
      </trkpt>
      <trkpt lat="47.84916" lon="6.66676">
        <ele>634.63089993289</ele>
        <time>2021-08-21T11:24:08Z</time>
      </trkpt>
      <trkpt lat="47.84912" lon="6.66674">
        <ele>634.73771237735</ele>
        <time>2021-08-21T11:24:10Z</time>
      </trkpt>
      <trkpt lat="47.84906" lon="6.6667">
        <ele>634.84549073566</ele>
        <time>2021-08-21T11:24:12Z</time>
      </trkpt>
      <trkpt lat="47.84901" lon="6.66665">
        <ele>634.95383255841</ele>
        <time>2021-08-21T11:24:14Z</time>
      </trkpt>
      <trkpt lat="47.84898" lon="6.66658">
        <ele>635.06306806876</ele>
        <time>2021-08-21T11:24:16Z</time>
      </trkpt>
      <trkpt lat="47.84895" lon="6.6665">
        <ele>635.17775034311</ele>
        <time>2021-08-21T11:24:18Z</time>
      </trkpt>
      <trkpt lat="47.84892" lon="6.66641">
        <ele>635.29426889279</ele>
        <time>2021-08-21T11:24:20Z</time>
      </trkpt>
      <trkpt lat="47.84889" lon="6.66633">
        <ele>635.40945535757</ele>
        <time>2021-08-21T11:24:22Z</time>
      </trkpt>
      <trkpt lat="47.84888" lon="6.66624">
        <ele>635.52229491627</ele>
        <time>2021-08-21T11:24:24Z</time>
      </trkpt>
      <trkpt lat="47.84886" lon="6.66616">
        <ele>635.63149269194</ele>
        <time>2021-08-21T11:24:26Z</time>
      </trkpt>
      <trkpt lat="47.84885" lon="6.6661">
        <ele>635.73667671112</ele>
        <time>2021-08-21T11:24:28Z</time>
      </trkpt>
      <trkpt lat="47.84884" lon="6.66601">
        <ele>635.83939151247</ele>
        <time>2021-08-21T11:24:30Z</time>
      </trkpt>
      <trkpt lat="47.84883" lon="6.66593">
        <ele>635.93947176324</ele>
        <time>2021-08-21T11:24:32Z</time>
      </trkpt>
      <trkpt lat="47.84882" lon="6.66586">
        <ele>636.04048953326</ele>
        <time>2021-08-21T11:24:34Z</time>
      </trkpt>
      <trkpt lat="47.84881" lon="6.66579">
        <ele>636.14691525571</ele>
        <time>2021-08-21T11:24:36Z</time>
      </trkpt>
      <trkpt lat="47.84882" lon="6.66571">
        <ele>636.25893479344</ele>
        <time>2021-08-21T11:24:38Z</time>
      </trkpt>
      <trkpt lat="47.84883" lon="6.66563">
        <ele>636.37423033996</ele>
        <time>2021-08-21T11:24:40Z</time>
      </trkpt>
      <trkpt lat="47.84885" lon="6.66555">
        <ele>636.49395668875</ele>
        <time>2021-08-21T11:24:42Z</time>
      </trkpt>
      <trkpt lat="47.84886" lon="6.66547">
        <ele>636.61644443611</ele>
        <time>2021-08-21T11:24:44Z</time>
      </trkpt>
      <trkpt lat="47.84887" lon="6.66539">
        <ele>636.74141519791</ele>
        <time>2021-08-21T11:24:46Z</time>
      </trkpt>
      <trkpt lat="47.84888" lon="6.6653">
        <ele>636.86272807722</ele>
        <time>2021-08-21T11:24:48Z</time>
      </trkpt>
      <trkpt lat="47.84889" lon="6.66522">
        <ele>636.98144671542</ele>
        <time>2021-08-21T11:24:50Z</time>
      </trkpt>
      <trkpt lat="47.8489" lon="6.66514">
        <ele>637.09818041917</ele>
        <time>2021-08-21T11:24:52Z</time>
      </trkpt>
      <trkpt lat="47.84891" lon="6.66507">
        <ele>637.21046288882</ele>
        <time>2021-08-21T11:24:54Z</time>
      </trkpt>
      <trkpt lat="47.84892" lon="6.66499">
        <ele>637.31993101829</ele>
        <time>2021-08-21T11:24:56Z</time>
      </trkpt>
      <trkpt lat="47.84895" lon="6.66492">
        <ele>637.42506849368</ele>
        <time>2021-08-21T11:24:58Z</time>
      </trkpt>
      <trkpt lat="47.84894" lon="6.66482">
        <ele>637.52891280282</ele>
        <time>2021-08-21T11:25:00Z</time>
      </trkpt>
      <trkpt lat="47.84892" lon="6.66472">
        <ele>637.63636252064</ele>
        <time>2021-08-21T11:25:02Z</time>
      </trkpt>
      <trkpt lat="47.84891" lon="6.66464">
        <ele>637.74768601923</ele>
        <time>2021-08-21T11:25:04Z</time>
      </trkpt>
      <trkpt lat="47.8489" lon="6.66454">
        <ele>637.86067455435</ele>
        <time>2021-08-21T11:25:06Z</time>
      </trkpt>
      <trkpt lat="47.8489" lon="6.66447">
        <ele>637.96982953139</ele>
        <time>2021-08-21T11:25:08Z</time>
      </trkpt>
      <trkpt lat="47.84891" lon="6.66439">
        <ele>638.07625914891</ele>
        <time>2021-08-21T11:25:10Z</time>
      </trkpt>
      <trkpt lat="47.84891" lon="6.66431">
        <ele>638.17994582744</ele>
        <time>2021-08-21T11:25:12Z</time>
      </trkpt>
      <trkpt lat="47.84891" lon="6.66421">
        <ele>638.27971546193</ele>
        <time>2021-08-21T11:25:14Z</time>
      </trkpt>
      <trkpt lat="47.84891" lon="6.66409">
        <ele>639.15730678575</ele>
        <time>2021-08-21T11:25:16Z</time>
      </trkpt>
      <trkpt lat="47.84892" lon="6.66395">
        <ele>639.71700684002</ele>
        <time>2021-08-21T11:25:18Z</time>
      </trkpt>
      <trkpt lat="47.84891" lon="6.66379">
        <ele>640.09806047411</ele>
        <time>2021-08-21T11:25:20Z</time>
      </trkpt>
      <trkpt lat="47.8489" lon="6.66363">
        <ele>640.35400593939</ele>
        <time>2021-08-21T11:25:22Z</time>
      </trkpt>
      <trkpt lat="47.84889" lon="6.66346">
        <ele>640.50733601189</ele>
        <time>2021-08-21T11:25:24Z</time>
      </trkpt>
      <trkpt lat="47.84888" lon="6.66329">
        <ele>640.60216814731</ele>
        <time>2021-08-21T11:25:26Z</time>
      </trkpt>
      <trkpt lat="47.84886" lon="6.66314">
        <ele>640.77971431939</ele>
        <time>2021-08-21T11:25:28Z</time>
      </trkpt>
      <trkpt lat="47.84881" lon="6.66297">
        <ele>641.00592246656</ele>
        <time>2021-08-21T11:25:30Z</time>
      </trkpt>
      <trkpt lat="47.84875" lon="6.66277">
        <ele>641.19869092877</ele>
        <time>2021-08-21T11:25:32Z</time>
      </trkpt>
      <trkpt lat="47.84869" lon="6.66256">
        <ele>641.31721311888</ele>
        <time>2021-08-21T11:25:34Z</time>
      </trkpt>
      <trkpt lat="47.84863" lon="6.66238">
        <ele>641.3903032656</ele>
        <time>2021-08-21T11:25:36Z</time>
      </trkpt>
      <trkpt lat="47.84854" lon="6.66219">
        <ele>641.40112793816</ele>
        <time>2021-08-21T11:25:38Z</time>
      </trkpt>
      <trkpt lat="47.84842" lon="6.66203">
        <ele>641.44981618117</ele>
        <time>2021-08-21T11:25:40Z</time>
      </trkpt>
      <trkpt lat="47.84826" lon="6.66195">
        <ele>641.64859580525</ele>
        <time>2021-08-21T11:25:42Z</time>
      </trkpt>
      <trkpt lat="47.8481" lon="6.66196">
        <ele>641.91878034263</ele>
        <time>2021-08-21T11:25:44Z</time>
      </trkpt>
      <trkpt lat="47.84794" lon="6.66201">
        <ele>642.59963793168</ele>
        <time>2021-08-21T11:25:46Z</time>
      </trkpt>
      <trkpt lat="47.84781" lon="6.66202">
        <ele>643.23148886164</ele>
        <time>2021-08-21T11:25:48Z</time>
      </trkpt>
      <trkpt lat="47.84771" lon="6.66191">
        <ele>644.00042153647</ele>
        <time>2021-08-21T11:25:50Z</time>
      </trkpt>
      <trkpt lat="47.84767" lon="6.66174">
        <ele>644.82155513877</ele>
        <time>2021-08-21T11:25:52Z</time>
      </trkpt>
      <trkpt lat="47.84767" lon="6.66159">
        <ele>645.78170906397</ele>
        <time>2021-08-21T11:25:54Z</time>
      </trkpt>
      <trkpt lat="47.84766" lon="6.66144">
        <ele>646.39880744828</ele>
        <time>2021-08-21T11:25:56Z</time>
      </trkpt>
      <trkpt lat="47.84764" lon="6.6613">
        <ele>646.75250843782</ele>
        <time>2021-08-21T11:25:58Z</time>
      </trkpt>
      <trkpt lat="47.84759" lon="6.66118">
        <ele>647.14286598057</ele>
        <time>2021-08-21T11:26:00Z</time>
      </trkpt>
      <trkpt lat="47.84753" lon="6.6611">
        <ele>647.44166674463</ele>
        <time>2021-08-21T11:26:02Z</time>
      </trkpt>
      <trkpt lat="47.84749" lon="6.66105">
        <ele>647.47305662454</ele>
        <time>2021-08-21T11:26:04Z</time>
      </trkpt>
      <trkpt lat="47.84744" lon="6.66101">
        <ele>647.50883441661</ele>
        <time>2021-08-21T11:26:06Z</time>
      </trkpt>
      <trkpt lat="47.8474" lon="6.66098">
        <ele>647.55719288187</ele>
        <time>2021-08-21T11:26:08Z</time>
      </trkpt>
      <trkpt lat="47.84736" lon="6.66095">
        <ele>647.60345749112</ele>
        <time>2021-08-21T11:26:10Z</time>
      </trkpt>
      <trkpt lat="47.84732" lon="6.66092">
        <ele>647.63836075208</ele>
        <time>2021-08-21T11:26:12Z</time>
      </trkpt>
      <trkpt lat="47.84728" lon="6.66089">
        <ele>647.69071719434</ele>
        <time>2021-08-21T11:26:14Z</time>
      </trkpt>
      <trkpt lat="47.84724" lon="6.66086">
        <ele>647.77539769606</ele>
        <time>2021-08-21T11:26:16Z</time>
      </trkpt>
      <trkpt lat="47.84721" lon="6.66083">
        <ele>647.89285550052</ele>
        <time>2021-08-21T11:26:18Z</time>
      </trkpt>
      <trkpt lat="47.84717" lon="6.66081">
        <ele>648.03531651632</ele>
        <time>2021-08-21T11:26:20Z</time>
      </trkpt>
      <trkpt lat="47.84713" lon="6.66079">
        <ele>648.19071233963</ele>
        <time>2021-08-21T11:26:22Z</time>
      </trkpt>
      <trkpt lat="47.84709" lon="6.66077">
        <ele>648.34482360176</ele>
        <time>2021-08-21T11:26:24Z</time>
      </trkpt>
      <trkpt lat="47.84705" lon="6.66075">
        <ele>648.50751819888</ele>
        <time>2021-08-21T11:26:26Z</time>
      </trkpt>
      <trkpt lat="47.84699" lon="6.66073">
        <ele>648.67662323578</ele>
        <time>2021-08-21T11:26:28Z</time>
      </trkpt>
      <trkpt lat="47.84694" lon="6.66072">
        <ele>648.84497418532</ele>
        <time>2021-08-21T11:26:30Z</time>
      </trkpt>
      <trkpt lat="47.84688" lon="6.66073">
        <ele>649.00911382525</ele>
        <time>2021-08-21T11:26:32Z</time>
      </trkpt>
      <trkpt lat="47.84683" lon="6.66074">
        <ele>649.17131370876</ele>
        <time>2021-08-21T11:26:34Z</time>
      </trkpt>
      <trkpt lat="47.84677" lon="6.66075">
        <ele>649.33001435781</ele>
        <time>2021-08-21T11:26:36Z</time>
      </trkpt>
      <trkpt lat="47.84672" lon="6.66076">
        <ele>649.49161001866</ele>
        <time>2021-08-21T11:26:38Z</time>
      </trkpt>
      <trkpt lat="47.84667" lon="6.66078">
        <ele>649.65184221008</ele>
        <time>2021-08-21T11:26:40Z</time>
      </trkpt>
      <trkpt lat="47.84662" lon="6.6608">
        <ele>649.81134362921</ele>
        <time>2021-08-21T11:26:42Z</time>
      </trkpt>
      <trkpt lat="47.84657" lon="6.66083">
        <ele>649.97023827191</ele>
        <time>2021-08-21T11:26:44Z</time>
      </trkpt>
      <trkpt lat="47.84653" lon="6.66085">
        <ele>650.12957031797</ele>
        <time>2021-08-21T11:26:46Z</time>
      </trkpt>
      <trkpt lat="47.84649" lon="6.66087">
        <ele>650.28442778425</ele>
        <time>2021-08-21T11:26:48Z</time>
      </trkpt>
      <trkpt lat="47.84644" lon="6.66088">
        <ele>650.4362073657</ele>
        <time>2021-08-21T11:26:50Z</time>
      </trkpt>
      <trkpt lat="47.84638" lon="6.6609">
        <ele>650.59000807254</ele>
        <time>2021-08-21T11:26:52Z</time>
      </trkpt>
      <trkpt lat="47.84633" lon="6.66092">
        <ele>650.73994232038</ele>
        <time>2021-08-21T11:26:54Z</time>
      </trkpt>
      <trkpt lat="47.84628" lon="6.66093">
        <ele>650.88801878403</ele>
        <time>2021-08-21T11:26:56Z</time>
      </trkpt>
      <trkpt lat="47.84622" lon="6.66094">
        <ele>651.03407428355</ele>
        <time>2021-08-21T11:26:58Z</time>
      </trkpt>
      <trkpt lat="47.84617" lon="6.66095">
        <ele>651.18196299307</ele>
        <time>2021-08-21T11:27:00Z</time>
      </trkpt>
      <trkpt lat="47.84612" lon="6.66096">
        <ele>651.32927257795</ele>
        <time>2021-08-21T11:27:02Z</time>
      </trkpt>
      <trkpt lat="47.84606" lon="6.66096">
        <ele>651.47630270191</ele>
        <time>2021-08-21T11:27:04Z</time>
      </trkpt>
      <trkpt lat="47.84601" lon="6.66093">
        <ele>651.62180748313</ele>
        <time>2021-08-21T11:27:06Z</time>
      </trkpt>
      <trkpt lat="47.84595" lon="6.66091">
        <ele>651.77060064839</ele>
        <time>2021-08-21T11:27:08Z</time>
      </trkpt>
      <trkpt lat="47.84589" lon="6.66089">
        <ele>651.92269859884</ele>
        <time>2021-08-21T11:27:10Z</time>
      </trkpt>
      <trkpt lat="47.84583" lon="6.66089">
        <ele>652.07905736783</ele>
        <time>2021-08-21T11:27:12Z</time>
      </trkpt>
      <trkpt lat="47.84578" lon="6.66091">
        <ele>652.23781975582</ele>
        <time>2021-08-21T11:27:14Z</time>
      </trkpt>
      <trkpt lat="47.84572" lon="6.66094">
        <ele>652.39551851477</ele>
        <time>2021-08-21T11:27:16Z</time>
      </trkpt>
      <trkpt lat="47.84566" lon="6.66098">
        <ele>652.55140306355</ele>
        <time>2021-08-21T11:27:18Z</time>
      </trkpt>
      <trkpt lat="47.84561" lon="6.66101">
        <ele>652.70759281979</ele>
        <time>2021-08-21T11:27:20Z</time>
      </trkpt>
      <trkpt lat="47.84555" lon="6.66103">
        <ele>652.8635836638</ele>
        <time>2021-08-21T11:27:22Z</time>
      </trkpt>
      <trkpt lat="47.8455" lon="6.66103">
        <ele>653.0146696765</ele>
        <time>2021-08-21T11:27:24Z</time>
      </trkpt>
      <trkpt lat="47.84547" lon="6.66098">
        <ele>653.15848851366</ele>
        <time>2021-08-21T11:27:26Z</time>
      </trkpt>
      <trkpt lat="47.84547" lon="6.66091">
        <ele>653.29431690686</ele>
        <time>2021-08-21T11:27:28Z</time>
      </trkpt>
      <trkpt lat="47.84548" lon="6.66083">
        <ele>653.42346600299</ele>
        <time>2021-08-21T11:27:30Z</time>
      </trkpt>
      <trkpt lat="47.84549" lon="6.66075">
        <ele>653.54610932038</ele>
        <time>2021-08-21T11:27:32Z</time>
      </trkpt>
      <trkpt lat="47.84551" lon="6.66068">
        <ele>653.66258408673</ele>
        <time>2021-08-21T11:27:34Z</time>
      </trkpt>
      <trkpt lat="47.84553" lon="6.66062">
        <ele>653.77371641859</ele>
        <time>2021-08-21T11:27:36Z</time>
      </trkpt>
      <trkpt lat="47.84555" lon="6.66054">
        <ele>653.88269085949</ele>
        <time>2021-08-21T11:27:38Z</time>
      </trkpt>
      <trkpt lat="47.84556" lon="6.66047">
        <ele>653.987932329</ele>
        <time>2021-08-21T11:27:40Z</time>
      </trkpt>
      <trkpt lat="47.84557" lon="6.66039">
        <ele>654.08825835797</ele>
        <time>2021-08-21T11:27:42Z</time>
      </trkpt>
      <trkpt lat="47.84557" lon="6.66032">
        <ele>654.18506005797</ele>
        <time>2021-08-21T11:27:44Z</time>
      </trkpt>
      <trkpt lat="47.84558" lon="6.66027">
        <ele>654.27923114103</ele>
        <time>2021-08-21T11:27:46Z</time>
      </trkpt>
      <trkpt lat="47.84558" lon="6.66021">
        <ele>654.3684355125</ele>
        <time>2021-08-21T11:27:48Z</time>
      </trkpt>
      <trkpt lat="47.84559" lon="6.66014">
        <ele>654.45503228259</ele>
        <time>2021-08-21T11:27:50Z</time>
      </trkpt>
      <trkpt lat="47.84559" lon="6.66007">
        <ele>654.53939104867</ele>
        <time>2021-08-21T11:27:52Z</time>
      </trkpt>
      <trkpt lat="47.84559" lon="6.66">
        <ele>654.62334374058</ele>
        <time>2021-08-21T11:27:54Z</time>
      </trkpt>
      <trkpt lat="47.84558" lon="6.65994">
        <ele>654.70844345156</ele>
        <time>2021-08-21T11:27:56Z</time>
      </trkpt>
      <trkpt lat="47.84558" lon="6.65988">
        <ele>654.79390083763</ele>
        <time>2021-08-21T11:27:58Z</time>
      </trkpt>
      <trkpt lat="47.84556" lon="6.65981">
        <ele>654.88180177441</ele>
        <time>2021-08-21T11:28:00Z</time>
      </trkpt>
      <trkpt lat="47.84554" lon="6.65974">
        <ele>654.97182223988</ele>
        <time>2021-08-21T11:28:02Z</time>
      </trkpt>
      <trkpt lat="47.84552" lon="6.65967">
        <ele>655.0642271726</ele>
        <time>2021-08-21T11:28:04Z</time>
      </trkpt>
      <trkpt lat="47.84552" lon="6.65962">
        <ele>655.15769430789</ele>
        <time>2021-08-21T11:28:06Z</time>
      </trkpt>
      <trkpt lat="47.84551" lon="6.65956">
        <ele>655.25246878752</ele>
        <time>2021-08-21T11:28:08Z</time>
      </trkpt>
      <trkpt lat="47.84549" lon="6.6595">
        <ele>655.34801175928</ele>
        <time>2021-08-21T11:28:10Z</time>
      </trkpt>
      <trkpt lat="47.84548" lon="6.65945">
        <ele>655.44578639807</ele>
        <time>2021-08-21T11:28:12Z</time>
      </trkpt>
      <trkpt lat="47.84546" lon="6.65939">
        <ele>655.54460476441</ele>
        <time>2021-08-21T11:28:14Z</time>
      </trkpt>
      <trkpt lat="47.84545" lon="6.65932">
        <ele>655.64564155112</ele>
        <time>2021-08-21T11:28:16Z</time>
      </trkpt>
      <trkpt lat="47.84542" lon="6.65926">
        <ele>655.74870407689</ele>
        <time>2021-08-21T11:28:18Z</time>
      </trkpt>
      <trkpt lat="47.8454" lon="6.65921">
        <ele>655.85292012186</ele>
        <time>2021-08-21T11:28:20Z</time>
      </trkpt>
      <trkpt lat="47.84539" lon="6.65915">
        <ele>655.95846461316</ele>
        <time>2021-08-21T11:28:22Z</time>
      </trkpt>
      <trkpt lat="47.84536" lon="6.65909">
        <ele>656.06590769583</ele>
        <time>2021-08-21T11:28:24Z</time>
      </trkpt>
      <trkpt lat="47.84534" lon="6.65904">
        <ele>656.17340216874</ele>
        <time>2021-08-21T11:28:26Z</time>
      </trkpt>
      <trkpt lat="47.84531" lon="6.65898">
        <ele>656.28348964122</ele>
        <time>2021-08-21T11:28:28Z</time>
      </trkpt>
      <trkpt lat="47.84527" lon="6.65894">
        <ele>656.4036317574</ele>
        <time>2021-08-21T11:28:30Z</time>
      </trkpt>
      <trkpt lat="47.84523" lon="6.65889">
        <ele>656.52864617984</ele>
        <time>2021-08-21T11:28:32Z</time>
      </trkpt>
      <trkpt lat="47.84519" lon="6.65883">
        <ele>656.66452951151</ele>
        <time>2021-08-21T11:28:34Z</time>
      </trkpt>
      <trkpt lat="47.84515" lon="6.65879">
        <ele>656.79756546669</ele>
        <time>2021-08-21T11:28:36Z</time>
      </trkpt>
      <trkpt lat="47.8451" lon="6.65875">
        <ele>656.92771052268</ele>
        <time>2021-08-21T11:28:38Z</time>
      </trkpt>
      <trkpt lat="47.84506" lon="6.65871">
        <ele>657.05535890838</ele>
        <time>2021-08-21T11:28:40Z</time>
      </trkpt>
      <trkpt lat="47.84501" lon="6.65865">
        <ele>657.1916683403</ele>
        <time>2021-08-21T11:28:42Z</time>
      </trkpt>
      <trkpt lat="47.84497" lon="6.6586">
        <ele>657.3312990799</ele>
        <time>2021-08-21T11:28:44Z</time>
      </trkpt>
      <trkpt lat="47.84492" lon="6.65856">
        <ele>657.47441641099</ele>
        <time>2021-08-21T11:28:46Z</time>
      </trkpt>
      <trkpt lat="47.84488" lon="6.65853">
        <ele>657.62114104547</ele>
        <time>2021-08-21T11:28:48Z</time>
      </trkpt>
      <trkpt lat="47.84484" lon="6.6585">
        <ele>657.77161765365</ele>
        <time>2021-08-21T11:28:50Z</time>
      </trkpt>
      <trkpt lat="47.84479" lon="6.65849">
        <ele>657.92390866855</ele>
        <time>2021-08-21T11:28:52Z</time>
      </trkpt>
      <trkpt lat="47.84474" lon="6.65852">
        <ele>658.0742551199</ele>
        <time>2021-08-21T11:28:54Z</time>
      </trkpt>
      <trkpt lat="47.8447" lon="6.65856">
        <ele>658.23016513293</ele>
        <time>2021-08-21T11:28:56Z</time>
      </trkpt>
      <trkpt lat="47.84469" lon="6.65861">
        <ele>658.39367611736</ele>
        <time>2021-08-21T11:28:58Z</time>
      </trkpt>
      <trkpt lat="47.84467" lon="6.65868">
        <ele>658.5604017759</ele>
        <time>2021-08-21T11:29:00Z</time>
      </trkpt>
      <trkpt lat="47.84466" lon="6.65876">
        <ele>658.72789654675</ele>
        <time>2021-08-21T11:29:02Z</time>
      </trkpt>
      <trkpt lat="47.84465" lon="6.65883">
        <ele>658.8965945343</ele>
        <time>2021-08-21T11:29:04Z</time>
      </trkpt>
      <trkpt lat="47.84464" lon="6.65891">
        <ele>659.06542601864</ele>
        <time>2021-08-21T11:29:06Z</time>
      </trkpt>
      <trkpt lat="47.84462" lon="6.65899">
        <ele>659.23255304117</ele>
        <time>2021-08-21T11:29:08Z</time>
      </trkpt>
      <trkpt lat="47.8446" lon="6.65907">
        <ele>659.39791993133</ele>
        <time>2021-08-21T11:29:10Z</time>
      </trkpt>
      <trkpt lat="47.84458" lon="6.65916">
        <ele>660.2997837597</ele>
        <time>2021-08-21T11:29:12Z</time>
      </trkpt>
      <trkpt lat="47.84456" lon="6.65927">
        <ele>661.49742150019</ele>
        <time>2021-08-21T11:29:14Z</time>
      </trkpt>
      <trkpt lat="47.84454" lon="6.65938">
        <ele>662.2936619537</ele>
        <time>2021-08-21T11:29:16Z</time>
      </trkpt>
      <trkpt lat="47.84452" lon="6.6595">
        <ele>662.60918737519</ele>
        <time>2021-08-21T11:29:18Z</time>
      </trkpt>
      <trkpt lat="47.84449" lon="6.65959">
        <ele>662.65736525173</ele>
        <time>2021-08-21T11:29:20Z</time>
      </trkpt>
      <trkpt lat="47.84446" lon="6.65966">
        <ele>662.70921770071</ele>
        <time>2021-08-21T11:29:22Z</time>
      </trkpt>
      <trkpt lat="47.8444" lon="6.65972">
        <ele>663.21160195919</ele>
        <time>2021-08-21T11:29:24Z</time>
      </trkpt>
      <trkpt lat="47.8443" lon="6.65975">
        <ele>663.57782099032</ele>
        <time>2021-08-21T11:29:26Z</time>
      </trkpt>
      <trkpt lat="47.84417" lon="6.65973">
        <ele>663.93439129188</ele>
        <time>2021-08-21T11:29:28Z</time>
      </trkpt>
      <trkpt lat="47.84405" lon="6.65971">
        <ele>664.33738095387</ele>
        <time>2021-08-21T11:29:30Z</time>
      </trkpt>
      <trkpt lat="47.84392" lon="6.65979">
        <ele>664.71126049169</ele>
        <time>2021-08-21T11:29:32Z</time>
      </trkpt>
      <trkpt lat="47.84384" lon="6.65991">
        <ele>665.03030723574</ele>
        <time>2021-08-21T11:29:34Z</time>
      </trkpt>
      <trkpt lat="47.84377" lon="6.66005">
        <ele>665.30410371849</ele>
        <time>2021-08-21T11:29:36Z</time>
      </trkpt>
      <trkpt lat="47.84372" lon="6.6602">
        <ele>665.556269473</ele>
        <time>2021-08-21T11:29:38Z</time>
      </trkpt>
      <trkpt lat="47.84367" lon="6.66035">
        <ele>665.8226079709</ele>
        <time>2021-08-21T11:29:40Z</time>
      </trkpt>
      <trkpt lat="47.8436" lon="6.66051">
        <ele>666.10577671245</ele>
        <time>2021-08-21T11:29:42Z</time>
      </trkpt>
      <trkpt lat="47.84353" lon="6.66065">
        <ele>666.38082257491</ele>
        <time>2021-08-21T11:29:44Z</time>
      </trkpt>
      <trkpt lat="47.84346" lon="6.66077">
        <ele>666.63602678823</ele>
        <time>2021-08-21T11:29:46Z</time>
      </trkpt>
      <trkpt lat="47.8434" lon="6.66089">
        <ele>666.88483420573</ele>
        <time>2021-08-21T11:29:48Z</time>
      </trkpt>
      <trkpt lat="47.84334" lon="6.66099">
        <ele>667.14207713041</ele>
        <time>2021-08-21T11:29:50Z</time>
      </trkpt>
      <trkpt lat="47.84328" lon="6.6611">
        <ele>667.4056535528</ele>
        <time>2021-08-21T11:29:52Z</time>
      </trkpt>
      <trkpt lat="47.84322" lon="6.6612">
        <ele>667.64123974621</ele>
        <time>2021-08-21T11:29:54Z</time>
      </trkpt>
      <trkpt lat="47.84316" lon="6.66131">
        <ele>667.66254907906</ele>
        <time>2021-08-21T11:29:56Z</time>
      </trkpt>
      <trkpt lat="47.84311" lon="6.66138">
        <ele>667.87780010799</ele>
        <time>2021-08-21T11:29:58Z</time>
      </trkpt>
      <trkpt lat="47.84302" lon="6.66146">
        <ele>668.04822308235</ele>
        <time>2021-08-21T11:30:00Z</time>
      </trkpt>
      <trkpt lat="47.84292" lon="6.66156">
        <ele>668.22820048443</ele>
        <time>2021-08-21T11:30:02Z</time>
      </trkpt>
      <trkpt lat="47.84284" lon="6.66168">
        <ele>668.45824797264</ele>
        <time>2021-08-21T11:30:04Z</time>
      </trkpt>
      <trkpt lat="47.8427" lon="6.66185">
        <ele>668.80502644609</ele>
        <time>2021-08-21T11:30:06Z</time>
      </trkpt>
      <trkpt lat="47.84259" lon="6.66198">
        <ele>669.12845852619</ele>
        <time>2021-08-21T11:30:08Z</time>
      </trkpt>
      <trkpt lat="47.84249" lon="6.66212">
        <ele>669.44196763544</ele>
        <time>2021-08-21T11:30:10Z</time>
      </trkpt>
      <trkpt lat="47.84236" lon="6.66223">
        <ele>669.76856699608</ele>
        <time>2021-08-21T11:30:12Z</time>
      </trkpt>
      <trkpt lat="47.84221" lon="6.6623">
        <ele>670.03259293729</ele>
        <time>2021-08-21T11:30:14Z</time>
      </trkpt>
      <trkpt lat="47.84207" lon="6.66239">
        <ele>670.25402133044</ele>
        <time>2021-08-21T11:30:16Z</time>
      </trkpt>
      <trkpt lat="47.84192" lon="6.66249">
        <ele>670.54728368942</ele>
        <time>2021-08-21T11:30:18Z</time>
      </trkpt>
      <trkpt lat="47.84177" lon="6.66258">
        <ele>670.76102750558</ele>
        <time>2021-08-21T11:30:20Z</time>
      </trkpt>
      <trkpt lat="47.84164" lon="6.66267">
        <ele>671.25582823743</ele>
        <time>2021-08-21T11:30:22Z</time>
      </trkpt>
      <trkpt lat="47.84151" lon="6.66277">
        <ele>671.80953898766</ele>
        <time>2021-08-21T11:30:24Z</time>
      </trkpt>
      <trkpt lat="47.84138" lon="6.66279">
        <ele>672.38344426658</ele>
        <time>2021-08-21T11:30:26Z</time>
      </trkpt>
      <trkpt lat="47.84125" lon="6.66276">
        <ele>672.92155884973</ele>
        <time>2021-08-21T11:30:28Z</time>
      </trkpt>
      <trkpt lat="47.84114" lon="6.66272">
        <ele>673.33137376598</ele>
        <time>2021-08-21T11:30:30Z</time>
      </trkpt>
      <trkpt lat="47.84102" lon="6.66272">
        <ele>673.67953165597</ele>
        <time>2021-08-21T11:30:32Z</time>
      </trkpt>
      <trkpt lat="47.84091" lon="6.66278">
        <ele>673.95909827667</ele>
        <time>2021-08-21T11:30:34Z</time>
      </trkpt>
      <trkpt lat="47.84078" lon="6.66288">
        <ele>674.30260977057</ele>
        <time>2021-08-21T11:30:36Z</time>
      </trkpt>
      <trkpt lat="47.84062" lon="6.6629">
        <ele>674.57211332956</ele>
        <time>2021-08-21T11:30:38Z</time>
      </trkpt>
      <trkpt lat="47.84047" lon="6.66291">
        <ele>674.85709389208</ele>
        <time>2021-08-21T11:30:40Z</time>
      </trkpt>
      <trkpt lat="47.84035" lon="6.66296">
        <ele>675.20070156955</ele>
        <time>2021-08-21T11:30:42Z</time>
      </trkpt>
      <trkpt lat="47.84023" lon="6.66302">
        <ele>675.67770353145</ele>
        <time>2021-08-21T11:30:44Z</time>
      </trkpt>
      <trkpt lat="47.84014" lon="6.66306">
        <ele>675.89605742813</ele>
        <time>2021-08-21T11:30:46Z</time>
      </trkpt>
      <trkpt lat="47.84006" lon="6.66308">
        <ele>675.92988097542</ele>
        <time>2021-08-21T11:30:48Z</time>
      </trkpt>
      <trkpt lat="47.84" lon="6.66312">
        <ele>675.96547737754</ele>
        <time>2021-08-21T11:30:50Z</time>
      </trkpt>
      <trkpt lat="47.83994" lon="6.66314">
        <ele>676.01636606879</ele>
        <time>2021-08-21T11:30:52Z</time>
      </trkpt>
      <trkpt lat="47.83989" lon="6.66317">
        <ele>676.08979097636</ele>
        <time>2021-08-21T11:30:54Z</time>
      </trkpt>
      <trkpt lat="47.83984" lon="6.66322">
        <ele>676.15911081524</ele>
        <time>2021-08-21T11:30:56Z</time>
      </trkpt>
      <trkpt lat="47.8398" lon="6.66326">
        <ele>676.22156309836</ele>
        <time>2021-08-21T11:30:58Z</time>
      </trkpt>
      <trkpt lat="47.83976" lon="6.66332">
        <ele>676.28771152304</ele>
        <time>2021-08-21T11:31:00Z</time>
      </trkpt>
      <trkpt lat="47.8397" lon="6.66337">
        <ele>676.35424261031</ele>
        <time>2021-08-21T11:31:02Z</time>
      </trkpt>
      <trkpt lat="47.83965" lon="6.66339">
        <ele>676.42896286764</ele>
        <time>2021-08-21T11:31:04Z</time>
      </trkpt>
      <trkpt lat="47.83958" lon="6.6634">
        <ele>676.51763476499</ele>
        <time>2021-08-21T11:31:06Z</time>
      </trkpt>
      <trkpt lat="47.83952" lon="6.66339">
        <ele>676.61626374833</ele>
        <time>2021-08-21T11:31:08Z</time>
      </trkpt>
      <trkpt lat="47.83947" lon="6.66337">
        <ele>676.72302220487</ele>
        <time>2021-08-21T11:31:10Z</time>
      </trkpt>
      <trkpt lat="47.83942" lon="6.66332">
        <ele>676.86315245576</ele>
        <time>2021-08-21T11:31:12Z</time>
      </trkpt>
      <trkpt lat="47.83939" lon="6.66327">
        <ele>677.01782292224</ele>
        <time>2021-08-21T11:31:14Z</time>
      </trkpt>
      <trkpt lat="47.83936" lon="6.66322">
        <ele>677.18995430179</ele>
        <time>2021-08-21T11:31:16Z</time>
      </trkpt>
      <trkpt lat="47.83933" lon="6.66316">
        <ele>677.34829102355</ele>
        <time>2021-08-21T11:31:18Z</time>
      </trkpt>
      <trkpt lat="47.83929" lon="6.6631">
        <ele>677.50593162479</ele>
        <time>2021-08-21T11:31:20Z</time>
      </trkpt>
      <trkpt lat="47.83926" lon="6.66305">
        <ele>677.67137834283</ele>
        <time>2021-08-21T11:31:22Z</time>
      </trkpt>
      <trkpt lat="47.83922" lon="6.66302">
        <ele>677.84632315131</ele>
        <time>2021-08-21T11:31:24Z</time>
      </trkpt>
      <trkpt lat="47.83918" lon="6.66299">
        <ele>678.02365334473</ele>
        <time>2021-08-21T11:31:26Z</time>
      </trkpt>
      <trkpt lat="47.83913" lon="6.66298">
        <ele>678.20852672301</ele>
        <time>2021-08-21T11:31:28Z</time>
      </trkpt>
      <trkpt lat="47.83908" lon="6.66299">
        <ele>678.39527326286</ele>
        <time>2021-08-21T11:31:30Z</time>
      </trkpt>
      <trkpt lat="47.83903" lon="6.66302">
        <ele>678.58367077582</ele>
        <time>2021-08-21T11:31:32Z</time>
      </trkpt>
      <trkpt lat="47.839" lon="6.66306">
        <ele>678.77270347663</ele>
        <time>2021-08-21T11:31:34Z</time>
      </trkpt>
      <trkpt lat="47.83898" lon="6.66312">
        <ele>678.96376203523</ele>
        <time>2021-08-21T11:31:36Z</time>
      </trkpt>
      <trkpt lat="47.83896" lon="6.66319">
        <ele>679.15450940247</ele>
        <time>2021-08-21T11:31:38Z</time>
      </trkpt>
      <trkpt lat="47.83894" lon="6.66326">
        <ele>679.34148725842</ele>
        <time>2021-08-21T11:31:40Z</time>
      </trkpt>
      <trkpt lat="47.83893" lon="6.66334">
        <ele>679.52403739652</ele>
        <time>2021-08-21T11:31:42Z</time>
      </trkpt>
      <trkpt lat="47.83892" lon="6.66342">
        <ele>679.70423299446</ele>
        <time>2021-08-21T11:31:44Z</time>
      </trkpt>
      <trkpt lat="47.83892" lon="6.6635">
        <ele>679.88207075137</ele>
        <time>2021-08-21T11:31:46Z</time>
      </trkpt>
      <trkpt lat="47.83893" lon="6.66357">
        <ele>680.05642226035</ele>
        <time>2021-08-21T11:31:48Z</time>
      </trkpt>
      <trkpt lat="47.83895" lon="6.66363">
        <ele>680.22754152015</ele>
        <time>2021-08-21T11:31:50Z</time>
      </trkpt>
      <trkpt lat="47.83896" lon="6.66371">
        <ele>680.39462862758</ele>
        <time>2021-08-21T11:31:52Z</time>
      </trkpt>
      <trkpt lat="47.83898" lon="6.66378">
        <ele>680.55845943778</ele>
        <time>2021-08-21T11:31:54Z</time>
      </trkpt>
      <trkpt lat="47.839" lon="6.66386">
        <ele>680.7175361046</ele>
        <time>2021-08-21T11:31:56Z</time>
      </trkpt>
      <trkpt lat="47.83902" lon="6.66394">
        <ele>680.87125028175</ele>
        <time>2021-08-21T11:31:58Z</time>
      </trkpt>
      <trkpt lat="47.83905" lon="6.66403">
        <ele>681.02131835059</ele>
        <time>2021-08-21T11:32:00Z</time>
      </trkpt>
      <trkpt lat="47.83908" lon="6.66412">
        <ele>681.16581793661</ele>
        <time>2021-08-21T11:32:02Z</time>
      </trkpt>
      <trkpt lat="47.83911" lon="6.66421">
        <ele>681.30377235189</ele>
        <time>2021-08-21T11:32:04Z</time>
      </trkpt>
      <trkpt lat="47.83915" lon="6.66431">
        <ele>682.03368712724</ele>
        <time>2021-08-21T11:32:06Z</time>
      </trkpt>
      <trkpt lat="47.83919" lon="6.6644">
        <ele>682.14314169233</ele>
        <time>2021-08-21T11:32:08Z</time>
      </trkpt>
      <trkpt lat="47.83922" lon="6.6645">
        <ele>682.25023376308</ele>
        <time>2021-08-21T11:32:10Z</time>
      </trkpt>
      <trkpt lat="47.83925" lon="6.6646">
        <ele>682.82003796363</ele>
        <time>2021-08-21T11:32:12Z</time>
      </trkpt>
      <trkpt lat="47.83929" lon="6.66471">
        <ele>683.57997506339</ele>
        <time>2021-08-21T11:32:14Z</time>
      </trkpt>
      <trkpt lat="47.83933" lon="6.66482">
        <ele>684.08474837695</ele>
        <time>2021-08-21T11:32:16Z</time>
      </trkpt>
      <trkpt lat="47.8394" lon="6.66494">
        <ele>684.45740155846</ele>
        <time>2021-08-21T11:32:18Z</time>
      </trkpt>
      <trkpt lat="47.83947" lon="6.66507">
        <ele>684.71106352438</ele>
        <time>2021-08-21T11:32:20Z</time>
      </trkpt>
      <trkpt lat="47.83953" lon="6.66521">
        <ele>684.90310820348</ele>
        <time>2021-08-21T11:32:22Z</time>
      </trkpt>
      <trkpt lat="47.83952" lon="6.66537">
        <ele>685.05060825936</ele>
        <time>2021-08-21T11:32:24Z</time>
      </trkpt>
      <trkpt lat="47.83947" lon="6.66547">
        <ele>685.18435677241</ele>
        <time>2021-08-21T11:32:26Z</time>
      </trkpt>
      <trkpt lat="47.8394" lon="6.66555">
        <ele>685.31807190585</ele>
        <time>2021-08-21T11:32:28Z</time>
      </trkpt>
      <trkpt lat="47.83933" lon="6.66561">
        <ele>685.45514834369</ele>
        <time>2021-08-21T11:32:30Z</time>
      </trkpt>
      <trkpt lat="47.83923" lon="6.66565">
        <ele>685.61152875333</ele>
        <time>2021-08-21T11:32:32Z</time>
      </trkpt>
      <trkpt lat="47.83913" lon="6.6657">
        <ele>685.77904772698</ele>
        <time>2021-08-21T11:32:34Z</time>
      </trkpt>
      <trkpt lat="47.83903" lon="6.66576">
        <ele>685.95579852088</ele>
        <time>2021-08-21T11:32:36Z</time>
      </trkpt>
      <trkpt lat="47.83895" lon="6.66584">
        <ele>686.12526585308</ele>
        <time>2021-08-21T11:32:38Z</time>
      </trkpt>
      <trkpt lat="47.83888" lon="6.66594">
        <ele>686.27929300182</ele>
        <time>2021-08-21T11:32:40Z</time>
      </trkpt>
      <trkpt lat="47.83884" lon="6.66603">
        <ele>686.42670257509</ele>
        <time>2021-08-21T11:32:42Z</time>
      </trkpt>
      <trkpt lat="47.83879" lon="6.66613">
        <ele>686.56234972266</ele>
        <time>2021-08-21T11:32:44Z</time>
      </trkpt>
      <trkpt lat="47.83873" lon="6.66625">
        <ele>686.68708930786</ele>
        <time>2021-08-21T11:32:46Z</time>
      </trkpt>
      <trkpt lat="47.83866" lon="6.66636">
        <ele>686.80228393295</ele>
        <time>2021-08-21T11:32:48Z</time>
      </trkpt>
      <trkpt lat="47.83858" lon="6.66647">
        <ele>686.89777309419</ele>
        <time>2021-08-21T11:32:50Z</time>
      </trkpt>
      <trkpt lat="47.8385" lon="6.66657">
        <ele>686.9664537329</ele>
        <time>2021-08-21T11:32:52Z</time>
      </trkpt>
      <trkpt lat="47.83843" lon="6.66667">
        <ele>687.01829404048</ele>
        <time>2021-08-21T11:32:54Z</time>
      </trkpt>
      <trkpt lat="47.83836" lon="6.66674">
        <ele>687.05821265484</ele>
        <time>2021-08-21T11:32:56Z</time>
      </trkpt>
      <trkpt lat="47.83831" lon="6.6668">
        <ele>687.06369575683</ele>
        <time>2021-08-21T11:32:58Z</time>
      </trkpt>
      <trkpt lat="47.83825" lon="6.66686">
        <ele>687.07554350231</ele>
        <time>2021-08-21T11:33:00Z</time>
      </trkpt>
      <trkpt lat="47.8382" lon="6.66693">
        <ele>687.08893634592</ele>
        <time>2021-08-21T11:33:02Z</time>
      </trkpt>
      <trkpt lat="47.83819" lon="6.667">
        <ele>687.10597376332</ele>
        <time>2021-08-21T11:33:04Z</time>
      </trkpt>
      <trkpt lat="47.83818" lon="6.66707">
        <ele>687.12464829512</ele>
        <time>2021-08-21T11:33:06Z</time>
      </trkpt>
      <trkpt lat="47.83814" lon="6.66709">
        <ele>687.1450143783</ele>
        <time>2021-08-21T11:33:08Z</time>
      </trkpt>
      <trkpt lat="47.83813" lon="6.6671">
        <ele>687.15816728162</ele>
        <time>2021-08-21T11:33:10Z</time>
      </trkpt>
      <trkpt lat="47.83813" lon="6.66711">
        <ele>687.17312711353</ele>
        <time>2021-08-21T11:33:12Z</time>
      </trkpt>
      <trkpt lat="47.83813" lon="6.66711">
        <ele>687.17591734297</ele>
        <time>2021-08-21T11:33:14Z</time>
      </trkpt>
      <trkpt lat="47.83813" lon="6.66711">
        <ele>687.17866557639</ele>
        <time>2021-08-21T11:33:16Z</time>
      </trkpt>
      <trkpt lat="47.83813" lon="6.66711">
        <ele>687.18163163117</ele>
        <time>2021-08-21T11:33:18Z</time>
      </trkpt>
      <trkpt lat="47.83813" lon="6.66711">
        <ele>687.18504581801</ele>
        <time>2021-08-21T11:33:20Z</time>
      </trkpt>
      <trkpt lat="47.83813" lon="6.66711">
        <ele>687.18899825802</ele>
        <time>2021-08-21T11:33:22Z</time>
      </trkpt>
      <trkpt lat="47.83813" lon="6.66711">
        <ele>687.19292742764</ele>
        <time>2021-08-21T11:33:24Z</time>
      </trkpt>
      <trkpt lat="47.83813" lon="6.66711">
        <ele>687.19683170558</ele>
        <time>2021-08-21T11:33:26Z</time>
      </trkpt>
      <trkpt lat="47.83813" lon="6.66711">
        <ele>687.20112038736</ele>
        <time>2021-08-21T11:33:28Z</time>
      </trkpt>
      <trkpt lat="47.83813" lon="6.66711">
        <ele>687.20572971551</ele>
        <time>2021-08-21T11:33:30Z</time>
      </trkpt>
      <trkpt lat="47.83813" lon="6.6671">
        <ele>687.2110775255</ele>
        <time>2021-08-21T11:33:32Z</time>
      </trkpt>
      <trkpt lat="47.83813" lon="6.6671">
        <ele>687.2168632523</ele>
        <time>2021-08-21T11:33:34Z</time>
      </trkpt>
      <trkpt lat="47.83813" lon="6.6671">
        <ele>687.22263597658</ele>
        <time>2021-08-21T11:33:36Z</time>
      </trkpt>
      <trkpt lat="47.83814" lon="6.6671">
        <ele>687.22843789762</ele>
        <time>2021-08-21T11:33:38Z</time>
      </trkpt>
      <trkpt lat="47.83813" lon="6.6671">
        <ele>687.23412238668</ele>
        <time>2021-08-21T11:33:40Z</time>
      </trkpt>
      <trkpt lat="47.83814" lon="6.6671">
        <ele>687.24023587394</ele>
        <time>2021-08-21T11:33:42Z</time>
      </trkpt>
      <trkpt lat="47.83814" lon="6.6671">
        <ele>687.24639559747</ele>
        <time>2021-08-21T11:33:44Z</time>
      </trkpt>
      <trkpt lat="47.83814" lon="6.6671">
        <ele>687.25277389355</ele>
        <time>2021-08-21T11:33:46Z</time>
      </trkpt>
      <trkpt lat="47.83814" lon="6.6671">
        <ele>687.25975051978</ele>
        <time>2021-08-21T11:33:48Z</time>
      </trkpt>
      <trkpt lat="47.83814" lon="6.6671">
        <ele>687.26714030193</ele>
        <time>2021-08-21T11:33:50Z</time>
      </trkpt>
      <trkpt lat="47.83814" lon="6.6671">
        <ele>687.27474446081</ele>
        <time>2021-08-21T11:33:52Z</time>
      </trkpt>
      <trkpt lat="47.83814" lon="6.6671">
        <ele>687.31702602929</ele>
        <time>2021-08-21T11:33:54Z</time>
      </trkpt>
      <trkpt lat="47.83814" lon="6.6671">
        <ele>687.32514873244</ele>
        <time>2021-08-21T11:33:56Z</time>
      </trkpt>
      <trkpt lat="47.83814" lon="6.6671">
        <ele>687.33372508148</ele>
        <time>2021-08-21T11:33:58Z</time>
      </trkpt>
      <trkpt lat="47.83814" lon="6.6671">
        <ele>687.34250625922</ele>
        <time>2021-08-21T11:34:00Z</time>
      </trkpt>
      <trkpt lat="47.83814" lon="6.6671">
        <ele>687.35139436341</ele>
        <time>2021-08-21T11:34:02Z</time>
      </trkpt>
      <trkpt lat="47.83814" lon="6.6671">
        <ele>687.3603119929</ele>
        <time>2021-08-21T11:34:04Z</time>
      </trkpt>
      <trkpt lat="47.83815" lon="6.6671">
        <ele>687.41018466247</ele>
        <time>2021-08-21T11:34:06Z</time>
      </trkpt>
      <trkpt lat="47.83815" lon="6.66709">
        <ele>687.41941940697</ele>
        <time>2021-08-21T11:34:08Z</time>
      </trkpt>
      <trkpt lat="47.83815" lon="6.66709">
        <ele>687.42918044759</ele>
        <time>2021-08-21T11:34:10Z</time>
      </trkpt>
      <trkpt lat="47.83815" lon="6.66709">
        <ele>687.43939328513</ele>
        <time>2021-08-21T11:34:12Z</time>
      </trkpt>
      <trkpt lat="47.83814" lon="6.66709">
        <ele>687.44997833224</ele>
        <time>2021-08-21T11:34:14Z</time>
      </trkpt>
      <trkpt lat="47.83815" lon="6.66709">
        <ele>687.46072760309</ele>
        <time>2021-08-21T11:34:16Z</time>
      </trkpt>
      <trkpt lat="47.83815" lon="6.66709">
        <ele>687.47157605956</ele>
        <time>2021-08-21T11:34:18Z</time>
      </trkpt>
      <trkpt lat="47.83815" lon="6.66709">
        <ele>687.48253536888</ele>
        <time>2021-08-21T11:34:20Z</time>
      </trkpt>
      <trkpt lat="47.83815" lon="6.66709">
        <ele>687.49338711542</ele>
        <time>2021-08-21T11:34:22Z</time>
      </trkpt>
      <trkpt lat="47.83815" lon="6.66709">
        <ele>687.5045117492</ele>
        <time>2021-08-21T11:34:24Z</time>
      </trkpt>
      <trkpt lat="47.83815" lon="6.66709">
        <ele>687.51591389345</ele>
        <time>2021-08-21T11:34:26Z</time>
      </trkpt>
      <trkpt lat="47.83815" lon="6.66709">
        <ele>687.52728193205</ele>
        <time>2021-08-21T11:34:28Z</time>
      </trkpt>
      <trkpt lat="47.83815" lon="6.66709">
        <ele>687.53885339875</ele>
        <time>2021-08-21T11:34:30Z</time>
      </trkpt>
      <trkpt lat="47.83815" lon="6.66709">
        <ele>687.55057174658</ele>
        <time>2021-08-21T11:34:32Z</time>
      </trkpt>
      <trkpt lat="47.83815" lon="6.66709">
        <ele>687.56238707101</ele>
        <time>2021-08-21T11:34:34Z</time>
      </trkpt>
      <trkpt lat="47.83814" lon="6.66709">
        <ele>687.57456280756</ele>
        <time>2021-08-21T11:34:36Z</time>
      </trkpt>
      <trkpt lat="47.83815" lon="6.66709">
        <ele>687.58688420356</ele>
        <time>2021-08-21T11:34:38Z</time>
      </trkpt>
      <trkpt lat="47.83815" lon="6.66709">
        <ele>687.59922326974</ele>
        <time>2021-08-21T11:34:40Z</time>
      </trkpt>
      <trkpt lat="47.83814" lon="6.66709">
        <ele>687.61161952457</ele>
        <time>2021-08-21T11:34:42Z</time>
      </trkpt>
      <trkpt lat="47.83814" lon="6.6671">
        <ele>687.62414937535</ele>
        <time>2021-08-21T11:34:44Z</time>
      </trkpt>
      <trkpt lat="47.83814" lon="6.6671">
        <ele>687.63688670515</ele>
        <time>2021-08-21T11:34:46Z</time>
      </trkpt>
      <trkpt lat="47.83814" lon="6.66709">
        <ele>687.64971701818</ele>
        <time>2021-08-21T11:34:48Z</time>
      </trkpt>
      <trkpt lat="47.83813" lon="6.6671">
        <ele>687.7787116262</ele>
        <time>2021-08-21T11:34:50Z</time>
      </trkpt>
      <trkpt lat="47.83813" lon="6.6671">
        <ele>687.79150012098</ele>
        <time>2021-08-21T11:34:52Z</time>
      </trkpt>
      <trkpt lat="47.83813" lon="6.6671">
        <ele>687.86244099646</ele>
        <time>2021-08-21T11:34:54Z</time>
      </trkpt>
      <trkpt lat="47.83812" lon="6.6671">
        <ele>687.9872104786</ele>
        <time>2021-08-21T11:34:56Z</time>
      </trkpt>
      <trkpt lat="47.83809" lon="6.66707">
        <ele>688.10764709963</ele>
        <time>2021-08-21T11:34:58Z</time>
      </trkpt>
      <trkpt lat="47.83804" lon="6.66707">
        <ele>688.22431620736</ele>
        <time>2021-08-21T11:35:00Z</time>
      </trkpt>
      <trkpt lat="47.83797" lon="6.66709">
        <ele>688.33831763852</ele>
        <time>2021-08-21T11:35:02Z</time>
      </trkpt>
      <trkpt lat="47.83788" lon="6.66712">
        <ele>689.35341627416</ele>
        <time>2021-08-21T11:35:04Z</time>
      </trkpt>
      <trkpt lat="47.83778" lon="6.66715">
        <ele>690.01153880442</ele>
        <time>2021-08-21T11:35:06Z</time>
      </trkpt>
      <trkpt lat="47.83768" lon="6.66718">
        <ele>690.52704947962</ele>
        <time>2021-08-21T11:35:08Z</time>
      </trkpt>
      <trkpt lat="47.83754" lon="6.66727">
        <ele>690.9348250206</ele>
        <time>2021-08-21T11:35:10Z</time>
      </trkpt>
      <trkpt lat="47.83738" lon="6.66741">
        <ele>691.24423585747</ele>
        <time>2021-08-21T11:35:12Z</time>
      </trkpt>
      <trkpt lat="47.83728" lon="6.6676">
        <ele>691.48697272902</ele>
        <time>2021-08-21T11:35:14Z</time>
      </trkpt>
      <trkpt lat="47.83721" lon="6.66778">
        <ele>691.67125305881</ele>
        <time>2021-08-21T11:35:16Z</time>
      </trkpt>
      <trkpt lat="47.83717" lon="6.66793">
        <ele>691.83964256594</ele>
        <time>2021-08-21T11:35:18Z</time>
      </trkpt>
      <trkpt lat="47.83715" lon="6.66805">
        <ele>691.94937067582</ele>
        <time>2021-08-21T11:35:20Z</time>
      </trkpt>
      <trkpt lat="47.83713" lon="6.66819">
        <ele>691.80739673403</ele>
        <time>2021-08-21T11:35:22Z</time>
      </trkpt>
      <trkpt lat="47.83702" lon="6.66832">
        <ele>691.84044864278</ele>
        <time>2021-08-21T11:35:24Z</time>
      </trkpt>
      <trkpt lat="47.8369" lon="6.66843">
        <ele>691.88036906524</ele>
        <time>2021-08-21T11:35:26Z</time>
      </trkpt>
      <trkpt lat="47.83675" lon="6.66852">
        <ele>691.90038462193</ele>
        <time>2021-08-21T11:35:28Z</time>
      </trkpt>
      <trkpt lat="47.83659" lon="6.66854">
        <ele>691.83634456328</ele>
        <time>2021-08-21T11:35:30Z</time>
      </trkpt>
      <trkpt lat="47.83643" lon="6.66852">
        <ele>691.39627433893</ele>
        <time>2021-08-21T11:35:32Z</time>
      </trkpt>
      <trkpt lat="47.83625" lon="6.66848">
        <ele>690.97474823318</ele>
        <time>2021-08-21T11:35:34Z</time>
      </trkpt>
      <trkpt lat="47.83607" lon="6.66843">
        <ele>690.43310780878</ele>
        <time>2021-08-21T11:35:36Z</time>
      </trkpt>
      <trkpt lat="47.83592" lon="6.66838">
        <ele>689.9988423452</ele>
        <time>2021-08-21T11:35:38Z</time>
      </trkpt>
      <trkpt lat="47.83577" lon="6.66842">
        <ele>689.51286625678</ele>
        <time>2021-08-21T11:35:40Z</time>
      </trkpt>
      <trkpt lat="47.83561" lon="6.66852">
        <ele>689.132339786</ele>
        <time>2021-08-21T11:35:42Z</time>
      </trkpt>
      <trkpt lat="47.83543" lon="6.66858">
        <ele>688.45449642512</ele>
        <time>2021-08-21T11:35:44Z</time>
      </trkpt>
      <trkpt lat="47.83528" lon="6.66867">
        <ele>688.06511534736</ele>
        <time>2021-08-21T11:35:46Z</time>
      </trkpt>
      <trkpt lat="47.83516" lon="6.66884">
        <ele>688.04949440981</ele>
        <time>2021-08-21T11:35:48Z</time>
      </trkpt>
      <trkpt lat="47.83508" lon="6.66907">
        <ele>688.15060748447</ele>
        <time>2021-08-21T11:35:50Z</time>
      </trkpt>
      <trkpt lat="47.83503" lon="6.66931">
        <ele>688.01727803473</ele>
        <time>2021-08-21T11:35:52Z</time>
      </trkpt>
      <trkpt lat="47.83502" lon="6.66955">
        <ele>687.68884065421</ele>
        <time>2021-08-21T11:35:54Z</time>
      </trkpt>
      <trkpt lat="47.83503" lon="6.66977">
        <ele>687.23030637925</ele>
        <time>2021-08-21T11:35:56Z</time>
      </trkpt>
      <trkpt lat="47.83506" lon="6.66997">
        <ele>686.78664208961</ele>
        <time>2021-08-21T11:35:58Z</time>
      </trkpt>
      <trkpt lat="47.83508" lon="6.67019">
        <ele>685.92914815796</ele>
        <time>2021-08-21T11:36:00Z</time>
      </trkpt>
      <trkpt lat="47.83509" lon="6.67043">
        <ele>684.70687182959</ele>
        <time>2021-08-21T11:36:02Z</time>
      </trkpt>
      <trkpt lat="47.83509" lon="6.67073">
        <ele>683.35401566993</ele>
        <time>2021-08-21T11:36:04Z</time>
      </trkpt>
      <trkpt lat="47.83504" lon="6.67102">
        <ele>682.2031065727</ele>
        <time>2021-08-21T11:36:06Z</time>
      </trkpt>
      <trkpt lat="47.83499" lon="6.67129">
        <ele>681.29188992341</ele>
        <time>2021-08-21T11:36:08Z</time>
      </trkpt>
      <trkpt lat="47.83492" lon="6.67151">
        <ele>680.47799171918</ele>
        <time>2021-08-21T11:36:10Z</time>
      </trkpt>
      <trkpt lat="47.83478" lon="6.6716">
        <ele>679.80818313652</ele>
        <time>2021-08-21T11:36:12Z</time>
      </trkpt>
      <trkpt lat="47.83464" lon="6.67154">
        <ele>679.26300956111</ele>
        <time>2021-08-21T11:36:14Z</time>
      </trkpt>
      <trkpt lat="47.83448" lon="6.67153">
        <ele>678.87678588694</ele>
        <time>2021-08-21T11:36:16Z</time>
      </trkpt>
      <trkpt lat="47.83433" lon="6.67165">
        <ele>679.06119779013</ele>
        <time>2021-08-21T11:36:18Z</time>
      </trkpt>
      <trkpt lat="47.83423" lon="6.67185">
        <ele>679.21332087233</ele>
        <time>2021-08-21T11:36:20Z</time>
      </trkpt>
      <trkpt lat="47.83416" lon="6.672">
        <ele>678.94159940713</ele>
        <time>2021-08-21T11:36:22Z</time>
      </trkpt>
      <trkpt lat="47.83407" lon="6.67203">
        <ele>677.9865188057</ele>
        <time>2021-08-21T11:36:24Z</time>
      </trkpt>
      <trkpt lat="47.83396" lon="6.67192">
        <ele>676.72989121997</ele>
        <time>2021-08-21T11:36:26Z</time>
      </trkpt>
      <trkpt lat="47.83389" lon="6.67171">
        <ele>675.20391910422</ele>
        <time>2021-08-21T11:36:28Z</time>
      </trkpt>
      <trkpt lat="47.83379" lon="6.67152">
        <ele>673.98302702588</ele>
        <time>2021-08-21T11:36:30Z</time>
      </trkpt>
      <trkpt lat="47.83365" lon="6.6714">
        <ele>672.97397903943</ele>
        <time>2021-08-21T11:36:32Z</time>
      </trkpt>
      <trkpt lat="47.83351" lon="6.67131">
        <ele>672.03259150837</ele>
        <time>2021-08-21T11:36:34Z</time>
      </trkpt>
      <trkpt lat="47.83335" lon="6.67133">
        <ele>670.64929420519</ele>
        <time>2021-08-21T11:36:36Z</time>
      </trkpt>
      <trkpt lat="47.83321" lon="6.67148">
        <ele>669.07697857341</ele>
        <time>2021-08-21T11:36:38Z</time>
      </trkpt>
      <trkpt lat="47.83302" lon="6.67151">
        <ele>667.15242302175</ele>
        <time>2021-08-21T11:36:40Z</time>
      </trkpt>
      <trkpt lat="47.83284" lon="6.67141">
        <ele>665.30001796184</ele>
        <time>2021-08-21T11:36:42Z</time>
      </trkpt>
      <trkpt lat="47.8327" lon="6.67121">
        <ele>663.33848080981</ele>
        <time>2021-08-21T11:36:44Z</time>
      </trkpt>
      <trkpt lat="47.83257" lon="6.67103">
        <ele>661.48481272002</ele>
        <time>2021-08-21T11:36:46Z</time>
      </trkpt>
      <trkpt lat="47.83246" lon="6.67087">
        <ele>659.78731314319</ele>
        <time>2021-08-21T11:36:48Z</time>
      </trkpt>
      <trkpt lat="47.83231" lon="6.67084">
        <ele>658.38809503023</ele>
        <time>2021-08-21T11:36:50Z</time>
      </trkpt>
      <trkpt lat="47.83217" lon="6.67087">
        <ele>657.00815573426</ele>
        <time>2021-08-21T11:36:52Z</time>
      </trkpt>
      <trkpt lat="47.83204" lon="6.67085">
        <ele>655.68590643337</ele>
        <time>2021-08-21T11:36:54Z</time>
      </trkpt>
      <trkpt lat="47.83194" lon="6.6709">
        <ele>654.06594001867</ele>
        <time>2021-08-21T11:36:56Z</time>
      </trkpt>
      <trkpt lat="47.83179" lon="6.67095">
        <ele>652.30641343803</ele>
        <time>2021-08-21T11:36:58Z</time>
      </trkpt>
      <trkpt lat="47.8316" lon="6.67101">
        <ele>650.6280770125</ele>
        <time>2021-08-21T11:37:00Z</time>
      </trkpt>
      <trkpt lat="47.83144" lon="6.67103">
        <ele>648.99838597519</ele>
        <time>2021-08-21T11:37:02Z</time>
      </trkpt>
      <trkpt lat="47.83132" lon="6.67104">
        <ele>647.22303188603</ele>
        <time>2021-08-21T11:37:04Z</time>
      </trkpt>
      <trkpt lat="47.8312" lon="6.67106">
        <ele>645.94254505954</ele>
        <time>2021-08-21T11:37:06Z</time>
      </trkpt>
      <trkpt lat="47.83109" lon="6.67111">
        <ele>645.10276781375</ele>
        <time>2021-08-21T11:37:08Z</time>
      </trkpt>
      <trkpt lat="47.831" lon="6.67112">
        <ele>643.53009860392</ele>
        <time>2021-08-21T11:37:10Z</time>
      </trkpt>
      <trkpt lat="47.83085" lon="6.67107">
        <ele>641.44722008996</ele>
        <time>2021-08-21T11:37:12Z</time>
      </trkpt>
      <trkpt lat="47.8307" lon="6.67093">
        <ele>639.54495183676</ele>
        <time>2021-08-21T11:37:14Z</time>
      </trkpt>
      <trkpt lat="47.83055" lon="6.67078">
        <ele>636.89470737836</ele>
        <time>2021-08-21T11:37:16Z</time>
      </trkpt>
      <trkpt lat="47.83044" lon="6.6706">
        <ele>633.49118939129</ele>
        <time>2021-08-21T11:37:18Z</time>
      </trkpt>
      <trkpt lat="47.83032" lon="6.67045">
        <ele>630.63875338743</ele>
        <time>2021-08-21T11:37:20Z</time>
      </trkpt>
      <trkpt lat="47.83019" lon="6.67035">
        <ele>628.24493136461</ele>
        <time>2021-08-21T11:37:22Z</time>
      </trkpt>
      <trkpt lat="47.83006" lon="6.67025">
        <ele>626.44898810538</ele>
        <time>2021-08-21T11:37:24Z</time>
      </trkpt>
      <trkpt lat="47.8299" lon="6.67021">
        <ele>624.6767100622</ele>
        <time>2021-08-21T11:37:26Z</time>
      </trkpt>
      <trkpt lat="47.82973" lon="6.67016">
        <ele>622.96863463929</ele>
        <time>2021-08-21T11:37:28Z</time>
      </trkpt>
      <trkpt lat="47.82959" lon="6.67006">
        <ele>620.80588491655</ele>
        <time>2021-08-21T11:37:30Z</time>
      </trkpt>
      <trkpt lat="47.82943" lon="6.66995">
        <ele>618.94297851579</ele>
        <time>2021-08-21T11:37:32Z</time>
      </trkpt>
      <trkpt lat="47.82926" lon="6.66993">
        <ele>617.91970285906</ele>
        <time>2021-08-21T11:37:34Z</time>
      </trkpt>
      <trkpt lat="47.82912" lon="6.67">
        <ele>616.93872565173</ele>
        <time>2021-08-21T11:37:36Z</time>
      </trkpt>
      <trkpt lat="47.82898" lon="6.67006">
        <ele>615.69137918492</ele>
        <time>2021-08-21T11:37:38Z</time>
      </trkpt>
      <trkpt lat="47.82886" lon="6.67016">
        <ele>613.72613602919</ele>
        <time>2021-08-21T11:37:40Z</time>
      </trkpt>
      <trkpt lat="47.82875" lon="6.67027">
        <ele>611.53608350988</ele>
        <time>2021-08-21T11:37:42Z</time>
      </trkpt>
      <trkpt lat="47.82864" lon="6.67038">
        <ele>608.70945079928</ele>
        <time>2021-08-21T11:37:44Z</time>
      </trkpt>
      <trkpt lat="47.82854" lon="6.67053">
        <ele>605.51541201426</ele>
        <time>2021-08-21T11:37:46Z</time>
      </trkpt>
      <trkpt lat="47.82846" lon="6.67069">
        <ele>602.28301100475</ele>
        <time>2021-08-21T11:37:48Z</time>
      </trkpt>
      <trkpt lat="47.82839" lon="6.6709">
        <ele>599.3918750353</ele>
        <time>2021-08-21T11:37:50Z</time>
      </trkpt>
      <trkpt lat="47.82831" lon="6.67114">
        <ele>597.17441818197</ele>
        <time>2021-08-21T11:37:52Z</time>
      </trkpt>
      <trkpt lat="47.82823" lon="6.67138">
        <ele>595.52758297112</ele>
        <time>2021-08-21T11:37:54Z</time>
      </trkpt>
      <trkpt lat="47.82815" lon="6.67157">
        <ele>594.40691661574</ele>
        <time>2021-08-21T11:37:56Z</time>
      </trkpt>
      <trkpt lat="47.82803" lon="6.67171">
        <ele>593.44748807095</ele>
        <time>2021-08-21T11:37:58Z</time>
      </trkpt>
      <trkpt lat="47.82793" lon="6.67187">
        <ele>593.07059469738</ele>
        <time>2021-08-21T11:38:00Z</time>
      </trkpt>
      <trkpt lat="47.82779" lon="6.67201">
        <ele>592.64293188363</ele>
        <time>2021-08-21T11:38:02Z</time>
      </trkpt>
      <trkpt lat="47.82765" lon="6.67211">
        <ele>592.06272808465</ele>
        <time>2021-08-21T11:38:04Z</time>
      </trkpt>
      <trkpt lat="47.82752" lon="6.6722">
        <ele>591.52951050873</ele>
        <time>2021-08-21T11:38:06Z</time>
      </trkpt>
      <trkpt lat="47.82738" lon="6.67228">
        <ele>590.88594670245</ele>
        <time>2021-08-21T11:38:08Z</time>
      </trkpt>
      <trkpt lat="47.82725" lon="6.67239">
        <ele>590.13762427835</ele>
        <time>2021-08-21T11:38:10Z</time>
      </trkpt>
      <trkpt lat="47.82711" lon="6.67248">
        <ele>589.5131889628</ele>
        <time>2021-08-21T11:38:12Z</time>
      </trkpt>
      <trkpt lat="47.82698" lon="6.67257">
        <ele>588.74424010614</ele>
        <time>2021-08-21T11:38:14Z</time>
      </trkpt>
      <trkpt lat="47.82683" lon="6.67262">
        <ele>587.88031866635</ele>
        <time>2021-08-21T11:38:16Z</time>
      </trkpt>
      <trkpt lat="47.82668" lon="6.6727">
        <ele>586.58510500074</ele>
        <time>2021-08-21T11:38:18Z</time>
      </trkpt>
      <trkpt lat="47.82653" lon="6.6728">
        <ele>585.20502943326</ele>
        <time>2021-08-21T11:38:20Z</time>
      </trkpt>
      <trkpt lat="47.82639" lon="6.67287">
        <ele>583.91052209175</ele>
        <time>2021-08-21T11:38:22Z</time>
      </trkpt>
      <trkpt lat="47.82626" lon="6.67296">
        <ele>582.48687675883</ele>
        <time>2021-08-21T11:38:24Z</time>
      </trkpt>
      <trkpt lat="47.82614" lon="6.67305">
        <ele>580.71046506953</ele>
        <time>2021-08-21T11:38:26Z</time>
      </trkpt>
      <trkpt lat="47.82606" lon="6.67321">
        <ele>578.54880913381</ele>
        <time>2021-08-21T11:38:28Z</time>
      </trkpt>
      <trkpt lat="47.82603" lon="6.67339">
        <ele>576.2222843031</ele>
        <time>2021-08-21T11:38:30Z</time>
      </trkpt>
      <trkpt lat="47.82605" lon="6.67361">
        <ele>573.70785023734</ele>
        <time>2021-08-21T11:38:32Z</time>
      </trkpt>
      <trkpt lat="47.82615" lon="6.67382">
        <ele>571.31944894678</ele>
        <time>2021-08-21T11:38:34Z</time>
      </trkpt>
      <trkpt lat="47.82624" lon="6.67405">
        <ele>569.04950929722</ele>
        <time>2021-08-21T11:38:36Z</time>
      </trkpt>
      <trkpt lat="47.82632" lon="6.67431">
        <ele>566.99180954654</ele>
        <time>2021-08-21T11:38:38Z</time>
      </trkpt>
      <trkpt lat="47.82637" lon="6.67457">
        <ele>564.80886216642</ele>
        <time>2021-08-21T11:38:40Z</time>
      </trkpt>
      <trkpt lat="47.82639" lon="6.67483">
        <ele>562.85506346158</ele>
        <time>2021-08-21T11:38:42Z</time>
      </trkpt>
      <trkpt lat="47.82643" lon="6.6751">
        <ele>560.51799116918</ele>
        <time>2021-08-21T11:38:44Z</time>
      </trkpt>
      <trkpt lat="47.82645" lon="6.67537">
        <ele>558.34201506056</ele>
        <time>2021-08-21T11:38:46Z</time>
      </trkpt>
      <trkpt lat="47.82645" lon="6.67562">
        <ele>556.7428144614</ele>
        <time>2021-08-21T11:38:48Z</time>
      </trkpt>
      <trkpt lat="47.82644" lon="6.67584">
        <ele>555.26934722748</ele>
        <time>2021-08-21T11:38:50Z</time>
      </trkpt>
      <trkpt lat="47.82645" lon="6.676">
        <ele>553.64936286294</ele>
        <time>2021-08-21T11:38:52Z</time>
      </trkpt>
      <trkpt lat="47.82646" lon="6.67615">
        <ele>552.16585221861</ele>
        <time>2021-08-21T11:38:54Z</time>
      </trkpt>
      <trkpt lat="47.82648" lon="6.67631">
        <ele>550.89347059503</ele>
        <time>2021-08-21T11:38:56Z</time>
      </trkpt>
      <trkpt lat="47.82651" lon="6.67648">
        <ele>549.79335725706</ele>
        <time>2021-08-21T11:38:58Z</time>
      </trkpt>
      <trkpt lat="47.82656" lon="6.67667">
        <ele>548.52365900726</ele>
        <time>2021-08-21T11:39:00Z</time>
      </trkpt>
      <trkpt lat="47.82658" lon="6.67686">
        <ele>547.01511056518</ele>
        <time>2021-08-21T11:39:02Z</time>
      </trkpt>
      <trkpt lat="47.82657" lon="6.67707">
        <ele>545.12514232597</ele>
        <time>2021-08-21T11:39:04Z</time>
      </trkpt>
      <trkpt lat="47.82652" lon="6.6773">
        <ele>543.58647013655</ele>
        <time>2021-08-21T11:39:06Z</time>
      </trkpt>
      <trkpt lat="47.82647" lon="6.67752">
        <ele>542.4663226175</ele>
        <time>2021-08-21T11:39:08Z</time>
      </trkpt>
      <trkpt lat="47.82636" lon="6.67767">
        <ele>541.60402871715</ele>
        <time>2021-08-21T11:39:10Z</time>
      </trkpt>
      <trkpt lat="47.82626" lon="6.67778">
        <ele>540.21780481254</ele>
        <time>2021-08-21T11:39:12Z</time>
      </trkpt>
      <trkpt lat="47.82611" lon="6.67784">
        <ele>538.92419782106</ele>
        <time>2021-08-21T11:39:14Z</time>
      </trkpt>
      <trkpt lat="47.82594" lon="6.67785">
        <ele>537.74560347984</ele>
        <time>2021-08-21T11:39:16Z</time>
      </trkpt>
      <trkpt lat="47.82579" lon="6.67788">
        <ele>536.8690809251</ele>
        <time>2021-08-21T11:39:18Z</time>
      </trkpt>
      <trkpt lat="47.82566" lon="6.678">
        <ele>536.0899556727</ele>
        <time>2021-08-21T11:39:20Z</time>
      </trkpt>
      <trkpt lat="47.82558" lon="6.67818">
        <ele>534.87928582041</ele>
        <time>2021-08-21T11:39:22Z</time>
      </trkpt>
      <trkpt lat="47.82552" lon="6.67838">
        <ele>533.32963673328</ele>
        <time>2021-08-21T11:39:24Z</time>
      </trkpt>
      <trkpt lat="47.82548" lon="6.67859">
        <ele>531.98914475994</ele>
        <time>2021-08-21T11:39:26Z</time>
      </trkpt>
      <trkpt lat="47.82545" lon="6.67881">
        <ele>530.77312825325</ele>
        <time>2021-08-21T11:39:28Z</time>
      </trkpt>
      <trkpt lat="47.82544" lon="6.67904">
        <ele>529.84270344217</ele>
        <time>2021-08-21T11:39:30Z</time>
      </trkpt>
      <trkpt lat="47.82541" lon="6.67925">
        <ele>529.22250220985</ele>
        <time>2021-08-21T11:39:32Z</time>
      </trkpt>
      <trkpt lat="47.82538" lon="6.67945">
        <ele>528.72861933274</ele>
        <time>2021-08-21T11:39:34Z</time>
      </trkpt>
      <trkpt lat="47.82536" lon="6.67964">
        <ele>528.27016057155</ele>
        <time>2021-08-21T11:39:36Z</time>
      </trkpt>
      <trkpt lat="47.82534" lon="6.67981">
        <ele>527.91872337802</ele>
        <time>2021-08-21T11:39:38Z</time>
      </trkpt>
      <trkpt lat="47.82531" lon="6.67997">
        <ele>527.58769861431</ele>
        <time>2021-08-21T11:39:40Z</time>
      </trkpt>
      <trkpt lat="47.8253" lon="6.68011">
        <ele>527.15439762178</ele>
        <time>2021-08-21T11:39:42Z</time>
      </trkpt>
      <trkpt lat="47.82527" lon="6.68022">
        <ele>526.54212573925</ele>
        <time>2021-08-21T11:39:44Z</time>
      </trkpt>
      <trkpt lat="47.82523" lon="6.68031">
        <ele>525.94451064883</ele>
        <time>2021-08-21T11:39:46Z</time>
      </trkpt>
      <trkpt lat="47.82519" lon="6.68038">
        <ele>525.81904434423</ele>
        <time>2021-08-21T11:39:48Z</time>
      </trkpt>
      <trkpt lat="47.82514" lon="6.68043">
        <ele>525.6570408345</ele>
        <time>2021-08-21T11:39:50Z</time>
      </trkpt>
      <trkpt lat="47.8251" lon="6.68046">
        <ele>525.46427499218</ele>
        <time>2021-08-21T11:39:52Z</time>
      </trkpt>
      <trkpt lat="47.82504" lon="6.68053">
        <ele>525.21820331544</ele>
        <time>2021-08-21T11:39:54Z</time>
      </trkpt>
      <trkpt lat="47.82498" lon="6.68059">
        <ele>524.94995933036</ele>
        <time>2021-08-21T11:39:56Z</time>
      </trkpt>
      <trkpt lat="47.82493" lon="6.68063">
        <ele>524.66857216894</ele>
        <time>2021-08-21T11:39:58Z</time>
      </trkpt>
      <trkpt lat="47.82489" lon="6.68067">
        <ele>524.3661629619</ele>
        <time>2021-08-21T11:40:00Z</time>
      </trkpt>
      <trkpt lat="47.82484" lon="6.6807">
        <ele>524.06462671733</ele>
        <time>2021-08-21T11:40:02Z</time>
      </trkpt>
      <trkpt lat="47.8248" lon="6.68072">
        <ele>523.77699264219</ele>
        <time>2021-08-21T11:40:04Z</time>
      </trkpt>
      <trkpt lat="47.82475" lon="6.68075">
        <ele>523.53877439657</ele>
        <time>2021-08-21T11:40:06Z</time>
      </trkpt>
      <trkpt lat="47.8247" lon="6.68077">
        <ele>523.31807501071</ele>
        <time>2021-08-21T11:40:08Z</time>
      </trkpt>
      <trkpt lat="47.82466" lon="6.6808">
        <ele>523.1483323635</ele>
        <time>2021-08-21T11:40:10Z</time>
      </trkpt>
      <trkpt lat="47.82461" lon="6.68082">
        <ele>522.9934588238</ele>
        <time>2021-08-21T11:40:12Z</time>
      </trkpt>
      <trkpt lat="47.82457" lon="6.68086">
        <ele>522.84388996057</ele>
        <time>2021-08-21T11:40:14Z</time>
      </trkpt>
      <trkpt lat="47.82452" lon="6.68089">
        <ele>522.6931042738</ele>
        <time>2021-08-21T11:40:16Z</time>
      </trkpt>
      <trkpt lat="47.82448" lon="6.68092">
        <ele>522.53859743269</ele>
        <time>2021-08-21T11:40:18Z</time>
      </trkpt>
      <trkpt lat="47.82445" lon="6.68094">
        <ele>522.36400662815</ele>
        <time>2021-08-21T11:40:20Z</time>
      </trkpt>
      <trkpt lat="47.82441" lon="6.68096">
        <ele>522.19130935924</ele>
        <time>2021-08-21T11:40:22Z</time>
      </trkpt>
      <trkpt lat="47.82437" lon="6.68096">
        <ele>522.02076109444</ele>
        <time>2021-08-21T11:40:24Z</time>
      </trkpt>
      <trkpt lat="47.82432" lon="6.68096">
        <ele>521.85316795811</ele>
        <time>2021-08-21T11:40:26Z</time>
      </trkpt>
      <trkpt lat="47.82428" lon="6.68095">
        <ele>521.69141656881</ele>
        <time>2021-08-21T11:40:28Z</time>
      </trkpt>
      <trkpt lat="47.82422" lon="6.68093">
        <ele>521.5355781778</ele>
        <time>2021-08-21T11:40:30Z</time>
      </trkpt>
      <trkpt lat="47.82418" lon="6.68092">
        <ele>521.39156304289</ele>
        <time>2021-08-21T11:40:32Z</time>
      </trkpt>
      <trkpt lat="47.82414" lon="6.68091">
        <ele>521.2492588637</ele>
        <time>2021-08-21T11:40:34Z</time>
      </trkpt>
      <trkpt lat="47.8241" lon="6.68089">
        <ele>521.10787375581</ele>
        <time>2021-08-21T11:40:36Z</time>
      </trkpt>
      <trkpt lat="47.82407" lon="6.68087">
        <ele>520.97023661695</ele>
        <time>2021-08-21T11:40:38Z</time>
      </trkpt>
      <trkpt lat="47.82402" lon="6.68086">
        <ele>520.83551773526</ele>
        <time>2021-08-21T11:40:40Z</time>
      </trkpt>
      <trkpt lat="47.82398" lon="6.68084">
        <ele>520.70146304435</ele>
        <time>2021-08-21T11:40:42Z</time>
      </trkpt>
      <trkpt lat="47.82394" lon="6.68082">
        <ele>520.57184332433</ele>
        <time>2021-08-21T11:40:44Z</time>
      </trkpt>
      <trkpt lat="47.82389" lon="6.68079">
        <ele>520.4463583314</ele>
        <time>2021-08-21T11:40:46Z</time>
      </trkpt>
      <trkpt lat="47.82384" lon="6.68076">
        <ele>520.32469074104</ele>
        <time>2021-08-21T11:40:48Z</time>
      </trkpt>
      <trkpt lat="47.82378" lon="6.68071">
        <ele>520.20722117296</ele>
        <time>2021-08-21T11:40:50Z</time>
      </trkpt>
      <trkpt lat="47.82373" lon="6.68066">
        <ele>520.09730524575</ele>
        <time>2021-08-21T11:40:52Z</time>
      </trkpt>
      <trkpt lat="47.82368" lon="6.6806">
        <ele>519.99461440191</ele>
        <time>2021-08-21T11:40:54Z</time>
      </trkpt>
      <trkpt lat="47.82363" lon="6.68055">
        <ele>519.8990549069</ele>
        <time>2021-08-21T11:40:56Z</time>
      </trkpt>
      <trkpt lat="47.82357" lon="6.68051">
        <ele>519.80767988131</ele>
        <time>2021-08-21T11:40:58Z</time>
      </trkpt>
      <trkpt lat="47.82352" lon="6.68048">
        <ele>519.71981976444</ele>
        <time>2021-08-21T11:41:00Z</time>
      </trkpt>
      <trkpt lat="47.82347" lon="6.68044">
        <ele>519.6374589017</ele>
        <time>2021-08-21T11:41:02Z</time>
      </trkpt>
      <trkpt lat="47.82341" lon="6.68041">
        <ele>519.21826941768</ele>
        <time>2021-08-21T11:41:04Z</time>
      </trkpt>
      <trkpt lat="47.82333" lon="6.68037">
        <ele>518.67362477644</ele>
        <time>2021-08-21T11:41:06Z</time>
      </trkpt>
      <trkpt lat="47.82324" lon="6.68034">
        <ele>518.29916053873</ele>
        <time>2021-08-21T11:41:08Z</time>
      </trkpt>
      <trkpt lat="47.8231" lon="6.68032">
        <ele>518.04539820898</ele>
        <time>2021-08-21T11:41:10Z</time>
      </trkpt>
      <trkpt lat="47.82294" lon="6.68033">
        <ele>517.90078731905</ele>
        <time>2021-08-21T11:41:12Z</time>
      </trkpt>
      <trkpt lat="47.82276" lon="6.68037">
        <ele>517.76719032558</ele>
        <time>2021-08-21T11:41:14Z</time>
      </trkpt>
      <trkpt lat="47.82258" lon="6.68042">
        <ele>517.64946510492</ele>
        <time>2021-08-21T11:41:16Z</time>
      </trkpt>
      <trkpt lat="47.82239" lon="6.68039">
        <ele>517.54132232073</ele>
        <time>2021-08-21T11:41:18Z</time>
      </trkpt>
      <trkpt lat="47.82221" lon="6.68028">
        <ele>517.43525560785</ele>
        <time>2021-08-21T11:41:20Z</time>
      </trkpt>
      <trkpt lat="47.82203" lon="6.6802">
        <ele>517.21253552677</ele>
        <time>2021-08-21T11:41:22Z</time>
      </trkpt>
      <trkpt lat="47.82182" lon="6.68013">
        <ele>516.76245852086</ele>
        <time>2021-08-21T11:41:24Z</time>
      </trkpt>
      <trkpt lat="47.82162" lon="6.68003">
        <ele>516.08094749702</ele>
        <time>2021-08-21T11:41:26Z</time>
      </trkpt>
      <trkpt lat="47.82143" lon="6.67988">
        <ele>515.23506197015</ele>
        <time>2021-08-21T11:41:28Z</time>
      </trkpt>
      <trkpt lat="47.82124" lon="6.67976">
        <ele>514.19580347116</ele>
        <time>2021-08-21T11:41:30Z</time>
      </trkpt>
      <trkpt lat="47.82102" lon="6.67972">
        <ele>513.58778053857</ele>
        <time>2021-08-21T11:41:32Z</time>
      </trkpt>
      <trkpt lat="47.8208" lon="6.67979">
        <ele>512.96549554579</ele>
        <time>2021-08-21T11:41:34Z</time>
      </trkpt>
      <trkpt lat="47.82061" lon="6.67983">
        <ele>511.9676241563</ele>
        <time>2021-08-21T11:41:36Z</time>
      </trkpt>
      <trkpt lat="47.82043" lon="6.67992">
        <ele>510.87256622683</ele>
        <time>2021-08-21T11:41:38Z</time>
      </trkpt>
      <trkpt lat="47.82027" lon="6.68007">
        <ele>510.30215920927</ele>
        <time>2021-08-21T11:41:40Z</time>
      </trkpt>
      <trkpt lat="47.82013" lon="6.68026">
        <ele>509.86871650862</ele>
        <time>2021-08-21T11:41:42Z</time>
      </trkpt>
      <trkpt lat="47.81999" lon="6.68047">
        <ele>509.4435263294</ele>
        <time>2021-08-21T11:41:44Z</time>
      </trkpt>
      <trkpt lat="47.81986" lon="6.68069">
        <ele>509.10176455048</ele>
        <time>2021-08-21T11:41:46Z</time>
      </trkpt>
      <trkpt lat="47.81975" lon="6.68092">
        <ele>508.65419904661</ele>
        <time>2021-08-21T11:41:48Z</time>
      </trkpt>
      <trkpt lat="47.81965" lon="6.68116">
        <ele>508.27515513079</ele>
        <time>2021-08-21T11:41:50Z</time>
      </trkpt>
      <trkpt lat="47.81959" lon="6.68139">
        <ele>507.91284520246</ele>
        <time>2021-08-21T11:41:52Z</time>
      </trkpt>
      <trkpt lat="47.81957" lon="6.68162">
        <ele>507.57491231607</ele>
        <time>2021-08-21T11:41:54Z</time>
      </trkpt>
      <trkpt lat="47.81956" lon="6.68183">
        <ele>507.42169533823</ele>
        <time>2021-08-21T11:41:56Z</time>
      </trkpt>
      <trkpt lat="47.81956" lon="6.68202">
        <ele>507.22781750003</ele>
        <time>2021-08-21T11:41:58Z</time>
      </trkpt>
      <trkpt lat="47.81957" lon="6.68218">
        <ele>506.91459314148</ele>
        <time>2021-08-21T11:42:00Z</time>
      </trkpt>
      <trkpt lat="47.81957" lon="6.68232">
        <ele>506.57260009528</ele>
        <time>2021-08-21T11:42:02Z</time>
      </trkpt>
      <trkpt lat="47.81959" lon="6.68245">
        <ele>506.06957863765</ele>
        <time>2021-08-21T11:42:04Z</time>
      </trkpt>
      <trkpt lat="47.8196" lon="6.68257">
        <ele>505.43582119265</ele>
        <time>2021-08-21T11:42:06Z</time>
      </trkpt>
      <trkpt lat="47.81962" lon="6.68269">
        <ele>504.91446792662</ele>
        <time>2021-08-21T11:42:08Z</time>
      </trkpt>
      <trkpt lat="47.81962" lon="6.68281">
        <ele>504.46097679986</ele>
        <time>2021-08-21T11:42:10Z</time>
      </trkpt>
      <trkpt lat="47.81963" lon="6.68292">
        <ele>503.95788445568</ele>
        <time>2021-08-21T11:42:12Z</time>
      </trkpt>
      <trkpt lat="47.81964" lon="6.68304">
        <ele>503.48776067508</ele>
        <time>2021-08-21T11:42:14Z</time>
      </trkpt>
      <trkpt lat="47.81966" lon="6.68315">
        <ele>503.08335604418</ele>
        <time>2021-08-21T11:42:16Z</time>
      </trkpt>
      <trkpt lat="47.81968" lon="6.68327">
        <ele>502.70848367864</ele>
        <time>2021-08-21T11:42:18Z</time>
      </trkpt>
      <trkpt lat="47.81971" lon="6.68339">
        <ele>502.48344674867</ele>
        <time>2021-08-21T11:42:20Z</time>
      </trkpt>
      <trkpt lat="47.81974" lon="6.68351">
        <ele>502.16787285586</ele>
        <time>2021-08-21T11:42:22Z</time>
      </trkpt>
      <trkpt lat="47.81977" lon="6.68363">
        <ele>501.82555243212</ele>
        <time>2021-08-21T11:42:24Z</time>
      </trkpt>
      <trkpt lat="47.8198" lon="6.68375">
        <ele>501.61938564932</ele>
        <time>2021-08-21T11:42:26Z</time>
      </trkpt>
      <trkpt lat="47.81983" lon="6.68387">
        <ele>501.54342645851</ele>
        <time>2021-08-21T11:42:28Z</time>
      </trkpt>
      <trkpt lat="47.81986" lon="6.68399">
        <ele>501.56093234892</ele>
        <time>2021-08-21T11:42:30Z</time>
      </trkpt>
      <trkpt lat="47.81988" lon="6.6841">
        <ele>501.5907260011</ele>
        <time>2021-08-21T11:42:32Z</time>
      </trkpt>
      <trkpt lat="47.8199" lon="6.68423">
        <ele>501.61927961864</ele>
        <time>2021-08-21T11:42:34Z</time>
      </trkpt>
      <trkpt lat="47.81991" lon="6.68439">
        <ele>501.66508663108</ele>
        <time>2021-08-21T11:42:36Z</time>
      </trkpt>
      <trkpt lat="47.81992" lon="6.68457">
        <ele>501.66899200127</ele>
        <time>2021-08-21T11:42:38Z</time>
      </trkpt>
      <trkpt lat="47.81995" lon="6.68477">
        <ele>501.59049163284</ele>
        <time>2021-08-21T11:42:40Z</time>
      </trkpt>
      <trkpt lat="47.81998" lon="6.68496">
        <ele>501.43243142896</ele>
        <time>2021-08-21T11:42:42Z</time>
      </trkpt>
      <trkpt lat="47.82001" lon="6.68514">
        <ele>501.1894142337</ele>
        <time>2021-08-21T11:42:44Z</time>
      </trkpt>
      <trkpt lat="47.82004" lon="6.68529">
        <ele>500.88740916918</ele>
        <time>2021-08-21T11:42:46Z</time>
      </trkpt>
      <trkpt lat="47.81999" lon="6.68542">
        <ele>500.56361582166</ele>
        <time>2021-08-21T11:42:48Z</time>
      </trkpt>
      <trkpt lat="47.81986" lon="6.68547">
        <ele>500.21768639327</ele>
        <time>2021-08-21T11:42:50Z</time>
      </trkpt>
      <trkpt lat="47.81974" lon="6.68534">
        <ele>499.72132771279</ele>
        <time>2021-08-21T11:42:52Z</time>
      </trkpt>
      <trkpt lat="47.81963" lon="6.68522">
        <ele>499.13153408152</ele>
        <time>2021-08-21T11:42:54Z</time>
      </trkpt>
      <trkpt lat="47.81949" lon="6.68517">
        <ele>498.59274130895</ele>
        <time>2021-08-21T11:42:56Z</time>
      </trkpt>
      <trkpt lat="47.81937" lon="6.68519">
        <ele>497.77330929756</ele>
        <time>2021-08-21T11:42:58Z</time>
      </trkpt>
      <trkpt lat="47.81924" lon="6.6852">
        <ele>497.09939856939</ele>
        <time>2021-08-21T11:43:00Z</time>
      </trkpt>
      <trkpt lat="47.81912" lon="6.68521">
        <ele>496.55735918702</ele>
        <time>2021-08-21T11:43:02Z</time>
      </trkpt>
      <trkpt lat="47.819" lon="6.68524">
        <ele>496.15913349231</ele>
        <time>2021-08-21T11:43:04Z</time>
      </trkpt>
      <trkpt lat="47.8189" lon="6.68529">
        <ele>495.84374757105</ele>
        <time>2021-08-21T11:43:06Z</time>
      </trkpt>
      <trkpt lat="47.81881" lon="6.68531">
        <ele>495.36255392755</ele>
        <time>2021-08-21T11:43:08Z</time>
      </trkpt>
      <trkpt lat="47.81875" lon="6.68531">
        <ele>495.23884900307</ele>
        <time>2021-08-21T11:43:10Z</time>
      </trkpt>
      <trkpt lat="47.81871" lon="6.68533">
        <ele>495.06287076891</ele>
        <time>2021-08-21T11:43:12Z</time>
      </trkpt>
      <trkpt lat="47.81866" lon="6.68537">
        <ele>494.86238614416</ele>
        <time>2021-08-21T11:43:14Z</time>
      </trkpt>
      <trkpt lat="47.81862" lon="6.68538">
        <ele>494.65393957627</ele>
        <time>2021-08-21T11:43:16Z</time>
      </trkpt>
      <trkpt lat="47.8186" lon="6.68538">
        <ele>494.41737671097</ele>
        <time>2021-08-21T11:43:18Z</time>
      </trkpt>
      <trkpt lat="47.8186" lon="6.68538">
        <ele>494.39977735228</ele>
        <time>2021-08-21T11:43:20Z</time>
      </trkpt>
      <trkpt lat="47.8186" lon="6.68538">
        <ele>494.38135987913</ele>
        <time>2021-08-21T11:43:22Z</time>
      </trkpt>
      <trkpt lat="47.81856" lon="6.68539">
        <ele>494.32646603437</ele>
        <time>2021-08-21T11:43:24Z</time>
      </trkpt>
      <trkpt lat="47.81851" lon="6.68536">
        <ele>494.24386357174</ele>
        <time>2021-08-21T11:43:26Z</time>
      </trkpt>
      <trkpt lat="47.81847" lon="6.68532">
        <ele>494.13735486255</ele>
        <time>2021-08-21T11:43:28Z</time>
      </trkpt>
      <trkpt lat="47.81843" lon="6.68525">
        <ele>494.01177596957</ele>
        <time>2021-08-21T11:43:30Z</time>
      </trkpt>
      <trkpt lat="47.81839" lon="6.68518">
        <ele>493.85767753071</ele>
        <time>2021-08-21T11:43:32Z</time>
      </trkpt>
      <trkpt lat="47.81834" lon="6.68512">
        <ele>493.65729528657</ele>
        <time>2021-08-21T11:43:34Z</time>
      </trkpt>
      <trkpt lat="47.81829" lon="6.68503">
        <ele>491.4791843704</ele>
        <time>2021-08-21T11:43:36Z</time>
      </trkpt>
      <trkpt lat="47.81823" lon="6.68494">
        <ele>489.89792199115</ele>
        <time>2021-08-21T11:43:38Z</time>
      </trkpt>
      <trkpt lat="47.81818" lon="6.68484">
        <ele>488.77078190209</ele>
        <time>2021-08-21T11:43:40Z</time>
      </trkpt>
      <trkpt lat="47.81809" lon="6.68473">
        <ele>487.82177855281</ele>
        <time>2021-08-21T11:43:42Z</time>
      </trkpt>
      <trkpt lat="47.81798" lon="6.6846">
        <ele>487.15460411553</ele>
        <time>2021-08-21T11:43:44Z</time>
      </trkpt>
      <trkpt lat="47.81786" lon="6.68454">
        <ele>486.71855013388</ele>
        <time>2021-08-21T11:43:46Z</time>
      </trkpt>
      <trkpt lat="47.81774" lon="6.68449">
        <ele>486.31714774549</ele>
        <time>2021-08-21T11:43:48Z</time>
      </trkpt>
      <trkpt lat="47.81764" lon="6.68444">
        <ele>485.8672793723</ele>
        <time>2021-08-21T11:43:50Z</time>
      </trkpt>
      <trkpt lat="47.81753" lon="6.68439">
        <ele>485.32859776357</ele>
        <time>2021-08-21T11:43:52Z</time>
      </trkpt>
      <trkpt lat="47.81742" lon="6.68435">
        <ele>484.86064245388</ele>
        <time>2021-08-21T11:43:54Z</time>
      </trkpt>
      <trkpt lat="47.81732" lon="6.6843">
        <ele>484.39316415731</ele>
        <time>2021-08-21T11:43:56Z</time>
      </trkpt>
      <trkpt lat="47.81722" lon="6.68425">
        <ele>483.92128086776</ele>
        <time>2021-08-21T11:43:58Z</time>
      </trkpt>
      <trkpt lat="47.8171" lon="6.68418">
        <ele>483.50698261121</ele>
        <time>2021-08-21T11:44:00Z</time>
      </trkpt>
      <trkpt lat="47.817" lon="6.68412">
        <ele>483.11545603917</ele>
        <time>2021-08-21T11:44:02Z</time>
      </trkpt>
      <trkpt lat="47.81688" lon="6.68407">
        <ele>482.80300685723</ele>
        <time>2021-08-21T11:44:04Z</time>
      </trkpt>
      <trkpt lat="47.81676" lon="6.684">
        <ele>482.39944058703</ele>
        <time>2021-08-21T11:44:06Z</time>
      </trkpt>
      <trkpt lat="47.81665" lon="6.6839">
        <ele>481.89086179708</ele>
        <time>2021-08-21T11:44:08Z</time>
      </trkpt>
      <trkpt lat="47.81655" lon="6.6838">
        <ele>481.43823088599</ele>
        <time>2021-08-21T11:44:10Z</time>
      </trkpt>
      <trkpt lat="47.81644" lon="6.68367">
        <ele>481.03717449281</ele>
        <time>2021-08-21T11:44:12Z</time>
      </trkpt>
      <trkpt lat="47.81635" lon="6.68352">
        <ele>480.68293889692</ele>
        <time>2021-08-21T11:44:14Z</time>
      </trkpt>
      <trkpt lat="47.81627" lon="6.68337">
        <ele>480.3572885039</ele>
        <time>2021-08-21T11:44:16Z</time>
      </trkpt>
      <trkpt lat="47.81618" lon="6.68322">
        <ele>480.05830735909</ele>
        <time>2021-08-21T11:44:18Z</time>
      </trkpt>
      <trkpt lat="47.81609" lon="6.68309">
        <ele>479.77847573804</ele>
        <time>2021-08-21T11:44:20Z</time>
      </trkpt>
      <trkpt lat="47.81599" lon="6.68298">
        <ele>479.55146926136</ele>
        <time>2021-08-21T11:44:22Z</time>
      </trkpt>
      <trkpt lat="47.81587" lon="6.68289">
        <ele>479.3395836117</ele>
        <time>2021-08-21T11:44:24Z</time>
      </trkpt>
      <trkpt lat="47.81574" lon="6.68284">
        <ele>479.00497599447</ele>
        <time>2021-08-21T11:44:26Z</time>
      </trkpt>
      <trkpt lat="47.81561" lon="6.68279">
        <ele>478.81597384815</ele>
        <time>2021-08-21T11:44:28Z</time>
      </trkpt>
      <trkpt lat="47.81549" lon="6.68277">
        <ele>478.53451178212</ele>
        <time>2021-08-21T11:44:30Z</time>
      </trkpt>
      <trkpt lat="47.81536" lon="6.68273">
        <ele>478.29034323335</ele>
        <time>2021-08-21T11:44:32Z</time>
      </trkpt>
      <trkpt lat="47.81524" lon="6.68269">
        <ele>478.19445702791</ele>
        <time>2021-08-21T11:44:34Z</time>
      </trkpt>
      <trkpt lat="47.81512" lon="6.68265">
        <ele>478.11393950474</ele>
        <time>2021-08-21T11:44:36Z</time>
      </trkpt>
      <trkpt lat="47.815" lon="6.68261">
        <ele>478.00958763277</ele>
        <time>2021-08-21T11:44:38Z</time>
      </trkpt>
      <trkpt lat="47.81488" lon="6.68257">
        <ele>477.85838309641</ele>
        <time>2021-08-21T11:44:40Z</time>
      </trkpt>
      <trkpt lat="47.81477" lon="6.68251">
        <ele>477.62301349586</ele>
        <time>2021-08-21T11:44:42Z</time>
      </trkpt>
      <trkpt lat="47.81466" lon="6.68243">
        <ele>477.39221371804</ele>
        <time>2021-08-21T11:44:44Z</time>
      </trkpt>
      <trkpt lat="47.81454" lon="6.68234">
        <ele>477.16937297676</ele>
        <time>2021-08-21T11:44:46Z</time>
      </trkpt>
      <trkpt lat="47.81442" lon="6.68225">
        <ele>476.89068474305</ele>
        <time>2021-08-21T11:44:48Z</time>
      </trkpt>
      <trkpt lat="47.81431" lon="6.68216">
        <ele>476.64006053285</ele>
        <time>2021-08-21T11:44:50Z</time>
      </trkpt>
      <trkpt lat="47.81419" lon="6.68208">
        <ele>476.50135367918</ele>
        <time>2021-08-21T11:44:52Z</time>
      </trkpt>
      <trkpt lat="47.81407" lon="6.682">
        <ele>476.27618991267</ele>
        <time>2021-08-21T11:44:54Z</time>
      </trkpt>
      <trkpt lat="47.81395" lon="6.68192">
        <ele>475.97727898576</ele>
        <time>2021-08-21T11:44:56Z</time>
      </trkpt>
      <trkpt lat="47.81383" lon="6.68182">
        <ele>475.67476285577</ele>
        <time>2021-08-21T11:44:58Z</time>
      </trkpt>
      <trkpt lat="47.81371" lon="6.68172">
        <ele>475.38367880091</ele>
        <time>2021-08-21T11:45:00Z</time>
      </trkpt>
      <trkpt lat="47.8136" lon="6.6816">
        <ele>475.1977845376</ele>
        <time>2021-08-21T11:45:02Z</time>
      </trkpt>
      <trkpt lat="47.81349" lon="6.68149">
        <ele>475.04399364664</ele>
        <time>2021-08-21T11:45:04Z</time>
      </trkpt>
      <trkpt lat="47.81337" lon="6.6814">
        <ele>474.85713919502</ele>
        <time>2021-08-21T11:45:06Z</time>
      </trkpt>
      <trkpt lat="47.81326" lon="6.68129">
        <ele>474.65136743982</ele>
        <time>2021-08-21T11:45:08Z</time>
      </trkpt>
      <trkpt lat="47.81315" lon="6.68118">
        <ele>474.30173899194</ele>
        <time>2021-08-21T11:45:10Z</time>
      </trkpt>
      <trkpt lat="47.81304" lon="6.68109">
        <ele>474.05219815154</ele>
        <time>2021-08-21T11:45:12Z</time>
      </trkpt>
      <trkpt lat="47.81292" lon="6.681">
        <ele>473.85649729962</ele>
        <time>2021-08-21T11:45:14Z</time>
      </trkpt>
      <trkpt lat="47.8128" lon="6.68093">
        <ele>473.62345536312</ele>
        <time>2021-08-21T11:45:16Z</time>
      </trkpt>
      <trkpt lat="47.81267" lon="6.68087">
        <ele>473.40882095156</ele>
        <time>2021-08-21T11:45:18Z</time>
      </trkpt>
      <trkpt lat="47.81252" lon="6.68083">
        <ele>473.30399186559</ele>
        <time>2021-08-21T11:45:20Z</time>
      </trkpt>
      <trkpt lat="47.81238" lon="6.68082">
        <ele>473.2023042222</ele>
        <time>2021-08-21T11:45:22Z</time>
      </trkpt>
      <trkpt lat="47.81223" lon="6.68081">
        <ele>473.04752160416</ele>
        <time>2021-08-21T11:45:24Z</time>
      </trkpt>
      <trkpt lat="47.81209" lon="6.68081">
        <ele>472.92184558329</ele>
        <time>2021-08-21T11:45:26Z</time>
      </trkpt>
      <trkpt lat="47.81194" lon="6.68081">
        <ele>472.74882741686</ele>
        <time>2021-08-21T11:45:28Z</time>
      </trkpt>
      <trkpt lat="47.8118" lon="6.68081">
        <ele>472.68217455364</ele>
        <time>2021-08-21T11:45:30Z</time>
      </trkpt>
      <trkpt lat="47.81166" lon="6.6808">
        <ele>472.51820362346</ele>
        <time>2021-08-21T11:45:32Z</time>
      </trkpt>
      <trkpt lat="47.81151" lon="6.68079">
        <ele>472.39520843371</ele>
        <time>2021-08-21T11:45:34Z</time>
      </trkpt>
      <trkpt lat="47.81136" lon="6.68079">
        <ele>472.15258947552</ele>
        <time>2021-08-21T11:45:36Z</time>
      </trkpt>
      <trkpt lat="47.81121" lon="6.6808">
        <ele>471.92239484529</ele>
        <time>2021-08-21T11:45:38Z</time>
      </trkpt>
      <trkpt lat="47.81107" lon="6.68082">
        <ele>471.70067535806</ele>
        <time>2021-08-21T11:45:40Z</time>
      </trkpt>
      <trkpt lat="47.81093" lon="6.68087">
        <ele>471.4947021884</ele>
        <time>2021-08-21T11:45:42Z</time>
      </trkpt>
      <trkpt lat="47.8108" lon="6.68094">
        <ele>471.24801148395</ele>
        <time>2021-08-21T11:45:44Z</time>
      </trkpt>
      <trkpt lat="47.81067" lon="6.68103">
        <ele>470.95385171295</ele>
        <time>2021-08-21T11:45:46Z</time>
      </trkpt>
      <trkpt lat="47.81055" lon="6.68112">
        <ele>470.67347841985</ele>
        <time>2021-08-21T11:45:48Z</time>
      </trkpt>
      <trkpt lat="47.81042" lon="6.68119">
        <ele>470.45251940286</ele>
        <time>2021-08-21T11:45:50Z</time>
      </trkpt>
      <trkpt lat="47.8103" lon="6.68123">
        <ele>470.18606868641</ele>
        <time>2021-08-21T11:45:52Z</time>
      </trkpt>
      <trkpt lat="47.81017" lon="6.68125">
        <ele>469.96598633583</ele>
        <time>2021-08-21T11:45:54Z</time>
      </trkpt>
      <trkpt lat="47.81005" lon="6.68126">
        <ele>469.88613676589</ele>
        <time>2021-08-21T11:45:56Z</time>
      </trkpt>
      <trkpt lat="47.80992" lon="6.68124">
        <ele>469.90175794547</ele>
        <time>2021-08-21T11:45:58Z</time>
      </trkpt>
      <trkpt lat="47.80981" lon="6.68118">
        <ele>470.07095660123</ele>
        <time>2021-08-21T11:46:00Z</time>
      </trkpt>
      <trkpt lat="47.8097" lon="6.68112">
        <ele>470.09567848902</ele>
        <time>2021-08-21T11:46:02Z</time>
      </trkpt>
      <trkpt lat="47.8096" lon="6.68103">
        <ele>470.12009810822</ele>
        <time>2021-08-21T11:46:04Z</time>
      </trkpt>
      <trkpt lat="47.80951" lon="6.68094">
        <ele>470.13961767583</ele>
        <time>2021-08-21T11:46:06Z</time>
      </trkpt>
      <trkpt lat="47.80943" lon="6.68084">
        <ele>470.19870069575</ele>
        <time>2021-08-21T11:46:08Z</time>
      </trkpt>
      <trkpt lat="47.80935" lon="6.68073">
        <ele>470.20216886026</ele>
        <time>2021-08-21T11:46:10Z</time>
      </trkpt>
      <trkpt lat="47.80927" lon="6.68063">
        <ele>470.04415466367</ele>
        <time>2021-08-21T11:46:12Z</time>
      </trkpt>
      <trkpt lat="47.80919" lon="6.68052">
        <ele>469.82141020129</ele>
        <time>2021-08-21T11:46:14Z</time>
      </trkpt>
      <trkpt lat="47.80909" lon="6.6804">
        <ele>469.67503012941</ele>
        <time>2021-08-21T11:46:16Z</time>
      </trkpt>
      <trkpt lat="47.80898" lon="6.68028">
        <ele>469.59884747333</ele>
        <time>2021-08-21T11:46:18Z</time>
      </trkpt>
      <trkpt lat="47.80886" lon="6.68016">
        <ele>469.44936669891</ele>
        <time>2021-08-21T11:46:20Z</time>
      </trkpt>
      <trkpt lat="47.80874" lon="6.68009">
        <ele>469.09118466221</ele>
        <time>2021-08-21T11:46:22Z</time>
      </trkpt>
      <trkpt lat="47.80859" lon="6.68006">
        <ele>468.69444183932</ele>
        <time>2021-08-21T11:46:24Z</time>
      </trkpt>
      <trkpt lat="47.80843" lon="6.68008">
        <ele>468.28707025606</ele>
        <time>2021-08-21T11:46:26Z</time>
      </trkpt>
      <trkpt lat="47.80826" lon="6.68012">
        <ele>467.83115093702</ele>
        <time>2021-08-21T11:46:28Z</time>
      </trkpt>
      <trkpt lat="47.80808" lon="6.68016">
        <ele>467.55048023262</ele>
        <time>2021-08-21T11:46:30Z</time>
      </trkpt>
      <trkpt lat="47.8079" lon="6.68017">
        <ele>467.30691448248</ele>
        <time>2021-08-21T11:46:32Z</time>
      </trkpt>
      <trkpt lat="47.80771" lon="6.68015">
        <ele>467.02398372074</ele>
        <time>2021-08-21T11:46:34Z</time>
      </trkpt>
      <trkpt lat="47.80753" lon="6.68008">
        <ele>466.78500413377</ele>
        <time>2021-08-21T11:46:36Z</time>
      </trkpt>
      <trkpt lat="47.80735" lon="6.67995">
        <ele>466.4522285229</ele>
        <time>2021-08-21T11:46:38Z</time>
      </trkpt>
      <trkpt lat="47.80719" lon="6.67976">
        <ele>466.21489941843</ele>
        <time>2021-08-21T11:46:40Z</time>
      </trkpt>
      <trkpt lat="47.80707" lon="6.67954">
        <ele>465.85397538505</ele>
        <time>2021-08-21T11:46:42Z</time>
      </trkpt>
      <trkpt lat="47.80696" lon="6.6793">
        <ele>465.44356369947</ele>
        <time>2021-08-21T11:46:44Z</time>
      </trkpt>
      <trkpt lat="47.80685" lon="6.67906">
        <ele>465.02219259913</ele>
        <time>2021-08-21T11:46:46Z</time>
      </trkpt>
      <trkpt lat="47.80675" lon="6.67883">
        <ele>464.64278184329</ele>
        <time>2021-08-21T11:46:48Z</time>
      </trkpt>
      <trkpt lat="47.80664" lon="6.67861">
        <ele>464.27211824489</ele>
        <time>2021-08-21T11:46:50Z</time>
      </trkpt>
      <trkpt lat="47.80653" lon="6.67838">
        <ele>463.92508506078</ele>
        <time>2021-08-21T11:46:52Z</time>
      </trkpt>
      <trkpt lat="47.80643" lon="6.67815">
        <ele>463.41504987621</ele>
        <time>2021-08-21T11:46:54Z</time>
      </trkpt>
      <trkpt lat="47.80631" lon="6.67793">
        <ele>463.00234740242</ele>
        <time>2021-08-21T11:46:56Z</time>
      </trkpt>
      <trkpt lat="47.80618" lon="6.67772">
        <ele>462.63998588486</ele>
        <time>2021-08-21T11:46:58Z</time>
      </trkpt>
      <trkpt lat="47.80604" lon="6.67752">
        <ele>462.44306644097</ele>
        <time>2021-08-21T11:47:00Z</time>
      </trkpt>
      <trkpt lat="47.80588" lon="6.67735">
        <ele>462.18021037199</ele>
        <time>2021-08-21T11:47:02Z</time>
      </trkpt>
      <trkpt lat="47.80573" lon="6.67717">
        <ele>461.96442782156</ele>
        <time>2021-08-21T11:47:04Z</time>
      </trkpt>
      <trkpt lat="47.80558" lon="6.67701">
        <ele>461.68815145936</ele>
        <time>2021-08-21T11:47:06Z</time>
      </trkpt>
      <trkpt lat="47.80546" lon="6.67684">
        <ele>461.30766869128</ele>
        <time>2021-08-21T11:47:08Z</time>
      </trkpt>
      <trkpt lat="47.80536" lon="6.67665">
        <ele>460.87191934525</ele>
        <time>2021-08-21T11:47:10Z</time>
      </trkpt>
      <trkpt lat="47.80528" lon="6.67645">
        <ele>460.36498460525</ele>
        <time>2021-08-21T11:47:12Z</time>
      </trkpt>
      <trkpt lat="47.8052" lon="6.67625">
        <ele>459.96015111478</ele>
        <time>2021-08-21T11:47:14Z</time>
      </trkpt>
      <trkpt lat="47.80513" lon="6.67604">
        <ele>459.61460731905</ele>
        <time>2021-08-21T11:47:16Z</time>
      </trkpt>
      <trkpt lat="47.80505" lon="6.67584">
        <ele>459.48050379935</ele>
        <time>2021-08-21T11:47:18Z</time>
      </trkpt>
      <trkpt lat="47.80499" lon="6.67565">
        <ele>459.39096500752</ele>
        <time>2021-08-21T11:47:20Z</time>
      </trkpt>
      <trkpt lat="47.80491" lon="6.67545">
        <ele>459.71592007556</ele>
        <time>2021-08-21T11:47:22Z</time>
      </trkpt>
      <trkpt lat="47.80483" lon="6.67526">
        <ele>459.9652470108</ele>
        <time>2021-08-21T11:47:24Z</time>
      </trkpt>
      <trkpt lat="47.80476" lon="6.67508">
        <ele>460.10251420448</ele>
        <time>2021-08-21T11:47:26Z</time>
      </trkpt>
      <trkpt lat="47.80469" lon="6.6749">
        <ele>460.15174842561</ele>
        <time>2021-08-21T11:47:28Z</time>
      </trkpt>
      <trkpt lat="47.80461" lon="6.67475">
        <ele>460.083857183</ele>
        <time>2021-08-21T11:47:30Z</time>
      </trkpt>
      <trkpt lat="47.80451" lon="6.67462">
        <ele>460.0210125287</ele>
        <time>2021-08-21T11:47:32Z</time>
      </trkpt>
      <trkpt lat="47.8044" lon="6.67451">
        <ele>459.94166677168</ele>
        <time>2021-08-21T11:47:34Z</time>
      </trkpt>
      <trkpt lat="47.80429" lon="6.67441">
        <ele>459.34444733538</ele>
        <time>2021-08-21T11:47:36Z</time>
      </trkpt>
      <trkpt lat="47.80419" lon="6.67431">
        <ele>458.2894188413</ele>
        <time>2021-08-21T11:47:38Z</time>
      </trkpt>
      <trkpt lat="47.80408" lon="6.6742">
        <ele>457.54332646751</ele>
        <time>2021-08-21T11:47:40Z</time>
      </trkpt>
      <trkpt lat="47.80398" lon="6.67406">
        <ele>457.01156126049</ele>
        <time>2021-08-21T11:47:42Z</time>
      </trkpt>
      <trkpt lat="47.80389" lon="6.6739">
        <ele>456.86255932666</ele>
        <time>2021-08-21T11:47:44Z</time>
      </trkpt>
      <trkpt lat="47.80382" lon="6.67374">
        <ele>457.03052977605</ele>
        <time>2021-08-21T11:47:46Z</time>
      </trkpt>
      <trkpt lat="47.80376" lon="6.67358">
        <ele>457.14602999626</ele>
        <time>2021-08-21T11:47:48Z</time>
      </trkpt>
      <trkpt lat="47.80369" lon="6.67342">
        <ele>457.1408586898</ele>
        <time>2021-08-21T11:47:50Z</time>
      </trkpt>
      <trkpt lat="47.80362" lon="6.67325">
        <ele>457.11834078579</ele>
        <time>2021-08-21T11:47:52Z</time>
      </trkpt>
      <trkpt lat="47.80356" lon="6.67307">
        <ele>457.06903740478</ele>
        <time>2021-08-21T11:47:54Z</time>
      </trkpt>
      <trkpt lat="47.80349" lon="6.67289">
        <ele>456.99399829271</ele>
        <time>2021-08-21T11:47:56Z</time>
      </trkpt>
      <trkpt lat="47.80342" lon="6.67272">
        <ele>456.87567171806</ele>
        <time>2021-08-21T11:47:58Z</time>
      </trkpt>
      <trkpt lat="47.80335" lon="6.67256">
        <ele>456.74435861278</ele>
        <time>2021-08-21T11:48:00Z</time>
      </trkpt>
      <trkpt lat="47.80328" lon="6.67239">
        <ele>456.63450481402</ele>
        <time>2021-08-21T11:48:02Z</time>
      </trkpt>
      <trkpt lat="47.80322" lon="6.67224">
        <ele>456.48508019592</ele>
        <time>2021-08-21T11:48:04Z</time>
      </trkpt>
      <trkpt lat="47.80316" lon="6.67208">
        <ele>456.32202535137</ele>
        <time>2021-08-21T11:48:06Z</time>
      </trkpt>
      <trkpt lat="47.8031" lon="6.67194">
        <ele>456.12103071463</ele>
        <time>2021-08-21T11:48:08Z</time>
      </trkpt>
      <trkpt lat="47.80304" lon="6.6718">
        <ele>456.00617919511</ele>
        <time>2021-08-21T11:48:10Z</time>
      </trkpt>
      <trkpt lat="47.80298" lon="6.67167">
        <ele>455.8883045996</ele>
        <time>2021-08-21T11:48:12Z</time>
      </trkpt>
      <trkpt lat="47.80293" lon="6.67153">
        <ele>455.7750624888</ele>
        <time>2021-08-21T11:48:14Z</time>
      </trkpt>
      <trkpt lat="47.80288" lon="6.67139">
        <ele>455.69987818195</ele>
        <time>2021-08-21T11:48:16Z</time>
      </trkpt>
      <trkpt lat="47.80283" lon="6.67126">
        <ele>455.59080717736</ele>
        <time>2021-08-21T11:48:18Z</time>
      </trkpt>
      <trkpt lat="47.80278" lon="6.67112">
        <ele>455.56772268513</ele>
        <time>2021-08-21T11:48:20Z</time>
      </trkpt>
      <trkpt lat="47.80273" lon="6.67095">
        <ele>455.57451415981</ele>
        <time>2021-08-21T11:48:22Z</time>
      </trkpt>
      <trkpt lat="47.80268" lon="6.67077">
        <ele>455.58621617132</ele>
        <time>2021-08-21T11:48:24Z</time>
      </trkpt>
      <trkpt lat="47.80263" lon="6.67059">
        <ele>455.60400580585</ele>
        <time>2021-08-21T11:48:26Z</time>
      </trkpt>
      <trkpt lat="47.80259" lon="6.67041">
        <ele>455.62460170287</ele>
        <time>2021-08-21T11:48:28Z</time>
      </trkpt>
      <trkpt lat="47.80254" lon="6.67023">
        <ele>455.60696034231</ele>
        <time>2021-08-21T11:48:30Z</time>
      </trkpt>
      <trkpt lat="47.8025" lon="6.67006">
        <ele>455.59486819946</ele>
        <time>2021-08-21T11:48:32Z</time>
      </trkpt>
      <trkpt lat="47.80245" lon="6.6699">
        <ele>455.62487639423</ele>
        <time>2021-08-21T11:48:34Z</time>
      </trkpt>
      <trkpt lat="47.80241" lon="6.66974">
        <ele>455.60209443969</ele>
        <time>2021-08-21T11:48:36Z</time>
      </trkpt>
      <trkpt lat="47.80236" lon="6.66958">
        <ele>455.52623515082</ele>
        <time>2021-08-21T11:48:38Z</time>
      </trkpt>
      <trkpt lat="47.80231" lon="6.66943">
        <ele>455.40066942941</ele>
        <time>2021-08-21T11:48:40Z</time>
      </trkpt>
      <trkpt lat="47.80225" lon="6.66927">
        <ele>455.16207008353</ele>
        <time>2021-08-21T11:48:42Z</time>
      </trkpt>
      <trkpt lat="47.80219" lon="6.66911">
        <ele>454.78932290477</ele>
        <time>2021-08-21T11:48:44Z</time>
      </trkpt>
      <trkpt lat="47.80212" lon="6.66895">
        <ele>454.35407703772</ele>
        <time>2021-08-21T11:48:46Z</time>
      </trkpt>
      <trkpt lat="47.80204" lon="6.66877">
        <ele>453.94895555294</ele>
        <time>2021-08-21T11:48:48Z</time>
      </trkpt>
      <trkpt lat="47.80196" lon="6.66859">
        <ele>453.60580627567</ele>
        <time>2021-08-21T11:48:50Z</time>
      </trkpt>
      <trkpt lat="47.80188" lon="6.6684">
        <ele>453.28001711635</ele>
        <time>2021-08-21T11:48:52Z</time>
      </trkpt>
      <trkpt lat="47.80179" lon="6.66821">
        <ele>452.99936901041</ele>
        <time>2021-08-21T11:48:54Z</time>
      </trkpt>
      <trkpt lat="47.8017" lon="6.66801">
        <ele>452.76527957964</ele>
        <time>2021-08-21T11:48:56Z</time>
      </trkpt>
      <trkpt lat="47.8016" lon="6.66781">
        <ele>452.57251943542</ele>
        <time>2021-08-21T11:48:58Z</time>
      </trkpt>
      <trkpt lat="47.80151" lon="6.6676">
        <ele>452.43862342738</ele>
        <time>2021-08-21T11:49:00Z</time>
      </trkpt>
      <trkpt lat="47.8014" lon="6.66741">
        <ele>452.40527538611</ele>
        <time>2021-08-21T11:49:02Z</time>
      </trkpt>
      <trkpt lat="47.80128" lon="6.66722">
        <ele>452.43851676903</ele>
        <time>2021-08-21T11:49:04Z</time>
      </trkpt>
      <trkpt lat="47.80115" lon="6.66706">
        <ele>452.50587534057</ele>
        <time>2021-08-21T11:49:06Z</time>
      </trkpt>
      <trkpt lat="47.80102" lon="6.66691">
        <ele>452.54276305667</ele>
        <time>2021-08-21T11:49:08Z</time>
      </trkpt>
      <trkpt lat="47.80088" lon="6.66678">
        <ele>452.58547756431</ele>
        <time>2021-08-21T11:49:10Z</time>
      </trkpt>
      <trkpt lat="47.80074" lon="6.66665">
        <ele>452.57095484794</ele>
        <time>2021-08-21T11:49:12Z</time>
      </trkpt>
      <trkpt lat="47.80062" lon="6.66651">
        <ele>452.39572763057</ele>
        <time>2021-08-21T11:49:14Z</time>
      </trkpt>
      <trkpt lat="47.8005" lon="6.66638">
        <ele>452.22541151965</ele>
        <time>2021-08-21T11:49:16Z</time>
      </trkpt>
      <trkpt lat="47.80039" lon="6.66621">
        <ele>452.07102546454</ele>
        <time>2021-08-21T11:49:18Z</time>
      </trkpt>
      <trkpt lat="47.8003" lon="6.66605">
        <ele>452.47336791251</ele>
        <time>2021-08-21T11:49:20Z</time>
      </trkpt>
      <trkpt lat="47.80022" lon="6.66586">
        <ele>452.50453504637</ele>
        <time>2021-08-21T11:49:22Z</time>
      </trkpt>
      <trkpt lat="47.80015" lon="6.66568">
        <ele>452.3125930894</ele>
        <time>2021-08-21T11:49:24Z</time>
      </trkpt>
      <trkpt lat="47.8001" lon="6.66548">
        <ele>452.04341630303</ele>
        <time>2021-08-21T11:49:26Z</time>
      </trkpt>
      <trkpt lat="47.80005" lon="6.66529">
        <ele>451.81586882304</ele>
        <time>2021-08-21T11:49:28Z</time>
      </trkpt>
      <trkpt lat="47.80001" lon="6.66509">
        <ele>451.42364271591</ele>
        <time>2021-08-21T11:49:30Z</time>
      </trkpt>
      <trkpt lat="47.79997" lon="6.6649">
        <ele>451.0910523523</ele>
        <time>2021-08-21T11:49:32Z</time>
      </trkpt>
      <trkpt lat="47.79994" lon="6.6647">
        <ele>450.45109486098</ele>
        <time>2021-08-21T11:49:34Z</time>
      </trkpt>
      <trkpt lat="47.79989" lon="6.6645">
        <ele>449.73697711109</ele>
        <time>2021-08-21T11:49:36Z</time>
      </trkpt>
      <trkpt lat="47.79986" lon="6.66431">
        <ele>448.98493192221</ele>
        <time>2021-08-21T11:49:38Z</time>
      </trkpt>
      <trkpt lat="47.79982" lon="6.66411">
        <ele>448.11634467199</ele>
        <time>2021-08-21T11:49:40Z</time>
      </trkpt>
      <trkpt lat="47.79978" lon="6.66392">
        <ele>447.47757614415</ele>
        <time>2021-08-21T11:49:42Z</time>
      </trkpt>
      <trkpt lat="47.79972" lon="6.66373">
        <ele>446.679802652</ele>
        <time>2021-08-21T11:49:44Z</time>
      </trkpt>
      <trkpt lat="47.79965" lon="6.66353">
        <ele>445.92312700601</ele>
        <time>2021-08-21T11:49:46Z</time>
      </trkpt>
      <trkpt lat="47.79958" lon="6.66332">
        <ele>445.67469159554</ele>
        <time>2021-08-21T11:49:48Z</time>
      </trkpt>
      <trkpt lat="47.7995" lon="6.66312">
        <ele>445.59059323149</ele>
        <time>2021-08-21T11:49:50Z</time>
      </trkpt>
      <trkpt lat="47.79943" lon="6.66291">
        <ele>445.64623800617</ele>
        <time>2021-08-21T11:49:52Z</time>
      </trkpt>
      <trkpt lat="47.79936" lon="6.6627">
        <ele>445.74529368081</ele>
        <time>2021-08-21T11:49:54Z</time>
      </trkpt>
      <trkpt lat="47.79931" lon="6.66248">
        <ele>445.90081783023</ele>
        <time>2021-08-21T11:49:56Z</time>
      </trkpt>
      <trkpt lat="47.79928" lon="6.66224">
        <ele>446.03864434938</ele>
        <time>2021-08-21T11:49:58Z</time>
      </trkpt>
      <trkpt lat="47.79925" lon="6.662">
        <ele>446.17417332766</ele>
        <time>2021-08-21T11:50:00Z</time>
      </trkpt>
      <trkpt lat="47.79922" lon="6.66177">
        <ele>446.02167068385</ele>
        <time>2021-08-21T11:50:02Z</time>
      </trkpt>
      <trkpt lat="47.79919" lon="6.66152">
        <ele>445.7644790866</ele>
        <time>2021-08-21T11:50:04Z</time>
      </trkpt>
      <trkpt lat="47.79916" lon="6.66127">
        <ele>445.69035492561</ele>
        <time>2021-08-21T11:50:06Z</time>
      </trkpt>
      <trkpt lat="47.79915" lon="6.66102">
        <ele>445.52990383113</ele>
        <time>2021-08-21T11:50:08Z</time>
      </trkpt>
      <trkpt lat="47.79917" lon="6.66075">
        <ele>445.2719878444</ele>
        <time>2021-08-21T11:50:10Z</time>
      </trkpt>
      <trkpt lat="47.7992" lon="6.66049">
        <ele>444.9165938396</ele>
        <time>2021-08-21T11:50:12Z</time>
      </trkpt>
      <trkpt lat="47.79923" lon="6.66021">
        <ele>444.53899798658</ele>
        <time>2021-08-21T11:50:14Z</time>
      </trkpt>
      <trkpt lat="47.79926" lon="6.65993">
        <ele>444.44023967427</ele>
        <time>2021-08-21T11:50:16Z</time>
      </trkpt>
      <trkpt lat="47.79929" lon="6.65966">
        <ele>444.30777663103</ele>
        <time>2021-08-21T11:50:18Z</time>
      </trkpt>
      <trkpt lat="47.79931" lon="6.65938">
        <ele>444.23138612171</ele>
        <time>2021-08-21T11:50:20Z</time>
      </trkpt>
      <trkpt lat="47.7993" lon="6.65912">
        <ele>444.01452163828</ele>
        <time>2021-08-21T11:50:22Z</time>
      </trkpt>
      <trkpt lat="47.79928" lon="6.65886">
        <ele>443.80905257448</ele>
        <time>2021-08-21T11:50:24Z</time>
      </trkpt>
      <trkpt lat="47.79924" lon="6.65861">
        <ele>443.51603580404</ele>
        <time>2021-08-21T11:50:26Z</time>
      </trkpt>
      <trkpt lat="47.79917" lon="6.65839">
        <ele>443.20496165967</ele>
        <time>2021-08-21T11:50:28Z</time>
      </trkpt>
      <trkpt lat="47.79909" lon="6.65817">
        <ele>442.83224781066</ele>
        <time>2021-08-21T11:50:30Z</time>
      </trkpt>
      <trkpt lat="47.79899" lon="6.65797">
        <ele>442.47626270513</ele>
        <time>2021-08-21T11:50:32Z</time>
      </trkpt>
      <trkpt lat="47.79888" lon="6.6578">
        <ele>442.12078917361</ele>
        <time>2021-08-21T11:50:34Z</time>
      </trkpt>
      <trkpt lat="47.79876" lon="6.65766">
        <ele>441.92254098248</ele>
        <time>2021-08-21T11:50:36Z</time>
      </trkpt>
      <trkpt lat="47.79864" lon="6.65754">
        <ele>441.55859520246</ele>
        <time>2021-08-21T11:50:38Z</time>
      </trkpt>
      <trkpt lat="47.79851" lon="6.65743">
        <ele>441.36670774986</ele>
        <time>2021-08-21T11:50:40Z</time>
      </trkpt>
      <trkpt lat="47.79838" lon="6.65733">
        <ele>441.26916909364</ele>
        <time>2021-08-21T11:50:42Z</time>
      </trkpt>
      <trkpt lat="47.79825" lon="6.65725">
        <ele>441.16156279361</ele>
        <time>2021-08-21T11:50:44Z</time>
      </trkpt>
      <trkpt lat="47.79812" lon="6.65717">
        <ele>440.96922924506</ele>
        <time>2021-08-21T11:50:46Z</time>
      </trkpt>
      <trkpt lat="47.798" lon="6.65709">
        <ele>440.66706883387</ele>
        <time>2021-08-21T11:50:48Z</time>
      </trkpt>
      <trkpt lat="47.79789" lon="6.65698">
        <ele>440.44453722225</ele>
        <time>2021-08-21T11:50:50Z</time>
      </trkpt>
      <trkpt lat="47.79778" lon="6.65687">
        <ele>440.0813797172</ele>
        <time>2021-08-21T11:50:52Z</time>
      </trkpt>
      <trkpt lat="47.79768" lon="6.65674">
        <ele>439.72664281996</ele>
        <time>2021-08-21T11:50:54Z</time>
      </trkpt>
      <trkpt lat="47.79758" lon="6.65661">
        <ele>439.20584367815</ele>
        <time>2021-08-21T11:50:56Z</time>
      </trkpt>
      <trkpt lat="47.7975" lon="6.65645">
        <ele>438.86119052703</ele>
        <time>2021-08-21T11:50:58Z</time>
      </trkpt>
      <trkpt lat="47.79742" lon="6.65629">
        <ele>438.69790465686</ele>
        <time>2021-08-21T11:51:00Z</time>
      </trkpt>
      <trkpt lat="47.79736" lon="6.65612">
        <ele>438.37855412832</ele>
        <time>2021-08-21T11:51:02Z</time>
      </trkpt>
      <trkpt lat="47.7973" lon="6.65592">
        <ele>438.46691014808</ele>
        <time>2021-08-21T11:51:04Z</time>
      </trkpt>
      <trkpt lat="47.79724" lon="6.65573">
        <ele>438.69612632869</ele>
        <time>2021-08-21T11:51:06Z</time>
      </trkpt>
      <trkpt lat="47.79719" lon="6.65552">
        <ele>438.58485105147</ele>
        <time>2021-08-21T11:51:08Z</time>
      </trkpt>
      <trkpt lat="47.79717" lon="6.65529">
        <ele>438.13491281027</ele>
        <time>2021-08-21T11:51:10Z</time>
      </trkpt>
      <trkpt lat="47.79714" lon="6.65504">
        <ele>437.778786559</ele>
        <time>2021-08-21T11:51:12Z</time>
      </trkpt>
      <trkpt lat="47.79712" lon="6.6548">
        <ele>437.41245943815</ele>
        <time>2021-08-21T11:51:14Z</time>
      </trkpt>
      <trkpt lat="47.79709" lon="6.65453">
        <ele>437.23408311513</ele>
        <time>2021-08-21T11:51:16Z</time>
      </trkpt>
      <trkpt lat="47.79707" lon="6.65426">
        <ele>437.05862064695</ele>
        <time>2021-08-21T11:51:18Z</time>
      </trkpt>
      <trkpt lat="47.79706" lon="6.654">
        <ele>436.45181618697</ele>
        <time>2021-08-21T11:51:20Z</time>
      </trkpt>
      <trkpt lat="47.79703" lon="6.65372">
        <ele>435.91606960064</ele>
        <time>2021-08-21T11:51:22Z</time>
      </trkpt>
      <trkpt lat="47.79699" lon="6.65345">
        <ele>435.13176950264</ele>
        <time>2021-08-21T11:51:24Z</time>
      </trkpt>
      <trkpt lat="47.79692" lon="6.65318">
        <ele>434.28324163075</ele>
        <time>2021-08-21T11:51:26Z</time>
      </trkpt>
      <trkpt lat="47.79683" lon="6.65292">
        <ele>433.38653791481</ele>
        <time>2021-08-21T11:51:28Z</time>
      </trkpt>
      <trkpt lat="47.79673" lon="6.65266">
        <ele>432.45804804606</ele>
        <time>2021-08-21T11:51:30Z</time>
      </trkpt>
      <trkpt lat="47.79663" lon="6.6524">
        <ele>431.67005887214</ele>
        <time>2021-08-21T11:51:32Z</time>
      </trkpt>
      <trkpt lat="47.79657" lon="6.65211">
        <ele>430.94579172675</ele>
        <time>2021-08-21T11:51:34Z</time>
      </trkpt>
      <trkpt lat="47.79654" lon="6.65182">
        <ele>430.37772124633</ele>
        <time>2021-08-21T11:51:36Z</time>
      </trkpt>
      <trkpt lat="47.79655" lon="6.65151">
        <ele>430.2006099375</ele>
        <time>2021-08-21T11:51:38Z</time>
      </trkpt>
      <trkpt lat="47.79657" lon="6.6512">
        <ele>429.84663672367</ele>
        <time>2021-08-21T11:51:40Z</time>
      </trkpt>
      <trkpt lat="47.79661" lon="6.6509">
        <ele>429.22493681154</ele>
        <time>2021-08-21T11:51:42Z</time>
      </trkpt>
      <trkpt lat="47.79666" lon="6.65061">
        <ele>429.09482551633</ele>
        <time>2021-08-21T11:51:44Z</time>
      </trkpt>
      <trkpt lat="47.79672" lon="6.65032">
        <ele>429.04590087057</ele>
        <time>2021-08-21T11:51:46Z</time>
      </trkpt>
      <trkpt lat="47.79674" lon="6.65003">
        <ele>429.04744805877</ele>
        <time>2021-08-21T11:51:48Z</time>
      </trkpt>
      <trkpt lat="47.79675" lon="6.64975">
        <ele>429.12021919872</ele>
        <time>2021-08-21T11:51:50Z</time>
      </trkpt>
      <trkpt lat="47.79673" lon="6.64948">
        <ele>428.99601056764</ele>
        <time>2021-08-21T11:51:52Z</time>
      </trkpt>
      <trkpt lat="47.79671" lon="6.64921">
        <ele>428.69804179559</ele>
        <time>2021-08-21T11:51:54Z</time>
      </trkpt>
      <trkpt lat="47.79667" lon="6.64896">
        <ele>428.49006532557</ele>
        <time>2021-08-21T11:51:56Z</time>
      </trkpt>
      <trkpt lat="47.79661" lon="6.64872">
        <ele>428.34911754969</ele>
        <time>2021-08-21T11:51:58Z</time>
      </trkpt>
      <trkpt lat="47.79652" lon="6.64851">
        <ele>428.19365241727</ele>
        <time>2021-08-21T11:52:00Z</time>
      </trkpt>
      <trkpt lat="47.79644" lon="6.64831">
        <ele>427.94798247843</ele>
        <time>2021-08-21T11:52:02Z</time>
      </trkpt>
      <trkpt lat="47.79634" lon="6.64813">
        <ele>427.69879321904</ele>
        <time>2021-08-21T11:52:04Z</time>
      </trkpt>
      <trkpt lat="47.79625" lon="6.64795">
        <ele>427.440862992</ele>
        <time>2021-08-21T11:52:06Z</time>
      </trkpt>
      <trkpt lat="47.79615" lon="6.64778">
        <ele>427.20569723862</ele>
        <time>2021-08-21T11:52:08Z</time>
      </trkpt>
      <trkpt lat="47.79604" lon="6.64763">
        <ele>426.98924758394</ele>
        <time>2021-08-21T11:52:10Z</time>
      </trkpt>
      <trkpt lat="47.79593" lon="6.64749">
        <ele>426.75721573476</ele>
        <time>2021-08-21T11:52:12Z</time>
      </trkpt>
      <trkpt lat="47.79581" lon="6.64737">
        <ele>426.56917716732</ele>
        <time>2021-08-21T11:52:14Z</time>
      </trkpt>
      <trkpt lat="47.79568" lon="6.64727">
        <ele>426.46754783074</ele>
        <time>2021-08-21T11:52:16Z</time>
      </trkpt>
      <trkpt lat="47.79556" lon="6.6472">
        <ele>426.33247558883</ele>
        <time>2021-08-21T11:52:18Z</time>
      </trkpt>
      <trkpt lat="47.79543" lon="6.64713">
        <ele>426.27868889304</ele>
        <time>2021-08-21T11:52:20Z</time>
      </trkpt>
      <trkpt lat="47.7953" lon="6.64707">
        <ele>426.29067346102</ele>
        <time>2021-08-21T11:52:22Z</time>
      </trkpt>
      <trkpt lat="47.79518" lon="6.64701">
        <ele>426.26242976747</ele>
        <time>2021-08-21T11:52:24Z</time>
      </trkpt>
      <trkpt lat="47.79507" lon="6.64695">
        <ele>426.21673676255</ele>
        <time>2021-08-21T11:52:26Z</time>
      </trkpt>
      <trkpt lat="47.79495" lon="6.64688">
        <ele>426.1540700578</ele>
        <time>2021-08-21T11:52:28Z</time>
      </trkpt>
      <trkpt lat="47.79484" lon="6.6468">
        <ele>426.05687972252</ele>
        <time>2021-08-21T11:52:30Z</time>
      </trkpt>
      <trkpt lat="47.79473" lon="6.64673">
        <ele>425.93620535082</ele>
        <time>2021-08-21T11:52:32Z</time>
      </trkpt>
      <trkpt lat="47.79462" lon="6.64666">
        <ele>425.96024590949</ele>
        <time>2021-08-21T11:52:34Z</time>
      </trkpt>
      <trkpt lat="47.79452" lon="6.64659">
        <ele>426.02056942775</ele>
        <time>2021-08-21T11:52:36Z</time>
      </trkpt>
      <trkpt lat="47.79441" lon="6.64651">
        <ele>426.0337483123</ele>
        <time>2021-08-21T11:52:38Z</time>
      </trkpt>
      <trkpt lat="47.79431" lon="6.64645">
        <ele>426.0872285084</ele>
        <time>2021-08-21T11:52:40Z</time>
      </trkpt>
      <trkpt lat="47.79422" lon="6.64637">
        <ele>426.05534810026</ele>
        <time>2021-08-21T11:52:42Z</time>
      </trkpt>
      <trkpt lat="47.79413" lon="6.6463">
        <ele>426.00426870525</ele>
        <time>2021-08-21T11:52:44Z</time>
      </trkpt>
      <trkpt lat="47.79403" lon="6.64622">
        <ele>425.95531328753</ele>
        <time>2021-08-21T11:52:46Z</time>
      </trkpt>
      <trkpt lat="47.79393" lon="6.64615">
        <ele>425.88004056257</ele>
        <time>2021-08-21T11:52:48Z</time>
      </trkpt>
      <trkpt lat="47.79384" lon="6.64608">
        <ele>425.81342735247</ele>
        <time>2021-08-21T11:52:50Z</time>
      </trkpt>
      <trkpt lat="47.79375" lon="6.64602">
        <ele>425.73821305306</ele>
        <time>2021-08-21T11:52:52Z</time>
      </trkpt>
      <trkpt lat="47.79368" lon="6.64596">
        <ele>425.75784884249</ele>
        <time>2021-08-21T11:52:54Z</time>
      </trkpt>
      <trkpt lat="47.7936" lon="6.6459">
        <ele>425.73754190141</ele>
        <time>2021-08-21T11:52:56Z</time>
      </trkpt>
      <trkpt lat="47.79352" lon="6.64583">
        <ele>425.73904565053</ele>
        <time>2021-08-21T11:52:58Z</time>
      </trkpt>
      <trkpt lat="47.79344" lon="6.64576">
        <ele>425.71245934025</ele>
        <time>2021-08-21T11:53:00Z</time>
      </trkpt>
      <trkpt lat="47.79337" lon="6.64569">
        <ele>425.72005907488</ele>
        <time>2021-08-21T11:53:02Z</time>
      </trkpt>
      <trkpt lat="47.79329" lon="6.64562">
        <ele>425.83135638751</ele>
        <time>2021-08-21T11:53:04Z</time>
      </trkpt>
      <trkpt lat="47.79322" lon="6.64556">
        <ele>425.91175777879</ele>
        <time>2021-08-21T11:53:06Z</time>
      </trkpt>
      <trkpt lat="47.79315" lon="6.64549">
        <ele>425.93166291693</ele>
        <time>2021-08-21T11:53:08Z</time>
      </trkpt>
      <trkpt lat="47.79308" lon="6.64542">
        <ele>425.88749612088</ele>
        <time>2021-08-21T11:53:10Z</time>
      </trkpt>
      <trkpt lat="47.79301" lon="6.64535">
        <ele>425.87158357945</ele>
        <time>2021-08-21T11:53:12Z</time>
      </trkpt>
      <trkpt lat="47.79294" lon="6.64528">
        <ele>425.8638428659</ele>
        <time>2021-08-21T11:53:14Z</time>
      </trkpt>
      <trkpt lat="47.79287" lon="6.64521">
        <ele>425.84719263303</ele>
        <time>2021-08-21T11:53:16Z</time>
      </trkpt>
      <trkpt lat="47.7928" lon="6.64513">
        <ele>425.8387561722</ele>
        <time>2021-08-21T11:53:18Z</time>
      </trkpt>
      <trkpt lat="47.79273" lon="6.64506">
        <ele>425.78590472338</ele>
        <time>2021-08-21T11:53:20Z</time>
      </trkpt>
      <trkpt lat="47.79266" lon="6.64499">
        <ele>425.70830849645</ele>
        <time>2021-08-21T11:53:22Z</time>
      </trkpt>
      <trkpt lat="47.79259" lon="6.64492">
        <ele>425.63427770118</ele>
        <time>2021-08-21T11:53:24Z</time>
      </trkpt>
      <trkpt lat="47.79252" lon="6.64485">
        <ele>425.55242747364</ele>
        <time>2021-08-21T11:53:26Z</time>
      </trkpt>
      <trkpt lat="47.79245" lon="6.64478">
        <ele>425.45042262744</ele>
        <time>2021-08-21T11:53:28Z</time>
      </trkpt>
      <trkpt lat="47.79238" lon="6.6447">
        <ele>425.33173874766</ele>
        <time>2021-08-21T11:53:30Z</time>
      </trkpt>
      <trkpt lat="47.7923" lon="6.64461">
        <ele>425.22067056911</ele>
        <time>2021-08-21T11:53:32Z</time>
      </trkpt>
      <trkpt lat="47.79222" lon="6.64452">
        <ele>425.13234821504</ele>
        <time>2021-08-21T11:53:34Z</time>
      </trkpt>
      <trkpt lat="47.79214" lon="6.6444">
        <ele>425.07871438379</ele>
        <time>2021-08-21T11:53:36Z</time>
      </trkpt>
      <trkpt lat="47.79205" lon="6.64427">
        <ele>425.03369474155</ele>
        <time>2021-08-21T11:53:38Z</time>
      </trkpt>
      <trkpt lat="47.79197" lon="6.64414">
        <ele>424.99407500364</ele>
        <time>2021-08-21T11:53:40Z</time>
      </trkpt>
      <trkpt lat="47.79188" lon="6.644">
        <ele>424.94920611898</ele>
        <time>2021-08-21T11:53:42Z</time>
      </trkpt>
      <trkpt lat="47.7918" lon="6.64386">
        <ele>424.92085947139</ele>
        <time>2021-08-21T11:53:44Z</time>
      </trkpt>
      <trkpt lat="47.79172" lon="6.64372">
        <ele>424.89041388984</ele>
        <time>2021-08-21T11:53:46Z</time>
      </trkpt>
      <trkpt lat="47.79164" lon="6.64358">
        <ele>424.8825840712</ele>
        <time>2021-08-21T11:53:48Z</time>
      </trkpt>
      <trkpt lat="47.79155" lon="6.64343">
        <ele>424.84248843576</ele>
        <time>2021-08-21T11:53:50Z</time>
      </trkpt>
      <trkpt lat="47.79147" lon="6.64326">
        <ele>424.76629859753</ele>
        <time>2021-08-21T11:53:52Z</time>
      </trkpt>
      <trkpt lat="47.79138" lon="6.64309">
        <ele>424.77300874552</ele>
        <time>2021-08-21T11:53:54Z</time>
      </trkpt>
      <trkpt lat="47.79129" lon="6.64293">
        <ele>424.80789607515</ele>
        <time>2021-08-21T11:53:56Z</time>
      </trkpt>
      <trkpt lat="47.7912" lon="6.64276">
        <ele>424.81753691148</ele>
        <time>2021-08-21T11:53:58Z</time>
      </trkpt>
      <trkpt lat="47.79112" lon="6.64258">
        <ele>424.86113181192</ele>
        <time>2021-08-21T11:54:00Z</time>
      </trkpt>
      <trkpt lat="47.79104" lon="6.64239">
        <ele>424.94652967027</ele>
        <time>2021-08-21T11:54:02Z</time>
      </trkpt>
      <trkpt lat="47.79095" lon="6.64221">
        <ele>425.06598444481</ele>
        <time>2021-08-21T11:54:04Z</time>
      </trkpt>
      <trkpt lat="47.79086" lon="6.64202">
        <ele>425.22351701257</ele>
        <time>2021-08-21T11:54:06Z</time>
      </trkpt>
      <trkpt lat="47.79076" lon="6.64184">
        <ele>425.38781323054</ele>
        <time>2021-08-21T11:54:08Z</time>
      </trkpt>
      <trkpt lat="47.79067" lon="6.64167">
        <ele>425.47450263097</ele>
        <time>2021-08-21T11:54:10Z</time>
      </trkpt>
      <trkpt lat="47.79059" lon="6.64149">
        <ele>425.60869208797</ele>
        <time>2021-08-21T11:54:12Z</time>
      </trkpt>
      <trkpt lat="47.7905" lon="6.64131">
        <ele>425.75236738831</ele>
        <time>2021-08-21T11:54:14Z</time>
      </trkpt>
      <trkpt lat="47.79041" lon="6.64113">
        <ele>425.88499934985</ele>
        <time>2021-08-21T11:54:16Z</time>
      </trkpt>
      <trkpt lat="47.79033" lon="6.64094">
        <ele>426.02920312171</ele>
        <time>2021-08-21T11:54:18Z</time>
      </trkpt>
      <trkpt lat="47.79025" lon="6.64074">
        <ele>426.07721129387</ele>
        <time>2021-08-21T11:54:20Z</time>
      </trkpt>
      <trkpt lat="47.79019" lon="6.64053">
        <ele>426.03025976213</ele>
        <time>2021-08-21T11:54:22Z</time>
      </trkpt>
      <trkpt lat="47.79014" lon="6.64032">
        <ele>425.86440362998</ele>
        <time>2021-08-21T11:54:24Z</time>
      </trkpt>
      <trkpt lat="47.79008" lon="6.6401">
        <ele>425.73817094356</ele>
        <time>2021-08-21T11:54:26Z</time>
      </trkpt>
      <trkpt lat="47.79003" lon="6.63987">
        <ele>425.64588324261</ele>
        <time>2021-08-21T11:54:28Z</time>
      </trkpt>
      <trkpt lat="47.78995" lon="6.63965">
        <ele>425.49718336651</ele>
        <time>2021-08-21T11:54:30Z</time>
      </trkpt>
      <trkpt lat="47.78987" lon="6.63943">
        <ele>425.35186844497</ele>
        <time>2021-08-21T11:54:32Z</time>
      </trkpt>
      <trkpt lat="47.78976" lon="6.63924">
        <ele>425.24547627579</ele>
        <time>2021-08-21T11:54:34Z</time>
      </trkpt>
      <trkpt lat="47.78965" lon="6.63905">
        <ele>425.16443328532</ele>
        <time>2021-08-21T11:54:36Z</time>
      </trkpt>
      <trkpt lat="47.78953" lon="6.63887">
        <ele>425.18498043726</ele>
        <time>2021-08-21T11:54:38Z</time>
      </trkpt>
      <trkpt lat="47.78942" lon="6.63868">
        <ele>425.16443972992</ele>
        <time>2021-08-21T11:54:40Z</time>
      </trkpt>
      <trkpt lat="47.7893" lon="6.63851">
        <ele>425.09312323511</ele>
        <time>2021-08-21T11:54:42Z</time>
      </trkpt>
      <trkpt lat="47.78919" lon="6.63833">
        <ele>425.05944746395</ele>
        <time>2021-08-21T11:54:44Z</time>
      </trkpt>
      <trkpt lat="47.78906" lon="6.63817">
        <ele>424.96726607819</ele>
        <time>2021-08-21T11:54:46Z</time>
      </trkpt>
      <trkpt lat="47.78893" lon="6.63801">
        <ele>424.87620086887</ele>
        <time>2021-08-21T11:54:48Z</time>
      </trkpt>
      <trkpt lat="47.78879" lon="6.63786">
        <ele>424.76653366011</ele>
        <time>2021-08-21T11:54:50Z</time>
      </trkpt>
      <trkpt lat="47.78867" lon="6.63771">
        <ele>424.69023529676</ele>
        <time>2021-08-21T11:54:52Z</time>
      </trkpt>
      <trkpt lat="47.78853" lon="6.63757">
        <ele>424.58941367452</ele>
        <time>2021-08-21T11:54:54Z</time>
      </trkpt>
      <trkpt lat="47.7884" lon="6.63744">
        <ele>424.39843867093</ele>
        <time>2021-08-21T11:54:56Z</time>
      </trkpt>
      <trkpt lat="47.78828" lon="6.63729">
        <ele>424.13084522161</ele>
        <time>2021-08-21T11:54:58Z</time>
      </trkpt>
      <trkpt lat="47.78816" lon="6.63713">
        <ele>423.89301540605</ele>
        <time>2021-08-21T11:55:00Z</time>
      </trkpt>
      <trkpt lat="47.78804" lon="6.63697">
        <ele>423.71217190502</ele>
        <time>2021-08-21T11:55:02Z</time>
      </trkpt>
      <trkpt lat="47.78791" lon="6.63681">
        <ele>423.51956837808</ele>
        <time>2021-08-21T11:55:04Z</time>
      </trkpt>
      <trkpt lat="47.7878" lon="6.63664">
        <ele>423.20253975542</ele>
        <time>2021-08-21T11:55:06Z</time>
      </trkpt>
      <trkpt lat="47.78769" lon="6.63645">
        <ele>423.05889448831</ele>
        <time>2021-08-21T11:55:08Z</time>
      </trkpt>
      <trkpt lat="47.78758" lon="6.63626">
        <ele>422.90969154911</ele>
        <time>2021-08-21T11:55:10Z</time>
      </trkpt>
      <trkpt lat="47.78749" lon="6.63605">
        <ele>422.74098659444</ele>
        <time>2021-08-21T11:55:12Z</time>
      </trkpt>
      <trkpt lat="47.78743" lon="6.63582">
        <ele>422.46702521764</ele>
        <time>2021-08-21T11:55:14Z</time>
      </trkpt>
      <trkpt lat="47.78739" lon="6.63558">
        <ele>422.26897068721</ele>
        <time>2021-08-21T11:55:16Z</time>
      </trkpt>
      <trkpt lat="47.78735" lon="6.63534">
        <ele>422.01381805433</ele>
        <time>2021-08-21T11:55:18Z</time>
      </trkpt>
      <trkpt lat="47.78732" lon="6.63511">
        <ele>421.9046920879</ele>
        <time>2021-08-21T11:55:20Z</time>
      </trkpt>
      <trkpt lat="47.78729" lon="6.63489">
        <ele>422.0967649885</ele>
        <time>2021-08-21T11:55:22Z</time>
      </trkpt>
      <trkpt lat="47.78724" lon="6.6347">
        <ele>422.33013931437</ele>
        <time>2021-08-21T11:55:24Z</time>
      </trkpt>
      <trkpt lat="47.7872" lon="6.63451">
        <ele>422.34895817058</ele>
        <time>2021-08-21T11:55:26Z</time>
      </trkpt>
      <trkpt lat="47.78716" lon="6.63434">
        <ele>422.21752890422</ele>
        <time>2021-08-21T11:55:28Z</time>
      </trkpt>
      <trkpt lat="47.78712" lon="6.63416">
        <ele>422.00539772043</ele>
        <time>2021-08-21T11:55:30Z</time>
      </trkpt>
      <trkpt lat="47.78707" lon="6.63396">
        <ele>421.71005508103</ele>
        <time>2021-08-21T11:55:32Z</time>
      </trkpt>
      <trkpt lat="47.78702" lon="6.63376">
        <ele>421.27769877044</ele>
        <time>2021-08-21T11:55:34Z</time>
      </trkpt>
      <trkpt lat="47.78691" lon="6.63358">
        <ele>420.83741020843</ele>
        <time>2021-08-21T11:55:36Z</time>
      </trkpt>
      <trkpt lat="47.78678" lon="6.63344">
        <ele>420.42178486183</ele>
        <time>2021-08-21T11:55:38Z</time>
      </trkpt>
      <trkpt lat="47.78662" lon="6.63334">
        <ele>420.25684735283</ele>
        <time>2021-08-21T11:55:40Z</time>
      </trkpt>
      <trkpt lat="47.78647" lon="6.63327">
        <ele>419.96393059222</ele>
        <time>2021-08-21T11:55:42Z</time>
      </trkpt>
      <trkpt lat="47.78632" lon="6.63319">
        <ele>419.70017872016</ele>
        <time>2021-08-21T11:55:44Z</time>
      </trkpt>
      <trkpt lat="47.78618" lon="6.63311">
        <ele>419.42444198501</ele>
        <time>2021-08-21T11:55:46Z</time>
      </trkpt>
      <trkpt lat="47.78604" lon="6.63303">
        <ele>419.13888544346</ele>
        <time>2021-08-21T11:55:48Z</time>
      </trkpt>
      <trkpt lat="47.78591" lon="6.63294">
        <ele>418.83336402141</ele>
        <time>2021-08-21T11:55:50Z</time>
      </trkpt>
      <trkpt lat="47.78578" lon="6.63284">
        <ele>418.56158729182</ele>
        <time>2021-08-21T11:55:52Z</time>
      </trkpt>
      <trkpt lat="47.78566" lon="6.63271">
        <ele>418.40896345822</ele>
        <time>2021-08-21T11:55:54Z</time>
      </trkpt>
      <trkpt lat="47.78556" lon="6.63256">
        <ele>418.26511586607</ele>
        <time>2021-08-21T11:55:56Z</time>
      </trkpt>
      <trkpt lat="47.78548" lon="6.63239">
        <ele>418.14346415268</ele>
        <time>2021-08-21T11:55:58Z</time>
      </trkpt>
      <trkpt lat="47.7854" lon="6.63222">
        <ele>417.97102040423</ele>
        <time>2021-08-21T11:56:00Z</time>
      </trkpt>
      <trkpt lat="47.78532" lon="6.63205">
        <ele>417.77830659744</ele>
        <time>2021-08-21T11:56:02Z</time>
      </trkpt>
      <trkpt lat="47.78524" lon="6.63189">
        <ele>417.48085744468</ele>
        <time>2021-08-21T11:56:04Z</time>
      </trkpt>
      <trkpt lat="47.78516" lon="6.63173">
        <ele>417.24142809562</ele>
        <time>2021-08-21T11:56:06Z</time>
      </trkpt>
      <trkpt lat="47.78509" lon="6.63157">
        <ele>416.95081630902</ele>
        <time>2021-08-21T11:56:08Z</time>
      </trkpt>
      <trkpt lat="47.78503" lon="6.6314">
        <ele>416.69321668863</ele>
        <time>2021-08-21T11:56:10Z</time>
      </trkpt>
      <trkpt lat="47.78498" lon="6.63121">
        <ele>416.47865142583</ele>
        <time>2021-08-21T11:56:12Z</time>
      </trkpt>
      <trkpt lat="47.78495" lon="6.63102">
        <ele>416.22678273517</ele>
        <time>2021-08-21T11:56:14Z</time>
      </trkpt>
      <trkpt lat="47.78492" lon="6.63082">
        <ele>416.03461957314</ele>
        <time>2021-08-21T11:56:16Z</time>
      </trkpt>
      <trkpt lat="47.78489" lon="6.63063">
        <ele>415.78677664067</ele>
        <time>2021-08-21T11:56:18Z</time>
      </trkpt>
      <trkpt lat="47.78485" lon="6.63044">
        <ele>415.43427115052</ele>
        <time>2021-08-21T11:56:20Z</time>
      </trkpt>
      <trkpt lat="47.78481" lon="6.63024">
        <ele>415.02854728409</ele>
        <time>2021-08-21T11:56:22Z</time>
      </trkpt>
      <trkpt lat="47.78478" lon="6.63005">
        <ele>414.74961052327</ele>
        <time>2021-08-21T11:56:24Z</time>
      </trkpt>
      <trkpt lat="47.78475" lon="6.62985">
        <ele>414.53120547525</ele>
        <time>2021-08-21T11:56:26Z</time>
      </trkpt>
      <trkpt lat="47.78472" lon="6.62966">
        <ele>414.34035853935</ele>
        <time>2021-08-21T11:56:28Z</time>
      </trkpt>
      <trkpt lat="47.78468" lon="6.62946">
        <ele>414.19547520405</ele>
        <time>2021-08-21T11:56:30Z</time>
      </trkpt>
      <trkpt lat="47.78465" lon="6.62927">
        <ele>414.11804690581</ele>
        <time>2021-08-21T11:56:32Z</time>
      </trkpt>
      <trkpt lat="47.78461" lon="6.62907">
        <ele>414.18852994718</ele>
        <time>2021-08-21T11:56:34Z</time>
      </trkpt>
      <trkpt lat="47.78456" lon="6.62889">
        <ele>414.28421782663</ele>
        <time>2021-08-21T11:56:36Z</time>
      </trkpt>
      <trkpt lat="47.78448" lon="6.62873">
        <ele>414.29754060372</ele>
        <time>2021-08-21T11:56:38Z</time>
      </trkpt>
      <trkpt lat="47.78438" lon="6.62859">
        <ele>414.2003547598</ele>
        <time>2021-08-21T11:56:40Z</time>
      </trkpt>
      <trkpt lat="47.78428" lon="6.62847">
        <ele>413.88028246158</ele>
        <time>2021-08-21T11:56:42Z</time>
      </trkpt>
      <trkpt lat="47.78418" lon="6.62837">
        <ele>413.5896599343</ele>
        <time>2021-08-21T11:56:44Z</time>
      </trkpt>
      <trkpt lat="47.78407" lon="6.62829">
        <ele>412.99739119809</ele>
        <time>2021-08-21T11:56:46Z</time>
      </trkpt>
      <trkpt lat="47.78397" lon="6.6282">
        <ele>412.61545370082</ele>
        <time>2021-08-21T11:56:48Z</time>
      </trkpt>
      <trkpt lat="47.78387" lon="6.62809">
        <ele>412.2845015691</ele>
        <time>2021-08-21T11:56:50Z</time>
      </trkpt>
      <trkpt lat="47.78377" lon="6.62797">
        <ele>412.11771322669</ele>
        <time>2021-08-21T11:56:52Z</time>
      </trkpt>
      <trkpt lat="47.78369" lon="6.62783">
        <ele>412.16063094414</ele>
        <time>2021-08-21T11:56:54Z</time>
      </trkpt>
      <trkpt lat="47.7836" lon="6.62768">
        <ele>413.03480582925</ele>
        <time>2021-08-21T11:56:56Z</time>
      </trkpt>
      <trkpt lat="47.78353" lon="6.62752">
        <ele>413.56029182235</ele>
        <time>2021-08-21T11:56:58Z</time>
      </trkpt>
      <trkpt lat="47.78347" lon="6.62735">
        <ele>413.90492065261</ele>
        <time>2021-08-21T11:57:00Z</time>
      </trkpt>
      <trkpt lat="47.78342" lon="6.62719">
        <ele>414.07174806687</ele>
        <time>2021-08-21T11:57:02Z</time>
      </trkpt>
      <trkpt lat="47.78338" lon="6.62703">
        <ele>414.0204528299</ele>
        <time>2021-08-21T11:57:04Z</time>
      </trkpt>
      <trkpt lat="47.78333" lon="6.62685">
        <ele>414.04728706397</ele>
        <time>2021-08-21T11:57:06Z</time>
      </trkpt>
      <trkpt lat="47.78326" lon="6.62669">
        <ele>414.10382287898</ele>
        <time>2021-08-21T11:57:08Z</time>
      </trkpt>
      <trkpt lat="47.78319" lon="6.62653">
        <ele>414.06057106898</ele>
        <time>2021-08-21T11:57:10Z</time>
      </trkpt>
      <trkpt lat="47.78311" lon="6.62639">
        <ele>413.94582233332</ele>
        <time>2021-08-21T11:57:12Z</time>
      </trkpt>
      <trkpt lat="47.78302" lon="6.62625">
        <ele>413.78766051971</ele>
        <time>2021-08-21T11:57:14Z</time>
      </trkpt>
      <trkpt lat="47.78292" lon="6.62613">
        <ele>413.66732069324</ele>
        <time>2021-08-21T11:57:16Z</time>
      </trkpt>
      <trkpt lat="47.7828" lon="6.62603">
        <ele>413.64713470188</ele>
        <time>2021-08-21T11:57:18Z</time>
      </trkpt>
      <trkpt lat="47.78268" lon="6.62593">
        <ele>413.64625592971</ele>
        <time>2021-08-21T11:57:20Z</time>
      </trkpt>
      <trkpt lat="47.78257" lon="6.62583">
        <ele>413.56363071901</ele>
        <time>2021-08-21T11:57:22Z</time>
      </trkpt>
      <trkpt lat="47.78245" lon="6.62573">
        <ele>413.48020677822</ele>
        <time>2021-08-21T11:57:24Z</time>
      </trkpt>
      <trkpt lat="47.78233" lon="6.62565">
        <ele>413.37286413622</ele>
        <time>2021-08-21T11:57:26Z</time>
      </trkpt>
      <trkpt lat="47.7822" lon="6.62557">
        <ele>413.28281053648</ele>
        <time>2021-08-21T11:57:28Z</time>
      </trkpt>
      <trkpt lat="47.78208" lon="6.62549">
        <ele>413.25839080656</ele>
        <time>2021-08-21T11:57:30Z</time>
      </trkpt>
      <trkpt lat="47.78196" lon="6.62541">
        <ele>413.36032476516</ele>
        <time>2021-08-21T11:57:32Z</time>
      </trkpt>
      <trkpt lat="47.78184" lon="6.62533">
        <ele>413.40996774404</ele>
        <time>2021-08-21T11:57:34Z</time>
      </trkpt>
      <trkpt lat="47.78173" lon="6.62526">
        <ele>413.38784050294</ele>
        <time>2021-08-21T11:57:36Z</time>
      </trkpt>
      <trkpt lat="47.78161" lon="6.62519">
        <ele>413.299757922</ele>
        <time>2021-08-21T11:57:38Z</time>
      </trkpt>
      <trkpt lat="47.78151" lon="6.62511">
        <ele>413.17402352875</ele>
        <time>2021-08-21T11:57:40Z</time>
      </trkpt>
      <trkpt lat="47.7814" lon="6.62504">
        <ele>413.21149554934</ele>
        <time>2021-08-21T11:57:42Z</time>
      </trkpt>
      <trkpt lat="47.7813" lon="6.62496">
        <ele>413.20196920754</ele>
        <time>2021-08-21T11:57:44Z</time>
      </trkpt>
      <trkpt lat="47.78119" lon="6.62489">
        <ele>413.15430124585</ele>
        <time>2021-08-21T11:57:46Z</time>
      </trkpt>
      <trkpt lat="47.78108" lon="6.62482">
        <ele>413.10235394184</ele>
        <time>2021-08-21T11:57:48Z</time>
      </trkpt>
      <trkpt lat="47.78097" lon="6.62474">
        <ele>412.99542749809</ele>
        <time>2021-08-21T11:57:50Z</time>
      </trkpt>
      <trkpt lat="47.78087" lon="6.62467">
        <ele>412.92538523374</ele>
        <time>2021-08-21T11:57:52Z</time>
      </trkpt>
      <trkpt lat="47.78076" lon="6.6246">
        <ele>412.91097919376</ele>
        <time>2021-08-21T11:57:54Z</time>
      </trkpt>
      <trkpt lat="47.78066" lon="6.62454">
        <ele>412.943858674</ele>
        <time>2021-08-21T11:57:56Z</time>
      </trkpt>
      <trkpt lat="47.78055" lon="6.62449">
        <ele>413.01704591999</ele>
        <time>2021-08-21T11:57:58Z</time>
      </trkpt>
      <trkpt lat="47.78044" lon="6.62444">
        <ele>413.1977666615</ele>
        <time>2021-08-21T11:58:00Z</time>
      </trkpt>
      <trkpt lat="47.78033" lon="6.6244">
        <ele>413.32019564729</ele>
        <time>2021-08-21T11:58:02Z</time>
      </trkpt>
      <trkpt lat="47.78023" lon="6.62437">
        <ele>413.42766833983</ele>
        <time>2021-08-21T11:58:04Z</time>
      </trkpt>
      <trkpt lat="47.78012" lon="6.62435">
        <ele>413.50459797981</ele>
        <time>2021-08-21T11:58:06Z</time>
      </trkpt>
      <trkpt lat="47.78002" lon="6.62434">
        <ele>413.54814944972</ele>
        <time>2021-08-21T11:58:08Z</time>
      </trkpt>
      <trkpt lat="47.77991" lon="6.62433">
        <ele>413.60563292913</ele>
        <time>2021-08-21T11:58:10Z</time>
      </trkpt>
      <trkpt lat="47.77979" lon="6.62432">
        <ele>413.66978345838</ele>
        <time>2021-08-21T11:58:12Z</time>
      </trkpt>
      <trkpt lat="47.77968" lon="6.62432">
        <ele>413.71151017897</ele>
        <time>2021-08-21T11:58:14Z</time>
      </trkpt>
      <trkpt lat="47.77956" lon="6.62431">
        <ele>413.74287360346</ele>
        <time>2021-08-21T11:58:16Z</time>
      </trkpt>
      <trkpt lat="47.77945" lon="6.62431">
        <ele>413.74603779626</ele>
        <time>2021-08-21T11:58:18Z</time>
      </trkpt>
      <trkpt lat="47.77933" lon="6.62431">
        <ele>413.75552363381</ele>
        <time>2021-08-21T11:58:20Z</time>
      </trkpt>
      <trkpt lat="47.77922" lon="6.62431">
        <ele>413.78576507013</ele>
        <time>2021-08-21T11:58:22Z</time>
      </trkpt>
      <trkpt lat="47.77911" lon="6.6243">
        <ele>413.82523224076</ele>
        <time>2021-08-21T11:58:24Z</time>
      </trkpt>
      <trkpt lat="47.779" lon="6.62428">
        <ele>413.88915951104</ele>
        <time>2021-08-21T11:58:26Z</time>
      </trkpt>
      <trkpt lat="47.77889" lon="6.62427">
        <ele>413.95696983394</ele>
        <time>2021-08-21T11:58:28Z</time>
      </trkpt>
      <trkpt lat="47.77879" lon="6.62427">
        <ele>414.01706552272</ele>
        <time>2021-08-21T11:58:30Z</time>
      </trkpt>
      <trkpt lat="47.77868" lon="6.62424">
        <ele>414.08302748701</ele>
        <time>2021-08-21T11:58:32Z</time>
      </trkpt>
      <trkpt lat="47.77857" lon="6.62422">
        <ele>414.14086877512</ele>
        <time>2021-08-21T11:58:34Z</time>
      </trkpt>
      <trkpt lat="47.77847" lon="6.6242">
        <ele>414.19177281629</ele>
        <time>2021-08-21T11:58:36Z</time>
      </trkpt>
      <trkpt lat="47.77837" lon="6.62417">
        <ele>414.24315023936</ele>
        <time>2021-08-21T11:58:38Z</time>
      </trkpt>
      <trkpt lat="47.77826" lon="6.62414">
        <ele>414.28890281058</ele>
        <time>2021-08-21T11:58:40Z</time>
      </trkpt>
      <trkpt lat="47.77815" lon="6.6241">
        <ele>414.29812287048</ele>
        <time>2021-08-21T11:58:42Z</time>
      </trkpt>
      <trkpt lat="47.77804" lon="6.62406">
        <ele>414.24012828224</ele>
        <time>2021-08-21T11:58:44Z</time>
      </trkpt>
      <trkpt lat="47.77794" lon="6.62398">
        <ele>414.13658849023</ele>
        <time>2021-08-21T11:58:46Z</time>
      </trkpt>
      <trkpt lat="47.77783" lon="6.6239">
        <ele>414.01704492891</ele>
        <time>2021-08-21T11:58:48Z</time>
      </trkpt>
      <trkpt lat="47.77772" lon="6.6238">
        <ele>413.88341076047</ele>
        <time>2021-08-21T11:58:50Z</time>
      </trkpt>
      <trkpt lat="47.77762" lon="6.62369">
        <ele>413.73397712544</ele>
        <time>2021-08-21T11:58:52Z</time>
      </trkpt>
      <trkpt lat="47.77752" lon="6.62357">
        <ele>413.57693262876</ele>
        <time>2021-08-21T11:58:54Z</time>
      </trkpt>
      <trkpt lat="47.77742" lon="6.62345">
        <ele>413.45793464418</ele>
        <time>2021-08-21T11:58:56Z</time>
      </trkpt>
      <trkpt lat="47.77731" lon="6.62333">
        <ele>413.42119003737</ele>
        <time>2021-08-21T11:58:58Z</time>
      </trkpt>
      <trkpt lat="47.77721" lon="6.62321">
        <ele>413.36513641752</ele>
        <time>2021-08-21T11:59:00Z</time>
      </trkpt>
      <trkpt lat="47.7771" lon="6.6231">
        <ele>413.34810879752</ele>
        <time>2021-08-21T11:59:02Z</time>
      </trkpt>
      <trkpt lat="47.77699" lon="6.62299">
        <ele>413.32344811294</ele>
        <time>2021-08-21T11:59:04Z</time>
      </trkpt>
      <trkpt lat="47.77689" lon="6.62288">
        <ele>413.32614827985</ele>
        <time>2021-08-21T11:59:06Z</time>
      </trkpt>
      <trkpt lat="47.77678" lon="6.62276">
        <ele>413.31982995377</ele>
        <time>2021-08-21T11:59:08Z</time>
      </trkpt>
      <trkpt lat="47.77668" lon="6.62264">
        <ele>413.31014399724</ele>
        <time>2021-08-21T11:59:10Z</time>
      </trkpt>
      <trkpt lat="47.77657" lon="6.62253">
        <ele>413.31019097244</ele>
        <time>2021-08-21T11:59:12Z</time>
      </trkpt>
      <trkpt lat="47.77646" lon="6.62241">
        <ele>413.31165481965</ele>
        <time>2021-08-21T11:59:14Z</time>
      </trkpt>
      <trkpt lat="47.77636" lon="6.6223">
        <ele>413.28885074464</ele>
        <time>2021-08-21T11:59:16Z</time>
      </trkpt>
      <trkpt lat="47.77625" lon="6.62219">
        <ele>413.28407997899</ele>
        <time>2021-08-21T11:59:18Z</time>
      </trkpt>
      <trkpt lat="47.77614" lon="6.62208">
        <ele>413.30898601635</ele>
        <time>2021-08-21T11:59:20Z</time>
      </trkpt>
      <trkpt lat="47.77604" lon="6.62197">
        <ele>413.31360509054</ele>
        <time>2021-08-21T11:59:22Z</time>
      </trkpt>
      <trkpt lat="47.77593" lon="6.62185">
        <ele>413.30530633859</ele>
        <time>2021-08-21T11:59:24Z</time>
      </trkpt>
      <trkpt lat="47.77583" lon="6.62175">
        <ele>413.29351529689</ele>
        <time>2021-08-21T11:59:26Z</time>
      </trkpt>
      <trkpt lat="47.77573" lon="6.62164">
        <ele>413.31012894491</ele>
        <time>2021-08-21T11:59:28Z</time>
      </trkpt>
      <trkpt lat="47.77563" lon="6.62154">
        <ele>413.2968025965</ele>
        <time>2021-08-21T11:59:30Z</time>
      </trkpt>
      <trkpt lat="47.77552" lon="6.62143">
        <ele>413.37429384266</ele>
        <time>2021-08-21T11:59:32Z</time>
      </trkpt>
      <trkpt lat="47.77542" lon="6.62132">
        <ele>413.50343101023</ele>
        <time>2021-08-21T11:59:34Z</time>
      </trkpt>
      <trkpt lat="47.77532" lon="6.62123">
        <ele>413.5141688092</ele>
        <time>2021-08-21T11:59:36Z</time>
      </trkpt>
      <trkpt lat="47.77523" lon="6.62113">
        <ele>413.52735061147</ele>
        <time>2021-08-21T11:59:38Z</time>
      </trkpt>
      <trkpt lat="47.77513" lon="6.62103">
        <ele>413.48119875294</ele>
        <time>2021-08-21T11:59:40Z</time>
      </trkpt>
      <trkpt lat="47.77503" lon="6.62093">
        <ele>413.53029608068</ele>
        <time>2021-08-21T11:59:42Z</time>
      </trkpt>
      <trkpt lat="47.77493" lon="6.62082">
        <ele>413.57796477615</ele>
        <time>2021-08-21T11:59:44Z</time>
      </trkpt>
      <trkpt lat="47.77482" lon="6.62072">
        <ele>413.66338005807</ele>
        <time>2021-08-21T11:59:46Z</time>
      </trkpt>
      <trkpt lat="47.77472" lon="6.62062">
        <ele>413.73376584743</ele>
        <time>2021-08-21T11:59:48Z</time>
      </trkpt>
      <trkpt lat="47.77462" lon="6.62051">
        <ele>413.77027324248</ele>
        <time>2021-08-21T11:59:50Z</time>
      </trkpt>
      <trkpt lat="47.77452" lon="6.62041">
        <ele>413.78190603348</ele>
        <time>2021-08-21T11:59:52Z</time>
      </trkpt>
      <trkpt lat="47.77442" lon="6.62031">
        <ele>413.78840283674</ele>
        <time>2021-08-21T11:59:54Z</time>
      </trkpt>
      <trkpt lat="47.77433" lon="6.62019">
        <ele>413.86965004195</ele>
        <time>2021-08-21T11:59:56Z</time>
      </trkpt>
      <trkpt lat="47.77423" lon="6.62009">
        <ele>413.97145965073</ele>
        <time>2021-08-21T11:59:58Z</time>
      </trkpt>
      <trkpt lat="47.77414" lon="6.61999">
        <ele>414.03880402293</ele>
        <time>2021-08-21T12:00:00Z</time>
      </trkpt>
      <trkpt lat="47.77404" lon="6.61989">
        <ele>414.09376738124</ele>
        <time>2021-08-21T12:00:02Z</time>
      </trkpt>
      <trkpt lat="47.77395" lon="6.61978">
        <ele>413.97399326323</ele>
        <time>2021-08-21T12:00:04Z</time>
      </trkpt>
      <trkpt lat="47.77385" lon="6.61968">
        <ele>413.84686931911</ele>
        <time>2021-08-21T12:00:06Z</time>
      </trkpt>
      <trkpt lat="47.77376" lon="6.61955">
        <ele>413.72827794572</ele>
        <time>2021-08-21T12:00:08Z</time>
      </trkpt>
      <trkpt lat="47.77366" lon="6.61942">
        <ele>413.64018304924</ele>
        <time>2021-08-21T12:00:10Z</time>
      </trkpt>
      <trkpt lat="47.77357" lon="6.6193">
        <ele>413.54942698355</ele>
        <time>2021-08-21T12:00:12Z</time>
      </trkpt>
      <trkpt lat="47.77349" lon="6.61916">
        <ele>413.44894376924</ele>
        <time>2021-08-21T12:00:14Z</time>
      </trkpt>
      <trkpt lat="47.77341" lon="6.61903">
        <ele>413.42673839335</ele>
        <time>2021-08-21T12:00:16Z</time>
      </trkpt>
      <trkpt lat="47.77332" lon="6.61889">
        <ele>413.35676066253</ele>
        <time>2021-08-21T12:00:18Z</time>
      </trkpt>
      <trkpt lat="47.77324" lon="6.61875">
        <ele>413.23287997699</ele>
        <time>2021-08-21T12:00:20Z</time>
      </trkpt>
      <trkpt lat="47.77316" lon="6.61861">
        <ele>413.18397179444</ele>
        <time>2021-08-21T12:00:22Z</time>
      </trkpt>
      <trkpt lat="47.77308" lon="6.61846">
        <ele>413.13953651493</ele>
        <time>2021-08-21T12:00:24Z</time>
      </trkpt>
      <trkpt lat="47.77299" lon="6.61832">
        <ele>413.04816551505</ele>
        <time>2021-08-21T12:00:26Z</time>
      </trkpt>
      <trkpt lat="47.77291" lon="6.61818">
        <ele>412.80804696312</ele>
        <time>2021-08-21T12:00:28Z</time>
      </trkpt>
      <trkpt lat="47.77282" lon="6.61804">
        <ele>412.58151824524</ele>
        <time>2021-08-21T12:00:30Z</time>
      </trkpt>
      <trkpt lat="47.77274" lon="6.61789">
        <ele>412.40342071723</ele>
        <time>2021-08-21T12:00:32Z</time>
      </trkpt>
      <trkpt lat="47.77265" lon="6.61774">
        <ele>412.29427918396</ele>
        <time>2021-08-21T12:00:34Z</time>
      </trkpt>
      <trkpt lat="47.77256" lon="6.6176">
        <ele>412.20919136662</ele>
        <time>2021-08-21T12:00:36Z</time>
      </trkpt>
      <trkpt lat="47.77248" lon="6.61745">
        <ele>412.13232493171</ele>
        <time>2021-08-21T12:00:38Z</time>
      </trkpt>
      <trkpt lat="47.77239" lon="6.61729">
        <ele>412.11646982847</ele>
        <time>2021-08-21T12:00:40Z</time>
      </trkpt>
      <trkpt lat="47.7723" lon="6.61715">
        <ele>412.05901927723</ele>
        <time>2021-08-21T12:00:42Z</time>
      </trkpt>
      <trkpt lat="47.77221" lon="6.617">
        <ele>412.06432663999</ele>
        <time>2021-08-21T12:00:44Z</time>
      </trkpt>
      <trkpt lat="47.77212" lon="6.61686">
        <ele>412.036355196</ele>
        <time>2021-08-21T12:00:46Z</time>
      </trkpt>
      <trkpt lat="47.77204" lon="6.61671">
        <ele>412.01246247419</ele>
        <time>2021-08-21T12:00:48Z</time>
      </trkpt>
      <trkpt lat="47.77196" lon="6.61657">
        <ele>412.05789565662</ele>
        <time>2021-08-21T12:00:50Z</time>
      </trkpt>
      <trkpt lat="47.77187" lon="6.61643">
        <ele>412.09633192018</ele>
        <time>2021-08-21T12:00:52Z</time>
      </trkpt>
      <trkpt lat="47.77179" lon="6.61629">
        <ele>412.15975894523</ele>
        <time>2021-08-21T12:00:54Z</time>
      </trkpt>
      <trkpt lat="47.7717" lon="6.61614">
        <ele>412.17734715979</ele>
        <time>2021-08-21T12:00:56Z</time>
      </trkpt>
      <trkpt lat="47.77162" lon="6.616">
        <ele>412.15554159102</ele>
        <time>2021-08-21T12:00:58Z</time>
      </trkpt>
      <trkpt lat="47.77153" lon="6.61586">
        <ele>412.13537849552</ele>
        <time>2021-08-21T12:01:00Z</time>
      </trkpt>
      <trkpt lat="47.77144" lon="6.61573">
        <ele>412.00764498402</ele>
        <time>2021-08-21T12:01:02Z</time>
      </trkpt>
      <trkpt lat="47.77135" lon="6.61559">
        <ele>411.88728670038</ele>
        <time>2021-08-21T12:01:04Z</time>
      </trkpt>
      <trkpt lat="47.77127" lon="6.61545">
        <ele>411.67409984816</ele>
        <time>2021-08-21T12:01:06Z</time>
      </trkpt>
      <trkpt lat="47.77118" lon="6.61532">
        <ele>411.42168923674</ele>
        <time>2021-08-21T12:01:08Z</time>
      </trkpt>
      <trkpt lat="47.7711" lon="6.61518">
        <ele>411.22007602069</ele>
        <time>2021-08-21T12:01:10Z</time>
      </trkpt>
      <trkpt lat="47.77102" lon="6.61503">
        <ele>411.07384679293</ele>
        <time>2021-08-21T12:01:12Z</time>
      </trkpt>
      <trkpt lat="47.77094" lon="6.6149">
        <ele>411.03135851555</ele>
        <time>2021-08-21T12:01:14Z</time>
      </trkpt>
      <trkpt lat="47.77086" lon="6.61476">
        <ele>411.15756737821</ele>
        <time>2021-08-21T12:01:16Z</time>
      </trkpt>
      <trkpt lat="47.77078" lon="6.61462">
        <ele>411.24467100933</ele>
        <time>2021-08-21T12:01:18Z</time>
      </trkpt>
      <trkpt lat="47.7707" lon="6.61448">
        <ele>411.27909681664</ele>
        <time>2021-08-21T12:01:20Z</time>
      </trkpt>
      <trkpt lat="47.77062" lon="6.61434">
        <ele>411.2294996584</ele>
        <time>2021-08-21T12:01:22Z</time>
      </trkpt>
      <trkpt lat="47.77055" lon="6.6142">
        <ele>411.13235994197</ele>
        <time>2021-08-21T12:01:24Z</time>
      </trkpt>
      <trkpt lat="47.77046" lon="6.61406">
        <ele>411.0097086707</ele>
        <time>2021-08-21T12:01:26Z</time>
      </trkpt>
      <trkpt lat="47.77038" lon="6.61392">
        <ele>410.9222310913</ele>
        <time>2021-08-21T12:01:28Z</time>
      </trkpt>
      <trkpt lat="47.77031" lon="6.61376">
        <ele>410.83471248752</ele>
        <time>2021-08-21T12:01:30Z</time>
      </trkpt>
      <trkpt lat="47.77024" lon="6.61361">
        <ele>410.79025675054</ele>
        <time>2021-08-21T12:01:32Z</time>
      </trkpt>
      <trkpt lat="47.77018" lon="6.61346">
        <ele>410.73862311872</ele>
        <time>2021-08-21T12:01:34Z</time>
      </trkpt>
      <trkpt lat="47.77012" lon="6.61332">
        <ele>410.66840407835</ele>
        <time>2021-08-21T12:01:36Z</time>
      </trkpt>
      <trkpt lat="47.77006" lon="6.61318">
        <ele>410.54686549369</ele>
        <time>2021-08-21T12:01:38Z</time>
      </trkpt>
      <trkpt lat="47.77" lon="6.61303">
        <ele>410.35197090106</ele>
        <time>2021-08-21T12:01:40Z</time>
      </trkpt>
      <trkpt lat="47.76993" lon="6.61288">
        <ele>410.14218700773</ele>
        <time>2021-08-21T12:01:42Z</time>
      </trkpt>
      <trkpt lat="47.76987" lon="6.61271">
        <ele>409.97533704341</ele>
        <time>2021-08-21T12:01:44Z</time>
      </trkpt>
      <trkpt lat="47.7698" lon="6.61256">
        <ele>409.86061157631</ele>
        <time>2021-08-21T12:01:46Z</time>
      </trkpt>
      <trkpt lat="47.76974" lon="6.6124">
        <ele>409.85926325335</ele>
        <time>2021-08-21T12:01:48Z</time>
      </trkpt>
      <trkpt lat="47.76967" lon="6.61225">
        <ele>409.93197760662</ele>
        <time>2021-08-21T12:01:50Z</time>
      </trkpt>
      <trkpt lat="47.7696" lon="6.61211">
        <ele>410.08312322608</ele>
        <time>2021-08-21T12:01:52Z</time>
      </trkpt>
      <trkpt lat="47.76953" lon="6.61198">
        <ele>410.22450981763</ele>
        <time>2021-08-21T12:01:54Z</time>
      </trkpt>
      <trkpt lat="47.76946" lon="6.61184">
        <ele>410.29786161162</ele>
        <time>2021-08-21T12:01:56Z</time>
      </trkpt>
      <trkpt lat="47.7694" lon="6.61169">
        <ele>410.34199484437</ele>
        <time>2021-08-21T12:01:58Z</time>
      </trkpt>
      <trkpt lat="47.76934" lon="6.61154">
        <ele>410.45329544617</ele>
        <time>2021-08-21T12:02:00Z</time>
      </trkpt>
      <trkpt lat="47.76927" lon="6.61141">
        <ele>410.60687278183</ele>
        <time>2021-08-21T12:02:02Z</time>
      </trkpt>
      <trkpt lat="47.7692" lon="6.61129">
        <ele>410.63335309179</ele>
        <time>2021-08-21T12:02:04Z</time>
      </trkpt>
      <trkpt lat="47.76913" lon="6.61117">
        <ele>410.64446156543</ele>
        <time>2021-08-21T12:02:06Z</time>
      </trkpt>
      <trkpt lat="47.76905" lon="6.61105">
        <ele>410.66274580704</ele>
        <time>2021-08-21T12:02:08Z</time>
      </trkpt>
      <trkpt lat="47.76897" lon="6.61095">
        <ele>410.58681116519</ele>
        <time>2021-08-21T12:02:10Z</time>
      </trkpt>
      <trkpt lat="47.76889" lon="6.61084">
        <ele>410.48380547603</ele>
        <time>2021-08-21T12:02:12Z</time>
      </trkpt>
      <trkpt lat="47.7688" lon="6.61071">
        <ele>410.46450366036</ele>
        <time>2021-08-21T12:02:14Z</time>
      </trkpt>
      <trkpt lat="47.76872" lon="6.61059">
        <ele>410.41326545939</ele>
        <time>2021-08-21T12:02:16Z</time>
      </trkpt>
      <trkpt lat="47.76864" lon="6.61047">
        <ele>410.32546673104</ele>
        <time>2021-08-21T12:02:18Z</time>
      </trkpt>
      <trkpt lat="47.76856" lon="6.61035">
        <ele>410.23524514387</ele>
        <time>2021-08-21T12:02:20Z</time>
      </trkpt>
      <trkpt lat="47.76849" lon="6.61024">
        <ele>410.15302786748</ele>
        <time>2021-08-21T12:02:22Z</time>
      </trkpt>
      <trkpt lat="47.76841" lon="6.61013">
        <ele>410.22390256562</ele>
        <time>2021-08-21T12:02:24Z</time>
      </trkpt>
      <trkpt lat="47.76833" lon="6.61003">
        <ele>410.32005114151</ele>
        <time>2021-08-21T12:02:26Z</time>
      </trkpt>
      <trkpt lat="47.76824" lon="6.60993">
        <ele>410.37004550515</ele>
        <time>2021-08-21T12:02:28Z</time>
      </trkpt>
      <trkpt lat="47.76816" lon="6.60984">
        <ele>410.35230120241</ele>
        <time>2021-08-21T12:02:30Z</time>
      </trkpt>
      <trkpt lat="47.76807" lon="6.60977">
        <ele>410.28034836026</ele>
        <time>2021-08-21T12:02:32Z</time>
      </trkpt>
      <trkpt lat="47.76797" lon="6.60969">
        <ele>410.13481839154</ele>
        <time>2021-08-21T12:02:34Z</time>
      </trkpt>
      <trkpt lat="47.76788" lon="6.60962">
        <ele>409.98485444794</ele>
        <time>2021-08-21T12:02:36Z</time>
      </trkpt>
      <trkpt lat="47.76779" lon="6.60954">
        <ele>409.86195597746</ele>
        <time>2021-08-21T12:02:38Z</time>
      </trkpt>
      <trkpt lat="47.76769" lon="6.60946">
        <ele>409.78278977586</ele>
        <time>2021-08-21T12:02:40Z</time>
      </trkpt>
      <trkpt lat="47.7676" lon="6.60939">
        <ele>409.72783104476</ele>
        <time>2021-08-21T12:02:42Z</time>
      </trkpt>
      <trkpt lat="47.7675" lon="6.60931">
        <ele>409.67789308451</ele>
        <time>2021-08-21T12:02:44Z</time>
      </trkpt>
      <trkpt lat="47.7674" lon="6.60922">
        <ele>409.58412511228</ele>
        <time>2021-08-21T12:02:46Z</time>
      </trkpt>
      <trkpt lat="47.7673" lon="6.60913">
        <ele>409.4763242251</ele>
        <time>2021-08-21T12:02:48Z</time>
      </trkpt>
      <trkpt lat="47.7672" lon="6.60904">
        <ele>409.34917673366</ele>
        <time>2021-08-21T12:02:50Z</time>
      </trkpt>
      <trkpt lat="47.76709" lon="6.60895">
        <ele>409.19741492805</ele>
        <time>2021-08-21T12:02:52Z</time>
      </trkpt>
      <trkpt lat="47.76699" lon="6.60885">
        <ele>408.98344948853</ele>
        <time>2021-08-21T12:02:54Z</time>
      </trkpt>
      <trkpt lat="47.76688" lon="6.60876">
        <ele>408.78313823058</ele>
        <time>2021-08-21T12:02:56Z</time>
      </trkpt>
      <trkpt lat="47.76677" lon="6.60867">
        <ele>408.60176980099</ele>
        <time>2021-08-21T12:02:58Z</time>
      </trkpt>
      <trkpt lat="47.76667" lon="6.60857">
        <ele>408.4604534034</ele>
        <time>2021-08-21T12:03:00Z</time>
      </trkpt>
      <trkpt lat="47.76657" lon="6.60846">
        <ele>408.36993287082</ele>
        <time>2021-08-21T12:03:02Z</time>
      </trkpt>
      <trkpt lat="47.76648" lon="6.60837">
        <ele>408.29062797275</ele>
        <time>2021-08-21T12:03:04Z</time>
      </trkpt>
      <trkpt lat="47.76638" lon="6.60828">
        <ele>408.17614648236</ele>
        <time>2021-08-21T12:03:06Z</time>
      </trkpt>
      <trkpt lat="47.76628" lon="6.60818">
        <ele>408.03220948481</ele>
        <time>2021-08-21T12:03:08Z</time>
      </trkpt>
      <trkpt lat="47.76618" lon="6.60808">
        <ele>407.91682326511</ele>
        <time>2021-08-21T12:03:10Z</time>
      </trkpt>
      <trkpt lat="47.76609" lon="6.60799">
        <ele>407.87766141766</ele>
        <time>2021-08-21T12:03:12Z</time>
      </trkpt>
      <trkpt lat="47.766" lon="6.60789">
        <ele>407.60897189412</ele>
        <time>2021-08-21T12:03:14Z</time>
      </trkpt>
      <trkpt lat="47.76591" lon="6.6078">
        <ele>407.31007426626</ele>
        <time>2021-08-21T12:03:16Z</time>
      </trkpt>
      <trkpt lat="47.76582" lon="6.60769">
        <ele>407.36400303293</ele>
        <time>2021-08-21T12:03:18Z</time>
      </trkpt>
      <trkpt lat="47.76573" lon="6.6076">
        <ele>407.23146630631</ele>
        <time>2021-08-21T12:03:20Z</time>
      </trkpt>
      <trkpt lat="47.76564" lon="6.60751">
        <ele>407.12821972266</ele>
        <time>2021-08-21T12:03:22Z</time>
      </trkpt>
      <trkpt lat="47.76556" lon="6.60742">
        <ele>407.01338521092</ele>
        <time>2021-08-21T12:03:24Z</time>
      </trkpt>
      <trkpt lat="47.76547" lon="6.60734">
        <ele>406.87273570324</ele>
        <time>2021-08-21T12:03:26Z</time>
      </trkpt>
      <trkpt lat="47.76538" lon="6.60726">
        <ele>406.64910851671</ele>
        <time>2021-08-21T12:03:28Z</time>
      </trkpt>
      <trkpt lat="47.76526" lon="6.60722">
        <ele>406.43993615556</ele>
        <time>2021-08-21T12:03:30Z</time>
      </trkpt>
      <trkpt lat="47.76513" lon="6.60721">
        <ele>406.51033202225</ele>
        <time>2021-08-21T12:03:32Z</time>
      </trkpt>
      <trkpt lat="47.76501" lon="6.60726">
        <ele>406.44985211832</ele>
        <time>2021-08-21T12:03:34Z</time>
      </trkpt>
      <trkpt lat="47.76491" lon="6.60731">
        <ele>406.39721363554</ele>
        <time>2021-08-21T12:03:36Z</time>
      </trkpt>
      <trkpt lat="47.76481" lon="6.60737">
        <ele>406.4037090627</ele>
        <time>2021-08-21T12:03:38Z</time>
      </trkpt>
      <trkpt lat="47.7647" lon="6.60741">
        <ele>406.35374093571</ele>
        <time>2021-08-21T12:03:40Z</time>
      </trkpt>
      <trkpt lat="47.7646" lon="6.60743">
        <ele>406.26659919438</ele>
        <time>2021-08-21T12:03:42Z</time>
      </trkpt>
      <trkpt lat="47.76448" lon="6.60745">
        <ele>406.22960252305</ele>
        <time>2021-08-21T12:03:44Z</time>
      </trkpt>
      <trkpt lat="47.76434" lon="6.60745">
        <ele>406.21681239877</ele>
        <time>2021-08-21T12:03:46Z</time>
      </trkpt>
      <trkpt lat="47.7642" lon="6.60745">
        <ele>406.21017584134</ele>
        <time>2021-08-21T12:03:48Z</time>
      </trkpt>
      <trkpt lat="47.76406" lon="6.60745">
        <ele>406.08786252185</ele>
        <time>2021-08-21T12:03:50Z</time>
      </trkpt>
      <trkpt lat="47.76391" lon="6.60746">
        <ele>405.9935144341</ele>
        <time>2021-08-21T12:03:52Z</time>
      </trkpt>
      <trkpt lat="47.76377" lon="6.60751">
        <ele>405.92123690229</ele>
        <time>2021-08-21T12:03:54Z</time>
      </trkpt>
      <trkpt lat="47.76364" lon="6.60759">
        <ele>405.82205440352</ele>
        <time>2021-08-21T12:03:56Z</time>
      </trkpt>
      <trkpt lat="47.76351" lon="6.6077">
        <ele>405.58989373627</ele>
        <time>2021-08-21T12:03:58Z</time>
      </trkpt>
      <trkpt lat="47.76339" lon="6.60781">
        <ele>405.27308264721</ele>
        <time>2021-08-21T12:04:00Z</time>
      </trkpt>
      <trkpt lat="47.76328" lon="6.60793">
        <ele>405.01626134774</ele>
        <time>2021-08-21T12:04:02Z</time>
      </trkpt>
      <trkpt lat="47.76316" lon="6.60803">
        <ele>404.77490392337</ele>
        <time>2021-08-21T12:04:04Z</time>
      </trkpt>
      <trkpt lat="47.76304" lon="6.60813">
        <ele>404.57759251302</ele>
        <time>2021-08-21T12:04:06Z</time>
      </trkpt>
      <trkpt lat="47.76292" lon="6.60822">
        <ele>404.53679394385</ele>
        <time>2021-08-21T12:04:08Z</time>
      </trkpt>
      <trkpt lat="47.76281" lon="6.60832">
        <ele>404.47399777367</ele>
        <time>2021-08-21T12:04:10Z</time>
      </trkpt>
      <trkpt lat="47.7627" lon="6.6084">
        <ele>404.18004983313</ele>
        <time>2021-08-21T12:04:12Z</time>
      </trkpt>
      <trkpt lat="47.76259" lon="6.60851">
        <ele>403.79636751897</ele>
        <time>2021-08-21T12:04:14Z</time>
      </trkpt>
      <trkpt lat="47.76248" lon="6.6086">
        <ele>403.42746741481</ele>
        <time>2021-08-21T12:04:16Z</time>
      </trkpt>
      <trkpt lat="47.76237" lon="6.60866">
        <ele>403.20917141093</ele>
        <time>2021-08-21T12:04:18Z</time>
      </trkpt>
      <trkpt lat="47.76226" lon="6.60871">
        <ele>402.96707488799</ele>
        <time>2021-08-21T12:04:20Z</time>
      </trkpt>
      <trkpt lat="47.76214" lon="6.60875">
        <ele>402.84610366462</ele>
        <time>2021-08-21T12:04:22Z</time>
      </trkpt>
      <trkpt lat="47.76202" lon="6.60878">
        <ele>402.78547176952</ele>
        <time>2021-08-21T12:04:24Z</time>
      </trkpt>
      <trkpt lat="47.7619" lon="6.60878">
        <ele>402.74529054266</ele>
        <time>2021-08-21T12:04:26Z</time>
      </trkpt>
      <trkpt lat="47.76178" lon="6.60874">
        <ele>402.71022246476</ele>
        <time>2021-08-21T12:04:28Z</time>
      </trkpt>
      <trkpt lat="47.76166" lon="6.60871">
        <ele>402.90801392627</ele>
        <time>2021-08-21T12:04:30Z</time>
      </trkpt>
      <trkpt lat="47.76155" lon="6.60867">
        <ele>403.11858818032</ele>
        <time>2021-08-21T12:04:32Z</time>
      </trkpt>
      <trkpt lat="47.76144" lon="6.60862">
        <ele>403.24689001887</ele>
        <time>2021-08-21T12:04:34Z</time>
      </trkpt>
      <trkpt lat="47.76134" lon="6.60858">
        <ele>403.48937837801</ele>
        <time>2021-08-21T12:04:36Z</time>
      </trkpt>
      <trkpt lat="47.76123" lon="6.60854">
        <ele>403.65284386826</ele>
        <time>2021-08-21T12:04:38Z</time>
      </trkpt>
      <trkpt lat="47.76112" lon="6.60849">
        <ele>403.68792371172</ele>
        <time>2021-08-21T12:04:40Z</time>
      </trkpt>
      <trkpt lat="47.76101" lon="6.60843">
        <ele>403.70979767882</ele>
        <time>2021-08-21T12:04:42Z</time>
      </trkpt>
      <trkpt lat="47.7609" lon="6.60837">
        <ele>403.77566467031</ele>
        <time>2021-08-21T12:04:44Z</time>
      </trkpt>
      <trkpt lat="47.76079" lon="6.60832">
        <ele>403.8555202246</ele>
        <time>2021-08-21T12:04:46Z</time>
      </trkpt>
      <trkpt lat="47.76068" lon="6.60824">
        <ele>403.95944997405</ele>
        <time>2021-08-21T12:04:48Z</time>
      </trkpt>
      <trkpt lat="47.76057" lon="6.60817">
        <ele>404.00771005023</ele>
        <time>2021-08-21T12:04:50Z</time>
      </trkpt>
      <trkpt lat="47.76046" lon="6.60807">
        <ele>403.78317796454</ele>
        <time>2021-08-21T12:04:52Z</time>
      </trkpt>
      <trkpt lat="47.76035" lon="6.60798">
        <ele>403.58690315608</ele>
        <time>2021-08-21T12:04:54Z</time>
      </trkpt>
      <trkpt lat="47.76023" lon="6.60789">
        <ele>403.5811433278</ele>
        <time>2021-08-21T12:04:56Z</time>
      </trkpt>
      <trkpt lat="47.76012" lon="6.6078">
        <ele>403.63189073715</ele>
        <time>2021-08-21T12:04:58Z</time>
      </trkpt>
      <trkpt lat="47.76" lon="6.6077">
        <ele>403.58889934693</ele>
        <time>2021-08-21T12:05:00Z</time>
      </trkpt>
      <trkpt lat="47.7599" lon="6.60759">
        <ele>403.44779845043</ele>
        <time>2021-08-21T12:05:02Z</time>
      </trkpt>
      <trkpt lat="47.75978" lon="6.60749">
        <ele>403.28177671231</ele>
        <time>2021-08-21T12:05:04Z</time>
      </trkpt>
      <trkpt lat="47.75967" lon="6.60739">
        <ele>403.16875391048</ele>
        <time>2021-08-21T12:05:06Z</time>
      </trkpt>
      <trkpt lat="47.75956" lon="6.60731">
        <ele>403.06635123713</ele>
        <time>2021-08-21T12:05:08Z</time>
      </trkpt>
      <trkpt lat="47.75945" lon="6.60722">
        <ele>402.97267668526</ele>
        <time>2021-08-21T12:05:10Z</time>
      </trkpt>
      <trkpt lat="47.75935" lon="6.60713">
        <ele>402.85310962366</ele>
        <time>2021-08-21T12:05:12Z</time>
      </trkpt>
      <trkpt lat="47.75924" lon="6.60703">
        <ele>402.61741269305</ele>
        <time>2021-08-21T12:05:14Z</time>
      </trkpt>
      <trkpt lat="47.75913" lon="6.60696">
        <ele>402.39728988673</ele>
        <time>2021-08-21T12:05:16Z</time>
      </trkpt>
      <trkpt lat="47.75904" lon="6.60686">
        <ele>401.82968208724</ele>
        <time>2021-08-21T12:05:18Z</time>
      </trkpt>
      <trkpt lat="47.75894" lon="6.60676">
        <ele>401.1571400941</ele>
        <time>2021-08-21T12:05:20Z</time>
      </trkpt>
      <trkpt lat="47.75884" lon="6.60662">
        <ele>400.36459670123</ele>
        <time>2021-08-21T12:05:22Z</time>
      </trkpt>
      <trkpt lat="47.75874" lon="6.60649">
        <ele>400.01345875351</ele>
        <time>2021-08-21T12:05:24Z</time>
      </trkpt>
      <trkpt lat="47.75864" lon="6.60633">
        <ele>399.95531568745</ele>
        <time>2021-08-21T12:05:26Z</time>
      </trkpt>
      <trkpt lat="47.75854" lon="6.60617">
        <ele>399.90431998426</ele>
        <time>2021-08-21T12:05:28Z</time>
      </trkpt>
      <trkpt lat="47.75844" lon="6.60599">
        <ele>399.76104036349</ele>
        <time>2021-08-21T12:05:30Z</time>
      </trkpt>
      <trkpt lat="47.75835" lon="6.60582">
        <ele>399.73023944475</ele>
        <time>2021-08-21T12:05:32Z</time>
      </trkpt>
      <trkpt lat="47.75826" lon="6.60565">
        <ele>399.37207900988</ele>
        <time>2021-08-21T12:05:34Z</time>
      </trkpt>
      <trkpt lat="47.75817" lon="6.60548">
        <ele>399.1776887748</ele>
        <time>2021-08-21T12:05:36Z</time>
      </trkpt>
      <trkpt lat="47.75808" lon="6.60532">
        <ele>398.92419842476</ele>
        <time>2021-08-21T12:05:38Z</time>
      </trkpt>
      <trkpt lat="47.758" lon="6.60518">
        <ele>398.75616485727</ele>
        <time>2021-08-21T12:05:40Z</time>
      </trkpt>
      <trkpt lat="47.75792" lon="6.60502">
        <ele>398.76018424909</ele>
        <time>2021-08-21T12:05:42Z</time>
      </trkpt>
      <trkpt lat="47.75784" lon="6.60487">
        <ele>398.91568663609</ele>
        <time>2021-08-21T12:05:44Z</time>
      </trkpt>
      <trkpt lat="47.75776" lon="6.60472">
        <ele>398.98132096864</ele>
        <time>2021-08-21T12:05:46Z</time>
      </trkpt>
      <trkpt lat="47.75768" lon="6.60457">
        <ele>399.30063804246</ele>
        <time>2021-08-21T12:05:48Z</time>
      </trkpt>
      <trkpt lat="47.7576" lon="6.60442">
        <ele>399.35217012643</ele>
        <time>2021-08-21T12:05:50Z</time>
      </trkpt>
      <trkpt lat="47.75751" lon="6.60427">
        <ele>399.25131280224</ele>
        <time>2021-08-21T12:05:52Z</time>
      </trkpt>
      <trkpt lat="47.75743" lon="6.60413">
        <ele>398.98844061595</ele>
        <time>2021-08-21T12:05:54Z</time>
      </trkpt>
      <trkpt lat="47.75735" lon="6.60399">
        <ele>398.91990315505</ele>
        <time>2021-08-21T12:05:56Z</time>
      </trkpt>
      <trkpt lat="47.75727" lon="6.60384">
        <ele>398.97997160764</ele>
        <time>2021-08-21T12:05:58Z</time>
      </trkpt>
      <trkpt lat="47.7572" lon="6.60368">
        <ele>399.24662802474</ele>
        <time>2021-08-21T12:06:00Z</time>
      </trkpt>
      <trkpt lat="47.75714" lon="6.60352">
        <ele>399.5251017442</ele>
        <time>2021-08-21T12:06:02Z</time>
      </trkpt>
      <trkpt lat="47.75709" lon="6.60336">
        <ele>399.40921112479</ele>
        <time>2021-08-21T12:06:04Z</time>
      </trkpt>
      <trkpt lat="47.75702" lon="6.60319">
        <ele>400.06375252957</ele>
        <time>2021-08-21T12:06:06Z</time>
      </trkpt>
      <trkpt lat="47.75696" lon="6.60304">
        <ele>400.33428516506</ele>
        <time>2021-08-21T12:06:08Z</time>
      </trkpt>
      <trkpt lat="47.75691" lon="6.60288">
        <ele>400.36388205181</ele>
        <time>2021-08-21T12:06:10Z</time>
      </trkpt>
      <trkpt lat="47.75685" lon="6.60273">
        <ele>400.03415470699</ele>
        <time>2021-08-21T12:06:12Z</time>
      </trkpt>
      <trkpt lat="47.75679" lon="6.60258">
        <ele>399.79925281185</ele>
        <time>2021-08-21T12:06:14Z</time>
      </trkpt>
      <trkpt lat="47.75674" lon="6.60242">
        <ele>399.56222767197</ele>
        <time>2021-08-21T12:06:16Z</time>
      </trkpt>
      <trkpt lat="47.75669" lon="6.60227">
        <ele>399.32460216443</ele>
        <time>2021-08-21T12:06:18Z</time>
      </trkpt>
      <trkpt lat="47.75664" lon="6.60211">
        <ele>399.00380167334</ele>
        <time>2021-08-21T12:06:20Z</time>
      </trkpt>
      <trkpt lat="47.75658" lon="6.60196">
        <ele>398.73449218834</ele>
        <time>2021-08-21T12:06:22Z</time>
      </trkpt>
      <trkpt lat="47.75653" lon="6.60179">
        <ele>398.6167938916</ele>
        <time>2021-08-21T12:06:24Z</time>
      </trkpt>
      <trkpt lat="47.75649" lon="6.60161">
        <ele>398.60200985576</ele>
        <time>2021-08-21T12:06:26Z</time>
      </trkpt>
      <trkpt lat="47.75647" lon="6.60143">
        <ele>398.55322641808</ele>
        <time>2021-08-21T12:06:28Z</time>
      </trkpt>
      <trkpt lat="47.75645" lon="6.60126">
        <ele>398.54061532185</ele>
        <time>2021-08-21T12:06:30Z</time>
      </trkpt>
      <trkpt lat="47.75645" lon="6.60108">
        <ele>398.60381043178</ele>
        <time>2021-08-21T12:06:32Z</time>
      </trkpt>
      <trkpt lat="47.75644" lon="6.6009">
        <ele>398.65263881054</ele>
        <time>2021-08-21T12:06:34Z</time>
      </trkpt>
      <trkpt lat="47.75644" lon="6.60074">
        <ele>398.48866774905</ele>
        <time>2021-08-21T12:06:36Z</time>
      </trkpt>
      <trkpt lat="47.75645" lon="6.60056">
        <ele>398.35780941514</ele>
        <time>2021-08-21T12:06:38Z</time>
      </trkpt>
      <trkpt lat="47.75645" lon="6.60038">
        <ele>398.23693027832</ele>
        <time>2021-08-21T12:06:40Z</time>
      </trkpt>
      <trkpt lat="47.75645" lon="6.60021">
        <ele>398.03328849541</ele>
        <time>2021-08-21T12:06:42Z</time>
      </trkpt>
      <trkpt lat="47.75644" lon="6.60004">
        <ele>397.88350600916</ele>
        <time>2021-08-21T12:06:44Z</time>
      </trkpt>
      <trkpt lat="47.75642" lon="6.59987">
        <ele>397.72715498984</ele>
        <time>2021-08-21T12:06:46Z</time>
      </trkpt>
      <trkpt lat="47.75639" lon="6.59969">
        <ele>397.61275422403</ele>
        <time>2021-08-21T12:06:48Z</time>
      </trkpt>
      <trkpt lat="47.75635" lon="6.59951">
        <ele>397.4581757285</ele>
        <time>2021-08-21T12:06:50Z</time>
      </trkpt>
      <trkpt lat="47.7563" lon="6.59934">
        <ele>397.35821699351</ele>
        <time>2021-08-21T12:06:52Z</time>
      </trkpt>
      <trkpt lat="47.75625" lon="6.59916">
        <ele>397.23440646498</ele>
        <time>2021-08-21T12:06:54Z</time>
      </trkpt>
      <trkpt lat="47.7562" lon="6.59898">
        <ele>397.05757665924</ele>
        <time>2021-08-21T12:06:56Z</time>
      </trkpt>
      <trkpt lat="47.75615" lon="6.59881">
        <ele>396.91822570363</ele>
        <time>2021-08-21T12:06:58Z</time>
      </trkpt>
      <trkpt lat="47.7561" lon="6.59863">
        <ele>396.8688934492</ele>
        <time>2021-08-21T12:07:00Z</time>
      </trkpt>
      <trkpt lat="47.75605" lon="6.59846">
        <ele>396.80853203514</ele>
        <time>2021-08-21T12:07:02Z</time>
      </trkpt>
      <trkpt lat="47.756" lon="6.59828">
        <ele>396.77956985857</ele>
        <time>2021-08-21T12:07:04Z</time>
      </trkpt>
      <trkpt lat="47.75595" lon="6.59811">
        <ele>396.66412238664</ele>
        <time>2021-08-21T12:07:06Z</time>
      </trkpt>
      <trkpt lat="47.75589" lon="6.59795">
        <ele>396.65057442961</ele>
        <time>2021-08-21T12:07:08Z</time>
      </trkpt>
      <trkpt lat="47.75584" lon="6.59778">
        <ele>396.81388684347</ele>
        <time>2021-08-21T12:07:10Z</time>
      </trkpt>
      <trkpt lat="47.7558" lon="6.59761">
        <ele>396.91653762857</ele>
        <time>2021-08-21T12:07:12Z</time>
      </trkpt>
      <trkpt lat="47.75575" lon="6.59745">
        <ele>396.87615036815</ele>
        <time>2021-08-21T12:07:14Z</time>
      </trkpt>
      <trkpt lat="47.75571" lon="6.59728">
        <ele>396.79151805892</ele>
        <time>2021-08-21T12:07:16Z</time>
      </trkpt>
      <trkpt lat="47.75566" lon="6.59711">
        <ele>396.63752963189</ele>
        <time>2021-08-21T12:07:18Z</time>
      </trkpt>
      <trkpt lat="47.75562" lon="6.59694">
        <ele>396.46060565379</ele>
        <time>2021-08-21T12:07:20Z</time>
      </trkpt>
      <trkpt lat="47.75557" lon="6.59677">
        <ele>396.32744667994</ele>
        <time>2021-08-21T12:07:22Z</time>
      </trkpt>
      <trkpt lat="47.75552" lon="6.5966">
        <ele>396.2124662869</ele>
        <time>2021-08-21T12:07:24Z</time>
      </trkpt>
      <trkpt lat="47.75548" lon="6.59644">
        <ele>396.09375266239</ele>
        <time>2021-08-21T12:07:26Z</time>
      </trkpt>
      <trkpt lat="47.75543" lon="6.59628">
        <ele>396.29344212538</ele>
        <time>2021-08-21T12:07:28Z</time>
      </trkpt>
      <trkpt lat="47.75538" lon="6.59612">
        <ele>396.54952823361</ele>
        <time>2021-08-21T12:07:30Z</time>
      </trkpt>
      <trkpt lat="47.75533" lon="6.59596">
        <ele>396.7576673831</ele>
        <time>2021-08-21T12:07:32Z</time>
      </trkpt>
      <trkpt lat="47.75529" lon="6.5958">
        <ele>396.87653462144</ele>
        <time>2021-08-21T12:07:34Z</time>
      </trkpt>
      <trkpt lat="47.75524" lon="6.59564">
        <ele>397.01581346715</ele>
        <time>2021-08-21T12:07:36Z</time>
      </trkpt>
      <trkpt lat="47.75519" lon="6.59548">
        <ele>397.11366390334</ele>
        <time>2021-08-21T12:07:38Z</time>
      </trkpt>
      <trkpt lat="47.75516" lon="6.59531">
        <ele>397.06551624603</ele>
        <time>2021-08-21T12:07:40Z</time>
      </trkpt>
      <trkpt lat="47.75512" lon="6.59516">
        <ele>397.47399823355</ele>
        <time>2021-08-21T12:07:42Z</time>
      </trkpt>
      <trkpt lat="47.7551" lon="6.59499">
        <ele>397.89949183555</ele>
        <time>2021-08-21T12:07:44Z</time>
      </trkpt>
      <trkpt lat="47.75507" lon="6.59482">
        <ele>398.43334738537</ele>
        <time>2021-08-21T12:07:46Z</time>
      </trkpt>
      <trkpt lat="47.75506" lon="6.59466">
        <ele>398.90531198806</ele>
        <time>2021-08-21T12:07:48Z</time>
      </trkpt>
      <trkpt lat="47.75505" lon="6.59448">
        <ele>399.30566526362</ele>
        <time>2021-08-21T12:07:50Z</time>
      </trkpt>
      <trkpt lat="47.75504" lon="6.59429">
        <ele>399.63475539772</ele>
        <time>2021-08-21T12:07:52Z</time>
      </trkpt>
      <trkpt lat="47.75504" lon="6.59412">
        <ele>399.85047434368</ele>
        <time>2021-08-21T12:07:54Z</time>
      </trkpt>
      <trkpt lat="47.75504" lon="6.59393">
        <ele>399.97090784822</ele>
        <time>2021-08-21T12:07:56Z</time>
      </trkpt>
      <trkpt lat="47.75503" lon="6.59374">
        <ele>400.10372227871</ele>
        <time>2021-08-21T12:07:58Z</time>
      </trkpt>
      <trkpt lat="47.75502" lon="6.59355">
        <ele>400.22017819549</ele>
        <time>2021-08-21T12:08:00Z</time>
      </trkpt>
      <trkpt lat="47.75501" lon="6.59335">
        <ele>400.29718351484</ele>
        <time>2021-08-21T12:08:02Z</time>
      </trkpt>
      <trkpt lat="47.75501" lon="6.59315">
        <ele>400.30168024871</ele>
        <time>2021-08-21T12:08:04Z</time>
      </trkpt>
      <trkpt lat="47.755" lon="6.59296">
        <ele>400.2538678532</ele>
        <time>2021-08-21T12:08:06Z</time>
      </trkpt>
      <trkpt lat="47.75498" lon="6.59276">
        <ele>400.147212854</ele>
        <time>2021-08-21T12:08:08Z</time>
      </trkpt>
      <trkpt lat="47.75498" lon="6.59255">
        <ele>400.08031405579</ele>
        <time>2021-08-21T12:08:10Z</time>
      </trkpt>
      <trkpt lat="47.75498" lon="6.59233">
        <ele>400.04360373112</ele>
        <time>2021-08-21T12:08:12Z</time>
      </trkpt>
      <trkpt lat="47.75497" lon="6.59212">
        <ele>400.04684907172</ele>
        <time>2021-08-21T12:08:14Z</time>
      </trkpt>
      <trkpt lat="47.75497" lon="6.59191">
        <ele>400.1078807646</ele>
        <time>2021-08-21T12:08:16Z</time>
      </trkpt>
      <trkpt lat="47.75496" lon="6.5917">
        <ele>400.21825468099</ele>
        <time>2021-08-21T12:08:18Z</time>
      </trkpt>
      <trkpt lat="47.75495" lon="6.5915">
        <ele>400.28947175142</ele>
        <time>2021-08-21T12:08:20Z</time>
      </trkpt>
      <trkpt lat="47.75494" lon="6.59131">
        <ele>400.34540132238</ele>
        <time>2021-08-21T12:08:22Z</time>
      </trkpt>
      <trkpt lat="47.75492" lon="6.59113">
        <ele>400.45838414951</ele>
        <time>2021-08-21T12:08:24Z</time>
      </trkpt>
      <trkpt lat="47.75492" lon="6.59095">
        <ele>400.34179690463</ele>
        <time>2021-08-21T12:08:26Z</time>
      </trkpt>
      <trkpt lat="47.75492" lon="6.59078">
        <ele>400.151843827</ele>
        <time>2021-08-21T12:08:28Z</time>
      </trkpt>
      <trkpt lat="47.75492" lon="6.59062">
        <ele>400.06695942564</ele>
        <time>2021-08-21T12:08:30Z</time>
      </trkpt>
      <trkpt lat="47.75493" lon="6.59045">
        <ele>400.13514574083</ele>
        <time>2021-08-21T12:08:32Z</time>
      </trkpt>
      <trkpt lat="47.75493" lon="6.59028">
        <ele>400.44155984018</ele>
        <time>2021-08-21T12:08:34Z</time>
      </trkpt>
      <trkpt lat="47.75494" lon="6.59012">
        <ele>400.80573752153</ele>
        <time>2021-08-21T12:08:36Z</time>
      </trkpt>
      <trkpt lat="47.75494" lon="6.58997">
        <ele>401.24101206143</ele>
        <time>2021-08-21T12:08:38Z</time>
      </trkpt>
      <trkpt lat="47.75494" lon="6.58984">
        <ele>401.64869340007</ele>
        <time>2021-08-21T12:08:40Z</time>
      </trkpt>
      <trkpt lat="47.75495" lon="6.5897">
        <ele>401.82327766782</ele>
        <time>2021-08-21T12:08:42Z</time>
      </trkpt>
      <trkpt lat="47.75496" lon="6.58957">
        <ele>401.74751961628</ele>
        <time>2021-08-21T12:08:44Z</time>
      </trkpt>
      <trkpt lat="47.75497" lon="6.58943">
        <ele>401.70271000791</ele>
        <time>2021-08-21T12:08:46Z</time>
      </trkpt>
      <trkpt lat="47.75497" lon="6.58926">
        <ele>401.58919196539</ele>
        <time>2021-08-21T12:08:48Z</time>
      </trkpt>
      <trkpt lat="47.75496" lon="6.5891">
        <ele>401.28790965741</ele>
        <time>2021-08-21T12:08:50Z</time>
      </trkpt>
      <trkpt lat="47.75495" lon="6.58894">
        <ele>401.09969569618</ele>
        <time>2021-08-21T12:08:52Z</time>
      </trkpt>
      <trkpt lat="47.75493" lon="6.58878">
        <ele>400.89164478866</ele>
        <time>2021-08-21T12:08:54Z</time>
      </trkpt>
      <trkpt lat="47.75491" lon="6.58863">
        <ele>400.67118507943</ele>
        <time>2021-08-21T12:08:56Z</time>
      </trkpt>
      <trkpt lat="47.7549" lon="6.58845">
        <ele>400.46365207546</ele>
        <time>2021-08-21T12:08:58Z</time>
      </trkpt>
      <trkpt lat="47.75488" lon="6.58827">
        <ele>400.23372723824</ele>
        <time>2021-08-21T12:09:00Z</time>
      </trkpt>
      <trkpt lat="47.75486" lon="6.58808">
        <ele>400.00387853837</ele>
        <time>2021-08-21T12:09:02Z</time>
      </trkpt>
      <trkpt lat="47.75484" lon="6.58787">
        <ele>399.76478630096</ele>
        <time>2021-08-21T12:09:04Z</time>
      </trkpt>
      <trkpt lat="47.75482" lon="6.58764">
        <ele>399.55830346298</ele>
        <time>2021-08-21T12:09:06Z</time>
      </trkpt>
      <trkpt lat="47.75479" lon="6.58741">
        <ele>399.33787476646</ele>
        <time>2021-08-21T12:09:08Z</time>
      </trkpt>
      <trkpt lat="47.75476" lon="6.58717">
        <ele>399.15356112778</ele>
        <time>2021-08-21T12:09:10Z</time>
      </trkpt>
      <trkpt lat="47.75473" lon="6.58692">
        <ele>398.92916150845</ele>
        <time>2021-08-21T12:09:12Z</time>
      </trkpt>
      <trkpt lat="47.7547" lon="6.58668">
        <ele>398.66784572674</ele>
        <time>2021-08-21T12:09:14Z</time>
      </trkpt>
      <trkpt lat="47.75469" lon="6.58644">
        <ele>398.41496936989</ele>
        <time>2021-08-21T12:09:16Z</time>
      </trkpt>
      <trkpt lat="47.75466" lon="6.5862">
        <ele>398.12530158589</ele>
        <time>2021-08-21T12:09:18Z</time>
      </trkpt>
      <trkpt lat="47.75465" lon="6.58597">
        <ele>397.96718068101</ele>
        <time>2021-08-21T12:09:20Z</time>
      </trkpt>
      <trkpt lat="47.75464" lon="6.58574">
        <ele>397.86832703413</ele>
        <time>2021-08-21T12:09:22Z</time>
      </trkpt>
      <trkpt lat="47.75461" lon="6.58551">
        <ele>397.73445103098</ele>
        <time>2021-08-21T12:09:24Z</time>
      </trkpt>
      <trkpt lat="47.7546" lon="6.58529">
        <ele>397.7522933682</ele>
        <time>2021-08-21T12:09:26Z</time>
      </trkpt>
      <trkpt lat="47.75459" lon="6.58507">
        <ele>397.66595012512</ele>
        <time>2021-08-21T12:09:28Z</time>
      </trkpt>
      <trkpt lat="47.75457" lon="6.58486">
        <ele>397.76046383725</ele>
        <time>2021-08-21T12:09:30Z</time>
      </trkpt>
      <trkpt lat="47.75455" lon="6.58465">
        <ele>397.71174669156</ele>
        <time>2021-08-21T12:09:32Z</time>
      </trkpt>
      <trkpt lat="47.75453" lon="6.58445">
        <ele>397.61718862497</ele>
        <time>2021-08-21T12:09:34Z</time>
      </trkpt>
      <trkpt lat="47.75452" lon="6.58425">
        <ele>397.57456131851</ele>
        <time>2021-08-21T12:09:36Z</time>
      </trkpt>
      <trkpt lat="47.7545" lon="6.58406">
        <ele>397.47984523275</ele>
        <time>2021-08-21T12:09:38Z</time>
      </trkpt>
      <trkpt lat="47.75449" lon="6.58387">
        <ele>397.44312719102</ele>
        <time>2021-08-21T12:09:40Z</time>
      </trkpt>
      <trkpt lat="47.75448" lon="6.58368">
        <ele>397.36321463636</ele>
        <time>2021-08-21T12:09:42Z</time>
      </trkpt>
      <trkpt lat="47.75447" lon="6.58349">
        <ele>397.34120022113</ele>
        <time>2021-08-21T12:09:44Z</time>
      </trkpt>
      <trkpt lat="47.75446" lon="6.58329">
        <ele>397.43144782846</ele>
        <time>2021-08-21T12:09:46Z</time>
      </trkpt>
      <trkpt lat="47.75445" lon="6.58309">
        <ele>397.354477989</ele>
        <time>2021-08-21T12:09:48Z</time>
      </trkpt>
      <trkpt lat="47.75444" lon="6.5829">
        <ele>397.17841257276</ele>
        <time>2021-08-21T12:09:50Z</time>
      </trkpt>
      <trkpt lat="47.75442" lon="6.58272">
        <ele>397.12033344542</ele>
        <time>2021-08-21T12:09:52Z</time>
      </trkpt>
      <trkpt lat="47.75441" lon="6.58254">
        <ele>396.94163433628</ele>
        <time>2021-08-21T12:09:54Z</time>
      </trkpt>
      <trkpt lat="47.7544" lon="6.58237">
        <ele>396.75041806425</ele>
        <time>2021-08-21T12:09:56Z</time>
      </trkpt>
      <trkpt lat="47.7544" lon="6.58222">
        <ele>395.96535637937</ele>
        <time>2021-08-21T12:09:58Z</time>
      </trkpt>
      <trkpt lat="47.75436" lon="6.58207">
        <ele>395.27536583315</ele>
        <time>2021-08-21T12:10:00Z</time>
      </trkpt>
      <trkpt lat="47.7543" lon="6.58194">
        <ele>394.96859700515</ele>
        <time>2021-08-21T12:10:02Z</time>
      </trkpt>
      <trkpt lat="47.75422" lon="6.58183">
        <ele>394.59860080265</ele>
        <time>2021-08-21T12:10:04Z</time>
      </trkpt>
      <trkpt lat="47.75413" lon="6.58172">
        <ele>394.32928231944</ele>
        <time>2021-08-21T12:10:06Z</time>
      </trkpt>
      <trkpt lat="47.75405" lon="6.58162">
        <ele>394.14074023759</ele>
        <time>2021-08-21T12:10:08Z</time>
      </trkpt>
      <trkpt lat="47.75399" lon="6.58153">
        <ele>393.85507266865</ele>
        <time>2021-08-21T12:10:10Z</time>
      </trkpt>
      <trkpt lat="47.75393" lon="6.58145">
        <ele>393.59240207244</ele>
        <time>2021-08-21T12:10:12Z</time>
      </trkpt>
      <trkpt lat="47.75389" lon="6.58137">
        <ele>391.93790590931</ele>
        <time>2021-08-21T12:10:14Z</time>
      </trkpt>
      <trkpt lat="47.75389" lon="6.58125">
        <ele>389.9299704014</ele>
        <time>2021-08-21T12:10:16Z</time>
      </trkpt>
      <trkpt lat="47.75388" lon="6.58111">
        <ele>388.61373443932</ele>
        <time>2021-08-21T12:10:18Z</time>
      </trkpt>
      <trkpt lat="47.75387" lon="6.58096">
        <ele>387.84863882919</ele>
        <time>2021-08-21T12:10:20Z</time>
      </trkpt>
      <trkpt lat="47.75385" lon="6.5808">
        <ele>387.39621802975</ele>
        <time>2021-08-21T12:10:22Z</time>
      </trkpt>
      <trkpt lat="47.75383" lon="6.58062">
        <ele>387.05021850435</ele>
        <time>2021-08-21T12:10:24Z</time>
      </trkpt>
      <trkpt lat="47.75382" lon="6.58044">
        <ele>386.73512129282</ele>
        <time>2021-08-21T12:10:26Z</time>
      </trkpt>
      <trkpt lat="47.7538" lon="6.58025">
        <ele>386.43600513903</ele>
        <time>2021-08-21T12:10:28Z</time>
      </trkpt>
      <trkpt lat="47.75377" lon="6.58004">
        <ele>386.16217750646</ele>
        <time>2021-08-21T12:10:30Z</time>
      </trkpt>
      <trkpt lat="47.75372" lon="6.57984">
        <ele>385.95536592522</ele>
        <time>2021-08-21T12:10:32Z</time>
      </trkpt>
      <trkpt lat="47.75367" lon="6.57964">
        <ele>385.76755200818</ele>
        <time>2021-08-21T12:10:34Z</time>
      </trkpt>
      <trkpt lat="47.75362" lon="6.57945">
        <ele>385.69393707835</ele>
        <time>2021-08-21T12:10:36Z</time>
      </trkpt>
      <trkpt lat="47.75358" lon="6.57926">
        <ele>385.5861648472</ele>
        <time>2021-08-21T12:10:38Z</time>
      </trkpt>
      <trkpt lat="47.75354" lon="6.57908">
        <ele>385.59477126597</ele>
        <time>2021-08-21T12:10:40Z</time>
      </trkpt>
      <trkpt lat="47.75349" lon="6.5789">
        <ele>385.58042533441</ele>
        <time>2021-08-21T12:10:42Z</time>
      </trkpt>
      <trkpt lat="47.75346" lon="6.57872">
        <ele>385.65279572759</ele>
        <time>2021-08-21T12:10:44Z</time>
      </trkpt>
      <trkpt lat="47.75342" lon="6.57854">
        <ele>385.80725435258</ele>
        <time>2021-08-21T12:10:46Z</time>
      </trkpt>
      <trkpt lat="47.75337" lon="6.57838">
        <ele>386.4409387418</ele>
        <time>2021-08-21T12:10:48Z</time>
      </trkpt>
      <trkpt lat="47.75333" lon="6.57822">
        <ele>386.82830634416</ele>
        <time>2021-08-21T12:10:50Z</time>
      </trkpt>
      <trkpt lat="47.75328" lon="6.57807">
        <ele>387.120394683</ele>
        <time>2021-08-21T12:10:52Z</time>
      </trkpt>
      <trkpt lat="47.75324" lon="6.57792">
        <ele>387.27367213695</ele>
        <time>2021-08-21T12:10:54Z</time>
      </trkpt>
      <trkpt lat="47.7532" lon="6.57777">
        <ele>387.48693128889</ele>
        <time>2021-08-21T12:10:56Z</time>
      </trkpt>
      <trkpt lat="47.75316" lon="6.57762">
        <ele>387.69148944056</ele>
        <time>2021-08-21T12:10:58Z</time>
      </trkpt>
      <trkpt lat="47.75313" lon="6.57749">
        <ele>387.60469233333</ele>
        <time>2021-08-21T12:11:00Z</time>
      </trkpt>
      <trkpt lat="47.7531" lon="6.57737">
        <ele>387.48657275067</ele>
        <time>2021-08-21T12:11:02Z</time>
      </trkpt>
      <trkpt lat="47.75308" lon="6.57726">
        <ele>387.45434183418</ele>
        <time>2021-08-21T12:11:04Z</time>
      </trkpt>
      <trkpt lat="47.75305" lon="6.57715">
        <ele>387.43645107696</ele>
        <time>2021-08-21T12:11:06Z</time>
      </trkpt>
      <trkpt lat="47.75302" lon="6.57704">
        <ele>387.37941970975</ele>
        <time>2021-08-21T12:11:08Z</time>
      </trkpt>
      <trkpt lat="47.75299" lon="6.57692">
        <ele>387.42588727247</ele>
        <time>2021-08-21T12:11:10Z</time>
      </trkpt>
      <trkpt lat="47.75295" lon="6.57681">
        <ele>387.43716402065</ele>
        <time>2021-08-21T12:11:12Z</time>
      </trkpt>
      <trkpt lat="47.75292" lon="6.57668">
        <ele>387.40035726612</ele>
        <time>2021-08-21T12:11:14Z</time>
      </trkpt>
      <trkpt lat="47.75289" lon="6.57656">
        <ele>387.48533080765</ele>
        <time>2021-08-21T12:11:16Z</time>
      </trkpt>
      <trkpt lat="47.75285" lon="6.57642">
        <ele>387.24357959867</ele>
        <time>2021-08-21T12:11:18Z</time>
      </trkpt>
      <trkpt lat="47.75281" lon="6.57627">
        <ele>387.09783991261</ele>
        <time>2021-08-21T12:11:20Z</time>
      </trkpt>
      <trkpt lat="47.75277" lon="6.57611">
        <ele>386.87770448017</ele>
        <time>2021-08-21T12:11:22Z</time>
      </trkpt>
      <trkpt lat="47.75272" lon="6.57593">
        <ele>386.54414747647</ele>
        <time>2021-08-21T12:11:24Z</time>
      </trkpt>
      <trkpt lat="47.75267" lon="6.57573">
        <ele>386.23095514474</ele>
        <time>2021-08-21T12:11:26Z</time>
      </trkpt>
      <trkpt lat="47.75261" lon="6.57553">
        <ele>386.02727353163</ele>
        <time>2021-08-21T12:11:28Z</time>
      </trkpt>
      <trkpt lat="47.75256" lon="6.57533">
        <ele>385.90358532543</ele>
        <time>2021-08-21T12:11:30Z</time>
      </trkpt>
      <trkpt lat="47.7525" lon="6.57513">
        <ele>385.83088806619</ele>
        <time>2021-08-21T12:11:32Z</time>
      </trkpt>
      <trkpt lat="47.75245" lon="6.57494">
        <ele>385.76252117625</ele>
        <time>2021-08-21T12:11:34Z</time>
      </trkpt>
      <trkpt lat="47.7524" lon="6.57475">
        <ele>385.79915564598</ele>
        <time>2021-08-21T12:11:36Z</time>
      </trkpt>
      <trkpt lat="47.75235" lon="6.57457">
        <ele>385.82971132644</ele>
        <time>2021-08-21T12:11:38Z</time>
      </trkpt>
      <trkpt lat="47.75231" lon="6.57439">
        <ele>385.9105644829</ele>
        <time>2021-08-21T12:11:40Z</time>
      </trkpt>
      <trkpt lat="47.75226" lon="6.5742">
        <ele>385.95537862649</ele>
        <time>2021-08-21T12:11:42Z</time>
      </trkpt>
      <trkpt lat="47.75221" lon="6.57402">
        <ele>385.88820253436</ele>
        <time>2021-08-21T12:11:44Z</time>
      </trkpt>
      <trkpt lat="47.75216" lon="6.57384">
        <ele>385.63436969199</ele>
        <time>2021-08-21T12:11:46Z</time>
      </trkpt>
      <trkpt lat="47.75211" lon="6.57366">
        <ele>385.43182247319</ele>
        <time>2021-08-21T12:11:48Z</time>
      </trkpt>
      <trkpt lat="47.75206" lon="6.57348">
        <ele>385.34744619529</ele>
        <time>2021-08-21T12:11:50Z</time>
      </trkpt>
      <trkpt lat="47.75202" lon="6.57331">
        <ele>385.2076486309</ele>
        <time>2021-08-21T12:11:52Z</time>
      </trkpt>
      <trkpt lat="47.75198" lon="6.57313">
        <ele>384.89336674205</ele>
        <time>2021-08-21T12:11:54Z</time>
      </trkpt>
      <trkpt lat="47.75194" lon="6.57296">
        <ele>384.51842050424</ele>
        <time>2021-08-21T12:11:56Z</time>
      </trkpt>
      <trkpt lat="47.75188" lon="6.57278">
        <ele>384.37995074197</ele>
        <time>2021-08-21T12:11:58Z</time>
      </trkpt>
      <trkpt lat="47.75184" lon="6.57261">
        <ele>384.26677539209</ele>
        <time>2021-08-21T12:12:00Z</time>
      </trkpt>
      <trkpt lat="47.75179" lon="6.57243">
        <ele>383.92937704918</ele>
        <time>2021-08-21T12:12:02Z</time>
      </trkpt>
      <trkpt lat="47.75175" lon="6.57224">
        <ele>383.87022246961</ele>
        <time>2021-08-21T12:12:04Z</time>
      </trkpt>
      <trkpt lat="47.7517" lon="6.57206">
        <ele>383.81415409279</ele>
        <time>2021-08-21T12:12:06Z</time>
      </trkpt>
      <trkpt lat="47.75165" lon="6.57188">
        <ele>383.61352694512</ele>
        <time>2021-08-21T12:12:08Z</time>
      </trkpt>
      <trkpt lat="47.75161" lon="6.57169">
        <ele>383.51705968804</ele>
        <time>2021-08-21T12:12:10Z</time>
      </trkpt>
      <trkpt lat="47.75156" lon="6.5715">
        <ele>383.53039968414</ele>
        <time>2021-08-21T12:12:12Z</time>
      </trkpt>
      <trkpt lat="47.7515" lon="6.57132">
        <ele>383.48295976025</ele>
        <time>2021-08-21T12:12:14Z</time>
      </trkpt>
      <trkpt lat="47.75146" lon="6.57113">
        <ele>383.52182629954</ele>
        <time>2021-08-21T12:12:16Z</time>
      </trkpt>
      <trkpt lat="47.75141" lon="6.57094">
        <ele>383.71677598114</ele>
        <time>2021-08-21T12:12:18Z</time>
      </trkpt>
      <trkpt lat="47.75137" lon="6.57075">
        <ele>383.93340114199</ele>
        <time>2021-08-21T12:12:20Z</time>
      </trkpt>
      <trkpt lat="47.75131" lon="6.57057">
        <ele>384.03156106314</ele>
        <time>2021-08-21T12:12:22Z</time>
      </trkpt>
      <trkpt lat="47.75126" lon="6.5704">
        <ele>383.99473860641</ele>
        <time>2021-08-21T12:12:24Z</time>
      </trkpt>
      <trkpt lat="47.75122" lon="6.57023">
        <ele>383.93261965448</ele>
        <time>2021-08-21T12:12:26Z</time>
      </trkpt>
      <trkpt lat="47.75117" lon="6.57005">
        <ele>383.945167318</ele>
        <time>2021-08-21T12:12:28Z</time>
      </trkpt>
      <trkpt lat="47.75112" lon="6.56988">
        <ele>383.95319392528</ele>
        <time>2021-08-21T12:12:30Z</time>
      </trkpt>
      <trkpt lat="47.75107" lon="6.56971">
        <ele>384.06334689567</ele>
        <time>2021-08-21T12:12:32Z</time>
      </trkpt>
      <trkpt lat="47.75103" lon="6.56953">
        <ele>384.1691557226</ele>
        <time>2021-08-21T12:12:34Z</time>
      </trkpt>
      <trkpt lat="47.75098" lon="6.56935">
        <ele>384.26827728737</ele>
        <time>2021-08-21T12:12:36Z</time>
      </trkpt>
      <trkpt lat="47.75094" lon="6.56917">
        <ele>384.39274417162</ele>
        <time>2021-08-21T12:12:38Z</time>
      </trkpt>
      <trkpt lat="47.75089" lon="6.56899">
        <ele>384.42313897188</ele>
        <time>2021-08-21T12:12:40Z</time>
      </trkpt>
      <trkpt lat="47.75084" lon="6.56881">
        <ele>384.43108583731</ele>
        <time>2021-08-21T12:12:42Z</time>
      </trkpt>
      <trkpt lat="47.75079" lon="6.56864">
        <ele>384.4624531237</ele>
        <time>2021-08-21T12:12:44Z</time>
      </trkpt>
      <trkpt lat="47.75075" lon="6.56846">
        <ele>384.50575042937</ele>
        <time>2021-08-21T12:12:46Z</time>
      </trkpt>
      <trkpt lat="47.7507" lon="6.56828">
        <ele>384.56274359817</ele>
        <time>2021-08-21T12:12:48Z</time>
      </trkpt>
      <trkpt lat="47.75066" lon="6.5681">
        <ele>384.57030026838</ele>
        <time>2021-08-21T12:12:50Z</time>
      </trkpt>
      <trkpt lat="47.75061" lon="6.56792">
        <ele>384.51142918595</ele>
        <time>2021-08-21T12:12:52Z</time>
      </trkpt>
      <trkpt lat="47.75057" lon="6.56774">
        <ele>384.43103755782</ele>
        <time>2021-08-21T12:12:54Z</time>
      </trkpt>
      <trkpt lat="47.75052" lon="6.56757">
        <ele>384.29710518594</ele>
        <time>2021-08-21T12:12:56Z</time>
      </trkpt>
      <trkpt lat="47.75048" lon="6.56739">
        <ele>384.17559322701</ele>
        <time>2021-08-21T12:12:58Z</time>
      </trkpt>
      <trkpt lat="47.75043" lon="6.56721">
        <ele>383.98638508599</ele>
        <time>2021-08-21T12:13:00Z</time>
      </trkpt>
      <trkpt lat="47.75038" lon="6.56704">
        <ele>383.86354024569</ele>
        <time>2021-08-21T12:13:02Z</time>
      </trkpt>
      <trkpt lat="47.75033" lon="6.56687">
        <ele>383.81111027686</ele>
        <time>2021-08-21T12:13:04Z</time>
      </trkpt>
      <trkpt lat="47.75028" lon="6.56669">
        <ele>383.77758557137</ele>
        <time>2021-08-21T12:13:06Z</time>
      </trkpt>
      <trkpt lat="47.75023" lon="6.56652">
        <ele>383.79032041834</ele>
        <time>2021-08-21T12:13:08Z</time>
      </trkpt>
      <trkpt lat="47.75018" lon="6.56635">
        <ele>383.81378551365</ele>
        <time>2021-08-21T12:13:10Z</time>
      </trkpt>
      <trkpt lat="47.75014" lon="6.56617">
        <ele>383.97818949461</ele>
        <time>2021-08-21T12:13:12Z</time>
      </trkpt>
      <trkpt lat="47.75008" lon="6.56599">
        <ele>384.20920654314</ele>
        <time>2021-08-21T12:13:14Z</time>
      </trkpt>
      <trkpt lat="47.75003" lon="6.56582">
        <ele>384.52564238536</ele>
        <time>2021-08-21T12:13:16Z</time>
      </trkpt>
      <trkpt lat="47.74998" lon="6.56563">
        <ele>384.72241276286</ele>
        <time>2021-08-21T12:13:18Z</time>
      </trkpt>
      <trkpt lat="47.74994" lon="6.56546">
        <ele>384.83571457666</ele>
        <time>2021-08-21T12:13:20Z</time>
      </trkpt>
      <trkpt lat="47.7499" lon="6.56528">
        <ele>384.86546698009</ele>
        <time>2021-08-21T12:13:22Z</time>
      </trkpt>
      <trkpt lat="47.74985" lon="6.56509">
        <ele>384.88702896861</ele>
        <time>2021-08-21T12:13:24Z</time>
      </trkpt>
      <trkpt lat="47.74981" lon="6.56491">
        <ele>384.83650128965</ele>
        <time>2021-08-21T12:13:26Z</time>
      </trkpt>
      <trkpt lat="47.74976" lon="6.56473">
        <ele>384.86645799636</ele>
        <time>2021-08-21T12:13:28Z</time>
      </trkpt>
      <trkpt lat="47.74972" lon="6.56455">
        <ele>384.89119962307</ele>
        <time>2021-08-21T12:13:30Z</time>
      </trkpt>
      <trkpt lat="47.74967" lon="6.56437">
        <ele>384.9252095478</ele>
        <time>2021-08-21T12:13:32Z</time>
      </trkpt>
      <trkpt lat="47.74961" lon="6.5642">
        <ele>385.11291944199</ele>
        <time>2021-08-21T12:13:34Z</time>
      </trkpt>
      <trkpt lat="47.74956" lon="6.56402">
        <ele>385.35693899344</ele>
        <time>2021-08-21T12:13:36Z</time>
      </trkpt>
      <trkpt lat="47.74951" lon="6.56385">
        <ele>385.64476935812</ele>
        <time>2021-08-21T12:13:38Z</time>
      </trkpt>
      <trkpt lat="47.74946" lon="6.56369">
        <ele>385.94646443166</ele>
        <time>2021-08-21T12:13:40Z</time>
      </trkpt>
      <trkpt lat="47.74942" lon="6.56353">
        <ele>386.18627373698</ele>
        <time>2021-08-21T12:13:42Z</time>
      </trkpt>
      <trkpt lat="47.74938" lon="6.56337">
        <ele>386.4206790532</ele>
        <time>2021-08-21T12:13:44Z</time>
      </trkpt>
      <trkpt lat="47.74934" lon="6.56321">
        <ele>386.5646069788</ele>
        <time>2021-08-21T12:13:46Z</time>
      </trkpt>
      <trkpt lat="47.7493" lon="6.56305">
        <ele>386.63320611278</ele>
        <time>2021-08-21T12:13:48Z</time>
      </trkpt>
      <trkpt lat="47.74926" lon="6.56289">
        <ele>386.71512285032</ele>
        <time>2021-08-21T12:13:50Z</time>
      </trkpt>
      <trkpt lat="47.74922" lon="6.56274">
        <ele>386.75339242567</ele>
        <time>2021-08-21T12:13:52Z</time>
      </trkpt>
      <trkpt lat="47.74917" lon="6.56258">
        <ele>386.78470296074</ele>
        <time>2021-08-21T12:13:54Z</time>
      </trkpt>
      <trkpt lat="47.74913" lon="6.56243">
        <ele>386.81788181668</ele>
        <time>2021-08-21T12:13:56Z</time>
      </trkpt>
      <trkpt lat="47.74908" lon="6.56228">
        <ele>386.8054338199</ele>
        <time>2021-08-21T12:13:58Z</time>
      </trkpt>
      <trkpt lat="47.74904" lon="6.56213">
        <ele>386.79942680559</ele>
        <time>2021-08-21T12:14:00Z</time>
      </trkpt>
      <trkpt lat="47.74898" lon="6.56198">
        <ele>386.7415565426</ele>
        <time>2021-08-21T12:14:02Z</time>
      </trkpt>
      <trkpt lat="47.74892" lon="6.56185">
        <ele>386.7077216319</ele>
        <time>2021-08-21T12:14:04Z</time>
      </trkpt>
      <trkpt lat="47.74886" lon="6.56172">
        <ele>386.57029241237</ele>
        <time>2021-08-21T12:14:06Z</time>
      </trkpt>
      <trkpt lat="47.74879" lon="6.56158">
        <ele>386.41741613634</ele>
        <time>2021-08-21T12:14:08Z</time>
      </trkpt>
      <trkpt lat="47.74871" lon="6.56146">
        <ele>386.26461114383</ele>
        <time>2021-08-21T12:14:10Z</time>
      </trkpt>
      <trkpt lat="47.74862" lon="6.56135">
        <ele>386.17347815937</ele>
        <time>2021-08-21T12:14:12Z</time>
      </trkpt>
      <trkpt lat="47.74853" lon="6.56126">
        <ele>386.08890374088</ele>
        <time>2021-08-21T12:14:14Z</time>
      </trkpt>
      <trkpt lat="47.74844" lon="6.56117">
        <ele>386.06163517414</ele>
        <time>2021-08-21T12:14:16Z</time>
      </trkpt>
      <trkpt lat="47.74834" lon="6.56107">
        <ele>386.0740959412</ele>
        <time>2021-08-21T12:14:18Z</time>
      </trkpt>
      <trkpt lat="47.74824" lon="6.56098">
        <ele>386.06843857096</ele>
        <time>2021-08-21T12:14:20Z</time>
      </trkpt>
      <trkpt lat="47.74813" lon="6.56088">
        <ele>386.07756238234</ele>
        <time>2021-08-21T12:14:22Z</time>
      </trkpt>
      <trkpt lat="47.74804" lon="6.56079">
        <ele>386.03253108585</ele>
        <time>2021-08-21T12:14:24Z</time>
      </trkpt>
      <trkpt lat="47.74794" lon="6.56069">
        <ele>385.97352805143</ele>
        <time>2021-08-21T12:14:26Z</time>
      </trkpt>
      <trkpt lat="47.74784" lon="6.5606">
        <ele>385.88854819775</ele>
        <time>2021-08-21T12:14:28Z</time>
      </trkpt>
      <trkpt lat="47.74774" lon="6.5605">
        <ele>385.777531748</ele>
        <time>2021-08-21T12:14:30Z</time>
      </trkpt>
      <trkpt lat="47.74764" lon="6.56039">
        <ele>385.73433573807</ele>
        <time>2021-08-21T12:14:32Z</time>
      </trkpt>
      <trkpt lat="47.74755" lon="6.56029">
        <ele>385.70267715187</ele>
        <time>2021-08-21T12:14:34Z</time>
      </trkpt>
      <trkpt lat="47.74744" lon="6.56019">
        <ele>385.73832972518</ele>
        <time>2021-08-21T12:14:36Z</time>
      </trkpt>
      <trkpt lat="47.74733" lon="6.5601">
        <ele>385.73359984205</ele>
        <time>2021-08-21T12:14:38Z</time>
      </trkpt>
      <trkpt lat="47.74723" lon="6.56001">
        <ele>385.72009671274</ele>
        <time>2021-08-21T12:14:40Z</time>
      </trkpt>
      <trkpt lat="47.74713" lon="6.55993">
        <ele>385.63997178325</ele>
        <time>2021-08-21T12:14:42Z</time>
      </trkpt>
      <trkpt lat="47.74702" lon="6.55983">
        <ele>385.5504780527</ele>
        <time>2021-08-21T12:14:44Z</time>
      </trkpt>
      <trkpt lat="47.74693" lon="6.55974">
        <ele>385.44530054521</ele>
        <time>2021-08-21T12:14:46Z</time>
      </trkpt>
      <trkpt lat="47.74682" lon="6.55964">
        <ele>385.41186319412</ele>
        <time>2021-08-21T12:14:48Z</time>
      </trkpt>
      <trkpt lat="47.74672" lon="6.55956">
        <ele>385.40859704237</ele>
        <time>2021-08-21T12:14:50Z</time>
      </trkpt>
      <trkpt lat="47.74662" lon="6.55946">
        <ele>385.43869957567</ele>
        <time>2021-08-21T12:14:52Z</time>
      </trkpt>
      <trkpt lat="47.74653" lon="6.55938">
        <ele>385.47043843046</ele>
        <time>2021-08-21T12:14:54Z</time>
      </trkpt>
      <trkpt lat="47.74645" lon="6.55929">
        <ele>385.44159146058</ele>
        <time>2021-08-21T12:14:56Z</time>
      </trkpt>
      <trkpt lat="47.74636" lon="6.55922">
        <ele>385.40461706303</ele>
        <time>2021-08-21T12:14:58Z</time>
      </trkpt>
      <trkpt lat="47.74628" lon="6.55914">
        <ele>385.49094693256</ele>
        <time>2021-08-21T12:15:00Z</time>
      </trkpt>
      <trkpt lat="47.7462" lon="6.55906">
        <ele>385.62423450094</ele>
        <time>2021-08-21T12:15:02Z</time>
      </trkpt>
      <trkpt lat="47.74612" lon="6.55898">
        <ele>385.79635572363</ele>
        <time>2021-08-21T12:15:04Z</time>
      </trkpt>
      <trkpt lat="47.74605" lon="6.55891">
        <ele>385.67901714125</ele>
        <time>2021-08-21T12:15:06Z</time>
      </trkpt>
      <trkpt lat="47.74597" lon="6.55882">
        <ele>385.64849625574</ele>
        <time>2021-08-21T12:15:08Z</time>
      </trkpt>
      <trkpt lat="47.74591" lon="6.55871">
        <ele>385.70553505539</ele>
        <time>2021-08-21T12:15:10Z</time>
      </trkpt>
      <trkpt lat="47.74586" lon="6.5586">
        <ele>385.81944772352</ele>
        <time>2021-08-21T12:15:12Z</time>
      </trkpt>
      <trkpt lat="47.74584" lon="6.55848">
        <ele>385.88211040157</ele>
        <time>2021-08-21T12:15:14Z</time>
      </trkpt>
      <trkpt lat="47.74582" lon="6.55834">
        <ele>385.95696317371</ele>
        <time>2021-08-21T12:15:16Z</time>
      </trkpt>
      <trkpt lat="47.74582" lon="6.55818">
        <ele>386.06261568406</ele>
        <time>2021-08-21T12:15:18Z</time>
      </trkpt>
      <trkpt lat="47.74584" lon="6.55802">
        <ele>386.20535977645</ele>
        <time>2021-08-21T12:15:20Z</time>
      </trkpt>
      <trkpt lat="47.74583" lon="6.55785">
        <ele>386.32928286652</ele>
        <time>2021-08-21T12:15:22Z</time>
      </trkpt>
      <trkpt lat="47.7458" lon="6.55769">
        <ele>386.39999796686</ele>
        <time>2021-08-21T12:15:24Z</time>
      </trkpt>
      <trkpt lat="47.74575" lon="6.55754">
        <ele>386.46350106684</ele>
        <time>2021-08-21T12:15:26Z</time>
      </trkpt>
      <trkpt lat="47.7457" lon="6.5574">
        <ele>386.51031865687</ele>
        <time>2021-08-21T12:15:28Z</time>
      </trkpt>
      <trkpt lat="47.74565" lon="6.55725">
        <ele>386.53111359902</ele>
        <time>2021-08-21T12:15:30Z</time>
      </trkpt>
      <trkpt lat="47.74561" lon="6.5571">
        <ele>386.55581169327</ele>
        <time>2021-08-21T12:15:32Z</time>
      </trkpt>
      <trkpt lat="47.74558" lon="6.55696">
        <ele>386.59475494305</ele>
        <time>2021-08-21T12:15:34Z</time>
      </trkpt>
      <trkpt lat="47.74555" lon="6.55682">
        <ele>386.62635240068</ele>
        <time>2021-08-21T12:15:36Z</time>
      </trkpt>
      <trkpt lat="47.74553" lon="6.55668">
        <ele>386.65877107652</ele>
        <time>2021-08-21T12:15:38Z</time>
      </trkpt>
      <trkpt lat="47.74551" lon="6.55655">
        <ele>386.66523403912</ele>
        <time>2021-08-21T12:15:40Z</time>
      </trkpt>
      <trkpt lat="47.74549" lon="6.55641">
        <ele>386.64996212296</ele>
        <time>2021-08-21T12:15:42Z</time>
      </trkpt>
      <trkpt lat="47.74548" lon="6.55628">
        <ele>386.62189243232</ele>
        <time>2021-08-21T12:15:44Z</time>
      </trkpt>
      <trkpt lat="47.74546" lon="6.55615">
        <ele>386.60123319584</ele>
        <time>2021-08-21T12:15:46Z</time>
      </trkpt>
      <trkpt lat="47.74544" lon="6.55603">
        <ele>386.57667915656</ele>
        <time>2021-08-21T12:15:48Z</time>
      </trkpt>
      <trkpt lat="47.74542" lon="6.55591">
        <ele>386.55000513103</ele>
        <time>2021-08-21T12:15:50Z</time>
      </trkpt>
      <trkpt lat="47.74541" lon="6.55578">
        <ele>386.51163924946</ele>
        <time>2021-08-21T12:15:52Z</time>
      </trkpt>
      <trkpt lat="47.74539" lon="6.55564">
        <ele>386.48305904737</ele>
        <time>2021-08-21T12:15:54Z</time>
      </trkpt>
      <trkpt lat="47.74537" lon="6.55551">
        <ele>386.44875396036</ele>
        <time>2021-08-21T12:15:56Z</time>
      </trkpt>
      <trkpt lat="47.74535" lon="6.55539">
        <ele>386.4305869767</ele>
        <time>2021-08-21T12:15:58Z</time>
      </trkpt>
      <trkpt lat="47.74534" lon="6.5553">
        <ele>386.42678158204</ele>
        <time>2021-08-21T12:16:00Z</time>
      </trkpt>
      <trkpt lat="47.74532" lon="6.55519">
        <ele>386.42188834401</ele>
        <time>2021-08-21T12:16:02Z</time>
      </trkpt>
      <trkpt lat="47.74531" lon="6.55508">
        <ele>386.39211254368</ele>
        <time>2021-08-21T12:16:04Z</time>
      </trkpt>
      <trkpt lat="47.74529" lon="6.55498">
        <ele>386.38750469465</ele>
        <time>2021-08-21T12:16:06Z</time>
      </trkpt>
      <trkpt lat="47.74527" lon="6.55487">
        <ele>386.38297879378</ele>
        <time>2021-08-21T12:16:08Z</time>
      </trkpt>
      <trkpt lat="47.74526" lon="6.55476">
        <ele>386.37645197165</ele>
        <time>2021-08-21T12:16:10Z</time>
      </trkpt>
      <trkpt lat="47.74525" lon="6.55467">
        <ele>386.36796950666</ele>
        <time>2021-08-21T12:16:12Z</time>
      </trkpt>
      <trkpt lat="47.74523" lon="6.55456">
        <ele>386.35973120536</ele>
        <time>2021-08-21T12:16:14Z</time>
      </trkpt>
      <trkpt lat="47.74521" lon="6.55446">
        <ele>386.35100928397</ele>
        <time>2021-08-21T12:16:16Z</time>
      </trkpt>
      <trkpt lat="47.74519" lon="6.55437">
        <ele>386.34252813294</ele>
        <time>2021-08-21T12:16:18Z</time>
      </trkpt>
      <trkpt lat="47.74518" lon="6.55427">
        <ele>386.33201358576</ele>
        <time>2021-08-21T12:16:20Z</time>
      </trkpt>
      <trkpt lat="47.74516" lon="6.55418">
        <ele>386.32112331894</ele>
        <time>2021-08-21T12:16:22Z</time>
      </trkpt>
      <trkpt lat="47.74515" lon="6.55409">
        <ele>386.30909289423</ele>
        <time>2021-08-21T12:16:24Z</time>
      </trkpt>
      <trkpt lat="47.74514" lon="6.55401">
        <ele>386.29726313411</ele>
        <time>2021-08-21T12:16:26Z</time>
      </trkpt>
      <trkpt lat="47.74513" lon="6.55392">
        <ele>386.28441975391</ele>
        <time>2021-08-21T12:16:28Z</time>
      </trkpt>
      <trkpt lat="47.74511" lon="6.55383">
        <ele>386.27063892458</ele>
        <time>2021-08-21T12:16:30Z</time>
      </trkpt>
      <trkpt lat="47.74509" lon="6.55374">
        <ele>386.25517512289</ele>
        <time>2021-08-21T12:16:32Z</time>
      </trkpt>
      <trkpt lat="47.74507" lon="6.55364">
        <ele>386.24007826848</ele>
        <time>2021-08-21T12:16:34Z</time>
      </trkpt>
      <trkpt lat="47.74506" lon="6.55356">
        <ele>386.2266696383</ele>
        <time>2021-08-21T12:16:36Z</time>
      </trkpt>
      <trkpt lat="47.74503" lon="6.55346">
        <ele>386.21374442964</ele>
        <time>2021-08-21T12:16:38Z</time>
      </trkpt>
      <trkpt lat="47.74501" lon="6.55335">
        <ele>386.14492658221</ele>
        <time>2021-08-21T12:16:40Z</time>
      </trkpt>
      <trkpt lat="47.74498" lon="6.55325">
        <ele>386.08837471981</ele>
        <time>2021-08-21T12:16:42Z</time>
      </trkpt>
      <trkpt lat="47.74496" lon="6.55314">
        <ele>385.98050500096</ele>
        <time>2021-08-21T12:16:44Z</time>
      </trkpt>
      <trkpt lat="47.74493" lon="6.55302">
        <ele>385.90448365902</ele>
        <time>2021-08-21T12:16:46Z</time>
      </trkpt>
      <trkpt lat="47.7449" lon="6.55292">
        <ele>385.84317729121</ele>
        <time>2021-08-21T12:16:48Z</time>
      </trkpt>
      <trkpt lat="47.74486" lon="6.55279">
        <ele>385.78727624927</ele>
        <time>2021-08-21T12:16:50Z</time>
      </trkpt>
      <trkpt lat="47.74484" lon="6.55268">
        <ele>385.73675953104</ele>
        <time>2021-08-21T12:16:52Z</time>
      </trkpt>
      <trkpt lat="47.74481" lon="6.55256">
        <ele>385.71177657943</ele>
        <time>2021-08-21T12:16:54Z</time>
      </trkpt>
      <trkpt lat="47.74478" lon="6.55245">
        <ele>385.67374156175</ele>
        <time>2021-08-21T12:16:56Z</time>
      </trkpt>
      <trkpt lat="47.74475" lon="6.55235">
        <ele>385.66995272986</ele>
        <time>2021-08-21T12:16:58Z</time>
      </trkpt>
      <trkpt lat="47.74472" lon="6.55225">
        <ele>385.66381428917</ele>
        <time>2021-08-21T12:17:00Z</time>
      </trkpt>
      <trkpt lat="47.7447" lon="6.55214">
        <ele>385.65514502534</ele>
        <time>2021-08-21T12:17:02Z</time>
      </trkpt>
      <trkpt lat="47.74467" lon="6.55203">
        <ele>385.61151601122</ele>
        <time>2021-08-21T12:17:04Z</time>
      </trkpt>
      <trkpt lat="47.74464" lon="6.55192">
        <ele>385.60451316115</ele>
        <time>2021-08-21T12:17:06Z</time>
      </trkpt>
      <trkpt lat="47.74462" lon="6.55181">
        <ele>385.59784643771</ele>
        <time>2021-08-21T12:17:08Z</time>
      </trkpt>
      <trkpt lat="47.7446" lon="6.55172">
        <ele>385.5893034917</ele>
        <time>2021-08-21T12:17:10Z</time>
      </trkpt>
      <trkpt lat="47.74457" lon="6.55163">
        <ele>385.57928647839</ele>
        <time>2021-08-21T12:17:12Z</time>
      </trkpt>
      <trkpt lat="47.74455" lon="6.55153">
        <ele>385.57016907201</ele>
        <time>2021-08-21T12:17:14Z</time>
      </trkpt>
      <trkpt lat="47.74453" lon="6.55143">
        <ele>385.52149801563</ele>
        <time>2021-08-21T12:17:16Z</time>
      </trkpt>
      <trkpt lat="47.74449" lon="6.55131">
        <ele>385.47755554364</ele>
        <time>2021-08-21T12:17:18Z</time>
      </trkpt>
      <trkpt lat="47.74447" lon="6.5512">
        <ele>385.44418490043</ele>
        <time>2021-08-21T12:17:20Z</time>
      </trkpt>
      <trkpt lat="47.74444" lon="6.55109">
        <ele>385.42039125503</ele>
        <time>2021-08-21T12:17:22Z</time>
      </trkpt>
      <trkpt lat="47.74442" lon="6.55098">
        <ele>385.38057105043</ele>
        <time>2021-08-21T12:17:24Z</time>
      </trkpt>
      <trkpt lat="47.7444" lon="6.55087">
        <ele>385.37045356536</ele>
        <time>2021-08-21T12:17:26Z</time>
      </trkpt>
      <trkpt lat="47.74438" lon="6.55076">
        <ele>385.33991647214</ele>
        <time>2021-08-21T12:17:28Z</time>
      </trkpt>
      <trkpt lat="47.74437" lon="6.55065">
        <ele>385.33838044073</ele>
        <time>2021-08-21T12:17:30Z</time>
      </trkpt>
      <trkpt lat="47.74437" lon="6.55055">
        <ele>385.33879715395</ele>
        <time>2021-08-21T12:17:32Z</time>
      </trkpt>
      <trkpt lat="47.74437" lon="6.55046">
        <ele>385.34250559297</ele>
        <time>2021-08-21T12:17:34Z</time>
      </trkpt>
      <trkpt lat="47.7444" lon="6.55036">
        <ele>385.34965846498</ele>
        <time>2021-08-21T12:17:36Z</time>
      </trkpt>
      <trkpt lat="47.74444" lon="6.55029">
        <ele>385.35953732472</ele>
        <time>2021-08-21T12:17:38Z</time>
      </trkpt>
      <trkpt lat="47.74449" lon="6.55024">
        <ele>385.37150206068</ele>
        <time>2021-08-21T12:17:40Z</time>
      </trkpt>
      <trkpt lat="47.74453" lon="6.55016">
        <ele>385.38568049598</ele>
        <time>2021-08-21T12:17:42Z</time>
      </trkpt>
      <trkpt lat="47.74457" lon="6.55008">
        <ele>385.40126259626</ele>
        <time>2021-08-21T12:17:44Z</time>
      </trkpt>
      <trkpt lat="47.7446" lon="6.54999">
        <ele>385.41866999112</ele>
        <time>2021-08-21T12:17:46Z</time>
      </trkpt>
      <trkpt lat="47.74464" lon="6.54991">
        <ele>385.43580055041</ele>
        <time>2021-08-21T12:17:48Z</time>
      </trkpt>
      <trkpt lat="47.74468" lon="6.54983">
        <ele>385.45226791271</ele>
        <time>2021-08-21T12:17:50Z</time>
      </trkpt>
      <trkpt lat="47.74469" lon="6.54971">
        <ele>385.60439872715</ele>
        <time>2021-08-21T12:17:52Z</time>
      </trkpt>
      <trkpt lat="47.74467" lon="6.54954">
        <ele>385.71459744942</ele>
        <time>2021-08-21T12:17:54Z</time>
      </trkpt>
      <trkpt lat="47.74466" lon="6.5494">
        <ele>385.80834124785</ele>
        <time>2021-08-21T12:17:56Z</time>
      </trkpt>
      <trkpt lat="47.74462" lon="6.54924">
        <ele>385.83105896961</ele>
        <time>2021-08-21T12:17:58Z</time>
      </trkpt>
      <trkpt lat="47.74455" lon="6.54905">
        <ele>385.83088554994</ele>
        <time>2021-08-21T12:18:00Z</time>
      </trkpt>
      <trkpt lat="47.74445" lon="6.54884">
        <ele>385.86076701511</ele>
        <time>2021-08-21T12:18:02Z</time>
      </trkpt>
      <trkpt lat="47.74435" lon="6.54866">
        <ele>385.93345281131</ele>
        <time>2021-08-21T12:18:04Z</time>
      </trkpt>
      <trkpt lat="47.74426" lon="6.54845">
        <ele>386.0458755664</ele>
        <time>2021-08-21T12:18:06Z</time>
      </trkpt>
      <trkpt lat="47.74419" lon="6.54825">
        <ele>386.24658296371</ele>
        <time>2021-08-21T12:18:08Z</time>
      </trkpt>
      <trkpt lat="47.74414" lon="6.54803">
        <ele>386.48935085462</ele>
        <time>2021-08-21T12:18:10Z</time>
      </trkpt>
      <trkpt lat="47.74411" lon="6.54779">
        <ele>386.89229953925</ele>
        <time>2021-08-21T12:18:12Z</time>
      </trkpt>
      <trkpt lat="47.7441" lon="6.54756">
        <ele>387.20509211134</ele>
        <time>2021-08-21T12:18:14Z</time>
      </trkpt>
      <trkpt lat="47.7441" lon="6.54733">
        <ele>387.43333326287</ele>
        <time>2021-08-21T12:18:16Z</time>
      </trkpt>
      <trkpt lat="47.74411" lon="6.5471">
        <ele>387.6699754995</ele>
        <time>2021-08-21T12:18:18Z</time>
      </trkpt>
      <trkpt lat="47.74412" lon="6.54688">
        <ele>387.93582532971</ele>
        <time>2021-08-21T12:18:20Z</time>
      </trkpt>
      <trkpt lat="47.74413" lon="6.54665">
        <ele>388.15379001818</ele>
        <time>2021-08-21T12:18:22Z</time>
      </trkpt>
      <trkpt lat="47.74413" lon="6.54643">
        <ele>388.31941511035</ele>
        <time>2021-08-21T12:18:24Z</time>
      </trkpt>
      <trkpt lat="47.74414" lon="6.54622">
        <ele>388.55210627959</ele>
        <time>2021-08-21T12:18:26Z</time>
      </trkpt>
      <trkpt lat="47.74415" lon="6.54601">
        <ele>388.59128779583</ele>
        <time>2021-08-21T12:18:28Z</time>
      </trkpt>
      <trkpt lat="47.74416" lon="6.54581">
        <ele>388.52107576716</ele>
        <time>2021-08-21T12:18:30Z</time>
      </trkpt>
      <trkpt lat="47.74416" lon="6.5456">
        <ele>388.52550062686</ele>
        <time>2021-08-21T12:18:32Z</time>
      </trkpt>
      <trkpt lat="47.74415" lon="6.54538">
        <ele>388.59557701067</ele>
        <time>2021-08-21T12:18:34Z</time>
      </trkpt>
      <trkpt lat="47.74413" lon="6.54517">
        <ele>388.62482718987</ele>
        <time>2021-08-21T12:18:36Z</time>
      </trkpt>
      <trkpt lat="47.74412" lon="6.54496">
        <ele>388.5655456237</ele>
        <time>2021-08-21T12:18:38Z</time>
      </trkpt>
      <trkpt lat="47.7441" lon="6.54476">
        <ele>388.49745323151</ele>
        <time>2021-08-21T12:18:40Z</time>
      </trkpt>
      <trkpt lat="47.74408" lon="6.54455">
        <ele>388.47041089629</ele>
        <time>2021-08-21T12:18:42Z</time>
      </trkpt>
      <trkpt lat="47.74407" lon="6.54435">
        <ele>388.40892767576</ele>
        <time>2021-08-21T12:18:44Z</time>
      </trkpt>
      <trkpt lat="47.74405" lon="6.54415">
        <ele>388.33636010249</ele>
        <time>2021-08-21T12:18:46Z</time>
      </trkpt>
      <trkpt lat="47.74405" lon="6.54395">
        <ele>388.28935828777</ele>
        <time>2021-08-21T12:18:48Z</time>
      </trkpt>
      <trkpt lat="47.74405" lon="6.54375">
        <ele>388.22914183454</ele>
        <time>2021-08-21T12:18:50Z</time>
      </trkpt>
      <trkpt lat="47.74408" lon="6.54356">
        <ele>388.17870585619</ele>
        <time>2021-08-21T12:18:52Z</time>
      </trkpt>
      <trkpt lat="47.74414" lon="6.54338">
        <ele>388.08509047467</ele>
        <time>2021-08-21T12:18:54Z</time>
      </trkpt>
      <trkpt lat="47.74417" lon="6.54319">
        <ele>388.2354351055</ele>
        <time>2021-08-21T12:18:56Z</time>
      </trkpt>
      <trkpt lat="47.74423" lon="6.54302">
        <ele>388.43509600282</ele>
        <time>2021-08-21T12:18:58Z</time>
      </trkpt>
      <trkpt lat="47.74428" lon="6.54284">
        <ele>388.57982242729</ele>
        <time>2021-08-21T12:19:00Z</time>
      </trkpt>
      <trkpt lat="47.74431" lon="6.54266">
        <ele>388.71894843182</ele>
        <time>2021-08-21T12:19:02Z</time>
      </trkpt>
      <trkpt lat="47.74433" lon="6.54248">
        <ele>388.90425270958</ele>
        <time>2021-08-21T12:19:04Z</time>
      </trkpt>
      <trkpt lat="47.74432" lon="6.54229">
        <ele>389.19815779664</ele>
        <time>2021-08-21T12:19:06Z</time>
      </trkpt>
      <trkpt lat="47.7443" lon="6.54211">
        <ele>389.37103659219</ele>
        <time>2021-08-21T12:19:08Z</time>
      </trkpt>
      <trkpt lat="47.74428" lon="6.54192">
        <ele>389.51132636517</ele>
        <time>2021-08-21T12:19:10Z</time>
      </trkpt>
      <trkpt lat="47.74424" lon="6.54173">
        <ele>389.60485146149</ele>
        <time>2021-08-21T12:19:12Z</time>
      </trkpt>
      <trkpt lat="47.7442" lon="6.54155">
        <ele>389.74878506961</ele>
        <time>2021-08-21T12:19:14Z</time>
      </trkpt>
      <trkpt lat="47.74416" lon="6.54137">
        <ele>389.84552595548</ele>
        <time>2021-08-21T12:19:16Z</time>
      </trkpt>
      <trkpt lat="47.74411" lon="6.5412">
        <ele>389.9717650265</ele>
        <time>2021-08-21T12:19:18Z</time>
      </trkpt>
      <trkpt lat="47.74405" lon="6.54103">
        <ele>389.97693881729</ele>
        <time>2021-08-21T12:19:20Z</time>
      </trkpt>
      <trkpt lat="47.74401" lon="6.54085">
        <ele>389.95440754378</ele>
        <time>2021-08-21T12:19:22Z</time>
      </trkpt>
      <trkpt lat="47.74399" lon="6.54066">
        <ele>389.94916459041</ele>
        <time>2021-08-21T12:19:24Z</time>
      </trkpt>
      <trkpt lat="47.74398" lon="6.54047">
        <ele>389.95092462866</ele>
        <time>2021-08-21T12:19:26Z</time>
      </trkpt>
      <trkpt lat="47.74398" lon="6.54028">
        <ele>389.93390326123</ele>
        <time>2021-08-21T12:19:28Z</time>
      </trkpt>
      <trkpt lat="47.74399" lon="6.54009">
        <ele>389.94638246876</ele>
        <time>2021-08-21T12:19:30Z</time>
      </trkpt>
      <trkpt lat="47.74399" lon="6.5399">
        <ele>389.99647545802</ele>
        <time>2021-08-21T12:19:32Z</time>
      </trkpt>
      <trkpt lat="47.74401" lon="6.53972">
        <ele>390.09977278612</ele>
        <time>2021-08-21T12:19:34Z</time>
      </trkpt>
      <trkpt lat="47.74403" lon="6.53953">
        <ele>390.24213763183</ele>
        <time>2021-08-21T12:19:36Z</time>
      </trkpt>
      <trkpt lat="47.74405" lon="6.53935">
        <ele>390.3070430759</ele>
        <time>2021-08-21T12:19:38Z</time>
      </trkpt>
      <trkpt lat="47.74406" lon="6.53917">
        <ele>390.24556076414</ele>
        <time>2021-08-21T12:19:40Z</time>
      </trkpt>
      <trkpt lat="47.74407" lon="6.53899">
        <ele>390.06514826252</ele>
        <time>2021-08-21T12:19:42Z</time>
      </trkpt>
      <trkpt lat="47.74407" lon="6.5388">
        <ele>389.86720224775</ele>
        <time>2021-08-21T12:19:44Z</time>
      </trkpt>
      <trkpt lat="47.74407" lon="6.53862">
        <ele>389.81370740197</ele>
        <time>2021-08-21T12:19:46Z</time>
      </trkpt>
      <trkpt lat="47.74407" lon="6.53844">
        <ele>389.75141345188</ele>
        <time>2021-08-21T12:19:48Z</time>
      </trkpt>
      <trkpt lat="47.74406" lon="6.53825">
        <ele>389.70183570629</ele>
        <time>2021-08-21T12:19:50Z</time>
      </trkpt>
      <trkpt lat="47.74406" lon="6.53807">
        <ele>389.62829546684</ele>
        <time>2021-08-21T12:19:52Z</time>
      </trkpt>
      <trkpt lat="47.74405" lon="6.53788">
        <ele>389.60346830289</ele>
        <time>2021-08-21T12:19:54Z</time>
      </trkpt>
      <trkpt lat="47.74405" lon="6.53769">
        <ele>389.5227374539</ele>
        <time>2021-08-21T12:19:56Z</time>
      </trkpt>
      <trkpt lat="47.74405" lon="6.53751">
        <ele>389.61845972971</ele>
        <time>2021-08-21T12:19:58Z</time>
      </trkpt>
      <trkpt lat="47.74404" lon="6.53734">
        <ele>389.6886522989</ele>
        <time>2021-08-21T12:20:00Z</time>
      </trkpt>
      <trkpt lat="47.74404" lon="6.53716">
        <ele>389.81978382513</ele>
        <time>2021-08-21T12:20:02Z</time>
      </trkpt>
      <trkpt lat="47.74404" lon="6.53699">
        <ele>389.99468636813</ele>
        <time>2021-08-21T12:20:04Z</time>
      </trkpt>
      <trkpt lat="47.74403" lon="6.53681">
        <ele>390.16825839631</ele>
        <time>2021-08-21T12:20:06Z</time>
      </trkpt>
      <trkpt lat="47.74403" lon="6.53663">
        <ele>390.29732654606</ele>
        <time>2021-08-21T12:20:08Z</time>
      </trkpt>
      <trkpt lat="47.74403" lon="6.53644">
        <ele>390.40340665357</ele>
        <time>2021-08-21T12:20:10Z</time>
      </trkpt>
      <trkpt lat="47.74402" lon="6.53626">
        <ele>390.46581736972</ele>
        <time>2021-08-21T12:20:12Z</time>
      </trkpt>
      <trkpt lat="47.74402" lon="6.53607">
        <ele>390.48227663349</ele>
        <time>2021-08-21T12:20:14Z</time>
      </trkpt>
      <trkpt lat="47.74402" lon="6.53589">
        <ele>390.52399436721</ele>
        <time>2021-08-21T12:20:16Z</time>
      </trkpt>
      <trkpt lat="47.74403" lon="6.5357">
        <ele>390.60877809581</ele>
        <time>2021-08-21T12:20:18Z</time>
      </trkpt>
      <trkpt lat="47.74404" lon="6.53553">
        <ele>390.66977809558</ele>
        <time>2021-08-21T12:20:20Z</time>
      </trkpt>
      <trkpt lat="47.74406" lon="6.53535">
        <ele>390.6974380413</ele>
        <time>2021-08-21T12:20:22Z</time>
      </trkpt>
      <trkpt lat="47.74408" lon="6.53518">
        <ele>390.74477234192</ele>
        <time>2021-08-21T12:20:24Z</time>
      </trkpt>
      <trkpt lat="47.7441" lon="6.53503">
        <ele>390.5672645918</ele>
        <time>2021-08-21T12:20:26Z</time>
      </trkpt>
      <trkpt lat="47.74413" lon="6.53487">
        <ele>390.34592355553</ele>
        <time>2021-08-21T12:20:28Z</time>
      </trkpt>
      <trkpt lat="47.74415" lon="6.53469">
        <ele>390.24256830097</ele>
        <time>2021-08-21T12:20:30Z</time>
      </trkpt>
      <trkpt lat="47.74417" lon="6.53452">
        <ele>390.17485382334</ele>
        <time>2021-08-21T12:20:32Z</time>
      </trkpt>
      <trkpt lat="47.74419" lon="6.53435">
        <ele>390.08061328031</ele>
        <time>2021-08-21T12:20:34Z</time>
      </trkpt>
      <trkpt lat="47.74419" lon="6.53418">
        <ele>390.01097235006</ele>
        <time>2021-08-21T12:20:36Z</time>
      </trkpt>
      <trkpt lat="47.74419" lon="6.534">
        <ele>389.96973913194</ele>
        <time>2021-08-21T12:20:38Z</time>
      </trkpt>
      <trkpt lat="47.74419" lon="6.5338">
        <ele>389.89493534634</ele>
        <time>2021-08-21T12:20:40Z</time>
      </trkpt>
      <trkpt lat="47.74419" lon="6.53361">
        <ele>389.78805658416</ele>
        <time>2021-08-21T12:20:42Z</time>
      </trkpt>
      <trkpt lat="47.74419" lon="6.53343">
        <ele>389.74480078098</ele>
        <time>2021-08-21T12:20:44Z</time>
      </trkpt>
      <trkpt lat="47.74419" lon="6.53324">
        <ele>389.74275802224</ele>
        <time>2021-08-21T12:20:46Z</time>
      </trkpt>
      <trkpt lat="47.74419" lon="6.53306">
        <ele>389.69479623306</ele>
        <time>2021-08-21T12:20:48Z</time>
      </trkpt>
      <trkpt lat="47.74419" lon="6.53287">
        <ele>389.76003679143</ele>
        <time>2021-08-21T12:20:50Z</time>
      </trkpt>
      <trkpt lat="47.74419" lon="6.53269">
        <ele>389.75634296802</ele>
        <time>2021-08-21T12:20:52Z</time>
      </trkpt>
      <trkpt lat="47.7442" lon="6.53252">
        <ele>389.53090424161</ele>
        <time>2021-08-21T12:20:54Z</time>
      </trkpt>
      <trkpt lat="47.74421" lon="6.53234">
        <ele>389.3797995281</ele>
        <time>2021-08-21T12:20:56Z</time>
      </trkpt>
      <trkpt lat="47.74421" lon="6.53217">
        <ele>389.13993052697</ele>
        <time>2021-08-21T12:20:58Z</time>
      </trkpt>
      <trkpt lat="47.74421" lon="6.53199">
        <ele>389.03074230364</ele>
        <time>2021-08-21T12:21:00Z</time>
      </trkpt>
      <trkpt lat="47.7442" lon="6.5318">
        <ele>388.87000321097</ele>
        <time>2021-08-21T12:21:02Z</time>
      </trkpt>
      <trkpt lat="47.7442" lon="6.5316">
        <ele>388.73094875108</ele>
        <time>2021-08-21T12:21:04Z</time>
      </trkpt>
      <trkpt lat="47.7442" lon="6.53141">
        <ele>388.71041618919</ele>
        <time>2021-08-21T12:21:06Z</time>
      </trkpt>
      <trkpt lat="47.7442" lon="6.53122">
        <ele>388.72916913022</ele>
        <time>2021-08-21T12:21:08Z</time>
      </trkpt>
      <trkpt lat="47.7442" lon="6.53103">
        <ele>388.77754829355</ele>
        <time>2021-08-21T12:21:10Z</time>
      </trkpt>
      <trkpt lat="47.74421" lon="6.53083">
        <ele>388.85646791216</ele>
        <time>2021-08-21T12:21:12Z</time>
      </trkpt>
      <trkpt lat="47.7442" lon="6.53064">
        <ele>388.87688447546</ele>
        <time>2021-08-21T12:21:14Z</time>
      </trkpt>
      <trkpt lat="47.74421" lon="6.53044">
        <ele>388.848887963</ele>
        <time>2021-08-21T12:21:16Z</time>
      </trkpt>
      <trkpt lat="47.74421" lon="6.53025">
        <ele>388.85992621618</ele>
        <time>2021-08-21T12:21:18Z</time>
      </trkpt>
      <trkpt lat="47.74421" lon="6.53005">
        <ele>388.82627965955</ele>
        <time>2021-08-21T12:21:20Z</time>
      </trkpt>
      <trkpt lat="47.74421" lon="6.52986">
        <ele>388.85693604432</ele>
        <time>2021-08-21T12:21:22Z</time>
      </trkpt>
      <trkpt lat="47.74421" lon="6.52966">
        <ele>388.93060714394</ele>
        <time>2021-08-21T12:21:24Z</time>
      </trkpt>
      <trkpt lat="47.74421" lon="6.52945">
        <ele>389.05583670415</ele>
        <time>2021-08-21T12:21:26Z</time>
      </trkpt>
      <trkpt lat="47.74421" lon="6.52925">
        <ele>389.16409122802</ele>
        <time>2021-08-21T12:21:28Z</time>
      </trkpt>
      <trkpt lat="47.74422" lon="6.52905">
        <ele>389.21103119297</ele>
        <time>2021-08-21T12:21:30Z</time>
      </trkpt>
      <trkpt lat="47.74421" lon="6.52884">
        <ele>389.25715805654</ele>
        <time>2021-08-21T12:21:32Z</time>
      </trkpt>
      <trkpt lat="47.74421" lon="6.52864">
        <ele>389.26086281706</ele>
        <time>2021-08-21T12:21:34Z</time>
      </trkpt>
      <trkpt lat="47.74421" lon="6.52844">
        <ele>389.24342534096</ele>
        <time>2021-08-21T12:21:36Z</time>
      </trkpt>
      <trkpt lat="47.7442" lon="6.52824">
        <ele>389.20153143612</ele>
        <time>2021-08-21T12:21:38Z</time>
      </trkpt>
      <trkpt lat="47.74419" lon="6.52804">
        <ele>389.02384543592</ele>
        <time>2021-08-21T12:21:40Z</time>
      </trkpt>
      <trkpt lat="47.7442" lon="6.52784">
        <ele>388.9615106265</ele>
        <time>2021-08-21T12:21:42Z</time>
      </trkpt>
      <trkpt lat="47.7442" lon="6.52764">
        <ele>388.9551369856</ele>
        <time>2021-08-21T12:21:44Z</time>
      </trkpt>
      <trkpt lat="47.7442" lon="6.52745">
        <ele>388.91125578846</ele>
        <time>2021-08-21T12:21:46Z</time>
      </trkpt>
      <trkpt lat="47.74421" lon="6.52726">
        <ele>388.83583484921</ele>
        <time>2021-08-21T12:21:48Z</time>
      </trkpt>
      <trkpt lat="47.74421" lon="6.52707">
        <ele>388.84545540205</ele>
        <time>2021-08-21T12:21:50Z</time>
      </trkpt>
      <trkpt lat="47.74421" lon="6.52688">
        <ele>388.8673792409</ele>
        <time>2021-08-21T12:21:52Z</time>
      </trkpt>
      <trkpt lat="47.74421" lon="6.5267">
        <ele>388.87947711105</ele>
        <time>2021-08-21T12:21:54Z</time>
      </trkpt>
      <trkpt lat="47.74421" lon="6.52652">
        <ele>388.73675548133</ele>
        <time>2021-08-21T12:21:56Z</time>
      </trkpt>
      <trkpt lat="47.74422" lon="6.52633">
        <ele>388.53309812787</ele>
        <time>2021-08-21T12:21:58Z</time>
      </trkpt>
      <trkpt lat="47.74422" lon="6.52615">
        <ele>388.33459488461</ele>
        <time>2021-08-21T12:22:00Z</time>
      </trkpt>
      <trkpt lat="47.74421" lon="6.52596">
        <ele>388.15105277964</ele>
        <time>2021-08-21T12:22:02Z</time>
      </trkpt>
      <trkpt lat="47.74422" lon="6.52577">
        <ele>387.95886948596</ele>
        <time>2021-08-21T12:22:04Z</time>
      </trkpt>
      <trkpt lat="47.74421" lon="6.52558">
        <ele>387.82577240779</ele>
        <time>2021-08-21T12:22:06Z</time>
      </trkpt>
      <trkpt lat="47.74422" lon="6.5254">
        <ele>387.64631296587</ele>
        <time>2021-08-21T12:22:08Z</time>
      </trkpt>
      <trkpt lat="47.74422" lon="6.52521">
        <ele>387.45093288248</ele>
        <time>2021-08-21T12:22:10Z</time>
      </trkpt>
      <trkpt lat="47.74422" lon="6.52503">
        <ele>387.33530361568</ele>
        <time>2021-08-21T12:22:12Z</time>
      </trkpt>
      <trkpt lat="47.74422" lon="6.52485">
        <ele>387.31195298187</ele>
        <time>2021-08-21T12:22:14Z</time>
      </trkpt>
      <trkpt lat="47.74422" lon="6.52467">
        <ele>387.20768179032</ele>
        <time>2021-08-21T12:22:16Z</time>
      </trkpt>
      <trkpt lat="47.74421" lon="6.52448">
        <ele>387.06298304903</ele>
        <time>2021-08-21T12:22:18Z</time>
      </trkpt>
      <trkpt lat="47.74421" lon="6.5243">
        <ele>386.9456951486</ele>
        <time>2021-08-21T12:22:20Z</time>
      </trkpt>
      <trkpt lat="47.74421" lon="6.52411">
        <ele>386.85260710887</ele>
        <time>2021-08-21T12:22:22Z</time>
      </trkpt>
      <trkpt lat="47.74421" lon="6.52392">
        <ele>386.75191916493</ele>
        <time>2021-08-21T12:22:24Z</time>
      </trkpt>
      <trkpt lat="47.74421" lon="6.52373">
        <ele>386.6330323798</ele>
        <time>2021-08-21T12:22:26Z</time>
      </trkpt>
      <trkpt lat="47.74421" lon="6.52354">
        <ele>386.56243988775</ele>
        <time>2021-08-21T12:22:28Z</time>
      </trkpt>
      <trkpt lat="47.74421" lon="6.52335">
        <ele>386.50272787185</ele>
        <time>2021-08-21T12:22:30Z</time>
      </trkpt>
      <trkpt lat="47.74421" lon="6.52315">
        <ele>386.48683738939</ele>
        <time>2021-08-21T12:22:32Z</time>
      </trkpt>
      <trkpt lat="47.74422" lon="6.52296">
        <ele>386.4916322582</ele>
        <time>2021-08-21T12:22:34Z</time>
      </trkpt>
      <trkpt lat="47.74421" lon="6.52277">
        <ele>386.46494519481</ele>
        <time>2021-08-21T12:22:36Z</time>
      </trkpt>
      <trkpt lat="47.74421" lon="6.52258">
        <ele>386.50972258551</ele>
        <time>2021-08-21T12:22:38Z</time>
      </trkpt>
      <trkpt lat="47.74422" lon="6.52239">
        <ele>386.55235597172</ele>
        <time>2021-08-21T12:22:40Z</time>
      </trkpt>
      <trkpt lat="47.74421" lon="6.5222">
        <ele>386.57400143268</ele>
        <time>2021-08-21T12:22:42Z</time>
      </trkpt>
      <trkpt lat="47.74421" lon="6.522">
        <ele>386.53441618209</ele>
        <time>2021-08-21T12:22:44Z</time>
      </trkpt>
      <trkpt lat="47.74421" lon="6.52181">
        <ele>386.50753646232</ele>
        <time>2021-08-21T12:22:46Z</time>
      </trkpt>
      <trkpt lat="47.74421" lon="6.52162">
        <ele>386.5328927307</ele>
        <time>2021-08-21T12:22:48Z</time>
      </trkpt>
      <trkpt lat="47.74421" lon="6.52143">
        <ele>386.5107969332</ele>
        <time>2021-08-21T12:22:50Z</time>
      </trkpt>
      <trkpt lat="47.7442" lon="6.52125">
        <ele>386.46244383847</ele>
        <time>2021-08-21T12:22:52Z</time>
      </trkpt>
      <trkpt lat="47.74421" lon="6.52108">
        <ele>386.36969473815</ele>
        <time>2021-08-21T12:22:54Z</time>
      </trkpt>
      <trkpt lat="47.7442" lon="6.52093">
        <ele>386.31810296983</ele>
        <time>2021-08-21T12:22:56Z</time>
      </trkpt>
      <trkpt lat="47.74421" lon="6.52076">
        <ele>386.30681921806</ele>
        <time>2021-08-21T12:22:58Z</time>
      </trkpt>
      <trkpt lat="47.74421" lon="6.52058">
        <ele>386.27702114157</ele>
        <time>2021-08-21T12:23:00Z</time>
      </trkpt>
      <trkpt lat="47.74421" lon="6.5204">
        <ele>386.20302332023</ele>
        <time>2021-08-21T12:23:02Z</time>
      </trkpt>
      <trkpt lat="47.74422" lon="6.52022">
        <ele>386.1022816898</ele>
        <time>2021-08-21T12:23:04Z</time>
      </trkpt>
      <trkpt lat="47.74422" lon="6.52003">
        <ele>386.00538287014</ele>
        <time>2021-08-21T12:23:06Z</time>
      </trkpt>
      <trkpt lat="47.74422" lon="6.51984">
        <ele>385.89606737433</ele>
        <time>2021-08-21T12:23:08Z</time>
      </trkpt>
      <trkpt lat="47.74421" lon="6.51965">
        <ele>385.80245674608</ele>
        <time>2021-08-21T12:23:10Z</time>
      </trkpt>
      <trkpt lat="47.74419" lon="6.51945">
        <ele>385.82327895827</ele>
        <time>2021-08-21T12:23:12Z</time>
      </trkpt>
      <trkpt lat="47.74417" lon="6.51926">
        <ele>385.84870044201</ele>
        <time>2021-08-21T12:23:14Z</time>
      </trkpt>
      <trkpt lat="47.74414" lon="6.51907">
        <ele>385.80728328582</ele>
        <time>2021-08-21T12:23:16Z</time>
      </trkpt>
      <trkpt lat="47.7441" lon="6.51887">
        <ele>385.80246464764</ele>
        <time>2021-08-21T12:23:18Z</time>
      </trkpt>
      <trkpt lat="47.74407" lon="6.51868">
        <ele>385.5597573403</ele>
        <time>2021-08-21T12:23:20Z</time>
      </trkpt>
      <trkpt lat="47.74403" lon="6.51849">
        <ele>385.39964918118</ele>
        <time>2021-08-21T12:23:22Z</time>
      </trkpt>
      <trkpt lat="47.74399" lon="6.51831">
        <ele>385.19814620083</ele>
        <time>2021-08-21T12:23:24Z</time>
      </trkpt>
      <trkpt lat="47.74396" lon="6.51812">
        <ele>385.02391501479</ele>
        <time>2021-08-21T12:23:26Z</time>
      </trkpt>
      <trkpt lat="47.74394" lon="6.51793">
        <ele>384.79657132549</ele>
        <time>2021-08-21T12:23:28Z</time>
      </trkpt>
      <trkpt lat="47.74391" lon="6.51775">
        <ele>384.58902931218</ele>
        <time>2021-08-21T12:23:30Z</time>
      </trkpt>
      <trkpt lat="47.74389" lon="6.51756">
        <ele>384.40586090368</ele>
        <time>2021-08-21T12:23:32Z</time>
      </trkpt>
      <trkpt lat="47.74389" lon="6.51736">
        <ele>384.43025089704</ele>
        <time>2021-08-21T12:23:34Z</time>
      </trkpt>
      <trkpt lat="47.7439" lon="6.51718">
        <ele>384.49763239355</ele>
        <time>2021-08-21T12:23:36Z</time>
      </trkpt>
      <trkpt lat="47.74393" lon="6.517">
        <ele>384.56932288009</ele>
        <time>2021-08-21T12:23:38Z</time>
      </trkpt>
      <trkpt lat="47.74396" lon="6.51681">
        <ele>384.52344543541</ele>
        <time>2021-08-21T12:23:40Z</time>
      </trkpt>
      <trkpt lat="47.74399" lon="6.51664">
        <ele>384.40066505872</ele>
        <time>2021-08-21T12:23:42Z</time>
      </trkpt>
      <trkpt lat="47.74404" lon="6.51646">
        <ele>384.28575627452</ele>
        <time>2021-08-21T12:23:44Z</time>
      </trkpt>
      <trkpt lat="47.74409" lon="6.51629">
        <ele>384.11176102013</ele>
        <time>2021-08-21T12:23:46Z</time>
      </trkpt>
      <trkpt lat="47.74412" lon="6.51613">
        <ele>384.00573955044</ele>
        <time>2021-08-21T12:23:48Z</time>
      </trkpt>
      <trkpt lat="47.74416" lon="6.51596">
        <ele>383.97164932047</ele>
        <time>2021-08-21T12:23:50Z</time>
      </trkpt>
      <trkpt lat="47.7442" lon="6.51579">
        <ele>383.67151497804</ele>
        <time>2021-08-21T12:23:52Z</time>
      </trkpt>
      <trkpt lat="47.74425" lon="6.51562">
        <ele>383.44392216368</ele>
        <time>2021-08-21T12:23:54Z</time>
      </trkpt>
      <trkpt lat="47.74428" lon="6.51544">
        <ele>383.14160660568</ele>
        <time>2021-08-21T12:23:56Z</time>
      </trkpt>
      <trkpt lat="47.74432" lon="6.51527">
        <ele>382.88875424745</ele>
        <time>2021-08-21T12:23:58Z</time>
      </trkpt>
      <trkpt lat="47.74436" lon="6.51508">
        <ele>382.69267370812</ele>
        <time>2021-08-21T12:24:00Z</time>
      </trkpt>
      <trkpt lat="47.74438" lon="6.51488">
        <ele>382.5560162008</ele>
        <time>2021-08-21T12:24:02Z</time>
      </trkpt>
      <trkpt lat="47.74442" lon="6.51468">
        <ele>382.46344783157</ele>
        <time>2021-08-21T12:24:04Z</time>
      </trkpt>
      <trkpt lat="47.74446" lon="6.5145">
        <ele>382.50022458601</ele>
        <time>2021-08-21T12:24:06Z</time>
      </trkpt>
      <trkpt lat="47.74449" lon="6.5143">
        <ele>382.45153813701</ele>
        <time>2021-08-21T12:24:08Z</time>
      </trkpt>
      <trkpt lat="47.74453" lon="6.51411">
        <ele>382.18918709605</ele>
        <time>2021-08-21T12:24:10Z</time>
      </trkpt>
      <trkpt lat="47.74457" lon="6.51391">
        <ele>382.05891884847</ele>
        <time>2021-08-21T12:24:12Z</time>
      </trkpt>
      <trkpt lat="47.74461" lon="6.51372">
        <ele>381.9661712266</ele>
        <time>2021-08-21T12:24:14Z</time>
      </trkpt>
      <trkpt lat="47.74464" lon="6.51353">
        <ele>381.88130394169</ele>
        <time>2021-08-21T12:24:16Z</time>
      </trkpt>
      <trkpt lat="47.74469" lon="6.51334">
        <ele>381.84221797184</ele>
        <time>2021-08-21T12:24:18Z</time>
      </trkpt>
      <trkpt lat="47.74473" lon="6.51316">
        <ele>381.95064887434</ele>
        <time>2021-08-21T12:24:20Z</time>
      </trkpt>
      <trkpt lat="47.74478" lon="6.51297">
        <ele>382.04961762543</ele>
        <time>2021-08-21T12:24:22Z</time>
      </trkpt>
      <trkpt lat="47.74483" lon="6.51282">
        <ele>381.86038349602</ele>
        <time>2021-08-21T12:24:24Z</time>
      </trkpt>
      <trkpt lat="47.74488" lon="6.51265">
        <ele>381.57537179877</ele>
        <time>2021-08-21T12:24:26Z</time>
      </trkpt>
      <trkpt lat="47.74492" lon="6.51246">
        <ele>381.42743608805</ele>
        <time>2021-08-21T12:24:28Z</time>
      </trkpt>
      <trkpt lat="47.74497" lon="6.51228">
        <ele>381.40586466886</ele>
        <time>2021-08-21T12:24:30Z</time>
      </trkpt>
      <trkpt lat="47.74502" lon="6.51209">
        <ele>381.43219214359</ele>
        <time>2021-08-21T12:24:32Z</time>
      </trkpt>
      <trkpt lat="47.74508" lon="6.51193">
        <ele>381.59626541807</ele>
        <time>2021-08-21T12:24:34Z</time>
      </trkpt>
      <trkpt lat="47.74512" lon="6.51177">
        <ele>381.5428192015</ele>
        <time>2021-08-21T12:24:36Z</time>
      </trkpt>
      <trkpt lat="47.74516" lon="6.51161">
        <ele>381.46960837739</ele>
        <time>2021-08-21T12:24:38Z</time>
      </trkpt>
      <trkpt lat="47.74521" lon="6.51145">
        <ele>381.36129994273</ele>
        <time>2021-08-21T12:24:40Z</time>
      </trkpt>
      <trkpt lat="47.74525" lon="6.51131">
        <ele>381.24295469009</ele>
        <time>2021-08-21T12:24:42Z</time>
      </trkpt>
      <trkpt lat="47.74531" lon="6.51116">
        <ele>381.2058103333</ele>
        <time>2021-08-21T12:24:44Z</time>
      </trkpt>
      <trkpt lat="47.74536" lon="6.51101">
        <ele>381.17975046182</ele>
        <time>2021-08-21T12:24:46Z</time>
      </trkpt>
      <trkpt lat="47.74541" lon="6.51086">
        <ele>381.28988442265</ele>
        <time>2021-08-21T12:24:48Z</time>
      </trkpt>
      <trkpt lat="47.74546" lon="6.51071">
        <ele>381.50624665708</ele>
        <time>2021-08-21T12:24:50Z</time>
      </trkpt>
      <trkpt lat="47.74551" lon="6.51056">
        <ele>381.64250300358</ele>
        <time>2021-08-21T12:24:52Z</time>
      </trkpt>
      <trkpt lat="47.74556" lon="6.51039">
        <ele>381.83941078189</ele>
        <time>2021-08-21T12:24:54Z</time>
      </trkpt>
      <trkpt lat="47.74562" lon="6.51023">
        <ele>382.26477866852</ele>
        <time>2021-08-21T12:24:56Z</time>
      </trkpt>
      <trkpt lat="47.74567" lon="6.51006">
        <ele>382.70853625272</ele>
        <time>2021-08-21T12:24:58Z</time>
      </trkpt>
      <trkpt lat="47.74571" lon="6.5099">
        <ele>382.92538675008</ele>
        <time>2021-08-21T12:25:00Z</time>
      </trkpt>
      <trkpt lat="47.74577" lon="6.50974">
        <ele>383.01083639281</ele>
        <time>2021-08-21T12:25:02Z</time>
      </trkpt>
      <trkpt lat="47.74582" lon="6.50958">
        <ele>383.02993902496</ele>
        <time>2021-08-21T12:25:04Z</time>
      </trkpt>
      <trkpt lat="47.74587" lon="6.50942">
        <ele>383.00716900978</ele>
        <time>2021-08-21T12:25:06Z</time>
      </trkpt>
      <trkpt lat="47.74592" lon="6.50927">
        <ele>382.94470503125</ele>
        <time>2021-08-21T12:25:08Z</time>
      </trkpt>
      <trkpt lat="47.74597" lon="6.50911">
        <ele>382.82907146725</ele>
        <time>2021-08-21T12:25:10Z</time>
      </trkpt>
      <trkpt lat="47.74602" lon="6.50896">
        <ele>382.55823313551</ele>
        <time>2021-08-21T12:25:12Z</time>
      </trkpt>
      <trkpt lat="47.74607" lon="6.5088">
        <ele>382.38735104259</ele>
        <time>2021-08-21T12:25:14Z</time>
      </trkpt>
      <trkpt lat="47.74612" lon="6.50864">
        <ele>382.25434564443</ele>
        <time>2021-08-21T12:25:16Z</time>
      </trkpt>
      <trkpt lat="47.74617" lon="6.50849">
        <ele>382.168319653</ele>
        <time>2021-08-21T12:25:18Z</time>
      </trkpt>
      <trkpt lat="47.74623" lon="6.50832">
        <ele>382.16975370384</ele>
        <time>2021-08-21T12:25:20Z</time>
      </trkpt>
      <trkpt lat="47.74629" lon="6.50816">
        <ele>382.28266369467</ele>
        <time>2021-08-21T12:25:22Z</time>
      </trkpt>
      <trkpt lat="47.74633" lon="6.50799">
        <ele>382.41746296193</ele>
        <time>2021-08-21T12:25:24Z</time>
      </trkpt>
      <trkpt lat="47.74638" lon="6.50782">
        <ele>382.60927048055</ele>
        <time>2021-08-21T12:25:26Z</time>
      </trkpt>
      <trkpt lat="47.74643" lon="6.50767">
        <ele>382.77430927037</ele>
        <time>2021-08-21T12:25:28Z</time>
      </trkpt>
      <trkpt lat="47.74647" lon="6.50752">
        <ele>382.83306736852</ele>
        <time>2021-08-21T12:25:30Z</time>
      </trkpt>
      <trkpt lat="47.74652" lon="6.50737">
        <ele>383.05119961479</ele>
        <time>2021-08-21T12:25:32Z</time>
      </trkpt>
      <trkpt lat="47.74656" lon="6.50722">
        <ele>383.26684936547</ele>
        <time>2021-08-21T12:25:34Z</time>
      </trkpt>
      <trkpt lat="47.74661" lon="6.50707">
        <ele>383.46210756475</ele>
        <time>2021-08-21T12:25:36Z</time>
      </trkpt>
      <trkpt lat="47.74666" lon="6.50693">
        <ele>383.63555065722</ele>
        <time>2021-08-21T12:25:38Z</time>
      </trkpt>
      <trkpt lat="47.74671" lon="6.50678">
        <ele>383.98858057993</ele>
        <time>2021-08-21T12:25:40Z</time>
      </trkpt>
      <trkpt lat="47.74676" lon="6.50664">
        <ele>384.34800542984</ele>
        <time>2021-08-21T12:25:42Z</time>
      </trkpt>
      <trkpt lat="47.74681" lon="6.50649">
        <ele>384.69769041814</ele>
        <time>2021-08-21T12:25:44Z</time>
      </trkpt>
      <trkpt lat="47.74685" lon="6.50636">
        <ele>384.96855953808</ele>
        <time>2021-08-21T12:25:46Z</time>
      </trkpt>
      <trkpt lat="47.7469" lon="6.50621">
        <ele>385.2717324606</ele>
        <time>2021-08-21T12:25:48Z</time>
      </trkpt>
      <trkpt lat="47.74694" lon="6.50608">
        <ele>385.47228493138</ele>
        <time>2021-08-21T12:25:50Z</time>
      </trkpt>
      <trkpt lat="47.74698" lon="6.50594">
        <ele>385.48862936174</ele>
        <time>2021-08-21T12:25:52Z</time>
      </trkpt>
      <trkpt lat="47.74703" lon="6.50581">
        <ele>385.48273988218</ele>
        <time>2021-08-21T12:25:54Z</time>
      </trkpt>
      <trkpt lat="47.74708" lon="6.50567">
        <ele>385.46689512224</ele>
        <time>2021-08-21T12:25:56Z</time>
      </trkpt>
      <trkpt lat="47.74712" lon="6.50554">
        <ele>385.3813596755</ele>
        <time>2021-08-21T12:25:58Z</time>
      </trkpt>
      <trkpt lat="47.74716" lon="6.5054">
        <ele>385.27242485068</ele>
        <time>2021-08-21T12:26:00Z</time>
      </trkpt>
      <trkpt lat="47.74721" lon="6.50526">
        <ele>385.14417727719</ele>
        <time>2021-08-21T12:26:02Z</time>
      </trkpt>
      <trkpt lat="47.74725" lon="6.50513">
        <ele>385.0077465596</ele>
        <time>2021-08-21T12:26:04Z</time>
      </trkpt>
      <trkpt lat="47.74731" lon="6.50499">
        <ele>384.8567029909</ele>
        <time>2021-08-21T12:26:06Z</time>
      </trkpt>
      <trkpt lat="47.74735" lon="6.50485">
        <ele>384.71037773385</ele>
        <time>2021-08-21T12:26:08Z</time>
      </trkpt>
      <trkpt lat="47.74739" lon="6.5047">
        <ele>384.5851366808</ele>
        <time>2021-08-21T12:26:10Z</time>
      </trkpt>
      <trkpt lat="47.74744" lon="6.50457">
        <ele>384.47953014359</ele>
        <time>2021-08-21T12:26:12Z</time>
      </trkpt>
      <trkpt lat="47.74748" lon="6.50444">
        <ele>384.41264573989</ele>
        <time>2021-08-21T12:26:14Z</time>
      </trkpt>
      <trkpt lat="47.74752" lon="6.50431">
        <ele>384.35644920884</ele>
        <time>2021-08-21T12:26:16Z</time>
      </trkpt>
      <trkpt lat="47.74756" lon="6.50418">
        <ele>384.31189014416</ele>
        <time>2021-08-21T12:26:18Z</time>
      </trkpt>
      <trkpt lat="47.74759" lon="6.50405">
        <ele>384.27181269853</ele>
        <time>2021-08-21T12:26:20Z</time>
      </trkpt>
      <trkpt lat="47.74761" lon="6.50392">
        <ele>384.24022008367</ele>
        <time>2021-08-21T12:26:22Z</time>
      </trkpt>
      <trkpt lat="47.74763" lon="6.50377">
        <ele>384.18674731773</ele>
        <time>2021-08-21T12:26:24Z</time>
      </trkpt>
      <trkpt lat="47.74765" lon="6.50364">
        <ele>384.12347215385</ele>
        <time>2021-08-21T12:26:26Z</time>
      </trkpt>
      <trkpt lat="47.74766" lon="6.5035">
        <ele>384.0779033027</ele>
        <time>2021-08-21T12:26:28Z</time>
      </trkpt>
      <trkpt lat="47.74767" lon="6.50335">
        <ele>384.02551572796</ele>
        <time>2021-08-21T12:26:30Z</time>
      </trkpt>
      <trkpt lat="47.74768" lon="6.5032">
        <ele>383.96576229444</ele>
        <time>2021-08-21T12:26:32Z</time>
      </trkpt>
      <trkpt lat="47.74769" lon="6.50305">
        <ele>383.8969570449</ele>
        <time>2021-08-21T12:26:34Z</time>
      </trkpt>
      <trkpt lat="47.7477" lon="6.50292">
        <ele>383.83997661235</ele>
        <time>2021-08-21T12:26:36Z</time>
      </trkpt>
      <trkpt lat="47.74771" lon="6.50278">
        <ele>383.77945715879</ele>
        <time>2021-08-21T12:26:38Z</time>
      </trkpt>
      <trkpt lat="47.74772" lon="6.50265">
        <ele>383.73305569299</ele>
        <time>2021-08-21T12:26:40Z</time>
      </trkpt>
      <trkpt lat="47.74771" lon="6.5025">
        <ele>383.69025293897</ele>
        <time>2021-08-21T12:26:42Z</time>
      </trkpt>
      <trkpt lat="47.74771" lon="6.50235">
        <ele>383.64958206075</ele>
        <time>2021-08-21T12:26:44Z</time>
      </trkpt>
      <trkpt lat="47.74771" lon="6.50219">
        <ele>383.60420247215</ele>
        <time>2021-08-21T12:26:46Z</time>
      </trkpt>
      <trkpt lat="47.74771" lon="6.50204">
        <ele>383.5623153836</ele>
        <time>2021-08-21T12:26:48Z</time>
      </trkpt>
      <trkpt lat="47.74771" lon="6.5019">
        <ele>383.52510233837</ele>
        <time>2021-08-21T12:26:50Z</time>
      </trkpt>
      <trkpt lat="47.74772" lon="6.50176">
        <ele>383.49196354145</ele>
        <time>2021-08-21T12:26:52Z</time>
      </trkpt>
      <trkpt lat="47.74772" lon="6.50161">
        <ele>383.46327757481</ele>
        <time>2021-08-21T12:26:54Z</time>
      </trkpt>
      <trkpt lat="47.74772" lon="6.50146">
        <ele>383.43979666129</ele>
        <time>2021-08-21T12:26:56Z</time>
      </trkpt>
      <trkpt lat="47.74773" lon="6.50132">
        <ele>383.41683762406</ele>
        <time>2021-08-21T12:26:58Z</time>
      </trkpt>
      <trkpt lat="47.74774" lon="6.50117">
        <ele>383.39482577574</ele>
        <time>2021-08-21T12:27:00Z</time>
      </trkpt>
      <trkpt lat="47.74776" lon="6.50103">
        <ele>383.37407751117</ele>
        <time>2021-08-21T12:27:02Z</time>
      </trkpt>
      <trkpt lat="47.74777" lon="6.50086">
        <ele>383.35664404061</ele>
        <time>2021-08-21T12:27:04Z</time>
      </trkpt>
      <trkpt lat="47.74779" lon="6.50069">
        <ele>383.33667559077</ele>
        <time>2021-08-21T12:27:06Z</time>
      </trkpt>
      <trkpt lat="47.74781" lon="6.50051">
        <ele>383.31343625599</ele>
        <time>2021-08-21T12:27:08Z</time>
      </trkpt>
      <trkpt lat="47.74783" lon="6.50033">
        <ele>383.29621065875</ele>
        <time>2021-08-21T12:27:10Z</time>
      </trkpt>
      <trkpt lat="47.74785" lon="6.50015">
        <ele>383.25063894229</ele>
        <time>2021-08-21T12:27:12Z</time>
      </trkpt>
      <trkpt lat="47.74789" lon="6.49998">
        <ele>383.15634492198</ele>
        <time>2021-08-21T12:27:14Z</time>
      </trkpt>
      <trkpt lat="47.74795" lon="6.4998">
        <ele>383.04292185446</ele>
        <time>2021-08-21T12:27:16Z</time>
      </trkpt>
      <trkpt lat="47.74803" lon="6.49963">
        <ele>382.93444967306</ele>
        <time>2021-08-21T12:27:18Z</time>
      </trkpt>
      <trkpt lat="47.74813" lon="6.49949">
        <ele>382.90806237853</ele>
        <time>2021-08-21T12:27:20Z</time>
      </trkpt>
      <trkpt lat="47.74825" lon="6.49938">
        <ele>382.80987588908</ele>
        <time>2021-08-21T12:27:22Z</time>
      </trkpt>
      <trkpt lat="47.74837" lon="6.49927">
        <ele>382.79904146266</ele>
        <time>2021-08-21T12:27:24Z</time>
      </trkpt>
      <trkpt lat="47.74848" lon="6.49917">
        <ele>382.83509411648</ele>
        <time>2021-08-21T12:27:26Z</time>
      </trkpt>
      <trkpt lat="47.7486" lon="6.49906">
        <ele>382.79396992676</ele>
        <time>2021-08-21T12:27:28Z</time>
      </trkpt>
      <trkpt lat="47.74872" lon="6.49895">
        <ele>382.68841156636</ele>
        <time>2021-08-21T12:27:30Z</time>
      </trkpt>
      <trkpt lat="47.74883" lon="6.49883">
        <ele>382.53291184123</ele>
        <time>2021-08-21T12:27:32Z</time>
      </trkpt>
      <trkpt lat="47.74894" lon="6.49869">
        <ele>382.43171284888</ele>
        <time>2021-08-21T12:27:34Z</time>
      </trkpt>
      <trkpt lat="47.749" lon="6.49851">
        <ele>382.29576944174</ele>
        <time>2021-08-21T12:27:36Z</time>
      </trkpt>
      <trkpt lat="47.749" lon="6.4983">
        <ele>382.14812176174</ele>
        <time>2021-08-21T12:27:38Z</time>
      </trkpt>
      <trkpt lat="47.74893" lon="6.4981">
        <ele>381.99835306533</ele>
        <time>2021-08-21T12:27:40Z</time>
      </trkpt>
      <trkpt lat="47.74885" lon="6.4979">
        <ele>381.66634045022</ele>
        <time>2021-08-21T12:27:42Z</time>
      </trkpt>
      <trkpt lat="47.74877" lon="6.49768">
        <ele>381.4157708167</ele>
        <time>2021-08-21T12:27:44Z</time>
      </trkpt>
      <trkpt lat="47.74871" lon="6.49746">
        <ele>381.21954090939</ele>
        <time>2021-08-21T12:27:46Z</time>
      </trkpt>
      <trkpt lat="47.74868" lon="6.4972">
        <ele>381.01072068589</ele>
        <time>2021-08-21T12:27:48Z</time>
      </trkpt>
      <trkpt lat="47.7487" lon="6.49694">
        <ele>381.01540583319</ele>
        <time>2021-08-21T12:27:50Z</time>
      </trkpt>
      <trkpt lat="47.74878" lon="6.4967">
        <ele>380.9767253095</ele>
        <time>2021-08-21T12:27:52Z</time>
      </trkpt>
      <trkpt lat="47.74892" lon="6.49655">
        <ele>380.9700046368</ele>
        <time>2021-08-21T12:27:54Z</time>
      </trkpt>
      <trkpt lat="47.74907" lon="6.49641">
        <ele>380.7622274132</ele>
        <time>2021-08-21T12:27:56Z</time>
      </trkpt>
      <trkpt lat="47.7492" lon="6.49627">
        <ele>380.71664115128</ele>
        <time>2021-08-21T12:27:58Z</time>
      </trkpt>
      <trkpt lat="47.74928" lon="6.49609">
        <ele>380.68024784747</ele>
        <time>2021-08-21T12:28:00Z</time>
      </trkpt>
      <trkpt lat="47.74925" lon="6.49591">
        <ele>380.56372758313</ele>
        <time>2021-08-21T12:28:02Z</time>
      </trkpt>
      <trkpt lat="47.7492" lon="6.49576">
        <ele>380.28680634396</ele>
        <time>2021-08-21T12:28:04Z</time>
      </trkpt>
      <trkpt lat="47.74918" lon="6.49565">
        <ele>380.24710994754</ele>
        <time>2021-08-21T12:28:06Z</time>
      </trkpt>
      <trkpt lat="47.74916" lon="6.49557">
        <ele>380.19738778252</ele>
        <time>2021-08-21T12:28:08Z</time>
      </trkpt>
      <trkpt lat="47.74914" lon="6.49549">
        <ele>380.13531169509</ele>
        <time>2021-08-21T12:28:10Z</time>
      </trkpt>
      <trkpt lat="47.74907" lon="6.49541">
        <ele>379.51540056214</ele>
        <time>2021-08-21T12:28:12Z</time>
      </trkpt>
      <trkpt lat="47.74899" lon="6.49528">
        <ele>378.9963367583</ele>
        <time>2021-08-21T12:28:14Z</time>
      </trkpt>
      <trkpt lat="47.74889" lon="6.49516">
        <ele>378.51324704102</ele>
        <time>2021-08-21T12:28:16Z</time>
      </trkpt>
      <trkpt lat="47.74879" lon="6.49502">
        <ele>378.02884403632</ele>
        <time>2021-08-21T12:28:18Z</time>
      </trkpt>
      <trkpt lat="47.74869" lon="6.49488">
        <ele>377.82170017877</ele>
        <time>2021-08-21T12:28:20Z</time>
      </trkpt>
      <trkpt lat="47.74859" lon="6.49475">
        <ele>377.99563459274</ele>
        <time>2021-08-21T12:28:22Z</time>
      </trkpt>
      <trkpt lat="47.7485" lon="6.4946">
        <ele>378.07167699632</ele>
        <time>2021-08-21T12:28:24Z</time>
      </trkpt>
      <trkpt lat="47.74843" lon="6.49443">
        <ele>378.16590965654</ele>
        <time>2021-08-21T12:28:26Z</time>
      </trkpt>
      <trkpt lat="47.74837" lon="6.49426">
        <ele>378.60690175822</ele>
        <time>2021-08-21T12:28:28Z</time>
      </trkpt>
      <trkpt lat="47.74833" lon="6.49408">
        <ele>378.4751874468</ele>
        <time>2021-08-21T12:28:30Z</time>
      </trkpt>
      <trkpt lat="47.74828" lon="6.49392">
        <ele>378.27313596258</ele>
        <time>2021-08-21T12:28:32Z</time>
      </trkpt>
      <trkpt lat="47.74822" lon="6.49377">
        <ele>377.92853642801</ele>
        <time>2021-08-21T12:28:34Z</time>
      </trkpt>
      <trkpt lat="47.74814" lon="6.49363">
        <ele>377.64665547273</ele>
        <time>2021-08-21T12:28:36Z</time>
      </trkpt>
      <trkpt lat="47.74804" lon="6.49352">
        <ele>377.42387466065</ele>
        <time>2021-08-21T12:28:38Z</time>
      </trkpt>
      <trkpt lat="47.74793" lon="6.49344">
        <ele>377.17465136446</ele>
        <time>2021-08-21T12:28:40Z</time>
      </trkpt>
      <trkpt lat="47.74782" lon="6.49341">
        <ele>377.03136093033</ele>
        <time>2021-08-21T12:28:42Z</time>
      </trkpt>
      <trkpt lat="47.7477" lon="6.49339">
        <ele>376.88742958801</ele>
        <time>2021-08-21T12:28:44Z</time>
      </trkpt>
      <trkpt lat="47.74759" lon="6.49337">
        <ele>376.8167029948</ele>
        <time>2021-08-21T12:28:46Z</time>
      </trkpt>
      <trkpt lat="47.74747" lon="6.49334">
        <ele>376.86742073267</ele>
        <time>2021-08-21T12:28:48Z</time>
      </trkpt>
      <trkpt lat="47.74736" lon="6.49329">
        <ele>376.90880141291</ele>
        <time>2021-08-21T12:28:50Z</time>
      </trkpt>
      <trkpt lat="47.74725" lon="6.49324">
        <ele>376.97820386393</ele>
        <time>2021-08-21T12:28:52Z</time>
      </trkpt>
      <trkpt lat="47.74715" lon="6.49319">
        <ele>377.0919790789</ele>
        <time>2021-08-21T12:28:54Z</time>
      </trkpt>
      <trkpt lat="47.74706" lon="6.49315">
        <ele>377.12161923342</ele>
        <time>2021-08-21T12:28:56Z</time>
      </trkpt>
      <trkpt lat="47.74698" lon="6.49312">
        <ele>377.17665406001</ele>
        <time>2021-08-21T12:28:58Z</time>
      </trkpt>
      <trkpt lat="47.74689" lon="6.49309">
        <ele>377.23772104704</ele>
        <time>2021-08-21T12:29:00Z</time>
      </trkpt>
      <trkpt lat="47.74682" lon="6.4931">
        <ele>377.08377108426</ele>
        <time>2021-08-21T12:29:02Z</time>
      </trkpt>
      <trkpt lat="47.74673" lon="6.49313">
        <ele>376.97400347304</ele>
        <time>2021-08-21T12:29:04Z</time>
      </trkpt>
      <trkpt lat="47.74664" lon="6.49316">
        <ele>376.9356089229</ele>
        <time>2021-08-21T12:29:06Z</time>
      </trkpt>
      <trkpt lat="47.74655" lon="6.49318">
        <ele>376.88019397675</ele>
        <time>2021-08-21T12:29:08Z</time>
      </trkpt>
      <trkpt lat="47.74646" lon="6.49321">
        <ele>376.52621401387</ele>
        <time>2021-08-21T12:29:10Z</time>
      </trkpt>
      <trkpt lat="47.74637" lon="6.49325">
        <ele>376.30642342185</ele>
        <time>2021-08-21T12:29:12Z</time>
      </trkpt>
      <trkpt lat="47.74628" lon="6.49329">
        <ele>376.13183814137</ele>
        <time>2021-08-21T12:29:14Z</time>
      </trkpt>
      <trkpt lat="47.74618" lon="6.49332">
        <ele>375.9784398794</ele>
        <time>2021-08-21T12:29:16Z</time>
      </trkpt>
      <trkpt lat="47.74608" lon="6.4933">
        <ele>375.94589755951</ele>
        <time>2021-08-21T12:29:18Z</time>
      </trkpt>
      <trkpt lat="47.74598" lon="6.49327">
        <ele>375.98112173637</ele>
        <time>2021-08-21T12:29:20Z</time>
      </trkpt>
      <trkpt lat="47.74589" lon="6.49321">
        <ele>376.00641722832</ele>
        <time>2021-08-21T12:29:22Z</time>
      </trkpt>
      <trkpt lat="47.74581" lon="6.49314">
        <ele>376.04876497172</ele>
        <time>2021-08-21T12:29:24Z</time>
      </trkpt>
      <trkpt lat="47.74572" lon="6.49305">
        <ele>376.19631063902</ele>
        <time>2021-08-21T12:29:26Z</time>
      </trkpt>
      <trkpt lat="47.74565" lon="6.49296">
        <ele>376.31332453291</ele>
        <time>2021-08-21T12:29:28Z</time>
      </trkpt>
      <trkpt lat="47.74557" lon="6.49286">
        <ele>376.41862795487</ele>
        <time>2021-08-21T12:29:30Z</time>
      </trkpt>
      <trkpt lat="47.74551" lon="6.49277">
        <ele>376.51355666876</ele>
        <time>2021-08-21T12:29:32Z</time>
      </trkpt>
      <trkpt lat="47.74544" lon="6.4927">
        <ele>376.58712279894</ele>
        <time>2021-08-21T12:29:34Z</time>
      </trkpt>
      <trkpt lat="47.74537" lon="6.49262">
        <ele>376.59673333612</ele>
        <time>2021-08-21T12:29:36Z</time>
      </trkpt>
      <trkpt lat="47.7453" lon="6.49255">
        <ele>376.56906348617</ele>
        <time>2021-08-21T12:29:38Z</time>
      </trkpt>
      <trkpt lat="47.74523" lon="6.49248">
        <ele>376.52009269034</ele>
        <time>2021-08-21T12:29:40Z</time>
      </trkpt>
      <trkpt lat="47.74515" lon="6.49241">
        <ele>376.45033238596</ele>
        <time>2021-08-21T12:29:42Z</time>
      </trkpt>
      <trkpt lat="47.74508" lon="6.49235">
        <ele>376.38632494656</ele>
        <time>2021-08-21T12:29:44Z</time>
      </trkpt>
      <trkpt lat="47.745" lon="6.49231">
        <ele>376.32396439504</ele>
        <time>2021-08-21T12:29:46Z</time>
      </trkpt>
      <trkpt lat="47.74494" lon="6.49228">
        <ele>376.30176066556</ele>
        <time>2021-08-21T12:29:48Z</time>
      </trkpt>
      <trkpt lat="47.74486" lon="6.49224">
        <ele>376.24537044187</ele>
        <time>2021-08-21T12:29:50Z</time>
      </trkpt>
      <trkpt lat="47.74479" lon="6.49221">
        <ele>376.20510237234</ele>
        <time>2021-08-21T12:29:52Z</time>
      </trkpt>
      <trkpt lat="47.74471" lon="6.49218">
        <ele>376.16524134324</ele>
        <time>2021-08-21T12:29:54Z</time>
      </trkpt>
      <trkpt lat="47.74464" lon="6.49216">
        <ele>376.14376136506</ele>
        <time>2021-08-21T12:29:56Z</time>
      </trkpt>
      <trkpt lat="47.74456" lon="6.49214">
        <ele>376.15099154112</ele>
        <time>2021-08-21T12:29:58Z</time>
      </trkpt>
      <trkpt lat="47.74449" lon="6.4921">
        <ele>376.18487389274</ele>
        <time>2021-08-21T12:30:00Z</time>
      </trkpt>
      <trkpt lat="47.74445" lon="6.492">
        <ele>376.22869893076</ele>
        <time>2021-08-21T12:30:02Z</time>
      </trkpt>
      <trkpt lat="47.74445" lon="6.49185">
        <ele>376.2320580227</ele>
        <time>2021-08-21T12:30:04Z</time>
      </trkpt>
      <trkpt lat="47.74448" lon="6.4917">
        <ele>376.20607126542</ele>
        <time>2021-08-21T12:30:06Z</time>
      </trkpt>
      <trkpt lat="47.74452" lon="6.49154">
        <ele>376.17012497163</ele>
        <time>2021-08-21T12:30:08Z</time>
      </trkpt>
      <trkpt lat="47.74455" lon="6.49137">
        <ele>376.11807771567</ele>
        <time>2021-08-21T12:30:10Z</time>
      </trkpt>
      <trkpt lat="47.74458" lon="6.49119">
        <ele>376.03203902792</ele>
        <time>2021-08-21T12:30:12Z</time>
      </trkpt>
      <trkpt lat="47.74462" lon="6.491">
        <ele>375.87674306319</ele>
        <time>2021-08-21T12:30:14Z</time>
      </trkpt>
      <trkpt lat="47.74465" lon="6.49081">
        <ele>375.69873464408</ele>
        <time>2021-08-21T12:30:16Z</time>
      </trkpt>
      <trkpt lat="47.74467" lon="6.49061">
        <ele>375.48930997113</ele>
        <time>2021-08-21T12:30:18Z</time>
      </trkpt>
      <trkpt lat="47.7447" lon="6.4904">
        <ele>375.23110992046</ele>
        <time>2021-08-21T12:30:20Z</time>
      </trkpt>
      <trkpt lat="47.74473" lon="6.49018">
        <ele>374.87909365882</ele>
        <time>2021-08-21T12:30:22Z</time>
      </trkpt>
      <trkpt lat="47.74476" lon="6.48996">
        <ele>374.56463507443</ele>
        <time>2021-08-21T12:30:24Z</time>
      </trkpt>
      <trkpt lat="47.74479" lon="6.48973">
        <ele>374.26106577599</ele>
        <time>2021-08-21T12:30:26Z</time>
      </trkpt>
      <trkpt lat="47.74481" lon="6.48949">
        <ele>373.91809570133</ele>
        <time>2021-08-21T12:30:28Z</time>
      </trkpt>
      <trkpt lat="47.74484" lon="6.48926">
        <ele>373.62904060088</ele>
        <time>2021-08-21T12:30:30Z</time>
      </trkpt>
      <trkpt lat="47.74487" lon="6.48902">
        <ele>373.4245850881</ele>
        <time>2021-08-21T12:30:32Z</time>
      </trkpt>
      <trkpt lat="47.7449" lon="6.48879">
        <ele>373.22226781746</ele>
        <time>2021-08-21T12:30:34Z</time>
      </trkpt>
      <trkpt lat="47.74491" lon="6.48856">
        <ele>373.0401234479</ele>
        <time>2021-08-21T12:30:36Z</time>
      </trkpt>
      <trkpt lat="47.74493" lon="6.48834">
        <ele>372.82995895153</ele>
        <time>2021-08-21T12:30:38Z</time>
      </trkpt>
      <trkpt lat="47.74495" lon="6.48815">
        <ele>372.5366829329</ele>
        <time>2021-08-21T12:30:40Z</time>
      </trkpt>
      <trkpt lat="47.74497" lon="6.48794">
        <ele>372.37855252956</ele>
        <time>2021-08-21T12:30:42Z</time>
      </trkpt>
      <trkpt lat="47.74498" lon="6.48775">
        <ele>372.34684824031</ele>
        <time>2021-08-21T12:30:44Z</time>
      </trkpt>
      <trkpt lat="47.74497" lon="6.48756">
        <ele>372.45258190023</ele>
        <time>2021-08-21T12:30:46Z</time>
      </trkpt>
      <trkpt lat="47.74495" lon="6.48738">
        <ele>372.56961756625</ele>
        <time>2021-08-21T12:30:48Z</time>
      </trkpt>
      <trkpt lat="47.74492" lon="6.4872">
        <ele>372.50885878441</ele>
        <time>2021-08-21T12:30:50Z</time>
      </trkpt>
      <trkpt lat="47.74489" lon="6.48702">
        <ele>372.46270482164</ele>
        <time>2021-08-21T12:30:52Z</time>
      </trkpt>
      <trkpt lat="47.74485" lon="6.48684">
        <ele>372.35767077205</ele>
        <time>2021-08-21T12:30:54Z</time>
      </trkpt>
      <trkpt lat="47.74482" lon="6.48667">
        <ele>372.27568529347</ele>
        <time>2021-08-21T12:30:56Z</time>
      </trkpt>
      <trkpt lat="47.74477" lon="6.48651">
        <ele>372.21568537466</ele>
        <time>2021-08-21T12:30:58Z</time>
      </trkpt>
      <trkpt lat="47.74475" lon="6.48634">
        <ele>372.19842267328</ele>
        <time>2021-08-21T12:31:00Z</time>
      </trkpt>
      <trkpt lat="47.74472" lon="6.48617">
        <ele>372.20918155129</ele>
        <time>2021-08-21T12:31:02Z</time>
      </trkpt>
      <trkpt lat="47.74468" lon="6.486">
        <ele>372.21783347179</ele>
        <time>2021-08-21T12:31:04Z</time>
      </trkpt>
      <trkpt lat="47.74465" lon="6.48584">
        <ele>372.1777217846</ele>
        <time>2021-08-21T12:31:06Z</time>
      </trkpt>
      <trkpt lat="47.74462" lon="6.48567">
        <ele>372.16546033913</ele>
        <time>2021-08-21T12:31:08Z</time>
      </trkpt>
      <trkpt lat="47.74458" lon="6.48551">
        <ele>372.15377577425</ele>
        <time>2021-08-21T12:31:10Z</time>
      </trkpt>
      <trkpt lat="47.74454" lon="6.48537">
        <ele>371.8304439793</ele>
        <time>2021-08-21T12:31:12Z</time>
      </trkpt>
      <trkpt lat="47.7445" lon="6.48522">
        <ele>371.64846648368</ele>
        <time>2021-08-21T12:31:14Z</time>
      </trkpt>
      <trkpt lat="47.74445" lon="6.48507">
        <ele>371.3320512425</ele>
        <time>2021-08-21T12:31:16Z</time>
      </trkpt>
      <trkpt lat="47.74441" lon="6.48492">
        <ele>371.02805105286</ele>
        <time>2021-08-21T12:31:18Z</time>
      </trkpt>
      <trkpt lat="47.74436" lon="6.48476">
        <ele>370.80761706715</ele>
        <time>2021-08-21T12:31:20Z</time>
      </trkpt>
      <trkpt lat="47.74431" lon="6.4846">
        <ele>370.70989382889</ele>
        <time>2021-08-21T12:31:22Z</time>
      </trkpt>
      <trkpt lat="47.74426" lon="6.48444">
        <ele>370.68765326446</ele>
        <time>2021-08-21T12:31:24Z</time>
      </trkpt>
      <trkpt lat="47.74421" lon="6.48429">
        <ele>370.67874793139</ele>
        <time>2021-08-21T12:31:26Z</time>
      </trkpt>
      <trkpt lat="47.74416" lon="6.48414">
        <ele>370.62821980593</ele>
        <time>2021-08-21T12:31:28Z</time>
      </trkpt>
      <trkpt lat="47.74411" lon="6.48399">
        <ele>370.63857667603</ele>
        <time>2021-08-21T12:31:30Z</time>
      </trkpt>
      <trkpt lat="47.74406" lon="6.48384">
        <ele>370.70742071127</ele>
        <time>2021-08-21T12:31:32Z</time>
      </trkpt>
      <trkpt lat="47.74402" lon="6.48368">
        <ele>370.7182299446</ele>
        <time>2021-08-21T12:31:34Z</time>
      </trkpt>
      <trkpt lat="47.74398" lon="6.48352">
        <ele>370.70115813916</ele>
        <time>2021-08-21T12:31:36Z</time>
      </trkpt>
      <trkpt lat="47.74392" lon="6.48337">
        <ele>370.55818203241</ele>
        <time>2021-08-21T12:31:38Z</time>
      </trkpt>
      <trkpt lat="47.74382" lon="6.4833">
        <ele>370.33761207239</ele>
        <time>2021-08-21T12:31:40Z</time>
      </trkpt>
      <trkpt lat="47.7437" lon="6.4833">
        <ele>370.13968625168</ele>
        <time>2021-08-21T12:31:42Z</time>
      </trkpt>
      <trkpt lat="47.74358" lon="6.4833">
        <ele>369.95052217874</ele>
        <time>2021-08-21T12:31:44Z</time>
      </trkpt>
      <trkpt lat="47.74351" lon="6.48319">
        <ele>369.71605827115</ele>
        <time>2021-08-21T12:31:46Z</time>
      </trkpt>
      <trkpt lat="47.74351" lon="6.48301">
        <ele>369.4697332788</ele>
        <time>2021-08-21T12:31:48Z</time>
      </trkpt>
      <trkpt lat="47.74353" lon="6.48281">
        <ele>369.27867343922</ele>
        <time>2021-08-21T12:31:50Z</time>
      </trkpt>
      <trkpt lat="47.74356" lon="6.4826">
        <ele>369.18302701752</ele>
        <time>2021-08-21T12:31:52Z</time>
      </trkpt>
      <trkpt lat="47.74359" lon="6.48241">
        <ele>369.05202022355</ele>
        <time>2021-08-21T12:31:54Z</time>
      </trkpt>
      <trkpt lat="47.74363" lon="6.48223">
        <ele>369.06746826765</ele>
        <time>2021-08-21T12:31:56Z</time>
      </trkpt>
      <trkpt lat="47.74368" lon="6.48208">
        <ele>368.97787686183</ele>
        <time>2021-08-21T12:31:58Z</time>
      </trkpt>
      <trkpt lat="47.74378" lon="6.48197">
        <ele>368.83325372885</ele>
        <time>2021-08-21T12:32:00Z</time>
      </trkpt>
      <trkpt lat="47.74389" lon="6.4819">
        <ele>368.64106073211</ele>
        <time>2021-08-21T12:32:02Z</time>
      </trkpt>
      <trkpt lat="47.74398" lon="6.48183">
        <ele>368.4610207003</ele>
        <time>2021-08-21T12:32:04Z</time>
      </trkpt>
      <trkpt lat="47.74408" lon="6.48176">
        <ele>368.42793435714</ele>
        <time>2021-08-21T12:32:06Z</time>
      </trkpt>
      <trkpt lat="47.74417" lon="6.48168">
        <ele>368.42631382656</ele>
        <time>2021-08-21T12:32:08Z</time>
      </trkpt>
      <trkpt lat="47.74424" lon="6.48159">
        <ele>368.59969675145</ele>
        <time>2021-08-21T12:32:10Z</time>
      </trkpt>
      <trkpt lat="47.74429" lon="6.48149">
        <ele>368.64528845174</ele>
        <time>2021-08-21T12:32:12Z</time>
      </trkpt>
      <trkpt lat="47.74432" lon="6.48137">
        <ele>368.68486688099</ele>
        <time>2021-08-21T12:32:14Z</time>
      </trkpt>
      <trkpt lat="47.74433" lon="6.48123">
        <ele>368.52082685938</ele>
        <time>2021-08-21T12:32:16Z</time>
      </trkpt>
      <trkpt lat="47.74434" lon="6.48108">
        <ele>368.32842022255</ele>
        <time>2021-08-21T12:32:18Z</time>
      </trkpt>
      <trkpt lat="47.74434" lon="6.48093">
        <ele>368.14178972641</ele>
        <time>2021-08-21T12:32:20Z</time>
      </trkpt>
      <trkpt lat="47.74433" lon="6.48076">
        <ele>368.01067009311</ele>
        <time>2021-08-21T12:32:22Z</time>
      </trkpt>
      <trkpt lat="47.74434" lon="6.48058">
        <ele>367.91903401317</ele>
        <time>2021-08-21T12:32:24Z</time>
      </trkpt>
      <trkpt lat="47.74435" lon="6.48041">
        <ele>367.83678652732</ele>
        <time>2021-08-21T12:32:26Z</time>
      </trkpt>
      <trkpt lat="47.74439" lon="6.48026">
        <ele>367.78312574087</ele>
        <time>2021-08-21T12:32:28Z</time>
      </trkpt>
      <trkpt lat="47.74444" lon="6.48009">
        <ele>367.74500321504</ele>
        <time>2021-08-21T12:32:30Z</time>
      </trkpt>
      <trkpt lat="47.74448" lon="6.47992">
        <ele>367.69190248199</ele>
        <time>2021-08-21T12:32:32Z</time>
      </trkpt>
      <trkpt lat="47.74451" lon="6.47975">
        <ele>367.58967363585</ele>
        <time>2021-08-21T12:32:34Z</time>
      </trkpt>
      <trkpt lat="47.74453" lon="6.47957">
        <ele>367.51835325224</ele>
        <time>2021-08-21T12:32:36Z</time>
      </trkpt>
      <trkpt lat="47.74456" lon="6.47939">
        <ele>367.47085848671</ele>
        <time>2021-08-21T12:32:38Z</time>
      </trkpt>
      <trkpt lat="47.74459" lon="6.47922">
        <ele>367.39107851517</ele>
        <time>2021-08-21T12:32:40Z</time>
      </trkpt>
      <trkpt lat="47.74461" lon="6.47905">
        <ele>367.30257208458</ele>
        <time>2021-08-21T12:32:42Z</time>
      </trkpt>
      <trkpt lat="47.74465" lon="6.4789">
        <ele>367.2383357067</ele>
        <time>2021-08-21T12:32:44Z</time>
      </trkpt>
      <trkpt lat="47.74468" lon="6.47874">
        <ele>367.1753609262</ele>
        <time>2021-08-21T12:32:46Z</time>
      </trkpt>
      <trkpt lat="47.74471" lon="6.47858">
        <ele>367.12615989497</ele>
        <time>2021-08-21T12:32:48Z</time>
      </trkpt>
      <trkpt lat="47.74473" lon="6.47841">
        <ele>367.07702462387</ele>
        <time>2021-08-21T12:32:50Z</time>
      </trkpt>
      <trkpt lat="47.74475" lon="6.47825">
        <ele>367.03771603837</ele>
        <time>2021-08-21T12:32:52Z</time>
      </trkpt>
      <trkpt lat="47.74475" lon="6.47808">
        <ele>367.00273896745</ele>
        <time>2021-08-21T12:32:54Z</time>
      </trkpt>
      <trkpt lat="47.74474" lon="6.4779">
        <ele>366.96365507181</ele>
        <time>2021-08-21T12:32:56Z</time>
      </trkpt>
      <trkpt lat="47.74473" lon="6.4777">
        <ele>366.92178258785</ele>
        <time>2021-08-21T12:32:58Z</time>
      </trkpt>
      <trkpt lat="47.74471" lon="6.47752">
        <ele>366.86543524299</ele>
        <time>2021-08-21T12:33:00Z</time>
      </trkpt>
      <trkpt lat="47.7447" lon="6.47734">
        <ele>366.7771835639</ele>
        <time>2021-08-21T12:33:02Z</time>
      </trkpt>
      <trkpt lat="47.7447" lon="6.47716">
        <ele>366.68958616845</ele>
        <time>2021-08-21T12:33:04Z</time>
      </trkpt>
      <trkpt lat="47.74469" lon="6.47698">
        <ele>366.61678967555</ele>
        <time>2021-08-21T12:33:06Z</time>
      </trkpt>
      <trkpt lat="47.74468" lon="6.47681">
        <ele>366.61378490393</ele>
        <time>2021-08-21T12:33:08Z</time>
      </trkpt>
      <trkpt lat="47.74467" lon="6.47664">
        <ele>366.72387085533</ele>
        <time>2021-08-21T12:33:10Z</time>
      </trkpt>
      <trkpt lat="47.74466" lon="6.47649">
        <ele>366.77241880505</ele>
        <time>2021-08-21T12:33:12Z</time>
      </trkpt>
      <trkpt lat="47.74465" lon="6.47634">
        <ele>366.7273090356</ele>
        <time>2021-08-21T12:33:14Z</time>
      </trkpt>
      <trkpt lat="47.74465" lon="6.47619">
        <ele>366.68942180515</ele>
        <time>2021-08-21T12:33:16Z</time>
      </trkpt>
      <trkpt lat="47.74464" lon="6.47604">
        <ele>366.65799153927</ele>
        <time>2021-08-21T12:33:18Z</time>
      </trkpt>
      <trkpt lat="47.74463" lon="6.47589">
        <ele>366.59140659493</ele>
        <time>2021-08-21T12:33:20Z</time>
      </trkpt>
      <trkpt lat="47.74462" lon="6.47575">
        <ele>366.52612269651</ele>
        <time>2021-08-21T12:33:22Z</time>
      </trkpt>
      <trkpt lat="47.74462" lon="6.47562">
        <ele>366.455340094</ele>
        <time>2021-08-21T12:33:24Z</time>
      </trkpt>
      <trkpt lat="47.74461" lon="6.47549">
        <ele>366.42224527767</ele>
        <time>2021-08-21T12:33:26Z</time>
      </trkpt>
      <trkpt lat="47.74461" lon="6.47537">
        <ele>366.46269535486</ele>
        <time>2021-08-21T12:33:28Z</time>
      </trkpt>
      <trkpt lat="47.7446" lon="6.47525">
        <ele>366.45600187629</ele>
        <time>2021-08-21T12:33:30Z</time>
      </trkpt>
      <trkpt lat="47.7446" lon="6.47514">
        <ele>366.29161774112</ele>
        <time>2021-08-21T12:33:32Z</time>
      </trkpt>
      <trkpt lat="47.7446" lon="6.47501">
        <ele>366.09648536328</ele>
        <time>2021-08-21T12:33:34Z</time>
      </trkpt>
      <trkpt lat="47.7446" lon="6.47488">
        <ele>365.89615461246</ele>
        <time>2021-08-21T12:33:36Z</time>
      </trkpt>
      <trkpt lat="47.7446" lon="6.47473">
        <ele>365.71225155238</ele>
        <time>2021-08-21T12:33:38Z</time>
      </trkpt>
      <trkpt lat="47.74459" lon="6.47459">
        <ele>365.60690674764</ele>
        <time>2021-08-21T12:33:40Z</time>
      </trkpt>
      <trkpt lat="47.74459" lon="6.47445">
        <ele>365.53148341267</ele>
        <time>2021-08-21T12:33:42Z</time>
      </trkpt>
      <trkpt lat="47.7446" lon="6.4743">
        <ele>365.49467806257</ele>
        <time>2021-08-21T12:33:44Z</time>
      </trkpt>
      <trkpt lat="47.74461" lon="6.47415">
        <ele>365.49235436281</ele>
        <time>2021-08-21T12:33:46Z</time>
      </trkpt>
      <trkpt lat="47.74462" lon="6.474">
        <ele>365.50099165202</ele>
        <time>2021-08-21T12:33:48Z</time>
      </trkpt>
      <trkpt lat="47.74463" lon="6.47386">
        <ele>365.50272897141</ele>
        <time>2021-08-21T12:33:50Z</time>
      </trkpt>
      <trkpt lat="47.74465" lon="6.47371">
        <ele>365.49371670366</ele>
        <time>2021-08-21T12:33:52Z</time>
      </trkpt>
      <trkpt lat="47.74467" lon="6.47356">
        <ele>365.48639561435</ele>
        <time>2021-08-21T12:33:54Z</time>
      </trkpt>
      <trkpt lat="47.7447" lon="6.47341">
        <ele>365.47495809008</ele>
        <time>2021-08-21T12:33:56Z</time>
      </trkpt>
      <trkpt lat="47.74472" lon="6.47328">
        <ele>365.47886347509</ele>
        <time>2021-08-21T12:33:58Z</time>
      </trkpt>
      <trkpt lat="47.74475" lon="6.47311">
        <ele>365.47808644365</ele>
        <time>2021-08-21T12:34:00Z</time>
      </trkpt>
      <trkpt lat="47.74476" lon="6.47296">
        <ele>365.4836295078</ele>
        <time>2021-08-21T12:34:02Z</time>
      </trkpt>
      <trkpt lat="47.74478" lon="6.4728">
        <ele>365.47761940281</ele>
        <time>2021-08-21T12:34:04Z</time>
      </trkpt>
      <trkpt lat="47.74479" lon="6.47264">
        <ele>365.47399260678</ele>
        <time>2021-08-21T12:34:06Z</time>
      </trkpt>
      <trkpt lat="47.74479" lon="6.47248">
        <ele>365.48332208688</ele>
        <time>2021-08-21T12:34:08Z</time>
      </trkpt>
      <trkpt lat="47.7448" lon="6.47234">
        <ele>365.49842510917</ele>
        <time>2021-08-21T12:34:10Z</time>
      </trkpt>
      <trkpt lat="47.7448" lon="6.4722">
        <ele>365.49985657934</ele>
        <time>2021-08-21T12:34:12Z</time>
      </trkpt>
      <trkpt lat="47.74481" lon="6.47208">
        <ele>365.48092034324</ele>
        <time>2021-08-21T12:34:14Z</time>
      </trkpt>
      <trkpt lat="47.74482" lon="6.47196">
        <ele>365.46995377685</ele>
        <time>2021-08-21T12:34:16Z</time>
      </trkpt>
      <trkpt lat="47.74481" lon="6.47183">
        <ele>365.46649523003</ele>
        <time>2021-08-21T12:34:18Z</time>
      </trkpt>
      <trkpt lat="47.74481" lon="6.47169">
        <ele>365.45126928498</ele>
        <time>2021-08-21T12:34:20Z</time>
      </trkpt>
      <trkpt lat="47.74481" lon="6.47157">
        <ele>365.42984038544</ele>
        <time>2021-08-21T12:34:22Z</time>
      </trkpt>
      <trkpt lat="47.74479" lon="6.47145">
        <ele>365.41971838624</ele>
        <time>2021-08-21T12:34:24Z</time>
      </trkpt>
      <trkpt lat="47.74477" lon="6.47132">
        <ele>365.41115220904</ele>
        <time>2021-08-21T12:34:26Z</time>
      </trkpt>
      <trkpt lat="47.74475" lon="6.47119">
        <ele>365.40472036335</ele>
        <time>2021-08-21T12:34:28Z</time>
      </trkpt>
      <trkpt lat="47.74472" lon="6.47106">
        <ele>365.41202350355</ele>
        <time>2021-08-21T12:34:30Z</time>
      </trkpt>
      <trkpt lat="47.7447" lon="6.47092">
        <ele>365.41978915093</ele>
        <time>2021-08-21T12:34:32Z</time>
      </trkpt>
      <trkpt lat="47.74468" lon="6.47081">
        <ele>365.41263667217</ele>
        <time>2021-08-21T12:34:34Z</time>
      </trkpt>
      <trkpt lat="47.74467" lon="6.4707">
        <ele>365.41004598248</ele>
        <time>2021-08-21T12:34:36Z</time>
      </trkpt>
      <trkpt lat="47.74465" lon="6.4706">
        <ele>365.40478971134</ele>
        <time>2021-08-21T12:34:38Z</time>
      </trkpt>
      <trkpt lat="47.74463" lon="6.47049">
        <ele>365.40447328904</ele>
        <time>2021-08-21T12:34:40Z</time>
      </trkpt>
      <trkpt lat="47.7446" lon="6.47037">
        <ele>365.4134073884</ele>
        <time>2021-08-21T12:34:42Z</time>
      </trkpt>
      <trkpt lat="47.74458" lon="6.47025">
        <ele>365.41537180076</ele>
        <time>2021-08-21T12:34:44Z</time>
      </trkpt>
      <trkpt lat="47.74456" lon="6.47013">
        <ele>365.41553856499</ele>
        <time>2021-08-21T12:34:46Z</time>
      </trkpt>
      <trkpt lat="47.74454" lon="6.47002">
        <ele>365.41199173532</ele>
        <time>2021-08-21T12:34:48Z</time>
      </trkpt>
      <trkpt lat="47.74452" lon="6.4699">
        <ele>365.40894945967</ele>
        <time>2021-08-21T12:34:50Z</time>
      </trkpt>
      <trkpt lat="47.7445" lon="6.46978">
        <ele>365.39944733483</ele>
        <time>2021-08-21T12:34:52Z</time>
      </trkpt>
      <trkpt lat="47.74448" lon="6.46965">
        <ele>365.38388966021</ele>
        <time>2021-08-21T12:34:54Z</time>
      </trkpt>
      <trkpt lat="47.74445" lon="6.46952">
        <ele>365.36899997207</ele>
        <time>2021-08-21T12:34:56Z</time>
      </trkpt>
      <trkpt lat="47.74441" lon="6.46936">
        <ele>365.36021619478</ele>
        <time>2021-08-21T12:34:58Z</time>
      </trkpt>
      <trkpt lat="47.74435" lon="6.46917">
        <ele>365.3452952141</ele>
        <time>2021-08-21T12:35:00Z</time>
      </trkpt>
      <trkpt lat="47.74428" lon="6.46895">
        <ele>365.33184705205</ele>
        <time>2021-08-21T12:35:02Z</time>
      </trkpt>
      <trkpt lat="47.7442" lon="6.46871">
        <ele>365.30360910854</ele>
        <time>2021-08-21T12:35:04Z</time>
      </trkpt>
      <trkpt lat="47.74415" lon="6.46846">
        <ele>365.23503921916</ele>
        <time>2021-08-21T12:35:06Z</time>
      </trkpt>
      <trkpt lat="47.74408" lon="6.4682">
        <ele>365.09298803532</ele>
        <time>2021-08-21T12:35:08Z</time>
      </trkpt>
      <trkpt lat="47.74403" lon="6.46793">
        <ele>364.8846213386</ele>
        <time>2021-08-21T12:35:10Z</time>
      </trkpt>
      <trkpt lat="47.74397" lon="6.46764">
        <ele>364.44017298582</ele>
        <time>2021-08-21T12:35:12Z</time>
      </trkpt>
      <trkpt lat="47.74391" lon="6.46735">
        <ele>364.04479526118</ele>
        <time>2021-08-21T12:35:14Z</time>
      </trkpt>
      <trkpt lat="47.74385" lon="6.46703">
        <ele>363.78208899478</ele>
        <time>2021-08-21T12:35:16Z</time>
      </trkpt>
      <trkpt lat="47.74379" lon="6.46671">
        <ele>363.65655902268</ele>
        <time>2021-08-21T12:35:18Z</time>
      </trkpt>
      <trkpt lat="47.74373" lon="6.46639">
        <ele>363.77097730191</ele>
        <time>2021-08-21T12:35:20Z</time>
      </trkpt>
      <trkpt lat="47.74367" lon="6.46607">
        <ele>363.930760027</ele>
        <time>2021-08-21T12:35:22Z</time>
      </trkpt>
      <trkpt lat="47.74362" lon="6.46577">
        <ele>364.06226927265</ele>
        <time>2021-08-21T12:35:24Z</time>
      </trkpt>
      <trkpt lat="47.74357" lon="6.46548">
        <ele>364.23520150652</ele>
        <time>2021-08-21T12:35:26Z</time>
      </trkpt>
      <trkpt lat="47.74352" lon="6.4652">
        <ele>364.39004454134</ele>
        <time>2021-08-21T12:35:28Z</time>
      </trkpt>
      <trkpt lat="47.74349" lon="6.46491">
        <ele>364.46770557337</ele>
        <time>2021-08-21T12:35:30Z</time>
      </trkpt>
      <trkpt lat="47.74346" lon="6.46463">
        <ele>364.55406191223</ele>
        <time>2021-08-21T12:35:32Z</time>
      </trkpt>
      <trkpt lat="47.74342" lon="6.46436">
        <ele>364.66339930049</ele>
        <time>2021-08-21T12:35:34Z</time>
      </trkpt>
      <trkpt lat="47.74339" lon="6.4641">
        <ele>364.68204703995</ele>
        <time>2021-08-21T12:35:36Z</time>
      </trkpt>
      <trkpt lat="47.74335" lon="6.46384">
        <ele>364.60036128664</ele>
        <time>2021-08-21T12:35:38Z</time>
      </trkpt>
      <trkpt lat="47.74332" lon="6.46359">
        <ele>364.50050707495</ele>
        <time>2021-08-21T12:35:40Z</time>
      </trkpt>
      <trkpt lat="47.74328" lon="6.46335">
        <ele>364.36039306082</ele>
        <time>2021-08-21T12:35:42Z</time>
      </trkpt>
      <trkpt lat="47.74325" lon="6.46311">
        <ele>364.11395638953</ele>
        <time>2021-08-21T12:35:44Z</time>
      </trkpt>
      <trkpt lat="47.74322" lon="6.4629">
        <ele>363.97394089086</ele>
        <time>2021-08-21T12:35:46Z</time>
      </trkpt>
      <trkpt lat="47.74319" lon="6.46269">
        <ele>363.84375380531</ele>
        <time>2021-08-21T12:35:48Z</time>
      </trkpt>
      <trkpt lat="47.74317" lon="6.46248">
        <ele>363.64474262005</ele>
        <time>2021-08-21T12:35:50Z</time>
      </trkpt>
      <trkpt lat="47.74313" lon="6.46228">
        <ele>363.46076454901</ele>
        <time>2021-08-21T12:35:52Z</time>
      </trkpt>
      <trkpt lat="47.7431" lon="6.46208">
        <ele>363.2878155812</ele>
        <time>2021-08-21T12:35:54Z</time>
      </trkpt>
      <trkpt lat="47.74308" lon="6.46189">
        <ele>363.13689984917</ele>
        <time>2021-08-21T12:35:56Z</time>
      </trkpt>
      <trkpt lat="47.74306" lon="6.46171">
        <ele>363.05944020332</ele>
        <time>2021-08-21T12:35:58Z</time>
      </trkpt>
      <trkpt lat="47.74303" lon="6.46153">
        <ele>362.93445908055</ele>
        <time>2021-08-21T12:36:00Z</time>
      </trkpt>
      <trkpt lat="47.74301" lon="6.46134">
        <ele>362.87621049762</ele>
        <time>2021-08-21T12:36:02Z</time>
      </trkpt>
      <trkpt lat="47.74299" lon="6.46115">
        <ele>362.75480741005</ele>
        <time>2021-08-21T12:36:04Z</time>
      </trkpt>
      <trkpt lat="47.74297" lon="6.46096">
        <ele>362.67549058879</ele>
        <time>2021-08-21T12:36:06Z</time>
      </trkpt>
      <trkpt lat="47.74294" lon="6.46078">
        <ele>362.52628565156</ele>
        <time>2021-08-21T12:36:08Z</time>
      </trkpt>
      <trkpt lat="47.74292" lon="6.4606">
        <ele>362.3761050395</ele>
        <time>2021-08-21T12:36:10Z</time>
      </trkpt>
      <trkpt lat="47.7429" lon="6.46042">
        <ele>362.16171695896</ele>
        <time>2021-08-21T12:36:12Z</time>
      </trkpt>
      <trkpt lat="47.74288" lon="6.46024">
        <ele>361.93364236557</ele>
        <time>2021-08-21T12:36:14Z</time>
      </trkpt>
      <trkpt lat="47.74285" lon="6.46006">
        <ele>361.71029285469</ele>
        <time>2021-08-21T12:36:16Z</time>
      </trkpt>
      <trkpt lat="47.74283" lon="6.45991">
        <ele>361.55876519306</ele>
        <time>2021-08-21T12:36:18Z</time>
      </trkpt>
      <trkpt lat="47.74282" lon="6.45976">
        <ele>361.16946294584</ele>
        <time>2021-08-21T12:36:20Z</time>
      </trkpt>
      <trkpt lat="47.74281" lon="6.45965">
        <ele>361.0217691807</ele>
        <time>2021-08-21T12:36:22Z</time>
      </trkpt>
      <trkpt lat="47.7428" lon="6.45955">
        <ele>360.99993326299</ele>
        <time>2021-08-21T12:36:24Z</time>
      </trkpt>
      <trkpt lat="47.74272" lon="6.45949">
        <ele>360.6430254043</ele>
        <time>2021-08-21T12:36:26Z</time>
      </trkpt>
      <trkpt lat="47.74262" lon="6.45947">
        <ele>360.39623836746</ele>
        <time>2021-08-21T12:36:28Z</time>
      </trkpt>
      <trkpt lat="47.74249" lon="6.45943">
        <ele>360.34942554709</ele>
        <time>2021-08-21T12:36:30Z</time>
      </trkpt>
      <trkpt lat="47.74236" lon="6.45939">
        <ele>360.39682607089</ele>
        <time>2021-08-21T12:36:32Z</time>
      </trkpt>
      <trkpt lat="47.74223" lon="6.45936">
        <ele>360.7443253879</ele>
        <time>2021-08-21T12:36:34Z</time>
      </trkpt>
      <trkpt lat="47.74211" lon="6.45933">
        <ele>361.02767009528</ele>
        <time>2021-08-21T12:36:36Z</time>
      </trkpt>
      <trkpt lat="47.74199" lon="6.4593">
        <ele>361.15791650419</ele>
        <time>2021-08-21T12:36:38Z</time>
      </trkpt>
      <trkpt lat="47.74187" lon="6.45927">
        <ele>361.24305587128</ele>
        <time>2021-08-21T12:36:40Z</time>
      </trkpt>
      <trkpt lat="47.74176" lon="6.45925">
        <ele>361.36165300733</ele>
        <time>2021-08-21T12:36:42Z</time>
      </trkpt>
      <trkpt lat="47.74164" lon="6.45925">
        <ele>361.33485281202</ele>
        <time>2021-08-21T12:36:44Z</time>
      </trkpt>
      <trkpt lat="47.74153" lon="6.45927">
        <ele>361.25627528944</ele>
        <time>2021-08-21T12:36:46Z</time>
      </trkpt>
      <trkpt lat="47.74141" lon="6.4593">
        <ele>361.14826199868</ele>
        <time>2021-08-21T12:36:48Z</time>
      </trkpt>
      <trkpt lat="47.74129" lon="6.45933">
        <ele>361.10351882643</ele>
        <time>2021-08-21T12:36:50Z</time>
      </trkpt>
      <trkpt lat="47.74118" lon="6.45936">
        <ele>361.01359842091</ele>
        <time>2021-08-21T12:36:52Z</time>
      </trkpt>
      <trkpt lat="47.74107" lon="6.45939">
        <ele>360.96016800317</ele>
        <time>2021-08-21T12:36:54Z</time>
      </trkpt>
      <trkpt lat="47.74096" lon="6.45943">
        <ele>360.88979765983</ele>
        <time>2021-08-21T12:36:56Z</time>
      </trkpt>
      <trkpt lat="47.74087" lon="6.45945">
        <ele>360.85599361669</ele>
        <time>2021-08-21T12:36:58Z</time>
      </trkpt>
      <trkpt lat="47.74078" lon="6.45948">
        <ele>360.76831691879</ele>
        <time>2021-08-21T12:37:00Z</time>
      </trkpt>
      <trkpt lat="47.74069" lon="6.4595">
        <ele>360.72437645077</ele>
        <time>2021-08-21T12:37:02Z</time>
      </trkpt>
      <trkpt lat="47.74061" lon="6.45952">
        <ele>360.71468543804</ele>
        <time>2021-08-21T12:37:04Z</time>
      </trkpt>
      <trkpt lat="47.74053" lon="6.45954">
        <ele>360.57018608915</ele>
        <time>2021-08-21T12:37:06Z</time>
      </trkpt>
      <trkpt lat="47.74044" lon="6.45949">
        <ele>360.29207942213</ele>
        <time>2021-08-21T12:37:08Z</time>
      </trkpt>
      <trkpt lat="47.74037" lon="6.45937">
        <ele>360.09538319451</ele>
        <time>2021-08-21T12:37:10Z</time>
      </trkpt>
      <trkpt lat="47.7403" lon="6.45923">
        <ele>359.94164012803</ele>
        <time>2021-08-21T12:37:12Z</time>
      </trkpt>
      <trkpt lat="47.74023" lon="6.45908">
        <ele>359.80515429767</ele>
        <time>2021-08-21T12:37:14Z</time>
      </trkpt>
      <trkpt lat="47.74017" lon="6.45893">
        <ele>359.6813981041</ele>
        <time>2021-08-21T12:37:16Z</time>
      </trkpt>
      <trkpt lat="47.7401" lon="6.45878">
        <ele>359.56727537784</ele>
        <time>2021-08-21T12:37:18Z</time>
      </trkpt>
      <trkpt lat="47.74004" lon="6.45862">
        <ele>359.34755826549</ele>
        <time>2021-08-21T12:37:20Z</time>
      </trkpt>
      <trkpt lat="47.73997" lon="6.45846">
        <ele>359.13670211356</ele>
        <time>2021-08-21T12:37:22Z</time>
      </trkpt>
      <trkpt lat="47.73991" lon="6.4583">
        <ele>358.87006738915</ele>
        <time>2021-08-21T12:37:24Z</time>
      </trkpt>
      <trkpt lat="47.73986" lon="6.45814">
        <ele>358.59958900291</ele>
        <time>2021-08-21T12:37:26Z</time>
      </trkpt>
      <trkpt lat="47.73981" lon="6.45797">
        <ele>358.34073125039</ele>
        <time>2021-08-21T12:37:28Z</time>
      </trkpt>
      <trkpt lat="47.73976" lon="6.4578">
        <ele>358.0545568831</ele>
        <time>2021-08-21T12:37:30Z</time>
      </trkpt>
      <trkpt lat="47.73972" lon="6.45762">
        <ele>357.90802277829</ele>
        <time>2021-08-21T12:37:32Z</time>
      </trkpt>
      <trkpt lat="47.7397" lon="6.45743">
        <ele>357.85603816329</ele>
        <time>2021-08-21T12:37:34Z</time>
      </trkpt>
      <trkpt lat="47.7397" lon="6.45725">
        <ele>357.77952359889</ele>
        <time>2021-08-21T12:37:36Z</time>
      </trkpt>
      <trkpt lat="47.73969" lon="6.45707">
        <ele>357.56337386084</ele>
        <time>2021-08-21T12:37:38Z</time>
      </trkpt>
      <trkpt lat="47.73969" lon="6.45689">
        <ele>357.28961719653</ele>
        <time>2021-08-21T12:37:40Z</time>
      </trkpt>
      <trkpt lat="47.73968" lon="6.4567">
        <ele>357.07413214287</ele>
        <time>2021-08-21T12:37:42Z</time>
      </trkpt>
      <trkpt lat="47.73967" lon="6.45652">
        <ele>356.84461259859</ele>
        <time>2021-08-21T12:37:44Z</time>
      </trkpt>
      <trkpt lat="47.73963" lon="6.45635">
        <ele>356.57412685517</ele>
        <time>2021-08-21T12:37:46Z</time>
      </trkpt>
      <trkpt lat="47.73957" lon="6.45619">
        <ele>356.48061266635</ele>
        <time>2021-08-21T12:37:48Z</time>
      </trkpt>
      <trkpt lat="47.73952" lon="6.45603">
        <ele>356.32930328364</ele>
        <time>2021-08-21T12:37:50Z</time>
      </trkpt>
      <trkpt lat="47.73947" lon="6.45588">
        <ele>356.07576628893</ele>
        <time>2021-08-21T12:37:52Z</time>
      </trkpt>
      <trkpt lat="47.73945" lon="6.45572">
        <ele>355.94152905568</ele>
        <time>2021-08-21T12:37:54Z</time>
      </trkpt>
      <trkpt lat="47.73943" lon="6.45553">
        <ele>355.81248777773</ele>
        <time>2021-08-21T12:37:56Z</time>
      </trkpt>
      <trkpt lat="47.73944" lon="6.45535">
        <ele>355.68231804506</ele>
        <time>2021-08-21T12:37:58Z</time>
      </trkpt>
      <trkpt lat="47.73946" lon="6.45517">
        <ele>355.58565622725</ele>
        <time>2021-08-21T12:38:00Z</time>
      </trkpt>
      <trkpt lat="47.73952" lon="6.455">
        <ele>355.41033120031</ele>
        <time>2021-08-21T12:38:02Z</time>
      </trkpt>
      <trkpt lat="47.73956" lon="6.45483">
        <ele>355.18474540235</ele>
        <time>2021-08-21T12:38:04Z</time>
      </trkpt>
      <trkpt lat="47.7396" lon="6.45466">
        <ele>355.06706852235</ele>
        <time>2021-08-21T12:38:06Z</time>
      </trkpt>
      <trkpt lat="47.73965" lon="6.45452">
        <ele>354.90786997915</ele>
        <time>2021-08-21T12:38:08Z</time>
      </trkpt>
      <trkpt lat="47.73969" lon="6.45437">
        <ele>354.90762311959</ele>
        <time>2021-08-21T12:38:10Z</time>
      </trkpt>
      <trkpt lat="47.73968" lon="6.4542">
        <ele>354.81240483922</ele>
        <time>2021-08-21T12:38:12Z</time>
      </trkpt>
      <trkpt lat="47.73964" lon="6.45403">
        <ele>354.51803059173</ele>
        <time>2021-08-21T12:38:14Z</time>
      </trkpt>
      <trkpt lat="47.73961" lon="6.45384">
        <ele>354.14701930385</ele>
        <time>2021-08-21T12:38:16Z</time>
      </trkpt>
      <trkpt lat="47.73959" lon="6.45366">
        <ele>353.86125102282</ele>
        <time>2021-08-21T12:38:18Z</time>
      </trkpt>
      <trkpt lat="47.73957" lon="6.45347">
        <ele>353.64277467163</ele>
        <time>2021-08-21T12:38:20Z</time>
      </trkpt>
      <trkpt lat="47.73957" lon="6.45328">
        <ele>353.48011787695</ele>
        <time>2021-08-21T12:38:22Z</time>
      </trkpt>
      <trkpt lat="47.73955" lon="6.4531">
        <ele>353.32295444331</ele>
        <time>2021-08-21T12:38:24Z</time>
      </trkpt>
      <trkpt lat="47.73954" lon="6.45292">
        <ele>353.20608267399</ele>
        <time>2021-08-21T12:38:26Z</time>
      </trkpt>
      <trkpt lat="47.73953" lon="6.45273">
        <ele>353.09025812851</ele>
        <time>2021-08-21T12:38:28Z</time>
      </trkpt>
      <trkpt lat="47.73952" lon="6.45255">
        <ele>352.96958597763</ele>
        <time>2021-08-21T12:38:30Z</time>
      </trkpt>
      <trkpt lat="47.7395" lon="6.45236">
        <ele>352.89026925349</ele>
        <time>2021-08-21T12:38:32Z</time>
      </trkpt>
      <trkpt lat="47.73949" lon="6.45218">
        <ele>352.75976972421</ele>
        <time>2021-08-21T12:38:34Z</time>
      </trkpt>
      <trkpt lat="47.73947" lon="6.452">
        <ele>352.61135140525</ele>
        <time>2021-08-21T12:38:36Z</time>
      </trkpt>
      <trkpt lat="47.73946" lon="6.45181">
        <ele>352.50075940331</ele>
        <time>2021-08-21T12:38:38Z</time>
      </trkpt>
      <trkpt lat="47.73945" lon="6.45163">
        <ele>352.46038033563</ele>
        <time>2021-08-21T12:38:40Z</time>
      </trkpt>
      <trkpt lat="47.73945" lon="6.45144">
        <ele>352.46322385788</ele>
        <time>2021-08-21T12:38:42Z</time>
      </trkpt>
      <trkpt lat="47.73943" lon="6.45126">
        <ele>352.40870451071</ele>
        <time>2021-08-21T12:38:44Z</time>
      </trkpt>
      <trkpt lat="47.73942" lon="6.45107">
        <ele>352.32850682281</ele>
        <time>2021-08-21T12:38:46Z</time>
      </trkpt>
      <trkpt lat="47.7394" lon="6.45089">
        <ele>352.25408950987</ele>
        <time>2021-08-21T12:38:48Z</time>
      </trkpt>
      <trkpt lat="47.7394" lon="6.45071">
        <ele>352.19311152461</ele>
        <time>2021-08-21T12:38:50Z</time>
      </trkpt>
      <trkpt lat="47.73938" lon="6.45054">
        <ele>352.11207479879</ele>
        <time>2021-08-21T12:38:52Z</time>
      </trkpt>
      <trkpt lat="47.73937" lon="6.45037">
        <ele>352.02189326933</ele>
        <time>2021-08-21T12:38:54Z</time>
      </trkpt>
      <trkpt lat="47.73936" lon="6.45019">
        <ele>351.999254731</ele>
        <time>2021-08-21T12:38:56Z</time>
      </trkpt>
      <trkpt lat="47.73934" lon="6.45002">
        <ele>351.97170763303</ele>
        <time>2021-08-21T12:38:58Z</time>
      </trkpt>
      <trkpt lat="47.73933" lon="6.44985">
        <ele>351.9445293743</ele>
        <time>2021-08-21T12:39:00Z</time>
      </trkpt>
      <trkpt lat="47.73932" lon="6.44968">
        <ele>351.94260119122</ele>
        <time>2021-08-21T12:39:02Z</time>
      </trkpt>
      <trkpt lat="47.73931" lon="6.44951">
        <ele>352.00751025579</ele>
        <time>2021-08-21T12:39:04Z</time>
      </trkpt>
      <trkpt lat="47.7393" lon="6.44932">
        <ele>351.98217984656</ele>
        <time>2021-08-21T12:39:06Z</time>
      </trkpt>
      <trkpt lat="47.73929" lon="6.44914">
        <ele>351.95108382577</ele>
        <time>2021-08-21T12:39:08Z</time>
      </trkpt>
      <trkpt lat="47.73928" lon="6.44896">
        <ele>351.92231621574</ele>
        <time>2021-08-21T12:39:10Z</time>
      </trkpt>
      <trkpt lat="47.73926" lon="6.44879">
        <ele>351.89986520775</ele>
        <time>2021-08-21T12:39:12Z</time>
      </trkpt>
      <trkpt lat="47.73925" lon="6.44862">
        <ele>351.79744167934</ele>
        <time>2021-08-21T12:39:14Z</time>
      </trkpt>
      <trkpt lat="47.73924" lon="6.44845">
        <ele>351.65984951293</ele>
        <time>2021-08-21T12:39:16Z</time>
      </trkpt>
      <trkpt lat="47.73923" lon="6.44828">
        <ele>351.48665736913</ele>
        <time>2021-08-21T12:39:18Z</time>
      </trkpt>
      <trkpt lat="47.73922" lon="6.4481">
        <ele>351.31796594862</ele>
        <time>2021-08-21T12:39:20Z</time>
      </trkpt>
      <trkpt lat="47.7392" lon="6.44792">
        <ele>351.18565690015</ele>
        <time>2021-08-21T12:39:22Z</time>
      </trkpt>
      <trkpt lat="47.73919" lon="6.44775">
        <ele>351.05529159923</ele>
        <time>2021-08-21T12:39:24Z</time>
      </trkpt>
      <trkpt lat="47.73918" lon="6.44757">
        <ele>350.947254636</ele>
        <time>2021-08-21T12:39:26Z</time>
      </trkpt>
      <trkpt lat="47.73917" lon="6.44739">
        <ele>350.79212564296</ele>
        <time>2021-08-21T12:39:28Z</time>
      </trkpt>
      <trkpt lat="47.73916" lon="6.44721">
        <ele>350.5845680486</ele>
        <time>2021-08-21T12:39:30Z</time>
      </trkpt>
      <trkpt lat="47.73914" lon="6.44703">
        <ele>350.40791761595</ele>
        <time>2021-08-21T12:39:32Z</time>
      </trkpt>
      <trkpt lat="47.73913" lon="6.44684">
        <ele>350.27791098459</ele>
        <time>2021-08-21T12:39:34Z</time>
      </trkpt>
      <trkpt lat="47.73911" lon="6.44666">
        <ele>350.12055344004</ele>
        <time>2021-08-21T12:39:36Z</time>
      </trkpt>
      <trkpt lat="47.73909" lon="6.44648">
        <ele>350.0049776074</ele>
        <time>2021-08-21T12:39:38Z</time>
      </trkpt>
      <trkpt lat="47.73908" lon="6.44629">
        <ele>349.8469939811</ele>
        <time>2021-08-21T12:39:40Z</time>
      </trkpt>
      <trkpt lat="47.73907" lon="6.44611">
        <ele>349.78022117794</ele>
        <time>2021-08-21T12:39:42Z</time>
      </trkpt>
      <trkpt lat="47.73906" lon="6.44592">
        <ele>349.67850653391</ele>
        <time>2021-08-21T12:39:44Z</time>
      </trkpt>
      <trkpt lat="47.73905" lon="6.44573">
        <ele>349.61130266335</ele>
        <time>2021-08-21T12:39:46Z</time>
      </trkpt>
      <trkpt lat="47.73904" lon="6.44554">
        <ele>349.56964036113</ele>
        <time>2021-08-21T12:39:48Z</time>
      </trkpt>
      <trkpt lat="47.73903" lon="6.44536">
        <ele>349.55466588604</ele>
        <time>2021-08-21T12:39:50Z</time>
      </trkpt>
      <trkpt lat="47.73901" lon="6.44517">
        <ele>349.54183455098</ele>
        <time>2021-08-21T12:39:52Z</time>
      </trkpt>
      <trkpt lat="47.73901" lon="6.44499">
        <ele>349.43777012875</ele>
        <time>2021-08-21T12:39:54Z</time>
      </trkpt>
      <trkpt lat="47.739" lon="6.4448">
        <ele>349.28591840483</ele>
        <time>2021-08-21T12:39:56Z</time>
      </trkpt>
      <trkpt lat="47.73899" lon="6.44461">
        <ele>349.14577817301</ele>
        <time>2021-08-21T12:39:58Z</time>
      </trkpt>
      <trkpt lat="47.73897" lon="6.44442">
        <ele>349.07157898432</ele>
        <time>2021-08-21T12:40:00Z</time>
      </trkpt>
      <trkpt lat="47.73896" lon="6.44423">
        <ele>348.9819136589</ele>
        <time>2021-08-21T12:40:02Z</time>
      </trkpt>
      <trkpt lat="47.73896" lon="6.44404">
        <ele>348.92088339018</ele>
        <time>2021-08-21T12:40:04Z</time>
      </trkpt>
      <trkpt lat="47.73894" lon="6.44385">
        <ele>348.97126039532</ele>
        <time>2021-08-21T12:40:06Z</time>
      </trkpt>
      <trkpt lat="47.73894" lon="6.44366">
        <ele>349.00731417721</ele>
        <time>2021-08-21T12:40:08Z</time>
      </trkpt>
      <trkpt lat="47.73892" lon="6.44347">
        <ele>349.07012939973</ele>
        <time>2021-08-21T12:40:10Z</time>
      </trkpt>
      <trkpt lat="47.73889" lon="6.4433">
        <ele>349.13398894013</ele>
        <time>2021-08-21T12:40:12Z</time>
      </trkpt>
      <trkpt lat="47.73884" lon="6.44313">
        <ele>349.14550398208</ele>
        <time>2021-08-21T12:40:14Z</time>
      </trkpt>
      <trkpt lat="47.73877" lon="6.44297">
        <ele>348.99910513031</ele>
        <time>2021-08-21T12:40:16Z</time>
      </trkpt>
      <trkpt lat="47.73868" lon="6.44282">
        <ele>348.76395433266</ele>
        <time>2021-08-21T12:40:18Z</time>
      </trkpt>
      <trkpt lat="47.73862" lon="6.44265">
        <ele>348.60654577658</ele>
        <time>2021-08-21T12:40:20Z</time>
      </trkpt>
      <trkpt lat="47.73855" lon="6.44248">
        <ele>348.55982660802</ele>
        <time>2021-08-21T12:40:22Z</time>
      </trkpt>
      <trkpt lat="47.73848" lon="6.4423">
        <ele>348.58068769178</ele>
        <time>2021-08-21T12:40:24Z</time>
      </trkpt>
      <trkpt lat="47.73841" lon="6.44213">
        <ele>348.5996158567</ele>
        <time>2021-08-21T12:40:26Z</time>
      </trkpt>
      <trkpt lat="47.73835" lon="6.44195">
        <ele>348.52525330916</ele>
        <time>2021-08-21T12:40:28Z</time>
      </trkpt>
      <trkpt lat="47.73829" lon="6.44177">
        <ele>348.51459755195</ele>
        <time>2021-08-21T12:40:30Z</time>
      </trkpt>
      <trkpt lat="47.73823" lon="6.4416">
        <ele>348.57223063466</ele>
        <time>2021-08-21T12:40:32Z</time>
      </trkpt>
      <trkpt lat="47.73816" lon="6.44144">
        <ele>348.63085739562</ele>
        <time>2021-08-21T12:40:34Z</time>
      </trkpt>
      <trkpt lat="47.73809" lon="6.44129">
        <ele>348.62960799067</ele>
        <time>2021-08-21T12:40:36Z</time>
      </trkpt>
      <trkpt lat="47.73801" lon="6.44114">
        <ele>348.56706731751</ele>
        <time>2021-08-21T12:40:38Z</time>
      </trkpt>
      <trkpt lat="47.73792" lon="6.44101">
        <ele>348.38901323425</ele>
        <time>2021-08-21T12:40:40Z</time>
      </trkpt>
      <trkpt lat="47.73782" lon="6.44089">
        <ele>348.18322236692</ele>
        <time>2021-08-21T12:40:42Z</time>
      </trkpt>
      <trkpt lat="47.73772" lon="6.44076">
        <ele>348.14782062858</ele>
        <time>2021-08-21T12:40:44Z</time>
      </trkpt>
      <trkpt lat="47.73762" lon="6.44064">
        <ele>347.98970912658</ele>
        <time>2021-08-21T12:40:46Z</time>
      </trkpt>
      <trkpt lat="47.73752" lon="6.44051">
        <ele>347.7079964476</ele>
        <time>2021-08-21T12:40:48Z</time>
      </trkpt>
      <trkpt lat="47.73742" lon="6.4404">
        <ele>347.30096307727</ele>
        <time>2021-08-21T12:40:50Z</time>
      </trkpt>
      <trkpt lat="47.73732" lon="6.44029">
        <ele>346.85734080189</ele>
        <time>2021-08-21T12:40:52Z</time>
      </trkpt>
      <trkpt lat="47.73722" lon="6.44016">
        <ele>346.66155741457</ele>
        <time>2021-08-21T12:40:54Z</time>
      </trkpt>
      <trkpt lat="47.73713" lon="6.44004">
        <ele>346.63660792152</ele>
        <time>2021-08-21T12:40:56Z</time>
      </trkpt>
      <trkpt lat="47.73704" lon="6.43992">
        <ele>346.68213443077</ele>
        <time>2021-08-21T12:40:58Z</time>
      </trkpt>
      <trkpt lat="47.73694" lon="6.4398">
        <ele>346.75092210986</ele>
        <time>2021-08-21T12:41:00Z</time>
      </trkpt>
      <trkpt lat="47.73686" lon="6.43969">
        <ele>346.80828441704</ele>
        <time>2021-08-21T12:41:02Z</time>
      </trkpt>
      <trkpt lat="47.73677" lon="6.43959">
        <ele>346.85669095574</ele>
        <time>2021-08-21T12:41:04Z</time>
      </trkpt>
      <trkpt lat="47.73669" lon="6.4395">
        <ele>346.74098743429</ele>
        <time>2021-08-21T12:41:06Z</time>
      </trkpt>
      <trkpt lat="47.73661" lon="6.4394">
        <ele>346.59330728628</ele>
        <time>2021-08-21T12:41:08Z</time>
      </trkpt>
      <trkpt lat="47.73654" lon="6.43931">
        <ele>346.4244876174</ele>
        <time>2021-08-21T12:41:10Z</time>
      </trkpt>
      <trkpt lat="47.73647" lon="6.43921">
        <ele>346.14062206748</ele>
        <time>2021-08-21T12:41:12Z</time>
      </trkpt>
      <trkpt lat="47.7364" lon="6.43912">
        <ele>345.90628494893</ele>
        <time>2021-08-21T12:41:14Z</time>
      </trkpt>
      <trkpt lat="47.73633" lon="6.43903">
        <ele>345.662563298</ele>
        <time>2021-08-21T12:41:16Z</time>
      </trkpt>
      <trkpt lat="47.73625" lon="6.43893">
        <ele>345.36623236823</ele>
        <time>2021-08-21T12:41:18Z</time>
      </trkpt>
      <trkpt lat="47.73617" lon="6.43884">
        <ele>345.12315165054</ele>
        <time>2021-08-21T12:41:20Z</time>
      </trkpt>
      <trkpt lat="47.73609" lon="6.43874">
        <ele>344.92453118273</ele>
        <time>2021-08-21T12:41:22Z</time>
      </trkpt>
      <trkpt lat="47.73602" lon="6.43865">
        <ele>344.77150090967</ele>
        <time>2021-08-21T12:41:24Z</time>
      </trkpt>
      <trkpt lat="47.73595" lon="6.43856">
        <ele>344.52421257456</ele>
        <time>2021-08-21T12:41:26Z</time>
      </trkpt>
      <trkpt lat="47.73588" lon="6.43847">
        <ele>344.26513751722</ele>
        <time>2021-08-21T12:41:28Z</time>
      </trkpt>
      <trkpt lat="47.7358" lon="6.43837">
        <ele>344.04177150325</ele>
        <time>2021-08-21T12:41:30Z</time>
      </trkpt>
      <trkpt lat="47.73572" lon="6.43826">
        <ele>343.86008404526</ele>
        <time>2021-08-21T12:41:32Z</time>
      </trkpt>
      <trkpt lat="47.73564" lon="6.43814">
        <ele>343.75626125201</ele>
        <time>2021-08-21T12:41:34Z</time>
      </trkpt>
      <trkpt lat="47.73554" lon="6.43801">
        <ele>343.57200386061</ele>
        <time>2021-08-21T12:41:36Z</time>
      </trkpt>
      <trkpt lat="47.73545" lon="6.43788">
        <ele>343.3848650507</ele>
        <time>2021-08-21T12:41:38Z</time>
      </trkpt>
      <trkpt lat="47.73536" lon="6.43774">
        <ele>343.2312543252</ele>
        <time>2021-08-21T12:41:40Z</time>
      </trkpt>
      <trkpt lat="47.73527" lon="6.43761">
        <ele>343.09824134309</ele>
        <time>2021-08-21T12:41:42Z</time>
      </trkpt>
      <trkpt lat="47.73518" lon="6.4375">
        <ele>343.0163618864</ele>
        <time>2021-08-21T12:41:44Z</time>
      </trkpt>
      <trkpt lat="47.73508" lon="6.43739">
        <ele>342.84286296363</ele>
        <time>2021-08-21T12:41:46Z</time>
      </trkpt>
      <trkpt lat="47.73498" lon="6.43732">
        <ele>342.68394771011</ele>
        <time>2021-08-21T12:41:48Z</time>
      </trkpt>
      <trkpt lat="47.73486" lon="6.43724">
        <ele>342.57550296225</ele>
        <time>2021-08-21T12:41:50Z</time>
      </trkpt>
      <trkpt lat="47.73474" lon="6.43719">
        <ele>342.68587646192</ele>
        <time>2021-08-21T12:41:52Z</time>
      </trkpt>
      <trkpt lat="47.73463" lon="6.43716">
        <ele>342.7767660309</ele>
        <time>2021-08-21T12:41:54Z</time>
      </trkpt>
      <trkpt lat="47.73451" lon="6.43715">
        <ele>342.82546760834</ele>
        <time>2021-08-21T12:41:56Z</time>
      </trkpt>
      <trkpt lat="47.73439" lon="6.43716">
        <ele>342.85878438195</ele>
        <time>2021-08-21T12:41:58Z</time>
      </trkpt>
      <trkpt lat="47.73428" lon="6.43717">
        <ele>342.90723864253</ele>
        <time>2021-08-21T12:42:00Z</time>
      </trkpt>
      <trkpt lat="47.73416" lon="6.43721">
        <ele>342.92771402821</ele>
        <time>2021-08-21T12:42:02Z</time>
      </trkpt>
      <trkpt lat="47.73405" lon="6.43725">
        <ele>342.90140793002</ele>
        <time>2021-08-21T12:42:04Z</time>
      </trkpt>
      <trkpt lat="47.73394" lon="6.4373">
        <ele>342.86163768589</ele>
        <time>2021-08-21T12:42:06Z</time>
      </trkpt>
      <trkpt lat="47.73383" lon="6.43735">
        <ele>342.79813496284</ele>
        <time>2021-08-21T12:42:08Z</time>
      </trkpt>
      <trkpt lat="47.73372" lon="6.43741">
        <ele>342.84505419112</ele>
        <time>2021-08-21T12:42:10Z</time>
      </trkpt>
      <trkpt lat="47.73361" lon="6.43746">
        <ele>342.94629140812</ele>
        <time>2021-08-21T12:42:12Z</time>
      </trkpt>
      <trkpt lat="47.73351" lon="6.43752">
        <ele>343.09630488061</ele>
        <time>2021-08-21T12:42:14Z</time>
      </trkpt>
      <trkpt lat="47.73341" lon="6.43757">
        <ele>343.28274432606</ele>
        <time>2021-08-21T12:42:16Z</time>
      </trkpt>
      <trkpt lat="47.73331" lon="6.43761">
        <ele>343.39636948686</ele>
        <time>2021-08-21T12:42:18Z</time>
      </trkpt>
      <trkpt lat="47.73322" lon="6.43766">
        <ele>343.68283846051</ele>
        <time>2021-08-21T12:42:20Z</time>
      </trkpt>
      <trkpt lat="47.73312" lon="6.4377">
        <ele>343.97440860117</ele>
        <time>2021-08-21T12:42:22Z</time>
      </trkpt>
      <trkpt lat="47.73304" lon="6.43774">
        <ele>344.15445941397</ele>
        <time>2021-08-21T12:42:24Z</time>
      </trkpt>
      <trkpt lat="47.73295" lon="6.43778">
        <ele>344.13825555676</ele>
        <time>2021-08-21T12:42:26Z</time>
      </trkpt>
      <trkpt lat="47.73287" lon="6.43782">
        <ele>344.17514974751</ele>
        <time>2021-08-21T12:42:28Z</time>
      </trkpt>
      <trkpt lat="47.73279" lon="6.43786">
        <ele>344.23411425932</ele>
        <time>2021-08-21T12:42:30Z</time>
      </trkpt>
      <trkpt lat="47.73271" lon="6.4379">
        <ele>344.36396422574</ele>
        <time>2021-08-21T12:42:32Z</time>
      </trkpt>
      <trkpt lat="47.73263" lon="6.43794">
        <ele>344.50998346909</ele>
        <time>2021-08-21T12:42:34Z</time>
      </trkpt>
      <trkpt lat="47.73256" lon="6.43797">
        <ele>344.61724734213</ele>
        <time>2021-08-21T12:42:36Z</time>
      </trkpt>
      <trkpt lat="47.73249" lon="6.43801">
        <ele>344.73435322659</ele>
        <time>2021-08-21T12:42:38Z</time>
      </trkpt>
      <trkpt lat="47.73241" lon="6.43805">
        <ele>344.82581754739</ele>
        <time>2021-08-21T12:42:40Z</time>
      </trkpt>
      <trkpt lat="47.73234" lon="6.43809">
        <ele>344.83771250465</ele>
        <time>2021-08-21T12:42:42Z</time>
      </trkpt>
      <trkpt lat="47.73228" lon="6.43812">
        <ele>344.85473273851</ele>
        <time>2021-08-21T12:42:44Z</time>
      </trkpt>
      <trkpt lat="47.73221" lon="6.43814">
        <ele>344.8795982173</ele>
        <time>2021-08-21T12:42:46Z</time>
      </trkpt>
      <trkpt lat="47.73214" lon="6.43816">
        <ele>345.13636439514</ele>
        <time>2021-08-21T12:42:48Z</time>
      </trkpt>
      <trkpt lat="47.73206" lon="6.43815">
        <ele>345.23413557292</ele>
        <time>2021-08-21T12:42:50Z</time>
      </trkpt>
      <trkpt lat="47.732" lon="6.43809">
        <ele>345.25873015543</ele>
        <time>2021-08-21T12:42:52Z</time>
      </trkpt>
      <trkpt lat="47.73199" lon="6.43801">
        <ele>345.39444248174</ele>
        <time>2021-08-21T12:42:54Z</time>
      </trkpt>
      <trkpt lat="47.73196" lon="6.4379">
        <ele>345.57177780272</ele>
        <time>2021-08-21T12:42:56Z</time>
      </trkpt>
      <trkpt lat="47.73194" lon="6.43778">
        <ele>345.68226184787</ele>
        <time>2021-08-21T12:42:58Z</time>
      </trkpt>
      <trkpt lat="47.7319" lon="6.43764">
        <ele>345.7540014146</ele>
        <time>2021-08-21T12:43:00Z</time>
      </trkpt>
      <trkpt lat="47.73184" lon="6.43756">
        <ele>345.80119370994</ele>
        <time>2021-08-21T12:43:02Z</time>
      </trkpt>
      <trkpt lat="47.73176" lon="6.43752">
        <ele>345.86314331298</ele>
        <time>2021-08-21T12:43:04Z</time>
      </trkpt>
      <trkpt lat="47.73168" lon="6.4375">
        <ele>345.96196755684</ele>
        <time>2021-08-21T12:43:06Z</time>
      </trkpt>
      <trkpt lat="47.7316" lon="6.43749">
        <ele>346.07226058405</ele>
        <time>2021-08-21T12:43:08Z</time>
      </trkpt>
      <trkpt lat="47.73152" lon="6.43748">
        <ele>346.15080553964</ele>
        <time>2021-08-21T12:43:10Z</time>
      </trkpt>
      <trkpt lat="47.73145" lon="6.43745">
        <ele>346.16040889963</ele>
        <time>2021-08-21T12:43:12Z</time>
      </trkpt>
      <trkpt lat="47.73139" lon="6.43738">
        <ele>346.17338568169</ele>
        <time>2021-08-21T12:43:14Z</time>
      </trkpt>
      <trkpt lat="47.73138" lon="6.43726">
        <ele>346.27947627698</ele>
        <time>2021-08-21T12:43:16Z</time>
      </trkpt>
      <trkpt lat="47.73139" lon="6.43714">
        <ele>346.45385480214</ele>
        <time>2021-08-21T12:43:18Z</time>
      </trkpt>
      <trkpt lat="47.73143" lon="6.43702">
        <ele>346.59080043625</ele>
        <time>2021-08-21T12:43:20Z</time>
      </trkpt>
      <trkpt lat="47.73143" lon="6.4369">
        <ele>346.65114679442</ele>
        <time>2021-08-21T12:43:22Z</time>
      </trkpt>
      <trkpt lat="47.73141" lon="6.43677">
        <ele>346.69880539384</ele>
        <time>2021-08-21T12:43:24Z</time>
      </trkpt>
      <trkpt lat="47.73135" lon="6.43669">
        <ele>346.71610652154</ele>
        <time>2021-08-21T12:43:26Z</time>
      </trkpt>
      <trkpt lat="47.73128" lon="6.43664">
        <ele>346.71958936218</ele>
        <time>2021-08-21T12:43:28Z</time>
      </trkpt>
      <trkpt lat="47.7312" lon="6.4366">
        <ele>346.71872226838</ele>
        <time>2021-08-21T12:43:30Z</time>
      </trkpt>
      <trkpt lat="47.73114" lon="6.43653">
        <ele>346.71451134082</ele>
        <time>2021-08-21T12:43:32Z</time>
      </trkpt>
      <trkpt lat="47.7311" lon="6.43643">
        <ele>346.71574884684</ele>
        <time>2021-08-21T12:43:34Z</time>
      </trkpt>
      <trkpt lat="47.7311" lon="6.43631">
        <ele>346.71652196907</ele>
        <time>2021-08-21T12:43:36Z</time>
      </trkpt>
      <trkpt lat="47.73112" lon="6.43622">
        <ele>346.71791841559</ele>
        <time>2021-08-21T12:43:38Z</time>
      </trkpt>
      <trkpt lat="47.73114" lon="6.43612">
        <ele>346.70691836226</ele>
        <time>2021-08-21T12:43:40Z</time>
      </trkpt>
      <trkpt lat="47.73117" lon="6.43601">
        <ele>346.66000626018</ele>
        <time>2021-08-21T12:43:42Z</time>
      </trkpt>
      <trkpt lat="47.7312" lon="6.4359">
        <ele>346.61327958233</ele>
        <time>2021-08-21T12:43:44Z</time>
      </trkpt>
      <trkpt lat="47.73123" lon="6.43577">
        <ele>346.5473099715</ele>
        <time>2021-08-21T12:43:46Z</time>
      </trkpt>
      <trkpt lat="47.73127" lon="6.43563">
        <ele>346.4832366558</ele>
        <time>2021-08-21T12:43:48Z</time>
      </trkpt>
      <trkpt lat="47.73131" lon="6.43551">
        <ele>346.43470199656</ele>
        <time>2021-08-21T12:43:50Z</time>
      </trkpt>
      <trkpt lat="47.73135" lon="6.43539">
        <ele>346.38452831001</ele>
        <time>2021-08-21T12:43:52Z</time>
      </trkpt>
      <trkpt lat="47.73139" lon="6.43527">
        <ele>346.35590464781</ele>
        <time>2021-08-21T12:43:54Z</time>
      </trkpt>
      <trkpt lat="47.73143" lon="6.43514">
        <ele>346.36421659599</ele>
        <time>2021-08-21T12:43:56Z</time>
      </trkpt>
      <trkpt lat="47.73148" lon="6.43501">
        <ele>346.38144830232</ele>
        <time>2021-08-21T12:43:58Z</time>
      </trkpt>
      <trkpt lat="47.73152" lon="6.4349">
        <ele>346.40795580159</ele>
        <time>2021-08-21T12:44:00Z</time>
      </trkpt>
      <trkpt lat="47.73155" lon="6.43479">
        <ele>346.4368685321</ele>
        <time>2021-08-21T12:44:02Z</time>
      </trkpt>
      <trkpt lat="47.73159" lon="6.43469">
        <ele>346.46971195696</ele>
        <time>2021-08-21T12:44:04Z</time>
      </trkpt>
      <trkpt lat="47.73162" lon="6.43458">
        <ele>346.52823153964</ele>
        <time>2021-08-21T12:44:06Z</time>
      </trkpt>
      <trkpt lat="47.73166" lon="6.43447">
        <ele>346.57575841271</ele>
        <time>2021-08-21T12:44:08Z</time>
      </trkpt>
      <trkpt lat="47.7317" lon="6.43436">
        <ele>346.61118853978</ele>
        <time>2021-08-21T12:44:10Z</time>
      </trkpt>
      <trkpt lat="47.73174" lon="6.43424">
        <ele>346.66556459298</ele>
        <time>2021-08-21T12:44:12Z</time>
      </trkpt>
      <trkpt lat="47.73178" lon="6.43411">
        <ele>346.74593347333</ele>
        <time>2021-08-21T12:44:14Z</time>
      </trkpt>
      <trkpt lat="47.73182" lon="6.43399">
        <ele>346.81912684258</ele>
        <time>2021-08-21T12:44:16Z</time>
      </trkpt>
      <trkpt lat="47.73186" lon="6.43387">
        <ele>346.87273031356</ele>
        <time>2021-08-21T12:44:18Z</time>
      </trkpt>
      <trkpt lat="47.73191" lon="6.43373">
        <ele>346.93340055758</ele>
        <time>2021-08-21T12:44:20Z</time>
      </trkpt>
      <trkpt lat="47.73195" lon="6.43361">
        <ele>346.99323659894</ele>
        <time>2021-08-21T12:44:22Z</time>
      </trkpt>
      <trkpt lat="47.73199" lon="6.43346">
        <ele>347.06459235736</ele>
        <time>2021-08-21T12:44:24Z</time>
      </trkpt>
      <trkpt lat="47.73205" lon="6.43331">
        <ele>347.15306501651</ele>
        <time>2021-08-21T12:44:26Z</time>
      </trkpt>
      <trkpt lat="47.7321" lon="6.43317">
        <ele>347.23131377382</ele>
        <time>2021-08-21T12:44:28Z</time>
      </trkpt>
      <trkpt lat="47.73215" lon="6.43302">
        <ele>347.28941512142</ele>
        <time>2021-08-21T12:44:30Z</time>
      </trkpt>
      <trkpt lat="47.7322" lon="6.43287">
        <ele>347.33048227736</ele>
        <time>2021-08-21T12:44:32Z</time>
      </trkpt>
      <trkpt lat="47.73226" lon="6.4327">
        <ele>347.36688828273</ele>
        <time>2021-08-21T12:44:34Z</time>
      </trkpt>
      <trkpt lat="47.73231" lon="6.43253">
        <ele>347.37845669298</ele>
        <time>2021-08-21T12:44:36Z</time>
      </trkpt>
      <trkpt lat="47.73236" lon="6.43236">
        <ele>347.37520665055</ele>
        <time>2021-08-21T12:44:38Z</time>
      </trkpt>
      <trkpt lat="47.73241" lon="6.43219">
        <ele>347.36100887066</ele>
        <time>2021-08-21T12:44:40Z</time>
      </trkpt>
      <trkpt lat="47.73246" lon="6.43201">
        <ele>347.36115026622</ele>
        <time>2021-08-21T12:44:42Z</time>
      </trkpt>
      <trkpt lat="47.73252" lon="6.43185">
        <ele>347.35290701198</ele>
        <time>2021-08-21T12:44:44Z</time>
      </trkpt>
      <trkpt lat="47.73257" lon="6.43169">
        <ele>347.30698585612</ele>
        <time>2021-08-21T12:44:46Z</time>
      </trkpt>
      <trkpt lat="47.73264" lon="6.43153">
        <ele>347.28900263664</ele>
        <time>2021-08-21T12:44:48Z</time>
      </trkpt>
      <trkpt lat="47.73269" lon="6.43136">
        <ele>347.34077683962</ele>
        <time>2021-08-21T12:44:50Z</time>
      </trkpt>
      <trkpt lat="47.73274" lon="6.43119">
        <ele>347.44664538542</ele>
        <time>2021-08-21T12:44:52Z</time>
      </trkpt>
      <trkpt lat="47.73279" lon="6.43103">
        <ele>347.60994071321</ele>
        <time>2021-08-21T12:44:54Z</time>
      </trkpt>
      <trkpt lat="47.73284" lon="6.43088">
        <ele>347.85308420103</ele>
        <time>2021-08-21T12:44:56Z</time>
      </trkpt>
      <trkpt lat="47.73289" lon="6.43073">
        <ele>348.11525211321</ele>
        <time>2021-08-21T12:44:58Z</time>
      </trkpt>
      <trkpt lat="47.73294" lon="6.43058">
        <ele>348.34445917402</ele>
        <time>2021-08-21T12:45:00Z</time>
      </trkpt>
      <trkpt lat="47.73298" lon="6.43045">
        <ele>348.56149210381</ele>
        <time>2021-08-21T12:45:02Z</time>
      </trkpt>
      <trkpt lat="47.73302" lon="6.43032">
        <ele>348.71779833436</ele>
        <time>2021-08-21T12:45:04Z</time>
      </trkpt>
      <trkpt lat="47.73306" lon="6.4302">
        <ele>348.78240704026</ele>
        <time>2021-08-21T12:45:06Z</time>
      </trkpt>
      <trkpt lat="47.7331" lon="6.43008">
        <ele>348.78949957064</ele>
        <time>2021-08-21T12:45:08Z</time>
      </trkpt>
      <trkpt lat="47.73314" lon="6.42995">
        <ele>348.84556137909</ele>
        <time>2021-08-21T12:45:10Z</time>
      </trkpt>
      <trkpt lat="47.73317" lon="6.42983">
        <ele>348.88050030524</ele>
        <time>2021-08-21T12:45:12Z</time>
      </trkpt>
      <trkpt lat="47.73321" lon="6.42972">
        <ele>348.94357646291</ele>
        <time>2021-08-21T12:45:14Z</time>
      </trkpt>
      <trkpt lat="47.73325" lon="6.42961">
        <ele>349.08056954922</ele>
        <time>2021-08-21T12:45:16Z</time>
      </trkpt>
      <trkpt lat="47.73329" lon="6.4295">
        <ele>349.15742971747</ele>
        <time>2021-08-21T12:45:18Z</time>
      </trkpt>
      <trkpt lat="47.73332" lon="6.42939">
        <ele>349.22076337088</ele>
        <time>2021-08-21T12:45:20Z</time>
      </trkpt>
      <trkpt lat="47.73336" lon="6.42928">
        <ele>349.2486008804</ele>
        <time>2021-08-21T12:45:22Z</time>
      </trkpt>
      <trkpt lat="47.73339" lon="6.42916">
        <ele>349.27701137393</ele>
        <time>2021-08-21T12:45:24Z</time>
      </trkpt>
      <trkpt lat="47.73342" lon="6.42904">
        <ele>349.27834378726</ele>
        <time>2021-08-21T12:45:26Z</time>
      </trkpt>
      <trkpt lat="47.73345" lon="6.42892">
        <ele>349.26390585744</ele>
        <time>2021-08-21T12:45:28Z</time>
      </trkpt>
      <trkpt lat="47.73346" lon="6.42878">
        <ele>349.25820243232</ele>
        <time>2021-08-21T12:45:30Z</time>
      </trkpt>
      <trkpt lat="47.73347" lon="6.42864">
        <ele>349.26812449922</ele>
        <time>2021-08-21T12:45:32Z</time>
      </trkpt>
      <trkpt lat="47.73347" lon="6.42847">
        <ele>349.30124703014</ele>
        <time>2021-08-21T12:45:34Z</time>
      </trkpt>
      <trkpt lat="47.73346" lon="6.42829">
        <ele>349.36521236434</ele>
        <time>2021-08-21T12:45:36Z</time>
      </trkpt>
      <trkpt lat="47.73345" lon="6.42807">
        <ele>349.51307791301</ele>
        <time>2021-08-21T12:45:38Z</time>
      </trkpt>
      <trkpt lat="47.73347" lon="6.42783">
        <ele>349.62357568368</ele>
        <time>2021-08-21T12:45:40Z</time>
      </trkpt>
      <trkpt lat="47.73356" lon="6.42761">
        <ele>349.69558183543</ele>
        <time>2021-08-21T12:45:42Z</time>
      </trkpt>
      <trkpt lat="47.7337" lon="6.4274">
        <ele>349.71612493638</ele>
        <time>2021-08-21T12:45:44Z</time>
      </trkpt>
      <trkpt lat="47.73386" lon="6.42723">
        <ele>349.78104819381</ele>
        <time>2021-08-21T12:45:46Z</time>
      </trkpt>
      <trkpt lat="47.73402" lon="6.42707">
        <ele>349.93672486029</ele>
        <time>2021-08-21T12:45:48Z</time>
      </trkpt>
      <trkpt lat="47.73417" lon="6.42689">
        <ele>350.09146327631</ele>
        <time>2021-08-21T12:45:50Z</time>
      </trkpt>
      <trkpt lat="47.73432" lon="6.42673">
        <ele>350.21023020838</ele>
        <time>2021-08-21T12:45:52Z</time>
      </trkpt>
      <trkpt lat="47.73446" lon="6.42658">
        <ele>350.20284269062</ele>
        <time>2021-08-21T12:45:54Z</time>
      </trkpt>
      <trkpt lat="47.7346" lon="6.42643">
        <ele>350.22570469957</ele>
        <time>2021-08-21T12:45:56Z</time>
      </trkpt>
      <trkpt lat="47.73473" lon="6.42627">
        <ele>350.23238504057</ele>
        <time>2021-08-21T12:45:58Z</time>
      </trkpt>
      <trkpt lat="47.73487" lon="6.42612">
        <ele>350.46001592502</ele>
        <time>2021-08-21T12:46:00Z</time>
      </trkpt>
      <trkpt lat="47.735" lon="6.42598">
        <ele>350.60863287872</ele>
        <time>2021-08-21T12:46:02Z</time>
      </trkpt>
      <trkpt lat="47.73513" lon="6.42584">
        <ele>350.6760255896</ele>
        <time>2021-08-21T12:46:04Z</time>
      </trkpt>
      <trkpt lat="47.73525" lon="6.4257">
        <ele>350.72860061208</ele>
        <time>2021-08-21T12:46:06Z</time>
      </trkpt>
      <trkpt lat="47.73537" lon="6.42554">
        <ele>351.14779429186</ele>
        <time>2021-08-21T12:46:08Z</time>
      </trkpt>
      <trkpt lat="47.73548" lon="6.42538">
        <ele>351.44009040244</ele>
        <time>2021-08-21T12:46:10Z</time>
      </trkpt>
      <trkpt lat="47.73558" lon="6.42524">
        <ele>351.73058839043</ele>
        <time>2021-08-21T12:46:12Z</time>
      </trkpt>
      <trkpt lat="47.73572" lon="6.42523">
        <ele>352.04539011927</ele>
        <time>2021-08-21T12:46:14Z</time>
      </trkpt>
      <trkpt lat="47.73586" lon="6.42528">
        <ele>352.25556972666</ele>
        <time>2021-08-21T12:46:16Z</time>
      </trkpt>
      <trkpt lat="47.73599" lon="6.4253">
        <ele>352.52585983204</ele>
        <time>2021-08-21T12:46:18Z</time>
      </trkpt>
      <trkpt lat="47.73612" lon="6.42528">
        <ele>352.74350118466</ele>
        <time>2021-08-21T12:46:20Z</time>
      </trkpt>
      <trkpt lat="47.73624" lon="6.42521">
        <ele>352.85521453223</ele>
        <time>2021-08-21T12:46:22Z</time>
      </trkpt>
      <trkpt lat="47.73635" lon="6.42513">
        <ele>352.94013939309</ele>
        <time>2021-08-21T12:46:24Z</time>
      </trkpt>
      <trkpt lat="47.73645" lon="6.42503">
        <ele>353.07587754769</ele>
        <time>2021-08-21T12:46:26Z</time>
      </trkpt>
      <trkpt lat="47.73654" lon="6.42493">
        <ele>353.27639359442</ele>
        <time>2021-08-21T12:46:28Z</time>
      </trkpt>
      <trkpt lat="47.73664" lon="6.42485">
        <ele>353.39316037676</ele>
        <time>2021-08-21T12:46:30Z</time>
      </trkpt>
      <trkpt lat="47.73674" lon="6.42482">
        <ele>353.34414256341</ele>
        <time>2021-08-21T12:46:32Z</time>
      </trkpt>
      <trkpt lat="47.73686" lon="6.42481">
        <ele>353.60494529734</ele>
        <time>2021-08-21T12:46:34Z</time>
      </trkpt>
      <trkpt lat="47.73697" lon="6.42481">
        <ele>353.71570174159</ele>
        <time>2021-08-21T12:46:36Z</time>
      </trkpt>
      <trkpt lat="47.7371" lon="6.42482">
        <ele>353.66140275969</ele>
        <time>2021-08-21T12:46:38Z</time>
      </trkpt>
      <trkpt lat="47.73722" lon="6.42483">
        <ele>353.460860375</ele>
        <time>2021-08-21T12:46:40Z</time>
      </trkpt>
      <trkpt lat="47.73736" lon="6.42483">
        <ele>353.3855976511</ele>
        <time>2021-08-21T12:46:42Z</time>
      </trkpt>
      <trkpt lat="47.7375" lon="6.42484">
        <ele>353.16302791472</ele>
        <time>2021-08-21T12:46:44Z</time>
      </trkpt>
      <trkpt lat="47.73765" lon="6.42485">
        <ele>352.93848194403</ele>
        <time>2021-08-21T12:46:46Z</time>
      </trkpt>
      <trkpt lat="47.73781" lon="6.42486">
        <ele>352.72801886123</ele>
        <time>2021-08-21T12:46:48Z</time>
      </trkpt>
      <trkpt lat="47.73797" lon="6.42487">
        <ele>352.41519007488</ele>
        <time>2021-08-21T12:46:50Z</time>
      </trkpt>
      <trkpt lat="47.73814" lon="6.42488">
        <ele>352.14528027659</ele>
        <time>2021-08-21T12:46:52Z</time>
      </trkpt>
      <trkpt lat="47.73833" lon="6.42488">
        <ele>351.85033299376</ele>
        <time>2021-08-21T12:46:54Z</time>
      </trkpt>
      <trkpt lat="47.73852" lon="6.42488">
        <ele>351.60030809044</ele>
        <time>2021-08-21T12:46:56Z</time>
      </trkpt>
      <trkpt lat="47.73871" lon="6.4249">
        <ele>351.45236120287</ele>
        <time>2021-08-21T12:46:58Z</time>
      </trkpt>
      <trkpt lat="47.73891" lon="6.4249">
        <ele>351.54276149369</ele>
        <time>2021-08-21T12:47:00Z</time>
      </trkpt>
      <trkpt lat="47.73911" lon="6.4249">
        <ele>351.67375492866</ele>
        <time>2021-08-21T12:47:02Z</time>
      </trkpt>
      <trkpt lat="47.73931" lon="6.42491">
        <ele>351.76256827038</ele>
        <time>2021-08-21T12:47:04Z</time>
      </trkpt>
      <trkpt lat="47.73949" lon="6.42495">
        <ele>351.88129554799</ele>
        <time>2021-08-21T12:47:06Z</time>
      </trkpt>
      <trkpt lat="47.73968" lon="6.42496">
        <ele>351.9768700462</ele>
        <time>2021-08-21T12:47:08Z</time>
      </trkpt>
      <trkpt lat="47.73986" lon="6.42496">
        <ele>352.12893698475</ele>
        <time>2021-08-21T12:47:10Z</time>
      </trkpt>
      <trkpt lat="47.74002" lon="6.42498">
        <ele>352.14126141252</ele>
        <time>2021-08-21T12:47:12Z</time>
      </trkpt>
      <trkpt lat="47.74019" lon="6.425">
        <ele>352.38639033402</ele>
        <time>2021-08-21T12:47:14Z</time>
      </trkpt>
      <trkpt lat="47.74035" lon="6.42501">
        <ele>352.52307317991</ele>
        <time>2021-08-21T12:47:16Z</time>
      </trkpt>
      <trkpt lat="47.7405" lon="6.42501">
        <ele>352.70219847913</ele>
        <time>2021-08-21T12:47:18Z</time>
      </trkpt>
      <trkpt lat="47.74064" lon="6.425">
        <ele>352.86097690274</ele>
        <time>2021-08-21T12:47:20Z</time>
      </trkpt>
      <trkpt lat="47.74078" lon="6.42498">
        <ele>352.8612841697</ele>
        <time>2021-08-21T12:47:22Z</time>
      </trkpt>
      <trkpt lat="47.74091" lon="6.42498">
        <ele>352.78348493371</ele>
        <time>2021-08-21T12:47:24Z</time>
      </trkpt>
      <trkpt lat="47.74104" lon="6.42496">
        <ele>352.62143876048</ele>
        <time>2021-08-21T12:47:26Z</time>
      </trkpt>
      <trkpt lat="47.74117" lon="6.42494">
        <ele>352.39260027951</ele>
        <time>2021-08-21T12:47:28Z</time>
      </trkpt>
      <trkpt lat="47.74129" lon="6.42492">
        <ele>352.22459960287</ele>
        <time>2021-08-21T12:47:30Z</time>
      </trkpt>
      <trkpt lat="47.74142" lon="6.42489">
        <ele>352.16016012012</ele>
        <time>2021-08-21T12:47:32Z</time>
      </trkpt>
      <trkpt lat="47.74155" lon="6.42485">
        <ele>352.10459309518</ele>
        <time>2021-08-21T12:47:34Z</time>
      </trkpt>
      <trkpt lat="47.74167" lon="6.4248">
        <ele>351.98009348518</ele>
        <time>2021-08-21T12:47:36Z</time>
      </trkpt>
      <trkpt lat="47.74178" lon="6.42475">
        <ele>351.72749268461</ele>
        <time>2021-08-21T12:47:38Z</time>
      </trkpt>
      <trkpt lat="47.7419" lon="6.4247">
        <ele>351.46027090871</ele>
        <time>2021-08-21T12:47:40Z</time>
      </trkpt>
      <trkpt lat="47.74201" lon="6.42465">
        <ele>351.30729710488</ele>
        <time>2021-08-21T12:47:42Z</time>
      </trkpt>
      <trkpt lat="47.74213" lon="6.42459">
        <ele>351.30984937576</ele>
        <time>2021-08-21T12:47:44Z</time>
      </trkpt>
      <trkpt lat="47.74225" lon="6.42453">
        <ele>351.35627432681</ele>
        <time>2021-08-21T12:47:46Z</time>
      </trkpt>
      <trkpt lat="47.74236" lon="6.42448">
        <ele>351.43519306057</ele>
        <time>2021-08-21T12:47:48Z</time>
      </trkpt>
      <trkpt lat="47.74247" lon="6.42443">
        <ele>351.67180569067</ele>
        <time>2021-08-21T12:47:50Z</time>
      </trkpt>
      <trkpt lat="47.74258" lon="6.42439">
        <ele>351.86734768781</ele>
        <time>2021-08-21T12:47:52Z</time>
      </trkpt>
      <trkpt lat="47.7427" lon="6.42434">
        <ele>352.02206710603</ele>
        <time>2021-08-21T12:47:54Z</time>
      </trkpt>
      <trkpt lat="47.74281" lon="6.42429">
        <ele>352.07757256197</ele>
        <time>2021-08-21T12:47:56Z</time>
      </trkpt>
      <trkpt lat="47.74291" lon="6.42424">
        <ele>352.01511750164</ele>
        <time>2021-08-21T12:47:58Z</time>
      </trkpt>
      <trkpt lat="47.74302" lon="6.42418">
        <ele>351.96334281191</ele>
        <time>2021-08-21T12:48:00Z</time>
      </trkpt>
      <trkpt lat="47.74313" lon="6.42413">
        <ele>351.83952686511</ele>
        <time>2021-08-21T12:48:02Z</time>
      </trkpt>
      <trkpt lat="47.74323" lon="6.42407">
        <ele>351.73607425179</ele>
        <time>2021-08-21T12:48:04Z</time>
      </trkpt>
      <trkpt lat="47.74335" lon="6.42401">
        <ele>351.60433386682</ele>
        <time>2021-08-21T12:48:06Z</time>
      </trkpt>
      <trkpt lat="47.74347" lon="6.42395">
        <ele>351.36381421995</ele>
        <time>2021-08-21T12:48:08Z</time>
      </trkpt>
      <trkpt lat="47.7436" lon="6.42389">
        <ele>351.08472054863</ele>
        <time>2021-08-21T12:48:10Z</time>
      </trkpt>
      <trkpt lat="47.74374" lon="6.42381">
        <ele>350.83206871114</ele>
        <time>2021-08-21T12:48:12Z</time>
      </trkpt>
      <trkpt lat="47.74389" lon="6.42375">
        <ele>350.56734897266</ele>
        <time>2021-08-21T12:48:14Z</time>
      </trkpt>
      <trkpt lat="47.74404" lon="6.42367">
        <ele>350.23928184866</ele>
        <time>2021-08-21T12:48:16Z</time>
      </trkpt>
      <trkpt lat="47.74418" lon="6.42359">
        <ele>349.87290174286</ele>
        <time>2021-08-21T12:48:18Z</time>
      </trkpt>
      <trkpt lat="47.74433" lon="6.42352">
        <ele>349.51974925547</ele>
        <time>2021-08-21T12:48:20Z</time>
      </trkpt>
      <trkpt lat="47.74446" lon="6.42344">
        <ele>349.21224020683</ele>
        <time>2021-08-21T12:48:22Z</time>
      </trkpt>
      <trkpt lat="47.74459" lon="6.42338">
        <ele>348.90922715055</ele>
        <time>2021-08-21T12:48:24Z</time>
      </trkpt>
      <trkpt lat="47.7447" lon="6.42332">
        <ele>348.64314712576</ele>
        <time>2021-08-21T12:48:26Z</time>
      </trkpt>
      <trkpt lat="47.74478" lon="6.42328">
        <ele>348.36723572361</ele>
        <time>2021-08-21T12:48:28Z</time>
      </trkpt>
      <trkpt lat="47.74486" lon="6.42323">
        <ele>348.09368243958</ele>
        <time>2021-08-21T12:48:30Z</time>
      </trkpt>
      <trkpt lat="47.74494" lon="6.42319">
        <ele>347.74369265308</ele>
        <time>2021-08-21T12:48:32Z</time>
      </trkpt>
      <trkpt lat="47.74502" lon="6.42315">
        <ele>347.34745226857</ele>
        <time>2021-08-21T12:48:34Z</time>
      </trkpt>
      <trkpt lat="47.74511" lon="6.42311">
        <ele>346.96034721305</ele>
        <time>2021-08-21T12:48:36Z</time>
      </trkpt>
      <trkpt lat="47.74521" lon="6.42305">
        <ele>346.59414001425</ele>
        <time>2021-08-21T12:48:38Z</time>
      </trkpt>
      <trkpt lat="47.74532" lon="6.42298">
        <ele>346.22586272653</ele>
        <time>2021-08-21T12:48:40Z</time>
      </trkpt>
      <trkpt lat="47.74544" lon="6.42292">
        <ele>345.79332026993</ele>
        <time>2021-08-21T12:48:42Z</time>
      </trkpt>
      <trkpt lat="47.74556" lon="6.42288">
        <ele>345.49240361697</ele>
        <time>2021-08-21T12:48:44Z</time>
      </trkpt>
      <trkpt lat="47.74568" lon="6.42283">
        <ele>345.28512018146</ele>
        <time>2021-08-21T12:48:46Z</time>
      </trkpt>
      <trkpt lat="47.74581" lon="6.42277">
        <ele>345.12327130131</ele>
        <time>2021-08-21T12:48:48Z</time>
      </trkpt>
      <trkpt lat="47.74593" lon="6.4227">
        <ele>345.16206120541</ele>
        <time>2021-08-21T12:48:50Z</time>
      </trkpt>
      <trkpt lat="47.74606" lon="6.42265">
        <ele>345.46125178222</ele>
        <time>2021-08-21T12:48:52Z</time>
      </trkpt>
      <trkpt lat="47.74619" lon="6.4226">
        <ele>345.41075407559</ele>
        <time>2021-08-21T12:48:54Z</time>
      </trkpt>
      <trkpt lat="47.74631" lon="6.42255">
        <ele>345.07915717968</ele>
        <time>2021-08-21T12:48:56Z</time>
      </trkpt>
      <trkpt lat="47.74643" lon="6.42249">
        <ele>344.72153547429</ele>
        <time>2021-08-21T12:48:58Z</time>
      </trkpt>
      <trkpt lat="47.74655" lon="6.42243">
        <ele>344.32670557297</ele>
        <time>2021-08-21T12:49:00Z</time>
      </trkpt>
      <trkpt lat="47.74667" lon="6.42237">
        <ele>344.17486592415</ele>
        <time>2021-08-21T12:49:02Z</time>
      </trkpt>
      <trkpt lat="47.74679" lon="6.42231">
        <ele>344.08670636522</ele>
        <time>2021-08-21T12:49:04Z</time>
      </trkpt>
      <trkpt lat="47.74691" lon="6.42225">
        <ele>344.0819133878</ele>
        <time>2021-08-21T12:49:06Z</time>
      </trkpt>
      <trkpt lat="47.74704" lon="6.42221">
        <ele>344.07918878778</ele>
        <time>2021-08-21T12:49:08Z</time>
      </trkpt>
      <trkpt lat="47.74716" lon="6.42216">
        <ele>344.12583068668</ele>
        <time>2021-08-21T12:49:10Z</time>
      </trkpt>
      <trkpt lat="47.74728" lon="6.4221">
        <ele>344.20262128356</ele>
        <time>2021-08-21T12:49:12Z</time>
      </trkpt>
      <trkpt lat="47.7474" lon="6.42205">
        <ele>344.23419745377</ele>
        <time>2021-08-21T12:49:14Z</time>
      </trkpt>
      <trkpt lat="47.74753" lon="6.42199">
        <ele>344.09726479341</ele>
        <time>2021-08-21T12:49:16Z</time>
      </trkpt>
      <trkpt lat="47.74764" lon="6.42191">
        <ele>343.79109200568</ele>
        <time>2021-08-21T12:49:18Z</time>
      </trkpt>
      <trkpt lat="47.74776" lon="6.42186">
        <ele>343.41391814951</ele>
        <time>2021-08-21T12:49:20Z</time>
      </trkpt>
      <trkpt lat="47.74788" lon="6.42179">
        <ele>343.03702022744</ele>
        <time>2021-08-21T12:49:22Z</time>
      </trkpt>
      <trkpt lat="47.74801" lon="6.42172">
        <ele>342.70761360133</ele>
        <time>2021-08-21T12:49:24Z</time>
      </trkpt>
      <trkpt lat="47.74812" lon="6.42165">
        <ele>342.28023740703</ele>
        <time>2021-08-21T12:49:26Z</time>
      </trkpt>
      <trkpt lat="47.74824" lon="6.42159">
        <ele>341.81655603418</ele>
        <time>2021-08-21T12:49:28Z</time>
      </trkpt>
      <trkpt lat="47.74836" lon="6.42153">
        <ele>341.35557629821</ele>
        <time>2021-08-21T12:49:30Z</time>
      </trkpt>
      <trkpt lat="47.74847" lon="6.42147">
        <ele>340.94788173015</ele>
        <time>2021-08-21T12:49:32Z</time>
      </trkpt>
      <trkpt lat="47.74859" lon="6.42141">
        <ele>340.49181073759</ele>
        <time>2021-08-21T12:49:34Z</time>
      </trkpt>
      <trkpt lat="47.74871" lon="6.42134">
        <ele>340.0368740857</ele>
        <time>2021-08-21T12:49:36Z</time>
      </trkpt>
      <trkpt lat="47.74883" lon="6.42129">
        <ele>339.64604211343</ele>
        <time>2021-08-21T12:49:38Z</time>
      </trkpt>
      <trkpt lat="47.74895" lon="6.42124">
        <ele>339.30991520959</ele>
        <time>2021-08-21T12:49:40Z</time>
      </trkpt>
      <trkpt lat="47.74906" lon="6.42119">
        <ele>339.03692762562</ele>
        <time>2021-08-21T12:49:42Z</time>
      </trkpt>
      <trkpt lat="47.74918" lon="6.42114">
        <ele>338.81585532111</ele>
        <time>2021-08-21T12:49:44Z</time>
      </trkpt>
      <trkpt lat="47.7493" lon="6.42107">
        <ele>338.67559805432</ele>
        <time>2021-08-21T12:49:46Z</time>
      </trkpt>
      <trkpt lat="47.74942" lon="6.42101">
        <ele>338.47780834747</ele>
        <time>2021-08-21T12:49:48Z</time>
      </trkpt>
      <trkpt lat="47.74954" lon="6.42095">
        <ele>338.21267869253</ele>
        <time>2021-08-21T12:49:50Z</time>
      </trkpt>
      <trkpt lat="47.74966" lon="6.42089">
        <ele>338.00993160878</ele>
        <time>2021-08-21T12:49:52Z</time>
      </trkpt>
      <trkpt lat="47.74978" lon="6.42083">
        <ele>337.84640734509</ele>
        <time>2021-08-21T12:49:54Z</time>
      </trkpt>
      <trkpt lat="47.7499" lon="6.42075">
        <ele>337.76037701038</ele>
        <time>2021-08-21T12:49:56Z</time>
      </trkpt>
      <trkpt lat="47.75001" lon="6.42069">
        <ele>337.62214540453</ele>
        <time>2021-08-21T12:49:58Z</time>
      </trkpt>
      <trkpt lat="47.75013" lon="6.42064">
        <ele>337.49643389004</ele>
        <time>2021-08-21T12:50:00Z</time>
      </trkpt>
      <trkpt lat="47.75024" lon="6.42058">
        <ele>337.28359752832</ele>
        <time>2021-08-21T12:50:02Z</time>
      </trkpt>
      <trkpt lat="47.75034" lon="6.42053">
        <ele>337.04421356768</ele>
        <time>2021-08-21T12:50:04Z</time>
      </trkpt>
      <trkpt lat="47.75044" lon="6.42047">
        <ele>336.79249634722</ele>
        <time>2021-08-21T12:50:06Z</time>
      </trkpt>
      <trkpt lat="47.75055" lon="6.42042">
        <ele>336.56928740362</ele>
        <time>2021-08-21T12:50:08Z</time>
      </trkpt>
      <trkpt lat="47.75065" lon="6.42036">
        <ele>336.44316574822</ele>
        <time>2021-08-21T12:50:10Z</time>
      </trkpt>
      <trkpt lat="47.75076" lon="6.42031">
        <ele>336.36918995655</ele>
        <time>2021-08-21T12:50:12Z</time>
      </trkpt>
      <trkpt lat="47.75083" lon="6.42022">
        <ele>336.34832811514</ele>
        <time>2021-08-21T12:50:14Z</time>
      </trkpt>
      <trkpt lat="47.75081" lon="6.42009">
        <ele>336.21692610423</ele>
        <time>2021-08-21T12:50:16Z</time>
      </trkpt>
      <trkpt lat="47.75074" lon="6.41998">
        <ele>335.89277396053</ele>
        <time>2021-08-21T12:50:18Z</time>
      </trkpt>
      <trkpt lat="47.75065" lon="6.41986">
        <ele>335.50686066091</ele>
        <time>2021-08-21T12:50:20Z</time>
      </trkpt>
      <trkpt lat="47.75057" lon="6.41973">
        <ele>335.11898350607</ele>
        <time>2021-08-21T12:50:22Z</time>
      </trkpt>
      <trkpt lat="47.75049" lon="6.41959">
        <ele>334.77389723552</ele>
        <time>2021-08-21T12:50:24Z</time>
      </trkpt>
      <trkpt lat="47.7504" lon="6.41947">
        <ele>334.55602844632</ele>
        <time>2021-08-21T12:50:26Z</time>
      </trkpt>
      <trkpt lat="47.75032" lon="6.41934">
        <ele>334.38400444958</ele>
        <time>2021-08-21T12:50:28Z</time>
      </trkpt>
      <trkpt lat="47.75024" lon="6.41921">
        <ele>334.21964826774</ele>
        <time>2021-08-21T12:50:30Z</time>
      </trkpt>
      <trkpt lat="47.75015" lon="6.41908">
        <ele>334.05903718439</ele>
        <time>2021-08-21T12:50:32Z</time>
      </trkpt>
      <trkpt lat="47.75008" lon="6.41895">
        <ele>333.94775496221</ele>
        <time>2021-08-21T12:50:34Z</time>
      </trkpt>
      <trkpt lat="47.75001" lon="6.41882">
        <ele>333.86065648599</ele>
        <time>2021-08-21T12:50:36Z</time>
      </trkpt>
      <trkpt lat="47.74994" lon="6.41869">
        <ele>333.8852766289</ele>
        <time>2021-08-21T12:50:38Z</time>
      </trkpt>
      <trkpt lat="47.74988" lon="6.41856">
        <ele>333.9366072235</ele>
        <time>2021-08-21T12:50:40Z</time>
      </trkpt>
      <trkpt lat="47.74984" lon="6.41845">
        <ele>333.94402271959</ele>
        <time>2021-08-21T12:50:42Z</time>
      </trkpt>
      <trkpt lat="47.7498" lon="6.41835">
        <ele>333.89186283383</ele>
        <time>2021-08-21T12:50:44Z</time>
      </trkpt>
      <trkpt lat="47.74975" lon="6.41823">
        <ele>333.83809507138</ele>
        <time>2021-08-21T12:50:46Z</time>
      </trkpt>
      <trkpt lat="47.74969" lon="6.41808">
        <ele>333.75106841186</ele>
        <time>2021-08-21T12:50:48Z</time>
      </trkpt>
      <trkpt lat="47.74963" lon="6.41791">
        <ele>333.65850553382</ele>
        <time>2021-08-21T12:50:50Z</time>
      </trkpt>
      <trkpt lat="47.74957" lon="6.41775">
        <ele>333.58627651633</ele>
        <time>2021-08-21T12:50:52Z</time>
      </trkpt>
      <trkpt lat="47.74951" lon="6.41759">
        <ele>333.56705972708</ele>
        <time>2021-08-21T12:50:54Z</time>
      </trkpt>
      <trkpt lat="47.74943" lon="6.41746">
        <ele>333.54430354052</ele>
        <time>2021-08-21T12:50:56Z</time>
      </trkpt>
      <trkpt lat="47.74935" lon="6.41734">
        <ele>333.5227500273</ele>
        <time>2021-08-21T12:50:58Z</time>
      </trkpt>
      <trkpt lat="47.74924" lon="6.41722">
        <ele>333.47706807048</ele>
        <time>2021-08-21T12:51:00Z</time>
      </trkpt>
      <trkpt lat="47.74914" lon="6.41712">
        <ele>333.43699450151</ele>
        <time>2021-08-21T12:51:02Z</time>
      </trkpt>
      <trkpt lat="47.74904" lon="6.41703">
        <ele>333.43173600676</ele>
        <time>2021-08-21T12:51:04Z</time>
      </trkpt>
      <trkpt lat="47.74893" lon="6.41695">
        <ele>333.43709472242</ele>
        <time>2021-08-21T12:51:06Z</time>
      </trkpt>
      <trkpt lat="47.74883" lon="6.41689">
        <ele>333.44831544476</ele>
        <time>2021-08-21T12:51:08Z</time>
      </trkpt>
      <trkpt lat="47.74873" lon="6.41682">
        <ele>333.46727362057</ele>
        <time>2021-08-21T12:51:10Z</time>
      </trkpt>
      <trkpt lat="47.74862" lon="6.41678">
        <ele>333.4605007267</ele>
        <time>2021-08-21T12:51:12Z</time>
      </trkpt>
      <trkpt lat="47.7485" lon="6.41675">
        <ele>333.44053938791</ele>
        <time>2021-08-21T12:51:14Z</time>
      </trkpt>
      <trkpt lat="47.74839" lon="6.41673">
        <ele>333.42043968274</ele>
        <time>2021-08-21T12:51:16Z</time>
      </trkpt>
      <trkpt lat="47.74827" lon="6.4167">
        <ele>333.3990389853</ele>
        <time>2021-08-21T12:51:18Z</time>
      </trkpt>
      <trkpt lat="47.74816" lon="6.41669">
        <ele>333.37888537085</ele>
        <time>2021-08-21T12:51:20Z</time>
      </trkpt>
      <trkpt lat="47.74805" lon="6.41665">
        <ele>333.3563834215</ele>
        <time>2021-08-21T12:51:22Z</time>
      </trkpt>
      <trkpt lat="47.74794" lon="6.41662">
        <ele>333.33799161949</ele>
        <time>2021-08-21T12:51:24Z</time>
      </trkpt>
      <trkpt lat="47.74785" lon="6.41658">
        <ele>333.31961287931</ele>
        <time>2021-08-21T12:51:26Z</time>
      </trkpt>
      <trkpt lat="47.74776" lon="6.41654">
        <ele>333.35238371868</ele>
        <time>2021-08-21T12:51:28Z</time>
      </trkpt>
      <trkpt lat="47.74767" lon="6.4165">
        <ele>333.37259384883</ele>
        <time>2021-08-21T12:51:30Z</time>
      </trkpt>
      <trkpt lat="47.74757" lon="6.41646">
        <ele>333.37747770886</ele>
        <time>2021-08-21T12:51:32Z</time>
      </trkpt>
      <trkpt lat="47.74749" lon="6.41642">
        <ele>333.38069360859</ele>
        <time>2021-08-21T12:51:34Z</time>
      </trkpt>
      <trkpt lat="47.7474" lon="6.41638">
        <ele>333.38614638444</ele>
        <time>2021-08-21T12:51:36Z</time>
      </trkpt>
      <trkpt lat="47.7473" lon="6.41636">
        <ele>333.39813302417</ele>
        <time>2021-08-21T12:51:38Z</time>
      </trkpt>
    </trkseg>
  </trk>
</gpx>